<?xml version="1.0" encoding="UTF-8" standalone="no" ?>
  <gpx version="1.0" creator="Loctome.com">
  <metadata>
  <link href="http://loctome.com">
      <text>Loctome Live Track GPS</text>
  </link>
  <desc>Track created by http://loctome.com</desc>
  <time>2016-10-08T11:27:35Z</time>
  </metadata>
  <trk>
   <name>JavierAguayo</name>
   <trkseg>
      <trkpt lat="41.0768583" lon="-3.7078334"><ele>1782</ele><speed>0</speed><time>2016-10-08T11:27:35Z</time><course>324</course><type>18</type></trkpt>
      <trkpt lat="41.07695" lon="-3.707995"><ele>1771</ele><speed>0</speed><time>2016-10-08T11:27:38Z</time><course>324</course><type>18</type></trkpt>
      <trkpt lat="41.077025" lon="-3.708135"><ele>1757</ele><speed>6</speed><time>2016-10-08T11:27:41Z</time><course>325</course><type>18</type></trkpt>
      <trkpt lat="41.0771383" lon="-3.708215"><ele>1749</ele><speed>7</speed><time>2016-10-08T11:27:46Z</time><course>326</course><type>18</type></trkpt>
      <trkpt lat="41.0769633" lon="-3.707845"><ele>1774</ele><speed>3</speed><time>2016-10-08T11:27:52Z</time><course>74</course><type>18</type></trkpt>
      <trkpt lat="41.0770166" lon="-3.7076184"><ele>1786</ele><speed>5</speed><time>2016-10-08T11:27:54Z</time><course>80</course><type>18</type></trkpt>
      <trkpt lat="41.0769583" lon="-3.7074734"><ele>1796</ele><speed>5</speed><time>2016-10-08T11:27:56Z</time><course>100</course><type>18</type></trkpt>
      <trkpt lat="41.0768916" lon="-3.7073834"><ele>1794</ele><speed>5</speed><time>2016-10-08T11:27:59Z</time><course>105</course><type>18</type></trkpt>
      <trkpt lat="41.0768083" lon="-3.707365"><ele>1788</ele><speed>0</speed><time>2016-10-08T11:28:11Z</time><course>139</course><type>18</type></trkpt>
      <trkpt lat="41.0768516" lon="-3.70727"><ele>1787</ele><speed>0</speed><time>2016-10-08T11:28:29Z</time><course>139</course><type>18</type></trkpt>
      <trkpt lat="41.0768583" lon="-3.7074"><ele>1787</ele><speed>0</speed><time>2016-10-08T11:28:36Z</time><course>139</course><type>18</type></trkpt>
      <trkpt lat="41.0768283" lon="-3.7075234"><ele>1788</ele><speed>0</speed><time>2016-10-08T11:28:39Z</time><course>139</course><type>18</type></trkpt>
      <trkpt lat="41.0769133" lon="-3.7074917"><ele>1791</ele><speed>0</speed><time>2016-10-08T11:28:48Z</time><course>139</course><type>18</type></trkpt>
      <trkpt lat="41.0768699" lon="-3.7075817"><ele>1792</ele><speed>0</speed><time>2016-10-08T11:28:59Z</time><course>318</course><type>18</type></trkpt>
      <trkpt lat="41.07686" lon="-3.7076934"><ele>1793</ele><speed>0</speed><time>2016-10-08T11:29:06Z</time><course>318</course><type>18</type></trkpt>
      <trkpt lat="41.0769599" lon="-3.7077184"><ele>1793</ele><speed>25</speed><time>2016-10-08T11:29:19Z</time><course>26</course><type>18</type></trkpt>
      <trkpt lat="41.0770049" lon="-3.7075817"><ele>1793</ele><speed>17</speed><time>2016-10-08T11:29:21Z</time><course>57</course><type>18</type></trkpt>
      <trkpt lat="41.0770066" lon="-3.70748"><ele>1793</ele><speed>0</speed><time>2016-10-08T11:29:28Z</time><course>176</course><type>18</type></trkpt>
      <trkpt lat="41.076925" lon="-3.7074984"><ele>1794</ele><speed>0</speed><time>2016-10-08T11:29:35Z</time><course>200</course><type>18</type></trkpt>
      <trkpt lat="41.076835" lon="-3.7073534"><ele>1794</ele><speed>10</speed><time>2016-10-08T11:29:39Z</time><course>139</course><type>18</type></trkpt>
      <trkpt lat="41.0767966" lon="-3.7072334"><ele>1794</ele><speed>6</speed><time>2016-10-08T11:29:41Z</time><course>121</course><type>18</type></trkpt>
      <trkpt lat="41.0768699" lon="-3.70735"><ele>1792</ele><speed>0</speed><time>2016-10-08T11:29:50Z</time><course>187</course><type>18</type></trkpt>
      <trkpt lat="41.0769633" lon="-3.7072717"><ele>1792</ele><speed>21</speed><time>2016-10-08T11:29:53Z</time><course>46</course><type>18</type></trkpt>
      <trkpt lat="41.0769683" lon="-3.707445"><ele>1793</ele><speed>6</speed><time>2016-10-08T11:29:56Z</time><course>71</course><type>18</type></trkpt>
      <trkpt lat="41.0769766" lon="-3.7075884"><ele>1794</ele><speed>3</speed><time>2016-10-08T11:29:58Z</time><course>95</course><type>18</type></trkpt>
      <trkpt lat="41.0770133" lon="-3.7074634"><ele>1793</ele><speed>9</speed><time>2016-10-08T11:30:13Z</time><course>85</course><type>18</type></trkpt>
      <trkpt lat="41.0769566" lon="-3.707545"><ele>1791</ele><speed>0</speed><time>2016-10-08T11:30:21Z</time><course>38</course><type>18</type></trkpt>
      <trkpt lat="41.07683" lon="-3.7075484"><ele>1793</ele><speed>9</speed><time>2016-10-08T11:30:27Z</time><course>184</course><type>18</type></trkpt>
      <trkpt lat="41.0768933" lon="-3.707625"><ele>1788</ele><speed>0</speed><time>2016-10-08T11:30:41Z</time><course>22</course><type>18</type></trkpt>
      <trkpt lat="41.0767466" lon="-3.7076234"><ele>1783</ele><speed>5</speed><time>2016-10-08T11:30:48Z</time><course>167</course><type>18</type></trkpt>
      <trkpt lat="41.0767933" lon="-3.7074867"><ele>1778</ele><speed>20</speed><time>2016-10-08T11:31:01Z</time><course>90</course><type>18</type></trkpt>
      <trkpt lat="41.0767583" lon="-3.707345"><ele>1776</ele><speed>20</speed><time>2016-10-08T11:31:03Z</time><course>97</course><type>18</type></trkpt>
      <trkpt lat="41.0767383" lon="-3.7074534"><ele>1773</ele><speed>1</speed><time>2016-10-08T11:31:10Z</time><course>349</course><type>18</type></trkpt>
      <trkpt lat="41.0767916" lon="-3.707585"><ele>1769</ele><speed>0</speed><time>2016-10-08T11:31:21Z</time><course>324</course><type>18</type></trkpt>
      <trkpt lat="41.0770383" lon="-3.7079084"><ele>1769</ele><speed>18</speed><time>2016-10-08T11:31:24Z</time><course>308</course><type>18</type></trkpt>
      <trkpt lat="41.07746" lon="-3.7079834"><ele>1769</ele><speed>25</speed><time>2016-10-08T11:31:25Z</time><course>319</course><type>18</type></trkpt>
      <trkpt lat="41.077605" lon="-3.7079917"><ele>1769</ele><speed>15</speed><time>2016-10-08T11:31:26Z</time><course>306</course><type>18</type></trkpt>
      <trkpt lat="41.0777249" lon="-3.7079467"><ele>1769</ele><speed>10</speed><time>2016-10-08T11:31:27Z</time><course>314</course><type>18</type></trkpt>
      <trkpt lat="41.0776533" lon="-3.7078217"><ele>1768</ele><speed>2</speed><time>2016-10-08T11:31:29Z</time><course>222</course><type>18</type></trkpt>
      <trkpt lat="41.0775533" lon="-3.7077884"><ele>1767</ele><speed>3</speed><time>2016-10-08T11:31:30Z</time><course>172</course><type>18</type></trkpt>
      <trkpt lat="41.07736" lon="-3.7078701"><ele>1766</ele><speed>3</speed><time>2016-10-08T11:31:33Z</time><course>129</course><type>18</type></trkpt>
      <trkpt lat="41.0772533" lon="-3.7078284"><ele>1767</ele><speed>19</speed><time>2016-10-08T11:31:36Z</time><course>98</course><type>18</type></trkpt>
      <trkpt lat="41.07724" lon="-3.7077167"><ele>1767</ele><speed>17</speed><time>2016-10-08T11:31:38Z</time><course>99</course><type>18</type></trkpt>
      <trkpt lat="41.0772316" lon="-3.707575"><ele>1768</ele><speed>14</speed><time>2016-10-08T11:31:41Z</time><course>96</course><type>18</type></trkpt>
      <trkpt lat="41.0771383" lon="-3.7076384"><ele>1768</ele><speed>8</speed><time>2016-10-08T11:31:42Z</time><course>105</course><type>18</type></trkpt>
      <trkpt lat="41.077015" lon="-3.7076834"><ele>1775</ele><speed>2</speed><time>2016-10-08T11:31:58Z</time><course>115</course><type>18</type></trkpt>
      <trkpt lat="41.0769283" lon="-3.7077334"><ele>1777</ele><speed>0</speed><time>2016-10-08T11:32:03Z</time><course>304</course><type>18</type></trkpt>
      <trkpt lat="41.0768583" lon="-3.7076784"><ele>1781</ele><speed>5</speed><time>2016-10-08T11:32:09Z</time><course>41</course><type>18</type></trkpt>
      <trkpt lat="41.0767383" lon="-3.7076834"><ele>1783</ele><speed>30</speed><time>2016-10-08T11:32:12Z</time><course>205</course><type>18</type></trkpt>
      <trkpt lat="41.0766083" lon="-3.7078117"><ele>1785</ele><speed>22</speed><time>2016-10-08T11:32:14Z</time><course>214</course><type>18</type></trkpt>
      <trkpt lat="41.076675" lon="-3.7077684"><ele>1783</ele><speed>9</speed><time>2016-10-08T11:32:26Z</time><course>10</course><type>18</type></trkpt>
      <trkpt lat="41.07675" lon="-3.707785"><ele>1784</ele><speed>11</speed><time>2016-10-08T11:32:29Z</time><course>352</course><type>18</type></trkpt>
      <trkpt lat="41.07679" lon="-3.7076767"><ele>1785</ele><speed>2</speed><time>2016-10-08T11:32:35Z</time><course>101</course><type>18</type></trkpt>
      <trkpt lat="41.0768466" lon="-3.7075634"><ele>1786</ele><speed>7</speed><time>2016-10-08T11:32:41Z</time><course>81</course><type>18</type></trkpt>
      <trkpt lat="41.07686" lon="-3.70744"><ele>1788</ele><speed>11</speed><time>2016-10-08T11:32:46Z</time><course>78</course><type>18</type></trkpt>
      <trkpt lat="41.0768616" lon="-3.7073184"><ele>1790</ele><speed>11</speed><time>2016-10-08T11:32:49Z</time><course>88</course><type>18</type></trkpt>
      <trkpt lat="41.0769433" lon="-3.7073751"><ele>1791</ele><speed>9</speed><time>2016-10-08T11:33:03Z</time><course>336</course><type>18</type></trkpt>
      <trkpt lat="41.0770283" lon="-3.7073867"><ele>1792</ele><speed>0</speed><time>2016-10-08T11:33:18Z</time><course>2</course><type>18</type></trkpt>
      <trkpt lat="41.07711" lon="-3.7074467"><ele>1793</ele><speed>9</speed><time>2016-10-08T11:33:22Z</time><course>329</course><type>18</type></trkpt>
      <trkpt lat="41.0771466" lon="-3.7075567"><ele>1797</ele><speed>0</speed><time>2016-10-08T11:33:52Z</time><course>355</course><type>18</type></trkpt>
      <trkpt lat="41.07725" lon="-3.7076317"><ele>1797</ele><speed>13</speed><time>2016-10-08T11:33:56Z</time><course>333</course><type>18</type></trkpt>
      <trkpt lat="41.0771316" lon="-3.707565"><ele>1797</ele><speed>7</speed><time>2016-10-08T11:33:58Z</time><course>330</course><type>18</type></trkpt>
      <trkpt lat="41.0769333" lon="-3.7074334"><ele>1796</ele><speed>0</speed><time>2016-10-08T11:34:00Z</time><course>21</course><type>18</type></trkpt>
      <trkpt lat="41.0768733" lon="-3.7073267"><ele>1794</ele><speed>10</speed><time>2016-10-08T11:34:15Z</time><course>92</course><type>18</type></trkpt>
      <trkpt lat="41.0767816" lon="-3.70728"><ele>1794</ele><speed>13</speed><time>2016-10-08T11:34:16Z</time><course>122</course><type>18</type></trkpt>
      <trkpt lat="41.076755" lon="-3.70749"><ele>1792</ele><speed>0</speed><time>2016-10-08T11:34:18Z</time><course>136</course><type>18</type></trkpt>
      <trkpt lat="41.076805" lon="-3.7075784"><ele>1793</ele><speed>14</speed><time>2016-10-08T11:34:25Z</time><course>293</course><type>18</type></trkpt>
      <trkpt lat="41.0767349" lon="-3.7076284"><ele>1794</ele><speed>0</speed><time>2016-10-08T11:34:34Z</time><course>1</course><type>18</type></trkpt>
      <trkpt lat="41.0767733" lon="-3.707715"><ele>1792</ele><speed>0</speed><time>2016-10-08T11:34:42Z</time><course>343</course><type>18</type></trkpt>
      <trkpt lat="41.0767933" lon="-3.7076017"><ele>1792</ele><speed>11</speed><time>2016-10-08T11:34:47Z</time><course>120</course><type>18</type></trkpt>
      <trkpt lat="41.0768966" lon="-3.7076834"><ele>1791</ele><speed>16</speed><time>2016-10-08T11:35:00Z</time><course>336</course><type>18</type></trkpt>
      <trkpt lat="41.07698" lon="-3.7077017"><ele>1791</ele><speed>12</speed><time>2016-10-08T11:35:03Z</time><course>346</course><type>18</type></trkpt>
      <trkpt lat="41.07695" lon="-3.7075684"><ele>1794</ele><speed>0</speed><time>2016-10-08T11:35:09Z</time><course>358</course><type>18</type></trkpt>
      <trkpt lat="41.07686" lon="-3.7076451"><ele>1793</ele><speed>4</speed><time>2016-10-08T11:35:14Z</time><course>351</course><type>18</type></trkpt>
      <trkpt lat="41.0768983" lon="-3.7077734"><ele>1794</ele><speed>9</speed><time>2016-10-08T11:35:20Z</time><course>329</course><type>18</type></trkpt>
      <trkpt lat="41.0768666" lon="-3.7079017"><ele>1802</ele><speed>6</speed><time>2016-10-08T11:35:42Z</time><course>247</course><type>18</type></trkpt>
      <trkpt lat="41.0768733" lon="-3.70776"><ele>1806</ele><speed>14</speed><time>2016-10-08T11:35:51Z</time><course>10</course><type>18</type></trkpt>
      <trkpt lat="41.0769533" lon="-3.7076684"><ele>1809</ele><speed>6</speed><time>2016-10-08T11:35:57Z</time><course>33</course><type>18</type></trkpt>
      <trkpt lat="41.0768266" lon="-3.7076417"><ele>1813</ele><speed>0</speed><time>2016-10-08T11:36:08Z</time><course>150</course><type>18</type></trkpt>
      <trkpt lat="41.0767349" lon="-3.7076417"><ele>1814</ele><speed>0</speed><time>2016-10-08T11:36:11Z</time><course>150</course><type>18</type></trkpt>
      <trkpt lat="41.0766516" lon="-3.70759"><ele>1815</ele><speed>5</speed><time>2016-10-08T11:36:15Z</time><course>183</course><type>18</type></trkpt>
      <trkpt lat="41.076745" lon="-3.7076384"><ele>1815</ele><speed>9</speed><time>2016-10-08T11:36:21Z</time><course>331</course><type>18</type></trkpt>
      <trkpt lat="41.0768416" lon="-3.70759"><ele>1818</ele><speed>4</speed><time>2016-10-08T11:36:31Z</time><course>336</course><type>18</type></trkpt>
      <trkpt lat="41.0769483" lon="-3.7076417"><ele>1819</ele><speed>0</speed><time>2016-10-08T11:36:42Z</time><course>336</course><type>18</type></trkpt>
      <trkpt lat="41.0770116" lon="-3.7075534"><ele>1819</ele><speed>4</speed><time>2016-10-08T11:36:48Z</time><course>346</course><type>18</type></trkpt>
      <trkpt lat="41.0769883" lon="-3.7076634"><ele>1819</ele><speed>9</speed><time>2016-10-08T11:37:03Z</time><course>284</course><type>18</type></trkpt>
      <trkpt lat="41.0769916" lon="-3.7077734"><ele>1818</ele><speed>17</speed><time>2016-10-08T11:37:10Z</time><course>326</course><type>18</type></trkpt>
      <trkpt lat="41.0770683" lon="-3.7078384"><ele>1819</ele><speed>9</speed><time>2016-10-08T11:37:15Z</time><course>333</course><type>18</type></trkpt>
      <trkpt lat="41.077155" lon="-3.707855"><ele>1833</ele><speed>0</speed><time>2016-10-08T11:37:40Z</time><course>331</course><type>18</type></trkpt>
      <trkpt lat="41.077195" lon="-3.7078867"><ele>1836</ele><speed>0</speed><time>2016-10-08T11:37:44Z</time><course>331</course><type>18</type></trkpt>
      <trkpt lat="41.0772733" lon="-3.70784"><ele>1841</ele><speed>0</speed><time>2016-10-08T11:37:50Z</time><course>34</course><type>18</type></trkpt>
      <trkpt lat="41.0773166" lon="-3.70794"><ele>1847</ele><speed>4</speed><time>2016-10-08T11:37:59Z</time><course>334</course><type>18</type></trkpt>
      <trkpt lat="41.0773283" lon="-3.7078317"><ele>1852</ele><speed>5</speed><time>2016-10-08T11:38:05Z</time><course>84</course><type>18</type></trkpt>
      <trkpt lat="41.0772816" lon="-3.7079367"><ele>1870</ele><speed>0</speed><time>2016-10-08T11:38:28Z</time><course>262</course><type>18</type></trkpt>
      <trkpt lat="41.0771366" lon="-3.7079267"><ele>1884</ele><speed>0</speed><time>2016-10-08T11:38:44Z</time><course>274</course><type>18</type></trkpt>
      <trkpt lat="41.0769983" lon="-3.7079084"><ele>1885</ele><speed>0</speed><time>2016-10-08T11:38:46Z</time><course>274</course><type>18</type></trkpt>
      <trkpt lat="41.0770716" lon="-3.7080767"><ele>1894</ele><speed>4</speed><time>2016-10-08T11:38:56Z</time><course>279</course><type>18</type></trkpt>
      <trkpt lat="41.077125" lon="-3.7082617"><ele>1898</ele><speed>7</speed><time>2016-10-08T11:39:01Z</time><course>257</course><type>18</type></trkpt>
      <trkpt lat="41.0772433" lon="-3.70841"><ele>1907</ele><speed>7</speed><time>2016-10-08T11:39:14Z</time><course>324</course><type>18</type></trkpt>
      <trkpt lat="41.0774633" lon="-3.7085817"><ele>1910</ele><speed>9</speed><time>2016-10-08T11:39:18Z</time><course>323</course><type>18</type></trkpt>
      <trkpt lat="41.077705" lon="-3.7087367"><ele>1911</ele><speed>11</speed><time>2016-10-08T11:39:19Z</time><course>327</course><type>18</type></trkpt>
      <trkpt lat="41.07773" lon="-3.7089417"><ele>1919</ele><speed>6</speed><time>2016-10-08T11:39:31Z</time><course>319</course><type>18</type></trkpt>
      <trkpt lat="41.0775883" lon="-3.7090484"><ele>1925</ele><speed>0</speed><time>2016-10-08T11:39:41Z</time><course>238</course><type>18</type></trkpt>
      <trkpt lat="41.077495" lon="-3.7091967"><ele>1927</ele><speed>0</speed><time>2016-10-08T11:39:51Z</time><course>238</course><type>18</type></trkpt>
      <trkpt lat="41.0774266" lon="-3.7093517"><ele>1928</ele><speed>0</speed><time>2016-10-08T11:39:58Z</time><course>292</course><type>18</type></trkpt>
      <trkpt lat="41.07755" lon="-3.709385"><ele>1931</ele><speed>0</speed><time>2016-10-08T11:40:14Z</time><course>300</course><type>18</type></trkpt>
      <trkpt lat="41.0773666" lon="-3.7093134"><ele>1931</ele><speed>0</speed><time>2016-10-08T11:40:16Z</time><course>300</course><type>18</type></trkpt>
      <trkpt lat="41.0772583" lon="-3.7092934"><ele>1931</ele><speed>0</speed><time>2016-10-08T11:40:25Z</time><course>300</course><type>18</type></trkpt>
      <trkpt lat="41.0771883" lon="-3.7092"><ele>1928</ele><speed>3</speed><time>2016-10-08T11:40:42Z</time><course>118</course><type>18</type></trkpt>
      <trkpt lat="41.0773216" lon="-3.7092934"><ele>1923</ele><speed>0</speed><time>2016-10-08T11:40:59Z</time><course>107</course><type>18</type></trkpt>
      <trkpt lat="41.077295" lon="-3.7091267"><ele>1926</ele><speed>0</speed><time>2016-10-08T11:41:25Z</time><course>107</course><type>18</type></trkpt>
      <trkpt lat="41.0773716" lon="-3.7092767"><ele>1926</ele><speed>0</speed><time>2016-10-08T11:41:26Z</time><course>107</course><type>18</type></trkpt>
      <trkpt lat="41.0774083" lon="-3.7089984"><ele>1926</ele><speed>0</speed><time>2016-10-08T11:41:30Z</time><course>107</course><type>18</type></trkpt>
      <trkpt lat="41.077355" lon="-3.7090667"><ele>1926</ele><speed>0</speed><time>2016-10-08T11:41:31Z</time><course>107</course><type>18</type></trkpt>
      <trkpt lat="41.0774366" lon="-3.7091034"><ele>1927</ele><speed>0</speed><time>2016-10-08T11:42:06Z</time><course>107</course><type>18</type></trkpt>
      <trkpt lat="41.07744" lon="-3.7090984"><ele>1927</ele><speed>0</speed><time>2016-10-08T11:43:06Z</time><course>107</course><type>18</type></trkpt>
      <trkpt lat="41.07744" lon="-3.7090984"><ele>1927</ele><speed>0</speed><time>2016-10-08T11:44:06Z</time><course>107</course><type>18</type></trkpt>
      <trkpt lat="41.0774483" lon="-3.70922"><ele>1927</ele><speed>0</speed><time>2016-10-08T11:44:48Z</time><course>107</course><type>18</type></trkpt>
      <trkpt lat="41.0775616" lon="-3.7091867"><ele>1927</ele><speed>0</speed><time>2016-10-08T11:45:17Z</time><course>107</course><type>18</type></trkpt>
      <trkpt lat="41.077465" lon="-3.7092184"><ele>1927</ele><speed>0</speed><time>2016-10-08T11:45:26Z</time><course>107</course><type>18</type></trkpt>
      <trkpt lat="41.0774383" lon="-3.7091984"><ele>1927</ele><speed>0</speed><time>2016-10-08T11:46:26Z</time><course>215</course><type>18</type></trkpt>
      <trkpt lat="41.077385" lon="-3.7092984"><ele>1928</ele><speed>0</speed><time>2016-10-08T11:47:17Z</time><course>289</course><type>18</type></trkpt>
      <trkpt lat="41.0772416" lon="-3.7093017"><ele>1928</ele><speed>0</speed><time>2016-10-08T11:47:26Z</time><course>289</course><type>18</type></trkpt>
      <trkpt lat="41.0771366" lon="-3.709385"><ele>1928</ele><speed>0</speed><time>2016-10-08T11:48:12Z</time><course>289</course><type>18</type></trkpt>
      <trkpt lat="41.07695" lon="-3.7092967"><ele>1927</ele><speed>0</speed><time>2016-10-08T11:48:25Z</time><course>289</course><type>18</type></trkpt>
      <trkpt lat="41.076855" lon="-3.7093784"><ele>1927</ele><speed>0</speed><time>2016-10-08T11:49:01Z</time><course>167</course><type>18</type></trkpt>
      <trkpt lat="41.076925" lon="-3.70944"><ele>1927</ele><speed>0</speed><time>2016-10-08T11:49:22Z</time><course>167</course><type>18</type></trkpt>
      <trkpt lat="41.0768983" lon="-3.7092917"><ele>1927</ele><speed>0</speed><time>2016-10-08T11:49:24Z</time><course>167</course><type>18</type></trkpt>
      <trkpt lat="41.0767983" lon="-3.7091317"><ele>1927</ele><speed>0</speed><time>2016-10-08T11:49:25Z</time><course>167</course><type>18</type></trkpt>
      <trkpt lat="41.0766283" lon="-3.7087917"><ele>1927</ele><speed>0</speed><time>2016-10-08T11:49:26Z</time><course>167</course><type>18</type></trkpt>
      <trkpt lat="41.076625" lon="-3.7089401"><ele>1927</ele><speed>0</speed><time>2016-10-08T11:49:28Z</time><course>167</course><type>18</type></trkpt>
      <trkpt lat="41.0766266" lon="-3.709095"><ele>1927</ele><speed>0</speed><time>2016-10-08T11:49:31Z</time><course>167</course><type>18</type></trkpt>
      <trkpt lat="41.07672" lon="-3.7091567"><ele>1927</ele><speed>0</speed><time>2016-10-08T11:49:37Z</time><course>167</course><type>18</type></trkpt>
      <trkpt lat="41.0767933" lon="-3.709195"><ele>1927</ele><speed>0</speed><time>2016-10-08T11:49:49Z</time><course>167</course><type>18</type></trkpt>
      <trkpt lat="41.0767933" lon="-3.709195"><ele>1927</ele><speed>0</speed><time>2016-10-08T11:50:49Z</time><course>167</course><type>18</type></trkpt>
      <trkpt lat="41.0768466" lon="-3.70926"><ele>1927</ele><speed>0</speed><time>2016-10-08T11:51:05Z</time><course>167</course><type>18</type></trkpt>
      <trkpt lat="41.076875" lon="-3.7093217"><ele>1927</ele><speed>0</speed><time>2016-10-08T11:51:09Z</time><course>167</course><type>18</type></trkpt>
      <trkpt lat="41.076885" lon="-3.7094184"><ele>1927</ele><speed>0</speed><time>2016-10-08T11:51:21Z</time><course>279</course><type>18</type></trkpt>
      <trkpt lat="41.0768483" lon="-3.70956"><ele>1926</ele><speed>0</speed><time>2016-10-08T11:51:37Z</time><course>279</course><type>18</type></trkpt>
      <trkpt lat="41.0769216" lon="-3.7095384"><ele>1926</ele><speed>3</speed><time>2016-10-08T11:52:02Z</time><course>24</course><type>18</type></trkpt>
      <trkpt lat="41.0769783" lon="-3.7095934"><ele>1926</ele><speed>0</speed><time>2016-10-08T11:52:17Z</time><course>17</course><type>18</type></trkpt>
      <trkpt lat="41.07697" lon="-3.7097067"><ele>1926</ele><speed>7</speed><time>2016-10-08T11:52:22Z</time><course>273</course><type>18</type></trkpt>
      <trkpt lat="41.0769583" lon="-3.7098234"><ele>1925</ele><speed>7</speed><time>2016-10-08T11:52:27Z</time><course>266</course><type>18</type></trkpt>
      <trkpt lat="41.0768966" lon="-3.7091367"><ele>1924</ele><speed>0</speed><time>2016-10-08T11:52:39Z</time><course>298</course><type>18</type></trkpt>
      <trkpt lat="41.0769316" lon="-3.7092884"><ele>1924</ele><speed>0</speed><time>2016-10-08T11:52:57Z</time><course>298</course><type>18</type></trkpt>
      <trkpt lat="41.07694" lon="-3.708965"><ele>1924</ele><speed>0</speed><time>2016-10-08T11:52:59Z</time><course>298</course><type>18</type></trkpt>
      <trkpt lat="41.0769366" lon="-3.7089767"><ele>1924</ele><speed>0</speed><time>2016-10-08T11:53:59Z</time><course>58</course><type>18</type></trkpt>
      <trkpt lat="41.0769366" lon="-3.7089767"><ele>1924</ele><speed>0</speed><time>2016-10-08T11:54:59Z</time><course>245</course><type>18</type></trkpt>
      <trkpt lat="41.0768283" lon="-3.7089684"><ele>1925</ele><speed>0</speed><time>2016-10-08T11:55:45Z</time><course>245</course><type>18</type></trkpt>
      <trkpt lat="41.0767766" lon="-3.7090967"><ele>1925</ele><speed>0</speed><time>2016-10-08T11:56:32Z</time><course>178</course><type>18</type></trkpt>
      <trkpt lat="41.076775" lon="-3.7091134"><ele>1925</ele><speed>0</speed><time>2016-10-08T11:57:32Z</time><course>178</course><type>18</type></trkpt>
      <trkpt lat="41.0768683" lon="-3.7090884"><ele>1925</ele><speed>0</speed><time>2016-10-08T11:57:52Z</time><course>178</course><type>18</type></trkpt>
      <trkpt lat="41.07697" lon="-3.7090017"><ele>1925</ele><speed>0</speed><time>2016-10-08T11:58:10Z</time><course>178</course><type>18</type></trkpt>
      <trkpt lat="41.0769833" lon="-3.7089784"><ele>1925</ele><speed>0</speed><time>2016-10-08T11:59:10Z</time><course>178</course><type>18</type></trkpt>
      <trkpt lat="41.077015" lon="-3.7091017"><ele>1924</ele><speed>0</speed><time>2016-10-08T11:59:16Z</time><course>178</course><type>18</type></trkpt>
      <trkpt lat="41.0769533" lon="-3.709205"><ele>1925</ele><speed>0</speed><time>2016-10-08T11:59:20Z</time><course>178</course><type>18</type></trkpt>
      <trkpt lat="41.076855" lon="-3.7089367"><ele>1925</ele><speed>0</speed><time>2016-10-08T11:59:30Z</time><course>259</course><type>18</type></trkpt>
      <trkpt lat="41.0767266" lon="-3.708755"><ele>1925</ele><speed>0</speed><time>2016-10-08T11:59:35Z</time><course>259</course><type>18</type></trkpt>
      <trkpt lat="41.0766983" lon="-3.7089367"><ele>1925</ele><speed>0</speed><time>2016-10-08T11:59:49Z</time><course>169</course><type>18</type></trkpt>
      <trkpt lat="41.0768216" lon="-3.7090584"><ele>1925</ele><speed>0</speed><time>2016-10-08T12:00:00Z</time><course>169</course><type>18</type></trkpt>
      <trkpt lat="41.0769316" lon="-3.7091534"><ele>1925</ele><speed>0</speed><time>2016-10-08T12:00:16Z</time><course>169</course><type>18</type></trkpt>
      <trkpt lat="41.0770383" lon="-3.709265"><ele>1925</ele><speed>0</speed><time>2016-10-08T12:00:23Z</time><course>169</course><type>18</type></trkpt>
      <trkpt lat="41.077135" lon="-3.70937"><ele>1925</ele><speed>0</speed><time>2016-10-08T12:00:44Z</time><course>279</course><type>18</type></trkpt>
      <trkpt lat="41.0772266" lon="-3.7094934"><ele>1926</ele><speed>15</speed><time>2016-10-08T12:00:47Z</time><course>334</course><type>18</type></trkpt>
      <trkpt lat="41.077345" lon="-3.70951"><ele>1926</ele><speed>18</speed><time>2016-10-08T12:00:49Z</time><course>353</course><type>18</type></trkpt>
      <trkpt lat="41.0774866" lon="-3.7095217"><ele>1926</ele><speed>17</speed><time>2016-10-08T12:00:52Z</time><course>0</course><type>18</type></trkpt>
      <trkpt lat="41.0776333" lon="-3.7094984"><ele>1926</ele><speed>17</speed><time>2016-10-08T12:00:55Z</time><course>5</course><type>18</type></trkpt>
      <trkpt lat="41.0778216" lon="-3.7091684"><ele>1926</ele><speed>16</speed><time>2016-10-08T12:00:58Z</time><course>1</course><type>18</type></trkpt>
      <trkpt lat="41.07793" lon="-3.70918"><ele>1927</ele><speed>10</speed><time>2016-10-08T12:01:01Z</time><course>350</course><type>18</type></trkpt>
      <trkpt lat="41.0779233" lon="-3.7093617"><ele>1927</ele><speed>9</speed><time>2016-10-08T12:01:06Z</time><course>265</course><type>18</type></trkpt>
      <trkpt lat="41.07785" lon="-3.7095567"><ele>1927</ele><speed>18</speed><time>2016-10-08T12:01:08Z</time><course>244</course><type>18</type></trkpt>
      <trkpt lat="41.0778016" lon="-3.7097567"><ele>1927</ele><speed>20</speed><time>2016-10-08T12:01:11Z</time><course>254</course><type>18</type></trkpt>
      <trkpt lat="41.0777583" lon="-3.7099167"><ele>1927</ele><speed>22</speed><time>2016-10-08T12:01:13Z</time><course>254</course><type>18</type></trkpt>
      <trkpt lat="41.0777116" lon="-3.71005"><ele>1927</ele><speed>21</speed><time>2016-10-08T12:01:15Z</time><course>247</course><type>18</type></trkpt>
      <trkpt lat="41.0776633" lon="-3.71019"><ele>1928</ele><speed>20</speed><time>2016-10-08T12:01:17Z</time><course>246</course><type>18</type></trkpt>
      <trkpt lat="41.0775883" lon="-3.7103867"><ele>1928</ele><speed>25</speed><time>2016-10-08T12:01:19Z</time><course>241</course><type>18</type></trkpt>
      <trkpt lat="41.077505" lon="-3.7105434"><ele>1928</ele><speed>26</speed><time>2016-10-08T12:01:21Z</time><course>235</course><type>18</type></trkpt>
      <trkpt lat="41.0774066" lon="-3.710675"><ele>1928</ele><speed>27</speed><time>2016-10-08T12:01:23Z</time><course>226</course><type>18</type></trkpt>
      <trkpt lat="41.0772733" lon="-3.7108334"><ele>1928</ele><speed>32</speed><time>2016-10-08T12:01:25Z</time><course>224</course><type>18</type></trkpt>
      <trkpt lat="41.0771416" lon="-3.7110017"><ele>1928</ele><speed>35</speed><time>2016-10-08T12:01:27Z</time><course>227</course><type>18</type></trkpt>
      <trkpt lat="41.07703" lon="-3.711175"><ele>1928</ele><speed>33</speed><time>2016-10-08T12:01:29Z</time><course>229</course><type>18</type></trkpt>
      <trkpt lat="41.0769333" lon="-3.711335"><ele>1928</ele><speed>32</speed><time>2016-10-08T12:01:31Z</time><course>231</course><type>18</type></trkpt>
      <trkpt lat="41.0768333" lon="-3.71151"><ele>1928</ele><speed>33</speed><time>2016-10-08T12:01:33Z</time><course>234</course><type>18</type></trkpt>
      <trkpt lat="41.07675" lon="-3.711685"><ele>1928</ele><speed>32</speed><time>2016-10-08T12:01:35Z</time><course>239</course><type>18</type></trkpt>
      <trkpt lat="41.076685" lon="-3.7118551"><ele>1928</ele><speed>30</speed><time>2016-10-08T12:01:37Z</time><course>243</course><type>18</type></trkpt>
      <trkpt lat="41.0766216" lon="-3.7120351"><ele>1929</ele><speed>30</speed><time>2016-10-08T12:01:39Z</time><course>245</course><type>18</type></trkpt>
      <trkpt lat="41.0765516" lon="-3.7122084"><ele>1929</ele><speed>29</speed><time>2016-10-08T12:01:41Z</time><course>240</course><type>18</type></trkpt>
      <trkpt lat="41.0764833" lon="-3.7123717"><ele>1929</ele><speed>27</speed><time>2016-10-08T12:01:43Z</time><course>240</course><type>18</type></trkpt>
      <trkpt lat="41.0764133" lon="-3.71254"><ele>1929</ele><speed>28</speed><time>2016-10-08T12:01:45Z</time><course>241</course><type>18</type></trkpt>
      <trkpt lat="41.0763366" lon="-3.7127217"><ele>1929</ele><speed>31</speed><time>2016-10-08T12:01:47Z</time><course>242</course><type>18</type></trkpt>
      <trkpt lat="41.0762499" lon="-3.7128934"><ele>1930</ele><speed>30</speed><time>2016-10-08T12:01:49Z</time><course>236</course><type>18</type></trkpt>
      <trkpt lat="41.0761599" lon="-3.7130917"><ele>1930</ele><speed>27</speed><time>2016-10-08T12:01:52Z</time><course>237</course><type>18</type></trkpt>
      <trkpt lat="41.0760516" lon="-3.7132667"><ele>1930</ele><speed>27</speed><time>2016-10-08T12:01:55Z</time><course>231</course><type>18</type></trkpt>
      <trkpt lat="41.0759833" lon="-3.7134651"><ele>1931</ele><speed>25</speed><time>2016-10-08T12:01:58Z</time><course>245</course><type>18</type></trkpt>
      <trkpt lat="41.0759283" lon="-3.713695"><ele>1931</ele><speed>27</speed><time>2016-10-08T12:02:01Z</time><course>247</course><type>18</type></trkpt>
      <trkpt lat="41.0758916" lon="-3.7139134"><ele>1932</ele><speed>26</speed><time>2016-10-08T12:02:04Z</time><course>260</course><type>18</type></trkpt>
      <trkpt lat="41.0758983" lon="-3.7140884"><ele>1932</ele><speed>28</speed><time>2016-10-08T12:02:06Z</time><course>272</course><type>18</type></trkpt>
      <trkpt lat="41.0759316" lon="-3.7142484"><ele>1932</ele><speed>26</speed><time>2016-10-08T12:02:08Z</time><course>282</course><type>18</type></trkpt>
      <trkpt lat="41.0759433" lon="-3.7144467"><ele>1932</ele><speed>24</speed><time>2016-10-08T12:02:10Z</time><course>284</course><type>18</type></trkpt>
      <trkpt lat="41.0759066" lon="-3.7147184"><ele>1933</ele><speed>22</speed><time>2016-10-08T12:02:12Z</time><course>282</course><type>18</type></trkpt>
      <trkpt lat="41.0760666" lon="-3.714765"><ele>1933</ele><speed>15</speed><time>2016-10-08T12:02:15Z</time><course>321</course><type>18</type></trkpt>
      <trkpt lat="41.0761533" lon="-3.7146251"><ele>1934</ele><speed>14</speed><time>2016-10-08T12:02:17Z</time><course>19</course><type>18</type></trkpt>
      <trkpt lat="41.0761716" lon="-3.7143767"><ele>1934</ele><speed>20</speed><time>2016-10-08T12:02:19Z</time><course>51</course><type>18</type></trkpt>
      <trkpt lat="41.0761183" lon="-3.714155"><ele>1934</ele><speed>23</speed><time>2016-10-08T12:02:20Z</time><course>72</course><type>18</type></trkpt>
      <trkpt lat="41.0760983" lon="-3.7140034"><ele>1934</ele><speed>22</speed><time>2016-10-08T12:02:21Z</time><course>78</course><type>18</type></trkpt>
      <trkpt lat="41.07599" lon="-3.7137717"><ele>1934</ele><speed>24</speed><time>2016-10-08T12:02:22Z</time><course>97</course><type>18</type></trkpt>
      <trkpt lat="41.075925" lon="-3.713635"><ele>1934</ele><speed>26</speed><time>2016-10-08T12:02:23Z</time><course>105</course><type>18</type></trkpt>
      <trkpt lat="41.0758633" lon="-3.7134884"><ele>1934</ele><speed>23</speed><time>2016-10-08T12:02:25Z</time><course>109</course><type>18</type></trkpt>
      <trkpt lat="41.0757816" lon="-3.7134201"><ele>1934</ele><speed>20</speed><time>2016-10-08T12:02:27Z</time><course>127</course><type>18</type></trkpt>
      <trkpt lat="41.0756833" lon="-3.7134684"><ele>1935</ele><speed>7</speed><time>2016-10-08T12:02:32Z</time><course>156</course><type>18</type></trkpt>
      <trkpt lat="41.07576" lon="-3.7136367"><ele>1936</ele><speed>6</speed><time>2016-10-08T12:02:35Z</time><course>298</course><type>18</type></trkpt>
      <trkpt lat="41.0758883" lon="-3.7137434"><ele>1936</ele><speed>14</speed><time>2016-10-08T12:02:37Z</time><course>327</course><type>18</type></trkpt>
      <trkpt lat="41.0760466" lon="-3.7138217"><ele>1937</ele><speed>21</speed><time>2016-10-08T12:02:39Z</time><course>338</course><type>18</type></trkpt>
      <trkpt lat="41.07621" lon="-3.7138967"><ele>1938</ele><speed>21</speed><time>2016-10-08T12:02:42Z</time><course>347</course><type>18</type></trkpt>
      <trkpt lat="41.07636" lon="-3.7139967"><ele>1938</ele><speed>21</speed><time>2016-10-08T12:02:45Z</time><course>357</course><type>18</type></trkpt>
      <trkpt lat="41.0764216" lon="-3.7142084"><ele>1938</ele><speed>22</speed><time>2016-10-08T12:02:46Z</time><course>350</course><type>18</type></trkpt>
      <trkpt lat="41.0763766" lon="-3.713995"><ele>1939</ele><speed>14</speed><time>2016-10-08T12:02:49Z</time><course>23</course><type>18</type></trkpt>
      <trkpt lat="41.0761733" lon="-3.7136317"><ele>1939</ele><speed>9</speed><time>2016-10-08T12:02:50Z</time><course>99</course><type>18</type></trkpt>
      <trkpt lat="41.07609" lon="-3.7135334"><ele>1939</ele><speed>19</speed><time>2016-10-08T12:02:51Z</time><course>126</course><type>18</type></trkpt>
      <trkpt lat="41.075895" lon="-3.7133234"><ele>1939</ele><speed>26</speed><time>2016-10-08T12:02:53Z</time><course>142</course><type>18</type></trkpt>
      <trkpt lat="41.0757816" lon="-3.7132"><ele>1939</ele><speed>28</speed><time>2016-10-08T12:02:54Z</time><course>146</course><type>18</type></trkpt>
      <trkpt lat="41.0756716" lon="-3.713155"><ele>1940</ele><speed>29</speed><time>2016-10-08T12:02:55Z</time><course>158</course><type>18</type></trkpt>
      <trkpt lat="41.075515" lon="-3.71309"><ele>1940</ele><speed>21</speed><time>2016-10-08T12:02:57Z</time><course>161</course><type>18</type></trkpt>
      <trkpt lat="41.075375" lon="-3.71303"><ele>1940</ele><speed>18</speed><time>2016-10-08T12:02:59Z</time><course>171</course><type>18</type></trkpt>
      <trkpt lat="41.075175" lon="-3.7128917"><ele>1940</ele><speed>19</speed><time>2016-10-08T12:03:01Z</time><course>180</course><type>18</type></trkpt>
      <trkpt lat="41.0750983" lon="-3.7129417"><ele>1940</ele><speed>18</speed><time>2016-10-08T12:03:02Z</time><course>196</course><type>18</type></trkpt>
      <trkpt lat="41.0750766" lon="-3.7130467"><ele>1941</ele><speed>17</speed><time>2016-10-08T12:03:03Z</time><course>239</course><type>18</type></trkpt>
      <trkpt lat="41.0750466" lon="-3.713175"><ele>1941</ele><speed>14</speed><time>2016-10-08T12:03:05Z</time><course>245</course><type>18</type></trkpt>
      <trkpt lat="41.0750383" lon="-3.7132984"><ele>1941</ele><speed>12</speed><time>2016-10-08T12:03:07Z</time><course>262</course><type>18</type></trkpt>
      <trkpt lat="41.0750966" lon="-3.7134434"><ele>1941</ele><speed>15</speed><time>2016-10-08T12:03:09Z</time><course>288</course><type>18</type></trkpt>
      <trkpt lat="41.0751433" lon="-3.7135167"><ele>1941</ele><speed>17</speed><time>2016-10-08T12:03:10Z</time><course>299</course><type>18</type></trkpt>
      <trkpt lat="41.075205" lon="-3.7135834"><ele>1941</ele><speed>19</speed><time>2016-10-08T12:03:11Z</time><course>307</course><type>18</type></trkpt>
      <trkpt lat="41.0752683" lon="-3.7136317"><ele>1941</ele><speed>19</speed><time>2016-10-08T12:03:12Z</time><course>317</course><type>18</type></trkpt>
      <trkpt lat="41.0753333" lon="-3.7137"><ele>1941</ele><speed>20</speed><time>2016-10-08T12:03:13Z</time><course>325</course><type>18</type></trkpt>
      <trkpt lat="41.0753966" lon="-3.713855"><ele>1941</ele><speed>16</speed><time>2016-10-08T12:03:15Z</time><course>339</course><type>18</type></trkpt>
      <trkpt lat="41.0754783" lon="-3.7138267"><ele>1941</ele><speed>11</speed><time>2016-10-08T12:03:17Z</time><course>10</course><type>18</type></trkpt>
      <trkpt lat="41.0755216" lon="-3.7137784"><ele>1942</ele><speed>12</speed><time>2016-10-08T12:03:18Z</time><course>26</course><type>18</type></trkpt>
      <trkpt lat="41.0755933" lon="-3.713645"><ele>1942</ele><speed>17</speed><time>2016-10-08T12:03:20Z</time><course>48</course><type>18</type></trkpt>
      <trkpt lat="41.0756166" lon="-3.71346"><ele>1943</ele><speed>19</speed><time>2016-10-08T12:03:22Z</time><course>75</course><type>18</type></trkpt>
      <trkpt lat="41.07557" lon="-3.7133334"><ele>1942</ele><speed>21</speed><time>2016-10-08T12:03:23Z</time><course>98</course><type>18</type></trkpt>
      <trkpt lat="41.0754516" lon="-3.7131934"><ele>1942</ele><speed>31</speed><time>2016-10-08T12:03:24Z</time><course>135</course><type>18</type></trkpt>
      <trkpt lat="41.07538" lon="-3.7130984"><ele>1943</ele><speed>33</speed><time>2016-10-08T12:03:25Z</time><course>139</course><type>18</type></trkpt>
      <trkpt lat="41.07529" lon="-3.7130184"><ele>1943</ele><speed>35</speed><time>2016-10-08T12:03:26Z</time><course>149</course><type>18</type></trkpt>
      <trkpt lat="41.07519" lon="-3.7129534"><ele>1943</ele><speed>35</speed><time>2016-10-08T12:03:27Z</time><course>155</course><type>18</type></trkpt>
      <trkpt lat="41.0750983" lon="-3.71291"><ele>1943</ele><speed>34</speed><time>2016-10-08T12:03:28Z</time><course>160</course><type>18</type></trkpt>
      <trkpt lat="41.0750083" lon="-3.71289"><ele>1944</ele><speed>33</speed><time>2016-10-08T12:03:29Z</time><course>167</course><type>18</type></trkpt>
      <trkpt lat="41.0749133" lon="-3.7129017"><ele>1944</ele><speed>33</speed><time>2016-10-08T12:03:30Z</time><course>176</course><type>18</type></trkpt>
      <trkpt lat="41.0748283" lon="-3.712945"><ele>1944</ele><speed>32</speed><time>2016-10-08T12:03:31Z</time><course>187</course><type>18</type></trkpt>
      <trkpt lat="41.0747566" lon="-3.712995"><ele>1945</ele><speed>30</speed><time>2016-10-08T12:03:32Z</time><course>196</course><type>18</type></trkpt>
      <trkpt lat="41.0746749" lon="-3.7130484"><ele>1945</ele><speed>30</speed><time>2016-10-08T12:03:33Z</time><course>205</course><type>18</type></trkpt>
      <trkpt lat="41.0746233" lon="-3.7131067"><ele>1946</ele><speed>25</speed><time>2016-10-08T12:03:34Z</time><course>219</course><type>18</type></trkpt>
      <trkpt lat="41.07457" lon="-3.7131984"><ele>1946</ele><speed>27</speed><time>2016-10-08T12:03:35Z</time><course>232</course><type>18</type></trkpt>
      <trkpt lat="41.0745283" lon="-3.7133017"><ele>1947</ele><speed>28</speed><time>2016-10-08T12:03:36Z</time><course>240</course><type>18</type></trkpt>
      <trkpt lat="41.07449" lon="-3.7134084"><ele>1947</ele><speed>28</speed><time>2016-10-08T12:03:37Z</time><course>242</course><type>18</type></trkpt>
      <trkpt lat="41.0744716" lon="-3.713495"><ele>1947</ele><speed>25</speed><time>2016-10-08T12:03:38Z</time><course>249</course><type>18</type></trkpt>
      <trkpt lat="41.0744616" lon="-3.71359"><ele>1948</ele><speed>23</speed><time>2016-10-08T12:03:39Z</time><course>255</course><type>18</type></trkpt>
      <trkpt lat="41.074455" lon="-3.7136767"><ele>1948</ele><speed>21</speed><time>2016-10-08T12:03:40Z</time><course>259</course><type>18</type></trkpt>
      <trkpt lat="41.0744516" lon="-3.713765"><ele>1948</ele><speed>22</speed><time>2016-10-08T12:03:41Z</time><course>266</course><type>18</type></trkpt>
      <trkpt lat="41.074455" lon="-3.7138484"><ele>1949</ele><speed>22</speed><time>2016-10-08T12:03:42Z</time><course>273</course><type>18</type></trkpt>
      <trkpt lat="41.0744666" lon="-3.7139267"><ele>1949</ele><speed>22</speed><time>2016-10-08T12:03:43Z</time><course>280</course><type>18</type></trkpt>
      <trkpt lat="41.0744883" lon="-3.7139967"><ele>1949</ele><speed>22</speed><time>2016-10-08T12:03:44Z</time><course>289</course><type>18</type></trkpt>
      <trkpt lat="41.0745116" lon="-3.714065"><ele>1949</ele><speed>22</speed><time>2016-10-08T12:03:45Z</time><course>294</course><type>18</type></trkpt>
      <trkpt lat="41.0745383" lon="-3.71413"><ele>1950</ele><speed>21</speed><time>2016-10-08T12:03:46Z</time><course>297</course><type>18</type></trkpt>
      <trkpt lat="41.0746133" lon="-3.7142134"><ele>1950</ele><speed>19</speed><time>2016-10-08T12:03:48Z</time><course>312</course><type>18</type></trkpt>
      <trkpt lat="41.0747216" lon="-3.71424"><ele>1951</ele><speed>17</speed><time>2016-10-08T12:03:50Z</time><course>330</course><type>18</type></trkpt>
      <trkpt lat="41.0748333" lon="-3.7142167"><ele>1952</ele><speed>18</speed><time>2016-10-08T12:03:52Z</time><course>346</course><type>18</type></trkpt>
      <trkpt lat="41.0749316" lon="-3.714145"><ele>1952</ele><speed>15</speed><time>2016-10-08T12:03:54Z</time><course>3</course><type>18</type></trkpt>
      <trkpt lat="41.0749866" lon="-3.7140567"><ele>1953</ele><speed>17</speed><time>2016-10-08T12:03:55Z</time><course>20</course><type>18</type></trkpt>
      <trkpt lat="41.075045" lon="-3.7139784"><ele>1953</ele><speed>20</speed><time>2016-10-08T12:03:56Z</time><course>28</course><type>18</type></trkpt>
      <trkpt lat="41.0751366" lon="-3.7138667"><ele>1954</ele><speed>23</speed><time>2016-10-08T12:03:58Z</time><course>37</course><type>18</type></trkpt>
      <trkpt lat="41.0752316" lon="-3.713745"><ele>1954</ele><speed>25</speed><time>2016-10-08T12:04:00Z</time><course>40</course><type>18</type></trkpt>
      <trkpt lat="41.0752783" lon="-3.7136667"><ele>1955</ele><speed>25</speed><time>2016-10-08T12:04:01Z</time><course>42</course><type>18</type></trkpt>
      <trkpt lat="41.07532" lon="-3.71359"><ele>1955</ele><speed>25</speed><time>2016-10-08T12:04:02Z</time><course>46</course><type>18</type></trkpt>
      <trkpt lat="41.0753566" lon="-3.7135101"><ele>1956</ele><speed>27</speed><time>2016-10-08T12:04:03Z</time><course>54</course><type>18</type></trkpt>
      <trkpt lat="41.0754066" lon="-3.7134234"><ele>1956</ele><speed>30</speed><time>2016-10-08T12:04:04Z</time><course>59</course><type>18</type></trkpt>
      <trkpt lat="41.0754483" lon="-3.713325"><ele>1956</ele><speed>33</speed><time>2016-10-08T12:04:05Z</time><course>65</course><type>18</type></trkpt>
      <trkpt lat="41.075475" lon="-3.7132067"><ele>1956</ele><speed>35</speed><time>2016-10-08T12:04:06Z</time><course>70</course><type>18</type></trkpt>
      <trkpt lat="41.0755" lon="-3.7130917"><ele>1957</ele><speed>35</speed><time>2016-10-08T12:04:07Z</time><course>75</course><type>18</type></trkpt>
      <trkpt lat="41.0755133" lon="-3.7129701"><ele>1957</ele><speed>36</speed><time>2016-10-08T12:04:08Z</time><course>82</course><type>18</type></trkpt>
      <trkpt lat="41.0755016" lon="-3.7128417"><ele>1958</ele><speed>36</speed><time>2016-10-08T12:04:09Z</time><course>92</course><type>18</type></trkpt>
      <trkpt lat="41.0754633" lon="-3.712715"><ele>1958</ele><speed>36</speed><time>2016-10-08T12:04:10Z</time><course>100</course><type>18</type></trkpt>
      <trkpt lat="41.0753383" lon="-3.712585"><ele>1959</ele><speed>46</speed><time>2016-10-08T12:04:11Z</time><course>131</course><type>18</type></trkpt>
      <trkpt lat="41.0752416" lon="-3.7124817"><ele>1959</ele><speed>47</speed><time>2016-10-08T12:04:12Z</time><course>136</course><type>18</type></trkpt>
      <trkpt lat="41.0751416" lon="-3.7123984"><ele>1960</ele><speed>46</speed><time>2016-10-08T12:04:13Z</time><course>142</course><type>18</type></trkpt>
      <trkpt lat="41.0750349" lon="-3.71234"><ele>1960</ele><speed>44</speed><time>2016-10-08T12:04:14Z</time><course>149</course><type>18</type></trkpt>
      <trkpt lat="41.0749366" lon="-3.7122817"><ele>1960</ele><speed>42</speed><time>2016-10-08T12:04:15Z</time><course>151</course><type>18</type></trkpt>
      <trkpt lat="41.074845" lon="-3.7122584"><ele>1961</ele><speed>36</speed><time>2016-10-08T12:04:16Z</time><course>158</course><type>18</type></trkpt>
      <trkpt lat="41.0747566" lon="-3.712265"><ele>1961</ele><speed>35</speed><time>2016-10-08T12:04:17Z</time><course>164</course><type>18</type></trkpt>
      <trkpt lat="41.0746749" lon="-3.7123"><ele>1962</ele><speed>33</speed><time>2016-10-08T12:04:18Z</time><course>171</course><type>18</type></trkpt>
      <trkpt lat="41.0746033" lon="-3.712365"><ele>1962</ele><speed>31</speed><time>2016-10-08T12:04:19Z</time><course>180</course><type>18</type></trkpt>
      <trkpt lat="41.0745483" lon="-3.712455"><ele>1962</ele><speed>27</speed><time>2016-10-08T12:04:20Z</time><course>191</course><type>18</type></trkpt>
      <trkpt lat="41.0745316" lon="-3.71257"><ele>1962</ele><speed>23</speed><time>2016-10-08T12:04:21Z</time><course>210</course><type>18</type></trkpt>
      <trkpt lat="41.0745266" lon="-3.7126784"><ele>1963</ele><speed>22</speed><time>2016-10-08T12:04:22Z</time><course>230</course><type>18</type></trkpt>
      <trkpt lat="41.074535" lon="-3.71278"><ele>1963</ele><speed>22</speed><time>2016-10-08T12:04:23Z</time><course>249</course><type>18</type></trkpt>
      <trkpt lat="41.0745483" lon="-3.7128801"><ele>1963</ele><speed>23</speed><time>2016-10-08T12:04:24Z</time><course>262</course><type>18</type></trkpt>
      <trkpt lat="41.0746083" lon="-3.7130234"><ele>1964</ele><speed>19</speed><time>2016-10-08T12:04:26Z</time><course>285</course><type>18</type></trkpt>
      <trkpt lat="41.0746516" lon="-3.71316"><ele>1964</ele><speed>18</speed><time>2016-10-08T12:04:28Z</time><course>292</course><type>18</type></trkpt>
      <trkpt lat="41.074705" lon="-3.7132817"><ele>1965</ele><speed>18</speed><time>2016-10-08T12:04:30Z</time><course>306</course><type>18</type></trkpt>
      <trkpt lat="41.0747633" lon="-3.713415"><ele>1966</ele><speed>20</speed><time>2016-10-08T12:04:32Z</time><course>315</course><type>18</type></trkpt>
      <trkpt lat="41.0748416" lon="-3.7135084"><ele>1967</ele><speed>19</speed><time>2016-10-08T12:04:34Z</time><course>327</course><type>18</type></trkpt>
      <trkpt lat="41.0749333" lon="-3.7135617"><ele>1968</ele><speed>18</speed><time>2016-10-08T12:04:36Z</time><course>345</course><type>18</type></trkpt>
      <trkpt lat="41.07503" lon="-3.7135717"><ele>1970</ele><speed>18</speed><time>2016-10-08T12:04:38Z</time><course>2</course><type>18</type></trkpt>
      <trkpt lat="41.075135" lon="-3.71358"><ele>1971</ele><speed>20</speed><time>2016-10-08T12:04:40Z</time><course>2</course><type>18</type></trkpt>
      <trkpt lat="41.075245" lon="-3.7135684"><ele>1973</ele><speed>21</speed><time>2016-10-08T12:04:42Z</time><course>9</course><type>18</type></trkpt>
      <trkpt lat="41.0753033" lon="-3.7135417"><ele>1973</ele><speed>22</speed><time>2016-10-08T12:04:43Z</time><course>18</course><type>18</type></trkpt>
      <trkpt lat="41.0753583" lon="-3.7135184"><ele>1974</ele><speed>22</speed><time>2016-10-08T12:04:44Z</time><course>21</course><type>18</type></trkpt>
      <trkpt lat="41.0754133" lon="-3.7134917"><ele>1975</ele><speed>24</speed><time>2016-10-08T12:04:45Z</time><course>22</course><type>18</type></trkpt>
      <trkpt lat="41.0754716" lon="-3.7134634"><ele>1975</ele><speed>24</speed><time>2016-10-08T12:04:46Z</time><course>22</course><type>18</type></trkpt>
      <trkpt lat="41.075535" lon="-3.7134267"><ele>1976</ele><speed>26</speed><time>2016-10-08T12:04:47Z</time><course>23</course><type>18</type></trkpt>
      <trkpt lat="41.0755966" lon="-3.7133817"><ele>1976</ele><speed>28</speed><time>2016-10-08T12:04:48Z</time><course>28</course><type>18</type></trkpt>
      <trkpt lat="41.0756516" lon="-3.7133284"><ele>1977</ele><speed>26</speed><time>2016-10-08T12:04:49Z</time><course>30</course><type>18</type></trkpt>
      <trkpt lat="41.075705" lon="-3.7132851"><ele>1977</ele><speed>24</speed><time>2016-10-08T12:04:50Z</time><course>28</course><type>18</type></trkpt>
      <trkpt lat="41.0757533" lon="-3.71325"><ele>1978</ele><speed>21</speed><time>2016-10-08T12:04:51Z</time><course>24</course><type>18</type></trkpt>
      <trkpt lat="41.075855" lon="-3.7132167"><ele>1979</ele><speed>20</speed><time>2016-10-08T12:04:53Z</time><course>17</course><type>18</type></trkpt>
      <trkpt lat="41.0759066" lon="-3.7131951"><ele>1979</ele><speed>20</speed><time>2016-10-08T12:04:54Z</time><course>16</course><type>18</type></trkpt>
      <trkpt lat="41.0759583" lon="-3.7131734"><ele>1980</ele><speed>21</speed><time>2016-10-08T12:04:55Z</time><course>18</course><type>18</type></trkpt>
      <trkpt lat="41.0760633" lon="-3.713145"><ele>1981</ele><speed>20</speed><time>2016-10-08T12:04:57Z</time><course>13</course><type>18</type></trkpt>
      <trkpt lat="41.0761166" lon="-3.7131284"><ele>1981</ele><speed>20</speed><time>2016-10-08T12:04:58Z</time><course>15</course><type>18</type></trkpt>
      <trkpt lat="41.0761683" lon="-3.7131051"><ele>1981</ele><speed>23</speed><time>2016-10-08T12:04:59Z</time><course>19</course><type>18</type></trkpt>
      <trkpt lat="41.0762266" lon="-3.7130684"><ele>1982</ele><speed>26</speed><time>2016-10-08T12:05:00Z</time><course>25</course><type>18</type></trkpt>
      <trkpt lat="41.0762883" lon="-3.7130217"><ele>1982</ele><speed>29</speed><time>2016-10-08T12:05:01Z</time><course>29</course><type>18</type></trkpt>
      <trkpt lat="41.0763533" lon="-3.7129634"><ele>1982</ele><speed>31</speed><time>2016-10-08T12:05:02Z</time><course>32</course><type>18</type></trkpt>
      <trkpt lat="41.0764183" lon="-3.7128917"><ele>1982</ele><speed>33</speed><time>2016-10-08T12:05:03Z</time><course>36</course><type>18</type></trkpt>
      <trkpt lat="41.0764816" lon="-3.712815"><ele>1983</ele><speed>33</speed><time>2016-10-08T12:05:04Z</time><course>39</course><type>18</type></trkpt>
      <trkpt lat="41.0765416" lon="-3.7127267"><ele>1983</ele><speed>35</speed><time>2016-10-08T12:05:05Z</time><course>45</course><type>18</type></trkpt>
      <trkpt lat="41.0765983" lon="-3.7126334"><ele>1983</ele><speed>36</speed><time>2016-10-08T12:05:06Z</time><course>48</course><type>18</type></trkpt>
      <trkpt lat="41.0766483" lon="-3.71253"><ele>1984</ele><speed>36</speed><time>2016-10-08T12:05:07Z</time><course>53</course><type>18</type></trkpt>
      <trkpt lat="41.0767016" lon="-3.712425"><ele>1984</ele><speed>37</speed><time>2016-10-08T12:05:08Z</time><course>54</course><type>18</type></trkpt>
      <trkpt lat="41.0767483" lon="-3.7123134"><ele>1984</ele><speed>37</speed><time>2016-10-08T12:05:09Z</time><course>57</course><type>18</type></trkpt>
      <trkpt lat="41.0767983" lon="-3.7122"><ele>1984</ele><speed>38</speed><time>2016-10-08T12:05:10Z</time><course>58</course><type>18</type></trkpt>
      <trkpt lat="41.0768466" lon="-3.7120917"><ele>1984</ele><speed>37</speed><time>2016-10-08T12:05:11Z</time><course>58</course><type>18</type></trkpt>
      <trkpt lat="41.0768933" lon="-3.711985"><ele>1984</ele><speed>37</speed><time>2016-10-08T12:05:12Z</time><course>59</course><type>18</type></trkpt>
      <trkpt lat="41.0769383" lon="-3.7118767"><ele>1984</ele><speed>38</speed><time>2016-10-08T12:05:13Z</time><course>59</course><type>18</type></trkpt>
      <trkpt lat="41.0769816" lon="-3.7117634"><ele>1984</ele><speed>39</speed><time>2016-10-08T12:05:14Z</time><course>61</course><type>18</type></trkpt>
      <trkpt lat="41.0770216" lon="-3.7116467"><ele>1984</ele><speed>39</speed><time>2016-10-08T12:05:15Z</time><course>63</course><type>18</type></trkpt>
      <trkpt lat="41.0770516" lon="-3.7115217"><ele>1983</ele><speed>40</speed><time>2016-10-08T12:05:16Z</time><course>63</course><type>18</type></trkpt>
      <trkpt lat="41.0770966" lon="-3.7114084"><ele>1983</ele><speed>38</speed><time>2016-10-08T12:05:17Z</time><course>60</course><type>18</type></trkpt>
      <trkpt lat="41.0771416" lon="-3.711305"><ele>1982</ele><speed>36</speed><time>2016-10-08T12:05:18Z</time><course>58</course><type>18</type></trkpt>
      <trkpt lat="41.0771916" lon="-3.71121"><ele>1982</ele><speed>34</speed><time>2016-10-08T12:05:19Z</time><course>55</course><type>18</type></trkpt>
      <trkpt lat="41.0772483" lon="-3.7111234"><ele>1982</ele><speed>34</speed><time>2016-10-08T12:05:20Z</time><course>51</course><type>18</type></trkpt>
      <trkpt lat="41.0773066" lon="-3.7110367"><ele>1982</ele><speed>35</speed><time>2016-10-08T12:05:21Z</time><course>49</course><type>18</type></trkpt>
      <trkpt lat="41.0773716" lon="-3.7109434"><ele>1981</ele><speed>37</speed><time>2016-10-08T12:05:22Z</time><course>48</course><type>18</type></trkpt>
      <trkpt lat="41.0774266" lon="-3.7108467"><ele>1981</ele><speed>38</speed><time>2016-10-08T12:05:23Z</time><course>50</course><type>18</type></trkpt>
      <trkpt lat="41.07748" lon="-3.7107517"><ele>1981</ele><speed>36</speed><time>2016-10-08T12:05:24Z</time><course>51</course><type>18</type></trkpt>
      <trkpt lat="41.0775283" lon="-3.71066"><ele>1980</ele><speed>35</speed><time>2016-10-08T12:05:25Z</time><course>52</course><type>18</type></trkpt>
      <trkpt lat="41.07758" lon="-3.7105684"><ele>1980</ele><speed>35</speed><time>2016-10-08T12:05:26Z</time><course>51</course><type>18</type></trkpt>
      <trkpt lat="41.07764" lon="-3.7104834"><ele>1980</ele><speed>36</speed><time>2016-10-08T12:05:27Z</time><course>49</course><type>18</type></trkpt>
      <trkpt lat="41.077705" lon="-3.7103884"><ele>1979</ele><speed>39</speed><time>2016-10-08T12:05:28Z</time><course>48</course><type>18</type></trkpt>
      <trkpt lat="41.0777716" lon="-3.710285"><ele>1979</ele><speed>41</speed><time>2016-10-08T12:05:29Z</time><course>49</course><type>18</type></trkpt>
      <trkpt lat="41.07784" lon="-3.7101834"><ele>1979</ele><speed>41</speed><time>2016-10-08T12:05:30Z</time><course>49</course><type>18</type></trkpt>
      <trkpt lat="41.0779" lon="-3.7100834"><ele>1978</ele><speed>40</speed><time>2016-10-08T12:05:31Z</time><course>51</course><type>18</type></trkpt>
      <trkpt lat="41.0779616" lon="-3.70998"><ele>1978</ele><speed>40</speed><time>2016-10-08T12:05:32Z</time><course>52</course><type>18</type></trkpt>
      <trkpt lat="41.0780233" lon="-3.7098734"><ele>1977</ele><speed>40</speed><time>2016-10-08T12:05:33Z</time><course>52</course><type>18</type></trkpt>
      <trkpt lat="41.0780816" lon="-3.7097634"><ele>1976</ele><speed>40</speed><time>2016-10-08T12:05:34Z</time><course>53</course><type>18</type></trkpt>
      <trkpt lat="41.07814" lon="-3.7096517"><ele>1976</ele><speed>40</speed><time>2016-10-08T12:05:35Z</time><course>54</course><type>18</type></trkpt>
      <trkpt lat="41.0781966" lon="-3.70954"><ele>1975</ele><speed>40</speed><time>2016-10-08T12:05:36Z</time><course>55</course><type>18</type></trkpt>
      <trkpt lat="41.07824" lon="-3.7094134"><ele>1974</ele><speed>40</speed><time>2016-10-08T12:05:37Z</time><course>59</course><type>18</type></trkpt>
      <trkpt lat="41.0782816" lon="-3.709295"><ele>1972</ele><speed>39</speed><time>2016-10-08T12:05:38Z</time><course>62</course><type>18</type></trkpt>
      <trkpt lat="41.0783233" lon="-3.70918"><ele>1972</ele><speed>39</speed><time>2016-10-08T12:05:39Z</time><course>62</course><type>18</type></trkpt>
      <trkpt lat="41.0783666" lon="-3.709065"><ele>1971</ele><speed>38</speed><time>2016-10-08T12:05:40Z</time><course>60</course><type>18</type></trkpt>
      <trkpt lat="41.0784133" lon="-3.708955"><ele>1971</ele><speed>38</speed><time>2016-10-08T12:05:41Z</time><course>59</course><type>18</type></trkpt>
      <trkpt lat="41.0784666" lon="-3.7088417"><ele>1970</ele><speed>40</speed><time>2016-10-08T12:05:42Z</time><course>56</course><type>18</type></trkpt>
      <trkpt lat="41.0785283" lon="-3.7087367"><ele>1969</ele><speed>41</speed><time>2016-10-08T12:05:43Z</time><course>54</course><type>18</type></trkpt>
      <trkpt lat="41.0785916" lon="-3.70864"><ele>1969</ele><speed>40</speed><time>2016-10-08T12:05:44Z</time><course>51</course><type>18</type></trkpt>
      <trkpt lat="41.0786533" lon="-3.7085517"><ele>1968</ele><speed>39</speed><time>2016-10-08T12:05:45Z</time><course>49</course><type>18</type></trkpt>
      <trkpt lat="41.078725" lon="-3.70848"><ele>1968</ele><speed>38</speed><time>2016-10-08T12:05:46Z</time><course>45</course><type>18</type></trkpt>
      <trkpt lat="41.0787933" lon="-3.7083984"><ele>1967</ele><speed>37</speed><time>2016-10-08T12:05:47Z</time><course>42</course><type>18</type></trkpt>
      <trkpt lat="41.0788666" lon="-3.708315"><ele>1967</ele><speed>39</speed><time>2016-10-08T12:05:48Z</time><course>41</course><type>18</type></trkpt>
      <trkpt lat="41.078945" lon="-3.7082367"><ele>1966</ele><speed>40</speed><time>2016-10-08T12:05:49Z</time><course>40</course><type>18</type></trkpt>
      <trkpt lat="41.0790166" lon="-3.7081584"><ele>1965</ele><speed>41</speed><time>2016-10-08T12:05:50Z</time><course>41</course><type>18</type></trkpt>
      <trkpt lat="41.079085" lon="-3.7080767"><ele>1964</ele><speed>37</speed><time>2016-10-08T12:05:51Z</time><course>41</course><type>18</type></trkpt>
      <trkpt lat="41.079145" lon="-3.7079967"><ele>1964</ele><speed>34</speed><time>2016-10-08T12:05:52Z</time><course>41</course><type>18</type></trkpt>
      <trkpt lat="41.0792033" lon="-3.7079317"><ele>1963</ele><speed>31</speed><time>2016-10-08T12:05:53Z</time><course>39</course><type>18</type></trkpt>
      <trkpt lat="41.0792633" lon="-3.7078684"><ele>1963</ele><speed>31</speed><time>2016-10-08T12:05:54Z</time><course>38</course><type>18</type></trkpt>
      <trkpt lat="41.079335" lon="-3.7078084"><ele>1962</ele><speed>32</speed><time>2016-10-08T12:05:55Z</time><course>35</course><type>18</type></trkpt>
      <trkpt lat="41.079415" lon="-3.7077467"><ele>1962</ele><speed>34</speed><time>2016-10-08T12:05:56Z</time><course>31</course><type>18</type></trkpt>
      <trkpt lat="41.0794883" lon="-3.7076884"><ele>1961</ele><speed>35</speed><time>2016-10-08T12:05:57Z</time><course>30</course><type>18</type></trkpt>
      <trkpt lat="41.079575" lon="-3.70765"><ele>1959</ele><speed>23</speed><time>2016-10-08T12:05:59Z</time><course>18</course><type>18</type></trkpt>
      <trkpt lat="41.0797216" lon="-3.7076867"><ele>1954</ele><speed>25</speed><time>2016-10-08T12:06:02Z</time><course>1</course><type>18</type></trkpt>
      <trkpt lat="41.0798233" lon="-3.7077184"><ele>1953</ele><speed>29</speed><time>2016-10-08T12:06:03Z</time><course>357</course><type>18</type></trkpt>
      <trkpt lat="41.0799133" lon="-3.70776"><ele>1951</ele><speed>31</speed><time>2016-10-08T12:06:04Z</time><course>354</course><type>18</type></trkpt>
      <trkpt lat="41.080035" lon="-3.707775"><ele>1948</ele><speed>31</speed><time>2016-10-08T12:06:06Z</time><course>357</course><type>18</type></trkpt>
      <trkpt lat="41.0801633" lon="-3.7076934"><ele>1945</ele><speed>33</speed><time>2016-10-08T12:06:08Z</time><course>17</course><type>18</type></trkpt>
      <trkpt lat="41.08024" lon="-3.70759"><ele>1944</ele><speed>37</speed><time>2016-10-08T12:06:09Z</time><course>31</course><type>18</type></trkpt>
      <trkpt lat="41.0803233" lon="-3.707495"><ele>1943</ele><speed>39</speed><time>2016-10-08T12:06:10Z</time><course>35</course><type>18</type></trkpt>
      <trkpt lat="41.0804299" lon="-3.7074034"><ele>1941</ele><speed>45</speed><time>2016-10-08T12:06:11Z</time><course>41</course><type>18</type></trkpt>
      <trkpt lat="41.0804983" lon="-3.7072617"><ele>1940</ele><speed>48</speed><time>2016-10-08T12:06:12Z</time><course>55</course><type>18</type></trkpt>
      <trkpt lat="41.0805616" lon="-3.7071184"><ele>1939</ele><speed>48</speed><time>2016-10-08T12:06:13Z</time><course>58</course><type>18</type></trkpt>
      <trkpt lat="41.0806066" lon="-3.70698"><ele>1938</ele><speed>45</speed><time>2016-10-08T12:06:14Z</time><course>64</course><type>18</type></trkpt>
      <trkpt lat="41.0806466" lon="-3.7068434"><ele>1937</ele><speed>43</speed><time>2016-10-08T12:06:15Z</time><course>67</course><type>18</type></trkpt>
      <trkpt lat="41.080685" lon="-3.7067117"><ele>1936</ele><speed>42</speed><time>2016-10-08T12:06:16Z</time><course>68</course><type>18</type></trkpt>
      <trkpt lat="41.0807183" lon="-3.7065834"><ele>1936</ele><speed>40</speed><time>2016-10-08T12:06:17Z</time><course>69</course><type>18</type></trkpt>
      <trkpt lat="41.0807183" lon="-3.70644"><ele>1935</ele><speed>40</speed><time>2016-10-08T12:06:18Z</time><course>72</course><type>18</type></trkpt>
      <trkpt lat="41.0806183" lon="-3.7062567"><ele>1933</ele><speed>41</speed><time>2016-10-08T12:06:19Z</time><course>85</course><type>18</type></trkpt>
      <trkpt lat="41.0805066" lon="-3.7060984"><ele>1932</ele><speed>41</speed><time>2016-10-08T12:06:20Z</time><course>96</course><type>18</type></trkpt>
      <trkpt lat="41.08041" lon="-3.7059517"><ele>1931</ele><speed>43</speed><time>2016-10-08T12:06:21Z</time><course>107</course><type>18</type></trkpt>
      <trkpt lat="41.0803266" lon="-3.7058534"><ele>1930</ele><speed>42</speed><time>2016-10-08T12:06:22Z</time><course>113</course><type>18</type></trkpt>
      <trkpt lat="41.0801883" lon="-3.7059217"><ele>1930</ele><speed>35</speed><time>2016-10-08T12:06:23Z</time><course>139</course><type>18</type></trkpt>
      <trkpt lat="41.0800683" lon="-3.70587"><ele>1929</ele><speed>36</speed><time>2016-10-08T12:06:24Z</time><course>144</course><type>18</type></trkpt>
      <trkpt lat="41.0799216" lon="-3.7058567"><ele>1928</ele><speed>38</speed><time>2016-10-08T12:06:25Z</time><course>154</course><type>18</type></trkpt>
      <trkpt lat="41.0797283" lon="-3.7059017"><ele>1926</ele><speed>36</speed><time>2016-10-08T12:06:27Z</time><course>164</course><type>18</type></trkpt>
      <trkpt lat="41.0795616" lon="-3.7058884"><ele>1924</ele><speed>38</speed><time>2016-10-08T12:06:28Z</time><course>165</course><type>18</type></trkpt>
      <trkpt lat="41.079445" lon="-3.705895"><ele>1923</ele><speed>38</speed><time>2016-10-08T12:06:29Z</time><course>166</course><type>18</type></trkpt>
      <trkpt lat="41.0793166" lon="-3.7059284"><ele>1922</ele><speed>37</speed><time>2016-10-08T12:06:30Z</time><course>167</course><type>18</type></trkpt>
      <trkpt lat="41.079225" lon="-3.70594"><ele>1921</ele><speed>36</speed><time>2016-10-08T12:06:31Z</time><course>168</course><type>18</type></trkpt>
      <trkpt lat="41.079285" lon="-3.7061084"><ele>1917</ele><speed>25</speed><time>2016-10-08T12:06:32Z</time><course>176</course><type>18</type></trkpt>
      <trkpt lat="41.07938" lon="-3.7063067"><ele>1913</ele><speed>14</speed><time>2016-10-08T12:06:33Z</time><course>213</course><type>18</type></trkpt>
      <trkpt lat="41.0793366" lon="-3.70645"><ele>1910</ele><speed>16</speed><time>2016-10-08T12:06:34Z</time><course>227</course><type>18</type></trkpt>
      <trkpt lat="41.0792366" lon="-3.7066917"><ele>1904</ele><speed>22</speed><time>2016-10-08T12:06:36Z</time><course>236</course><type>18</type></trkpt>
      <trkpt lat="41.0791916" lon="-3.7067834"><ele>1902</ele><speed>22</speed><time>2016-10-08T12:06:37Z</time><course>234</course><type>18</type></trkpt>
      <trkpt lat="41.0790983" lon="-3.7069784"><ele>1897</ele><speed>25</speed><time>2016-10-08T12:06:39Z</time><course>235</course><type>18</type></trkpt>
      <trkpt lat="41.07904" lon="-3.707075"><ele>1895</ele><speed>25</speed><time>2016-10-08T12:06:40Z</time><course>233</course><type>18</type></trkpt>
      <trkpt lat="41.0789733" lon="-3.7071784"><ele>1893</ele><speed>27</speed><time>2016-10-08T12:06:41Z</time><course>231</course><type>18</type></trkpt>
      <trkpt lat="41.0789133" lon="-3.707265"><ele>1891</ele><speed>28</speed><time>2016-10-08T12:06:42Z</time><course>232</course><type>18</type></trkpt>
      <trkpt lat="41.07884" lon="-3.707365"><ele>1888</ele><speed>30</speed><time>2016-10-08T12:06:43Z</time><course>233</course><type>18</type></trkpt>
      <trkpt lat="41.0787966" lon="-3.7074634"><ele>1886</ele><speed>31</speed><time>2016-10-08T12:06:44Z</time><course>238</course><type>18</type></trkpt>
      <trkpt lat="41.078755" lon="-3.7075634"><ele>1883</ele><speed>34</speed><time>2016-10-08T12:06:45Z</time><course>240</course><type>18</type></trkpt>
      <trkpt lat="41.078725" lon="-3.7076667"><ele>1881</ele><speed>34</speed><time>2016-10-08T12:06:46Z</time><course>246</course><type>18</type></trkpt>
      <trkpt lat="41.078695" lon="-3.707765"><ele>1880</ele><speed>32</speed><time>2016-10-08T12:06:47Z</time><course>244</course><type>18</type></trkpt>
      <trkpt lat="41.0786483" lon="-3.7079151"><ele>1877</ele><speed>26</speed><time>2016-10-08T12:06:49Z</time><course>243</course><type>18</type></trkpt>
      <trkpt lat="41.0785866" lon="-3.7080717"><ele>1873</ele><speed>30</speed><time>2016-10-08T12:06:51Z</time><course>246</course><type>18</type></trkpt>
      <trkpt lat="41.078515" lon="-3.7082334"><ele>1871</ele><speed>41</speed><time>2016-10-08T12:06:52Z</time><course>242</course><type>18</type></trkpt>
      <trkpt lat="41.0784583" lon="-3.70832"><ele>1869</ele><speed>38</speed><time>2016-10-08T12:06:53Z</time><course>235</course><type>18</type></trkpt>
      <trkpt lat="41.07838" lon="-3.70843"><ele>1866</ele><speed>28</speed><time>2016-10-08T12:06:55Z</time><course>222</course><type>18</type></trkpt>
      <trkpt lat="41.0783" lon="-3.708515"><ele>1863</ele><speed>23</speed><time>2016-10-08T12:06:57Z</time><course>221</course><type>18</type></trkpt>
      <trkpt lat="41.078205" lon="-3.7086367"><ele>1860</ele><speed>29</speed><time>2016-10-08T12:06:59Z</time><course>223</course><type>18</type></trkpt>
      <trkpt lat="41.0781" lon="-3.7087484"><ele>1855</ele><speed>29</speed><time>2016-10-08T12:07:01Z</time><course>224</course><type>18</type></trkpt>
      <trkpt lat="41.0780316" lon="-3.708845"><ele>1851</ele><speed>22</speed><time>2016-10-08T12:07:03Z</time><course>227</course><type>18</type></trkpt>
      <trkpt lat="41.0779383" lon="-3.70896"><ele>1848</ele><speed>27</speed><time>2016-10-08T12:07:05Z</time><course>222</course><type>18</type></trkpt>
      <trkpt lat="41.0778783" lon="-3.7090267"><ele>1845</ele><speed>32</speed><time>2016-10-08T12:07:06Z</time><course>222</course><type>18</type></trkpt>
      <trkpt lat="41.07781" lon="-3.7090967"><ele>1843</ele><speed>35</speed><time>2016-10-08T12:07:07Z</time><course>220</course><type>18</type></trkpt>
      <trkpt lat="41.07775" lon="-3.7091667"><ele>1841</ele><speed>33</speed><time>2016-10-08T12:07:08Z</time><course>223</course><type>18</type></trkpt>
      <trkpt lat="41.07769" lon="-3.7092417"><ele>1839</ele><speed>32</speed><time>2016-10-08T12:07:09Z</time><course>224</course><type>18</type></trkpt>
      <trkpt lat="41.07763" lon="-3.7093234"><ele>1837</ele><speed>33</speed><time>2016-10-08T12:07:10Z</time><course>226</course><type>18</type></trkpt>
      <trkpt lat="41.0775733" lon="-3.7094084"><ele>1835</ele><speed>33</speed><time>2016-10-08T12:07:11Z</time><course>226</course><type>18</type></trkpt>
      <trkpt lat="41.0775083" lon="-3.7095017"><ele>1833</ele><speed>34</speed><time>2016-10-08T12:07:12Z</time><course>227</course><type>18</type></trkpt>
      <trkpt lat="41.077445" lon="-3.7096"><ele>1831</ele><speed>35</speed><time>2016-10-08T12:07:13Z</time><course>228</course><type>18</type></trkpt>
      <trkpt lat="41.0773616" lon="-3.7097367"><ele>1826</ele><speed>30</speed><time>2016-10-08T12:07:15Z</time><course>231</course><type>18</type></trkpt>
      <trkpt lat="41.0772733" lon="-3.7099217"><ele>1820</ele><speed>32</speed><time>2016-10-08T12:07:17Z</time><course>240</course><type>18</type></trkpt>
      <trkpt lat="41.0772183" lon="-3.7100367"><ele>1818</ele><speed>35</speed><time>2016-10-08T12:07:18Z</time><course>239</course><type>18</type></trkpt>
      <trkpt lat="41.0771616" lon="-3.71015"><ele>1816</ele><speed>36</speed><time>2016-10-08T12:07:19Z</time><course>235</course><type>18</type></trkpt>
      <trkpt lat="41.0771016" lon="-3.71025"><ele>1815</ele><speed>36</speed><time>2016-10-08T12:07:20Z</time><course>231</course><type>18</type></trkpt>
      <trkpt lat="41.0770499" lon="-3.7103384"><ele>1813</ele><speed>35</speed><time>2016-10-08T12:07:21Z</time><course>230</course><type>18</type></trkpt>
      <trkpt lat="41.0769933" lon="-3.710425"><ele>1811</ele><speed>33</speed><time>2016-10-08T12:07:22Z</time><course>229</course><type>18</type></trkpt>
      <trkpt lat="41.076945" lon="-3.7104967"><ele>1810</ele><speed>31</speed><time>2016-10-08T12:07:23Z</time><course>228</course><type>18</type></trkpt>
      <trkpt lat="41.0768916" lon="-3.710575"><ele>1808</ele><speed>31</speed><time>2016-10-08T12:07:24Z</time><course>228</course><type>18</type></trkpt>
      <trkpt lat="41.0768316" lon="-3.71066"><ele>1807</ele><speed>34</speed><time>2016-10-08T12:07:25Z</time><course>226</course><type>18</type></trkpt>
      <trkpt lat="41.07677" lon="-3.7107317"><ele>1806</ele><speed>34</speed><time>2016-10-08T12:07:26Z</time><course>222</course><type>18</type></trkpt>
      <trkpt lat="41.07671" lon="-3.710785"><ele>1805</ele><speed>33</speed><time>2016-10-08T12:07:27Z</time><course>216</course><type>18</type></trkpt>
      <trkpt lat="41.07665" lon="-3.7108417"><ele>1804</ele><speed>31</speed><time>2016-10-08T12:07:28Z</time><course>215</course><type>18</type></trkpt>
      <trkpt lat="41.0765483" lon="-3.71094"><ele>1801</ele><speed>25</speed><time>2016-10-08T12:07:30Z</time><course>218</course><type>18</type></trkpt>
      <trkpt lat="41.076495" lon="-3.71101"><ele>1800</ele><speed>26</speed><time>2016-10-08T12:07:31Z</time><course>224</course><type>18</type></trkpt>
      <trkpt lat="41.0764766" lon="-3.71112"><ele>1798</ele><speed>33</speed><time>2016-10-08T12:07:32Z</time><course>246</course><type>18</type></trkpt>
      <trkpt lat="41.0764316" lon="-3.7112817"><ele>1797</ele><speed>26</speed><time>2016-10-08T12:07:34Z</time><course>246</course><type>18</type></trkpt>
      <trkpt lat="41.0764066" lon="-3.71141"><ele>1795</ele><speed>23</speed><time>2016-10-08T12:07:36Z</time><course>253</course><type>18</type></trkpt>
      <trkpt lat="41.07639" lon="-3.7115534"><ele>1794</ele><speed>24</speed><time>2016-10-08T12:07:38Z</time><course>257</course><type>18</type></trkpt>
      <trkpt lat="41.0763583" lon="-3.7117034"><ele>1793</ele><speed>23</speed><time>2016-10-08T12:07:40Z</time><course>251</course><type>18</type></trkpt>
      <trkpt lat="41.076325" lon="-3.71183"><ele>1793</ele><speed>23</speed><time>2016-10-08T12:07:42Z</time><course>248</course><type>18</type></trkpt>
      <trkpt lat="41.0762683" lon="-3.7119684"><ele>1792</ele><speed>24</speed><time>2016-10-08T12:07:44Z</time><course>237</course><type>18</type></trkpt>
      <trkpt lat="41.076175" lon="-3.71209"><ele>1791</ele><speed>27</speed><time>2016-10-08T12:07:46Z</time><course>223</course><type>18</type></trkpt>
      <trkpt lat="41.076065" lon="-3.71221"><ele>1790</ele><speed>29</speed><time>2016-10-08T12:07:48Z</time><course>224</course><type>18</type></trkpt>
      <trkpt lat="41.0760033" lon="-3.7122917"><ele>1790</ele><speed>32</speed><time>2016-10-08T12:07:49Z</time><course>228</course><type>18</type></trkpt>
      <trkpt lat="41.0759416" lon="-3.7123767"><ele>1789</ele><speed>34</speed><time>2016-10-08T12:07:50Z</time><course>227</course><type>18</type></trkpt>
      <trkpt lat="41.0758833" lon="-3.7124567"><ele>1789</ele><speed>34</speed><time>2016-10-08T12:07:51Z</time><course>225</course><type>18</type></trkpt>
      <trkpt lat="41.0758283" lon="-3.7125234"><ele>1788</ele><speed>30</speed><time>2016-10-08T12:07:52Z</time><course>222</course><type>18</type></trkpt>
      <trkpt lat="41.0757716" lon="-3.7125867"><ele>1788</ele><speed>29</speed><time>2016-10-08T12:07:53Z</time><course>220</course><type>18</type></trkpt>
      <trkpt lat="41.075715" lon="-3.7126484"><ele>1787</ele><speed>28</speed><time>2016-10-08T12:07:54Z</time><course>220</course><type>18</type></trkpt>
      <trkpt lat="41.07566" lon="-3.7127167"><ele>1787</ele><speed>30</speed><time>2016-10-08T12:07:55Z</time><course>224</course><type>18</type></trkpt>
      <trkpt lat="41.0756016" lon="-3.712795"><ele>1786</ele><speed>32</speed><time>2016-10-08T12:07:56Z</time><course>227</course><type>18</type></trkpt>
      <trkpt lat="41.0755416" lon="-3.7128784"><ele>1786</ele><speed>34</speed><time>2016-10-08T12:07:57Z</time><course>226</course><type>18</type></trkpt>
      <trkpt lat="41.0754833" lon="-3.71295"><ele>1785</ele><speed>33</speed><time>2016-10-08T12:07:58Z</time><course>224</course><type>18</type></trkpt>
      <trkpt lat="41.0754266" lon="-3.7130084"><ele>1785</ele><speed>32</speed><time>2016-10-08T12:07:59Z</time><course>218</course><type>18</type></trkpt>
      <trkpt lat="41.0753116" lon="-3.713115"><ele>1784</ele><speed>30</speed><time>2016-10-08T12:08:01Z</time><course>219</course><type>18</type></trkpt>
      <trkpt lat="41.075255" lon="-3.7131817"><ele>1784</ele><speed>31</speed><time>2016-10-08T12:08:02Z</time><course>223</course><type>18</type></trkpt>
      <trkpt lat="41.0751966" lon="-3.7132584"><ele>1784</ele><speed>33</speed><time>2016-10-08T12:08:03Z</time><course>225</course><type>18</type></trkpt>
      <trkpt lat="41.0751283" lon="-3.7133384"><ele>1783</ele><speed>35</speed><time>2016-10-08T12:08:04Z</time><course>222</course><type>18</type></trkpt>
      <trkpt lat="41.07506" lon="-3.7134067"><ele>1783</ele><speed>35</speed><time>2016-10-08T12:08:05Z</time><course>219</course><type>18</type></trkpt>
      <trkpt lat="41.0749966" lon="-3.7134567"><ele>1783</ele><speed>32</speed><time>2016-10-08T12:08:06Z</time><course>213</course><type>18</type></trkpt>
      <trkpt lat="41.0749366" lon="-3.7135134"><ele>1783</ele><speed>32</speed><time>2016-10-08T12:08:07Z</time><course>219</course><type>18</type></trkpt>
      <trkpt lat="41.0748766" lon="-3.7135884"><ele>1783</ele><speed>33</speed><time>2016-10-08T12:08:08Z</time><course>227</course><type>18</type></trkpt>
      <trkpt lat="41.07482" lon="-3.713675"><ele>1783</ele><speed>34</speed><time>2016-10-08T12:08:09Z</time><course>231</course><type>18</type></trkpt>
      <trkpt lat="41.0747649" lon="-3.7137584"><ele>1783</ele><speed>32</speed><time>2016-10-08T12:08:10Z</time><course>228</course><type>18</type></trkpt>
      <trkpt lat="41.07471" lon="-3.7138317"><ele>1784</ele><speed>31</speed><time>2016-10-08T12:08:11Z</time><course>225</course><type>18</type></trkpt>
      <trkpt lat="41.0746016" lon="-3.7139617"><ele>1784</ele><speed>29</speed><time>2016-10-08T12:08:13Z</time><course>223</course><type>18</type></trkpt>
      <trkpt lat="41.0745566" lon="-3.7140267"><ele>1784</ele><speed>28</speed><time>2016-10-08T12:08:14Z</time><course>231</course><type>18</type></trkpt>
      <trkpt lat="41.0745233" lon="-3.714085"><ele>1786</ele><speed>28</speed><time>2016-10-08T12:08:15Z</time><course>235</course><type>18</type></trkpt>
      <trkpt lat="41.0744916" lon="-3.7141567"><ele>1786</ele><speed>28</speed><time>2016-10-08T12:08:16Z</time><course>238</course><type>18</type></trkpt>
      <trkpt lat="41.074425" lon="-3.7142734"><ele>1789</ele><speed>24</speed><time>2016-10-08T12:08:18Z</time><course>231</course><type>18</type></trkpt>
      <trkpt lat="41.07438" lon="-3.7143467"><ele>1790</ele><speed>24</speed><time>2016-10-08T12:08:19Z</time><course>232</course><type>18</type></trkpt>
      <trkpt lat="41.07434" lon="-3.7144167"><ele>1791</ele><speed>24</speed><time>2016-10-08T12:08:20Z</time><course>236</course><type>18</type></trkpt>
      <trkpt lat="41.0743066" lon="-3.7144934"><ele>1791</ele><speed>26</speed><time>2016-10-08T12:08:21Z</time><course>241</course><type>18</type></trkpt>
      <trkpt lat="41.0742699" lon="-3.7145834"><ele>1792</ele><speed>30</speed><time>2016-10-08T12:08:22Z</time><course>241</course><type>18</type></trkpt>
      <trkpt lat="41.0742349" lon="-3.7146684"><ele>1792</ele><speed>32</speed><time>2016-10-08T12:08:23Z</time><course>239</course><type>18</type></trkpt>
      <trkpt lat="41.0741883" lon="-3.714755"><ele>1793</ele><speed>31</speed><time>2016-10-08T12:08:24Z</time><course>235</course><type>18</type></trkpt>
      <trkpt lat="41.0741349" lon="-3.7148367"><ele>1794</ele><speed>32</speed><time>2016-10-08T12:08:25Z</time><course>229</course><type>18</type></trkpt>
      <trkpt lat="41.0740683" lon="-3.7149184"><ele>1795</ele><speed>31</speed><time>2016-10-08T12:08:26Z</time><course>224</course><type>18</type></trkpt>
      <trkpt lat="41.0740133" lon="-3.7149884"><ele>1796</ele><speed>31</speed><time>2016-10-08T12:08:27Z</time><course>224</course><type>18</type></trkpt>
      <trkpt lat="41.0739649" lon="-3.7150584"><ele>1797</ele><speed>29</speed><time>2016-10-08T12:08:28Z</time><course>227</course><type>18</type></trkpt>
      <trkpt lat="41.0739266" lon="-3.7151217"><ele>1798</ele><speed>27</speed><time>2016-10-08T12:08:29Z</time><course>229</course><type>18</type></trkpt>
      <trkpt lat="41.073885" lon="-3.715185"><ele>1799</ele><speed>24</speed><time>2016-10-08T12:08:30Z</time><course>231</course><type>18</type></trkpt>
      <trkpt lat="41.073855" lon="-3.715245"><ele>1800</ele><speed>22</speed><time>2016-10-08T12:08:31Z</time><course>237</course><type>18</type></trkpt>
      <trkpt lat="41.0737983" lon="-3.71535"><ele>1802</ele><speed>17</speed><time>2016-10-08T12:08:33Z</time><course>233</course><type>18</type></trkpt>
      <trkpt lat="41.073735" lon="-3.7154284"><ele>1803</ele><speed>17</speed><time>2016-10-08T12:08:35Z</time><course>216</course><type>18</type></trkpt>
      <trkpt lat="41.0736183" lon="-3.7155017"><ele>1805</ele><speed>23</speed><time>2016-10-08T12:08:37Z</time><course>199</course><type>18</type></trkpt>
      <trkpt lat="41.0735466" lon="-3.715535"><ele>1806</ele><speed>26</speed><time>2016-10-08T12:08:38Z</time><course>195</course><type>18</type></trkpt>
      <trkpt lat="41.0734699" lon="-3.7155734"><ele>1806</ele><speed>27</speed><time>2016-10-08T12:08:39Z</time><course>196</course><type>18</type></trkpt>
      <trkpt lat="41.073385" lon="-3.7156267"><ele>1807</ele><speed>30</speed><time>2016-10-08T12:08:40Z</time><course>201</course><type>18</type></trkpt>
      <trkpt lat="41.073305" lon="-3.71569"><ele>1807</ele><speed>32</speed><time>2016-10-08T12:08:41Z</time><course>207</course><type>18</type></trkpt>
      <trkpt lat="41.0732166" lon="-3.7157734"><ele>1808</ele><speed>33</speed><time>2016-10-08T12:08:42Z</time><course>214</course><type>18</type></trkpt>
      <trkpt lat="41.0731383" lon="-3.7158617"><ele>1808</ele><speed>34</speed><time>2016-10-08T12:08:43Z</time><course>220</course><type>18</type></trkpt>
      <trkpt lat="41.0730716" lon="-3.7159584"><ele>1809</ele><speed>35</speed><time>2016-10-08T12:08:44Z</time><course>227</course><type>18</type></trkpt>
      <trkpt lat="41.0730183" lon="-3.7160467"><ele>1809</ele><speed>35</speed><time>2016-10-08T12:08:45Z</time><course>230</course><type>18</type></trkpt>
      <trkpt lat="41.0729666" lon="-3.7161284"><ele>1810</ele><speed>31</speed><time>2016-10-08T12:08:46Z</time><course>229</course><type>18</type></trkpt>
      <trkpt lat="41.072915" lon="-3.7162084"><ele>1810</ele><speed>29</speed><time>2016-10-08T12:08:47Z</time><course>227</course><type>18</type></trkpt>
      <trkpt lat="41.0728633" lon="-3.7162834"><ele>1811</ele><speed>28</speed><time>2016-10-08T12:08:48Z</time><course>226</course><type>18</type></trkpt>
      <trkpt lat="41.0728116" lon="-3.7163634"><ele>1811</ele><speed>30</speed><time>2016-10-08T12:08:49Z</time><course>228</course><type>18</type></trkpt>
      <trkpt lat="41.072755" lon="-3.716445"><ele>1811</ele><speed>32</speed><time>2016-10-08T12:08:50Z</time><course>228</course><type>18</type></trkpt>
      <trkpt lat="41.0726866" lon="-3.7165417"><ele>1812</ele><speed>36</speed><time>2016-10-08T12:08:51Z</time><course>227</course><type>18</type></trkpt>
      <trkpt lat="41.0726116" lon="-3.7166334"><ele>1812</ele><speed>38</speed><time>2016-10-08T12:08:52Z</time><course>223</course><type>18</type></trkpt>
      <trkpt lat="41.0725316" lon="-3.7167234"><ele>1813</ele><speed>40</speed><time>2016-10-08T12:08:53Z</time><course>220</course><type>18</type></trkpt>
      <trkpt lat="41.0724516" lon="-3.7167984"><ele>1814</ele><speed>38</speed><time>2016-10-08T12:08:54Z</time><course>216</course><type>18</type></trkpt>
      <trkpt lat="41.0723766" lon="-3.7168484"><ele>1814</ele><speed>36</speed><time>2016-10-08T12:08:55Z</time><course>210</course><type>18</type></trkpt>
      <trkpt lat="41.0722983" lon="-3.716905"><ele>1815</ele><speed>36</speed><time>2016-10-08T12:08:56Z</time><course>209</course><type>18</type></trkpt>
      <trkpt lat="41.07222" lon="-3.7169617"><ele>1815</ele><speed>37</speed><time>2016-10-08T12:08:57Z</time><course>210</course><type>18</type></trkpt>
      <trkpt lat="41.0721433" lon="-3.7170167"><ele>1816</ele><speed>37</speed><time>2016-10-08T12:08:58Z</time><course>210</course><type>18</type></trkpt>
      <trkpt lat="41.072055" lon="-3.71707"><ele>1817</ele><speed>38</speed><time>2016-10-08T12:08:59Z</time><course>208</course><type>18</type></trkpt>
      <trkpt lat="41.0719716" lon="-3.7171184"><ele>1817</ele><speed>38</speed><time>2016-10-08T12:09:00Z</time><course>206</course><type>18</type></trkpt>
      <trkpt lat="41.0718966" lon="-3.717155"><ele>1818</ele><speed>35</speed><time>2016-10-08T12:09:01Z</time><course>205</course><type>18</type></trkpt>
      <trkpt lat="41.0718316" lon="-3.7171984"><ele>1819</ele><speed>32</speed><time>2016-10-08T12:09:02Z</time><course>206</course><type>18</type></trkpt>
      <trkpt lat="41.0717149" lon="-3.7173034"><ele>1821</ele><speed>27</speed><time>2016-10-08T12:09:04Z</time><course>217</course><type>18</type></trkpt>
      <trkpt lat="41.0716033" lon="-3.7174317"><ele>1822</ele><speed>30</speed><time>2016-10-08T12:09:06Z</time><course>224</course><type>18</type></trkpt>
      <trkpt lat="41.0715533" lon="-3.7175034"><ele>1823</ele><speed>31</speed><time>2016-10-08T12:09:07Z</time><course>226</course><type>18</type></trkpt>
      <trkpt lat="41.071495" lon="-3.71758"><ele>1824</ele><speed>32</speed><time>2016-10-08T12:09:08Z</time><course>225</course><type>18</type></trkpt>
      <trkpt lat="41.071435" lon="-3.717655"><ele>1825</ele><speed>33</speed><time>2016-10-08T12:09:09Z</time><course>224</course><type>18</type></trkpt>
      <trkpt lat="41.0713766" lon="-3.7177234"><ele>1826</ele><speed>33</speed><time>2016-10-08T12:09:10Z</time><course>222</course><type>18</type></trkpt>
      <trkpt lat="41.0713116" lon="-3.7177917"><ele>1827</ele><speed>33</speed><time>2016-10-08T12:09:11Z</time><course>220</course><type>18</type></trkpt>
      <trkpt lat="41.0712516" lon="-3.7178584"><ele>1828</ele><speed>32</speed><time>2016-10-08T12:09:12Z</time><course>220</course><type>18</type></trkpt>
      <trkpt lat="41.0711716" lon="-3.7179717"><ele>1830</ele><speed>26</speed><time>2016-10-08T12:09:14Z</time><course>231</course><type>18</type></trkpt>
      <trkpt lat="41.0711483" lon="-3.7180817"><ele>1832</ele><speed>18</speed><time>2016-10-08T12:09:16Z</time><course>251</course><type>18</type></trkpt>
      <trkpt lat="41.071115" lon="-3.7182167"><ele>1834</ele><speed>15</speed><time>2016-10-08T12:09:19Z</time><course>237</course><type>18</type></trkpt>
      <trkpt lat="41.071045" lon="-3.718305"><ele>1836</ele><speed>19</speed><time>2016-10-08T12:09:21Z</time><course>222</course><type>18</type></trkpt>
      <trkpt lat="41.0709233" lon="-3.71839"><ele>1837</ele><speed>24</speed><time>2016-10-08T12:09:23Z</time><course>207</course><type>18</type></trkpt>
      <trkpt lat="41.0708383" lon="-3.718435"><ele>1837</ele><speed>26</speed><time>2016-10-08T12:09:24Z</time><course>206</course><type>18</type></trkpt>
      <trkpt lat="41.0707166" lon="-3.7184484"><ele>1838</ele><speed>25</speed><time>2016-10-08T12:09:26Z</time><course>191</course><type>18</type></trkpt>
      <trkpt lat="41.0706383" lon="-3.7183851"><ele>1840</ele><speed>13</speed><time>2016-10-08T12:09:29Z</time><course>165</course><type>18</type></trkpt>
      <trkpt lat="41.0707366" lon="-3.7183317"><ele>1840</ele><speed>13</speed><time>2016-10-08T12:09:31Z</time><course>42</course><type>18</type></trkpt>
      <trkpt lat="41.0708116" lon="-3.7183167"><ele>1841</ele><speed>23</speed><time>2016-10-08T12:09:33Z</time><course>40</course><type>18</type></trkpt>
      <trkpt lat="41.070945" lon="-3.7182084"><ele>1842</ele><speed>35</speed><time>2016-10-08T12:09:35Z</time><course>43</course><type>18</type></trkpt>
      <trkpt lat="41.0710383" lon="-3.7181517"><ele>1843</ele><speed>39</speed><time>2016-10-08T12:09:36Z</time><course>39</course><type>18</type></trkpt>
      <trkpt lat="41.071155" lon="-3.7181067"><ele>1843</ele><speed>43</speed><time>2016-10-08T12:09:37Z</time><course>33</course><type>18</type></trkpt>
      <trkpt lat="41.0712516" lon="-3.71804"><ele>1844</ele><speed>44</speed><time>2016-10-08T12:09:38Z</time><course>32</course><type>18</type></trkpt>
      <trkpt lat="41.0713516" lon="-3.71797"><ele>1844</ele><speed>44</speed><time>2016-10-08T12:09:39Z</time><course>32</course><type>18</type></trkpt>
      <trkpt lat="41.0714416" lon="-3.7178867"><ele>1844</ele><speed>44</speed><time>2016-10-08T12:09:40Z</time><course>36</course><type>18</type></trkpt>
      <trkpt lat="41.0715433" lon="-3.717795"><ele>1844</ele><speed>44</speed><time>2016-10-08T12:09:41Z</time><course>39</course><type>18</type></trkpt>
      <trkpt lat="41.071655" lon="-3.7176984"><ele>1844</ele><speed>44</speed><time>2016-10-08T12:09:42Z</time><course>40</course><type>18</type></trkpt>
      <trkpt lat="41.0717483" lon="-3.7176084"><ele>1844</ele><speed>41</speed><time>2016-10-08T12:09:43Z</time><course>40</course><type>18</type></trkpt>
      <trkpt lat="41.0718633" lon="-3.71757"><ele>1845</ele><speed>42</speed><time>2016-10-08T12:09:44Z</time><course>23</course><type>18</type></trkpt>
      <trkpt lat="41.0719583" lon="-3.7175067"><ele>1845</ele><speed>43</speed><time>2016-10-08T12:09:45Z</time><course>24</course><type>18</type></trkpt>
      <trkpt lat="41.0720516" lon="-3.7174684"><ele>1846</ele><speed>42</speed><time>2016-10-08T12:09:46Z</time><course>18</course><type>18</type></trkpt>
      <trkpt lat="41.0721383" lon="-3.7174234"><ele>1846</ele><speed>40</speed><time>2016-10-08T12:09:47Z</time><course>19</course><type>18</type></trkpt>
      <trkpt lat="41.07222" lon="-3.7173767"><ele>1847</ele><speed>39</speed><time>2016-10-08T12:09:48Z</time><course>20</course><type>18</type></trkpt>
      <trkpt lat="41.0722866" lon="-3.7173084"><ele>1848</ele><speed>38</speed><time>2016-10-08T12:09:49Z</time><course>25</course><type>18</type></trkpt>
      <trkpt lat="41.072355" lon="-3.7172084"><ele>1848</ele><speed>28</speed><time>2016-10-08T12:09:51Z</time><course>21</course><type>18</type></trkpt>
      <trkpt lat="41.0724316" lon="-3.717285"><ele>1849</ele><speed>21</speed><time>2016-10-08T12:09:53Z</time><course>334</course><type>18</type></trkpt>
      <trkpt lat="41.0724966" lon="-3.7173934"><ele>1850</ele><speed>22</speed><time>2016-10-08T12:09:55Z</time><course>314</course><type>18</type></trkpt>
      <trkpt lat="41.0725566" lon="-3.7175417"><ele>1852</ele><speed>21</speed><time>2016-10-08T12:09:57Z</time><course>299</course><type>18</type></trkpt>
      <trkpt lat="41.0726166" lon="-3.7176934"><ele>1854</ele><speed>21</speed><time>2016-10-08T12:09:59Z</time><course>301</course><type>18</type></trkpt>
      <trkpt lat="41.07269" lon="-3.717815"><ele>1855</ele><speed>24</speed><time>2016-10-08T12:10:01Z</time><course>309</course><type>18</type></trkpt>
      <trkpt lat="41.07279" lon="-3.717945"><ele>1856</ele><speed>25</speed><time>2016-10-08T12:10:03Z</time><course>319</course><type>18</type></trkpt>
      <trkpt lat="41.0728416" lon="-3.718015"><ele>1857</ele><speed>24</speed><time>2016-10-08T12:10:04Z</time><course>327</course><type>18</type></trkpt>
      <trkpt lat="41.072965" lon="-3.71802"><ele>1858</ele><speed>23</speed><time>2016-10-08T12:10:06Z</time><course>341</course><type>18</type></trkpt>
      <trkpt lat="41.0730466" lon="-3.7179867"><ele>1858</ele><speed>24</speed><time>2016-10-08T12:10:07Z</time><course>356</course><type>18</type></trkpt>
      <trkpt lat="41.0731316" lon="-3.7179084"><ele>1858</ele><speed>26</speed><time>2016-10-08T12:10:08Z</time><course>12</course><type>18</type></trkpt>
      <trkpt lat="41.0731883" lon="-3.7178234"><ele>1858</ele><speed>28</speed><time>2016-10-08T12:10:09Z</time><course>24</course><type>18</type></trkpt>
      <trkpt lat="41.0731766" lon="-3.7176367"><ele>1858</ele><speed>18</speed><time>2016-10-08T12:10:11Z</time><course>49</course><type>18</type></trkpt>
      <trkpt lat="41.0730933" lon="-3.7174717"><ele>1859</ele><speed>21</speed><time>2016-10-08T12:10:12Z</time><course>91</course><type>18</type></trkpt>
      <trkpt lat="41.0730366" lon="-3.7173434"><ele>1859</ele><speed>24</speed><time>2016-10-08T12:10:13Z</time><course>102</course><type>18</type></trkpt>
      <trkpt lat="41.0729216" lon="-3.7171434"><ele>1860</ele><speed>26</speed><time>2016-10-08T12:10:15Z</time><course>109</course><type>18</type></trkpt>
      <trkpt lat="41.07277" lon="-3.7170451"><ele>1860</ele><speed>28</speed><time>2016-10-08T12:10:16Z</time><course>124</course><type>18</type></trkpt>
      <trkpt lat="41.0726599" lon="-3.7169567"><ele>1860</ele><speed>30</speed><time>2016-10-08T12:10:17Z</time><course>130</course><type>18</type></trkpt>
      <trkpt lat="41.072505" lon="-3.7169234"><ele>1861</ele><speed>24</speed><time>2016-10-08T12:10:19Z</time><course>144</course><type>18</type></trkpt>
      <trkpt lat="41.0723966" lon="-3.7169734"><ele>1861</ele><speed>18</speed><time>2016-10-08T12:10:20Z</time><course>159</course><type>18</type></trkpt>
      <trkpt lat="41.0723283" lon="-3.7170884"><ele>1862</ele><speed>14</speed><time>2016-10-08T12:10:21Z</time><course>196</course><type>18</type></trkpt>
      <trkpt lat="41.0722816" lon="-3.7171634"><ele>1862</ele><speed>14</speed><time>2016-10-08T12:10:22Z</time><course>212</course><type>18</type></trkpt>
      <trkpt lat="41.0722166" lon="-3.7172517"><ele>1864</ele><speed>13</speed><time>2016-10-08T12:10:24Z</time><course>226</course><type>18</type></trkpt>
      <trkpt lat="41.0722066" lon="-3.7174184"><ele>1865</ele><speed>19</speed><time>2016-10-08T12:10:26Z</time><course>283</course><type>18</type></trkpt>
      <trkpt lat="41.0722083" lon="-3.7175384"><ele>1866</ele><speed>25</speed><time>2016-10-08T12:10:27Z</time><course>284</course><type>18</type></trkpt>
      <trkpt lat="41.0722083" lon="-3.7176367"><ele>1867</ele><speed>27</speed><time>2016-10-08T12:10:28Z</time><course>289</course><type>18</type></trkpt>
      <trkpt lat="41.0722233" lon="-3.71775"><ele>1868</ele><speed>30</speed><time>2016-10-08T12:10:29Z</time><course>290</course><type>18</type></trkpt>
      <trkpt lat="41.0722516" lon="-3.71786"><ele>1869</ele><speed>32</speed><time>2016-10-08T12:10:30Z</time><course>295</course><type>18</type></trkpt>
      <trkpt lat="41.0722983" lon="-3.7179584"><ele>1869</ele><speed>32</speed><time>2016-10-08T12:10:31Z</time><course>302</course><type>18</type></trkpt>
      <trkpt lat="41.0723416" lon="-3.7180517"><ele>1870</ele><speed>30</speed><time>2016-10-08T12:10:32Z</time><course>307</course><type>18</type></trkpt>
      <trkpt lat="41.0723933" lon="-3.7181317"><ele>1871</ele><speed>29</speed><time>2016-10-08T12:10:33Z</time><course>312</course><type>18</type></trkpt>
      <trkpt lat="41.07245" lon="-3.7182"><ele>1871</ele><speed>30</speed><time>2016-10-08T12:10:34Z</time><course>317</course><type>18</type></trkpt>
      <trkpt lat="41.07251" lon="-3.7182684"><ele>1872</ele><speed>30</speed><time>2016-10-08T12:10:35Z</time><course>325</course><type>18</type></trkpt>
      <trkpt lat="41.07259" lon="-3.7182917"><ele>1872</ele><speed>30</speed><time>2016-10-08T12:10:36Z</time><course>333</course><type>18</type></trkpt>
      <trkpt lat="41.072665" lon="-3.7183167"><ele>1873</ele><speed>29</speed><time>2016-10-08T12:10:37Z</time><course>338</course><type>18</type></trkpt>
      <trkpt lat="41.0727499" lon="-3.7183034"><ele>1873</ele><speed>29</speed><time>2016-10-08T12:10:38Z</time><course>351</course><type>18</type></trkpt>
      <trkpt lat="41.0728366" lon="-3.7182884"><ele>1874</ele><speed>30</speed><time>2016-10-08T12:10:39Z</time><course>359</course><type>18</type></trkpt>
      <trkpt lat="41.0729533" lon="-3.7182284"><ele>1874</ele><speed>36</speed><time>2016-10-08T12:10:40Z</time><course>12</course><type>18</type></trkpt>
      <trkpt lat="41.0730733" lon="-3.71818"><ele>1875</ele><speed>44</speed><time>2016-10-08T12:10:41Z</time><course>18</course><type>18</type></trkpt>
      <trkpt lat="41.0731883" lon="-3.718105"><ele>1875</ele><speed>50</speed><time>2016-10-08T12:10:42Z</time><course>24</course><type>18</type></trkpt>
      <trkpt lat="41.0732766" lon="-3.7179767"><ele>1875</ele><speed>51</speed><time>2016-10-08T12:10:43Z</time><course>35</course><type>18</type></trkpt>
      <trkpt lat="41.0733733" lon="-3.717845"><ele>1876</ele><speed>54</speed><time>2016-10-08T12:10:44Z</time><course>40</course><type>18</type></trkpt>
      <trkpt lat="41.0734666" lon="-3.7177184"><ele>1876</ele><speed>54</speed><time>2016-10-08T12:10:45Z</time><course>42</course><type>18</type></trkpt>
      <trkpt lat="41.0735499" lon="-3.717595"><ele>1876</ele><speed>51</speed><time>2016-10-08T12:10:46Z</time><course>44</course><type>18</type></trkpt>
      <trkpt lat="41.073635" lon="-3.7174834"><ele>1877</ele><speed>49</speed><time>2016-10-08T12:10:47Z</time><course>43</course><type>18</type></trkpt>
      <trkpt lat="41.0737016" lon="-3.7173784"><ele>1877</ele><speed>46</speed><time>2016-10-08T12:10:48Z</time><course>43</course><type>18</type></trkpt>
      <trkpt lat="41.0736616" lon="-3.7172334"><ele>1877</ele><speed>41</speed><time>2016-10-08T12:10:49Z</time><course>52</course><type>18</type></trkpt>
      <trkpt lat="41.0735766" lon="-3.7169834"><ele>1878</ele><speed>35</speed><time>2016-10-08T12:10:51Z</time><course>69</course><type>18</type></trkpt>
      <trkpt lat="41.0735166" lon="-3.7168817"><ele>1878</ele><speed>32</speed><time>2016-10-08T12:10:52Z</time><course>78</course><type>18</type></trkpt>
      <trkpt lat="41.073395" lon="-3.7167567"><ele>1879</ele><speed>32</speed><time>2016-10-08T12:10:53Z</time><course>96</course><type>18</type></trkpt>
      <trkpt lat="41.0732833" lon="-3.7167434"><ele>1879</ele><speed>28</speed><time>2016-10-08T12:10:54Z</time><course>109</course><type>18</type></trkpt>
      <trkpt lat="41.0731316" lon="-3.716825"><ele>1879</ele><speed>24</speed><time>2016-10-08T12:10:55Z</time><course>133</course><type>18</type></trkpt>
      <trkpt lat="41.0728666" lon="-3.7169101"><ele>1879</ele><speed>28</speed><time>2016-10-08T12:10:56Z</time><course>159</course><type>18</type></trkpt>
      <trkpt lat="41.0726966" lon="-3.7169484"><ele>1879</ele><speed>29</speed><time>2016-10-08T12:10:57Z</time><course>174</course><type>18</type></trkpt>
      <trkpt lat="41.0725616" lon="-3.717005"><ele>1879</ele><speed>26</speed><time>2016-10-08T12:10:58Z</time><course>188</course><type>18</type></trkpt>
      <trkpt lat="41.0724666" lon="-3.7170684"><ele>1880</ele><speed>24</speed><time>2016-10-08T12:10:59Z</time><course>198</course><type>18</type></trkpt>
      <trkpt lat="41.0723833" lon="-3.71715"><ele>1881</ele><speed>26</speed><time>2016-10-08T12:11:00Z</time><course>205</course><type>18</type></trkpt>
      <trkpt lat="41.0723016" lon="-3.71723"><ele>1881</ele><speed>27</speed><time>2016-10-08T12:11:01Z</time><course>211</course><type>18</type></trkpt>
      <trkpt lat="41.0722333" lon="-3.7172917"><ele>1881</ele><speed>27</speed><time>2016-10-08T12:11:02Z</time><course>215</course><type>18</type></trkpt>
      <trkpt lat="41.0721666" lon="-3.7173717"><ele>1882</ele><speed>27</speed><time>2016-10-08T12:11:03Z</time><course>221</course><type>18</type></trkpt>
      <trkpt lat="41.072115" lon="-3.717455"><ele>1883</ele><speed>27</speed><time>2016-10-08T12:11:04Z</time><course>224</course><type>18</type></trkpt>
      <trkpt lat="41.07207" lon="-3.7175467"><ele>1883</ele><speed>26</speed><time>2016-10-08T12:11:05Z</time><course>227</course><type>18</type></trkpt>
      <trkpt lat="41.0720266" lon="-3.71763"><ele>1884</ele><speed>26</speed><time>2016-10-08T12:11:06Z</time><course>232</course><type>18</type></trkpt>
      <trkpt lat="41.0719983" lon="-3.71773"><ele>1885</ele><speed>26</speed><time>2016-10-08T12:11:07Z</time><course>240</course><type>18</type></trkpt>
      <trkpt lat="41.0719766" lon="-3.71784"><ele>1886</ele><speed>28</speed><time>2016-10-08T12:11:08Z</time><course>249</course><type>18</type></trkpt>
      <trkpt lat="41.0719399" lon="-3.71796"><ele>1887</ele><speed>32</speed><time>2016-10-08T12:11:09Z</time><course>251</course><type>18</type></trkpt>
      <trkpt lat="41.0719116" lon="-3.7180884"><ele>1888</ele><speed>34</speed><time>2016-10-08T12:11:10Z</time><course>252</course><type>18</type></trkpt>
      <trkpt lat="41.0718833" lon="-3.7182167"><ele>1889</ele><speed>35</speed><time>2016-10-08T12:11:11Z</time><course>251</course><type>18</type></trkpt>
      <trkpt lat="41.0718516" lon="-3.7183434"><ele>1889</ele><speed>37</speed><time>2016-10-08T12:11:12Z</time><course>250</course><type>18</type></trkpt>
      <trkpt lat="41.0718266" lon="-3.7184634"><ele>1890</ele><speed>37</speed><time>2016-10-08T12:11:13Z</time><course>252</course><type>18</type></trkpt>
      <trkpt lat="41.0718" lon="-3.718575"><ele>1891</ele><speed>34</speed><time>2016-10-08T12:11:14Z</time><course>254</course><type>18</type></trkpt>
      <trkpt lat="41.0717833" lon="-3.7186767"><ele>1892</ele><speed>31</speed><time>2016-10-08T12:11:15Z</time><course>256</course><type>18</type></trkpt>
      <trkpt lat="41.07177" lon="-3.7187784"><ele>1893</ele><speed>30</speed><time>2016-10-08T12:11:16Z</time><course>261</course><type>18</type></trkpt>
      <trkpt lat="41.0717566" lon="-3.7188834"><ele>1894</ele><speed>29</speed><time>2016-10-08T12:11:17Z</time><course>266</course><type>18</type></trkpt>
      <trkpt lat="41.0717483" lon="-3.7189784"><ele>1895</ele><speed>26</speed><time>2016-10-08T12:11:18Z</time><course>273</course><type>18</type></trkpt>
      <trkpt lat="41.0717583" lon="-3.7190667"><ele>1896</ele><speed>25</speed><time>2016-10-08T12:11:19Z</time><course>281</course><type>18</type></trkpt>
      <trkpt lat="41.071785" lon="-3.7191517"><ele>1897</ele><speed>25</speed><time>2016-10-08T12:11:20Z</time><course>290</course><type>18</type></trkpt>
      <trkpt lat="41.07181" lon="-3.7192217"><ele>1898</ele><speed>23</speed><time>2016-10-08T12:11:21Z</time><course>295</course><type>18</type></trkpt>
      <trkpt lat="41.0718833" lon="-3.7192934"><ele>1899</ele><speed>18</speed><time>2016-10-08T12:11:23Z</time><course>310</course><type>18</type></trkpt>
      <trkpt lat="41.0719566" lon="-3.7192717"><ele>1899</ele><speed>17</speed><time>2016-10-08T12:11:24Z</time><course>337</course><type>18</type></trkpt>
      <trkpt lat="41.0720299" lon="-3.7192"><ele>1900</ele><speed>18</speed><time>2016-10-08T12:11:25Z</time><course>3</course><type>18</type></trkpt>
      <trkpt lat="41.0721166" lon="-3.7190917"><ele>1901</ele><speed>27</speed><time>2016-10-08T12:11:26Z</time><course>27</course><type>18</type></trkpt>
      <trkpt lat="41.0721466" lon="-3.7189784"><ele>1901</ele><speed>26</speed><time>2016-10-08T12:11:27Z</time><course>47</course><type>18</type></trkpt>
      <trkpt lat="41.07218" lon="-3.7188767"><ele>1902</ele><speed>26</speed><time>2016-10-08T12:11:28Z</time><course>59</course><type>18</type></trkpt>
      <trkpt lat="41.07222" lon="-3.7187684"><ele>1903</ele><speed>29</speed><time>2016-10-08T12:11:29Z</time><course>63</course><type>18</type></trkpt>
      <trkpt lat="41.072265" lon="-3.7186517"><ele>1903</ele><speed>33</speed><time>2016-10-08T12:11:30Z</time><course>62</course><type>18</type></trkpt>
      <trkpt lat="41.0723116" lon="-3.7185284"><ele>1904</ele><speed>37</speed><time>2016-10-08T12:11:31Z</time><course>60</course><type>18</type></trkpt>
      <trkpt lat="41.0723533" lon="-3.7184084"><ele>1905</ele><speed>38</speed><time>2016-10-08T12:11:32Z</time><course>62</course><type>18</type></trkpt>
      <trkpt lat="41.072385" lon="-3.7182834"><ele>1905</ele><speed>36</speed><time>2016-10-08T12:11:33Z</time><course>67</course><type>18</type></trkpt>
      <trkpt lat="41.07242" lon="-3.7181734"><ele>1906</ele><speed>34</speed><time>2016-10-08T12:11:34Z</time><course>70</course><type>18</type></trkpt>
      <trkpt lat="41.0724416" lon="-3.7180667"><ele>1907</ele><speed>32</speed><time>2016-10-08T12:11:35Z</time><course>76</course><type>18</type></trkpt>
      <trkpt lat="41.0724533" lon="-3.71795"><ele>1907</ele><speed>31</speed><time>2016-10-08T12:11:36Z</time><course>84</course><type>18</type></trkpt>
      <trkpt lat="41.07245" lon="-3.7178417"><ele>1908</ele><speed>31</speed><time>2016-10-08T12:11:37Z</time><course>90</course><type>18</type></trkpt>
      <trkpt lat="41.07244" lon="-3.71773"><ele>1908</ele><speed>32</speed><time>2016-10-08T12:11:38Z</time><course>96</course><type>18</type></trkpt>
      <trkpt lat="41.0724283" lon="-3.71761"><ele>1909</ele><speed>35</speed><time>2016-10-08T12:11:39Z</time><course>102</course><type>18</type></trkpt>
      <trkpt lat="41.0724033" lon="-3.71748"><ele>1910</ele><speed>37</speed><time>2016-10-08T12:11:40Z</time><course>105</course><type>18</type></trkpt>
      <trkpt lat="41.07238" lon="-3.7173484"><ele>1911</ele><speed>39</speed><time>2016-10-08T12:11:41Z</time><course>105</course><type>18</type></trkpt>
      <trkpt lat="41.0723566" lon="-3.7172334"><ele>1912</ele><speed>36</speed><time>2016-10-08T12:11:42Z</time><course>104</course><type>18</type></trkpt>
      <trkpt lat="41.07233" lon="-3.71712"><ele>1914</ele><speed>36</speed><time>2016-10-08T12:11:43Z</time><course>107</course><type>18</type></trkpt>
      <trkpt lat="41.0723066" lon="-3.7170334"><ele>1915</ele><speed>31</speed><time>2016-10-08T12:11:44Z</time><course>108</course><type>18</type></trkpt>
      <trkpt lat="41.072275" lon="-3.71697"><ele>1917</ele><speed>27</speed><time>2016-10-08T12:11:45Z</time><course>113</course><type>18</type></trkpt>
      <trkpt lat="41.07224" lon="-3.7168967"><ele>1918</ele><speed>28</speed><time>2016-10-08T12:11:46Z</time><course>122</course><type>18</type></trkpt>
      <trkpt lat="41.072185" lon="-3.716835"><ele>1919</ele><speed>29</speed><time>2016-10-08T12:11:47Z</time><course>133</course><type>18</type></trkpt>
      <trkpt lat="41.0721133" lon="-3.7167984"><ele>1921</ele><speed>29</speed><time>2016-10-08T12:11:48Z</time><course>144</course><type>18</type></trkpt>
      <trkpt lat="41.0720416" lon="-3.7167834"><ele>1922</ele><speed>27</speed><time>2016-10-08T12:11:49Z</time><course>152</course><type>18</type></trkpt>
      <trkpt lat="41.0719833" lon="-3.7168767"><ele>1924</ele><speed>13</speed><time>2016-10-08T12:11:51Z</time><course>198</course><type>18</type></trkpt>
      <trkpt lat="41.07193" lon="-3.7169934"><ele>1926</ele><speed>12</speed><time>2016-10-08T12:11:53Z</time><course>222</course><type>18</type></trkpt>
      <trkpt lat="41.0719116" lon="-3.7171517"><ele>1928</ele><speed>10</speed><time>2016-10-08T12:11:55Z</time><course>253</course><type>18</type></trkpt>
      <trkpt lat="41.0720316" lon="-3.7171517"><ele>1930</ele><speed>18</speed><time>2016-10-08T12:11:58Z</time><course>44</course><type>18</type></trkpt>
      <trkpt lat="41.0721683" lon="-3.7170417"><ele>1932</ele><speed>24</speed><time>2016-10-08T12:12:00Z</time><course>51</course><type>18</type></trkpt>
      <trkpt lat="41.0722549" lon="-3.7169834"><ele>1933</ele><speed>25</speed><time>2016-10-08T12:12:01Z</time><course>50</course><type>18</type></trkpt>
      <trkpt lat="41.07235" lon="-3.716945"><ele>1934</ele><speed>25</speed><time>2016-10-08T12:12:02Z</time><course>48</course><type>18</type></trkpt>
      <trkpt lat="41.0724" lon="-3.7167984"><ele>1936</ele><speed>22</speed><time>2016-10-08T12:12:04Z</time><course>60</course><type>18</type></trkpt>
      <trkpt lat="41.0723733" lon="-3.7166184"><ele>1939</ele><speed>22</speed><time>2016-10-08T12:12:06Z</time><course>87</course><type>18</type></trkpt>
      <trkpt lat="41.0723116" lon="-3.716535"><ele>1940</ele><speed>25</speed><time>2016-10-08T12:12:07Z</time><course>114</course><type>18</type></trkpt>
      <trkpt lat="41.072195" lon="-3.7164684"><ele>1942</ele><speed>20</speed><time>2016-10-08T12:12:09Z</time><course>141</course><type>18</type></trkpt>
      <trkpt lat="41.0721183" lon="-3.7164317"><ele>1944</ele><speed>13</speed><time>2016-10-08T12:12:11Z</time><course>137</course><type>18</type></trkpt>
      <trkpt lat="41.0720683" lon="-3.7165184"><ele>1946</ele><speed>8</speed><time>2016-10-08T12:12:13Z</time><course>184</course><type>18</type></trkpt>
      <trkpt lat="41.07205" lon="-3.716665"><ele>1948</ele><speed>10</speed><time>2016-10-08T12:12:15Z</time><course>249</course><type>18</type></trkpt>
      <trkpt lat="41.0721133" lon="-3.7167967"><ele>1949</ele><speed>12</speed><time>2016-10-08T12:12:17Z</time><course>299</course><type>18</type></trkpt>
      <trkpt lat="41.07209" lon="-3.7170017"><ele>1952</ele><speed>11</speed><time>2016-10-08T12:12:19Z</time><course>294</course><type>18</type></trkpt>
      <trkpt lat="41.0721483" lon="-3.7170684"><ele>1953</ele><speed>12</speed><time>2016-10-08T12:12:21Z</time><course>312</course><type>18</type></trkpt>
      <trkpt lat="41.0722483" lon="-3.7169817"><ele>1955</ele><speed>14</speed><time>2016-10-08T12:12:23Z</time><course>25</course><type>18</type></trkpt>
      <trkpt lat="41.072325" lon="-3.71684"><ele>1957</ele><speed>15</speed><time>2016-10-08T12:12:25Z</time><course>59</course><type>18</type></trkpt>
      <trkpt lat="41.07236" lon="-3.7166267"><ele>1959</ele><speed>21</speed><time>2016-10-08T12:12:27Z</time><course>82</course><type>18</type></trkpt>
      <trkpt lat="41.0723583" lon="-3.7164984"><ele>1960</ele><speed>26</speed><time>2016-10-08T12:12:28Z</time><course>90</course><type>18</type></trkpt>
      <trkpt lat="41.0723616" lon="-3.7163684"><ele>1961</ele><speed>28</speed><time>2016-10-08T12:12:29Z</time><course>98</course><type>18</type></trkpt>
      <trkpt lat="41.0723783" lon="-3.7162567"><ele>1963</ele><speed>28</speed><time>2016-10-08T12:12:30Z</time><course>107</course><type>18</type></trkpt>
      <trkpt lat="41.0723733" lon="-3.7161017"><ele>1967</ele><speed>29</speed><time>2016-10-08T12:12:32Z</time><course>122</course><type>18</type></trkpt>
      <trkpt lat="41.0723383" lon="-3.7159884"><ele>1968</ele><speed>31</speed><time>2016-10-08T12:12:33Z</time><course>125</course><type>18</type></trkpt>
      <trkpt lat="41.07229" lon="-3.715925"><ele>1970</ele><speed>29</speed><time>2016-10-08T12:12:34Z</time><course>139</course><type>18</type></trkpt>
      <trkpt lat="41.0722366" lon="-3.7158784"><ele>1971</ele><speed>27</speed><time>2016-10-08T12:12:35Z</time><course>147</course><type>18</type></trkpt>
      <trkpt lat="41.0721866" lon="-3.7158484"><ele>1972</ele><speed>24</speed><time>2016-10-08T12:12:36Z</time><course>151</course><type>18</type></trkpt>
      <trkpt lat="41.0720916" lon="-3.7158934"><ele>1974</ele><speed>21</speed><time>2016-10-08T12:12:38Z</time><course>200</course><type>18</type></trkpt>
      <trkpt lat="41.0720366" lon="-3.71594"><ele>1976</ele><speed>23</speed><time>2016-10-08T12:12:39Z</time><course>209</course><type>18</type></trkpt>
      <trkpt lat="41.07198" lon="-3.7159734"><ele>1977</ele><speed>25</speed><time>2016-10-08T12:12:40Z</time><course>220</course><type>18</type></trkpt>
      <trkpt lat="41.0719216" lon="-3.71598"><ele>1980</ele><speed>25</speed><time>2016-10-08T12:12:41Z</time><course>225</course><type>18</type></trkpt>
      <trkpt lat="41.071885" lon="-3.71604"><ele>1981</ele><speed>25</speed><time>2016-10-08T12:12:42Z</time><course>233</course><type>18</type></trkpt>
      <trkpt lat="41.0718133" lon="-3.7160767"><ele>1984</ele><speed>25</speed><time>2016-10-08T12:12:43Z</time><course>237</course><type>18</type></trkpt>
      <trkpt lat="41.0718533" lon="-3.7161467"><ele>1987</ele><speed>14</speed><time>2016-10-08T12:12:45Z</time><course>307</course><type>18</type></trkpt>
      <trkpt lat="41.0718933" lon="-3.7162034"><ele>1990</ele><speed>10</speed><time>2016-10-08T12:12:47Z</time><course>326</course><type>18</type></trkpt>
      <trkpt lat="41.0719866" lon="-3.716155"><ele>1992</ele><speed>16</speed><time>2016-10-08T12:12:48Z</time><course>29</course><type>18</type></trkpt>
      <trkpt lat="41.0720366" lon="-3.7160534"><ele>1992</ele><speed>23</speed><time>2016-10-08T12:12:49Z</time><course>65</course><type>18</type></trkpt>
      <trkpt lat="41.0720749" lon="-3.7159517"><ele>1993</ele><speed>27</speed><time>2016-10-08T12:12:50Z</time><course>69</course><type>18</type></trkpt>
      <trkpt lat="41.07209" lon="-3.7158617"><ele>1995</ele><speed>26</speed><time>2016-10-08T12:12:51Z</time><course>75</course><type>18</type></trkpt>
      <trkpt lat="41.0720766" lon="-3.7157817"><ele>1996</ele><speed>21</speed><time>2016-10-08T12:12:52Z</time><course>95</course><type>18</type></trkpt>
      <trkpt lat="41.072055" lon="-3.71569"><ele>1997</ele><speed>23</speed><time>2016-10-08T12:12:53Z</time><course>104</course><type>18</type></trkpt>
      <trkpt lat="41.0719766" lon="-3.7156217"><ele>1998</ele><speed>27</speed><time>2016-10-08T12:12:54Z</time><course>141</course><type>18</type></trkpt>
      <trkpt lat="41.071915" lon="-3.715565"><ele>1999</ele><speed>28</speed><time>2016-10-08T12:12:55Z</time><course>148</course><type>18</type></trkpt>
      <trkpt lat="41.071855" lon="-3.715535"><ele>2000</ele><speed>28</speed><time>2016-10-08T12:12:56Z</time><course>157</course><type>18</type></trkpt>
      <trkpt lat="41.0717933" lon="-3.7155251"><ele>2002</ele><speed>26</speed><time>2016-10-08T12:12:57Z</time><course>166</course><type>18</type></trkpt>
      <trkpt lat="41.0716766" lon="-3.7155267"><ele>2004</ele><speed>23</speed><time>2016-10-08T12:12:59Z</time><course>175</course><type>18</type></trkpt>
      <trkpt lat="41.0716249" lon="-3.7156"><ele>2006</ele><speed>24</speed><time>2016-10-08T12:13:00Z</time><course>192</course><type>18</type></trkpt>
      <trkpt lat="41.0715466" lon="-3.7157134"><ele>2008</ele><speed>21</speed><time>2016-10-08T12:13:02Z</time><course>208</course><type>18</type></trkpt>
      <trkpt lat="41.0715533" lon="-3.71585"><ele>2010</ele><speed>23</speed><time>2016-10-08T12:13:03Z</time><course>237</course><type>18</type></trkpt>
      <trkpt lat="41.07161" lon="-3.715915"><ele>2011</ele><speed>20</speed><time>2016-10-08T12:13:04Z</time><course>251</course><type>18</type></trkpt>
      <trkpt lat="41.0716866" lon="-3.7159667"><ele>2013</ele><speed>17</speed><time>2016-10-08T12:13:05Z</time><course>269</course><type>18</type></trkpt>
      <trkpt lat="41.07181" lon="-3.71599"><ele>2014</ele><speed>14</speed><time>2016-10-08T12:13:06Z</time><course>305</course><type>18</type></trkpt>
      <trkpt lat="41.0718916" lon="-3.7159817"><ele>2015</ele><speed>14</speed><time>2016-10-08T12:13:07Z</time><course>333</course><type>18</type></trkpt>
      <trkpt lat="41.071995" lon="-3.71585"><ele>2019</ele><speed>23</speed><time>2016-10-08T12:13:09Z</time><course>40</course><type>18</type></trkpt>
      <trkpt lat="41.0720333" lon="-3.7157634"><ele>2020</ele><speed>23</speed><time>2016-10-08T12:13:10Z</time><course>51</course><type>18</type></trkpt>
      <trkpt lat="41.0720366" lon="-3.7156217"><ele>2023</ele><speed>14</speed><time>2016-10-08T12:13:12Z</time><course>98</course><type>18</type></trkpt>
      <trkpt lat="41.07198" lon="-3.7155701"><ele>2028</ele><speed>27</speed><time>2016-10-08T12:13:14Z</time><course>163</course><type>18</type></trkpt>
      <trkpt lat="41.0719116" lon="-3.715555"><ele>2030</ele><speed>31</speed><time>2016-10-08T12:13:15Z</time><course>170</course><type>18</type></trkpt>
      <trkpt lat="41.07184" lon="-3.7155517"><ele>2031</ele><speed>28</speed><time>2016-10-08T12:13:16Z</time><course>176</course><type>18</type></trkpt>
      <trkpt lat="41.0717683" lon="-3.7155267"><ele>2034</ele><speed>26</speed><time>2016-10-08T12:13:17Z</time><course>181</course><type>18</type></trkpt>
      <trkpt lat="41.071705" lon="-3.71554"><ele>2036</ele><speed>25</speed><time>2016-10-08T12:13:18Z</time><course>194</course><type>18</type></trkpt>
      <trkpt lat="41.0716483" lon="-3.71558"><ele>2037</ele><speed>25</speed><time>2016-10-08T12:13:19Z</time><course>210</course><type>18</type></trkpt>
      <trkpt lat="41.071605" lon="-3.715625"><ele>2039</ele><speed>25</speed><time>2016-10-08T12:13:20Z</time><course>217</course><type>18</type></trkpt>
      <trkpt lat="41.0716166" lon="-3.7157234"><ele>2043</ele><speed>23</speed><time>2016-10-08T12:13:22Z</time><course>288</course><type>18</type></trkpt>
      <trkpt lat="41.0716616" lon="-3.7158"><ele>2044</ele><speed>24</speed><time>2016-10-08T12:13:23Z</time><course>301</course><type>18</type></trkpt>
      <trkpt lat="41.0717233" lon="-3.7158884"><ele>2046</ele><speed>26</speed><time>2016-10-08T12:13:24Z</time><course>316</course><type>18</type></trkpt>
      <trkpt lat="41.0717683" lon="-3.7159567"><ele>2047</ele><speed>25</speed><time>2016-10-08T12:13:25Z</time><course>323</course><type>18</type></trkpt>
      <trkpt lat="41.07182" lon="-3.7159884"><ele>2049</ele><speed>23</speed><time>2016-10-08T12:13:26Z</time><course>331</course><type>18</type></trkpt>
      <trkpt lat="41.071885" lon="-3.7159984"><ele>2050</ele><speed>22</speed><time>2016-10-08T12:13:27Z</time><course>346</course><type>18</type></trkpt>
      <trkpt lat="41.0719566" lon="-3.7159834"><ele>2051</ele><speed>23</speed><time>2016-10-08T12:13:28Z</time><course>1</course><type>18</type></trkpt>
      <trkpt lat="41.0720283" lon="-3.7159417"><ele>2052</ele><speed>25</speed><time>2016-10-08T12:13:29Z</time><course>14</course><type>18</type></trkpt>
      <trkpt lat="41.072095" lon="-3.7158784"><ele>2053</ele><speed>28</speed><time>2016-10-08T12:13:30Z</time><course>23</course><type>18</type></trkpt>
      <trkpt lat="41.0721683" lon="-3.7157917"><ele>2055</ele><speed>32</speed><time>2016-10-08T12:13:31Z</time><course>31</course><type>18</type></trkpt>
      <trkpt lat="41.0722433" lon="-3.7157051"><ele>2056</ele><speed>35</speed><time>2016-10-08T12:13:32Z</time><course>37</course><type>18</type></trkpt>
      <trkpt lat="41.072325" lon="-3.7156117"><ele>2057</ele><speed>37</speed><time>2016-10-08T12:13:33Z</time><course>40</course><type>18</type></trkpt>
      <trkpt lat="41.0723899" lon="-3.715505"><ele>2058</ele><speed>37</speed><time>2016-10-08T12:13:34Z</time><course>46</course><type>18</type></trkpt>
      <trkpt lat="41.07242" lon="-3.7153667"><ele>2059</ele><speed>38</speed><time>2016-10-08T12:13:35Z</time><course>59</course><type>18</type></trkpt>
      <trkpt lat="41.0724366" lon="-3.7152417"><ele>2061</ele><speed>37</speed><time>2016-10-08T12:13:36Z</time><course>69</course><type>18</type></trkpt>
      <trkpt lat="41.07245" lon="-3.7151117"><ele>2062</ele><speed>37</speed><time>2016-10-08T12:13:37Z</time><course>74</course><type>18</type></trkpt>
      <trkpt lat="41.0724733" lon="-3.7149851"><ele>2063</ele><speed>38</speed><time>2016-10-08T12:13:38Z</time><course>75</course><type>18</type></trkpt>
      <trkpt lat="41.0725016" lon="-3.714875"><ele>2064</ele><speed>36</speed><time>2016-10-08T12:13:39Z</time><course>73</course><type>18</type></trkpt>
      <trkpt lat="41.0725266" lon="-3.7147617"><ele>2066</ele><speed>36</speed><time>2016-10-08T12:13:40Z</time><course>76</course><type>18</type></trkpt>
      <trkpt lat="41.0725533" lon="-3.7146434"><ele>2067</ele><speed>38</speed><time>2016-10-08T12:13:41Z</time><course>74</course><type>18</type></trkpt>
      <trkpt lat="41.0725816" lon="-3.714525"><ele>2068</ele><speed>39</speed><time>2016-10-08T12:13:42Z</time><course>73</course><type>18</type></trkpt>
      <trkpt lat="41.0726116" lon="-3.7144134"><ele>2070</ele><speed>38</speed><time>2016-10-08T12:13:43Z</time><course>72</course><type>18</type></trkpt>
      <trkpt lat="41.0726383" lon="-3.7142934"><ele>2071</ele><speed>37</speed><time>2016-10-08T12:13:44Z</time><course>75</course><type>18</type></trkpt>
      <trkpt lat="41.0726583" lon="-3.7141717"><ele>2072</ele><speed>38</speed><time>2016-10-08T12:13:45Z</time><course>78</course><type>18</type></trkpt>
      <trkpt lat="41.0726816" lon="-3.71405"><ele>2073</ele><speed>38</speed><time>2016-10-08T12:13:46Z</time><course>75</course><type>18</type></trkpt>
      <trkpt lat="41.07271" lon="-3.71393"><ele>2074</ele><speed>38</speed><time>2016-10-08T12:13:47Z</time><course>73</course><type>18</type></trkpt>
      <trkpt lat="41.0727516" lon="-3.7138184"><ele>2075</ele><speed>38</speed><time>2016-10-08T12:13:48Z</time><course>66</course><type>18</type></trkpt>
      <trkpt lat="41.0728066" lon="-3.7137217"><ele>2076</ele><speed>37</speed><time>2016-10-08T12:13:49Z</time><course>57</course><type>18</type></trkpt>
      <trkpt lat="41.0728666" lon="-3.71363"><ele>2077</ele><speed>37</speed><time>2016-10-08T12:13:50Z</time><course>52</course><type>18</type></trkpt>
      <trkpt lat="41.0729299" lon="-3.7135517"><ele>2078</ele><speed>35</speed><time>2016-10-08T12:13:51Z</time><course>46</course><type>18</type></trkpt>
      <trkpt lat="41.07299" lon="-3.7134767"><ele>2080</ele><speed>34</speed><time>2016-10-08T12:13:52Z</time><course>44</course><type>18</type></trkpt>
      <trkpt lat="41.0730533" lon="-3.713405"><ele>2081</ele><speed>34</speed><time>2016-10-08T12:13:53Z</time><course>42</course><type>18</type></trkpt>
      <trkpt lat="41.0731133" lon="-3.7133334"><ele>2082</ele><speed>33</speed><time>2016-10-08T12:13:54Z</time><course>42</course><type>18</type></trkpt>
      <trkpt lat="41.0731783" lon="-3.7132767"><ele>2083</ele><speed>32</speed><time>2016-10-08T12:13:55Z</time><course>38</course><type>18</type></trkpt>
      <trkpt lat="41.0732466" lon="-3.7132234"><ele>2084</ele><speed>31</speed><time>2016-10-08T12:13:56Z</time><course>32</course><type>18</type></trkpt>
      <trkpt lat="41.0733116" lon="-3.71317"><ele>2085</ele><speed>32</speed><time>2016-10-08T12:13:57Z</time><course>31</course><type>18</type></trkpt>
      <trkpt lat="41.0733816" lon="-3.713115"><ele>2086</ele><speed>33</speed><time>2016-10-08T12:13:58Z</time><course>30</course><type>18</type></trkpt>
      <trkpt lat="41.0734516" lon="-3.7130584"><ele>2087</ele><speed>32</speed><time>2016-10-08T12:13:59Z</time><course>29</course><type>18</type></trkpt>
      <trkpt lat="41.0735266" lon="-3.713005"><ele>2088</ele><speed>31</speed><time>2016-10-08T12:14:00Z</time><course>27</course><type>18</type></trkpt>
      <trkpt lat="41.0736066" lon="-3.7129701"><ele>2089</ele><speed>31</speed><time>2016-10-08T12:14:01Z</time><course>24</course><type>18</type></trkpt>
      <trkpt lat="41.07369" lon="-3.7129384"><ele>2090</ele><speed>34</speed><time>2016-10-08T12:14:02Z</time><course>22</course><type>18</type></trkpt>
      <trkpt lat="41.0737866" lon="-3.7129117"><ele>2091</ele><speed>35</speed><time>2016-10-08T12:14:03Z</time><course>21</course><type>18</type></trkpt>
      <trkpt lat="41.07387" lon="-3.7128667"><ele>2092</ele><speed>36</speed><time>2016-10-08T12:14:04Z</time><course>21</course><type>18</type></trkpt>
      <trkpt lat="41.0739633" lon="-3.7128284"><ele>2092</ele><speed>36</speed><time>2016-10-08T12:14:05Z</time><course>20</course><type>18</type></trkpt>
      <trkpt lat="41.07406" lon="-3.7128"><ele>2093</ele><speed>36</speed><time>2016-10-08T12:14:06Z</time><course>16</course><type>18</type></trkpt>
      <trkpt lat="41.0741466" lon="-3.7127767"><ele>2094</ele><speed>35</speed><time>2016-10-08T12:14:07Z</time><course>13</course><type>18</type></trkpt>
      <trkpt lat="41.07424" lon="-3.7127717"><ele>2094</ele><speed>35</speed><time>2016-10-08T12:14:08Z</time><course>6</course><type>18</type></trkpt>
      <trkpt lat="41.0743266" lon="-3.7127667"><ele>2095</ele><speed>34</speed><time>2016-10-08T12:14:09Z</time><course>4</course><type>18</type></trkpt>
      <trkpt lat="41.0744116" lon="-3.7127634"><ele>2096</ele><speed>34</speed><time>2016-10-08T12:14:10Z</time><course>4</course><type>18</type></trkpt>
      <trkpt lat="41.0744916" lon="-3.712755"><ele>2097</ele><speed>33</speed><time>2016-10-08T12:14:11Z</time><course>7</course><type>18</type></trkpt>
      <trkpt lat="41.0745716" lon="-3.7127367"><ele>2098</ele><speed>32</speed><time>2016-10-08T12:14:12Z</time><course>11</course><type>18</type></trkpt>
      <trkpt lat="41.074665" lon="-3.7127167"><ele>2098</ele><speed>32</speed><time>2016-10-08T12:14:13Z</time><course>13</course><type>18</type></trkpt>
      <trkpt lat="41.0747583" lon="-3.7127134"><ele>2099</ele><speed>33</speed><time>2016-10-08T12:14:14Z</time><course>9</course><type>18</type></trkpt>
      <trkpt lat="41.074835" lon="-3.71271"><ele>2100</ele><speed>34</speed><time>2016-10-08T12:14:15Z</time><course>5</course><type>18</type></trkpt>
      <trkpt lat="41.0749183" lon="-3.7127084"><ele>2100</ele><speed>34</speed><time>2016-10-08T12:14:16Z</time><course>2</course><type>18</type></trkpt>
      <trkpt lat="41.07501" lon="-3.7127067"><ele>2101</ele><speed>34</speed><time>2016-10-08T12:14:17Z</time><course>3</course><type>18</type></trkpt>
      <trkpt lat="41.0750983" lon="-3.7127034"><ele>2101</ele><speed>33</speed><time>2016-10-08T12:14:18Z</time><course>4</course><type>18</type></trkpt>
      <trkpt lat="41.0751883" lon="-3.7126967"><ele>2102</ele><speed>34</speed><time>2016-10-08T12:14:19Z</time><course>5</course><type>18</type></trkpt>
      <trkpt lat="41.0752883" lon="-3.7126784"><ele>2103</ele><speed>36</speed><time>2016-10-08T12:14:20Z</time><course>8</course><type>18</type></trkpt>
      <trkpt lat="41.0753916" lon="-3.7126551"><ele>2103</ele><speed>39</speed><time>2016-10-08T12:14:21Z</time><course>10</course><type>18</type></trkpt>
      <trkpt lat="41.0754733" lon="-3.71264"><ele>2103</ele><speed>37</speed><time>2016-10-08T12:14:22Z</time><course>6</course><type>18</type></trkpt>
      <trkpt lat="41.0755633" lon="-3.7126417"><ele>2103</ele><speed>35</speed><time>2016-10-08T12:14:23Z</time><course>0</course><type>18</type></trkpt>
      <trkpt lat="41.0756866" lon="-3.7127434"><ele>2104</ele><speed>30</speed><time>2016-10-08T12:14:25Z</time><course>325</course><type>18</type></trkpt>
      <trkpt lat="41.07574" lon="-3.712815"><ele>2104</ele><speed>29</speed><time>2016-10-08T12:14:26Z</time><course>318</course><type>18</type></trkpt>
      <trkpt lat="41.0757883" lon="-3.71289"><ele>2104</ele><speed>29</speed><time>2016-10-08T12:14:27Z</time><course>315</course><type>18</type></trkpt>
      <trkpt lat="41.07584" lon="-3.7130317"><ele>2105</ele><speed>23</speed><time>2016-10-08T12:14:29Z</time><course>310</course><type>18</type></trkpt>
      <trkpt lat="41.075715" lon="-3.7131484"><ele>2104</ele><speed>17</speed><time>2016-10-08T12:14:31Z</time><course>276</course><type>18</type></trkpt>
      <trkpt lat="41.0756366" lon="-3.7132134"><ele>2104</ele><speed>19</speed><time>2016-10-08T12:14:32Z</time><course>257</course><type>18</type></trkpt>
      <trkpt lat="41.0755583" lon="-3.7132567"><ele>2103</ele><speed>20</speed><time>2016-10-08T12:14:33Z</time><course>247</course><type>18</type></trkpt>
      <trkpt lat="41.0755016" lon="-3.7133184"><ele>2103</ele><speed>23</speed><time>2016-10-08T12:14:34Z</time><course>244</course><type>18</type></trkpt>
      <trkpt lat="41.0754416" lon="-3.7134034"><ele>2102</ele><speed>25</speed><time>2016-10-08T12:14:35Z</time><course>247</course><type>18</type></trkpt>
      <trkpt lat="41.075375" lon="-3.7134834"><ele>2101</ele><speed>27</speed><time>2016-10-08T12:14:36Z</time><course>247</course><type>18</type></trkpt>
      <trkpt lat="41.0753333" lon="-3.7135784"><ele>2100</ele><speed>29</speed><time>2016-10-08T12:14:37Z</time><course>250</course><type>18</type></trkpt>
      <trkpt lat="41.0752983" lon="-3.7136984"><ele>2098</ele><speed>31</speed><time>2016-10-08T12:14:38Z</time><course>254</course><type>18</type></trkpt>
      <trkpt lat="41.075275" lon="-3.7137984"><ele>2098</ele><speed>32</speed><time>2016-10-08T12:14:39Z</time><course>258</course><type>18</type></trkpt>
      <trkpt lat="41.0752516" lon="-3.7138917"><ele>2097</ele><speed>32</speed><time>2016-10-08T12:14:40Z</time><course>260</course><type>18</type></trkpt>
      <trkpt lat="41.075245" lon="-3.7139917"><ele>2096</ele><speed>33</speed><time>2016-10-08T12:14:41Z</time><course>263</course><type>18</type></trkpt>
      <trkpt lat="41.0752333" lon="-3.7141034"><ele>2095</ele><speed>33</speed><time>2016-10-08T12:14:42Z</time><course>264</course><type>18</type></trkpt>
      <trkpt lat="41.0752216" lon="-3.7142167"><ele>2094</ele><speed>32</speed><time>2016-10-08T12:14:43Z</time><course>263</course><type>18</type></trkpt>
      <trkpt lat="41.0752183" lon="-3.7143284"><ele>2092</ele><speed>29</speed><time>2016-10-08T12:14:44Z</time><course>266</course><type>18</type></trkpt>
      <trkpt lat="41.0752149" lon="-3.7144384"><ele>2091</ele><speed>28</speed><time>2016-10-08T12:14:45Z</time><course>266</course><type>18</type></trkpt>
      <trkpt lat="41.075205" lon="-3.7145584"><ele>2088</ele><speed>27</speed><time>2016-10-08T12:14:46Z</time><course>265</course><type>18</type></trkpt>
      <trkpt lat="41.0751933" lon="-3.714665"><ele>2087</ele><speed>29</speed><time>2016-10-08T12:14:47Z</time><course>261</course><type>18</type></trkpt>
      <trkpt lat="41.0751699" lon="-3.7147717"><ele>2086</ele><speed>31</speed><time>2016-10-08T12:14:48Z</time><course>255</course><type>18</type></trkpt>
      <trkpt lat="41.075115" lon="-3.7148967"><ele>2084</ele><speed>34</speed><time>2016-10-08T12:14:49Z</time><course>249</course><type>18</type></trkpt>
      <trkpt lat="41.0750516" lon="-3.715025"><ele>2083</ele><speed>37</speed><time>2016-10-08T12:14:50Z</time><course>244</course><type>18</type></trkpt>
      <trkpt lat="41.0749966" lon="-3.7151234"><ele>2081</ele><speed>35</speed><time>2016-10-08T12:14:51Z</time><course>238</course><type>18</type></trkpt>
      <trkpt lat="41.0749366" lon="-3.7152234"><ele>2080</ele><speed>33</speed><time>2016-10-08T12:14:52Z</time><course>236</course><type>18</type></trkpt>
      <trkpt lat="41.0748816" lon="-3.715305"><ele>2078</ele><speed>31</speed><time>2016-10-08T12:14:53Z</time><course>237</course><type>18</type></trkpt>
      <trkpt lat="41.0748216" lon="-3.715405"><ele>2077</ele><speed>33</speed><time>2016-10-08T12:14:54Z</time><course>237</course><type>18</type></trkpt>
      <trkpt lat="41.0747633" lon="-3.71551"><ele>2076</ele><speed>34</speed><time>2016-10-08T12:14:55Z</time><course>235</course><type>18</type></trkpt>
      <trkpt lat="41.0747033" lon="-3.7156084"><ele>2075</ele><speed>35</speed><time>2016-10-08T12:14:56Z</time><course>232</course><type>18</type></trkpt>
      <trkpt lat="41.074645" lon="-3.7157184"><ele>2074</ele><speed>37</speed><time>2016-10-08T12:14:57Z</time><course>231</course><type>18</type></trkpt>
      <trkpt lat="41.0745716" lon="-3.7158284"><ele>2073</ele><speed>38</speed><time>2016-10-08T12:14:58Z</time><course>229</course><type>18</type></trkpt>
      <trkpt lat="41.0745166" lon="-3.7159067"><ele>2072</ele><speed>34</speed><time>2016-10-08T12:14:59Z</time><course>229</course><type>18</type></trkpt>
      <trkpt lat="41.0744666" lon="-3.7159817"><ele>2071</ele><speed>33</speed><time>2016-10-08T12:15:00Z</time><course>229</course><type>18</type></trkpt>
      <trkpt lat="41.0743966" lon="-3.71608"><ele>2069</ele><speed>27</speed><time>2016-10-08T12:15:02Z</time><course>227</course><type>18</type></trkpt>
      <trkpt lat="41.0743116" lon="-3.716205"><ele>2067</ele><speed>25</speed><time>2016-10-08T12:15:04Z</time><course>230</course><type>18</type></trkpt>
      <trkpt lat="41.07425" lon="-3.7163317"><ele>2065</ele><speed>22</speed><time>2016-10-08T12:15:06Z</time><course>241</course><type>18</type></trkpt>
      <trkpt lat="41.0741816" lon="-3.71649"><ele>2064</ele><speed>27</speed><time>2016-10-08T12:15:08Z</time><course>237</course><type>18</type></trkpt>
      <trkpt lat="41.0741066" lon="-3.7166384"><ele>2062</ele><speed>29</speed><time>2016-10-08T12:15:10Z</time><course>238</course><type>18</type></trkpt>
      <trkpt lat="41.0740566" lon="-3.71678"><ele>2061</ele><speed>27</speed><time>2016-10-08T12:15:12Z</time><course>242</course><type>18</type></trkpt>
      <trkpt lat="41.0740016" lon="-3.7169167"><ele>2060</ele><speed>26</speed><time>2016-10-08T12:15:14Z</time><course>239</course><type>18</type></trkpt>
      <trkpt lat="41.0739583" lon="-3.71701"><ele>2059</ele><speed>27</speed><time>2016-10-08T12:15:15Z</time><course>247</course><type>18</type></trkpt>
      <trkpt lat="41.0739366" lon="-3.7171"><ele>2058</ele><speed>28</speed><time>2016-10-08T12:15:16Z</time><course>254</course><type>18</type></trkpt>
      <trkpt lat="41.0739333" lon="-3.71719"><ele>2057</ele><speed>29</speed><time>2016-10-08T12:15:17Z</time><course>260</course><type>18</type></trkpt>
      <trkpt lat="41.0739366" lon="-3.7172817"><ele>2056</ele><speed>28</speed><time>2016-10-08T12:15:18Z</time><course>266</course><type>18</type></trkpt>
      <trkpt lat="41.07396" lon="-3.7173667"><ele>2055</ele><speed>28</speed><time>2016-10-08T12:15:19Z</time><course>275</course><type>18</type></trkpt>
      <trkpt lat="41.0739966" lon="-3.717445"><ele>2054</ele><speed>27</speed><time>2016-10-08T12:15:20Z</time><course>285</course><type>18</type></trkpt>
      <trkpt lat="41.0740216" lon="-3.7175184"><ele>2054</ele><speed>24</speed><time>2016-10-08T12:15:21Z</time><course>287</course><type>18</type></trkpt>
      <trkpt lat="41.0740466" lon="-3.717585"><ele>2053</ele><speed>21</speed><time>2016-10-08T12:15:22Z</time><course>287</course><type>18</type></trkpt>
      <trkpt lat="41.0740783" lon="-3.7176434"><ele>2052</ele><speed>19</speed><time>2016-10-08T12:15:23Z</time><course>287</course><type>18</type></trkpt>
      <trkpt lat="41.0741266" lon="-3.7176917"><ele>2051</ele><speed>21</speed><time>2016-10-08T12:15:24Z</time><course>298</course><type>18</type></trkpt>
      <trkpt lat="41.0741766" lon="-3.717745"><ele>2051</ele><speed>23</speed><time>2016-10-08T12:15:25Z</time><course>310</course><type>18</type></trkpt>
      <trkpt lat="41.0742366" lon="-3.7177884"><ele>2050</ele><speed>24</speed><time>2016-10-08T12:15:26Z</time><course>321</course><type>18</type></trkpt>
      <trkpt lat="41.0743066" lon="-3.7178067"><ele>2049</ele><speed>24</speed><time>2016-10-08T12:15:27Z</time><course>326</course><type>18</type></trkpt>
      <trkpt lat="41.0743883" lon="-3.7177984"><ele>2048</ele><speed>24</speed><time>2016-10-08T12:15:28Z</time><course>334</course><type>18</type></trkpt>
      <trkpt lat="41.07448" lon="-3.7177484"><ele>2048</ele><speed>26</speed><time>2016-10-08T12:15:29Z</time><course>354</course><type>18</type></trkpt>
      <trkpt lat="41.07457" lon="-3.7176767"><ele>2046</ele><speed>25</speed><time>2016-10-08T12:15:30Z</time><course>3</course><type>18</type></trkpt>
      <trkpt lat="41.0746299" lon="-3.71763"><ele>2046</ele><speed>23</speed><time>2016-10-08T12:15:31Z</time><course>11</course><type>18</type></trkpt>
      <trkpt lat="41.0747033" lon="-3.7175434"><ele>2045</ele><speed>24</speed><time>2016-10-08T12:15:32Z</time><course>20</course><type>18</type></trkpt>
      <trkpt lat="41.07478" lon="-3.7174717"><ele>2044</ele><speed>27</speed><time>2016-10-08T12:15:33Z</time><course>27</course><type>18</type></trkpt>
      <trkpt lat="41.0748466" lon="-3.71739"><ele>2044</ele><speed>29</speed><time>2016-10-08T12:15:34Z</time><course>35</course><type>18</type></trkpt>
      <trkpt lat="41.0749066" lon="-3.7173034"><ele>2043</ele><speed>31</speed><time>2016-10-08T12:15:35Z</time><course>43</course><type>18</type></trkpt>
      <trkpt lat="41.0749683" lon="-3.7171984"><ele>2042</ele><speed>31</speed><time>2016-10-08T12:15:36Z</time><course>50</course><type>18</type></trkpt>
      <trkpt lat="41.075005" lon="-3.7170901"><ele>2041</ele><speed>29</speed><time>2016-10-08T12:15:37Z</time><course>59</course><type>18</type></trkpt>
      <trkpt lat="41.0750233" lon="-3.7169734"><ele>2041</ele><speed>29</speed><time>2016-10-08T12:15:38Z</time><course>69</course><type>18</type></trkpt>
      <trkpt lat="41.0749683" lon="-3.7168584"><ele>2041</ele><speed>25</speed><time>2016-10-08T12:15:39Z</time><course>99</course><type>18</type></trkpt>
      <trkpt lat="41.0749133" lon="-3.716765"><ele>2041</ele><speed>24</speed><time>2016-10-08T12:15:40Z</time><course>116</course><type>18</type></trkpt>
      <trkpt lat="41.0747649" lon="-3.7167184"><ele>2040</ele><speed>31</speed><time>2016-10-08T12:15:41Z</time><course>151</course><type>18</type></trkpt>
      <trkpt lat="41.0746883" lon="-3.7166984"><ele>2039</ele><speed>25</speed><time>2016-10-08T12:15:42Z</time><course>157</course><type>18</type></trkpt>
      <trkpt lat="41.0746299" lon="-3.7166784"><ele>2039</ele><speed>19</speed><time>2016-10-08T12:15:43Z</time><course>163</course><type>18</type></trkpt>
      <trkpt lat="41.0745633" lon="-3.7167467"><ele>2039</ele><speed>19</speed><time>2016-10-08T12:15:44Z</time><course>191</course><type>18</type></trkpt>
      <trkpt lat="41.07452" lon="-3.7168767"><ele>2038</ele><speed>22</speed><time>2016-10-08T12:15:45Z</time><course>233</course><type>18</type></trkpt>
      <trkpt lat="41.0744983" lon="-3.71695"><ele>2038</ele><speed>21</speed><time>2016-10-08T12:15:46Z</time><course>240</course><type>18</type></trkpt>
      <trkpt lat="41.07449" lon="-3.7170284"><ele>2038</ele><speed>17</speed><time>2016-10-08T12:15:47Z</time><course>254</course><type>18</type></trkpt>
      <trkpt lat="41.0745233" lon="-3.717085"><ele>2038</ele><speed>12</speed><time>2016-10-08T12:15:48Z</time><course>286</course><type>18</type></trkpt>
      <trkpt lat="41.0745516" lon="-3.7171467"><ele>2038</ele><speed>13</speed><time>2016-10-08T12:15:49Z</time><course>306</course><type>18</type></trkpt>
      <trkpt lat="41.074635" lon="-3.7171917"><ele>2038</ele><speed>11</speed><time>2016-10-08T12:15:51Z</time><course>354</course><type>18</type></trkpt>
      <trkpt lat="41.0747316" lon="-3.7171384"><ele>2039</ele><speed>18</speed><time>2016-10-08T12:15:53Z</time><course>28</course><type>18</type></trkpt>
      <trkpt lat="41.0747783" lon="-3.7170734"><ele>2039</ele><speed>22</speed><time>2016-10-08T12:15:54Z</time><course>42</course><type>18</type></trkpt>
      <trkpt lat="41.0748266" lon="-3.7169367"><ele>2040</ele><speed>33</speed><time>2016-10-08T12:15:55Z</time><course>63</course><type>18</type></trkpt>
      <trkpt lat="41.0748566" lon="-3.7168217"><ele>2040</ele><speed>33</speed><time>2016-10-08T12:15:56Z</time><course>74</course><type>18</type></trkpt>
      <trkpt lat="41.07487" lon="-3.716705"><ele>2040</ele><speed>32</speed><time>2016-10-08T12:15:57Z</time><course>83</course><type>18</type></trkpt>
      <trkpt lat="41.0748533" lon="-3.7166"><ele>2040</ele><speed>31</speed><time>2016-10-08T12:15:58Z</time><course>91</course><type>18</type></trkpt>
      <trkpt lat="41.0748066" lon="-3.71649"><ele>2040</ele><speed>31</speed><time>2016-10-08T12:15:59Z</time><course>103</course><type>18</type></trkpt>
      <trkpt lat="41.0746833" lon="-3.7164184"><ele>2040</ele><speed>35</speed><time>2016-10-08T12:16:00Z</time><course>146</course><type>18</type></trkpt>
      <trkpt lat="41.074575" lon="-3.7163967"><ele>2040</ele><speed>36</speed><time>2016-10-08T12:16:01Z</time><course>167</course><type>18</type></trkpt>
      <trkpt lat="41.07448" lon="-3.71638"><ele>2040</ele><speed>36</speed><time>2016-10-08T12:16:02Z</time><course>172</course><type>18</type></trkpt>
      <trkpt lat="41.0743933" lon="-3.7163784"><ele>2040</ele><speed>32</speed><time>2016-10-08T12:16:03Z</time><course>178</course><type>18</type></trkpt>
      <trkpt lat="41.0743233" lon="-3.7164017"><ele>2041</ele><speed>28</speed><time>2016-10-08T12:16:04Z</time><course>188</course><type>18</type></trkpt>
      <trkpt lat="41.0742533" lon="-3.716455"><ele>2042</ele><speed>29</speed><time>2016-10-08T12:16:05Z</time><course>202</course><type>18</type></trkpt>
      <trkpt lat="41.0741916" lon="-3.7165117"><ele>2042</ele><speed>29</speed><time>2016-10-08T12:16:06Z</time><course>210</course><type>18</type></trkpt>
      <trkpt lat="41.0741333" lon="-3.7165767"><ele>2043</ele><speed>29</speed><time>2016-10-08T12:16:07Z</time><course>217</course><type>18</type></trkpt>
      <trkpt lat="41.0740816" lon="-3.7166484"><ele>2043</ele><speed>30</speed><time>2016-10-08T12:16:08Z</time><course>224</course><type>18</type></trkpt>
      <trkpt lat="41.0740266" lon="-3.7167334"><ele>2044</ele><speed>31</speed><time>2016-10-08T12:16:09Z</time><course>233</course><type>18</type></trkpt>
      <trkpt lat="41.0740616" lon="-3.716805"><ele>2045</ele><speed>23</speed><time>2016-10-08T12:16:10Z</time><course>272</course><type>18</type></trkpt>
      <trkpt lat="41.0740666" lon="-3.7168767"><ele>2046</ele><speed>19</speed><time>2016-10-08T12:16:11Z</time><course>276</course><type>18</type></trkpt>
      <trkpt lat="41.0741116" lon="-3.7169584"><ele>2047</ele><speed>14</speed><time>2016-10-08T12:16:13Z</time><course>306</course><type>18</type></trkpt>
      <trkpt lat="41.0741899" lon="-3.7169551"><ele>2047</ele><speed>18</speed><time>2016-10-08T12:16:14Z</time><course>351</course><type>18</type></trkpt>
      <trkpt lat="41.0742733" lon="-3.7169517"><ele>2049</ele><speed>22</speed><time>2016-10-08T12:16:16Z</time><course>20</course><type>18</type></trkpt>
      <trkpt lat="41.074355" lon="-3.7168334"><ele>2050</ele><speed>28</speed><time>2016-10-08T12:16:18Z</time><course>45</course><type>18</type></trkpt>
      <trkpt lat="41.0743916" lon="-3.7167384"><ele>2051</ele><speed>30</speed><time>2016-10-08T12:16:19Z</time><course>53</course><type>18</type></trkpt>
      <trkpt lat="41.0744133" lon="-3.716635"><ele>2051</ele><speed>29</speed><time>2016-10-08T12:16:20Z</time><course>66</course><type>18</type></trkpt>
      <trkpt lat="41.07442" lon="-3.716525"><ele>2052</ele><speed>29</speed><time>2016-10-08T12:16:21Z</time><course>77</course><type>18</type></trkpt>
      <trkpt lat="41.0744499" lon="-3.7164484"><ele>2054</ele><speed>28</speed><time>2016-10-08T12:16:22Z</time><course>83</course><type>18</type></trkpt>
      <trkpt lat="41.0743966" lon="-3.7163817"><ele>2055</ele><speed>23</speed><time>2016-10-08T12:16:23Z</time><course>121</course><type>18</type></trkpt>
      <trkpt lat="41.0743249" lon="-3.71632"><ele>2056</ele><speed>28</speed><time>2016-10-08T12:16:24Z</time><course>146</course><type>18</type></trkpt>
      <trkpt lat="41.0742416" lon="-3.716255"><ele>2057</ele><speed>34</speed><time>2016-10-08T12:16:25Z</time><course>153</course><type>18</type></trkpt>
      <trkpt lat="41.0741583" lon="-3.7162167"><ele>2058</ele><speed>36</speed><time>2016-10-08T12:16:26Z</time><course>161</course><type>18</type></trkpt>
      <trkpt lat="41.0740733" lon="-3.71621"><ele>2058</ele><speed>35</speed><time>2016-10-08T12:16:27Z</time><course>172</course><type>18</type></trkpt>
      <trkpt lat="41.0739983" lon="-3.716205"><ele>2060</ele><speed>28</speed><time>2016-10-08T12:16:28Z</time><course>179</course><type>18</type></trkpt>
      <trkpt lat="41.07394" lon="-3.7161834"><ele>2061</ele><speed>20</speed><time>2016-10-08T12:16:29Z</time><course>179</course><type>18</type></trkpt>
      <trkpt lat="41.0738866" lon="-3.7162434"><ele>2063</ele><speed>10</speed><time>2016-10-08T12:16:31Z</time><course>212</course><type>18</type></trkpt>
      <trkpt lat="41.07387" lon="-3.7163284"><ele>2064</ele><speed>14</speed><time>2016-10-08T12:16:32Z</time><course>243</course><type>18</type></trkpt>
      <trkpt lat="41.0738533" lon="-3.7164317"><ele>2065</ele><speed>19</speed><time>2016-10-08T12:16:33Z</time><course>253</course><type>18</type></trkpt>
      <trkpt lat="41.07384" lon="-3.7165334"><ele>2066</ele><speed>24</speed><time>2016-10-08T12:16:34Z</time><course>259</course><type>18</type></trkpt>
      <trkpt lat="41.0738366" lon="-3.7166367"><ele>2067</ele><speed>26</speed><time>2016-10-08T12:16:35Z</time><course>266</course><type>18</type></trkpt>
      <trkpt lat="41.0738366" lon="-3.7167467"><ele>2068</ele><speed>29</speed><time>2016-10-08T12:16:36Z</time><course>269</course><type>18</type></trkpt>
      <trkpt lat="41.073845" lon="-3.7168367"><ele>2070</ele><speed>28</speed><time>2016-10-08T12:16:37Z</time><course>275</course><type>18</type></trkpt>
      <trkpt lat="41.07384" lon="-3.716925"><ele>2071</ele><speed>24</speed><time>2016-10-08T12:16:38Z</time><course>272</course><type>18</type></trkpt>
      <trkpt lat="41.0738233" lon="-3.7170001"><ele>2073</ele><speed>23</speed><time>2016-10-08T12:16:39Z</time><course>266</course><type>18</type></trkpt>
      <trkpt lat="41.0738" lon="-3.7170884"><ele>2074</ele><speed>24</speed><time>2016-10-08T12:16:40Z</time><course>267</course><type>18</type></trkpt>
      <trkpt lat="41.0737816" lon="-3.7171784"><ele>2076</ele><speed>25</speed><time>2016-10-08T12:16:41Z</time><course>271</course><type>18</type></trkpt>
      <trkpt lat="41.0737966" lon="-3.717255"><ele>2078</ele><speed>27</speed><time>2016-10-08T12:16:42Z</time><course>292</course><type>18</type></trkpt>
      <trkpt lat="41.0738233" lon="-3.7173267"><ele>2079</ele><speed>27</speed><time>2016-10-08T12:16:43Z</time><course>301</course><type>18</type></trkpt>
      <trkpt lat="41.0738633" lon="-3.7174"><ele>2081</ele><speed>26</speed><time>2016-10-08T12:16:44Z</time><course>305</course><type>18</type></trkpt>
      <trkpt lat="41.0739133" lon="-3.717465"><ele>2082</ele><speed>26</speed><time>2016-10-08T12:16:45Z</time><course>313</course><type>18</type></trkpt>
      <trkpt lat="41.0739583" lon="-3.7175217"><ele>2083</ele><speed>24</speed><time>2016-10-08T12:16:46Z</time><course>318</course><type>18</type></trkpt>
      <trkpt lat="41.0739883" lon="-3.717605"><ele>2085</ele><speed>24</speed><time>2016-10-08T12:16:47Z</time><course>321</course><type>18</type></trkpt>
      <trkpt lat="41.0740383" lon="-3.7176367"><ele>2086</ele><speed>23</speed><time>2016-10-08T12:16:48Z</time><course>331</course><type>18</type></trkpt>
      <trkpt lat="41.0740966" lon="-3.717655"><ele>2087</ele><speed>23</speed><time>2016-10-08T12:16:49Z</time><course>340</course><type>18</type></trkpt>
      <trkpt lat="41.074165" lon="-3.7176584"><ele>2088</ele><speed>24</speed><time>2016-10-08T12:16:50Z</time><course>349</course><type>18</type></trkpt>
      <trkpt lat="41.0743" lon="-3.7176734"><ele>2090</ele><speed>26</speed><time>2016-10-08T12:16:52Z</time><course>349</course><type>18</type></trkpt>
      <trkpt lat="41.0744116" lon="-3.7176934"><ele>2092</ele><speed>24</speed><time>2016-10-08T12:16:54Z</time><course>347</course><type>18</type></trkpt>
      <trkpt lat="41.0745083" lon="-3.7176967"><ele>2094</ele><speed>22</speed><time>2016-10-08T12:16:56Z</time><course>351</course><type>18</type></trkpt>
      <trkpt lat="41.07462" lon="-3.7177217"><ele>2096</ele><speed>25</speed><time>2016-10-08T12:16:58Z</time><course>340</course><type>18</type></trkpt>
      <trkpt lat="41.0747199" lon="-3.7177867"><ele>2099</ele><speed>25</speed><time>2016-10-08T12:17:00Z</time><course>332</course><type>18</type></trkpt>
      <trkpt lat="41.0747916" lon="-3.7178484"><ele>2102</ele><speed>17</speed><time>2016-10-08T12:17:02Z</time><course>327</course><type>18</type></trkpt>
      <trkpt lat="41.0748283" lon="-3.7179667"><ele>2106</ele><speed>13</speed><time>2016-10-08T12:17:05Z</time><course>294</course><type>18</type></trkpt>
      <trkpt lat="41.0748183" lon="-3.718085"><ele>2108</ele><speed>16</speed><time>2016-10-08T12:17:07Z</time><course>270</course><type>18</type></trkpt>
      <trkpt lat="41.074795" lon="-3.718225"><ele>2111</ele><speed>19</speed><time>2016-10-08T12:17:09Z</time><course>250</course><type>18</type></trkpt>
      <trkpt lat="41.0747283" lon="-3.7183167"><ele>2114</ele><speed>17</speed><time>2016-10-08T12:17:11Z</time><course>233</course><type>18</type></trkpt>
      <trkpt lat="41.0746766" lon="-3.7184217"><ele>2117</ele><speed>17</speed><time>2016-10-08T12:17:13Z</time><course>253</course><type>18</type></trkpt>
      <trkpt lat="41.0746716" lon="-3.7185534"><ele>2120</ele><speed>17</speed><time>2016-10-08T12:17:15Z</time><course>272</course><type>18</type></trkpt>
      <trkpt lat="41.0747916" lon="-3.7184301"><ele>2124</ele><speed>17</speed><time>2016-10-08T12:17:18Z</time><course>37</course><type>18</type></trkpt>
      <trkpt lat="41.0748316" lon="-3.7183317"><ele>2125</ele><speed>21</speed><time>2016-10-08T12:17:19Z</time><course>49</course><type>18</type></trkpt>
      <trkpt lat="41.0747866" lon="-3.71822"><ele>2126</ele><speed>17</speed><time>2016-10-08T12:17:20Z</time><course>82</course><type>18</type></trkpt>
      <trkpt lat="41.0747433" lon="-3.7181"><ele>2128</ele><speed>12</speed><time>2016-10-08T12:17:22Z</time><course>124</course><type>18</type></trkpt>
      <trkpt lat="41.0746416" lon="-3.717985"><ele>2130</ele><speed>24</speed><time>2016-10-08T12:17:23Z</time><course>144</course><type>18</type></trkpt>
      <trkpt lat="41.074525" lon="-3.7179767"><ele>2132</ele><speed>19</speed><time>2016-10-08T12:17:25Z</time><course>184</course><type>18</type></trkpt>
      <trkpt lat="41.0744633" lon="-3.7180017"><ele>2134</ele><speed>20</speed><time>2016-10-08T12:17:26Z</time><course>196</course><type>18</type></trkpt>
      <trkpt lat="41.0743599" lon="-3.7180117"><ele>2138</ele><speed>19</speed><time>2016-10-08T12:17:28Z</time><course>219</course><type>18</type></trkpt>
      <trkpt lat="41.0742916" lon="-3.7180667"><ele>2141</ele><speed>18</speed><time>2016-10-08T12:17:30Z</time><course>230</course><type>18</type></trkpt>
      <trkpt lat="41.0742283" lon="-3.7181067"><ele>2144</ele><speed>12</speed><time>2016-10-08T12:17:32Z</time><course>224</course><type>18</type></trkpt>
      <trkpt lat="41.0743066" lon="-3.7181017"><ele>2146</ele><speed>14</speed><time>2016-10-08T12:17:33Z</time><course>339</course><type>18</type></trkpt>
      <trkpt lat="41.0744133" lon="-3.718145"><ele>2150</ele><speed>19</speed><time>2016-10-08T12:17:35Z</time><course>349</course><type>18</type></trkpt>
      <trkpt lat="41.0744683" lon="-3.7181667"><ele>2151</ele><speed>21</speed><time>2016-10-08T12:17:36Z</time><course>351</course><type>18</type></trkpt>
      <trkpt lat="41.0745266" lon="-3.718175"><ele>2153</ele><speed>21</speed><time>2016-10-08T12:17:37Z</time><course>356</course><type>18</type></trkpt>
      <trkpt lat="41.0745866" lon="-3.7181734"><ele>2154</ele><speed>23</speed><time>2016-10-08T12:17:38Z</time><course>0</course><type>18</type></trkpt>
      <trkpt lat="41.0746516" lon="-3.7181684"><ele>2156</ele><speed>25</speed><time>2016-10-08T12:17:39Z</time><course>4</course><type>18</type></trkpt>
      <trkpt lat="41.0747266" lon="-3.7181634"><ele>2157</ele><speed>27</speed><time>2016-10-08T12:17:40Z</time><course>2</course><type>18</type></trkpt>
      <trkpt lat="41.074805" lon="-3.71816"><ele>2158</ele><speed>28</speed><time>2016-10-08T12:17:41Z</time><course>0</course><type>18</type></trkpt>
      <trkpt lat="41.07488" lon="-3.7181684"><ele>2160</ele><speed>28</speed><time>2016-10-08T12:17:42Z</time><course>355</course><type>18</type></trkpt>
      <trkpt lat="41.0749533" lon="-3.7181834"><ele>2161</ele><speed>27</speed><time>2016-10-08T12:17:43Z</time><course>352</course><type>18</type></trkpt>
      <trkpt lat="41.075025" lon="-3.7182034"><ele>2162</ele><speed>27</speed><time>2016-10-08T12:17:44Z</time><course>348</course><type>18</type></trkpt>
      <trkpt lat="41.0750983" lon="-3.718225"><ele>2164</ele><speed>29</speed><time>2016-10-08T12:17:45Z</time><course>347</course><type>18</type></trkpt>
      <trkpt lat="41.0751766" lon="-3.7182417"><ele>2165</ele><speed>31</speed><time>2016-10-08T12:17:46Z</time><course>347</course><type>18</type></trkpt>
      <trkpt lat="41.0752516" lon="-3.7182584"><ele>2166</ele><speed>31</speed><time>2016-10-08T12:17:47Z</time><course>348</course><type>18</type></trkpt>
      <trkpt lat="41.0753216" lon="-3.71827"><ele>2167</ele><speed>30</speed><time>2016-10-08T12:17:48Z</time><course>350</course><type>18</type></trkpt>
      <trkpt lat="41.0753883" lon="-3.71828"><ele>2169</ele><speed>27</speed><time>2016-10-08T12:17:49Z</time><course>351</course><type>18</type></trkpt>
      <trkpt lat="41.075455" lon="-3.718285"><ele>2170</ele><speed>27</speed><time>2016-10-08T12:17:50Z</time><course>353</course><type>18</type></trkpt>
      <trkpt lat="41.0755266" lon="-3.718285"><ele>2171</ele><speed>28</speed><time>2016-10-08T12:17:51Z</time><course>358</course><type>18</type></trkpt>
      <trkpt lat="41.0756016" lon="-3.7182684"><ele>2172</ele><speed>29</speed><time>2016-10-08T12:17:52Z</time><course>4</course><type>18</type></trkpt>
      <trkpt lat="41.0756766" lon="-3.718215"><ele>2173</ele><speed>29</speed><time>2016-10-08T12:17:53Z</time><course>16</course><type>18</type></trkpt>
      <trkpt lat="41.0757533" lon="-3.7181267"><ele>2175</ele><speed>32</speed><time>2016-10-08T12:17:54Z</time><course>25</course><type>18</type></trkpt>
      <trkpt lat="41.0758383" lon="-3.7180417"><ele>2177</ele><speed>37</speed><time>2016-10-08T12:17:55Z</time><course>31</course><type>18</type></trkpt>
      <trkpt lat="41.0759066" lon="-3.7179034"><ele>2178</ele><speed>42</speed><time>2016-10-08T12:17:56Z</time><course>45</course><type>18</type></trkpt>
      <trkpt lat="41.0759383" lon="-3.717765"><ele>2179</ele><speed>41</speed><time>2016-10-08T12:17:57Z</time><course>55</course><type>18</type></trkpt>
      <trkpt lat="41.0759616" lon="-3.71763"><ele>2181</ele><speed>39</speed><time>2016-10-08T12:17:58Z</time><course>60</course><type>18</type></trkpt>
      <trkpt lat="41.0759533" lon="-3.7174884"><ele>2182</ele><speed>37</speed><time>2016-10-08T12:17:59Z</time><course>68</course><type>18</type></trkpt>
      <trkpt lat="41.0759316" lon="-3.717355"><ele>2183</ele><speed>36</speed><time>2016-10-08T12:18:00Z</time><course>75</course><type>18</type></trkpt>
      <trkpt lat="41.0758783" lon="-3.7172467"><ele>2183</ele><speed>31</speed><time>2016-10-08T12:18:01Z</time><course>83</course><type>18</type></trkpt>
      <trkpt lat="41.0757549" lon="-3.71713"><ele>2184</ele><speed>31</speed><time>2016-10-08T12:18:02Z</time><course>108</course><type>18</type></trkpt>
      <trkpt lat="41.0756216" lon="-3.717035"><ele>2185</ele><speed>33</speed><time>2016-10-08T12:18:03Z</time><course>122</course><type>18</type></trkpt>
      <trkpt lat="41.075545" lon="-3.7170167"><ele>2186</ele><speed>26</speed><time>2016-10-08T12:18:04Z</time><course>133</course><type>18</type></trkpt>
      <trkpt lat="41.0755066" lon="-3.7171234"><ele>2186</ele><speed>14</speed><time>2016-10-08T12:18:05Z</time><course>142</course><type>18</type></trkpt>
      <trkpt lat="41.0754849" lon="-3.7172117"><ele>2187</ele><speed>4</speed><time>2016-10-08T12:18:06Z</time><course>142</course><type>18</type></trkpt>
      <trkpt lat="41.07548" lon="-3.717305"><ele>2188</ele><speed>7</speed><time>2016-10-08T12:18:07Z</time><course>263</course><type>18</type></trkpt>
      <trkpt lat="41.0754783" lon="-3.71741"><ele>2190</ele><speed>15</speed><time>2016-10-08T12:18:08Z</time><course>278</course><type>18</type></trkpt>
      <trkpt lat="41.0754783" lon="-3.7174984"><ele>2191</ele><speed>20</speed><time>2016-10-08T12:18:09Z</time><course>280</course><type>18</type></trkpt>
      <trkpt lat="41.0754816" lon="-3.7175734"><ele>2193</ele><speed>20</speed><time>2016-10-08T12:18:10Z</time><course>286</course><type>18</type></trkpt>
      <trkpt lat="41.0755183" lon="-3.717715"><ele>2196</ele><speed>21</speed><time>2016-10-08T12:18:12Z</time><course>302</course><type>18</type></trkpt>
      <trkpt lat="41.0755583" lon="-3.7177684"><ele>2197</ele><speed>21</speed><time>2016-10-08T12:18:13Z</time><course>312</course><type>18</type></trkpt>
      <trkpt lat="41.075595" lon="-3.7178317"><ele>2199</ele><speed>21</speed><time>2016-10-08T12:18:14Z</time><course>319</course><type>18</type></trkpt>
      <trkpt lat="41.0756366" lon="-3.71789"><ele>2200</ele><speed>21</speed><time>2016-10-08T12:18:15Z</time><course>321</course><type>18</type></trkpt>
      <trkpt lat="41.0757533" lon="-3.7177184"><ele>2203</ele><speed>27</speed><time>2016-10-08T12:18:17Z</time><course>48</course><type>18</type></trkpt>
      <trkpt lat="41.0758066" lon="-3.7176117"><ele>2205</ele><speed>33</speed><time>2016-10-08T12:18:18Z</time><course>54</course><type>18</type></trkpt>
      <trkpt lat="41.0758566" lon="-3.717495"><ele>2206</ele><speed>36</speed><time>2016-10-08T12:18:19Z</time><course>60</course><type>18</type></trkpt>
      <trkpt lat="41.0758983" lon="-3.7173717"><ele>2208</ele><speed>38</speed><time>2016-10-08T12:18:20Z</time><course>65</course><type>18</type></trkpt>
      <trkpt lat="41.075915" lon="-3.7172434"><ele>2209</ele><speed>38</speed><time>2016-10-08T12:18:21Z</time><course>74</course><type>18</type></trkpt>
      <trkpt lat="41.0759183" lon="-3.7171234"><ele>2210</ele><speed>36</speed><time>2016-10-08T12:18:22Z</time><course>81</course><type>18</type></trkpt>
      <trkpt lat="41.0759083" lon="-3.7170084"><ele>2212</ele><speed>34</speed><time>2016-10-08T12:18:23Z</time><course>88</course><type>18</type></trkpt>
      <trkpt lat="41.07584" lon="-3.71688"><ele>2213</ele><speed>35</speed><time>2016-10-08T12:18:24Z</time><course>107</course><type>18</type></trkpt>
      <trkpt lat="41.0757566" lon="-3.71678"><ele>2215</ele><speed>36</speed><time>2016-10-08T12:18:25Z</time><course>119</course><type>18</type></trkpt>
      <trkpt lat="41.07566" lon="-3.716745"><ele>2216</ele><speed>33</speed><time>2016-10-08T12:18:26Z</time><course>136</course><type>18</type></trkpt>
      <trkpt lat="41.0755633" lon="-3.7167467"><ele>2217</ele><speed>31</speed><time>2016-10-08T12:18:27Z</time><course>154</course><type>18</type></trkpt>
      <trkpt lat="41.0754716" lon="-3.7167567"><ele>2219</ele><speed>31</speed><time>2016-10-08T12:18:28Z</time><course>169</course><type>18</type></trkpt>
      <trkpt lat="41.07538" lon="-3.71678"><ele>2220</ele><speed>31</speed><time>2016-10-08T12:18:29Z</time><course>180</course><type>18</type></trkpt>
      <trkpt lat="41.075295" lon="-3.7168217"><ele>2222</ele><speed>31</speed><time>2016-10-08T12:18:30Z</time><course>191</course><type>18</type></trkpt>
      <trkpt lat="41.0752183" lon="-3.71688"><ele>2223</ele><speed>29</speed><time>2016-10-08T12:18:31Z</time><course>204</course><type>18</type></trkpt>
      <trkpt lat="41.0751533" lon="-3.7169867"><ele>2223</ele><speed>29</speed><time>2016-10-08T12:18:32Z</time><course>216</course><type>18</type></trkpt>
      <trkpt lat="41.075095" lon="-3.7170884"><ele>2224</ele><speed>30</speed><time>2016-10-08T12:18:33Z</time><course>224</course><type>18</type></trkpt>
      <trkpt lat="41.0750566" lon="-3.7172334"><ele>2226</ele><speed>37</speed><time>2016-10-08T12:18:34Z</time><course>241</course><type>18</type></trkpt>
      <trkpt lat="41.0750349" lon="-3.7173384"><ele>2227</ele><speed>34</speed><time>2016-10-08T12:18:35Z</time><course>247</course><type>18</type></trkpt>
      <trkpt lat="41.0750349" lon="-3.71742"><ele>2228</ele><speed>27</speed><time>2016-10-08T12:18:36Z</time><course>254</course><type>18</type></trkpt>
      <trkpt lat="41.0750666" lon="-3.717545"><ele>2231</ele><speed>21</speed><time>2016-10-08T12:18:38Z</time><course>274</course><type>18</type></trkpt>
      <trkpt lat="41.0750983" lon="-3.7176034"><ele>2233</ele><speed>21</speed><time>2016-10-08T12:18:39Z</time><course>287</course><type>18</type></trkpt>
      <trkpt lat="41.0751883" lon="-3.7177084"><ele>2234</ele><speed>22</speed><time>2016-10-08T12:18:41Z</time><course>309</course><type>18</type></trkpt>
      <trkpt lat="41.0752433" lon="-3.7177534"><ele>2235</ele><speed>23</speed><time>2016-10-08T12:18:42Z</time><course>319</course><type>18</type></trkpt>
      <trkpt lat="41.0753083" lon="-3.717745"><ele>2235</ele><speed>21</speed><time>2016-10-08T12:18:43Z</time><course>333</course><type>18</type></trkpt>
      <trkpt lat="41.0753966" lon="-3.71772"><ele>2236</ele><speed>22</speed><time>2016-10-08T12:18:44Z</time><course>344</course><type>18</type></trkpt>
      <trkpt lat="41.075465" lon="-3.7176417"><ele>2237</ele><speed>20</speed><time>2016-10-08T12:18:45Z</time><course>17</course><type>18</type></trkpt>
      <trkpt lat="41.0755433" lon="-3.7175167"><ele>2237</ele><speed>28</speed><time>2016-10-08T12:18:46Z</time><course>41</course><type>18</type></trkpt>
      <trkpt lat="41.0756199" lon="-3.7173884"><ele>2238</ele><speed>34</speed><time>2016-10-08T12:18:47Z</time><course>50</course><type>18</type></trkpt>
      <trkpt lat="41.075675" lon="-3.7172684"><ele>2239</ele><speed>36</speed><time>2016-10-08T12:18:48Z</time><course>57</course><type>18</type></trkpt>
      <trkpt lat="41.0757083" lon="-3.71714"><ele>2240</ele><speed>38</speed><time>2016-10-08T12:18:49Z</time><course>65</course><type>18</type></trkpt>
      <trkpt lat="41.0757266" lon="-3.7170134"><ele>2241</ele><speed>37</speed><time>2016-10-08T12:18:50Z</time><course>72</course><type>18</type></trkpt>
      <trkpt lat="41.0757" lon="-3.7168867"><ele>2241</ele><speed>32</speed><time>2016-10-08T12:18:51Z</time><course>87</course><type>18</type></trkpt>
      <trkpt lat="41.07565" lon="-3.7167667"><ele>2242</ele><speed>30</speed><time>2016-10-08T12:18:52Z</time><course>104</course><type>18</type></trkpt>
      <trkpt lat="41.0755783" lon="-3.7166434"><ele>2243</ele><speed>32</speed><time>2016-10-08T12:18:53Z</time><course>119</course><type>18</type></trkpt>
      <trkpt lat="41.0754783" lon="-3.7165217"><ele>2244</ele><speed>39</speed><time>2016-10-08T12:18:54Z</time><course>128</course><type>18</type></trkpt>
      <trkpt lat="41.07537" lon="-3.7164217"><ele>2245</ele><speed>42</speed><time>2016-10-08T12:18:55Z</time><course>137</course><type>18</type></trkpt>
      <trkpt lat="41.07527" lon="-3.716365"><ele>2245</ele><speed>40</speed><time>2016-10-08T12:18:56Z</time><course>146</course><type>18</type></trkpt>
      <trkpt lat="41.0751716" lon="-3.7163334"><ele>2246</ele><speed>39</speed><time>2016-10-08T12:18:57Z</time><course>155</course><type>18</type></trkpt>
      <trkpt lat="41.0750716" lon="-3.7163284"><ele>2247</ele><speed>39</speed><time>2016-10-08T12:18:58Z</time><course>164</course><type>18</type></trkpt>
      <trkpt lat="41.0749783" lon="-3.716395"><ele>2248</ele><speed>34</speed><time>2016-10-08T12:18:59Z</time><course>188</course><type>18</type></trkpt>
      <trkpt lat="41.0748966" lon="-3.7164367"><ele>2249</ele><speed>32</speed><time>2016-10-08T12:19:00Z</time><course>195</course><type>18</type></trkpt>
      <trkpt lat="41.07482" lon="-3.7165017"><ele>2250</ele><speed>32</speed><time>2016-10-08T12:19:01Z</time><course>204</course><type>18</type></trkpt>
      <trkpt lat="41.0747533" lon="-3.7165684"><ele>2252</ele><speed>31</speed><time>2016-10-08T12:19:02Z</time><course>211</course><type>18</type></trkpt>
      <trkpt lat="41.0746966" lon="-3.716635"><ele>2253</ele><speed>29</speed><time>2016-10-08T12:19:03Z</time><course>216</course><type>18</type></trkpt>
      <trkpt lat="41.07465" lon="-3.7167017"><ele>2254</ele><speed>27</speed><time>2016-10-08T12:19:04Z</time><course>222</course><type>18</type></trkpt>
      <trkpt lat="41.0746116" lon="-3.7167751"><ele>2255</ele><speed>25</speed><time>2016-10-08T12:19:05Z</time><course>228</course><type>18</type></trkpt>
      <trkpt lat="41.0745766" lon="-3.71685"><ele>2256</ele><speed>25</speed><time>2016-10-08T12:19:06Z</time><course>234</course><type>18</type></trkpt>
      <trkpt lat="41.0745533" lon="-3.7169267"><ele>2257</ele><speed>24</speed><time>2016-10-08T12:19:07Z</time><course>242</course><type>18</type></trkpt>
      <trkpt lat="41.0745466" lon="-3.7170001"><ele>2258</ele><speed>21</speed><time>2016-10-08T12:19:08Z</time><course>256</course><type>18</type></trkpt>
      <trkpt lat="41.0745366" lon="-3.7170784"><ele>2259</ele><speed>22</speed><time>2016-10-08T12:19:09Z</time><course>259</course><type>18</type></trkpt>
      <trkpt lat="41.0745216" lon="-3.717165"><ele>2259</ele><speed>25</speed><time>2016-10-08T12:19:10Z</time><course>257</course><type>18</type></trkpt>
      <trkpt lat="41.0745033" lon="-3.71726"><ele>2260</ele><speed>27</speed><time>2016-10-08T12:19:11Z</time><course>254</course><type>18</type></trkpt>
      <trkpt lat="41.0744783" lon="-3.71737"><ele>2261</ele><speed>31</speed><time>2016-10-08T12:19:12Z</time><course>253</course><type>18</type></trkpt>
      <trkpt lat="41.0744616" lon="-3.7174584"><ele>2262</ele><speed>28</speed><time>2016-10-08T12:19:13Z</time><course>251</course><type>18</type></trkpt>
      <trkpt lat="41.0744516" lon="-3.71754"><ele>2262</ele><speed>25</speed><time>2016-10-08T12:19:14Z</time><course>255</course><type>18</type></trkpt>
      <trkpt lat="41.07444" lon="-3.7176234"><ele>2263</ele><speed>24</speed><time>2016-10-08T12:19:15Z</time><course>257</course><type>18</type></trkpt>
      <trkpt lat="41.07443" lon="-3.7177067"><ele>2264</ele><speed>24</speed><time>2016-10-08T12:19:16Z</time><course>260</course><type>18</type></trkpt>
      <trkpt lat="41.07442" lon="-3.7178"><ele>2265</ele><speed>27</speed><time>2016-10-08T12:19:17Z</time><course>261</course><type>18</type></trkpt>
      <trkpt lat="41.0744066" lon="-3.71791"><ele>2265</ele><speed>30</speed><time>2016-10-08T12:19:18Z</time><course>262</course><type>18</type></trkpt>
      <trkpt lat="41.0743933" lon="-3.7180234"><ele>2266</ele><speed>32</speed><time>2016-10-08T12:19:19Z</time><course>262</course><type>18</type></trkpt>
      <trkpt lat="41.0743833" lon="-3.7181367"><ele>2267</ele><speed>31</speed><time>2016-10-08T12:19:20Z</time><course>263</course><type>18</type></trkpt>
      <trkpt lat="41.0743816" lon="-3.7182334"><ele>2267</ele><speed>28</speed><time>2016-10-08T12:19:21Z</time><course>264</course><type>18</type></trkpt>
      <trkpt lat="41.0743733" lon="-3.7183234"><ele>2268</ele><speed>25</speed><time>2016-10-08T12:19:22Z</time><course>262</course><type>18</type></trkpt>
      <trkpt lat="41.0743683" lon="-3.7184084"><ele>2268</ele><speed>24</speed><time>2016-10-08T12:19:23Z</time><course>263</course><type>18</type></trkpt>
      <trkpt lat="41.0743516" lon="-3.7185117"><ele>2269</ele><speed>28</speed><time>2016-10-08T12:19:24Z</time><course>260</course><type>18</type></trkpt>
      <trkpt lat="41.0743416" lon="-3.7186184"><ele>2269</ele><speed>30</speed><time>2016-10-08T12:19:25Z</time><course>263</course><type>18</type></trkpt>
      <trkpt lat="41.0743366" lon="-3.7187384"><ele>2270</ele><speed>33</speed><time>2016-10-08T12:19:26Z</time><course>267</course><type>18</type></trkpt>
      <trkpt lat="41.0743383" lon="-3.7188634"><ele>2270</ele><speed>35</speed><time>2016-10-08T12:19:27Z</time><course>269</course><type>18</type></trkpt>
      <trkpt lat="41.0743383" lon="-3.7189767"><ele>2270</ele><speed>33</speed><time>2016-10-08T12:19:28Z</time><course>269</course><type>18</type></trkpt>
      <trkpt lat="41.07434" lon="-3.7190867"><ele>2271</ele><speed>31</speed><time>2016-10-08T12:19:29Z</time><course>268</course><type>18</type></trkpt>
      <trkpt lat="41.0743366" lon="-3.71918"><ele>2271</ele><speed>28</speed><time>2016-10-08T12:19:30Z</time><course>266</course><type>18</type></trkpt>
      <trkpt lat="41.07435" lon="-3.7192534"><ele>2272</ele><speed>26</speed><time>2016-10-08T12:19:31Z</time><course>272</course><type>18</type></trkpt>
      <trkpt lat="41.0743566" lon="-3.71935"><ele>2272</ele><speed>29</speed><time>2016-10-08T12:19:32Z</time><course>276</course><type>18</type></trkpt>
      <trkpt lat="41.074375" lon="-3.7194484"><ele>2272</ele><speed>31</speed><time>2016-10-08T12:19:33Z</time><course>281</course><type>18</type></trkpt>
      <trkpt lat="41.0743983" lon="-3.719545"><ele>2273</ele><speed>31</speed><time>2016-10-08T12:19:34Z</time><course>284</course><type>18</type></trkpt>
      <trkpt lat="41.0744266" lon="-3.7196367"><ele>2273</ele><speed>30</speed><time>2016-10-08T12:19:35Z</time><course>286</course><type>18</type></trkpt>
      <trkpt lat="41.0744533" lon="-3.7197267"><ele>2273</ele><speed>29</speed><time>2016-10-08T12:19:36Z</time><course>287</course><type>18</type></trkpt>
      <trkpt lat="41.0744866" lon="-3.7198067"><ele>2273</ele><speed>28</speed><time>2016-10-08T12:19:37Z</time><course>291</course><type>18</type></trkpt>
      <trkpt lat="41.074515" lon="-3.7199017"><ele>2273</ele><speed>30</speed><time>2016-10-08T12:19:38Z</time><course>293</course><type>18</type></trkpt>
      <trkpt lat="41.0745433" lon="-3.719995"><ele>2274</ele><speed>30</speed><time>2016-10-08T12:19:39Z</time><course>291</course><type>18</type></trkpt>
      <trkpt lat="41.0745783" lon="-3.7200917"><ele>2274</ele><speed>31</speed><time>2016-10-08T12:19:40Z</time><course>287</course><type>18</type></trkpt>
      <trkpt lat="41.0746033" lon="-3.7201784"><ele>2274</ele><speed>28</speed><time>2016-10-08T12:19:41Z</time><course>289</course><type>18</type></trkpt>
      <trkpt lat="41.0746283" lon="-3.7202534"><ele>2275</ele><speed>27</speed><time>2016-10-08T12:19:42Z</time><course>289</course><type>18</type></trkpt>
      <trkpt lat="41.0747199" lon="-3.72025"><ele>2275</ele><speed>14</speed><time>2016-10-08T12:19:44Z</time><course>327</course><type>18</type></trkpt>
      <trkpt lat="41.0748099" lon="-3.7203551"><ele>2275</ele><speed>20</speed><time>2016-10-08T12:19:46Z</time><course>326</course><type>18</type></trkpt>
      <trkpt lat="41.0749216" lon="-3.72044"><ele>2275</ele><speed>19</speed><time>2016-10-08T12:19:48Z</time><course>350</course><type>18</type></trkpt>
      <trkpt lat="41.0749933" lon="-3.720475"><ele>2275</ele><speed>21</speed><time>2016-10-08T12:19:49Z</time><course>356</course><type>18</type></trkpt>
      <trkpt lat="41.0750816" lon="-3.7204567"><ele>2274</ele><speed>23</speed><time>2016-10-08T12:19:50Z</time><course>1</course><type>18</type></trkpt>
      <trkpt lat="41.0752" lon="-3.7203717"><ele>2274</ele><speed>33</speed><time>2016-10-08T12:19:51Z</time><course>19</course><type>18</type></trkpt>
      <trkpt lat="41.0752933" lon="-3.720305"><ele>2274</ele><speed>33</speed><time>2016-10-08T12:19:52Z</time><course>23</course><type>18</type></trkpt>
      <trkpt lat="41.0753166" lon="-3.720205"><ele>2273</ele><speed>23</speed><time>2016-10-08T12:19:54Z</time><course>31</course><type>18</type></trkpt>
      <trkpt lat="41.0752733" lon="-3.7201267"><ele>2272</ele><speed>18</speed><time>2016-10-08T12:19:55Z</time><course>48</course><type>18</type></trkpt>
      <trkpt lat="41.0752433" lon="-3.720025"><ele>2272</ele><speed>17</speed><time>2016-10-08T12:19:56Z</time><course>67</course><type>18</type></trkpt>
      <trkpt lat="41.0751833" lon="-3.7199317"><ele>2272</ele><speed>17</speed><time>2016-10-08T12:19:57Z</time><course>87</course><type>18</type></trkpt>
      <trkpt lat="41.0750866" lon="-3.7198417"><ele>2272</ele><speed>18</speed><time>2016-10-08T12:19:58Z</time><course>110</course><type>18</type></trkpt>
      <trkpt lat="41.0748616" lon="-3.7197"><ele>2272</ele><speed>29</speed><time>2016-10-08T12:19:59Z</time><course>135</course><type>18</type></trkpt>
      <trkpt lat="41.0746399" lon="-3.71962"><ele>2271</ele><speed>42</speed><time>2016-10-08T12:20:00Z</time><course>152</course><type>18</type></trkpt>
      <trkpt lat="41.0745033" lon="-3.7195967"><ele>2271</ele><speed>42</speed><time>2016-10-08T12:20:01Z</time><course>160</course><type>18</type></trkpt>
      <trkpt lat="41.0743783" lon="-3.7195717"><ele>2271</ele><speed>42</speed><time>2016-10-08T12:20:02Z</time><course>166</course><type>18</type></trkpt>
      <trkpt lat="41.0742366" lon="-3.7195467"><ele>2271</ele><speed>44</speed><time>2016-10-08T12:20:03Z</time><course>169</course><type>18</type></trkpt>
      <trkpt lat="41.0740733" lon="-3.7195217"><ele>2271</ele><speed>49</speed><time>2016-10-08T12:20:04Z</time><course>167</course><type>18</type></trkpt>
      <trkpt lat="41.0739549" lon="-3.7195034"><ele>2271</ele><speed>47</speed><time>2016-10-08T12:20:05Z</time><course>168</course><type>18</type></trkpt>
      <trkpt lat="41.0738383" lon="-3.719475"><ele>2271</ele><speed>46</speed><time>2016-10-08T12:20:06Z</time><course>168</course><type>18</type></trkpt>
      <trkpt lat="41.073725" lon="-3.7194367"><ele>2272</ele><speed>45</speed><time>2016-10-08T12:20:07Z</time><course>167</course><type>18</type></trkpt>
      <trkpt lat="41.0736233" lon="-3.719405"><ele>2272</ele><speed>43</speed><time>2016-10-08T12:20:08Z</time><course>166</course><type>18</type></trkpt>
      <trkpt lat="41.07353" lon="-3.71938"><ele>2272</ele><speed>43</speed><time>2016-10-08T12:20:09Z</time><course>164</course><type>18</type></trkpt>
      <trkpt lat="41.0734316" lon="-3.7193567"><ele>2273</ele><speed>42</speed><time>2016-10-08T12:20:10Z</time><course>164</course><type>18</type></trkpt>
      <trkpt lat="41.0732783" lon="-3.719335"><ele>2273</ele><speed>38</speed><time>2016-10-08T12:20:12Z</time><course>165</course><type>18</type></trkpt>
      <trkpt lat="41.0731883" lon="-3.71935"><ele>2274</ele><speed>36</speed><time>2016-10-08T12:20:13Z</time><course>170</course><type>18</type></trkpt>
      <trkpt lat="41.0730916" lon="-3.7193634"><ele>2274</ele><speed>36</speed><time>2016-10-08T12:20:14Z</time><course>173</course><type>18</type></trkpt>
      <trkpt lat="41.072995" lon="-3.7193734"><ele>2275</ele><speed>36</speed><time>2016-10-08T12:20:15Z</time><course>174</course><type>18</type></trkpt>
      <trkpt lat="41.072825" lon="-3.7194067"><ele>2276</ele><speed>35</speed><time>2016-10-08T12:20:17Z</time><course>176</course><type>18</type></trkpt>
      <trkpt lat="41.0726316" lon="-3.719505"><ele>2276</ele><speed>36</speed><time>2016-10-08T12:20:19Z</time><course>188</course><type>18</type></trkpt>
      <trkpt lat="41.0724566" lon="-3.7196451"><ele>2277</ele><speed>36</speed><time>2016-10-08T12:20:21Z</time><course>187</course><type>18</type></trkpt>
      <trkpt lat="41.07235" lon="-3.7197367"><ele>2278</ele><speed>29</speed><time>2016-10-08T12:20:24Z</time><course>189</course><type>18</type></trkpt>
      <trkpt lat="41.072245" lon="-3.7198967"><ele>2279</ele><speed>28</speed><time>2016-10-08T12:20:26Z</time><course>200</course><type>18</type></trkpt>
      <trkpt lat="41.07216" lon="-3.7200384"><ele>2280</ele><speed>24</speed><time>2016-10-08T12:20:29Z</time><course>191</course><type>18</type></trkpt>
      <trkpt lat="41.0720583" lon="-3.7201634"><ele>2281</ele><speed>23</speed><time>2016-10-08T12:20:32Z</time><course>196</course><type>18</type></trkpt>
      <trkpt lat="41.0719683" lon="-3.7202467"><ele>2282</ele><speed>23</speed><time>2016-10-08T12:20:34Z</time><course>198</course><type>18</type></trkpt>
      <trkpt lat="41.071845" lon="-3.7203084"><ele>2283</ele><speed>25</speed><time>2016-10-08T12:20:36Z</time><course>196</course><type>18</type></trkpt>
      <trkpt lat="41.0717033" lon="-3.7204001"><ele>2283</ele><speed>27</speed><time>2016-10-08T12:20:38Z</time><course>197</course><type>18</type></trkpt>
      <trkpt lat="41.07156" lon="-3.720475"><ele>2284</ele><speed>30</speed><time>2016-10-08T12:20:40Z</time><course>201</course><type>18</type></trkpt>
      <trkpt lat="41.0714133" lon="-3.7205567"><ele>2285</ele><speed>34</speed><time>2016-10-08T12:20:42Z</time><course>201</course><type>18</type></trkpt>
      <trkpt lat="41.0712649" lon="-3.7206384"><ele>2285</ele><speed>34</speed><time>2016-10-08T12:20:44Z</time><course>200</course><type>18</type></trkpt>
      <trkpt lat="41.0711133" lon="-3.720735"><ele>2286</ele><speed>38</speed><time>2016-10-08T12:20:46Z</time><course>204</course><type>18</type></trkpt>
      <trkpt lat="41.07096" lon="-3.7208501"><ele>2286</ele><speed>38</speed><time>2016-10-08T12:20:48Z</time><course>208</course><type>18</type></trkpt>
      <trkpt lat="41.070875" lon="-3.7209084"><ele>2286</ele><speed>40</speed><time>2016-10-08T12:20:49Z</time><course>207</course><type>18</type></trkpt>
      <trkpt lat="41.0707783" lon="-3.72096"><ele>2286</ele><speed>42</speed><time>2016-10-08T12:20:50Z</time><course>203</course><type>18</type></trkpt>
      <trkpt lat="41.0706733" lon="-3.7210167"><ele>2287</ele><speed>43</speed><time>2016-10-08T12:20:51Z</time><course>198</course><type>18</type></trkpt>
      <trkpt lat="41.0705683" lon="-3.7210517"><ele>2287</ele><speed>43</speed><time>2016-10-08T12:20:52Z</time><course>194</course><type>18</type></trkpt>
      <trkpt lat="41.0704583" lon="-3.7210817"><ele>2287</ele><speed>44</speed><time>2016-10-08T12:20:53Z</time><course>192</course><type>18</type></trkpt>
      <trkpt lat="41.07033" lon="-3.7211434"><ele>2287</ele><speed>45</speed><time>2016-10-08T12:20:54Z</time><course>190</course><type>18</type></trkpt>
      <trkpt lat="41.0702216" lon="-3.7211684"><ele>2288</ele><speed>44</speed><time>2016-10-08T12:20:55Z</time><course>189</course><type>18</type></trkpt>
      <trkpt lat="41.0701066" lon="-3.7212084"><ele>2288</ele><speed>42</speed><time>2016-10-08T12:20:56Z</time><course>189</course><type>18</type></trkpt>
      <trkpt lat="41.0700033" lon="-3.7212384"><ele>2288</ele><speed>40</speed><time>2016-10-08T12:20:57Z</time><course>189</course><type>18</type></trkpt>
      <trkpt lat="41.0699033" lon="-3.7212734"><ele>2288</ele><speed>39</speed><time>2016-10-08T12:20:58Z</time><course>190</course><type>18</type></trkpt>
      <trkpt lat="41.0697966" lon="-3.72131"><ele>2288</ele><speed>40</speed><time>2016-10-08T12:20:59Z</time><course>191</course><type>18</type></trkpt>
      <trkpt lat="41.069695" lon="-3.72135"><ele>2288</ele><speed>41</speed><time>2016-10-08T12:21:00Z</time><course>192</course><type>18</type></trkpt>
      <trkpt lat="41.0695966" lon="-3.7214067"><ele>2288</ele><speed>41</speed><time>2016-10-08T12:21:01Z</time><course>196</course><type>18</type></trkpt>
      <trkpt lat="41.0695016" lon="-3.721445"><ele>2288</ele><speed>40</speed><time>2016-10-08T12:21:02Z</time><course>195</course><type>18</type></trkpt>
      <trkpt lat="41.0694" lon="-3.72148"><ele>2289</ele><speed>41</speed><time>2016-10-08T12:21:03Z</time><course>194</course><type>18</type></trkpt>
      <trkpt lat="41.0692933" lon="-3.7215167"><ele>2289</ele><speed>41</speed><time>2016-10-08T12:21:04Z</time><course>192</course><type>18</type></trkpt>
      <trkpt lat="41.0691866" lon="-3.7215484"><ele>2289</ele><speed>42</speed><time>2016-10-08T12:21:05Z</time><course>191</course><type>18</type></trkpt>
      <trkpt lat="41.069065" lon="-3.721585"><ele>2289</ele><speed>45</speed><time>2016-10-08T12:21:06Z</time><course>191</course><type>18</type></trkpt>
      <trkpt lat="41.0689333" lon="-3.7216367"><ele>2289</ele><speed>47</speed><time>2016-10-08T12:21:07Z</time><course>191</course><type>18</type></trkpt>
      <trkpt lat="41.0688033" lon="-3.7216884"><ele>2289</ele><speed>48</speed><time>2016-10-08T12:21:08Z</time><course>192</course><type>18</type></trkpt>
      <trkpt lat="41.0686833" lon="-3.721745"><ele>2289</ele><speed>47</speed><time>2016-10-08T12:21:09Z</time><course>194</course><type>18</type></trkpt>
      <trkpt lat="41.0685733" lon="-3.7218067"><ele>2290</ele><speed>45</speed><time>2016-10-08T12:21:10Z</time><course>197</course><type>18</type></trkpt>
      <trkpt lat="41.0684783" lon="-3.721875"><ele>2290</ele><speed>43</speed><time>2016-10-08T12:21:11Z</time><course>201</course><type>18</type></trkpt>
      <trkpt lat="41.0683816" lon="-3.7219384"><ele>2290</ele><speed>41</speed><time>2016-10-08T12:21:12Z</time><course>203</course><type>18</type></trkpt>
      <trkpt lat="41.0683" lon="-3.7220184"><ele>2290</ele><speed>41</speed><time>2016-10-08T12:21:13Z</time><course>208</course><type>18</type></trkpt>
      <trkpt lat="41.06822" lon="-3.722095"><ele>2290</ele><speed>39</speed><time>2016-10-08T12:21:14Z</time><course>209</course><type>18</type></trkpt>
      <trkpt lat="41.0681333" lon="-3.7221567"><ele>2290</ele><speed>38</speed><time>2016-10-08T12:21:15Z</time><course>209</course><type>18</type></trkpt>
      <trkpt lat="41.0680533" lon="-3.7222017"><ele>2290</ele><speed>35</speed><time>2016-10-08T12:21:16Z</time><course>206</course><type>18</type></trkpt>
      <trkpt lat="41.06799" lon="-3.7222484"><ele>2290</ele><speed>33</speed><time>2016-10-08T12:21:17Z</time><course>206</course><type>18</type></trkpt>
      <trkpt lat="41.0678916" lon="-3.72236"><ele>2290</ele><speed>31</speed><time>2016-10-08T12:21:19Z</time><course>215</course><type>18</type></trkpt>
      <trkpt lat="41.0678733" lon="-3.7225067"><ele>2290</ele><speed>29</speed><time>2016-10-08T12:21:21Z</time><course>232</course><type>18</type></trkpt>
      <trkpt lat="41.0679366" lon="-3.7226267"><ele>2290</ele><speed>24</speed><time>2016-10-08T12:21:23Z</time><course>279</course><type>18</type></trkpt>
      <trkpt lat="41.0679766" lon="-3.722745"><ele>2289</ele><speed>18</speed><time>2016-10-08T12:21:25Z</time><course>284</course><type>18</type></trkpt>
      <trkpt lat="41.0680133" lon="-3.7228384"><ele>2289</ele><speed>13</speed><time>2016-10-08T12:21:27Z</time><course>291</course><type>18</type></trkpt>
      <trkpt lat="41.06813" lon="-3.7226484"><ele>2287</ele><speed>34</speed><time>2016-10-08T12:21:30Z</time><course>70</course><type>18</type></trkpt>
      <trkpt lat="41.0681516" lon="-3.7225384"><ele>2287</ele><speed>33</speed><time>2016-10-08T12:21:31Z</time><course>74</course><type>18</type></trkpt>
      <trkpt lat="41.0681616" lon="-3.7224234"><ele>2287</ele><speed>34</speed><time>2016-10-08T12:21:32Z</time><course>79</course><type>18</type></trkpt>
      <trkpt lat="41.068155" lon="-3.7223117"><ele>2287</ele><speed>34</speed><time>2016-10-08T12:21:33Z</time><course>85</course><type>18</type></trkpt>
      <trkpt lat="41.0681416" lon="-3.7222067"><ele>2286</ele><speed>33</speed><time>2016-10-08T12:21:34Z</time><course>89</course><type>18</type></trkpt>
      <trkpt lat="41.068095" lon="-3.722105"><ele>2286</ele><speed>32</speed><time>2016-10-08T12:21:35Z</time><course>95</course><type>18</type></trkpt>
      <trkpt lat="41.06801" lon="-3.7220117"><ele>2286</ele><speed>32</speed><time>2016-10-08T12:21:36Z</time><course>105</course><type>18</type></trkpt>
      <trkpt lat="41.06792" lon="-3.721925"><ele>2286</ele><speed>33</speed><time>2016-10-08T12:21:37Z</time><course>117</course><type>18</type></trkpt>
      <trkpt lat="41.0678366" lon="-3.7218434"><ele>2286</ele><speed>34</speed><time>2016-10-08T12:21:38Z</time><course>126</course><type>18</type></trkpt>
      <trkpt lat="41.0677066" lon="-3.7217284"><ele>2286</ele><speed>41</speed><time>2016-10-08T12:21:39Z</time><course>138</course><type>18</type></trkpt>
      <trkpt lat="41.067625" lon="-3.7217884"><ele>2285</ele><speed>18</speed><time>2016-10-08T12:21:42Z</time><course>149</course><type>18</type></trkpt>
      <trkpt lat="41.0675833" lon="-3.7218967"><ele>2285</ele><speed>10</speed><time>2016-10-08T12:21:44Z</time><course>181</course><type>18</type></trkpt>
      <trkpt lat="41.0676466" lon="-3.7217267"><ele>2275</ele><speed>47</speed><time>2016-10-08T12:21:49Z</time><course>139</course><type>18</type></trkpt>
      <trkpt lat="41.067575" lon="-3.7216234"><ele>2272</ele><speed>46</speed><time>2016-10-08T12:21:50Z</time><course>142</course><type>18</type></trkpt>
      <trkpt lat="41.067475" lon="-3.7215534"><ele>2266</ele><speed>44</speed><time>2016-10-08T12:21:51Z</time><course>145</course><type>18</type></trkpt>
      <trkpt lat="41.0673716" lon="-3.7214817"><ele>2262</ele><speed>42</speed><time>2016-10-08T12:21:52Z</time><course>148</course><type>18</type></trkpt>
      <trkpt lat="41.0672799" lon="-3.72162"><ele>2257</ele><speed>37</speed><time>2016-10-08T12:21:53Z</time><course>159</course><type>18</type></trkpt>
      <trkpt lat="41.0671633" lon="-3.7217384"><ele>2253</ele><speed>35</speed><time>2016-10-08T12:21:54Z</time><course>174</course><type>18</type></trkpt>
      <trkpt lat="41.067075" lon="-3.7218117"><ele>2252</ele><speed>34</speed><time>2016-10-08T12:21:55Z</time><course>184</course><type>18</type></trkpt>
      <trkpt lat="41.0670266" lon="-3.7218984"><ele>2250</ele><speed>30</speed><time>2016-10-08T12:21:56Z</time><course>195</course><type>18</type></trkpt>
      <trkpt lat="41.0670166" lon="-3.7220284"><ele>2247</ele><speed>18</speed><time>2016-10-08T12:21:58Z</time><course>208</course><type>18</type></trkpt>
      <trkpt lat="41.0672166" lon="-3.7220317"><ele>2241</ele><speed>6</speed><time>2016-10-08T12:22:01Z</time><course>25</course><type>18</type></trkpt>
      <trkpt lat="41.0673516" lon="-3.721985"><ele>2240</ele><speed>21</speed><time>2016-10-08T12:22:02Z</time><course>31</course><type>18</type></trkpt>
      <trkpt lat="41.0674233" lon="-3.7219534"><ele>2239</ele><speed>23</speed><time>2016-10-08T12:22:03Z</time><course>32</course><type>18</type></trkpt>
      <trkpt lat="41.0675483" lon="-3.7218917"><ele>2237</ele><speed>22</speed><time>2016-10-08T12:22:05Z</time><course>30</course><type>18</type></trkpt>
      <trkpt lat="41.06763" lon="-3.7218767"><ele>2236</ele><speed>22</speed><time>2016-10-08T12:22:06Z</time><course>22</course><type>18</type></trkpt>
      <trkpt lat="41.067695" lon="-3.7218617"><ele>2235</ele><speed>23</speed><time>2016-10-08T12:22:07Z</time><course>16</course><type>18</type></trkpt>
      <trkpt lat="41.0677666" lon="-3.7218534"><ele>2234</ele><speed>24</speed><time>2016-10-08T12:22:08Z</time><course>11</course><type>18</type></trkpt>
      <trkpt lat="41.06783" lon="-3.7218317"><ele>2234</ele><speed>24</speed><time>2016-10-08T12:22:09Z</time><course>16</course><type>18</type></trkpt>
      <trkpt lat="41.067895" lon="-3.7217984"><ele>2233</ele><speed>25</speed><time>2016-10-08T12:22:10Z</time><course>18</course><type>18</type></trkpt>
      <trkpt lat="41.0679549" lon="-3.7217667"><ele>2233</ele><speed>24</speed><time>2016-10-08T12:22:11Z</time><course>19</course><type>18</type></trkpt>
      <trkpt lat="41.0680166" lon="-3.7217317"><ele>2232</ele><speed>25</speed><time>2016-10-08T12:22:12Z</time><course>22</course><type>18</type></trkpt>
      <trkpt lat="41.0680783" lon="-3.7216834"><ele>2232</ele><speed>28</speed><time>2016-10-08T12:22:13Z</time><course>32</course><type>18</type></trkpt>
      <trkpt lat="41.068145" lon="-3.721625"><ele>2232</ele><speed>30</speed><time>2016-10-08T12:22:14Z</time><course>37</course><type>18</type></trkpt>
      <trkpt lat="41.0681916" lon="-3.7215334"><ele>2231</ele><speed>35</speed><time>2016-10-08T12:22:15Z</time><course>48</course><type>18</type></trkpt>
      <trkpt lat="41.068235" lon="-3.721375"><ele>2230</ele><speed>42</speed><time>2016-10-08T12:22:16Z</time><course>63</course><type>18</type></trkpt>
      <trkpt lat="41.0682616" lon="-3.72124"><ele>2229</ele><speed>40</speed><time>2016-10-08T12:22:17Z</time><course>66</course><type>18</type></trkpt>
      <trkpt lat="41.0682483" lon="-3.7211034"><ele>2227</ele><speed>35</speed><time>2016-10-08T12:22:18Z</time><course>73</course><type>18</type></trkpt>
      <trkpt lat="41.0682116" lon="-3.720975"><ele>2226</ele><speed>31</speed><time>2016-10-08T12:22:19Z</time><course>84</course><type>18</type></trkpt>
      <trkpt lat="41.0681016" lon="-3.7208267"><ele>2224</ele><speed>33</speed><time>2016-10-08T12:22:20Z</time><course>103</course><type>18</type></trkpt>
      <trkpt lat="41.0679266" lon="-3.720655"><ele>2221</ele><speed>40</speed><time>2016-10-08T12:22:21Z</time><course>118</course><type>18</type></trkpt>
      <trkpt lat="41.0677483" lon="-3.7204834"><ele>2220</ele><speed>53</speed><time>2016-10-08T12:22:22Z</time><course>131</course><type>18</type></trkpt>
      <trkpt lat="41.0676033" lon="-3.7203667"><ele>2219</ele><speed>54</speed><time>2016-10-08T12:22:23Z</time><course>136</course><type>18</type></trkpt>
      <trkpt lat="41.0674333" lon="-3.7202884"><ele>2217</ele><speed>59</speed><time>2016-10-08T12:22:24Z</time><course>144</course><type>18</type></trkpt>
      <trkpt lat="41.06726" lon="-3.7202567"><ele>2216</ele><speed>60</speed><time>2016-10-08T12:22:25Z</time><course>152</course><type>18</type></trkpt>
      <trkpt lat="41.0670816" lon="-3.7202767"><ele>2215</ele><speed>59</speed><time>2016-10-08T12:22:26Z</time><course>161</course><type>18</type></trkpt>
      <trkpt lat="41.06694" lon="-3.7202867"><ele>2214</ele><speed>53</speed><time>2016-10-08T12:22:27Z</time><course>163</course><type>18</type></trkpt>
      <trkpt lat="41.0668383" lon="-3.720335"><ele>2213</ele><speed>45</speed><time>2016-10-08T12:22:28Z</time><course>168</course><type>18</type></trkpt>
      <trkpt lat="41.0667366" lon="-3.720365"><ele>2213</ele><speed>42</speed><time>2016-10-08T12:22:29Z</time><course>174</course><type>18</type></trkpt>
      <trkpt lat="41.0666183" lon="-3.720425"><ele>2212</ele><speed>43</speed><time>2016-10-08T12:22:30Z</time><course>181</course><type>18</type></trkpt>
      <trkpt lat="41.06651" lon="-3.7204884"><ele>2211</ele><speed>44</speed><time>2016-10-08T12:22:31Z</time><course>189</course><type>18</type></trkpt>
      <trkpt lat="41.066405" lon="-3.720525"><ele>2211</ele><speed>42</speed><time>2016-10-08T12:22:32Z</time><course>191</course><type>18</type></trkpt>
      <trkpt lat="41.0663133" lon="-3.7205867"><ele>2211</ele><speed>40</speed><time>2016-10-08T12:22:33Z</time><course>191</course><type>18</type></trkpt>
      <trkpt lat="41.0662283" lon="-3.7206701"><ele>2210</ele><speed>40</speed><time>2016-10-08T12:22:34Z</time><course>192</course><type>18</type></trkpt>
      <trkpt lat="41.0661483" lon="-3.720705"><ele>2210</ele><speed>32</speed><time>2016-10-08T12:22:35Z</time><course>194</course><type>18</type></trkpt>
      <trkpt lat="41.0660583" lon="-3.7207667"><ele>2208</ele><speed>33</speed><time>2016-10-08T12:22:36Z</time><course>199</course><type>18</type></trkpt>
      <trkpt lat="41.0659716" lon="-3.72081"><ele>2208</ele><speed>34</speed><time>2016-10-08T12:22:37Z</time><course>196</course><type>18</type></trkpt>
      <trkpt lat="41.06588" lon="-3.7208417"><ele>2207</ele><speed>35</speed><time>2016-10-08T12:22:38Z</time><course>194</course><type>18</type></trkpt>
      <trkpt lat="41.0657883" lon="-3.7208717"><ele>2206</ele><speed>36</speed><time>2016-10-08T12:22:39Z</time><course>193</course><type>18</type></trkpt>
      <trkpt lat="41.0656933" lon="-3.7209334"><ele>2206</ele><speed>37</speed><time>2016-10-08T12:22:40Z</time><course>198</course><type>18</type></trkpt>
      <trkpt lat="41.0656083" lon="-3.7210267"><ele>2205</ele><speed>37</speed><time>2016-10-08T12:22:41Z</time><course>207</course><type>18</type></trkpt>
      <trkpt lat="41.0655383" lon="-3.7211584"><ele>2204</ele><speed>38</speed><time>2016-10-08T12:22:42Z</time><course>215</course><type>18</type></trkpt>
      <trkpt lat="41.0654716" lon="-3.7212534"><ele>2203</ele><speed>36</speed><time>2016-10-08T12:22:43Z</time><course>219</course><type>18</type></trkpt>
      <trkpt lat="41.06542" lon="-3.7213434"><ele>2202</ele><speed>32</speed><time>2016-10-08T12:22:44Z</time><course>220</course><type>18</type></trkpt>
      <trkpt lat="41.0654" lon="-3.72142"><ele>2202</ele><speed>26</speed><time>2016-10-08T12:22:45Z</time><course>229</course><type>18</type></trkpt>
      <trkpt lat="41.065415" lon="-3.7215667"><ele>2200</ele><speed>18</speed><time>2016-10-08T12:22:47Z</time><course>264</course><type>18</type></trkpt>
      <trkpt lat="41.065455" lon="-3.7216917"><ele>2199</ele><speed>16</speed><time>2016-10-08T12:22:49Z</time><course>289</course><type>18</type></trkpt>
      <trkpt lat="41.06554" lon="-3.7217134"><ele>2198</ele><speed>11</speed><time>2016-10-08T12:22:51Z</time><course>349</course><type>18</type></trkpt>
      <trkpt lat="41.065595" lon="-3.7216917"><ele>2197</ele><speed>14</speed><time>2016-10-08T12:22:52Z</time><course>13</course><type>18</type></trkpt>
      <trkpt lat="41.0656533" lon="-3.7216484"><ele>2197</ele><speed>18</speed><time>2016-10-08T12:22:53Z</time><course>26</course><type>18</type></trkpt>
      <trkpt lat="41.065715" lon="-3.7215967"><ele>2196</ele><speed>22</speed><time>2016-10-08T12:22:54Z</time><course>32</course><type>18</type></trkpt>
      <trkpt lat="41.0658083" lon="-3.7214917"><ele>2195</ele><speed>26</speed><time>2016-10-08T12:22:55Z</time><course>36</course><type>18</type></trkpt>
      <trkpt lat="41.0658683" lon="-3.72143"><ele>2194</ele><speed>28</speed><time>2016-10-08T12:22:56Z</time><course>40</course><type>18</type></trkpt>
      <trkpt lat="41.0659283" lon="-3.7213617"><ele>2194</ele><speed>29</speed><time>2016-10-08T12:22:57Z</time><course>42</course><type>18</type></trkpt>
      <trkpt lat="41.065985" lon="-3.721295"><ele>2193</ele><speed>27</speed><time>2016-10-08T12:22:58Z</time><course>42</course><type>18</type></trkpt>
      <trkpt lat="41.0660383" lon="-3.72123"><ele>2193</ele><speed>27</speed><time>2016-10-08T12:22:59Z</time><course>43</course><type>18</type></trkpt>
      <trkpt lat="41.0660916" lon="-3.7211717"><ele>2193</ele><speed>26</speed><time>2016-10-08T12:23:00Z</time><course>42</course><type>18</type></trkpt>
      <trkpt lat="41.0661516" lon="-3.7211201"><ele>2192</ele><speed>25</speed><time>2016-10-08T12:23:01Z</time><course>38</course><type>18</type></trkpt>
      <trkpt lat="41.0662083" lon="-3.7210717"><ele>2192</ele><speed>25</speed><time>2016-10-08T12:23:02Z</time><course>36</course><type>18</type></trkpt>
      <trkpt lat="41.0662716" lon="-3.7210267"><ele>2192</ele><speed>25</speed><time>2016-10-08T12:23:03Z</time><course>30</course><type>18</type></trkpt>
      <trkpt lat="41.06634" lon="-3.7209917"><ele>2192</ele><speed>25</speed><time>2016-10-08T12:23:04Z</time><course>23</course><type>18</type></trkpt>
      <trkpt lat="41.0664016" lon="-3.7209734"><ele>2191</ele><speed>23</speed><time>2016-10-08T12:23:05Z</time><course>17</course><type>18</type></trkpt>
      <trkpt lat="41.06646" lon="-3.7209667"><ele>2191</ele><speed>22</speed><time>2016-10-08T12:23:06Z</time><course>9</course><type>18</type></trkpt>
      <trkpt lat="41.0665166" lon="-3.7209667"><ele>2190</ele><speed>20</speed><time>2016-10-08T12:23:07Z</time><course>3</course><type>18</type></trkpt>
      <trkpt lat="41.06661" lon="-3.72098"><ele>2189</ele><speed>17</speed><time>2016-10-08T12:23:09Z</time><course>356</course><type>18</type></trkpt>
      <trkpt lat="41.0666983" lon="-3.721"><ele>2188</ele><speed>16</speed><time>2016-10-08T12:23:11Z</time><course>353</course><type>18</type></trkpt>
      <trkpt lat="41.0667916" lon="-3.721035"><ele>2187</ele><speed>19</speed><time>2016-10-08T12:23:13Z</time><course>338</course><type>18</type></trkpt>
      <trkpt lat="41.0668783" lon="-3.7210917"><ele>2186</ele><speed>17</speed><time>2016-10-08T12:23:15Z</time><course>333</course><type>18</type></trkpt>
      <trkpt lat="41.06694" lon="-3.72119"><ele>2185</ele><speed>17</speed><time>2016-10-08T12:23:17Z</time><course>308</course><type>18</type></trkpt>
      <trkpt lat="41.0669766" lon="-3.7213167"><ele>2184</ele><speed>18</speed><time>2016-10-08T12:23:19Z</time><course>291</course><type>18</type></trkpt>
      <trkpt lat="41.06695" lon="-3.7214384"><ele>2183</ele><speed>26</speed><time>2016-10-08T12:23:20Z</time><course>267</course><type>18</type></trkpt>
      <trkpt lat="41.0669233" lon="-3.7215184"><ele>2182</ele><speed>24</speed><time>2016-10-08T12:23:21Z</time><course>255</course><type>18</type></trkpt>
      <trkpt lat="41.06689" lon="-3.7216084"><ele>2181</ele><speed>24</speed><time>2016-10-08T12:23:22Z</time><course>248</course><type>18</type></trkpt>
      <trkpt lat="41.0668483" lon="-3.721685"><ele>2181</ele><speed>24</speed><time>2016-10-08T12:23:23Z</time><course>240</course><type>18</type></trkpt>
      <trkpt lat="41.0667966" lon="-3.7217467"><ele>2180</ele><speed>23</speed><time>2016-10-08T12:23:24Z</time><course>230</course><type>18</type></trkpt>
      <trkpt lat="41.0666416" lon="-3.7217867"><ele>2178</ele><speed>28</speed><time>2016-10-08T12:23:25Z</time><course>211</course><type>18</type></trkpt>
      <trkpt lat="41.066495" lon="-3.7218134"><ele>2177</ele><speed>34</speed><time>2016-10-08T12:23:26Z</time><course>198</course><type>18</type></trkpt>
      <trkpt lat="41.06634" lon="-3.7218467"><ele>2175</ele><speed>40</speed><time>2016-10-08T12:23:27Z</time><course>192</course><type>18</type></trkpt>
      <trkpt lat="41.0662333" lon="-3.721845"><ele>2174</ele><speed>40</speed><time>2016-10-08T12:23:28Z</time><course>188</course><type>18</type></trkpt>
      <trkpt lat="41.066135" lon="-3.72181"><ele>2173</ele><speed>39</speed><time>2016-10-08T12:23:29Z</time><course>179</course><type>18</type></trkpt>
      <trkpt lat="41.0660416" lon="-3.7217567"><ele>2172</ele><speed>37</speed><time>2016-10-08T12:23:30Z</time><course>170</course><type>18</type></trkpt>
      <trkpt lat="41.065955" lon="-3.7216767"><ele>2171</ele><speed>36</speed><time>2016-10-08T12:23:31Z</time><course>161</course><type>18</type></trkpt>
      <trkpt lat="41.06588" lon="-3.721575"><ele>2170</ele><speed>35</speed><time>2016-10-08T12:23:32Z</time><course>153</course><type>18</type></trkpt>
      <trkpt lat="41.0658283" lon="-3.72142"><ele>2169</ele><speed>36</speed><time>2016-10-08T12:23:33Z</time><course>143</course><type>18</type></trkpt>
      <trkpt lat="41.06578" lon="-3.7212134"><ele>2168</ele><speed>38</speed><time>2016-10-08T12:23:34Z</time><course>131</course><type>18</type></trkpt>
      <trkpt lat="41.0657499" lon="-3.720995"><ele>2167</ele><speed>42</speed><time>2016-10-08T12:23:35Z</time><course>121</course><type>18</type></trkpt>
      <trkpt lat="41.06579" lon="-3.7207584"><ele>2166</ele><speed>44</speed><time>2016-10-08T12:23:36Z</time><course>103</course><type>18</type></trkpt>
      <trkpt lat="41.0658033" lon="-3.7206251"><ele>2165</ele><speed>39</speed><time>2016-10-08T12:23:37Z</time><course>99</course><type>18</type></trkpt>
      <trkpt lat="41.06582" lon="-3.7205267"><ele>2163</ele><speed>35</speed><time>2016-10-08T12:23:38Z</time><course>97</course><type>18</type></trkpt>
      <trkpt lat="41.065835" lon="-3.7204334"><ele>2163</ele><speed>31</speed><time>2016-10-08T12:23:39Z</time><course>94</course><type>18</type></trkpt>
      <trkpt lat="41.0659166" lon="-3.720315"><ele>2161</ele><speed>27</speed><time>2016-10-08T12:23:41Z</time><course>75</course><type>18</type></trkpt>
      <trkpt lat="41.0659483" lon="-3.7202334"><ele>2161</ele><speed>28</speed><time>2016-10-08T12:23:42Z</time><course>71</course><type>18</type></trkpt>
      <trkpt lat="41.0659783" lon="-3.7201484"><ele>2160</ele><speed>27</speed><time>2016-10-08T12:23:43Z</time><course>71</course><type>18</type></trkpt>
      <trkpt lat="41.0660116" lon="-3.7200684"><ele>2159</ele><speed>26</speed><time>2016-10-08T12:23:44Z</time><course>70</course><type>18</type></trkpt>
      <trkpt lat="41.0660533" lon="-3.7199817"><ele>2159</ele><speed>26</speed><time>2016-10-08T12:23:45Z</time><course>67</course><type>18</type></trkpt>
      <trkpt lat="41.06613" lon="-3.7198517"><ele>2157</ele><speed>20</speed><time>2016-10-08T12:23:47Z</time><course>60</course><type>18</type></trkpt>
      <trkpt lat="41.0662033" lon="-3.71975"><ele>2156</ele><speed>18</speed><time>2016-10-08T12:23:49Z</time><course>52</course><type>18</type></trkpt>
      <trkpt lat="41.066325" lon="-3.7196584"><ele>2155</ele><speed>24</speed><time>2016-10-08T12:23:51Z</time><course>41</course><type>18</type></trkpt>
      <trkpt lat="41.0663983" lon="-3.7196167"><ele>2155</ele><speed>27</speed><time>2016-10-08T12:23:52Z</time><course>34</course><type>18</type></trkpt>
      <trkpt lat="41.0664683" lon="-3.71958"><ele>2154</ele><speed>26</speed><time>2016-10-08T12:23:53Z</time><course>29</course><type>18</type></trkpt>
      <trkpt lat="41.0665433" lon="-3.7195567"><ele>2154</ele><speed>26</speed><time>2016-10-08T12:23:54Z</time><course>22</course><type>18</type></trkpt>
      <trkpt lat="41.066665" lon="-3.7195284"><ele>2153</ele><speed>21</speed><time>2016-10-08T12:23:56Z</time><course>14</course><type>18</type></trkpt>
      <trkpt lat="41.066765" lon="-3.7195184"><ele>2152</ele><speed>19</speed><time>2016-10-08T12:23:58Z</time><course>8</course><type>18</type></trkpt>
      <trkpt lat="41.06691" lon="-3.7195634"><ele>2151</ele><speed>22</speed><time>2016-10-08T12:24:00Z</time><course>353</course><type>18</type></trkpt>
      <trkpt lat="41.0670033" lon="-3.7196217"><ele>2150</ele><speed>25</speed><time>2016-10-08T12:24:01Z</time><course>346</course><type>18</type></trkpt>
      <trkpt lat="41.0670733" lon="-3.7196584"><ele>2150</ele><speed>24</speed><time>2016-10-08T12:24:02Z</time><course>346</course><type>18</type></trkpt>
      <trkpt lat="41.06714" lon="-3.719715"><ele>2149</ele><speed>17</speed><time>2016-10-08T12:24:04Z</time><course>341</course><type>18</type></trkpt>
      <trkpt lat="41.0672083" lon="-3.7197567"><ele>2147</ele><speed>15</speed><time>2016-10-08T12:24:07Z</time><course>341</course><type>18</type></trkpt>
      <trkpt lat="41.067255" lon="-3.7199"><ele>2144</ele><speed>20</speed><time>2016-10-08T12:24:10Z</time><course>311</course><type>18</type></trkpt>
      <trkpt lat="41.0672916" lon="-3.7200217"><ele>2143</ele><speed>19</speed><time>2016-10-08T12:24:12Z</time><course>301</course><type>18</type></trkpt>
      <trkpt lat="41.0673066" lon="-3.7201884"><ele>2142</ele><speed>23</speed><time>2016-10-08T12:24:14Z</time><course>290</course><type>18</type></trkpt>
      <trkpt lat="41.0672966" lon="-3.7203101"><ele>2141</ele><speed>25</speed><time>2016-10-08T12:24:15Z</time><course>283</course><type>18</type></trkpt>
      <trkpt lat="41.067255" lon="-3.72046"><ele>2141</ele><speed>29</speed><time>2016-10-08T12:24:16Z</time><course>273</course><type>18</type></trkpt>
      <trkpt lat="41.0671783" lon="-3.7206217"><ele>2140</ele><speed>31</speed><time>2016-10-08T12:24:17Z</time><course>259</course><type>18</type></trkpt>
      <trkpt lat="41.0671083" lon="-3.7207717"><ele>2139</ele><speed>26</speed><time>2016-10-08T12:24:19Z</time><course>250</course><type>18</type></trkpt>
      <trkpt lat="41.0670433" lon="-3.7209284"><ele>2138</ele><speed>28</speed><time>2016-10-08T12:24:21Z</time><course>249</course><type>18</type></trkpt>
      <trkpt lat="41.0670033" lon="-3.7210367"><ele>2138</ele><speed>32</speed><time>2016-10-08T12:24:22Z</time><course>250</course><type>18</type></trkpt>
      <trkpt lat="41.0669666" lon="-3.7211384"><ele>2137</ele><speed>31</speed><time>2016-10-08T12:24:23Z</time><course>247</course><type>18</type></trkpt>
      <trkpt lat="41.0669316" lon="-3.7212284"><ele>2137</ele><speed>28</speed><time>2016-10-08T12:24:24Z</time><course>249</course><type>18</type></trkpt>
      <trkpt lat="41.066905" lon="-3.7213117"><ele>2136</ele><speed>26</speed><time>2016-10-08T12:24:25Z</time><course>255</course><type>18</type></trkpt>
      <trkpt lat="41.0668833" lon="-3.7214067"><ele>2135</ele><speed>29</speed><time>2016-10-08T12:24:26Z</time><course>259</course><type>18</type></trkpt>
      <trkpt lat="41.0668616" lon="-3.7215017"><ele>2135</ele><speed>30</speed><time>2016-10-08T12:24:27Z</time><course>257</course><type>18</type></trkpt>
      <trkpt lat="41.0668333" lon="-3.7216067"><ele>2134</ele><speed>33</speed><time>2016-10-08T12:24:28Z</time><course>254</course><type>18</type></trkpt>
      <trkpt lat="41.0668033" lon="-3.7217117"><ele>2133</ele><speed>32</speed><time>2016-10-08T12:24:29Z</time><course>252</course><type>18</type></trkpt>
      <trkpt lat="41.0667849" lon="-3.721805"><ele>2133</ele><speed>29</speed><time>2016-10-08T12:24:30Z</time><course>255</course><type>18</type></trkpt>
      <trkpt lat="41.0667716" lon="-3.721895"><ele>2132</ele><speed>27</speed><time>2016-10-08T12:24:31Z</time><course>259</course><type>18</type></trkpt>
      <trkpt lat="41.0667583" lon="-3.721985"><ele>2132</ele><speed>27</speed><time>2016-10-08T12:24:32Z</time><course>260</course><type>18</type></trkpt>
      <trkpt lat="41.0667466" lon="-3.7220767"><ele>2131</ele><speed>27</speed><time>2016-10-08T12:24:33Z</time><course>259</course><type>18</type></trkpt>
      <trkpt lat="41.066735" lon="-3.7221584"><ele>2131</ele><speed>26</speed><time>2016-10-08T12:24:34Z</time><course>257</course><type>18</type></trkpt>
      <trkpt lat="41.066735" lon="-3.7222834"><ele>2129</ele><speed>19</speed><time>2016-10-08T12:24:36Z</time><course>265</course><type>18</type></trkpt>
      <trkpt lat="41.06676" lon="-3.7224134"><ele>2128</ele><speed>21</speed><time>2016-10-08T12:24:38Z</time><course>281</course><type>18</type></trkpt>
      <trkpt lat="41.0668033" lon="-3.7225501"><ele>2126</ele><speed>22</speed><time>2016-10-08T12:24:40Z</time><course>289</course><type>18</type></trkpt>
      <trkpt lat="41.066825" lon="-3.7226851"><ele>2124</ele><speed>19</speed><time>2016-10-08T12:24:42Z</time><course>277</course><type>18</type></trkpt>
      <trkpt lat="41.0668333" lon="-3.7227667"><ele>2123</ele><speed>22</speed><time>2016-10-08T12:24:43Z</time><course>279</course><type>18</type></trkpt>
      <trkpt lat="41.0668516" lon="-3.7228467"><ele>2122</ele><speed>25</speed><time>2016-10-08T12:24:44Z</time><course>285</course><type>18</type></trkpt>
      <trkpt lat="41.0668733" lon="-3.722925"><ele>2120</ele><speed>26</speed><time>2016-10-08T12:24:45Z</time><course>290</course><type>18</type></trkpt>
      <trkpt lat="41.0669116" lon="-3.7229917"><ele>2119</ele><speed>26</speed><time>2016-10-08T12:24:46Z</time><course>300</course><type>18</type></trkpt>
      <trkpt lat="41.066955" lon="-3.72305"><ele>2118</ele><speed>24</speed><time>2016-10-08T12:24:47Z</time><course>307</course><type>18</type></trkpt>
      <trkpt lat="41.0669966" lon="-3.723105"><ele>2117</ele><speed>22</speed><time>2016-10-08T12:24:48Z</time><course>313</course><type>18</type></trkpt>
      <trkpt lat="41.0670416" lon="-3.72315"><ele>2116</ele><speed>19</speed><time>2016-10-08T12:24:49Z</time><course>321</course><type>18</type></trkpt>
      <trkpt lat="41.0670916" lon="-3.7231934"><ele>2114</ele><speed>19</speed><time>2016-10-08T12:24:50Z</time><course>336</course><type>18</type></trkpt>
      <trkpt lat="41.06715" lon="-3.723195"><ele>2112</ele><speed>20</speed><time>2016-10-08T12:24:51Z</time><course>350</course><type>18</type></trkpt>
      <trkpt lat="41.0672283" lon="-3.723155"><ele>2110</ele><speed>23</speed><time>2016-10-08T12:24:52Z</time><course>0</course><type>18</type></trkpt>
      <trkpt lat="41.0673016" lon="-3.7231184"><ele>2109</ele><speed>24</speed><time>2016-10-08T12:24:53Z</time><course>9</course><type>18</type></trkpt>
      <trkpt lat="41.0674016" lon="-3.7230284"><ele>2106</ele><speed>27</speed><time>2016-10-08T12:24:54Z</time><course>14</course><type>18</type></trkpt>
      <trkpt lat="41.06747" lon="-3.7229917"><ele>2105</ele><speed>27</speed><time>2016-10-08T12:24:55Z</time><course>17</course><type>18</type></trkpt>
      <trkpt lat="41.0675316" lon="-3.7229567"><ele>2103</ele><speed>27</speed><time>2016-10-08T12:24:56Z</time><course>18</course><type>18</type></trkpt>
      <trkpt lat="41.0675983" lon="-3.7229134"><ele>2102</ele><speed>27</speed><time>2016-10-08T12:24:57Z</time><course>17</course><type>18</type></trkpt>
      <trkpt lat="41.067655" lon="-3.7228884"><ele>2101</ele><speed>25</speed><time>2016-10-08T12:24:58Z</time><course>14</course><type>18</type></trkpt>
      <trkpt lat="41.0677533" lon="-3.72285"><ele>2098</ele><speed>21</speed><time>2016-10-08T12:25:00Z</time><course>8</course><type>18</type></trkpt>
      <trkpt lat="41.0678483" lon="-3.7228384"><ele>2096</ele><speed>19</speed><time>2016-10-08T12:25:02Z</time><course>357</course><type>18</type></trkpt>
      <trkpt lat="41.0679033" lon="-3.7228517"><ele>2095</ele><speed>21</speed><time>2016-10-08T12:25:03Z</time><course>350</course><type>18</type></trkpt>
      <trkpt lat="41.0679616" lon="-3.7228684"><ele>2094</ele><speed>21</speed><time>2016-10-08T12:25:04Z</time><course>348</course><type>18</type></trkpt>
      <trkpt lat="41.0680566" lon="-3.7228884"><ele>2092</ele><speed>17</speed><time>2016-10-08T12:25:06Z</time><course>345</course><type>18</type></trkpt>
      <trkpt lat="41.06815" lon="-3.7229101"><ele>2090</ele><speed>20</speed><time>2016-10-08T12:25:08Z</time><course>349</course><type>18</type></trkpt>
      <trkpt lat="41.0682083" lon="-3.722915"><ele>2089</ele><speed>22</speed><time>2016-10-08T12:25:09Z</time><course>351</course><type>18</type></trkpt>
      <trkpt lat="41.0682699" lon="-3.722925"><ele>2088</ele><speed>25</speed><time>2016-10-08T12:25:10Z</time><course>350</course><type>18</type></trkpt>
      <trkpt lat="41.068335" lon="-3.7229167"><ele>2087</ele><speed>25</speed><time>2016-10-08T12:25:11Z</time><course>355</course><type>18</type></trkpt>
      <trkpt lat="41.0683983" lon="-3.7229101"><ele>2086</ele><speed>24</speed><time>2016-10-08T12:25:12Z</time><course>358</course><type>18</type></trkpt>
      <trkpt lat="41.0684533" lon="-3.7229017"><ele>2085</ele><speed>21</speed><time>2016-10-08T12:25:13Z</time><course>4</course><type>18</type></trkpt>
      <trkpt lat="41.0685133" lon="-3.7229067"><ele>2085</ele><speed>22</speed><time>2016-10-08T12:25:14Z</time><course>357</course><type>18</type></trkpt>
      <trkpt lat="41.06857" lon="-3.722925"><ele>2084</ele><speed>23</speed><time>2016-10-08T12:25:15Z</time><course>347</course><type>18</type></trkpt>
      <trkpt lat="41.068635" lon="-3.72297"><ele>2083</ele><speed>28</speed><time>2016-10-08T12:25:16Z</time><course>335</course><type>18</type></trkpt>
      <trkpt lat="41.068695" lon="-3.72301"><ele>2083</ele><speed>27</speed><time>2016-10-08T12:25:17Z</time><course>332</course><type>18</type></trkpt>
      <trkpt lat="41.0687516" lon="-3.7230484"><ele>2082</ele><speed>26</speed><time>2016-10-08T12:25:18Z</time><course>331</course><type>18</type></trkpt>
      <trkpt lat="41.068805" lon="-3.72308"><ele>2082</ele><speed>22</speed><time>2016-10-08T12:25:19Z</time><course>334</course><type>18</type></trkpt>
      <trkpt lat="41.0689133" lon="-3.7231351"><ele>2081</ele><speed>23</speed><time>2016-10-08T12:25:21Z</time><course>338</course><type>18</type></trkpt>
      <trkpt lat="41.068975" lon="-3.7231584"><ele>2081</ele><speed>26</speed><time>2016-10-08T12:25:22Z</time><course>342</course><type>18</type></trkpt>
      <trkpt lat="41.06904" lon="-3.723165"><ele>2080</ele><speed>26</speed><time>2016-10-08T12:25:23Z</time><course>351</course><type>18</type></trkpt>
      <trkpt lat="41.06911" lon="-3.723165"><ele>2080</ele><speed>27</speed><time>2016-10-08T12:25:24Z</time><course>356</course><type>18</type></trkpt>
      <trkpt lat="41.0691733" lon="-3.7231584"><ele>2080</ele><speed>26</speed><time>2016-10-08T12:25:25Z</time><course>358</course><type>18</type></trkpt>
      <trkpt lat="41.0692283" lon="-3.7231584"><ele>2080</ele><speed>24</speed><time>2016-10-08T12:25:26Z</time><course>357</course><type>18</type></trkpt>
      <trkpt lat="41.06933" lon="-3.7231667"><ele>2080</ele><speed>21</speed><time>2016-10-08T12:25:28Z</time><course>355</course><type>18</type></trkpt>
      <trkpt lat="41.0694016" lon="-3.723145"><ele>2080</ele><speed>22</speed><time>2016-10-08T12:25:30Z</time><course>18</course><type>18</type></trkpt>
      <trkpt lat="41.0694683" lon="-3.7230217"><ele>2081</ele><speed>25</speed><time>2016-10-08T12:25:32Z</time><course>48</course><type>18</type></trkpt>
      <trkpt lat="41.0694666" lon="-3.72295"><ele>2081</ele><speed>17</speed><time>2016-10-08T12:25:33Z</time><course>70</course><type>18</type></trkpt>
      <trkpt lat="41.0694233" lon="-3.7228667"><ele>2082</ele><speed>16</speed><time>2016-10-08T12:25:34Z</time><course>118</course><type>18</type></trkpt>
      <trkpt lat="41.0693683" lon="-3.722745"><ele>2083</ele><speed>19</speed><time>2016-10-08T12:25:36Z</time><course>129</course><type>18</type></trkpt>
      <trkpt lat="41.0692816" lon="-3.722635"><ele>2084</ele><speed>28</speed><time>2016-10-08T12:25:37Z</time><course>137</course><type>18</type></trkpt>
      <trkpt lat="41.06921" lon="-3.722565"><ele>2084</ele><speed>29</speed><time>2016-10-08T12:25:38Z</time><course>145</course><type>18</type></trkpt>
      <trkpt lat="41.0691566" lon="-3.7225017"><ele>2085</ele><speed>27</speed><time>2016-10-08T12:25:39Z</time><course>145</course><type>18</type></trkpt>
      <trkpt lat="41.0690966" lon="-3.7224867"><ele>2086</ele><speed>26</speed><time>2016-10-08T12:25:40Z</time><course>151</course><type>18</type></trkpt>
      <trkpt lat="41.0690166" lon="-3.7224834"><ele>2087</ele><speed>25</speed><time>2016-10-08T12:25:41Z</time><course>163</course><type>18</type></trkpt>
      <trkpt lat="41.06896" lon="-3.7224684"><ele>2088</ele><speed>14</speed><time>2016-10-08T12:25:43Z</time><course>165</course><type>18</type></trkpt>
      <trkpt lat="41.0689366" lon="-3.7225517"><ele>2089</ele><speed>7</speed><time>2016-10-08T12:25:45Z</time><course>176</course><type>18</type></trkpt>
      <trkpt lat="41.0688733" lon="-3.722695"><ele>2091</ele><speed>6</speed><time>2016-10-08T12:25:46Z</time><course>192</course><type>18</type></trkpt>
      <trkpt lat="41.0688166" lon="-3.7225951"><ele>2094</ele><speed>29</speed><time>2016-10-08T12:25:49Z</time><course>111</course><type>18</type></trkpt>
      <trkpt lat="41.0688233" lon="-3.7225034"><ele>2095</ele><speed>31</speed><time>2016-10-08T12:25:50Z</time><course>108</course><type>18</type></trkpt>
      <trkpt lat="41.0688083" lon="-3.7224117"><ele>2096</ele><speed>31</speed><time>2016-10-08T12:25:51Z</time><course>113</course><type>18</type></trkpt>
      <trkpt lat="41.0688933" lon="-3.7223367"><ele>2099</ele><speed>23</speed><time>2016-10-08T12:25:53Z</time><course>115</course><type>18</type></trkpt>
      <trkpt lat="41.0688183" lon="-3.7222517"><ele>2100</ele><speed>30</speed><time>2016-10-08T12:25:54Z</time><course>136</course><type>18</type></trkpt>
      <trkpt lat="41.06877" lon="-3.72218"><ele>2101</ele><speed>31</speed><time>2016-10-08T12:25:55Z</time><course>138</course><type>18</type></trkpt>
      <trkpt lat="41.0686583" lon="-3.7220917"><ele>2102</ele><speed>28</speed><time>2016-10-08T12:25:57Z</time><course>151</course><type>18</type></trkpt>
      <trkpt lat="41.0685133" lon="-3.7221"><ele>2104</ele><speed>26</speed><time>2016-10-08T12:25:59Z</time><course>164</course><type>18</type></trkpt>
      <trkpt lat="41.0684066" lon="-3.7221617"><ele>2105</ele><speed>21</speed><time>2016-10-08T12:26:01Z</time><course>187</course><type>18</type></trkpt>
      <trkpt lat="41.0683833" lon="-3.7222817"><ele>2108</ele><speed>5</speed><time>2016-10-08T12:26:04Z</time><course>208</course><type>18</type></trkpt>
      <trkpt lat="41.0684116" lon="-3.7221184"><ele>2113</ele><speed>29</speed><time>2016-10-08T12:26:08Z</time><course>86</course><type>18</type></trkpt>
      <trkpt lat="41.0686116" lon="-3.7220367"><ele>2118</ele><speed>19</speed><time>2016-10-08T12:26:10Z</time><course>82</course><type>18</type></trkpt>
      <trkpt lat="41.0686766" lon="-3.7219617"><ele>2122</ele><speed>12</speed><time>2016-10-08T12:26:12Z</time><course>96</course><type>18</type></trkpt>
      <trkpt lat="41.0686233" lon="-3.72188"><ele>2125</ele><speed>19</speed><time>2016-10-08T12:26:14Z</time><course>144</course><type>18</type></trkpt>
      <trkpt lat="41.0685466" lon="-3.7218084"><ele>2128</ele><speed>20</speed><time>2016-10-08T12:26:16Z</time><course>154</course><type>18</type></trkpt>
      <trkpt lat="41.068535" lon="-3.7219634"><ele>2132</ele><speed>12</speed><time>2016-10-08T12:26:20Z</time><course>252</course><type>18</type></trkpt>
      <trkpt lat="41.0685316" lon="-3.7221217"><ele>2135</ele><speed>11</speed><time>2016-10-08T12:26:22Z</time><course>284</course><type>18</type></trkpt>
      <trkpt lat="41.0685483" lon="-3.7222384"><ele>2138</ele><speed>13</speed><time>2016-10-08T12:26:24Z</time><course>304</course><type>18</type></trkpt>
      <trkpt lat="41.06857" lon="-3.7223584"><ele>2142</ele><speed>15</speed><time>2016-10-08T12:26:26Z</time><course>329</course><type>18</type></trkpt>
      <trkpt lat="41.0686433" lon="-3.7223701"><ele>2147</ele><speed>26</speed><time>2016-10-08T12:26:28Z</time><course>21</course><type>18</type></trkpt>
      <trkpt lat="41.06868" lon="-3.7222467"><ele>2152</ele><speed>15</speed><time>2016-10-08T12:26:31Z</time><course>42</course><type>18</type></trkpt>
      <trkpt lat="41.0687083" lon="-3.7221067"><ele>2157</ele><speed>10</speed><time>2016-10-08T12:26:33Z</time><course>76</course><type>18</type></trkpt>
      <trkpt lat="41.0686466" lon="-3.7219817"><ele>2159</ele><speed>12</speed><time>2016-10-08T12:26:34Z</time><course>110</course><type>18</type></trkpt>
      <trkpt lat="41.0684633" lon="-3.7217817"><ele>2163</ele><speed>22</speed><time>2016-10-08T12:26:36Z</time><course>139</course><type>18</type></trkpt>
      <trkpt lat="41.0684016" lon="-3.721725"><ele>2164</ele><speed>20</speed><time>2016-10-08T12:26:37Z</time><course>140</course><type>18</type></trkpt>
      <trkpt lat="41.0683233" lon="-3.7217134"><ele>2167</ele><speed>13</speed><time>2016-10-08T12:26:39Z</time><course>151</course><type>18</type></trkpt>
      <trkpt lat="41.0682783" lon="-3.7217717"><ele>2169</ele><speed>15</speed><time>2016-10-08T12:26:40Z</time><course>198</course><type>18</type></trkpt>
      <trkpt lat="41.0682216" lon="-3.72182"><ele>2172</ele><speed>16</speed><time>2016-10-08T12:26:42Z</time><course>213</course><type>18</type></trkpt>
      <trkpt lat="41.068155" lon="-3.7219017"><ele>2174</ele><speed>17</speed><time>2016-10-08T12:26:43Z</time><course>213</course><type>18</type></trkpt>
      <trkpt lat="41.0680716" lon="-3.7219867"><ele>2179</ele><speed>11</speed><time>2016-10-08T12:26:46Z</time><course>198</course><type>18</type></trkpt>
      <trkpt lat="41.0680583" lon="-3.721845"><ele>2186</ele><speed>21</speed><time>2016-10-08T12:26:49Z</time><course>86</course><type>18</type></trkpt>
      <trkpt lat="41.067995" lon="-3.7216884"><ele>2189</ele><speed>27</speed><time>2016-10-08T12:26:51Z</time><course>93</course><type>18</type></trkpt>
      <trkpt lat="41.068025" lon="-3.721565"><ele>2193</ele><speed>25</speed><time>2016-10-08T12:26:53Z</time><course>96</course><type>18</type></trkpt>
      <trkpt lat="41.0678833" lon="-3.7215434"><ele>2197</ele><speed>30</speed><time>2016-10-08T12:26:56Z</time><course>169</course><type>18</type></trkpt>
      <trkpt lat="41.067785" lon="-3.7215584"><ele>2199</ele><speed>36</speed><time>2016-10-08T12:26:57Z</time><course>173</course><type>18</type></trkpt>
      <trkpt lat="41.0676816" lon="-3.7215134"><ele>2201</ele><speed>36</speed><time>2016-10-08T12:26:58Z</time><course>178</course><type>18</type></trkpt>
      <trkpt lat="41.0675949" lon="-3.7214984"><ele>2202</ele><speed>35</speed><time>2016-10-08T12:26:59Z</time><course>183</course><type>18</type></trkpt>
      <trkpt lat="41.0675016" lon="-3.7213517"><ele>2205</ele><speed>33</speed><time>2016-10-08T12:27:00Z</time><course>184</course><type>18</type></trkpt>
      <trkpt lat="41.0674166" lon="-3.721325"><ele>2207</ele><speed>32</speed><time>2016-10-08T12:27:01Z</time><course>188</course><type>18</type></trkpt>
      <trkpt lat="41.0673216" lon="-3.7212734"><ele>2209</ele><speed>32</speed><time>2016-10-08T12:27:02Z</time><course>186</course><type>18</type></trkpt>
      <trkpt lat="41.0672283" lon="-3.721265"><ele>2211</ele><speed>32</speed><time>2016-10-08T12:27:03Z</time><course>189</course><type>18</type></trkpt>
      <trkpt lat="41.0671166" lon="-3.7213317"><ele>2214</ele><speed>27</speed><time>2016-10-08T12:27:05Z</time><course>201</course><type>18</type></trkpt>
      <trkpt lat="41.06706" lon="-3.72141"><ele>2216</ele><speed>19</speed><time>2016-10-08T12:27:07Z</time><course>214</course><type>18</type></trkpt>
      <trkpt lat="41.0670416" lon="-3.72154"><ele>2221</ele><speed>10</speed><time>2016-10-08T12:27:10Z</time><course>238</course><type>18</type></trkpt>
      <trkpt lat="41.0670933" lon="-3.7216234"><ele>2224</ele><speed>7</speed><time>2016-10-08T12:27:12Z</time><course>291</course><type>18</type></trkpt>
      <trkpt lat="41.067165" lon="-3.72168"><ele>2227</ele><speed>11</speed><time>2016-10-08T12:27:14Z</time><course>329</course><type>18</type></trkpt>
      <trkpt lat="41.0672533" lon="-3.7217317"><ele>2230</ele><speed>15</speed><time>2016-10-08T12:27:16Z</time><course>342</course><type>18</type></trkpt>
      <trkpt lat="41.0673416" lon="-3.7217034"><ele>2235</ele><speed>19</speed><time>2016-10-08T12:27:20Z</time><course>15</course><type>18</type></trkpt>
      <trkpt lat="41.0674266" lon="-3.7216217"><ele>2238</ele><speed>20</speed><time>2016-10-08T12:27:23Z</time><course>23</course><type>18</type></trkpt>
      <trkpt lat="41.0674866" lon="-3.7215567"><ele>2241</ele><speed>21</speed><time>2016-10-08T12:27:25Z</time><course>28</course><type>18</type></trkpt>
      <trkpt lat="41.0674916" lon="-3.7214184"><ele>2245</ele><speed>22</speed><time>2016-10-08T12:27:28Z</time><course>61</course><type>18</type></trkpt>
      <trkpt lat="41.0675066" lon="-3.7213001"><ele>2246</ele><speed>28</speed><time>2016-10-08T12:27:29Z</time><course>70</course><type>18</type></trkpt>
      <trkpt lat="41.0675283" lon="-3.7211317"><ele>2249</ele><speed>29</speed><time>2016-10-08T12:27:31Z</time><course>81</course><type>18</type></trkpt>
      <trkpt lat="41.0677483" lon="-3.7210567"><ele>2257</ele><speed>29</speed><time>2016-10-08T12:27:33Z</time><course>84</course><type>18</type></trkpt>
      <trkpt lat="41.0677983" lon="-3.72093"><ele>2262</ele><speed>25</speed><time>2016-10-08T12:27:35Z</time><course>87</course><type>18</type></trkpt>
      <trkpt lat="41.0676933" lon="-3.72088"><ele>2267</ele><speed>23</speed><time>2016-10-08T12:27:37Z</time><course>140</course><type>18</type></trkpt>
      <trkpt lat="41.0676033" lon="-3.720825"><ele>2269</ele><speed>30</speed><time>2016-10-08T12:27:38Z</time><course>149</course><type>18</type></trkpt>
      <trkpt lat="41.0675366" lon="-3.7209034"><ele>2270</ele><speed>28</speed><time>2016-10-08T12:27:39Z</time><course>165</course><type>18</type></trkpt>
      <trkpt lat="41.0675033" lon="-3.7210034"><ele>2272</ele><speed>17</speed><time>2016-10-08T12:27:40Z</time><course>176</course><type>18</type></trkpt>
      <trkpt lat="41.0674683" lon="-3.7212084"><ele>2275</ele><speed>19</speed><time>2016-10-08T12:27:42Z</time><course>238</course><type>18</type></trkpt>
      <trkpt lat="41.0674566" lon="-3.72132"><ele>2277</ele><speed>23</speed><time>2016-10-08T12:27:43Z</time><course>251</course><type>18</type></trkpt>
      <trkpt lat="41.0674599" lon="-3.7214917"><ele>2280</ele><speed>24</speed><time>2016-10-08T12:27:45Z</time><course>269</course><type>18</type></trkpt>
      <trkpt lat="41.06753" lon="-3.7215984"><ele>2282</ele><speed>14</speed><time>2016-10-08T12:27:47Z</time><course>305</course><type>18</type></trkpt>
      <trkpt lat="41.067575" lon="-3.7216817"><ele>2286</ele><speed>14</speed><time>2016-10-08T12:27:49Z</time><course>319</course><type>18</type></trkpt>
      <trkpt lat="41.0676566" lon="-3.7216934"><ele>2294</ele><speed>19</speed><time>2016-10-08T12:27:52Z</time><course>14</course><type>18</type></trkpt>
      <trkpt lat="41.0676266" lon="-3.7215534"><ele>2301</ele><speed>16</speed><time>2016-10-08T12:27:55Z</time><course>65</course><type>18</type></trkpt>
      <trkpt lat="41.067555" lon="-3.7214517"><ele>2303</ele><speed>17</speed><time>2016-10-08T12:27:56Z</time><course>91</course><type>18</type></trkpt>
      <trkpt lat="41.067425" lon="-3.7213967"><ele>2306</ele><speed>15</speed><time>2016-10-08T12:27:58Z</time><course>152</course><type>18</type></trkpt>
      <trkpt lat="41.0673283" lon="-3.7213934"><ele>2308</ele><speed>22</speed><time>2016-10-08T12:27:59Z</time><course>167</course><type>18</type></trkpt>
      <trkpt lat="41.0672233" lon="-3.7214067"><ele>2310</ele><speed>27</speed><time>2016-10-08T12:28:00Z</time><course>176</course><type>18</type></trkpt>
      <trkpt lat="41.0671183" lon="-3.7213184"><ele>2312</ele><speed>28</speed><time>2016-10-08T12:28:01Z</time><course>175</course><type>18</type></trkpt>
      <trkpt lat="41.0670283" lon="-3.7213584"><ele>2315</ele><speed>13</speed><time>2016-10-08T12:28:03Z</time><course>188</course><type>18</type></trkpt>
      <trkpt lat="41.0670233" lon="-3.72152"><ele>2319</ele><speed>17</speed><time>2016-10-08T12:28:05Z</time><course>278</course><type>18</type></trkpt>
      <trkpt lat="41.067035" lon="-3.72161"><ele>2321</ele><speed>21</speed><time>2016-10-08T12:28:06Z</time><course>286</course><type>18</type></trkpt>
      <trkpt lat="41.0670549" lon="-3.7216884"><ele>2323</ele><speed>22</speed><time>2016-10-08T12:28:07Z</time><course>293</course><type>18</type></trkpt>
      <trkpt lat="41.0670783" lon="-3.7217617"><ele>2325</ele><speed>22</speed><time>2016-10-08T12:28:08Z</time><course>299</course><type>18</type></trkpt>
      <trkpt lat="41.067115" lon="-3.7218267"><ele>2327</ele><speed>23</speed><time>2016-10-08T12:28:09Z</time><course>305</course><type>18</type></trkpt>
      <trkpt lat="41.0671616" lon="-3.7218784"><ele>2328</ele><speed>24</speed><time>2016-10-08T12:28:10Z</time><course>315</course><type>18</type></trkpt>
      <trkpt lat="41.0672133" lon="-3.7219234"><ele>2329</ele><speed>24</speed><time>2016-10-08T12:28:11Z</time><course>324</course><type>18</type></trkpt>
      <trkpt lat="41.06726" lon="-3.7219684"><ele>2331</ele><speed>24</speed><time>2016-10-08T12:28:12Z</time><course>331</course><type>18</type></trkpt>
      <trkpt lat="41.0672833" lon="-3.7220417"><ele>2334</ele><speed>24</speed><time>2016-10-08T12:28:13Z</time><course>333</course><type>18</type></trkpt>
      <trkpt lat="41.0673966" lon="-3.72208"><ele>2338</ele><speed>23</speed><time>2016-10-08T12:28:15Z</time><course>346</course><type>18</type></trkpt>
      <trkpt lat="41.0674966" lon="-3.7220717"><ele>2341</ele><speed>24</speed><time>2016-10-08T12:28:17Z</time><course>353</course><type>18</type></trkpt>
      <trkpt lat="41.0676283" lon="-3.7220467"><ele>2343</ele><speed>26</speed><time>2016-10-08T12:28:19Z</time><course>3</course><type>18</type></trkpt>
      <trkpt lat="41.06775" lon="-3.722005"><ele>2345</ele><speed>27</speed><time>2016-10-08T12:28:21Z</time><course>13</course><type>18</type></trkpt>
      <trkpt lat="41.0678166" lon="-3.7219667"><ele>2346</ele><speed>29</speed><time>2016-10-08T12:28:22Z</time><course>18</course><type>18</type></trkpt>
      <trkpt lat="41.0678883" lon="-3.7219184"><ele>2348</ele><speed>31</speed><time>2016-10-08T12:28:23Z</time><course>21</course><type>18</type></trkpt>
      <trkpt lat="41.0679549" lon="-3.7218684"><ele>2349</ele><speed>31</speed><time>2016-10-08T12:28:24Z</time><course>25</course><type>18</type></trkpt>
      <trkpt lat="41.068015" lon="-3.7218117"><ele>2350</ele><speed>31</speed><time>2016-10-08T12:28:25Z</time><course>30</course><type>18</type></trkpt>
      <trkpt lat="41.06807" lon="-3.72174"><ele>2351</ele><speed>32</speed><time>2016-10-08T12:28:26Z</time><course>35</course><type>18</type></trkpt>
      <trkpt lat="41.0681383" lon="-3.7216584"><ele>2355</ele><speed>34</speed><time>2016-10-08T12:28:28Z</time><course>38</course><type>18</type></trkpt>
      <trkpt lat="41.068245" lon="-3.7215834"><ele>2358</ele><speed>30</speed><time>2016-10-08T12:28:30Z</time><course>29</course><type>18</type></trkpt>
      <trkpt lat="41.0683066" lon="-3.7215317"><ele>2360</ele><speed>31</speed><time>2016-10-08T12:28:31Z</time><course>27</course><type>18</type></trkpt>
      <trkpt lat="41.0683766" lon="-3.7214834"><ele>2361</ele><speed>34</speed><time>2016-10-08T12:28:32Z</time><course>27</course><type>18</type></trkpt>
      <trkpt lat="41.0684466" lon="-3.72142"><ele>2362</ele><speed>36</speed><time>2016-10-08T12:28:33Z</time><course>28</course><type>18</type></trkpt>
      <trkpt lat="41.0685183" lon="-3.7213517"><ele>2363</ele><speed>36</speed><time>2016-10-08T12:28:34Z</time><course>30</course><type>18</type></trkpt>
      <trkpt lat="41.0685983" lon="-3.721275"><ele>2364</ele><speed>39</speed><time>2016-10-08T12:28:35Z</time><course>31</course><type>18</type></trkpt>
      <trkpt lat="41.0686733" lon="-3.7212067"><ele>2365</ele><speed>38</speed><time>2016-10-08T12:28:36Z</time><course>30</course><type>18</type></trkpt>
      <trkpt lat="41.068745" lon="-3.7211517"><ele>2366</ele><speed>36</speed><time>2016-10-08T12:28:37Z</time><course>27</course><type>18</type></trkpt>
      <trkpt lat="41.0688099" lon="-3.721105"><ele>2367</ele><speed>32</speed><time>2016-10-08T12:28:38Z</time><course>24</course><type>18</type></trkpt>
      <trkpt lat="41.0689283" lon="-3.721015"><ele>2369</ele><speed>29</speed><time>2016-10-08T12:28:40Z</time><course>25</course><type>18</type></trkpt>
      <trkpt lat="41.0689916" lon="-3.7209667"><ele>2371</ele><speed>31</speed><time>2016-10-08T12:28:41Z</time><course>25</course><type>18</type></trkpt>
      <trkpt lat="41.0690566" lon="-3.7209217"><ele>2372</ele><speed>32</speed><time>2016-10-08T12:28:42Z</time><course>23</course><type>18</type></trkpt>
      <trkpt lat="41.0691383" lon="-3.7208934"><ele>2373</ele><speed>33</speed><time>2016-10-08T12:28:43Z</time><course>19</course><type>18</type></trkpt>
      <trkpt lat="41.0692116" lon="-3.72087"><ele>2374</ele><speed>32</speed><time>2016-10-08T12:28:44Z</time><course>15</course><type>18</type></trkpt>
      <trkpt lat="41.0693383" lon="-3.72082"><ele>2376</ele><speed>29</speed><time>2016-10-08T12:28:46Z</time><course>11</course><type>18</type></trkpt>
      <trkpt lat="41.0694733" lon="-3.7207934"><ele>2378</ele><speed>29</speed><time>2016-10-08T12:28:48Z</time><course>6</course><type>18</type></trkpt>
      <trkpt lat="41.0695616" lon="-3.7208034"><ele>2379</ele><speed>29</speed><time>2016-10-08T12:28:49Z</time><course>2</course><type>18</type></trkpt>
      <trkpt lat="41.0696383" lon="-3.72081"><ele>2380</ele><speed>29</speed><time>2016-10-08T12:28:50Z</time><course>0</course><type>18</type></trkpt>
      <trkpt lat="41.0697716" lon="-3.7208017"><ele>2381</ele><speed>27</speed><time>2016-10-08T12:28:52Z</time><course>6</course><type>18</type></trkpt>
      <trkpt lat="41.0698333" lon="-3.7207817"><ele>2382</ele><speed>26</speed><time>2016-10-08T12:28:53Z</time><course>12</course><type>18</type></trkpt>
      <trkpt lat="41.069895" lon="-3.7207434"><ele>2383</ele><speed>28</speed><time>2016-10-08T12:28:54Z</time><course>19</course><type>18</type></trkpt>
      <trkpt lat="41.0699566" lon="-3.7206934"><ele>2384</ele><speed>30</speed><time>2016-10-08T12:28:55Z</time><course>24</course><type>18</type></trkpt>
      <trkpt lat="41.0700249" lon="-3.7206384"><ele>2385</ele><speed>33</speed><time>2016-10-08T12:28:56Z</time><course>28</course><type>18</type></trkpt>
      <trkpt lat="41.0700916" lon="-3.720585"><ele>2386</ele><speed>31</speed><time>2016-10-08T12:28:57Z</time><course>28</course><type>18</type></trkpt>
      <trkpt lat="41.0701516" lon="-3.7205351"><ele>2387</ele><speed>30</speed><time>2016-10-08T12:28:58Z</time><course>28</course><type>18</type></trkpt>
      <trkpt lat="41.0702066" lon="-3.7204884"><ele>2388</ele><speed>28</speed><time>2016-10-08T12:28:59Z</time><course>28</course><type>18</type></trkpt>
      <trkpt lat="41.0702633" lon="-3.7204451"><ele>2388</ele><speed>27</speed><time>2016-10-08T12:29:00Z</time><course>27</course><type>18</type></trkpt>
      <trkpt lat="41.070315" lon="-3.7203984"><ele>2389</ele><speed>27</speed><time>2016-10-08T12:29:01Z</time><course>25</course><type>18</type></trkpt>
      <trkpt lat="41.0703733" lon="-3.72036"><ele>2390</ele><speed>28</speed><time>2016-10-08T12:29:02Z</time><course>21</course><type>18</type></trkpt>
      <trkpt lat="41.070435" lon="-3.72033"><ele>2390</ele><speed>28</speed><time>2016-10-08T12:29:03Z</time><course>17</course><type>18</type></trkpt>
      <trkpt lat="41.0704983" lon="-3.720315"><ele>2391</ele><speed>27</speed><time>2016-10-08T12:29:04Z</time><course>11</course><type>18</type></trkpt>
      <trkpt lat="41.0706016" lon="-3.72029"><ele>2393</ele><speed>22</speed><time>2016-10-08T12:29:06Z</time><course>14</course><type>18</type></trkpt>
      <trkpt lat="41.0706566" lon="-3.7202651"><ele>2393</ele><speed>22</speed><time>2016-10-08T12:29:07Z</time><course>22</course><type>18</type></trkpt>
      <trkpt lat="41.0707116" lon="-3.7202317"><ele>2394</ele><speed>24</speed><time>2016-10-08T12:29:08Z</time><course>26</course><type>18</type></trkpt>
      <trkpt lat="41.0707766" lon="-3.7201967"><ele>2395</ele><speed>25</speed><time>2016-10-08T12:29:09Z</time><course>26</course><type>18</type></trkpt>
      <trkpt lat="41.0708483" lon="-3.7201734"><ele>2396</ele><speed>26</speed><time>2016-10-08T12:29:10Z</time><course>21</course><type>18</type></trkpt>
      <trkpt lat="41.0709266" lon="-3.720145"><ele>2396</ele><speed>29</speed><time>2016-10-08T12:29:11Z</time><course>17</course><type>18</type></trkpt>
      <trkpt lat="41.0710116" lon="-3.7200867"><ele>2397</ele><speed>33</speed><time>2016-10-08T12:29:12Z</time><course>23</course><type>18</type></trkpt>
      <trkpt lat="41.07109" lon="-3.7200234"><ele>2397</ele><speed>34</speed><time>2016-10-08T12:29:13Z</time><course>29</course><type>18</type></trkpt>
      <trkpt lat="41.07117" lon="-3.719945"><ele>2398</ele><speed>38</speed><time>2016-10-08T12:29:14Z</time><course>36</course><type>18</type></trkpt>
      <trkpt lat="41.0712366" lon="-3.71985"><ele>2399</ele><speed>39</speed><time>2016-10-08T12:29:15Z</time><course>42</course><type>18</type></trkpt>
      <trkpt lat="41.0713166" lon="-3.719755"><ele>2399</ele><speed>40</speed><time>2016-10-08T12:29:16Z</time><course>43</course><type>18</type></trkpt>
      <trkpt lat="41.071375" lon="-3.71965"><ele>2399</ele><speed>39</speed><time>2016-10-08T12:29:17Z</time><course>45</course><type>18</type></trkpt>
      <trkpt lat="41.0714316" lon="-3.7195467"><ele>2400</ele><speed>37</speed><time>2016-10-08T12:29:18Z</time><course>51</course><type>18</type></trkpt>
      <trkpt lat="41.071475" lon="-3.7194434"><ele>2401</ele><speed>34</speed><time>2016-10-08T12:29:19Z</time><course>55</course><type>18</type></trkpt>
      <trkpt lat="41.0715233" lon="-3.7193467"><ele>2401</ele><speed>33</speed><time>2016-10-08T12:29:20Z</time><course>58</course><type>18</type></trkpt>
      <trkpt lat="41.0715666" lon="-3.7192534"><ele>2402</ele><speed>32</speed><time>2016-10-08T12:29:21Z</time><course>55</course><type>18</type></trkpt>
      <trkpt lat="41.0716133" lon="-3.7191684"><ele>2402</ele><speed>32</speed><time>2016-10-08T12:29:22Z</time><course>50</course><type>18</type></trkpt>
      <trkpt lat="41.0716699" lon="-3.7190834"><ele>2402</ele><speed>35</speed><time>2016-10-08T12:29:23Z</time><course>45</course><type>18</type></trkpt>
      <trkpt lat="41.0717283" lon="-3.7189984"><ele>2402</ele><speed>36</speed><time>2016-10-08T12:29:24Z</time><course>44</course><type>18</type></trkpt>
      <trkpt lat="41.0718016" lon="-3.7189067"><ele>2403</ele><speed>39</speed><time>2016-10-08T12:29:25Z</time><course>44</course><type>18</type></trkpt>
      <trkpt lat="41.0718733" lon="-3.7188117"><ele>2403</ele><speed>38</speed><time>2016-10-08T12:29:26Z</time><course>44</course><type>18</type></trkpt>
      <trkpt lat="41.0719366" lon="-3.7187184"><ele>2403</ele><speed>36</speed><time>2016-10-08T12:29:27Z</time><course>46</course><type>18</type></trkpt>
      <trkpt lat="41.071995" lon="-3.7186184"><ele>2404</ele><speed>36</speed><time>2016-10-08T12:29:28Z</time><course>50</course><type>18</type></trkpt>
      <trkpt lat="41.0720516" lon="-3.71851"><ele>2404</ele><speed>37</speed><time>2016-10-08T12:29:29Z</time><course>52</course><type>18</type></trkpt>
      <trkpt lat="41.072105" lon="-3.7183984"><ele>2404</ele><speed>39</speed><time>2016-10-08T12:29:30Z</time><course>55</course><type>18</type></trkpt>
      <trkpt lat="41.0721533" lon="-3.7182634"><ele>2405</ele><speed>41</speed><time>2016-10-08T12:29:31Z</time><course>59</course><type>18</type></trkpt>
      <trkpt lat="41.072195" lon="-3.7181367"><ele>2405</ele><speed>40</speed><time>2016-10-08T12:29:32Z</time><course>63</course><type>18</type></trkpt>
      <trkpt lat="41.0722" lon="-3.7180017"><ele>2405</ele><speed>40</speed><time>2016-10-08T12:29:33Z</time><course>71</course><type>18</type></trkpt>
      <trkpt lat="41.0722" lon="-3.717865"><ele>2405</ele><speed>40</speed><time>2016-10-08T12:29:34Z</time><course>75</course><type>18</type></trkpt>
      <trkpt lat="41.0721883" lon="-3.71773"><ele>2405</ele><speed>40</speed><time>2016-10-08T12:29:35Z</time><course>78</course><type>18</type></trkpt>
      <trkpt lat="41.072185" lon="-3.7175917"><ele>2405</ele><speed>41</speed><time>2016-10-08T12:29:36Z</time><course>80</course><type>18</type></trkpt>
      <trkpt lat="41.0721833" lon="-3.7174467"><ele>2405</ele><speed>43</speed><time>2016-10-08T12:29:37Z</time><course>78</course><type>18</type></trkpt>
      <trkpt lat="41.0722099" lon="-3.7173067"><ele>2405</ele><speed>44</speed><time>2016-10-08T12:29:38Z</time><course>75</course><type>18</type></trkpt>
      <trkpt lat="41.0722483" lon="-3.7171667"><ele>2406</ele><speed>43</speed><time>2016-10-08T12:29:39Z</time><course>71</course><type>18</type></trkpt>
      <trkpt lat="41.0722866" lon="-3.71704"><ele>2406</ele><speed>42</speed><time>2016-10-08T12:29:40Z</time><course>67</course><type>18</type></trkpt>
      <trkpt lat="41.0723316" lon="-3.7169234"><ele>2406</ele><speed>42</speed><time>2016-10-08T12:29:41Z</time><course>64</course><type>18</type></trkpt>
      <trkpt lat="41.0723833" lon="-3.7168084"><ele>2406</ele><speed>41</speed><time>2016-10-08T12:29:42Z</time><course>61</course><type>18</type></trkpt>
      <trkpt lat="41.0724366" lon="-3.7167"><ele>2407</ele><speed>38</speed><time>2016-10-08T12:29:43Z</time><course>58</course><type>18</type></trkpt>
      <trkpt lat="41.072505" lon="-3.716605"><ele>2407</ele><speed>36</speed><time>2016-10-08T12:29:44Z</time><course>52</course><type>18</type></trkpt>
      <trkpt lat="41.0725733" lon="-3.71652"><ele>2407</ele><speed>38</speed><time>2016-10-08T12:29:45Z</time><course>45</course><type>18</type></trkpt>
      <trkpt lat="41.072645" lon="-3.7164317"><ele>2407</ele><speed>40</speed><time>2016-10-08T12:29:46Z</time><course>44</course><type>18</type></trkpt>
      <trkpt lat="41.0727216" lon="-3.7163434"><ele>2408</ele><speed>42</speed><time>2016-10-08T12:29:47Z</time><course>42</course><type>18</type></trkpt>
      <trkpt lat="41.072755" lon="-3.7162534"><ele>2407</ele><speed>38</speed><time>2016-10-08T12:29:48Z</time><course>44</course><type>18</type></trkpt>
      <trkpt lat="41.072785" lon="-3.7161684"><ele>2407</ele><speed>35</speed><time>2016-10-08T12:29:49Z</time><course>45</course><type>18</type></trkpt>
      <trkpt lat="41.07286" lon="-3.7161101"><ele>2407</ele><speed>34</speed><time>2016-10-08T12:29:50Z</time><course>39</course><type>18</type></trkpt>
      <trkpt lat="41.0729749" lon="-3.71601"><ele>2406</ele><speed>31</speed><time>2016-10-08T12:29:52Z</time><course>31</course><type>18</type></trkpt>
      <trkpt lat="41.0730316" lon="-3.715925"><ele>2405</ele><speed>26</speed><time>2016-10-08T12:29:54Z</time><course>29</course><type>18</type></trkpt>
      <trkpt lat="41.07312" lon="-3.7158617"><ele>2405</ele><speed>23</speed><time>2016-10-08T12:29:56Z</time><course>24</course><type>18</type></trkpt>
      <trkpt lat="41.0732233" lon="-3.7157767"><ele>2406</ele><speed>26</speed><time>2016-10-08T12:29:58Z</time><course>29</course><type>18</type></trkpt>
      <trkpt lat="41.07336" lon="-3.7157051"><ele>2406</ele><speed>27</speed><time>2016-10-08T12:30:00Z</time><course>29</course><type>18</type></trkpt>
      <trkpt lat="41.0734383" lon="-3.7156667"><ele>2406</ele><speed>28</speed><time>2016-10-08T12:30:01Z</time><course>29</course><type>18</type></trkpt>
      <trkpt lat="41.0735866" lon="-3.715575"><ele>2406</ele><speed>30</speed><time>2016-10-08T12:30:03Z</time><course>33</course><type>18</type></trkpt>
      <trkpt lat="41.0737183" lon="-3.7155701"><ele>2405</ele><speed>28</speed><time>2016-10-08T12:30:05Z</time><course>21</course><type>18</type></trkpt>
      <trkpt lat="41.0738366" lon="-3.7155467"><ele>2405</ele><speed>28</speed><time>2016-10-08T12:30:07Z</time><course>11</course><type>18</type></trkpt>
      <trkpt lat="41.0739783" lon="-3.7155467"><ele>2406</ele><speed>30</speed><time>2016-10-08T12:30:09Z</time><course>359</course><type>18</type></trkpt>
      <trkpt lat="41.0740533" lon="-3.7155634"><ele>2406</ele><speed>31</speed><time>2016-10-08T12:30:10Z</time><course>354</course><type>18</type></trkpt>
      <trkpt lat="41.0741616" lon="-3.715625"><ele>2406</ele><speed>23</speed><time>2016-10-08T12:30:12Z</time><course>349</course><type>18</type></trkpt>
      <trkpt lat="41.0741916" lon="-3.7157501"><ele>2407</ele><speed>14</speed><time>2016-10-08T12:30:14Z</time><course>326</course><type>18</type></trkpt>
      <trkpt lat="41.0741933" lon="-3.7158934"><ele>2407</ele><speed>17</speed><time>2016-10-08T12:30:16Z</time><course>305</course><type>18</type></trkpt>
      <trkpt lat="41.0742266" lon="-3.7160434"><ele>2407</ele><speed>19</speed><time>2016-10-08T12:30:18Z</time><course>306</course><type>18</type></trkpt>
      <trkpt lat="41.0742666" lon="-3.7161584"><ele>2407</ele><speed>18</speed><time>2016-10-08T12:30:20Z</time><course>307</course><type>18</type></trkpt>
      <trkpt lat="41.0743633" lon="-3.7161867"><ele>2407</ele><speed>19</speed><time>2016-10-08T12:30:22Z</time><course>334</course><type>18</type></trkpt>
      <trkpt lat="41.074385" lon="-3.7163484"><ele>2407</ele><speed>20</speed><time>2016-10-08T12:30:24Z</time><course>307</course><type>18</type></trkpt>
      <trkpt lat="41.0743466" lon="-3.7165167"><ele>2406</ele><speed>18</speed><time>2016-10-08T12:30:26Z</time><course>288</course><type>18</type></trkpt>
      <trkpt lat="41.07431" lon="-3.716615"><ele>2406</ele><speed>20</speed><time>2016-10-08T12:30:27Z</time><course>275</course><type>18</type></trkpt>
      <trkpt lat="41.0742466" lon="-3.7168201"><ele>2406</ele><speed>25</speed><time>2016-10-08T12:30:29Z</time><course>268</course><type>18</type></trkpt>
      <trkpt lat="41.0742216" lon="-3.7169117"><ele>2406</ele><speed>24</speed><time>2016-10-08T12:30:30Z</time><course>265</course><type>18</type></trkpt>
      <trkpt lat="41.074185" lon="-3.7170067"><ele>2406</ele><speed>21</speed><time>2016-10-08T12:30:31Z</time><course>262</course><type>18</type></trkpt>
      <trkpt lat="41.0740616" lon="-3.7172134"><ele>2407</ele><speed>18</speed><time>2016-10-08T12:30:33Z</time><course>269</course><type>18</type></trkpt>
      <trkpt lat="41.0740416" lon="-3.7173117"><ele>2407</ele><speed>20</speed><time>2016-10-08T12:30:34Z</time><course>280</course><type>18</type></trkpt>
      <trkpt lat="41.074025" lon="-3.7174367"><ele>2406</ele><speed>24</speed><time>2016-10-08T12:30:35Z</time><course>289</course><type>18</type></trkpt>
      <trkpt lat="41.0740366" lon="-3.7175534"><ele>2406</ele><speed>26</speed><time>2016-10-08T12:30:36Z</time><course>291</course><type>18</type></trkpt>
      <trkpt lat="41.0740566" lon="-3.7176667"><ele>2405</ele><speed>30</speed><time>2016-10-08T12:30:37Z</time><course>291</course><type>18</type></trkpt>
      <trkpt lat="41.0740783" lon="-3.717785"><ele>2405</ele><speed>33</speed><time>2016-10-08T12:30:38Z</time><course>290</course><type>18</type></trkpt>
      <trkpt lat="41.0741133" lon="-3.7178767"><ele>2404</ele><speed>32</speed><time>2016-10-08T12:30:39Z</time><course>293</course><type>18</type></trkpt>
      <trkpt lat="41.0741366" lon="-3.7179717"><ele>2403</ele><speed>30</speed><time>2016-10-08T12:30:40Z</time><course>295</course><type>18</type></trkpt>
      <trkpt lat="41.0741766" lon="-3.718055"><ele>2403</ele><speed>29</speed><time>2016-10-08T12:30:41Z</time><course>302</course><type>18</type></trkpt>
      <trkpt lat="41.0742233" lon="-3.7181367"><ele>2403</ele><speed>30</speed><time>2016-10-08T12:30:42Z</time><course>307</course><type>18</type></trkpt>
      <trkpt lat="41.0742799" lon="-3.7182184"><ele>2402</ele><speed>30</speed><time>2016-10-08T12:30:43Z</time><course>315</course><type>18</type></trkpt>
      <trkpt lat="41.07434" lon="-3.7183134"><ele>2401</ele><speed>31</speed><time>2016-10-08T12:30:44Z</time><course>316</course><type>18</type></trkpt>
      <trkpt lat="41.07441" lon="-3.7183817"><ele>2400</ele><speed>33</speed><time>2016-10-08T12:30:45Z</time><course>317</course><type>18</type></trkpt>
      <trkpt lat="41.0744683" lon="-3.71847"><ele>2399</ele><speed>34</speed><time>2016-10-08T12:30:46Z</time><course>316</course><type>18</type></trkpt>
      <trkpt lat="41.0745316" lon="-3.7185367"><ele>2398</ele><speed>34</speed><time>2016-10-08T12:30:47Z</time><course>317</course><type>18</type></trkpt>
      <trkpt lat="41.0745983" lon="-3.7186017"><ele>2397</ele><speed>32</speed><time>2016-10-08T12:30:48Z</time><course>322</course><type>18</type></trkpt>
      <trkpt lat="41.0746716" lon="-3.7186684"><ele>2396</ele><speed>32</speed><time>2016-10-08T12:30:49Z</time><course>326</course><type>18</type></trkpt>
      <trkpt lat="41.0747649" lon="-3.7186984"><ele>2395</ele><speed>35</speed><time>2016-10-08T12:30:50Z</time><course>332</course><type>18</type></trkpt>
      <trkpt lat="41.07485" lon="-3.71874"><ele>2394</ele><speed>34</speed><time>2016-10-08T12:30:51Z</time><course>337</course><type>18</type></trkpt>
      <trkpt lat="41.0749333" lon="-3.7187684"><ele>2393</ele><speed>32</speed><time>2016-10-08T12:30:52Z</time><course>341</course><type>18</type></trkpt>
      <trkpt lat="41.0750216" lon="-3.7187617"><ele>2391</ele><speed>32</speed><time>2016-10-08T12:30:53Z</time><course>346</course><type>18</type></trkpt>
      <trkpt lat="41.075095" lon="-3.718785"><ele>2390</ele><speed>31</speed><time>2016-10-08T12:30:54Z</time><course>349</course><type>18</type></trkpt>
      <trkpt lat="41.0751833" lon="-3.7187901"><ele>2388</ele><speed>32</speed><time>2016-10-08T12:30:55Z</time><course>350</course><type>18</type></trkpt>
      <trkpt lat="41.0752583" lon="-3.71881"><ele>2387</ele><speed>32</speed><time>2016-10-08T12:30:56Z</time><course>348</course><type>18</type></trkpt>
      <trkpt lat="41.075345" lon="-3.7188234"><ele>2384</ele><speed>34</speed><time>2016-10-08T12:30:57Z</time><course>347</course><type>18</type></trkpt>
      <trkpt lat="41.0754366" lon="-3.7188384"><ele>2382</ele><speed>35</speed><time>2016-10-08T12:30:58Z</time><course>346</course><type>18</type></trkpt>
      <trkpt lat="41.0755366" lon="-3.7188384"><ele>2381</ele><speed>36</speed><time>2016-10-08T12:30:59Z</time><course>347</course><type>18</type></trkpt>
      <trkpt lat="41.0756216" lon="-3.7188467"><ele>2378</ele><speed>35</speed><time>2016-10-08T12:31:00Z</time><course>346</course><type>18</type></trkpt>
      <trkpt lat="41.075695" lon="-3.718865"><ele>2377</ele><speed>32</speed><time>2016-10-08T12:31:01Z</time><course>343</course><type>18</type></trkpt>
      <trkpt lat="41.0757633" lon="-3.7188817"><ele>2376</ele><speed>29</speed><time>2016-10-08T12:31:02Z</time><course>343</course><type>18</type></trkpt>
      <trkpt lat="41.0758333" lon="-3.7189067"><ele>2375</ele><speed>30</speed><time>2016-10-08T12:31:03Z</time><course>340</course><type>18</type></trkpt>
      <trkpt lat="41.0759083" lon="-3.7189334"><ele>2373</ele><speed>32</speed><time>2016-10-08T12:31:04Z</time><course>338</course><type>18</type></trkpt>
      <trkpt lat="41.075985" lon="-3.7189667"><ele>2372</ele><speed>34</speed><time>2016-10-08T12:31:05Z</time><course>338</course><type>18</type></trkpt>
      <trkpt lat="41.0760616" lon="-3.7190017"><ele>2371</ele><speed>34</speed><time>2016-10-08T12:31:06Z</time><course>338</course><type>18</type></trkpt>
      <trkpt lat="41.076135" lon="-3.7190384"><ele>2369</ele><speed>33</speed><time>2016-10-08T12:31:07Z</time><course>339</course><type>18</type></trkpt>
      <trkpt lat="41.0762049" lon="-3.7190817"><ele>2368</ele><speed>31</speed><time>2016-10-08T12:31:08Z</time><course>338</course><type>18</type></trkpt>
      <trkpt lat="41.0762666" lon="-3.7191284"><ele>2366</ele><speed>30</speed><time>2016-10-08T12:31:09Z</time><course>333</course><type>18</type></trkpt>
      <trkpt lat="41.0763233" lon="-3.7191917"><ele>2365</ele><speed>29</speed><time>2016-10-08T12:31:10Z</time><course>325</course><type>18</type></trkpt>
      <trkpt lat="41.076375" lon="-3.7192717"><ele>2363</ele><speed>28</speed><time>2016-10-08T12:31:11Z</time><course>317</course><type>18</type></trkpt>
      <trkpt lat="41.0764216" lon="-3.71934"><ele>2361</ele><speed>30</speed><time>2016-10-08T12:31:12Z</time><course>317</course><type>18</type></trkpt>
      <trkpt lat="41.0764866" lon="-3.7193917"><ele>2360</ele><speed>31</speed><time>2016-10-08T12:31:13Z</time><course>321</course><type>18</type></trkpt>
      <trkpt lat="41.0765566" lon="-3.71945"><ele>2359</ele><speed>31</speed><time>2016-10-08T12:31:14Z</time><course>325</course><type>18</type></trkpt>
      <trkpt lat="41.076635" lon="-3.7194867"><ele>2357</ele><speed>30</speed><time>2016-10-08T12:31:15Z</time><course>333</course><type>18</type></trkpt>
      <trkpt lat="41.0767333" lon="-3.7194867"><ele>2355</ele><speed>31</speed><time>2016-10-08T12:31:16Z</time><course>344</course><type>18</type></trkpt>
      <trkpt lat="41.076865" lon="-3.7193917"><ele>2352</ele><speed>37</speed><time>2016-10-08T12:31:17Z</time><course>16</course><type>18</type></trkpt>
      <trkpt lat="41.0769566" lon="-3.7193084"><ele>2350</ele><speed>38</speed><time>2016-10-08T12:31:18Z</time><course>24</course><type>18</type></trkpt>
      <trkpt lat="41.0770233" lon="-3.7192017"><ele>2348</ele><speed>38</speed><time>2016-10-08T12:31:19Z</time><course>36</course><type>18</type></trkpt>
      <trkpt lat="41.077075" lon="-3.7190734"><ele>2345</ele><speed>38</speed><time>2016-10-08T12:31:20Z</time><course>48</course><type>18</type></trkpt>
      <trkpt lat="41.0771283" lon="-3.7189334"><ele>2343</ele><speed>39</speed><time>2016-10-08T12:31:21Z</time><course>57</course><type>18</type></trkpt>
      <trkpt lat="41.077165" lon="-3.7188034"><ele>2341</ele><speed>38</speed><time>2016-10-08T12:31:22Z</time><course>63</course><type>18</type></trkpt>
      <trkpt lat="41.0771866" lon="-3.7186784"><ele>2339</ele><speed>35</speed><time>2016-10-08T12:31:23Z</time><course>69</course><type>18</type></trkpt>
      <trkpt lat="41.0771616" lon="-3.7185384"><ele>2337</ele><speed>34</speed><time>2016-10-08T12:31:24Z</time><course>81</course><type>18</type></trkpt>
      <trkpt lat="41.0771266" lon="-3.718405"><ele>2335</ele><speed>34</speed><time>2016-10-08T12:31:25Z</time><course>92</course><type>18</type></trkpt>
      <trkpt lat="41.07706" lon="-3.71827"><ele>2333</ele><speed>35</speed><time>2016-10-08T12:31:26Z</time><course>103</course><type>18</type></trkpt>
      <trkpt lat="41.07695" lon="-3.7181384"><ele>2331</ele><speed>38</speed><time>2016-10-08T12:31:27Z</time><course>117</course><type>18</type></trkpt>
      <trkpt lat="41.0768116" lon="-3.71802"><ele>2328</ele><speed>40</speed><time>2016-10-08T12:31:28Z</time><course>128</course><type>18</type></trkpt>
      <trkpt lat="41.0766566" lon="-3.7179117"><ele>2325</ele><speed>43</speed><time>2016-10-08T12:31:29Z</time><course>137</course><type>18</type></trkpt>
      <trkpt lat="41.07653" lon="-3.71782"><ele>2323</ele><speed>44</speed><time>2016-10-08T12:31:30Z</time><course>142</course><type>18</type></trkpt>
      <trkpt lat="41.0764333" lon="-3.7177584"><ele>2320</ele><speed>36</speed><time>2016-10-08T12:31:31Z</time><course>143</course><type>18</type></trkpt>
      <trkpt lat="41.0763533" lon="-3.7176967"><ele>2319</ele><speed>33</speed><time>2016-10-08T12:31:32Z</time><course>144</course><type>18</type></trkpt>
      <trkpt lat="41.0762733" lon="-3.7176567"><ele>2317</ele><speed>30</speed><time>2016-10-08T12:31:33Z</time><course>146</course><type>18</type></trkpt>
      <trkpt lat="41.0761933" lon="-3.7176134"><ele>2315</ele><speed>30</speed><time>2016-10-08T12:31:34Z</time><course>149</course><type>18</type></trkpt>
      <trkpt lat="41.076105" lon="-3.71758"><ele>2313</ele><speed>31</speed><time>2016-10-08T12:31:35Z</time><course>155</course><type>18</type></trkpt>
      <trkpt lat="41.0760183" lon="-3.7175617"><ele>2312</ele><speed>31</speed><time>2016-10-08T12:31:36Z</time><course>161</course><type>18</type></trkpt>
      <trkpt lat="41.0759283" lon="-3.7175567"><ele>2311</ele><speed>32</speed><time>2016-10-08T12:31:37Z</time><course>169</course><type>18</type></trkpt>
      <trkpt lat="41.07583" lon="-3.717575"><ele>2309</ele><speed>32</speed><time>2016-10-08T12:31:38Z</time><course>179</course><type>18</type></trkpt>
      <trkpt lat="41.0757283" lon="-3.717595"><ele>2307</ele><speed>32</speed><time>2016-10-08T12:31:39Z</time><course>185</course><type>18</type></trkpt>
      <trkpt lat="41.0756416" lon="-3.7176117"><ele>2305</ele><speed>30</speed><time>2016-10-08T12:31:40Z</time><course>186</course><type>18</type></trkpt>
      <trkpt lat="41.0755533" lon="-3.71763"><ele>2303</ele><speed>29</speed><time>2016-10-08T12:31:41Z</time><course>187</course><type>18</type></trkpt>
      <trkpt lat="41.075465" lon="-3.717655"><ele>2302</ele><speed>30</speed><time>2016-10-08T12:31:42Z</time><course>189</course><type>18</type></trkpt>
      <trkpt lat="41.0753766" lon="-3.7176817"><ele>2301</ele><speed>32</speed><time>2016-10-08T12:31:43Z</time><course>191</course><type>18</type></trkpt>
      <trkpt lat="41.0752816" lon="-3.717705"><ele>2299</ele><speed>34</speed><time>2016-10-08T12:31:44Z</time><course>191</course><type>18</type></trkpt>
      <trkpt lat="41.07519" lon="-3.7177417"><ele>2297</ele><speed>35</speed><time>2016-10-08T12:31:45Z</time><course>194</course><type>18</type></trkpt>
      <trkpt lat="41.075105" lon="-3.7177834"><ele>2296</ele><speed>33</speed><time>2016-10-08T12:31:46Z</time><course>198</course><type>18</type></trkpt>
      <trkpt lat="41.0750283" lon="-3.7178384"><ele>2294</ele><speed>32</speed><time>2016-10-08T12:31:47Z</time><course>202</course><type>18</type></trkpt>
      <trkpt lat="41.0749516" lon="-3.7178967"><ele>2293</ele><speed>31</speed><time>2016-10-08T12:31:48Z</time><course>207</course><type>18</type></trkpt>
      <trkpt lat="41.074885" lon="-3.71797"><ele>2291</ele><speed>30</speed><time>2016-10-08T12:31:49Z</time><course>212</course><type>18</type></trkpt>
      <trkpt lat="41.074825" lon="-3.71803"><ele>2290</ele><speed>28</speed><time>2016-10-08T12:31:50Z</time><course>216</course><type>18</type></trkpt>
      <trkpt lat="41.0747666" lon="-3.718095"><ele>2289</ele><speed>27</speed><time>2016-10-08T12:31:51Z</time><course>218</course><type>18</type></trkpt>
      <trkpt lat="41.0746516" lon="-3.7181434"><ele>2287</ele><speed>24</speed><time>2016-10-08T12:31:53Z</time><course>210</course><type>18</type></trkpt>
      <trkpt lat="41.0745416" lon="-3.71824"><ele>2285</ele><speed>22</speed><time>2016-10-08T12:31:55Z</time><course>211</course><type>18</type></trkpt>
      <trkpt lat="41.0744133" lon="-3.718395"><ele>2282</ele><speed>28</speed><time>2016-10-08T12:31:57Z</time><course>220</course><type>18</type></trkpt>
      <trkpt lat="41.0743599" lon="-3.718465"><ele>2281</ele><speed>28</speed><time>2016-10-08T12:31:58Z</time><course>222</course><type>18</type></trkpt>
      <trkpt lat="41.0742483" lon="-3.7185934"><ele>2278</ele><speed>27</speed><time>2016-10-08T12:32:00Z</time><course>222</course><type>18</type></trkpt>
      <trkpt lat="41.0741233" lon="-3.7187117"><ele>2278</ele><speed>28</speed><time>2016-10-08T12:32:02Z</time><course>209</course><type>18</type></trkpt>
      <trkpt lat="41.073985" lon="-3.7187934"><ele>2276</ele><speed>28</speed><time>2016-10-08T12:32:04Z</time><course>203</course><type>18</type></trkpt>
      <trkpt lat="41.0739133" lon="-3.7188351"><ele>2275</ele><speed>28</speed><time>2016-10-08T12:32:05Z</time><course>202</course><type>18</type></trkpt>
      <trkpt lat="41.07378" lon="-3.7188884"><ele>2274</ele><speed>30</speed><time>2016-10-08T12:32:07Z</time><course>203</course><type>18</type></trkpt>
      <trkpt lat="41.0737083" lon="-3.7189251"><ele>2273</ele><speed>32</speed><time>2016-10-08T12:32:08Z</time><course>198</course><type>18</type></trkpt>
      <trkpt lat="41.0736316" lon="-3.7189567"><ele>2272</ele><speed>32</speed><time>2016-10-08T12:32:09Z</time><course>197</course><type>18</type></trkpt>
      <trkpt lat="41.0735583" lon="-3.718985"><ele>2271</ele><speed>31</speed><time>2016-10-08T12:32:10Z</time><course>197</course><type>18</type></trkpt>
      <trkpt lat="41.0734216" lon="-3.719055"><ele>2270</ele><speed>28</speed><time>2016-10-08T12:32:12Z</time><course>201</course><type>18</type></trkpt>
      <trkpt lat="41.0733516" lon="-3.719095"><ele>2269</ele><speed>29</speed><time>2016-10-08T12:32:13Z</time><course>207</course><type>18</type></trkpt>
      <trkpt lat="41.0732899" lon="-3.7191467"><ele>2267</ele><speed>29</speed><time>2016-10-08T12:32:14Z</time><course>212</course><type>18</type></trkpt>
      <trkpt lat="41.0732466" lon="-3.7192417"><ele>2266</ele><speed>29</speed><time>2016-10-08T12:32:15Z</time><course>229</course><type>18</type></trkpt>
      <trkpt lat="41.0732183" lon="-3.7193217"><ele>2265</ele><speed>24</speed><time>2016-10-08T12:32:16Z</time><course>237</course><type>18</type></trkpt>
      <trkpt lat="41.073255" lon="-3.7193967"><ele>2263</ele><speed>19</speed><time>2016-10-08T12:32:17Z</time><course>271</course><type>18</type></trkpt>
      <trkpt lat="41.0732899" lon="-3.7194834"><ele>2261</ele><speed>19</speed><time>2016-10-08T12:32:18Z</time><course>289</course><type>18</type></trkpt>
      <trkpt lat="41.0733433" lon="-3.7195667"><ele>2260</ele><speed>21</speed><time>2016-10-08T12:32:19Z</time><course>305</course><type>18</type></trkpt>
      <trkpt lat="41.07343" lon="-3.7196217"><ele>2258</ele><speed>28</speed><time>2016-10-08T12:32:20Z</time><course>329</course><type>18</type></trkpt>
      <trkpt lat="41.0735033" lon="-3.7196617"><ele>2257</ele><speed>29</speed><time>2016-10-08T12:32:21Z</time><course>336</course><type>18</type></trkpt>
      <trkpt lat="41.0735783" lon="-3.719685"><ele>2256</ele><speed>29</speed><time>2016-10-08T12:32:22Z</time><course>341</course><type>18</type></trkpt>
      <trkpt lat="41.073665" lon="-3.7197034"><ele>2254</ele><speed>30</speed><time>2016-10-08T12:32:23Z</time><course>345</course><type>18</type></trkpt>
      <trkpt lat="41.0737433" lon="-3.71972"><ele>2253</ele><speed>29</speed><time>2016-10-08T12:32:24Z</time><course>349</course><type>18</type></trkpt>
      <trkpt lat="41.0738233" lon="-3.7197234"><ele>2252</ele><speed>29</speed><time>2016-10-08T12:32:25Z</time><course>353</course><type>18</type></trkpt>
      <trkpt lat="41.0739016" lon="-3.719725"><ele>2250</ele><speed>28</speed><time>2016-10-08T12:32:26Z</time><course>356</course><type>18</type></trkpt>
      <trkpt lat="41.0739766" lon="-3.71973"><ele>2249</ele><speed>29</speed><time>2016-10-08T12:32:27Z</time><course>354</course><type>18</type></trkpt>
      <trkpt lat="41.0740566" lon="-3.71973"><ele>2248</ele><speed>29</speed><time>2016-10-08T12:32:28Z</time><course>353</course><type>18</type></trkpt>
      <trkpt lat="41.07413" lon="-3.719745"><ele>2247</ele><speed>28</speed><time>2016-10-08T12:32:29Z</time><course>349</course><type>18</type></trkpt>
      <trkpt lat="41.074195" lon="-3.7197684"><ele>2246</ele><speed>27</speed><time>2016-10-08T12:32:30Z</time><course>345</course><type>18</type></trkpt>
      <trkpt lat="41.0742533" lon="-3.7198"><ele>2245</ele><speed>25</speed><time>2016-10-08T12:32:31Z</time><course>341</course><type>18</type></trkpt>
      <trkpt lat="41.0742833" lon="-3.7198667"><ele>2244</ele><speed>22</speed><time>2016-10-08T12:32:32Z</time><course>317</course><type>18</type></trkpt>
      <trkpt lat="41.07431" lon="-3.71993"><ele>2243</ele><speed>21</speed><time>2016-10-08T12:32:33Z</time><course>307</course><type>18</type></trkpt>
      <trkpt lat="41.0743333" lon="-3.7200734"><ele>2241</ele><speed>21</speed><time>2016-10-08T12:32:35Z</time><course>286</course><type>18</type></trkpt>
      <trkpt lat="41.0743233" lon="-3.7201684"><ele>2240</ele><speed>23</speed><time>2016-10-08T12:32:36Z</time><course>271</course><type>18</type></trkpt>
      <trkpt lat="41.0743166" lon="-3.72026"><ele>2239</ele><speed>25</speed><time>2016-10-08T12:32:37Z</time><course>265</course><type>18</type></trkpt>
      <trkpt lat="41.0742983" lon="-3.7203667"><ele>2238</ele><speed>29</speed><time>2016-10-08T12:32:38Z</time><course>259</course><type>18</type></trkpt>
      <trkpt lat="41.0742716" lon="-3.7204667"><ele>2237</ele><speed>30</speed><time>2016-10-08T12:32:39Z</time><course>253</course><type>18</type></trkpt>
      <trkpt lat="41.0742283" lon="-3.7205534"><ele>2236</ele><speed>30</speed><time>2016-10-08T12:32:40Z</time><course>247</course><type>18</type></trkpt>
      <trkpt lat="41.07417" lon="-3.7206267"><ele>2235</ele><speed>30</speed><time>2016-10-08T12:32:41Z</time><course>237</course><type>18</type></trkpt>
      <trkpt lat="41.07411" lon="-3.7206867"><ele>2234</ele><speed>31</speed><time>2016-10-08T12:32:42Z</time><course>228</course><type>18</type></trkpt>
      <trkpt lat="41.0740449" lon="-3.720745"><ele>2233</ele><speed>32</speed><time>2016-10-08T12:32:43Z</time><course>222</course><type>18</type></trkpt>
      <trkpt lat="41.0739583" lon="-3.7207784"><ele>2232</ele><speed>34</speed><time>2016-10-08T12:32:44Z</time><course>212</course><type>18</type></trkpt>
      <trkpt lat="41.0738616" lon="-3.7207667"><ele>2231</ele><speed>35</speed><time>2016-10-08T12:32:45Z</time><course>198</course><type>18</type></trkpt>
      <trkpt lat="41.0737633" lon="-3.7207817"><ele>2230</ele><speed>36</speed><time>2016-10-08T12:32:46Z</time><course>195</course><type>18</type></trkpt>
      <trkpt lat="41.073675" lon="-3.72079"><ele>2229</ele><speed>36</speed><time>2016-10-08T12:32:47Z</time><course>195</course><type>18</type></trkpt>
      <trkpt lat="41.0735949" lon="-3.7208067"><ele>2228</ele><speed>35</speed><time>2016-10-08T12:32:48Z</time><course>195</course><type>18</type></trkpt>
      <trkpt lat="41.07348" lon="-3.7208334"><ele>2227</ele><speed>27</speed><time>2016-10-08T12:32:50Z</time><course>203</course><type>18</type></trkpt>
      <trkpt lat="41.07336" lon="-3.7208617"><ele>2225</ele><speed>26</speed><time>2016-10-08T12:32:52Z</time><course>202</course><type>18</type></trkpt>
      <trkpt lat="41.07324" lon="-3.7209084"><ele>2223</ele><speed>22</speed><time>2016-10-08T12:32:54Z</time><course>205</course><type>18</type></trkpt>
      <trkpt lat="41.07314" lon="-3.7209684"><ele>2222</ele><speed>20</speed><time>2016-10-08T12:32:56Z</time><course>210</course><type>18</type></trkpt>
      <trkpt lat="41.073045" lon="-3.7210167"><ele>2220</ele><speed>20</speed><time>2016-10-08T12:32:58Z</time><course>210</course><type>18</type></trkpt>
      <trkpt lat="41.0729966" lon="-3.7210517"><ele>2220</ele><speed>22</speed><time>2016-10-08T12:32:59Z</time><course>217</course><type>18</type></trkpt>
      <trkpt lat="41.0729383" lon="-3.7210967"><ele>2219</ele><speed>24</speed><time>2016-10-08T12:33:00Z</time><course>214</course><type>18</type></trkpt>
      <trkpt lat="41.0728816" lon="-3.72115"><ele>2218</ele><speed>27</speed><time>2016-10-08T12:33:01Z</time><course>217</course><type>18</type></trkpt>
      <trkpt lat="41.0728233" lon="-3.7212067"><ele>2217</ele><speed>28</speed><time>2016-10-08T12:33:02Z</time><course>218</course><type>18</type></trkpt>
      <trkpt lat="41.0727633" lon="-3.7212684"><ele>2217</ele><speed>29</speed><time>2016-10-08T12:33:03Z</time><course>218</course><type>18</type></trkpt>
      <trkpt lat="41.0727116" lon="-3.721315"><ele>2216</ele><speed>28</speed><time>2016-10-08T12:33:04Z</time><course>215</course><type>18</type></trkpt>
      <trkpt lat="41.0726599" lon="-3.7213534"><ele>2216</ele><speed>26</speed><time>2016-10-08T12:33:05Z</time><course>211</course><type>18</type></trkpt>
      <trkpt lat="41.0726033" lon="-3.7213934"><ele>2215</ele><speed>25</speed><time>2016-10-08T12:33:06Z</time><course>209</course><type>18</type></trkpt>
      <trkpt lat="41.072545" lon="-3.7214384"><ele>2214</ele><speed>24</speed><time>2016-10-08T12:33:07Z</time><course>211</course><type>18</type></trkpt>
      <trkpt lat="41.0724966" lon="-3.7215034"><ele>2214</ele><speed>25</speed><time>2016-10-08T12:33:08Z</time><course>222</course><type>18</type></trkpt>
      <trkpt lat="41.07245" lon="-3.7215617"><ele>2213</ele><speed>25</speed><time>2016-10-08T12:33:09Z</time><course>222</course><type>18</type></trkpt>
      <trkpt lat="41.072405" lon="-3.7216317"><ele>2212</ele><speed>27</speed><time>2016-10-08T12:33:10Z</time><course>226</course><type>18</type></trkpt>
      <trkpt lat="41.0723716" lon="-3.7216967"><ele>2212</ele><speed>25</speed><time>2016-10-08T12:33:11Z</time><course>229</course><type>18</type></trkpt>
      <trkpt lat="41.0723383" lon="-3.721795"><ele>2211</ele><speed>18</speed><time>2016-10-08T12:33:13Z</time><course>239</course><type>18</type></trkpt>
      <trkpt lat="41.0723283" lon="-3.721875"><ele>2211</ele><speed>13</speed><time>2016-10-08T12:33:15Z</time><course>252</course><type>18</type></trkpt>
      <trkpt lat="41.0723583" lon="-3.72197"><ele>2210</ele><speed>14</speed><time>2016-10-08T12:33:17Z</time><course>287</course><type>18</type></trkpt>
      <trkpt lat="41.072405" lon="-3.72201"><ele>2210</ele><speed>15</speed><time>2016-10-08T12:33:18Z</time><course>310</course><type>18</type></trkpt>
      <trkpt lat="41.07247" lon="-3.7219967"><ele>2209</ele><speed>11</speed><time>2016-10-08T12:33:21Z</time><course>11</course><type>18</type></trkpt>
      <trkpt lat="41.0725366" lon="-3.7219534"><ele>2209</ele><speed>15</speed><time>2016-10-08T12:33:22Z</time><course>23</course><type>18</type></trkpt>
      <trkpt lat="41.0726" lon="-3.7217867"><ele>2208</ele><speed>14</speed><time>2016-10-08T12:33:24Z</time><course>94</course><type>18</type></trkpt>
      <trkpt lat="41.07268" lon="-3.721725"><ele>2208</ele><speed>9</speed><time>2016-10-08T12:33:26Z</time><course>100</course><type>18</type></trkpt>
      <trkpt lat="41.0726016" lon="-3.72168"><ele>2208</ele><speed>17</speed><time>2016-10-08T12:33:28Z</time><course>172</course><type>18</type></trkpt>
      <trkpt lat="41.0725166" lon="-3.72154"><ele>2209</ele><speed>11</speed><time>2016-10-08T12:33:30Z</time><course>197</course><type>18</type></trkpt>
      <trkpt lat="41.07245" lon="-3.7215567"><ele>2210</ele><speed>14</speed><time>2016-10-08T12:33:33Z</time><course>242</course><type>18</type></trkpt>
      <trkpt lat="41.0724349" lon="-3.7216534"><ele>2211</ele><speed>21</speed><time>2016-10-08T12:33:36Z</time><course>301</course><type>18</type></trkpt>
      <trkpt lat="41.0725416" lon="-3.7216984"><ele>2211</ele><speed>20</speed><time>2016-10-08T12:33:38Z</time><course>334</course><type>18</type></trkpt>
      <trkpt lat="41.072545" lon="-3.721775"><ele>2213</ele><speed>19</speed><time>2016-10-08T12:33:39Z</time><course>334</course><type>18</type></trkpt>
      <trkpt lat="41.0726183" lon="-3.7217767"><ele>2214</ele><speed>20</speed><time>2016-10-08T12:33:41Z</time><course>357</course><type>18</type></trkpt>
      <trkpt lat="41.072715" lon="-3.7216617"><ele>2214</ele><speed>32</speed><time>2016-10-08T12:33:42Z</time><course>26</course><type>18</type></trkpt>
      <trkpt lat="41.072765" lon="-3.7215834"><ele>2215</ele><speed>30</speed><time>2016-10-08T12:33:43Z</time><course>34</course><type>18</type></trkpt>
      <trkpt lat="41.0728366" lon="-3.7214417"><ele>2215</ele><speed>25</speed><time>2016-10-08T12:33:45Z</time><course>41</course><type>18</type></trkpt>
      <trkpt lat="41.0727733" lon="-3.7212534"><ele>2215</ele><speed>16</speed><time>2016-10-08T12:33:47Z</time><course>73</course><type>18</type></trkpt>
      <trkpt lat="41.0727016" lon="-3.7211217"><ele>2216</ele><speed>19</speed><time>2016-10-08T12:33:48Z</time><course>95</course><type>18</type></trkpt>
      <trkpt lat="41.0726316" lon="-3.7209867"><ele>2216</ele><speed>23</speed><time>2016-10-08T12:33:49Z</time><course>111</course><type>18</type></trkpt>
      <trkpt lat="41.0725633" lon="-3.7208734"><ele>2217</ele><speed>26</speed><time>2016-10-08T12:33:50Z</time><course>126</course><type>18</type></trkpt>
      <trkpt lat="41.07247" lon="-3.72078"><ele>2217</ele><speed>31</speed><time>2016-10-08T12:33:51Z</time><course>138</course><type>18</type></trkpt>
      <trkpt lat="41.07237" lon="-3.720685"><ele>2217</ele><speed>35</speed><time>2016-10-08T12:33:52Z</time><course>143</course><type>18</type></trkpt>
      <trkpt lat="41.0722716" lon="-3.7206217"><ele>2218</ele><speed>36</speed><time>2016-10-08T12:33:53Z</time><course>150</course><type>18</type></trkpt>
      <trkpt lat="41.0721883" lon="-3.7205884"><ele>2218</ele><speed>32</speed><time>2016-10-08T12:33:54Z</time><course>155</course><type>18</type></trkpt>
      <trkpt lat="41.0721166" lon="-3.7205967"><ele>2218</ele><speed>28</speed><time>2016-10-08T12:33:55Z</time><course>163</course><type>18</type></trkpt>
      <trkpt lat="41.0720416" lon="-3.720475"><ele>2219</ele><speed>25</speed><time>2016-10-08T12:33:56Z</time><course>159</course><type>18</type></trkpt>
      <trkpt lat="41.0719833" lon="-3.7204267"><ele>2220</ele><speed>22</speed><time>2016-10-08T12:33:57Z</time><course>160</course><type>18</type></trkpt>
      <trkpt lat="41.0719233" lon="-3.7204217"><ele>2220</ele><speed>20</speed><time>2016-10-08T12:33:58Z</time><course>170</course><type>18</type></trkpt>
      <trkpt lat="41.0718566" lon="-3.72045"><ele>2220</ele><speed>12</speed><time>2016-10-08T12:34:00Z</time><course>198</course><type>18</type></trkpt>
      <trkpt lat="41.0718049" lon="-3.7206634"><ele>2222</ele><speed>23</speed><time>2016-10-08T12:34:03Z</time><course>258</course><type>18</type></trkpt>
      <trkpt lat="41.07181" lon="-3.7207717"><ele>2224</ele><speed>11</speed><time>2016-10-08T12:34:06Z</time><course>265</course><type>18</type></trkpt>
      <trkpt lat="41.071785" lon="-3.7208617"><ele>2226</ele><speed>14</speed><time>2016-10-08T12:34:08Z</time><course>282</course><type>18</type></trkpt>
      <trkpt lat="41.0718033" lon="-3.7209784"><ele>2229</ele><speed>23</speed><time>2016-10-08T12:34:10Z</time><course>300</course><type>18</type></trkpt>
      <trkpt lat="41.0718383" lon="-3.721045"><ele>2230</ele><speed>24</speed><time>2016-10-08T12:34:11Z</time><course>311</course><type>18</type></trkpt>
      <trkpt lat="41.071875" lon="-3.7211117"><ele>2230</ele><speed>24</speed><time>2016-10-08T12:34:12Z</time><course>311</course><type>18</type></trkpt>
      <trkpt lat="41.071905" lon="-3.7211834"><ele>2231</ele><speed>22</speed><time>2016-10-08T12:34:13Z</time><course>308</course><type>18</type></trkpt>
      <trkpt lat="41.0719766" lon="-3.721285"><ele>2232</ele><speed>23</speed><time>2016-10-08T12:34:15Z</time><course>301</course><type>18</type></trkpt>
      <trkpt lat="41.07199" lon="-3.7213617"><ele>2233</ele><speed>22</speed><time>2016-10-08T12:34:16Z</time><course>297</course><type>18</type></trkpt>
      <trkpt lat="41.0720183" lon="-3.7214234"><ele>2233</ele><speed>23</speed><time>2016-10-08T12:34:17Z</time><course>300</course><type>18</type></trkpt>
      <trkpt lat="41.072045" lon="-3.7215034"><ele>2234</ele><speed>24</speed><time>2016-10-08T12:34:18Z</time><course>308</course><type>18</type></trkpt>
      <trkpt lat="41.0720866" lon="-3.7215667"><ele>2235</ele><speed>23</speed><time>2016-10-08T12:34:19Z</time><course>315</course><type>18</type></trkpt>
      <trkpt lat="41.0721666" lon="-3.7216084"><ele>2237</ele><speed>15</speed><time>2016-10-08T12:34:21Z</time><course>338</course><type>18</type></trkpt>
      <trkpt lat="41.0723233" lon="-3.7214884"><ele>2243</ele><speed>27</speed><time>2016-10-08T12:34:26Z</time><course>46</course><type>18</type></trkpt>
      <trkpt lat="41.0724233" lon="-3.7213284"><ele>2245</ele><speed>25</speed><time>2016-10-08T12:34:28Z</time><course>57</course><type>18</type></trkpt>
      <trkpt lat="41.0724366" lon="-3.7212334"><ele>2246</ele><speed>25</speed><time>2016-10-08T12:34:29Z</time><course>66</course><type>18</type></trkpt>
      <trkpt lat="41.0724266" lon="-3.7210384"><ele>2248</ele><speed>24</speed><time>2016-10-08T12:34:31Z</time><course>84</course><type>18</type></trkpt>
      <trkpt lat="41.0723766" lon="-3.7209167"><ele>2249</ele><speed>25</speed><time>2016-10-08T12:34:32Z</time><course>96</course><type>18</type></trkpt>
      <trkpt lat="41.0722666" lon="-3.7208517"><ele>2250</ele><speed>26</speed><time>2016-10-08T12:34:33Z</time><course>131</course><type>18</type></trkpt>
      <trkpt lat="41.072175" lon="-3.7207734"><ele>2251</ele><speed>29</speed><time>2016-10-08T12:34:34Z</time><course>138</course><type>18</type></trkpt>
      <trkpt lat="41.0720683" lon="-3.7207151"><ele>2252</ele><speed>35</speed><time>2016-10-08T12:34:35Z</time><course>148</course><type>18</type></trkpt>
      <trkpt lat="41.0719833" lon="-3.720665"><ele>2252</ele><speed>35</speed><time>2016-10-08T12:34:36Z</time><course>153</course><type>18</type></trkpt>
      <trkpt lat="41.0718966" lon="-3.7206284"><ele>2253</ele><speed>34</speed><time>2016-10-08T12:34:37Z</time><course>157</course><type>18</type></trkpt>
      <trkpt lat="41.0717866" lon="-3.7205867"><ele>2254</ele><speed>22</speed><time>2016-10-08T12:34:39Z</time><course>158</course><type>18</type></trkpt>
      <trkpt lat="41.0717366" lon="-3.720665"><ele>2254</ele><speed>19</speed><time>2016-10-08T12:34:40Z</time><course>198</course><type>18</type></trkpt>
      <trkpt lat="41.071635" lon="-3.7207017"><ele>2255</ele><speed>18</speed><time>2016-10-08T12:34:42Z</time><course>202</course><type>18</type></trkpt>
      <trkpt lat="41.0715483" lon="-3.720735"><ele>2256</ele><speed>16</speed><time>2016-10-08T12:34:44Z</time><course>205</course><type>18</type></trkpt>
      <trkpt lat="41.0714766" lon="-3.720775"><ele>2257</ele><speed>13</speed><time>2016-10-08T12:34:46Z</time><course>211</course><type>18</type></trkpt>
      <trkpt lat="41.0714116" lon="-3.7208267"><ele>2259</ele><speed>10</speed><time>2016-10-08T12:34:48Z</time><course>213</course><type>18</type></trkpt>
      <trkpt lat="41.0713583" lon="-3.7209434"><ele>2260</ele><speed>9</speed><time>2016-10-08T12:34:51Z</time><course>243</course><type>18</type></trkpt>
      <trkpt lat="41.0713533" lon="-3.7210467"><ele>2261</ele><speed>12</speed><time>2016-10-08T12:34:53Z</time><course>272</course><type>18</type></trkpt>
      <trkpt lat="41.07133" lon="-3.7211834"><ele>2261</ele><speed>16</speed><time>2016-10-08T12:34:55Z</time><course>265</course><type>18</type></trkpt>
      <trkpt lat="41.071285" lon="-3.7213367"><ele>2262</ele><speed>19</speed><time>2016-10-08T12:34:57Z</time><course>250</course><type>18</type></trkpt>
      <trkpt lat="41.071235" lon="-3.7214967"><ele>2262</ele><speed>23</speed><time>2016-10-08T12:34:59Z</time><course>245</course><type>18</type></trkpt>
      <trkpt lat="41.0712083" lon="-3.72159"><ele>2263</ele><speed>26</speed><time>2016-10-08T12:35:00Z</time><course>248</course><type>18</type></trkpt>
      <trkpt lat="41.071185" lon="-3.7216834"><ele>2263</ele><speed>25</speed><time>2016-10-08T12:35:01Z</time><course>251</course><type>18</type></trkpt>
      <trkpt lat="41.0711416" lon="-3.721855"><ele>2263</ele><speed>22</speed><time>2016-10-08T12:35:03Z</time><course>253</course><type>18</type></trkpt>
      <trkpt lat="41.07112" lon="-3.7219467"><ele>2264</ele><speed>26</speed><time>2016-10-08T12:35:04Z</time><course>253</course><type>18</type></trkpt>
      <trkpt lat="41.07109" lon="-3.7220517"><ele>2264</ele><speed>31</speed><time>2016-10-08T12:35:05Z</time><course>250</course><type>18</type></trkpt>
      <trkpt lat="41.0710483" lon="-3.722155"><ele>2264</ele><speed>31</speed><time>2016-10-08T12:35:06Z</time><course>242</course><type>18</type></trkpt>
      <trkpt lat="41.0709783" lon="-3.7222434"><ele>2264</ele><speed>37</speed><time>2016-10-08T12:35:07Z</time><course>222</course><type>18</type></trkpt>
      <trkpt lat="41.0709066" lon="-3.7223084"><ele>2264</ele><speed>38</speed><time>2016-10-08T12:35:08Z</time><course>207</course><type>18</type></trkpt>
      <trkpt lat="41.07082" lon="-3.7223684"><ele>2264</ele><speed>38</speed><time>2016-10-08T12:35:09Z</time><course>202</course><type>18</type></trkpt>
      <trkpt lat="41.0707316" lon="-3.7224151"><ele>2265</ele><speed>37</speed><time>2016-10-08T12:35:10Z</time><course>200</course><type>18</type></trkpt>
      <trkpt lat="41.0706383" lon="-3.7224434"><ele>2265</ele><speed>34</speed><time>2016-10-08T12:35:11Z</time><course>193</course><type>18</type></trkpt>
      <trkpt lat="41.0705466" lon="-3.7224567"><ele>2265</ele><speed>31</speed><time>2016-10-08T12:35:12Z</time><course>188</course><type>18</type></trkpt>
      <trkpt lat="41.070465" lon="-3.72245"><ele>2265</ele><speed>27</speed><time>2016-10-08T12:35:13Z</time><course>182</course><type>18</type></trkpt>
      <trkpt lat="41.07038" lon="-3.7224234"><ele>2265</ele><speed>28</speed><time>2016-10-08T12:35:14Z</time><course>172</course><type>18</type></trkpt>
      <trkpt lat="41.0702916" lon="-3.7223817"><ele>2265</ele><speed>30</speed><time>2016-10-08T12:35:15Z</time><course>162</course><type>18</type></trkpt>
      <trkpt lat="41.070215" lon="-3.7223317"><ele>2265</ele><speed>30</speed><time>2016-10-08T12:35:16Z</time><course>156</course><type>18</type></trkpt>
      <trkpt lat="41.0701383" lon="-3.7222801"><ele>2265</ele><speed>30</speed><time>2016-10-08T12:35:17Z</time><course>153</course><type>18</type></trkpt>
      <trkpt lat="41.0700566" lon="-3.7222317"><ele>2266</ele><speed>30</speed><time>2016-10-08T12:35:18Z</time><course>152</course><type>18</type></trkpt>
      <trkpt lat="41.069985" lon="-3.722175"><ele>2266</ele><speed>30</speed><time>2016-10-08T12:35:19Z</time><course>150</course><type>18</type></trkpt>
      <trkpt lat="41.069925" lon="-3.722105"><ele>2266</ele><speed>29</speed><time>2016-10-08T12:35:20Z</time><course>147</course><type>18</type></trkpt>
      <trkpt lat="41.06985" lon="-3.722025"><ele>2266</ele><speed>31</speed><time>2016-10-08T12:35:21Z</time><course>145</course><type>18</type></trkpt>
      <trkpt lat="41.0697766" lon="-3.7218234"><ele>2266</ele><speed>29</speed><time>2016-10-08T12:35:23Z</time><course>131</course><type>18</type></trkpt>
      <trkpt lat="41.0697883" lon="-3.7216717"><ele>2266</ele><speed>30</speed><time>2016-10-08T12:35:24Z</time><course>116</course><type>18</type></trkpt>
      <trkpt lat="41.06984" lon="-3.7214117"><ele>2266</ele><speed>36</speed><time>2016-10-08T12:35:25Z</time><course>100</course><type>18</type></trkpt>
      <trkpt lat="41.0698983" lon="-3.7211767"><ele>2267</ele><speed>41</speed><time>2016-10-08T12:35:26Z</time><course>89</course><type>18</type></trkpt>
      <trkpt lat="41.0699283" lon="-3.72097"><ele>2267</ele><speed>44</speed><time>2016-10-08T12:35:27Z</time><course>85</course><type>18</type></trkpt>
      <trkpt lat="41.06994" lon="-3.72083"><ele>2267</ele><speed>40</speed><time>2016-10-08T12:35:28Z</time><course>87</course><type>18</type></trkpt>
      <trkpt lat="41.0699483" lon="-3.720705"><ele>2267</ele><speed>40</speed><time>2016-10-08T12:35:29Z</time><course>83</course><type>18</type></trkpt>
      <trkpt lat="41.0699733" lon="-3.7205634"><ele>2268</ele><speed>41</speed><time>2016-10-08T12:35:30Z</time><course>80</course><type>18</type></trkpt>
      <trkpt lat="41.0699983" lon="-3.7203867"><ele>2268</ele><speed>49</speed><time>2016-10-08T12:35:31Z</time><course>77</course><type>18</type></trkpt>
      <trkpt lat="41.070005" lon="-3.7201717"><ele>2268</ele><speed>49</speed><time>2016-10-08T12:35:32Z</time><course>78</course><type>18</type></trkpt>
      <trkpt lat="41.07002" lon="-3.7199984"><ele>2269</ele><speed>46</speed><time>2016-10-08T12:35:33Z</time><course>84</course><type>18</type></trkpt>
      <trkpt lat="41.0700333" lon="-3.7198367"><ele>2270</ele><speed>46</speed><time>2016-10-08T12:35:34Z</time><course>88</course><type>18</type></trkpt>
      <trkpt lat="41.0700416" lon="-3.7196901"><ele>2270</ele><speed>45</speed><time>2016-10-08T12:35:35Z</time><course>90</course><type>18</type></trkpt>
      <trkpt lat="41.0700516" lon="-3.7195534"><ele>2271</ele><speed>43</speed><time>2016-10-08T12:35:36Z</time><course>92</course><type>18</type></trkpt>
      <trkpt lat="41.0700633" lon="-3.7194067"><ele>2272</ele><speed>44</speed><time>2016-10-08T12:35:37Z</time><course>99</course><type>18</type></trkpt>
      <trkpt lat="41.0700566" lon="-3.7192534"><ele>2274</ele><speed>47</speed><time>2016-10-08T12:35:38Z</time><course>108</course><type>18</type></trkpt>
      <trkpt lat="41.0700166" lon="-3.7191034"><ele>2275</ele><speed>47</speed><time>2016-10-08T12:35:39Z</time><course>113</course><type>18</type></trkpt>
      <trkpt lat="41.0699416" lon="-3.7190217"><ele>2277</ele><speed>46</speed><time>2016-10-08T12:35:40Z</time><course>131</course><type>18</type></trkpt>
      <trkpt lat="41.0698583" lon="-3.7189284"><ele>2278</ele><speed>46</speed><time>2016-10-08T12:35:41Z</time><course>137</course><type>18</type></trkpt>
      <trkpt lat="41.069775" lon="-3.7188534"><ele>2279</ele><speed>44</speed><time>2016-10-08T12:35:42Z</time><course>141</course><type>18</type></trkpt>
      <trkpt lat="41.069695" lon="-3.7187917"><ele>2279</ele><speed>41</speed><time>2016-10-08T12:35:43Z</time><course>144</course><type>18</type></trkpt>
      <trkpt lat="41.0696199" lon="-3.7187384"><ele>2280</ele><speed>40</speed><time>2016-10-08T12:35:44Z</time><course>145</course><type>18</type></trkpt>
      <trkpt lat="41.069565" lon="-3.71889"><ele>2280</ele><speed>34</speed><time>2016-10-08T12:35:45Z</time><course>158</course><type>18</type></trkpt>
      <trkpt lat="41.0694866" lon="-3.7188667"><ele>2280</ele><speed>31</speed><time>2016-10-08T12:35:46Z</time><course>161</course><type>18</type></trkpt>
      <trkpt lat="41.0693883" lon="-3.7188034"><ele>2281</ele><speed>29</speed><time>2016-10-08T12:35:47Z</time><course>164</course><type>18</type></trkpt>
      <trkpt lat="41.0693283" lon="-3.7188784"><ele>2282</ele><speed>24</speed><time>2016-10-08T12:35:48Z</time><course>185</course><type>18</type></trkpt>
      <trkpt lat="41.069255" lon="-3.7189217"><ele>2282</ele><speed>26</speed><time>2016-10-08T12:35:49Z</time><course>190</course><type>18</type></trkpt>
      <trkpt lat="41.069185" lon="-3.7189584"><ele>2283</ele><speed>26</speed><time>2016-10-08T12:35:50Z</time><course>192</course><type>18</type></trkpt>
      <trkpt lat="41.0690466" lon="-3.7190151"><ele>2283</ele><speed>27</speed><time>2016-10-08T12:35:52Z</time><course>191</course><type>18</type></trkpt>
      <trkpt lat="41.06891" lon="-3.7190617"><ele>2284</ele><speed>27</speed><time>2016-10-08T12:35:54Z</time><course>190</course><type>18</type></trkpt>
      <trkpt lat="41.06882" lon="-3.7190034"><ele>2285</ele><speed>19</speed><time>2016-10-08T12:35:57Z</time><course>180</course><type>18</type></trkpt>
      <trkpt lat="41.068395" lon="-3.718235"><ele>2286</ele><speed>23</speed><time>2016-10-08T12:36:00Z</time><course>155</course><type>18</type></trkpt>
      <trkpt lat="41.068415" lon="-3.7179567"><ele>2291</ele><speed>33</speed><time>2016-10-08T12:36:04Z</time><course>128</course><type>18</type></trkpt>
      <trkpt lat="41.068285" lon="-3.717875"><ele>2288</ele><speed>37</speed><time>2016-10-08T12:36:05Z</time><course>136</course><type>18</type></trkpt>
      <trkpt lat="41.068845" lon="-3.7178034"><ele>2301</ele><speed>30</speed><time>2016-10-08T12:36:06Z</time><course>128</course><type>18</type></trkpt>
      <trkpt lat="41.0687233" lon="-3.7176484"><ele>2293</ele><speed>27</speed><time>2016-10-08T12:36:08Z</time><course>127</course><type>18</type></trkpt>
      <trkpt lat="41.0691249" lon="-3.71757"><ele>2294</ele><speed>22</speed><time>2016-10-08T12:36:09Z</time><course>120</course><type>18</type></trkpt>
      <trkpt lat="41.0693433" lon="-3.7174584"><ele>2293</ele><speed>19</speed><time>2016-10-08T12:36:10Z</time><course>112</course><type>18</type></trkpt>
      <trkpt lat="41.0694733" lon="-3.7174"><ele>2294</ele><speed>14</speed><time>2016-10-08T12:36:11Z</time><course>107</course><type>18</type></trkpt>
      <trkpt lat="41.0696716" lon="-3.7174284"><ele>2295</ele><speed>9</speed><time>2016-10-08T12:36:12Z</time><course>81</course><type>18</type></trkpt>
      <trkpt lat="41.0698116" lon="-3.7174684"><ele>2296</ele><speed>8</speed><time>2016-10-08T12:36:13Z</time><course>40</course><type>18</type></trkpt>
      <trkpt lat="41.0699966" lon="-3.7175134"><ele>2297</ele><speed>13</speed><time>2016-10-08T12:36:15Z</time><course>8</course><type>18</type></trkpt>
      <trkpt lat="41.0701083" lon="-3.7174767"><ele>2298</ele><speed>16</speed><time>2016-10-08T12:36:17Z</time><course>18</course><type>18</type></trkpt>
      <trkpt lat="41.0702233" lon="-3.7174384"><ele>2299</ele><speed>19</speed><time>2016-10-08T12:36:19Z</time><course>21</course><type>18</type></trkpt>
      <trkpt lat="41.0703233" lon="-3.717455"><ele>2300</ele><speed>21</speed><time>2016-10-08T12:36:20Z</time><course>16</course><type>18</type></trkpt>
      <trkpt lat="41.0704299" lon="-3.7174367"><ele>2300</ele><speed>20</speed><time>2016-10-08T12:36:22Z</time><course>14</course><type>18</type></trkpt>
      <trkpt lat="41.0705383" lon="-3.7174117"><ele>2300</ele><speed>15</speed><time>2016-10-08T12:36:25Z</time><course>11</course><type>18</type></trkpt>
      <trkpt lat="41.0706683" lon="-3.7174084"><ele>2299</ele><speed>14</speed><time>2016-10-08T12:36:28Z</time><course>11</course><type>18</type></trkpt>
      <trkpt lat="41.0708016" lon="-3.7174484"><ele>2299</ele><speed>16</speed><time>2016-10-08T12:36:29Z</time><course>2</course><type>18</type></trkpt>
      <trkpt lat="41.0708416" lon="-3.7176034"><ele>2298</ele><speed>17</speed><time>2016-10-08T12:36:34Z</time><course>323</course><type>18</type></trkpt>
      <trkpt lat="41.0706233" lon="-3.7170667"><ele>2303</ele><speed>5</speed><time>2016-10-08T12:36:39Z</time><course>349</course><type>18</type></trkpt>
      <trkpt lat="41.0705416" lon="-3.716715"><ele>2304</ele><speed>6</speed><time>2016-10-08T12:36:40Z</time><course>35</course><type>18</type></trkpt>
      <trkpt lat="41.0704816" lon="-3.7163784"><ele>2306</ele><speed>9</speed><time>2016-10-08T12:36:41Z</time><course>68</course><type>18</type></trkpt>
      <trkpt lat="41.0705133" lon="-3.7160967"><ele>2307</ele><speed>11</speed><time>2016-10-08T12:36:42Z</time><course>75</course><type>18</type></trkpt>
      <trkpt lat="41.070435" lon="-3.7157567"><ele>2309</ele><speed>16</speed><time>2016-10-08T12:36:43Z</time><course>91</course><type>18</type></trkpt>
      <trkpt lat="41.0703883" lon="-3.7159167"><ele>2311</ele><speed>13</speed><time>2016-10-08T12:36:45Z</time><course>116</course><type>18</type></trkpt>
      <trkpt lat="41.0703433" lon="-3.7160617"><ele>2312</ele><speed>11</speed><time>2016-10-08T12:36:46Z</time><course>142</course><type>18</type></trkpt>
      <trkpt lat="41.070235" lon="-3.7162534"><ele>2313</ele><speed>24</speed><time>2016-10-08T12:36:47Z</time><course>195</course><type>18</type></trkpt>
      <trkpt lat="41.070135" lon="-3.71642"><ele>2313</ele><speed>21</speed><time>2016-10-08T12:36:49Z</time><course>215</course><type>18</type></trkpt>
      <trkpt lat="41.07006" lon="-3.71659"><ele>2314</ele><speed>21</speed><time>2016-10-08T12:36:51Z</time><course>225</course><type>18</type></trkpt>
      <trkpt lat="41.0700249" lon="-3.7167067"><ele>2314</ele><speed>21</speed><time>2016-10-08T12:36:52Z</time><course>230</course><type>18</type></trkpt>
      <trkpt lat="41.0699816" lon="-3.7168884"><ele>2315</ele><speed>21</speed><time>2016-10-08T12:36:54Z</time><course>235</course><type>18</type></trkpt>
      <trkpt lat="41.0699466" lon="-3.7167367"><ele>2315</ele><speed>19</speed><time>2016-10-08T12:36:56Z</time><course>240</course><type>18</type></trkpt>
      <trkpt lat="41.0699783" lon="-3.7165884"><ele>2316</ele><speed>12</speed><time>2016-10-08T12:36:59Z</time><course>259</course><type>18</type></trkpt>
      <trkpt lat="41.0700699" lon="-3.71652"><ele>2317</ele><speed>9</speed><time>2016-10-08T12:37:01Z</time><course>302</course><type>18</type></trkpt>
      <trkpt lat="41.0702" lon="-3.7164217"><ele>2318</ele><speed>11</speed><time>2016-10-08T12:37:03Z</time><course>358</course><type>18</type></trkpt>
      <trkpt lat="41.0702816" lon="-3.7162134"><ele>2319</ele><speed>19</speed><time>2016-10-08T12:37:06Z</time><course>46</course><type>18</type></trkpt>
      <trkpt lat="41.07033" lon="-3.7160717"><ele>2320</ele><speed>22</speed><time>2016-10-08T12:37:08Z</time><course>51</course><type>18</type></trkpt>
      <trkpt lat="41.0703466" lon="-3.7159"><ele>2322</ele><speed>21</speed><time>2016-10-08T12:37:13Z</time><course>61</course><type>18</type></trkpt>
      <trkpt lat="41.0704183" lon="-3.7157967"><ele>2323</ele><speed>19</speed><time>2016-10-08T12:37:15Z</time><course>60</course><type>18</type></trkpt>
      <trkpt lat="41.0703683" lon="-3.715955"><ele>2326</ele><speed>0</speed><time>2016-10-08T12:37:23Z</time><course>288</course><type>18</type></trkpt>
      <trkpt lat="41.07042" lon="-3.7160917"><ele>2327</ele><speed>11</speed><time>2016-10-08T12:37:26Z</time><course>296</course><type>18</type></trkpt>
      <trkpt lat="41.070555" lon="-3.7158534"><ele>2331</ele><speed>11</speed><time>2016-10-08T12:37:33Z</time><course>333</course><type>18</type></trkpt>
      <trkpt lat="41.0706099" lon="-3.7157217"><ele>2331</ele><speed>14</speed><time>2016-10-08T12:37:34Z</time><course>340</course><type>18</type></trkpt>
      <trkpt lat="41.070675" lon="-3.71555"><ele>2332</ele><speed>18</speed><time>2016-10-08T12:37:35Z</time><course>350</course><type>18</type></trkpt>
      <trkpt lat="41.0708233" lon="-3.7154167"><ele>2334</ele><speed>27</speed><time>2016-10-08T12:37:37Z</time><course>8</course><type>18</type></trkpt>
      <trkpt lat="41.0709533" lon="-3.7152967"><ele>2335</ele><speed>33</speed><time>2016-10-08T12:37:40Z</time><course>23</course><type>18</type></trkpt>
      <trkpt lat="41.0710516" lon="-3.7151784"><ele>2336</ele><speed>36</speed><time>2016-10-08T12:37:42Z</time><course>27</course><type>18</type></trkpt>
      <trkpt lat="41.0711616" lon="-3.715055"><ele>2337</ele><speed>35</speed><time>2016-10-08T12:37:44Z</time><course>29</course><type>18</type></trkpt>
      <trkpt lat="41.0712983" lon="-3.7149434"><ele>2338</ele><speed>34</speed><time>2016-10-08T12:37:46Z</time><course>28</course><type>18</type></trkpt>
      <trkpt lat="41.071375" lon="-3.7147184"><ele>2341</ele><speed>34</speed><time>2016-10-08T12:37:51Z</time><course>30</course><type>18</type></trkpt>
      <trkpt lat="41.07146" lon="-3.7145334"><ele>2341</ele><speed>35</speed><time>2016-10-08T12:37:53Z</time><course>29</course><type>18</type></trkpt>
      <trkpt lat="41.0717466" lon="-3.714465"><ele>2342</ele><speed>37</speed><time>2016-10-08T12:37:56Z</time><course>25</course><type>18</type></trkpt>
      <trkpt lat="41.0719016" lon="-3.7144534"><ele>2343</ele><speed>37</speed><time>2016-10-08T12:37:57Z</time><course>23</course><type>18</type></trkpt>
      <trkpt lat="41.072195" lon="-3.7144617"><ele>2343</ele><speed>39</speed><time>2016-10-08T12:37:59Z</time><course>23</course><type>18</type></trkpt>
      <trkpt lat="41.07236" lon="-3.7144034"><ele>2344</ele><speed>36</speed><time>2016-10-08T12:38:01Z</time><course>19</course><type>18</type></trkpt>
      <trkpt lat="41.0725033" lon="-3.71431"><ele>2345</ele><speed>29</speed><time>2016-10-08T12:38:03Z</time><course>25</course><type>18</type></trkpt>
      <trkpt lat="41.0727766" lon="-3.714365"><ele>2345</ele><speed>32</speed><time>2016-10-08T12:38:05Z</time><course>23</course><type>18</type></trkpt>
      <trkpt lat="41.0729416" lon="-3.7143184"><ele>2346</ele><speed>32</speed><time>2016-10-08T12:38:07Z</time><course>21</course><type>18</type></trkpt>
      <trkpt lat="41.0731216" lon="-3.7142717"><ele>2346</ele><speed>34</speed><time>2016-10-08T12:38:09Z</time><course>20</course><type>18</type></trkpt>
      <trkpt lat="41.0733183" lon="-3.7141984"><ele>2347</ele><speed>36</speed><time>2016-10-08T12:38:11Z</time><course>23</course><type>18</type></trkpt>
      <trkpt lat="41.07353" lon="-3.7141167"><ele>2348</ele><speed>38</speed><time>2016-10-08T12:38:13Z</time><course>23</course><type>18</type></trkpt>
      <trkpt lat="41.0736466" lon="-3.7139667"><ele>2348</ele><speed>40</speed><time>2016-10-08T12:38:15Z</time><course>23</course><type>18</type></trkpt>
      <trkpt lat="41.0737883" lon="-3.7138267"><ele>2349</ele><speed>40</speed><time>2016-10-08T12:38:17Z</time><course>24</course><type>18</type></trkpt>
      <trkpt lat="41.0738916" lon="-3.7136934"><ele>2350</ele><speed>36</speed><time>2016-10-08T12:38:19Z</time><course>23</course><type>18</type></trkpt>
      <trkpt lat="41.0740533" lon="-3.7136134"><ele>2350</ele><speed>33</speed><time>2016-10-08T12:38:21Z</time><course>20</course><type>18</type></trkpt>
      <trkpt lat="41.074215" lon="-3.7135484"><ele>2351</ele><speed>35</speed><time>2016-10-08T12:38:23Z</time><course>17</course><type>18</type></trkpt>
      <trkpt lat="41.0742883" lon="-3.7133917"><ele>2352</ele><speed>43</speed><time>2016-10-08T12:38:26Z</time><course>4</course><type>18</type></trkpt>
      <trkpt lat="41.07447" lon="-3.7133334"><ele>2354</ele><speed>44</speed><time>2016-10-08T12:38:28Z</time><course>6</course><type>18</type></trkpt>
      <trkpt lat="41.0746466" lon="-3.7132467"><ele>2355</ele><speed>43</speed><time>2016-10-08T12:38:30Z</time><course>9</course><type>18</type></trkpt>
      <trkpt lat="41.0747466" lon="-3.7132217"><ele>2355</ele><speed>43</speed><time>2016-10-08T12:38:31Z</time><course>8</course><type>18</type></trkpt>
      <trkpt lat="41.074905" lon="-3.7131917"><ele>2357</ele><speed>44</speed><time>2016-10-08T12:38:32Z</time><course>7</course><type>18</type></trkpt>
      <trkpt lat="41.075015" lon="-3.7131717"><ele>2358</ele><speed>44</speed><time>2016-10-08T12:38:33Z</time><course>7</course><type>18</type></trkpt>
      <trkpt lat="41.0751416" lon="-3.71312"><ele>2358</ele><speed>44</speed><time>2016-10-08T12:38:34Z</time><course>9</course><type>18</type></trkpt>
      <trkpt lat="41.075295" lon="-3.7131"><ele>2359</ele><speed>44</speed><time>2016-10-08T12:38:35Z</time><course>6</course><type>18</type></trkpt>
      <trkpt lat="41.075435" lon="-3.7131067"><ele>2360</ele><speed>44</speed><time>2016-10-08T12:38:36Z</time><course>2</course><type>18</type></trkpt>
      <trkpt lat="41.0755366" lon="-3.7131167"><ele>2361</ele><speed>44</speed><time>2016-10-08T12:38:37Z</time><course>1</course><type>18</type></trkpt>
      <trkpt lat="41.0756649" lon="-3.7131051"><ele>2361</ele><speed>45</speed><time>2016-10-08T12:38:38Z</time><course>2</course><type>18</type></trkpt>
      <trkpt lat="41.07583" lon="-3.713115"><ele>2363</ele><speed>39</speed><time>2016-10-08T12:38:40Z</time><course>0</course><type>18</type></trkpt>
      <trkpt lat="41.0760133" lon="-3.7131184"><ele>2364</ele><speed>39</speed><time>2016-10-08T12:38:42Z</time><course>4</course><type>18</type></trkpt>
      <trkpt lat="41.0761716" lon="-3.7130767"><ele>2365</ele><speed>38</speed><time>2016-10-08T12:38:44Z</time><course>5</course><type>18</type></trkpt>
      <trkpt lat="41.0763466" lon="-3.71304"><ele>2366</ele><speed>39</speed><time>2016-10-08T12:38:46Z</time><course>9</course><type>18</type></trkpt>
      <trkpt lat="41.07644" lon="-3.7130167"><ele>2367</ele><speed>39</speed><time>2016-10-08T12:38:47Z</time><course>12</course><type>18</type></trkpt>
      <trkpt lat="41.076535" lon="-3.71298"><ele>2367</ele><speed>40</speed><time>2016-10-08T12:38:48Z</time><course>14</course><type>18</type></trkpt>
      <trkpt lat="41.0766266" lon="-3.71294"><ele>2368</ele><speed>40</speed><time>2016-10-08T12:38:49Z</time><course>16</course><type>18</type></trkpt>
      <trkpt lat="41.076765" lon="-3.7129117"><ele>2369</ele><speed>41</speed><time>2016-10-08T12:38:50Z</time><course>16</course><type>18</type></trkpt>
      <trkpt lat="41.0768683" lon="-3.7128617"><ele>2369</ele><speed>43</speed><time>2016-10-08T12:38:51Z</time><course>16</course><type>18</type></trkpt>
      <trkpt lat="41.0769716" lon="-3.7128184"><ele>2370</ele><speed>43</speed><time>2016-10-08T12:38:52Z</time><course>17</course><type>18</type></trkpt>
      <trkpt lat="41.077075" lon="-3.7127717"><ele>2371</ele><speed>43</speed><time>2016-10-08T12:38:53Z</time><course>18</course><type>18</type></trkpt>
      <trkpt lat="41.0772383" lon="-3.7126784"><ele>2372</ele><speed>40</speed><time>2016-10-08T12:38:55Z</time><course>19</course><type>18</type></trkpt>
      <trkpt lat="41.0773283" lon="-3.7125884"><ele>2372</ele><speed>41</speed><time>2016-10-08T12:38:56Z</time><course>23</course><type>18</type></trkpt>
      <trkpt lat="41.0774166" lon="-3.7124917"><ele>2373</ele><speed>42</speed><time>2016-10-08T12:38:57Z</time><course>26</course><type>18</type></trkpt>
      <trkpt lat="41.0774983" lon="-3.712375"><ele>2373</ele><speed>44</speed><time>2016-10-08T12:38:58Z</time><course>31</course><type>18</type></trkpt>
      <trkpt lat="41.0776033" lon="-3.7122884"><ele>2374</ele><speed>46</speed><time>2016-10-08T12:38:59Z</time><course>31</course><type>18</type></trkpt>
      <trkpt lat="41.077705" lon="-3.71221"><ele>2375</ele><speed>47</speed><time>2016-10-08T12:39:00Z</time><course>29</course><type>18</type></trkpt>
      <trkpt lat="41.0778083" lon="-3.7121167"><ele>2375</ele><speed>49</speed><time>2016-10-08T12:39:01Z</time><course>30</course><type>18</type></trkpt>
      <trkpt lat="41.0779033" lon="-3.7120267"><ele>2376</ele><speed>50</speed><time>2016-10-08T12:39:02Z</time><course>31</course><type>18</type></trkpt>
      <trkpt lat="41.0779983" lon="-3.71194"><ele>2376</ele><speed>49</speed><time>2016-10-08T12:39:03Z</time><course>31</course><type>18</type></trkpt>
      <trkpt lat="41.0780966" lon="-3.71186"><ele>2377</ele><speed>50</speed><time>2016-10-08T12:39:04Z</time><course>30</course><type>18</type></trkpt>
      <trkpt lat="41.0782533" lon="-3.7117867"><ele>2378</ele><speed>52</speed><time>2016-10-08T12:39:05Z</time><course>30</course><type>18</type></trkpt>
      <trkpt lat="41.0783583" lon="-3.711695"><ele>2379</ele><speed>52</speed><time>2016-10-08T12:39:06Z</time><course>30</course><type>18</type></trkpt>
      <trkpt lat="41.078465" lon="-3.7116017"><ele>2379</ele><speed>52</speed><time>2016-10-08T12:39:07Z</time><course>30</course><type>18</type></trkpt>
      <trkpt lat="41.0785616" lon="-3.7115234"><ele>2380</ele><speed>50</speed><time>2016-10-08T12:39:08Z</time><course>30</course><type>18</type></trkpt>
      <trkpt lat="41.0786583" lon="-3.7114267"><ele>2381</ele><speed>49</speed><time>2016-10-08T12:39:09Z</time><course>31</course><type>18</type></trkpt>
      <trkpt lat="41.0788" lon="-3.7113534"><ele>2381</ele><speed>49</speed><time>2016-10-08T12:39:10Z</time><course>31</course><type>18</type></trkpt>
      <trkpt lat="41.0789216" lon="-3.7112684"><ele>2382</ele><speed>48</speed><time>2016-10-08T12:39:11Z</time><course>31</course><type>18</type></trkpt>
      <trkpt lat="41.079045" lon="-3.7110767"><ele>2385</ele><speed>45</speed><time>2016-10-08T12:39:13Z</time><course>36</course><type>18</type></trkpt>
      <trkpt lat="41.0791533" lon="-3.7109817"><ele>2385</ele><speed>45</speed><time>2016-10-08T12:39:14Z</time><course>33</course><type>18</type></trkpt>
      <trkpt lat="41.0792633" lon="-3.7109167"><ele>2386</ele><speed>47</speed><time>2016-10-08T12:39:15Z</time><course>29</course><type>18</type></trkpt>
      <trkpt lat="41.079365" lon="-3.7108434"><ele>2386</ele><speed>47</speed><time>2016-10-08T12:39:16Z</time><course>27</course><type>18</type></trkpt>
      <trkpt lat="41.0794766" lon="-3.710765"><ele>2387</ele><speed>49</speed><time>2016-10-08T12:39:17Z</time><course>24</course><type>18</type></trkpt>
      <trkpt lat="41.07958" lon="-3.7106817"><ele>2388</ele><speed>50</speed><time>2016-10-08T12:39:18Z</time><course>24</course><type>18</type></trkpt>
      <trkpt lat="41.0796783" lon="-3.7105984"><ele>2388</ele><speed>49</speed><time>2016-10-08T12:39:19Z</time><course>25</course><type>18</type></trkpt>
      <trkpt lat="41.0797766" lon="-3.7105267"><ele>2389</ele><speed>48</speed><time>2016-10-08T12:39:20Z</time><course>25</course><type>18</type></trkpt>
      <trkpt lat="41.0798733" lon="-3.71046"><ele>2389</ele><speed>48</speed><time>2016-10-08T12:39:21Z</time><course>25</course><type>18</type></trkpt>
      <trkpt lat="41.0799683" lon="-3.7103934"><ele>2390</ele><speed>49</speed><time>2016-10-08T12:39:22Z</time><course>26</course><type>18</type></trkpt>
      <trkpt lat="41.0800699" lon="-3.7103184"><ele>2390</ele><speed>49</speed><time>2016-10-08T12:39:23Z</time><course>25</course><type>18</type></trkpt>
      <trkpt lat="41.0801716" lon="-3.7102567"><ele>2391</ele><speed>49</speed><time>2016-10-08T12:39:24Z</time><course>24</course><type>18</type></trkpt>
      <trkpt lat="41.0802566" lon="-3.710195"><ele>2392</ele><speed>48</speed><time>2016-10-08T12:39:25Z</time><course>23</course><type>18</type></trkpt>
      <trkpt lat="41.08036" lon="-3.71013"><ele>2393</ele><speed>48</speed><time>2016-10-08T12:39:26Z</time><course>22</course><type>18</type></trkpt>
      <trkpt lat="41.0804633" lon="-3.7100867"><ele>2393</ele><speed>47</speed><time>2016-10-08T12:39:27Z</time><course>20</course><type>18</type></trkpt>
      <trkpt lat="41.0805666" lon="-3.7100567"><ele>2394</ele><speed>46</speed><time>2016-10-08T12:39:28Z</time><course>18</course><type>18</type></trkpt>
      <trkpt lat="41.0807033" lon="-3.7100217"><ele>2394</ele><speed>48</speed><time>2016-10-08T12:39:29Z</time><course>18</course><type>18</type></trkpt>
      <trkpt lat="41.080825" lon="-3.709985"><ele>2395</ele><speed>49</speed><time>2016-10-08T12:39:30Z</time><course>18</course><type>18</type></trkpt>
      <trkpt lat="41.0809416" lon="-3.709985"><ele>2396</ele><speed>50</speed><time>2016-10-08T12:39:31Z</time><course>17</course><type>18</type></trkpt>
      <trkpt lat="41.0810316" lon="-3.7098667"><ele>2397</ele><speed>57</speed><time>2016-10-08T12:39:32Z</time><course>28</course><type>18</type></trkpt>
      <trkpt lat="41.0811833" lon="-3.70968"><ele>2398</ele><speed>54</speed><time>2016-10-08T12:39:34Z</time><course>32</course><type>18</type></trkpt>
      <trkpt lat="41.0812416" lon="-3.709555"><ele>2399</ele><speed>54</speed><time>2016-10-08T12:39:35Z</time><course>36</course><type>18</type></trkpt>
      <trkpt lat="41.081305" lon="-3.7094267"><ele>2399</ele><speed>55</speed><time>2016-10-08T12:39:36Z</time><course>39</course><type>18</type></trkpt>
      <trkpt lat="41.081385" lon="-3.7092934"><ele>2400</ele><speed>57</speed><time>2016-10-08T12:39:37Z</time><course>41</course><type>18</type></trkpt>
      <trkpt lat="41.08147" lon="-3.709145"><ele>2401</ele><speed>62</speed><time>2016-10-08T12:39:38Z</time><course>43</course><type>18</type></trkpt>
      <trkpt lat="41.0815166" lon="-3.7090067"><ele>2401</ele><speed>58</speed><time>2016-10-08T12:39:39Z</time><course>45</course><type>18</type></trkpt>
      <trkpt lat="41.0815883" lon="-3.708865"><ele>2402</ele><speed>58</speed><time>2016-10-08T12:39:40Z</time><course>45</course><type>18</type></trkpt>
      <trkpt lat="41.0816533" lon="-3.7087084"><ele>2403</ele><speed>66</speed><time>2016-10-08T12:39:41Z</time><course>44</course><type>18</type></trkpt>
      <trkpt lat="41.0817266" lon="-3.708575"><ele>2404</ele><speed>62</speed><time>2016-10-08T12:39:42Z</time><course>43</course><type>18</type></trkpt>
      <trkpt lat="41.08174" lon="-3.7084034"><ele>2406</ele><speed>46</speed><time>2016-10-08T12:39:44Z</time><course>37</course><type>18</type></trkpt>
      <trkpt lat="41.081785" lon="-3.7082634"><ele>2406</ele><speed>45</speed><time>2016-10-08T12:39:45Z</time><course>44</course><type>18</type></trkpt>
      <trkpt lat="41.0818566" lon="-3.7081184"><ele>2407</ele><speed>47</speed><time>2016-10-08T12:39:46Z</time><course>47</course><type>18</type></trkpt>
      <trkpt lat="41.081935" lon="-3.7079634"><ele>2407</ele><speed>50</speed><time>2016-10-08T12:39:47Z</time><course>49</course><type>18</type></trkpt>
      <trkpt lat="41.0820366" lon="-3.7077984"><ele>2408</ele><speed>53</speed><time>2016-10-08T12:39:48Z</time><course>48</course><type>18</type></trkpt>
      <trkpt lat="41.0821016" lon="-3.707635"><ele>2408</ele><speed>55</speed><time>2016-10-08T12:39:49Z</time><course>48</course><type>18</type></trkpt>
      <trkpt lat="41.0821933" lon="-3.7074567"><ele>2409</ele><speed>60</speed><time>2016-10-08T12:39:50Z</time><course>47</course><type>18</type></trkpt>
      <trkpt lat="41.0822733" lon="-3.7072834"><ele>2409</ele><speed>60</speed><time>2016-10-08T12:39:51Z</time><course>47</course><type>18</type></trkpt>
      <trkpt lat="41.0823433" lon="-3.7071067"><ele>2409</ele><speed>60</speed><time>2016-10-08T12:39:52Z</time><course>49</course><type>18</type></trkpt>
      <trkpt lat="41.0823516" lon="-3.706905"><ele>2409</ele><speed>59</speed><time>2016-10-08T12:39:53Z</time><course>50</course><type>18</type></trkpt>
      <trkpt lat="41.0823333" lon="-3.7066934"><ele>2408</ele><speed>57</speed><time>2016-10-08T12:39:54Z</time><course>52</course><type>18</type></trkpt>
      <trkpt lat="41.0823316" lon="-3.7064884"><ele>2407</ele><speed>55</speed><time>2016-10-08T12:39:55Z</time><course>53</course><type>18</type></trkpt>
      <trkpt lat="41.082375" lon="-3.7063067"><ele>2406</ele><speed>57</speed><time>2016-10-08T12:39:56Z</time><course>52</course><type>18</type></trkpt>
      <trkpt lat="41.082425" lon="-3.7061217"><ele>2405</ele><speed>63</speed><time>2016-10-08T12:39:57Z</time><course>51</course><type>18</type></trkpt>
      <trkpt lat="41.0825266" lon="-3.7059584"><ele>2406</ele><speed>64</speed><time>2016-10-08T12:39:58Z</time><course>50</course><type>18</type></trkpt>
      <trkpt lat="41.0826216" lon="-3.7057967"><ele>2406</ele><speed>61</speed><time>2016-10-08T12:39:59Z</time><course>51</course><type>18</type></trkpt>
      <trkpt lat="41.0827016" lon="-3.70564"><ele>2406</ele><speed>61</speed><time>2016-10-08T12:40:00Z</time><course>52</course><type>18</type></trkpt>
      <trkpt lat="41.0827666" lon="-3.70549"><ele>2406</ele><speed>59</speed><time>2016-10-08T12:40:01Z</time><course>54</course><type>18</type></trkpt>
      <trkpt lat="41.0828166" lon="-3.705355"><ele>2407</ele><speed>55</speed><time>2016-10-08T12:40:02Z</time><course>56</course><type>18</type></trkpt>
      <trkpt lat="41.0828566" lon="-3.7052251"><ele>2407</ele><speed>52</speed><time>2016-10-08T12:40:03Z</time><course>58</course><type>18</type></trkpt>
      <trkpt lat="41.0829033" lon="-3.7050917"><ele>2408</ele><speed>50</speed><time>2016-10-08T12:40:04Z</time><course>60</course><type>18</type></trkpt>
      <trkpt lat="41.0829499" lon="-3.7049334"><ele>2408</ele><speed>49</speed><time>2016-10-08T12:40:05Z</time><course>63</course><type>18</type></trkpt>
      <trkpt lat="41.0829816" lon="-3.7047817"><ele>2408</ele><speed>48</speed><time>2016-10-08T12:40:06Z</time><course>66</course><type>18</type></trkpt>
      <trkpt lat="41.0829916" lon="-3.70462"><ele>2409</ele><speed>47</speed><time>2016-10-08T12:40:07Z</time><course>71</course><type>18</type></trkpt>
      <trkpt lat="41.0830266" lon="-3.704405"><ele>2410</ele><speed>45</speed><time>2016-10-08T12:40:09Z</time><course>69</course><type>18</type></trkpt>
      <trkpt lat="41.083105" lon="-3.7042417"><ele>2410</ele><speed>53</speed><time>2016-10-08T12:40:10Z</time><course>60</course><type>18</type></trkpt>
      <trkpt lat="41.08321" lon="-3.70409"><ele>2410</ele><speed>60</speed><time>2016-10-08T12:40:11Z</time><course>54</course><type>18</type></trkpt>
      <trkpt lat="41.0833233" lon="-3.7039184"><ele>2411</ele><speed>60</speed><time>2016-10-08T12:40:12Z</time><course>54</course><type>18</type></trkpt>
      <trkpt lat="41.0834116" lon="-3.7037567"><ele>2411</ele><speed>58</speed><time>2016-10-08T12:40:13Z</time><course>55</course><type>18</type></trkpt>
      <trkpt lat="41.083515" lon="-3.7035917"><ele>2411</ele><speed>58</speed><time>2016-10-08T12:40:14Z</time><course>55</course><type>18</type></trkpt>
      <trkpt lat="41.08362" lon="-3.7034334"><ele>2412</ele><speed>58</speed><time>2016-10-08T12:40:15Z</time><course>55</course><type>18</type></trkpt>
      <trkpt lat="41.0837233" lon="-3.7032834"><ele>2412</ele><speed>57</speed><time>2016-10-08T12:40:16Z</time><course>55</course><type>18</type></trkpt>
      <trkpt lat="41.083825" lon="-3.7031334"><ele>2412</ele><speed>56</speed><time>2016-10-08T12:40:17Z</time><course>55</course><type>18</type></trkpt>
      <trkpt lat="41.08392" lon="-3.7029851"><ele>2413</ele><speed>55</speed><time>2016-10-08T12:40:18Z</time><course>56</course><type>18</type></trkpt>
      <trkpt lat="41.0840083" lon="-3.7028467"><ele>2413</ele><speed>53</speed><time>2016-10-08T12:40:19Z</time><course>57</course><type>18</type></trkpt>
      <trkpt lat="41.084085" lon="-3.7027"><ele>2413</ele><speed>51</speed><time>2016-10-08T12:40:20Z</time><course>59</course><type>18</type></trkpt>
      <trkpt lat="41.0841766" lon="-3.7025284"><ele>2414</ele><speed>52</speed><time>2016-10-08T12:40:21Z</time><course>62</course><type>18</type></trkpt>
      <trkpt lat="41.0843183" lon="-3.70237"><ele>2414</ele><speed>54</speed><time>2016-10-08T12:40:22Z</time><course>59</course><type>18</type></trkpt>
      <trkpt lat="41.0844349" lon="-3.7022167"><ele>2414</ele><speed>55</speed><time>2016-10-08T12:40:23Z</time><course>57</course><type>18</type></trkpt>
      <trkpt lat="41.08452" lon="-3.70208"><ele>2415</ele><speed>54</speed><time>2016-10-08T12:40:24Z</time><course>56</course><type>18</type></trkpt>
      <trkpt lat="41.0845683" lon="-3.7019367"><ele>2415</ele><speed>55</speed><time>2016-10-08T12:40:25Z</time><course>58</course><type>18</type></trkpt>
      <trkpt lat="41.0844666" lon="-3.701805"><ele>2414</ele><speed>53</speed><time>2016-10-08T12:40:26Z</time><course>60</course><type>18</type></trkpt>
      <trkpt lat="41.08443" lon="-3.701665"><ele>2414</ele><speed>53</speed><time>2016-10-08T12:40:27Z</time><course>61</course><type>18</type></trkpt>
      <trkpt lat="41.0843966" lon="-3.7014667"><ele>2414</ele><speed>49</speed><time>2016-10-08T12:40:29Z</time><course>62</course><type>18</type></trkpt>
      <trkpt lat="41.084485" lon="-3.7013767"><ele>2414</ele><speed>45</speed><time>2016-10-08T12:40:30Z</time><course>61</course><type>18</type></trkpt>
      <trkpt lat="41.0845883" lon="-3.7012667"><ele>2415</ele><speed>51</speed><time>2016-10-08T12:40:31Z</time><course>54</course><type>18</type></trkpt>
      <trkpt lat="41.0846816" lon="-3.70113"><ele>2415</ele><speed>51</speed><time>2016-10-08T12:40:32Z</time><course>54</course><type>18</type></trkpt>
      <trkpt lat="41.0847499" lon="-3.7009884"><ele>2415</ele><speed>50</speed><time>2016-10-08T12:40:33Z</time><course>55</course><type>18</type></trkpt>
      <trkpt lat="41.0847883" lon="-3.70087"><ele>2415</ele><speed>47</speed><time>2016-10-08T12:40:34Z</time><course>57</course><type>18</type></trkpt>
      <trkpt lat="41.0848183" lon="-3.7007034"><ele>2416</ele><speed>33</speed><time>2016-10-08T12:40:36Z</time><course>65</course><type>18</type></trkpt>
      <trkpt lat="41.0849316" lon="-3.7005334"><ele>2417</ele><speed>34</speed><time>2016-10-08T12:40:38Z</time><course>55</course><type>18</type></trkpt>
      <trkpt lat="41.0850516" lon="-3.7003934"><ele>2417</ele><speed>29</speed><time>2016-10-08T12:40:40Z</time><course>44</course><type>18</type></trkpt>
      <trkpt lat="41.0852116" lon="-3.700325"><ele>2418</ele><speed>27</speed><time>2016-10-08T12:40:42Z</time><course>29</course><type>18</type></trkpt>
      <trkpt lat="41.0853133" lon="-3.7002634"><ele>2418</ele><speed>27</speed><time>2016-10-08T12:40:44Z</time><course>18</course><type>18</type></trkpt>
      <trkpt lat="41.085475" lon="-3.7002867"><ele>2419</ele><speed>34</speed><time>2016-10-08T12:40:46Z</time><course>358</course><type>18</type></trkpt>
      <trkpt lat="41.0855616" lon="-3.7003084"><ele>2419</ele><speed>40</speed><time>2016-10-08T12:40:47Z</time><course>351</course><type>18</type></trkpt>
      <trkpt lat="41.085655" lon="-3.7003534"><ele>2419</ele><speed>43</speed><time>2016-10-08T12:40:48Z</time><course>344</course><type>18</type></trkpt>
      <trkpt lat="41.0857516" lon="-3.7004234"><ele>2419</ele><speed>36</speed><time>2016-10-08T12:40:49Z</time><course>350</course><type>18</type></trkpt>
      <trkpt lat="41.0858316" lon="-3.7004134"><ele>2419</ele><speed>29</speed><time>2016-10-08T12:40:50Z</time><course>11</course><type>18</type></trkpt>
      <trkpt lat="41.0859366" lon="-3.7003984"><ele>2419</ele><speed>34</speed><time>2016-10-08T12:40:51Z</time><course>10</course><type>18</type></trkpt>
      <trkpt lat="41.08604" lon="-3.7003584"><ele>2419</ele><speed>36</speed><time>2016-10-08T12:40:52Z</time><course>12</course><type>18</type></trkpt>
      <trkpt lat="41.0861266" lon="-3.7003167"><ele>2419</ele><speed>37</speed><time>2016-10-08T12:40:53Z</time><course>12</course><type>18</type></trkpt>
      <trkpt lat="41.0862316" lon="-3.7002584"><ele>2419</ele><speed>40</speed><time>2016-10-08T12:40:54Z</time><course>15</course><type>18</type></trkpt>
      <trkpt lat="41.0863666" lon="-3.7001717"><ele>2418</ele><speed>45</speed><time>2016-10-08T12:40:55Z</time><course>19</course><type>18</type></trkpt>
      <trkpt lat="41.0864333" lon="-3.7001134"><ele>2417</ele><speed>45</speed><time>2016-10-08T12:40:56Z</time><course>20</course><type>18</type></trkpt>
      <trkpt lat="41.08654" lon="-3.700055"><ele>2417</ele><speed>47</speed><time>2016-10-08T12:40:57Z</time><course>20</course><type>18</type></trkpt>
      <trkpt lat="41.0866216" lon="-3.6999384"><ele>2416</ele><speed>47</speed><time>2016-10-08T12:40:58Z</time><course>19</course><type>18</type></trkpt>
      <trkpt lat="41.0866483" lon="-3.69985"><ele>2414</ele><speed>42</speed><time>2016-10-08T12:40:59Z</time><course>25</course><type>18</type></trkpt>
      <trkpt lat="41.0867116" lon="-3.6997634"><ele>2414</ele><speed>43</speed><time>2016-10-08T12:41:00Z</time><course>29</course><type>18</type></trkpt>
      <trkpt lat="41.0867633" lon="-3.6996667"><ele>2412</ele><speed>43</speed><time>2016-10-08T12:41:01Z</time><course>32</course><type>18</type></trkpt>
      <trkpt lat="41.0868333" lon="-3.6995784"><ele>2411</ele><speed>45</speed><time>2016-10-08T12:41:02Z</time><course>34</course><type>18</type></trkpt>
      <trkpt lat="41.086905" lon="-3.699485"><ele>2410</ele><speed>44</speed><time>2016-10-08T12:41:03Z</time><course>36</course><type>18</type></trkpt>
      <trkpt lat="41.087005" lon="-3.699385"><ele>2409</ele><speed>54</speed><time>2016-10-08T12:41:04Z</time><course>34</course><type>18</type></trkpt>
      <trkpt lat="41.0870816" lon="-3.69928"><ele>2408</ele><speed>49</speed><time>2016-10-08T12:41:05Z</time><course>37</course><type>18</type></trkpt>
      <trkpt lat="41.08717" lon="-3.6991817"><ele>2408</ele><speed>47</speed><time>2016-10-08T12:41:06Z</time><course>37</course><type>18</type></trkpt>
      <trkpt lat="41.0872583" lon="-3.6990901"><ele>2408</ele><speed>46</speed><time>2016-10-08T12:41:07Z</time><course>36</course><type>18</type></trkpt>
      <trkpt lat="41.087345" lon="-3.6990234"><ele>2407</ele><speed>44</speed><time>2016-10-08T12:41:08Z</time><course>35</course><type>18</type></trkpt>
      <trkpt lat="41.0874216" lon="-3.6989834"><ele>2407</ele><speed>39</speed><time>2016-10-08T12:41:09Z</time><course>33</course><type>18</type></trkpt>
      <trkpt lat="41.0875533" lon="-3.6989551"><ele>2406</ele><speed>34</speed><time>2016-10-08T12:41:11Z</time><course>28</course><type>18</type></trkpt>
      <trkpt lat="41.0876366" lon="-3.6988884"><ele>2405</ele><speed>38</speed><time>2016-10-08T12:41:12Z</time><course>33</course><type>18</type></trkpt>
      <trkpt lat="41.0877233" lon="-3.6988117"><ele>2404</ele><speed>41</speed><time>2016-10-08T12:41:13Z</time><course>37</course><type>18</type></trkpt>
      <trkpt lat="41.0878083" lon="-3.6987017"><ele>2404</ele><speed>43</speed><time>2016-10-08T12:41:14Z</time><course>43</course><type>18</type></trkpt>
      <trkpt lat="41.0878933" lon="-3.69858"><ele>2403</ele><speed>46</speed><time>2016-10-08T12:41:15Z</time><course>46</course><type>18</type></trkpt>
      <trkpt lat="41.0879633" lon="-3.69848"><ele>2403</ele><speed>45</speed><time>2016-10-08T12:41:16Z</time><course>47</course><type>18</type></trkpt>
      <trkpt lat="41.0880483" lon="-3.6983684"><ele>2402</ele><speed>44</speed><time>2016-10-08T12:41:17Z</time><course>45</course><type>18</type></trkpt>
      <trkpt lat="41.08813" lon="-3.698275"><ele>2402</ele><speed>43</speed><time>2016-10-08T12:41:18Z</time><course>43</course><type>18</type></trkpt>
      <trkpt lat="41.08822" lon="-3.69817"><ele>2402</ele><speed>44</speed><time>2016-10-08T12:41:19Z</time><course>40</course><type>18</type></trkpt>
      <trkpt lat="41.0883133" lon="-3.6980684"><ele>2402</ele><speed>46</speed><time>2016-10-08T12:41:20Z</time><course>38</course><type>18</type></trkpt>
      <trkpt lat="41.0884116" lon="-3.6979634"><ele>2401</ele><speed>46</speed><time>2016-10-08T12:41:21Z</time><course>37</course><type>18</type></trkpt>
      <trkpt lat="41.088535" lon="-3.6978817"><ele>2401</ele><speed>47</speed><time>2016-10-08T12:41:22Z</time><course>34</course><type>18</type></trkpt>
      <trkpt lat="41.08862" lon="-3.697805"><ele>2401</ele><speed>39</speed><time>2016-10-08T12:41:23Z</time><course>34</course><type>18</type></trkpt>
      <trkpt lat="41.0887216" lon="-3.6977367"><ele>2400</ele><speed>38</speed><time>2016-10-08T12:41:24Z</time><course>33</course><type>18</type></trkpt>
      <trkpt lat="41.08879" lon="-3.6976834"><ele>2400</ele><speed>29</speed><time>2016-10-08T12:41:25Z</time><course>34</course><type>18</type></trkpt>
      <trkpt lat="41.0888583" lon="-3.6976134"><ele>2399</ele><speed>33</speed><time>2016-10-08T12:41:26Z</time><course>36</course><type>18</type></trkpt>
      <trkpt lat="41.088955" lon="-3.6975217"><ele>2399</ele><speed>39</speed><time>2016-10-08T12:41:27Z</time><course>39</course><type>18</type></trkpt>
      <trkpt lat="41.0890683" lon="-3.6973917"><ele>2399</ele><speed>48</speed><time>2016-10-08T12:41:28Z</time><course>43</course><type>18</type></trkpt>
      <trkpt lat="41.0891783" lon="-3.6972817"><ele>2398</ele><speed>50</speed><time>2016-10-08T12:41:29Z</time><course>44</course><type>18</type></trkpt>
      <trkpt lat="41.0892966" lon="-3.6971484"><ele>2398</ele><speed>57</speed><time>2016-10-08T12:41:30Z</time><course>44</course><type>18</type></trkpt>
      <trkpt lat="41.0894083" lon="-3.697015"><ele>2397</ele><speed>56</speed><time>2016-10-08T12:41:31Z</time><course>46</course><type>18</type></trkpt>
      <trkpt lat="41.0895133" lon="-3.6968867"><ele>2397</ele><speed>54</speed><time>2016-10-08T12:41:32Z</time><course>48</course><type>18</type></trkpt>
      <trkpt lat="41.0896316" lon="-3.6967634"><ele>2397</ele><speed>52</speed><time>2016-10-08T12:41:33Z</time><course>50</course><type>18</type></trkpt>
      <trkpt lat="41.0897316" lon="-3.69663"><ele>2396</ele><speed>52</speed><time>2016-10-08T12:41:34Z</time><course>51</course><type>18</type></trkpt>
      <trkpt lat="41.0897716" lon="-3.69648"><ele>2394</ele><speed>53</speed><time>2016-10-08T12:41:35Z</time><course>53</course><type>18</type></trkpt>
      <trkpt lat="41.0898583" lon="-3.69634"><ele>2394</ele><speed>53</speed><time>2016-10-08T12:41:36Z</time><course>53</course><type>18</type></trkpt>
      <trkpt lat="41.08989" lon="-3.6961917"><ele>2392</ele><speed>50</speed><time>2016-10-08T12:41:37Z</time><course>55</course><type>18</type></trkpt>
      <trkpt lat="41.0899216" lon="-3.69603"><ele>2390</ele><speed>60</speed><time>2016-10-08T12:41:38Z</time><course>57</course><type>18</type></trkpt>
      <trkpt lat="41.0900283" lon="-3.6958734"><ele>2390</ele><speed>58</speed><time>2016-10-08T12:41:39Z</time><course>55</course><type>18</type></trkpt>
      <trkpt lat="41.090115" lon="-3.69572"><ele>2390</ele><speed>56</speed><time>2016-10-08T12:41:40Z</time><course>55</course><type>18</type></trkpt>
      <trkpt lat="41.0902016" lon="-3.6955884"><ele>2389</ele><speed>54</speed><time>2016-10-08T12:41:41Z</time><course>55</course><type>18</type></trkpt>
      <trkpt lat="41.090225" lon="-3.695475"><ele>2388</ele><speed>47</speed><time>2016-10-08T12:41:42Z</time><course>57</course><type>18</type></trkpt>
      <trkpt lat="41.090275" lon="-3.6954"><ele>2388</ele><speed>40</speed><time>2016-10-08T12:41:43Z</time><course>57</course><type>18</type></trkpt>
      <trkpt lat="41.0903616" lon="-3.6952851"><ele>2387</ele><speed>32</speed><time>2016-10-08T12:41:45Z</time><course>57</course><type>18</type></trkpt>
      <trkpt lat="41.0904233" lon="-3.6951884"><ele>2387</ele><speed>34</speed><time>2016-10-08T12:41:46Z</time><course>56</course><type>18</type></trkpt>
      <trkpt lat="41.0905" lon="-3.69505"><ele>2387</ele><speed>38</speed><time>2016-10-08T12:41:47Z</time><course>55</course><type>18</type></trkpt>
      <trkpt lat="41.0905699" lon="-3.6949284"><ele>2387</ele><speed>40</speed><time>2016-10-08T12:41:48Z</time><course>55</course><type>18</type></trkpt>
      <trkpt lat="41.0906416" lon="-3.6947417"><ele>2386</ele><speed>44</speed><time>2016-10-08T12:41:49Z</time><course>58</course><type>18</type></trkpt>
      <trkpt lat="41.0906716" lon="-3.6946034"><ele>2385</ele><speed>46</speed><time>2016-10-08T12:41:50Z</time><course>61</course><type>18</type></trkpt>
      <trkpt lat="41.0906933" lon="-3.6944617"><ele>2384</ele><speed>46</speed><time>2016-10-08T12:41:51Z</time><course>64</course><type>18</type></trkpt>
      <trkpt lat="41.09072" lon="-3.69434"><ele>2383</ele><speed>44</speed><time>2016-10-08T12:41:52Z</time><course>63</course><type>18</type></trkpt>
      <trkpt lat="41.09078" lon="-3.69423"><ele>2383</ele><speed>41</speed><time>2016-10-08T12:41:53Z</time><course>61</course><type>18</type></trkpt>
      <trkpt lat="41.0908433" lon="-3.6941134"><ele>2382</ele><speed>43</speed><time>2016-10-08T12:41:54Z</time><course>59</course><type>18</type></trkpt>
      <trkpt lat="41.090905" lon="-3.6939834"><ele>2382</ele><speed>49</speed><time>2016-10-08T12:41:55Z</time><course>57</course><type>18</type></trkpt>
      <trkpt lat="41.0909066" lon="-3.69386"><ele>2380</ele><speed>47</speed><time>2016-10-08T12:41:56Z</time><course>60</course><type>18</type></trkpt>
      <trkpt lat="41.090925" lon="-3.6937317"><ele>2379</ele><speed>45</speed><time>2016-10-08T12:41:57Z</time><course>61</course><type>18</type></trkpt>
      <trkpt lat="41.0909299" lon="-3.6936067"><ele>2377</ele><speed>43</speed><time>2016-10-08T12:41:58Z</time><course>61</course><type>18</type></trkpt>
      <trkpt lat="41.0909216" lon="-3.693485"><ele>2375</ele><speed>43</speed><time>2016-10-08T12:41:59Z</time><course>55</course><type>18</type></trkpt>
      <trkpt lat="41.0908866" lon="-3.6933767"><ele>2373</ele><speed>39</speed><time>2016-10-08T12:42:00Z</time><course>63</course><type>18</type></trkpt>
      <trkpt lat="41.09085" lon="-3.6932767"><ele>2371</ele><speed>24</speed><time>2016-10-08T12:42:02Z</time><course>87</course><type>18</type></trkpt>
      <trkpt lat="41.09078" lon="-3.6932017"><ele>2370</ele><speed>21</speed><time>2016-10-08T12:42:04Z</time><course>115</course><type>18</type></trkpt>
      <trkpt lat="41.0905683" lon="-3.6928367"><ele>2367</ele><speed>21</speed><time>2016-10-08T12:42:06Z</time><course>128</course><type>18</type></trkpt>
      <trkpt lat="41.0903766" lon="-3.6923167"><ele>2364</ele><speed>29</speed><time>2016-10-08T12:42:07Z</time><course>128</course><type>18</type></trkpt>
      <trkpt lat="41.0902983" lon="-3.691935"><ele>2363</ele><speed>27</speed><time>2016-10-08T12:42:08Z</time><course>123</course><type>18</type></trkpt>
      <trkpt lat="41.0902066" lon="-3.691875"><ele>2363</ele><speed>23</speed><time>2016-10-08T12:42:09Z</time><course>118</course><type>18</type></trkpt>
      <trkpt lat="41.09009" lon="-3.6918517"><ele>2362</ele><speed>17</speed><time>2016-10-08T12:42:11Z</time><course>117</course><type>18</type></trkpt>
      <trkpt lat="41.0900016" lon="-3.6918934"><ele>2362</ele><speed>14</speed><time>2016-10-08T12:42:12Z</time><course>132</course><type>18</type></trkpt>
      <trkpt lat="41.0898866" lon="-3.6920467"><ele>2361</ele><speed>7</speed><time>2016-10-08T12:42:14Z</time><course>213</course><type>18</type></trkpt>
      <trkpt lat="41.0898116" lon="-3.6921434"><ele>2360</ele><speed>10</speed><time>2016-10-08T12:42:16Z</time><course>229</course><type>18</type></trkpt>
      <trkpt lat="41.0897833" lon="-3.6923284"><ele>2357</ele><speed>20</speed><time>2016-10-08T12:42:18Z</time><course>272</course><type>18</type></trkpt>
      <trkpt lat="41.0898" lon="-3.692535"><ele>2355</ele><speed>26</speed><time>2016-10-08T12:42:20Z</time><course>283</course><type>18</type></trkpt>
      <trkpt lat="41.0898266" lon="-3.6927684"><ele>2354</ele><speed>29</speed><time>2016-10-08T12:42:22Z</time><course>293</course><type>18</type></trkpt>
      <trkpt lat="41.0899316" lon="-3.69294"><ele>2351</ele><speed>32</speed><time>2016-10-08T12:42:24Z</time><course>306</course><type>18</type></trkpt>
      <trkpt lat="41.08999" lon="-3.6930334"><ele>2350</ele><speed>34</speed><time>2016-10-08T12:42:25Z</time><course>308</course><type>18</type></trkpt>
      <trkpt lat="41.0900516" lon="-3.6931284"><ele>2349</ele><speed>35</speed><time>2016-10-08T12:42:26Z</time><course>309</course><type>18</type></trkpt>
      <trkpt lat="41.090135" lon="-3.693205"><ele>2347</ele><speed>36</speed><time>2016-10-08T12:42:27Z</time><course>311</course><type>18</type></trkpt>
      <trkpt lat="41.0902199" lon="-3.693285"><ele>2346</ele><speed>40</speed><time>2016-10-08T12:42:28Z</time><course>314</course><type>18</type></trkpt>
      <trkpt lat="41.0903233" lon="-3.6933967"><ele>2345</ele><speed>52</speed><time>2016-10-08T12:42:29Z</time><course>316</course><type>18</type></trkpt>
      <trkpt lat="41.0904166" lon="-3.6934934"><ele>2344</ele><speed>43</speed><time>2016-10-08T12:42:30Z</time><course>315</course><type>18</type></trkpt>
      <trkpt lat="41.09053" lon="-3.6935584"><ele>2343</ele><speed>42</speed><time>2016-10-08T12:42:31Z</time><course>320</course><type>18</type></trkpt>
      <trkpt lat="41.0906416" lon="-3.6936284"><ele>2342</ele><speed>43</speed><time>2016-10-08T12:42:32Z</time><course>324</course><type>18</type></trkpt>
      <trkpt lat="41.0907733" lon="-3.6937134"><ele>2341</ele><speed>44</speed><time>2016-10-08T12:42:33Z</time><course>328</course><type>18</type></trkpt>
      <trkpt lat="41.0909083" lon="-3.693725"><ele>2341</ele><speed>43</speed><time>2016-10-08T12:42:34Z</time><course>333</course><type>18</type></trkpt>
      <trkpt lat="41.0910016" lon="-3.6936367"><ele>2340</ele><speed>34</speed><time>2016-10-08T12:42:35Z</time><course>344</course><type>18</type></trkpt>
      <trkpt lat="41.0911333" lon="-3.693605"><ele>2338</ele><speed>32</speed><time>2016-10-08T12:42:36Z</time><course>354</course><type>18</type></trkpt>
      <trkpt lat="41.0912583" lon="-3.6935401"><ele>2337</ele><speed>31</speed><time>2016-10-08T12:42:37Z</time><course>8</course><type>18</type></trkpt>
      <trkpt lat="41.0913516" lon="-3.693455"><ele>2336</ele><speed>31</speed><time>2016-10-08T12:42:38Z</time><course>25</course><type>18</type></trkpt>
      <trkpt lat="41.091485" lon="-3.6933484"><ele>2335</ele><speed>35</speed><time>2016-10-08T12:42:39Z</time><course>38</course><type>18</type></trkpt>
      <trkpt lat="41.0915866" lon="-3.693235"><ele>2334</ele><speed>37</speed><time>2016-10-08T12:42:40Z</time><course>45</course><type>18</type></trkpt>
      <trkpt lat="41.091735" lon="-3.6930167"><ele>2333</ele><speed>46</speed><time>2016-10-08T12:42:41Z</time><course>49</course><type>18</type></trkpt>
      <trkpt lat="41.091815" lon="-3.6928917"><ele>2333</ele><speed>41</speed><time>2016-10-08T12:42:42Z</time><course>51</course><type>18</type></trkpt>
      <trkpt lat="41.0918749" lon="-3.6927317"><ele>2331</ele><speed>37</speed><time>2016-10-08T12:42:43Z</time><course>64</course><type>18</type></trkpt>
      <trkpt lat="41.0918983" lon="-3.6926017"><ele>2330</ele><speed>33</speed><time>2016-10-08T12:42:44Z</time><course>73</course><type>18</type></trkpt>
      <trkpt lat="41.0919066" lon="-3.6924967"><ele>2329</ele><speed>30</speed><time>2016-10-08T12:42:45Z</time><course>75</course><type>18</type></trkpt>
      <trkpt lat="41.0918816" lon="-3.6923867"><ele>2328</ele><speed>30</speed><time>2016-10-08T12:42:46Z</time><course>78</course><type>18</type></trkpt>
      <trkpt lat="41.0918383" lon="-3.6922734"><ele>2327</ele><speed>31</speed><time>2016-10-08T12:42:47Z</time><course>84</course><type>18</type></trkpt>
      <trkpt lat="41.09179" lon="-3.6921617"><ele>2327</ele><speed>32</speed><time>2016-10-08T12:42:48Z</time><course>89</course><type>18</type></trkpt>
      <trkpt lat="41.0916866" lon="-3.692055"><ele>2326</ele><speed>32</speed><time>2016-10-08T12:42:49Z</time><course>111</course><type>18</type></trkpt>
      <trkpt lat="41.0915216" lon="-3.6920367"><ele>2323</ele><speed>28</speed><time>2016-10-08T12:42:50Z</time><course>131</course><type>18</type></trkpt>
      <trkpt lat="41.0913883" lon="-3.69207"><ele>2320</ele><speed>25</speed><time>2016-10-08T12:42:51Z</time><course>157</course><type>18</type></trkpt>
      <trkpt lat="41.0912133" lon="-3.6920484"><ele>2317</ele><speed>26</speed><time>2016-10-08T12:42:52Z</time><course>166</course><type>18</type></trkpt>
      <trkpt lat="41.0909083" lon="-3.6920201"><ele>2308</ele><speed>25</speed><time>2016-10-08T12:42:53Z</time><course>165</course><type>18</type></trkpt>
      <trkpt lat="41.0906516" lon="-3.692025"><ele>2300</ele><speed>22</speed><time>2016-10-08T12:42:54Z</time><course>170</course><type>18</type></trkpt>
      <trkpt lat="41.090495" lon="-3.6920884"><ele>2296</ele><speed>19</speed><time>2016-10-08T12:42:55Z</time><course>186</course><type>18</type></trkpt>
      <trkpt lat="41.0903866" lon="-3.69216"><ele>2293</ele><speed>18</speed><time>2016-10-08T12:42:56Z</time><course>201</course><type>18</type></trkpt>
      <trkpt lat="41.0903166" lon="-3.6922451"><ele>2291</ele><speed>18</speed><time>2016-10-08T12:42:57Z</time><course>213</course><type>18</type></trkpt>
      <trkpt lat="41.0902583" lon="-3.6923384"><ele>2289</ele><speed>18</speed><time>2016-10-08T12:42:58Z</time><course>223</course><type>18</type></trkpt>
      <trkpt lat="41.0902083" lon="-3.6924484"><ele>2288</ele><speed>17</speed><time>2016-10-08T12:42:59Z</time><course>225</course><type>18</type></trkpt>
      <trkpt lat="41.0901649" lon="-3.6925234"><ele>2287</ele><speed>16</speed><time>2016-10-08T12:43:00Z</time><course>227</course><type>18</type></trkpt>
      <trkpt lat="41.0901233" lon="-3.6925917"><ele>2286</ele><speed>15</speed><time>2016-10-08T12:43:01Z</time><course>228</course><type>18</type></trkpt>
      <trkpt lat="41.09008" lon="-3.6926484"><ele>2285</ele><speed>16</speed><time>2016-10-08T12:43:02Z</time><course>234</course><type>18</type></trkpt>
      <trkpt lat="41.0900299" lon="-3.6927384"><ele>2284</ele><speed>28</speed><time>2016-10-08T12:43:03Z</time><course>240</course><type>18</type></trkpt>
      <trkpt lat="41.0900066" lon="-3.6928167"><ele>2284</ele><speed>26</speed><time>2016-10-08T12:43:04Z</time><course>241</course><type>18</type></trkpt>
      <trkpt lat="41.0899783" lon="-3.69289"><ele>2284</ele><speed>25</speed><time>2016-10-08T12:43:05Z</time><course>239</course><type>18</type></trkpt>
      <trkpt lat="41.08989" lon="-3.6930001"><ele>2283</ele><speed>25</speed><time>2016-10-08T12:43:07Z</time><course>217</course><type>18</type></trkpt>
      <trkpt lat="41.0899183" lon="-3.6930984"><ele>2281</ele><speed>16</speed><time>2016-10-08T12:43:10Z</time><course>262</course><type>18</type></trkpt>
      <trkpt lat="41.0899916" lon="-3.6931217"><ele>2280</ele><speed>14</speed><time>2016-10-08T12:43:11Z</time><course>286</course><type>18</type></trkpt>
      <trkpt lat="41.0902266" lon="-3.6929617"><ele>2278</ele><speed>15</speed><time>2016-10-08T12:43:13Z</time><course>2</course><type>18</type></trkpt>
      <trkpt lat="41.0904" lon="-3.6927834"><ele>2277</ele><speed>24</speed><time>2016-10-08T12:43:14Z</time><course>31</course><type>18</type></trkpt>
      <trkpt lat="41.0905666" lon="-3.6926534"><ele>2276</ele><speed>33</speed><time>2016-10-08T12:43:15Z</time><course>37</course><type>18</type></trkpt>
      <trkpt lat="41.0907283" lon="-3.6924934"><ele>2276</ele><speed>42</speed><time>2016-10-08T12:43:16Z</time><course>39</course><type>18</type></trkpt>
      <trkpt lat="41.0908683" lon="-3.6923284"><ele>2275</ele><speed>49</speed><time>2016-10-08T12:43:17Z</time><course>44</course><type>18</type></trkpt>
      <trkpt lat="41.0909933" lon="-3.69215"><ele>2275</ele><speed>54</speed><time>2016-10-08T12:43:18Z</time><course>50</course><type>18</type></trkpt>
      <trkpt lat="41.0910983" lon="-3.6920017"><ele>2274</ele><speed>57</speed><time>2016-10-08T12:43:19Z</time><course>49</course><type>18</type></trkpt>
      <trkpt lat="41.091225" lon="-3.6918534"><ele>2274</ele><speed>59</speed><time>2016-10-08T12:43:20Z</time><course>46</course><type>18</type></trkpt>
      <trkpt lat="41.0913033" lon="-3.6917084"><ele>2273</ele><speed>58</speed><time>2016-10-08T12:43:21Z</time><course>49</course><type>18</type></trkpt>
      <trkpt lat="41.0914033" lon="-3.6915617"><ele>2273</ele><speed>58</speed><time>2016-10-08T12:43:22Z</time><course>49</course><type>18</type></trkpt>
      <trkpt lat="41.091545" lon="-3.691415"><ele>2273</ele><speed>60</speed><time>2016-10-08T12:43:23Z</time><course>47</course><type>18</type></trkpt>
      <trkpt lat="41.0916583" lon="-3.6912784"><ele>2272</ele><speed>59</speed><time>2016-10-08T12:43:24Z</time><course>45</course><type>18</type></trkpt>
      <trkpt lat="41.0917233" lon="-3.6911367"><ele>2272</ele><speed>54</speed><time>2016-10-08T12:43:25Z</time><course>48</course><type>18</type></trkpt>
      <trkpt lat="41.0916583" lon="-3.691005"><ele>2270</ele><speed>44</speed><time>2016-10-08T12:43:26Z</time><course>57</course><type>18</type></trkpt>
      <trkpt lat="41.0914216" lon="-3.69089"><ele>2265</ele><speed>30</speed><time>2016-10-08T12:43:27Z</time><course>84</course><type>18</type></trkpt>
      <trkpt lat="41.0912316" lon="-3.6907267"><ele>2263</ele><speed>34</speed><time>2016-10-08T12:43:28Z</time><course>106</course><type>18</type></trkpt>
      <trkpt lat="41.090995" lon="-3.6905484"><ele>2261</ele><speed>42</speed><time>2016-10-08T12:43:29Z</time><course>124</course><type>18</type></trkpt>
      <trkpt lat="41.090865" lon="-3.6904267"><ele>2260</ele><speed>42</speed><time>2016-10-08T12:43:30Z</time><course>129</course><type>18</type></trkpt>
      <trkpt lat="41.090765" lon="-3.69033"><ele>2259</ele><speed>41</speed><time>2016-10-08T12:43:31Z</time><course>134</course><type>18</type></trkpt>
      <trkpt lat="41.090675" lon="-3.690265"><ele>2258</ele><speed>40</speed><time>2016-10-08T12:43:32Z</time><course>141</course><type>18</type></trkpt>
      <trkpt lat="41.0905783" lon="-3.690205"><ele>2258</ele><speed>39</speed><time>2016-10-08T12:43:33Z</time><course>146</course><type>18</type></trkpt>
      <trkpt lat="41.0904833" lon="-3.69014"><ele>2257</ele><speed>38</speed><time>2016-10-08T12:43:34Z</time><course>147</course><type>18</type></trkpt>
      <trkpt lat="41.0903916" lon="-3.6900934"><ele>2256</ele><speed>35</speed><time>2016-10-08T12:43:35Z</time><course>150</course><type>18</type></trkpt>
      <trkpt lat="41.0903266" lon="-3.69016"><ele>2255</ele><speed>31</speed><time>2016-10-08T12:43:36Z</time><course>170</course><type>18</type></trkpt>
      <trkpt lat="41.090245" lon="-3.6901717"><ele>2255</ele><speed>33</speed><time>2016-10-08T12:43:37Z</time><course>175</course><type>18</type></trkpt>
      <trkpt lat="41.0901533" lon="-3.6901684"><ele>2255</ele><speed>34</speed><time>2016-10-08T12:43:38Z</time><course>176</course><type>18</type></trkpt>
      <trkpt lat="41.090065" lon="-3.6901667"><ele>2255</ele><speed>34</speed><time>2016-10-08T12:43:39Z</time><course>177</course><type>18</type></trkpt>
      <trkpt lat="41.08997" lon="-3.69012"><ele>2255</ele><speed>34</speed><time>2016-10-08T12:43:40Z</time><course>174</course><type>18</type></trkpt>
      <trkpt lat="41.0898666" lon="-3.6900317"><ele>2255</ele><speed>35</speed><time>2016-10-08T12:43:41Z</time><course>169</course><type>18</type></trkpt>
      <trkpt lat="41.0897516" lon="-3.6899417"><ele>2254</ele><speed>38</speed><time>2016-10-08T12:43:42Z</time><course>165</course><type>18</type></trkpt>
      <trkpt lat="41.0896249" lon="-3.68991"><ele>2254</ele><speed>39</speed><time>2016-10-08T12:43:43Z</time><course>165</course><type>18</type></trkpt>
      <trkpt lat="41.0894899" lon="-3.6899634"><ele>2253</ele><speed>40</speed><time>2016-10-08T12:43:44Z</time><course>174</course><type>18</type></trkpt>
      <trkpt lat="41.0893866" lon="-3.6900117"><ele>2253</ele><speed>39</speed><time>2016-10-08T12:43:45Z</time><course>183</course><type>18</type></trkpt>
      <trkpt lat="41.0893783" lon="-3.6901867"><ele>2252</ele><speed>22</speed><time>2016-10-08T12:43:48Z</time><course>201</course><type>18</type></trkpt>
      <trkpt lat="41.0893983" lon="-3.6903067"><ele>2251</ele><speed>21</speed><time>2016-10-08T12:43:49Z</time><course>217</course><type>18</type></trkpt>
      <trkpt lat="41.0894683" lon="-3.69053"><ele>2251</ele><speed>20</speed><time>2016-10-08T12:43:51Z</time><course>255</course><type>18</type></trkpt>
      <trkpt lat="41.0895433" lon="-3.6906367"><ele>2250</ele><speed>24</speed><time>2016-10-08T12:43:52Z</time><course>287</course><type>18</type></trkpt>
      <trkpt lat="41.08963" lon="-3.690725"><ele>2249</ele><speed>32</speed><time>2016-10-08T12:43:53Z</time><course>308</course><type>18</type></trkpt>
      <trkpt lat="41.0897033" lon="-3.69078"><ele>2250</ele><speed>24</speed><time>2016-10-08T12:43:54Z</time><course>322</course><type>18</type></trkpt>
      <trkpt lat="41.0897316" lon="-3.690935"><ele>2252</ele><speed>16</speed><time>2016-10-08T12:43:56Z</time><course>270</course><type>18</type></trkpt>
      <trkpt lat="41.0898216" lon="-3.6910117"><ele>2254</ele><speed>21</speed><time>2016-10-08T12:43:58Z</time><course>315</course><type>18</type></trkpt>
      <trkpt lat="41.0898916" lon="-3.6910434"><ele>2254</ele><speed>24</speed><time>2016-10-08T12:43:59Z</time><course>321</course><type>18</type></trkpt>
      <trkpt lat="41.08999" lon="-3.6910067"><ele>2254</ele><speed>24</speed><time>2016-10-08T12:44:00Z</time><course>336</course><type>18</type></trkpt>
      <trkpt lat="41.090115" lon="-3.690935"><ele>2254</ele><speed>27</speed><time>2016-10-08T12:44:01Z</time><course>352</course><type>18</type></trkpt>
      <trkpt lat="41.090235" lon="-3.69087"><ele>2254</ele><speed>32</speed><time>2016-10-08T12:44:02Z</time><course>4</course><type>18</type></trkpt>
      <trkpt lat="41.090355" lon="-3.6907817"><ele>2255</ele><speed>35</speed><time>2016-10-08T12:44:03Z</time><course>14</course><type>18</type></trkpt>
      <trkpt lat="41.0904816" lon="-3.6906617"><ele>2256</ele><speed>40</speed><time>2016-10-08T12:44:04Z</time><course>23</course><type>18</type></trkpt>
      <trkpt lat="41.0906133" lon="-3.69047"><ele>2257</ele><speed>50</speed><time>2016-10-08T12:44:05Z</time><course>36</course><type>18</type></trkpt>
      <trkpt lat="41.09071" lon="-3.6903384"><ele>2258</ele><speed>51</speed><time>2016-10-08T12:44:06Z</time><course>39</course><type>18</type></trkpt>
      <trkpt lat="41.090805" lon="-3.690205"><ele>2259</ele><speed>52</speed><time>2016-10-08T12:44:07Z</time><course>42</course><type>18</type></trkpt>
      <trkpt lat="41.0908866" lon="-3.6900567"><ele>2259</ele><speed>56</speed><time>2016-10-08T12:44:08Z</time><course>47</course><type>18</type></trkpt>
      <trkpt lat="41.0909749" lon="-3.68991"><ele>2260</ele><speed>55</speed><time>2016-10-08T12:44:09Z</time><course>50</course><type>18</type></trkpt>
      <trkpt lat="41.09108" lon="-3.6897684"><ele>2261</ele><speed>60</speed><time>2016-10-08T12:44:10Z</time><course>43</course><type>18</type></trkpt>
      <trkpt lat="41.0911766" lon="-3.6896234"><ele>2262</ele><speed>60</speed><time>2016-10-08T12:44:11Z</time><course>45</course><type>18</type></trkpt>
      <trkpt lat="41.0912683" lon="-3.68948"><ele>2263</ele><speed>58</speed><time>2016-10-08T12:44:12Z</time><course>47</course><type>18</type></trkpt>
      <trkpt lat="41.0913583" lon="-3.6893367"><ele>2264</ele><speed>57</speed><time>2016-10-08T12:44:13Z</time><course>48</course><type>18</type></trkpt>
      <trkpt lat="41.09151" lon="-3.6891467"><ele>2265</ele><speed>67</speed><time>2016-10-08T12:44:14Z</time><course>49</course><type>18</type></trkpt>
      <trkpt lat="41.091575" lon="-3.6890084"><ele>2265</ele><speed>60</speed><time>2016-10-08T12:44:15Z</time><course>50</course><type>18</type></trkpt>
      <trkpt lat="41.0915966" lon="-3.6888684"><ele>2265</ele><speed>55</speed><time>2016-10-08T12:44:16Z</time><course>53</course><type>18</type></trkpt>
      <trkpt lat="41.09161" lon="-3.6887534"><ele>2265</ele><speed>47</speed><time>2016-10-08T12:44:17Z</time><course>55</course><type>18</type></trkpt>
      <trkpt lat="41.091575" lon="-3.6886117"><ele>2266</ele><speed>42</speed><time>2016-10-08T12:44:18Z</time><course>65</course><type>18</type></trkpt>
      <trkpt lat="41.0915" lon="-3.68845"><ele>2266</ele><speed>40</speed><time>2016-10-08T12:44:19Z</time><course>76</course><type>18</type></trkpt>
      <trkpt lat="41.0914316" lon="-3.688285"><ele>2266</ele><speed>40</speed><time>2016-10-08T12:44:20Z</time><course>84</course><type>18</type></trkpt>
      <trkpt lat="41.0913566" lon="-3.6881434"><ele>2266</ele><speed>38</speed><time>2016-10-08T12:44:21Z</time><course>90</course><type>18</type></trkpt>
      <trkpt lat="41.0912666" lon="-3.6879784"><ele>2266</ele><speed>39</speed><time>2016-10-08T12:44:22Z</time><course>97</course><type>18</type></trkpt>
      <trkpt lat="41.0912016" lon="-3.6878267"><ele>2266</ele><speed>41</speed><time>2016-10-08T12:44:23Z</time><course>99</course><type>18</type></trkpt>
      <trkpt lat="41.0911466" lon="-3.6876751"><ele>2267</ele><speed>43</speed><time>2016-10-08T12:44:24Z</time><course>99</course><type>18</type></trkpt>
      <trkpt lat="41.09109" lon="-3.6875234"><ele>2268</ele><speed>44</speed><time>2016-10-08T12:44:25Z</time><course>98</course><type>18</type></trkpt>
      <trkpt lat="41.091035" lon="-3.687365"><ele>2268</ele><speed>45</speed><time>2016-10-08T12:44:26Z</time><course>100</course><type>18</type></trkpt>
      <trkpt lat="41.090995" lon="-3.6872284"><ele>2269</ele><speed>43</speed><time>2016-10-08T12:44:27Z</time><course>99</course><type>18</type></trkpt>
      <trkpt lat="41.0909616" lon="-3.687075"><ele>2269</ele><speed>46</speed><time>2016-10-08T12:44:28Z</time><course>94</course><type>18</type></trkpt>
      <trkpt lat="41.0909216" lon="-3.68693"><ele>2270</ele><speed>44</speed><time>2016-10-08T12:44:29Z</time><course>98</course><type>18</type></trkpt>
      <trkpt lat="41.0908966" lon="-3.6867867"><ele>2271</ele><speed>44</speed><time>2016-10-08T12:44:30Z</time><course>97</course><type>18</type></trkpt>
      <trkpt lat="41.0908733" lon="-3.6866334"><ele>2271</ele><speed>45</speed><time>2016-10-08T12:44:31Z</time><course>97</course><type>18</type></trkpt>
      <trkpt lat="41.0908383" lon="-3.6864684"><ele>2272</ele><speed>44</speed><time>2016-10-08T12:44:32Z</time><course>87</course><type>18</type></trkpt>
      <trkpt lat="41.090815" lon="-3.6863267"><ele>2272</ele><speed>43</speed><time>2016-10-08T12:44:33Z</time><course>88</course><type>18</type></trkpt>
      <trkpt lat="41.09078" lon="-3.6861867"><ele>2273</ele><speed>42</speed><time>2016-10-08T12:44:34Z</time><course>92</course><type>18</type></trkpt>
      <trkpt lat="41.0907383" lon="-3.6860734"><ele>2273</ele><speed>40</speed><time>2016-10-08T12:44:35Z</time><course>97</course><type>18</type></trkpt>
      <trkpt lat="41.090695" lon="-3.6859301"><ele>2274</ele><speed>41</speed><time>2016-10-08T12:44:36Z</time><course>98</course><type>18</type></trkpt>
      <trkpt lat="41.0906566" lon="-3.685775"><ele>2274</ele><speed>43</speed><time>2016-10-08T12:44:37Z</time><course>97</course><type>18</type></trkpt>
      <trkpt lat="41.0906283" lon="-3.685635"><ele>2275</ele><speed>45</speed><time>2016-10-08T12:44:38Z</time><course>95</course><type>18</type></trkpt>
      <trkpt lat="41.09061" lon="-3.6854834"><ele>2275</ele><speed>47</speed><time>2016-10-08T12:44:39Z</time><course>92</course><type>18</type></trkpt>
      <trkpt lat="41.0906133" lon="-3.6853284"><ele>2275</ele><speed>50</speed><time>2016-10-08T12:44:41Z</time><course>83</course><type>18</type></trkpt>
      <trkpt lat="41.0906616" lon="-3.6852567"><ele>2275</ele><speed>50</speed><time>2016-10-08T12:44:42Z</time><course>74</course><type>18</type></trkpt>
      <trkpt lat="41.0907033" lon="-3.685135"><ele>2275</ele><speed>48</speed><time>2016-10-08T12:44:43Z</time><course>70</course><type>18</type></trkpt>
      <trkpt lat="41.09074" lon="-3.6849734"><ele>2276</ele><speed>56</speed><time>2016-10-08T12:44:44Z</time><course>69</course><type>18</type></trkpt>
      <trkpt lat="41.0907716" lon="-3.6848117"><ele>2276</ele><speed>53</speed><time>2016-10-08T12:44:45Z</time><course>72</course><type>18</type></trkpt>
      <trkpt lat="41.0908016" lon="-3.6846434"><ele>2277</ele><speed>53</speed><time>2016-10-08T12:44:46Z</time><course>74</course><type>18</type></trkpt>
      <trkpt lat="41.0908233" lon="-3.684495"><ele>2277</ele><speed>51</speed><time>2016-10-08T12:44:47Z</time><course>76</course><type>18</type></trkpt>
      <trkpt lat="41.0908416" lon="-3.6843784"><ele>2278</ele><speed>47</speed><time>2016-10-08T12:44:48Z</time><course>78</course><type>18</type></trkpt>
      <trkpt lat="41.09091" lon="-3.68421"><ele>2278</ele><speed>38</speed><time>2016-10-08T12:44:50Z</time><course>74</course><type>18</type></trkpt>
      <trkpt lat="41.0909883" lon="-3.6840684"><ele>2279</ele><speed>44</speed><time>2016-10-08T12:44:51Z</time><course>65</course><type>18</type></trkpt>
      <trkpt lat="41.09106" lon="-3.6839217"><ele>2279</ele><speed>46</speed><time>2016-10-08T12:44:52Z</time><course>60</course><type>18</type></trkpt>
      <trkpt lat="41.0911183" lon="-3.6837817"><ele>2279</ele><speed>45</speed><time>2016-10-08T12:44:53Z</time><course>59</course><type>18</type></trkpt>
      <trkpt lat="41.09119" lon="-3.68365"><ele>2279</ele><speed>45</speed><time>2016-10-08T12:44:54Z</time><course>58</course><type>18</type></trkpt>
      <trkpt lat="41.0912233" lon="-3.68353"><ele>2279</ele><speed>44</speed><time>2016-10-08T12:44:55Z</time><course>59</course><type>18</type></trkpt>
      <trkpt lat="41.09127" lon="-3.6834067"><ele>2280</ele><speed>44</speed><time>2016-10-08T12:44:56Z</time><course>60</course><type>18</type></trkpt>
      <trkpt lat="41.09133" lon="-3.6832717"><ele>2279</ele><speed>45</speed><time>2016-10-08T12:44:57Z</time><course>61</course><type>18</type></trkpt>
      <trkpt lat="41.0913816" lon="-3.6831334"><ele>2279</ele><speed>45</speed><time>2016-10-08T12:44:58Z</time><course>61</course><type>18</type></trkpt>
      <trkpt lat="41.0914383" lon="-3.683"><ele>2279</ele><speed>46</speed><time>2016-10-08T12:44:59Z</time><course>61</course><type>18</type></trkpt>
      <trkpt lat="41.0915033" lon="-3.6828634"><ele>2279</ele><speed>48</speed><time>2016-10-08T12:45:00Z</time><course>59</course><type>18</type></trkpt>
      <trkpt lat="41.0915599" lon="-3.682705"><ele>2279</ele><speed>62</speed><time>2016-10-08T12:45:01Z</time><course>60</course><type>18</type></trkpt>
      <trkpt lat="41.0915983" lon="-3.6825484"><ele>2279</ele><speed>45</speed><time>2016-10-08T12:45:02Z</time><course>69</course><type>18</type></trkpt>
      <trkpt lat="41.09164" lon="-3.6824417"><ele>2279</ele><speed>29</speed><time>2016-10-08T12:45:03Z</time><course>71</course><type>18</type></trkpt>
      <trkpt lat="41.0916583" lon="-3.6823184"><ele>2278</ele><speed>36</speed><time>2016-10-08T12:45:04Z</time><course>68</course><type>18</type></trkpt>
      <trkpt lat="41.09166" lon="-3.68219"><ele>2277</ele><speed>39</speed><time>2016-10-08T12:45:05Z</time><course>69</course><type>18</type></trkpt>
      <trkpt lat="41.0916883" lon="-3.68207"><ele>2277</ele><speed>42</speed><time>2016-10-08T12:45:06Z</time><course>67</course><type>18</type></trkpt>
      <trkpt lat="41.09173" lon="-3.6819467"><ele>2276</ele><speed>44</speed><time>2016-10-08T12:45:07Z</time><course>65</course><type>18</type></trkpt>
      <trkpt lat="41.0917516" lon="-3.681815"><ele>2275</ele><speed>45</speed><time>2016-10-08T12:45:08Z</time><course>67</course><type>18</type></trkpt>
      <trkpt lat="41.0917933" lon="-3.68169"><ele>2273</ele><speed>45</speed><time>2016-10-08T12:45:09Z</time><course>65</course><type>18</type></trkpt>
      <trkpt lat="41.0918366" lon="-3.6815767"><ele>2272</ele><speed>43</speed><time>2016-10-08T12:45:10Z</time><course>64</course><type>18</type></trkpt>
      <trkpt lat="41.0918766" lon="-3.6814634"><ele>2271</ele><speed>41</speed><time>2016-10-08T12:45:11Z</time><course>62</course><type>18</type></trkpt>
      <trkpt lat="41.09194" lon="-3.6813367"><ele>2269</ele><speed>42</speed><time>2016-10-08T12:45:12Z</time><course>59</course><type>18</type></trkpt>
      <trkpt lat="41.0919983" lon="-3.6811984"><ele>2266</ele><speed>46</speed><time>2016-10-08T12:45:13Z</time><course>57</course><type>18</type></trkpt>
      <trkpt lat="41.0920549" lon="-3.6810434"><ele>2264</ele><speed>48</speed><time>2016-10-08T12:45:14Z</time><course>57</course><type>18</type></trkpt>
      <trkpt lat="41.0920933" lon="-3.68089"><ele>2261</ele><speed>45</speed><time>2016-10-08T12:45:15Z</time><course>60</course><type>18</type></trkpt>
      <trkpt lat="41.0921266" lon="-3.6807584"><ele>2258</ele><speed>41</speed><time>2016-10-08T12:45:16Z</time><course>64</course><type>18</type></trkpt>
      <trkpt lat="41.09216" lon="-3.680625"><ele>2256</ele><speed>39</speed><time>2016-10-08T12:45:17Z</time><course>67</course><type>18</type></trkpt>
      <trkpt lat="41.0921983" lon="-3.6804967"><ele>2254</ele><speed>49</speed><time>2016-10-08T12:45:18Z</time><course>63</course><type>18</type></trkpt>
      <trkpt lat="41.0922416" lon="-3.6803484"><ele>2252</ele><speed>46</speed><time>2016-10-08T12:45:19Z</time><course>65</course><type>18</type></trkpt>
      <trkpt lat="41.0922816" lon="-3.68021"><ele>2250</ele><speed>45</speed><time>2016-10-08T12:45:20Z</time><course>67</course><type>18</type></trkpt>
      <trkpt lat="41.0923066" lon="-3.6801034"><ele>2249</ele><speed>41</speed><time>2016-10-08T12:45:21Z</time><course>71</course><type>18</type></trkpt>
      <trkpt lat="41.0923233" lon="-3.6799617"><ele>2248</ele><speed>41</speed><time>2016-10-08T12:45:22Z</time><course>75</course><type>18</type></trkpt>
      <trkpt lat="41.0922983" lon="-3.679865"><ele>2247</ele><speed>34</speed><time>2016-10-08T12:45:23Z</time><course>89</course><type>18</type></trkpt>
      <trkpt lat="41.0923016" lon="-3.67974"><ele>2247</ele><speed>37</speed><time>2016-10-08T12:45:24Z</time><course>87</course><type>18</type></trkpt>
      <trkpt lat="41.0923133" lon="-3.6796167"><ele>2246</ele><speed>38</speed><time>2016-10-08T12:45:25Z</time><course>82</course><type>18</type></trkpt>
      <trkpt lat="41.0923383" lon="-3.6794867"><ele>2245</ele><speed>40</speed><time>2016-10-08T12:45:26Z</time><course>77</course><type>18</type></trkpt>
      <trkpt lat="41.0923766" lon="-3.67935"><ele>2244</ele><speed>42</speed><time>2016-10-08T12:45:27Z</time><course>74</course><type>18</type></trkpt>
      <trkpt lat="41.0924316" lon="-3.679205"><ele>2243</ele><speed>43</speed><time>2016-10-08T12:45:28Z</time><course>73</course><type>18</type></trkpt>
      <trkpt lat="41.0925116" lon="-3.6790617"><ele>2243</ele><speed>44</speed><time>2016-10-08T12:45:29Z</time><course>72</course><type>18</type></trkpt>
      <trkpt lat="41.0926716" lon="-3.67897"><ele>2241</ele><speed>43</speed><time>2016-10-08T12:45:30Z</time><course>67</course><type>18</type></trkpt>
      <trkpt lat="41.09273" lon="-3.678835"><ele>2240</ele><speed>43</speed><time>2016-10-08T12:45:31Z</time><course>66</course><type>18</type></trkpt>
      <trkpt lat="41.0928133" lon="-3.6786967"><ele>2239</ele><speed>45</speed><time>2016-10-08T12:45:32Z</time><course>60</course><type>18</type></trkpt>
      <trkpt lat="41.092875" lon="-3.67856"><ele>2238</ele><speed>46</speed><time>2016-10-08T12:45:33Z</time><course>58</course><type>18</type></trkpt>
      <trkpt lat="41.0929316" lon="-3.6784284"><ele>2237</ele><speed>47</speed><time>2016-10-08T12:45:34Z</time><course>55</course><type>18</type></trkpt>
      <trkpt lat="41.0929983" lon="-3.6782967"><ele>2236</ele><speed>48</speed><time>2016-10-08T12:45:35Z</time><course>54</course><type>18</type></trkpt>
      <trkpt lat="41.0930416" lon="-3.6781917"><ele>2235</ele><speed>36</speed><time>2016-10-08T12:45:36Z</time><course>54</course><type>18</type></trkpt>
      <trkpt lat="41.0930916" lon="-3.6780834"><ele>2235</ele><speed>36</speed><time>2016-10-08T12:45:37Z</time><course>58</course><type>18</type></trkpt>
      <trkpt lat="41.0931266" lon="-3.6779834"><ele>2234</ele><speed>35</speed><time>2016-10-08T12:45:38Z</time><course>57</course><type>18</type></trkpt>
      <trkpt lat="41.0931883" lon="-3.677855"><ele>2232</ele><speed>26</speed><time>2016-10-08T12:45:40Z</time><course>63</course><type>18</type></trkpt>
      <trkpt lat="41.09322" lon="-3.6777117"><ele>2231</ele><speed>35</speed><time>2016-10-08T12:45:41Z</time><course>72</course><type>18</type></trkpt>
      <trkpt lat="41.0932816" lon="-3.67759"><ele>2231</ele><speed>39</speed><time>2016-10-08T12:45:42Z</time><course>66</course><type>18</type></trkpt>
      <trkpt lat="41.093355" lon="-3.6774634"><ele>2229</ele><speed>43</speed><time>2016-10-08T12:45:43Z</time><course>60</course><type>18</type></trkpt>
      <trkpt lat="41.0934233" lon="-3.6773417"><ele>2229</ele><speed>44</speed><time>2016-10-08T12:45:44Z</time><course>56</course><type>18</type></trkpt>
      <trkpt lat="41.09349" lon="-3.677215"><ele>2227</ele><speed>45</speed><time>2016-10-08T12:45:45Z</time><course>53</course><type>18</type></trkpt>
      <trkpt lat="41.0935733" lon="-3.6770934"><ele>2227</ele><speed>47</speed><time>2016-10-08T12:45:46Z</time><course>50</course><type>18</type></trkpt>
      <trkpt lat="41.09364" lon="-3.676965"><ele>2226</ele><speed>47</speed><time>2016-10-08T12:45:47Z</time><course>50</course><type>18</type></trkpt>
      <trkpt lat="41.093705" lon="-3.67683"><ele>2225</ele><speed>48</speed><time>2016-10-08T12:45:48Z</time><course>50</course><type>18</type></trkpt>
      <trkpt lat="41.0937816" lon="-3.676695"><ele>2224</ele><speed>49</speed><time>2016-10-08T12:45:49Z</time><course>48</course><type>18</type></trkpt>
      <trkpt lat="41.09385" lon="-3.6765617"><ele>2223</ele><speed>49</speed><time>2016-10-08T12:45:50Z</time><course>49</course><type>18</type></trkpt>
      <trkpt lat="41.0939333" lon="-3.6764417"><ele>2222</ele><speed>49</speed><time>2016-10-08T12:45:51Z</time><course>43</course><type>18</type></trkpt>
      <trkpt lat="41.09403" lon="-3.6763067"><ele>2221</ele><speed>60</speed><time>2016-10-08T12:45:52Z</time><course>43</course><type>18</type></trkpt>
      <trkpt lat="41.0941466" lon="-3.6761834"><ele>2220</ele><speed>59</speed><time>2016-10-08T12:45:53Z</time><course>41</course><type>18</type></trkpt>
      <trkpt lat="41.0942633" lon="-3.6760801"><ele>2218</ele><speed>57</speed><time>2016-10-08T12:45:54Z</time><course>40</course><type>18</type></trkpt>
      <trkpt lat="41.0943516" lon="-3.675985"><ele>2217</ele><speed>53</speed><time>2016-10-08T12:45:55Z</time><course>40</course><type>18</type></trkpt>
      <trkpt lat="41.0944116" lon="-3.67592"><ele>2217</ele><speed>46</speed><time>2016-10-08T12:45:56Z</time><course>40</course><type>18</type></trkpt>
      <trkpt lat="41.094525" lon="-3.67577"><ele>2215</ele><speed>43</speed><time>2016-10-08T12:45:58Z</time><course>43</course><type>18</type></trkpt>
      <trkpt lat="41.0945916" lon="-3.6756534"><ele>2215</ele><speed>47</speed><time>2016-10-08T12:45:59Z</time><course>45</course><type>18</type></trkpt>
      <trkpt lat="41.094605" lon="-3.6755117"><ele>2214</ele><speed>46</speed><time>2016-10-08T12:46:00Z</time><course>51</course><type>18</type></trkpt>
      <trkpt lat="41.0946683" lon="-3.6753917"><ele>2213</ele><speed>47</speed><time>2016-10-08T12:46:01Z</time><course>50</course><type>18</type></trkpt>
      <trkpt lat="41.09473" lon="-3.6752684"><ele>2212</ele><speed>48</speed><time>2016-10-08T12:46:02Z</time><course>49</course><type>18</type></trkpt>
      <trkpt lat="41.0947866" lon="-3.6751417"><ele>2211</ele><speed>49</speed><time>2016-10-08T12:46:03Z</time><course>49</course><type>18</type></trkpt>
      <trkpt lat="41.09485" lon="-3.6750117"><ele>2210</ele><speed>49</speed><time>2016-10-08T12:46:04Z</time><course>50</course><type>18</type></trkpt>
      <trkpt lat="41.0949116" lon="-3.6748734"><ele>2210</ele><speed>49</speed><time>2016-10-08T12:46:05Z</time><course>52</course><type>18</type></trkpt>
      <trkpt lat="41.09498" lon="-3.6747417"><ele>2209</ele><speed>47</speed><time>2016-10-08T12:46:06Z</time><course>51</course><type>18</type></trkpt>
      <trkpt lat="41.095055" lon="-3.6746167"><ele>2208</ele><speed>47</speed><time>2016-10-08T12:46:07Z</time><course>47</course><type>18</type></trkpt>
      <trkpt lat="41.0951366" lon="-3.6744834"><ele>2207</ele><speed>57</speed><time>2016-10-08T12:46:08Z</time><course>45</course><type>18</type></trkpt>
      <trkpt lat="41.09524" lon="-3.67433"><ele>2206</ele><speed>68</speed><time>2016-10-08T12:46:09Z</time><course>44</course><type>18</type></trkpt>
      <trkpt lat="41.0953516" lon="-3.67417"><ele>2205</ele><speed>67</speed><time>2016-10-08T12:46:10Z</time><course>44</course><type>18</type></trkpt>
      <trkpt lat="41.09546" lon="-3.674015"><ele>2204</ele><speed>66</speed><time>2016-10-08T12:46:11Z</time><course>44</course><type>18</type></trkpt>
      <trkpt lat="41.0955433" lon="-3.6738917"><ele>2203</ele><speed>60</speed><time>2016-10-08T12:46:12Z</time><course>45</course><type>18</type></trkpt>
      <trkpt lat="41.0956466" lon="-3.6737567"><ele>2203</ele><speed>59</speed><time>2016-10-08T12:46:13Z</time><course>45</course><type>18</type></trkpt>
      <trkpt lat="41.0957399" lon="-3.6736267"><ele>2202</ele><speed>57</speed><time>2016-10-08T12:46:14Z</time><course>45</course><type>18</type></trkpt>
      <trkpt lat="41.095755" lon="-3.673445"><ele>2201</ele><speed>54</speed><time>2016-10-08T12:46:15Z</time><course>56</course><type>18</type></trkpt>
      <trkpt lat="41.0958266" lon="-3.67333"><ele>2200</ele><speed>51</speed><time>2016-10-08T12:46:16Z</time><course>55</course><type>18</type></trkpt>
      <trkpt lat="41.0958966" lon="-3.673225"><ele>2200</ele><speed>48</speed><time>2016-10-08T12:46:17Z</time><course>53</course><type>18</type></trkpt>
      <trkpt lat="41.0959633" lon="-3.6731284"><ele>2199</ele><speed>45</speed><time>2016-10-08T12:46:18Z</time><course>50</course><type>18</type></trkpt>
      <trkpt lat="41.0960216" lon="-3.6730167"><ele>2198</ele><speed>44</speed><time>2016-10-08T12:46:19Z</time><course>49</course><type>18</type></trkpt>
      <trkpt lat="41.0960783" lon="-3.6729051"><ele>2197</ele><speed>44</speed><time>2016-10-08T12:46:20Z</time><course>49</course><type>18</type></trkpt>
      <trkpt lat="41.0961416" lon="-3.6728"><ele>2196</ele><speed>43</speed><time>2016-10-08T12:46:21Z</time><course>49</course><type>18</type></trkpt>
      <trkpt lat="41.0961933" lon="-3.6727267"><ele>2195</ele><speed>42</speed><time>2016-10-08T12:46:22Z</time><course>48</course><type>18</type></trkpt>
      <trkpt lat="41.0963016" lon="-3.672565"><ele>2193</ele><speed>43</speed><time>2016-10-08T12:46:24Z</time><course>47</course><type>18</type></trkpt>
      <trkpt lat="41.0963633" lon="-3.6724417"><ele>2193</ele><speed>62</speed><time>2016-10-08T12:46:25Z</time><course>49</course><type>18</type></trkpt>
      <trkpt lat="41.0964316" lon="-3.6723201"><ele>2192</ele><speed>52</speed><time>2016-10-08T12:46:26Z</time><course>52</course><type>18</type></trkpt>
      <trkpt lat="41.0964883" lon="-3.6722217"><ele>2191</ele><speed>30</speed><time>2016-10-08T12:46:27Z</time><course>56</course><type>18</type></trkpt>
      <trkpt lat="41.096525" lon="-3.6721184"><ele>2191</ele><speed>30</speed><time>2016-10-08T12:46:28Z</time><course>67</course><type>18</type></trkpt>
      <trkpt lat="41.09659" lon="-3.6720284"><ele>2190</ele><speed>38</speed><time>2016-10-08T12:46:29Z</time><course>53</course><type>18</type></trkpt>
      <trkpt lat="41.0966516" lon="-3.67192"><ele>2189</ele><speed>43</speed><time>2016-10-08T12:46:30Z</time><course>52</course><type>18</type></trkpt>
      <trkpt lat="41.0967166" lon="-3.6718017"><ele>2189</ele><speed>48</speed><time>2016-10-08T12:46:31Z</time><course>49</course><type>18</type></trkpt>
      <trkpt lat="41.0967883" lon="-3.6716834"><ele>2188</ele><speed>47</speed><time>2016-10-08T12:46:32Z</time><course>48</course><type>18</type></trkpt>
      <trkpt lat="41.0968433" lon="-3.6715634"><ele>2187</ele><speed>45</speed><time>2016-10-08T12:46:33Z</time><course>50</course><type>18</type></trkpt>
      <trkpt lat="41.0969116" lon="-3.6714484"><ele>2186</ele><speed>45</speed><time>2016-10-08T12:46:34Z</time><course>49</course><type>18</type></trkpt>
      <trkpt lat="41.0969816" lon="-3.6713384"><ele>2186</ele><speed>45</speed><time>2016-10-08T12:46:35Z</time><course>48</course><type>18</type></trkpt>
      <trkpt lat="41.097055" lon="-3.6712267"><ele>2185</ele><speed>46</speed><time>2016-10-08T12:46:36Z</time><course>48</course><type>18</type></trkpt>
      <trkpt lat="41.09713" lon="-3.6711167"><ele>2184</ele><speed>47</speed><time>2016-10-08T12:46:37Z</time><course>47</course><type>18</type></trkpt>
      <trkpt lat="41.0972016" lon="-3.6710017"><ele>2184</ele><speed>46</speed><time>2016-10-08T12:46:38Z</time><course>48</course><type>18</type></trkpt>
      <trkpt lat="41.0972716" lon="-3.670895"><ele>2183</ele><speed>44</speed><time>2016-10-08T12:46:39Z</time><course>48</course><type>18</type></trkpt>
      <trkpt lat="41.0973433" lon="-3.6707967"><ele>2182</ele><speed>42</speed><time>2016-10-08T12:46:40Z</time><course>46</course><type>18</type></trkpt>
      <trkpt lat="41.09741" lon="-3.6706917"><ele>2181</ele><speed>41</speed><time>2016-10-08T12:46:41Z</time><course>46</course><type>18</type></trkpt>
      <trkpt lat="41.0974766" lon="-3.6705884"><ele>2180</ele><speed>41</speed><time>2016-10-08T12:46:42Z</time><course>47</course><type>18</type></trkpt>
      <trkpt lat="41.097545" lon="-3.6704851"><ele>2180</ele><speed>41</speed><time>2016-10-08T12:46:43Z</time><course>48</course><type>18</type></trkpt>
      <trkpt lat="41.0976133" lon="-3.670405"><ele>2179</ele><speed>40</speed><time>2016-10-08T12:46:44Z</time><course>46</course><type>18</type></trkpt>
      <trkpt lat="41.097715" lon="-3.6704217"><ele>2178</ele><speed>38</speed><time>2016-10-08T12:46:45Z</time><course>36</course><type>18</type></trkpt>
      <trkpt lat="41.0978016" lon="-3.6704084"><ele>2177</ele><speed>35</speed><time>2016-10-08T12:46:46Z</time><course>33</course><type>18</type></trkpt>
      <trkpt lat="41.0978883" lon="-3.6703917"><ele>2176</ele><speed>35</speed><time>2016-10-08T12:46:47Z</time><course>29</course><type>18</type></trkpt>
      <trkpt lat="41.0979683" lon="-3.6703501"><ele>2175</ele><speed>35</speed><time>2016-10-08T12:46:48Z</time><course>24</course><type>18</type></trkpt>
      <trkpt lat="41.0980616" lon="-3.6703967"><ele>2174</ele><speed>35</speed><time>2016-10-08T12:46:49Z</time><course>15</course><type>18</type></trkpt>
      <trkpt lat="41.09814" lon="-3.6704634"><ele>2172</ele><speed>34</speed><time>2016-10-08T12:46:50Z</time><course>5</course><type>18</type></trkpt>
      <trkpt lat="41.09822" lon="-3.670525"><ele>2171</ele><speed>33</speed><time>2016-10-08T12:46:51Z</time><course>356</course><type>18</type></trkpt>
      <trkpt lat="41.098295" lon="-3.67059"><ele>2169</ele><speed>33</speed><time>2016-10-08T12:46:52Z</time><course>352</course><type>18</type></trkpt>
      <trkpt lat="41.0983816" lon="-3.670635"><ele>2168</ele><speed>34</speed><time>2016-10-08T12:46:53Z</time><course>351</course><type>18</type></trkpt>
      <trkpt lat="41.098465" lon="-3.67068"><ele>2167</ele><speed>34</speed><time>2016-10-08T12:46:54Z</time><course>352</course><type>18</type></trkpt>
      <trkpt lat="41.0985466" lon="-3.6706984"><ele>2166</ele><speed>32</speed><time>2016-10-08T12:46:55Z</time><course>355</course><type>18</type></trkpt>
      <trkpt lat="41.09863" lon="-3.6707167"><ele>2165</ele><speed>31</speed><time>2016-10-08T12:46:56Z</time><course>357</course><type>18</type></trkpt>
      <trkpt lat="41.0987016" lon="-3.670735"><ele>2164</ele><speed>30</speed><time>2016-10-08T12:46:57Z</time><course>358</course><type>18</type></trkpt>
      <trkpt lat="41.0987716" lon="-3.6707367"><ele>2163</ele><speed>30</speed><time>2016-10-08T12:46:58Z</time><course>359</course><type>18</type></trkpt>
      <trkpt lat="41.0988433" lon="-3.6707367"><ele>2162</ele><speed>30</speed><time>2016-10-08T12:46:59Z</time><course>359</course><type>18</type></trkpt>
      <trkpt lat="41.0989316" lon="-3.6707017"><ele>2161</ele><speed>37</speed><time>2016-10-08T12:47:00Z</time><course>12</course><type>18</type></trkpt>
      <trkpt lat="41.0990216" lon="-3.67069"><ele>2160</ele><speed>37</speed><time>2016-10-08T12:47:01Z</time><course>8</course><type>18</type></trkpt>
      <trkpt lat="41.0991133" lon="-3.6706867"><ele>2159</ele><speed>37</speed><time>2016-10-08T12:47:02Z</time><course>5</course><type>18</type></trkpt>
      <trkpt lat="41.0992049" lon="-3.6706834"><ele>2159</ele><speed>37</speed><time>2016-10-08T12:47:03Z</time><course>4</course><type>18</type></trkpt>
      <trkpt lat="41.0993" lon="-3.670685"><ele>2158</ele><speed>37</speed><time>2016-10-08T12:47:04Z</time><course>3</course><type>18</type></trkpt>
      <trkpt lat="41.0993983" lon="-3.6706917"><ele>2158</ele><speed>37</speed><time>2016-10-08T12:47:05Z</time><course>2</course><type>18</type></trkpt>
      <trkpt lat="41.0994983" lon="-3.6707184"><ele>2156</ele><speed>37</speed><time>2016-10-08T12:47:06Z</time><course>359</course><type>18</type></trkpt>
      <trkpt lat="41.0995966" lon="-3.6707567"><ele>2154</ele><speed>37</speed><time>2016-10-08T12:47:07Z</time><course>356</course><type>18</type></trkpt>
      <trkpt lat="41.0996866" lon="-3.6707567"><ele>2151</ele><speed>39</speed><time>2016-10-08T12:47:08Z</time><course>358</course><type>18</type></trkpt>
      <trkpt lat="41.0998266" lon="-3.6706417"><ele>2146</ele><speed>38</speed><time>2016-10-08T12:47:10Z</time><course>12</course><type>18</type></trkpt>
      <trkpt lat="41.0998383" lon="-3.6703534"><ele>2143</ele><speed>40</speed><time>2016-10-08T12:47:11Z</time><course>30</course><type>18</type></trkpt>
      <trkpt lat="41.0998866" lon="-3.67023"><ele>2142</ele><speed>43</speed><time>2016-10-08T12:47:12Z</time><course>37</course><type>18</type></trkpt>
      <trkpt lat="41.099935" lon="-3.67006"><ele>2139</ele><speed>45</speed><time>2016-10-08T12:47:13Z</time><course>44</course><type>18</type></trkpt>
      <trkpt lat="41.100005" lon="-3.6699317"><ele>2137</ele><speed>46</speed><time>2016-10-08T12:47:14Z</time><course>47</course><type>18</type></trkpt>
      <trkpt lat="41.1000933" lon="-3.6698167"><ele>2136</ele><speed>49</speed><time>2016-10-08T12:47:15Z</time><course>46</course><type>18</type></trkpt>
      <trkpt lat="41.1001816" lon="-3.6697"><ele>2134</ele><speed>49</speed><time>2016-10-08T12:47:16Z</time><course>45</course><type>18</type></trkpt>
      <trkpt lat="41.1002849" lon="-3.6695684"><ele>2132</ele><speed>50</speed><time>2016-10-08T12:47:17Z</time><course>44</course><type>18</type></trkpt>
      <trkpt lat="41.1003566" lon="-3.669445"><ele>2131</ele><speed>44</speed><time>2016-10-08T12:47:18Z</time><course>47</course><type>18</type></trkpt>
      <trkpt lat="41.1004383" lon="-3.6693167"><ele>2129</ele><speed>39</speed><time>2016-10-08T12:47:19Z</time><course>54</course><type>18</type></trkpt>
      <trkpt lat="41.1004683" lon="-3.6691867"><ele>2126</ele><speed>40</speed><time>2016-10-08T12:47:20Z</time><course>53</course><type>18</type></trkpt>
      <trkpt lat="41.1005133" lon="-3.6690584"><ele>2123</ele><speed>43</speed><time>2016-10-08T12:47:21Z</time><course>51</course><type>18</type></trkpt>
      <trkpt lat="41.1005816" lon="-3.6689267"><ele>2121</ele><speed>44</speed><time>2016-10-08T12:47:22Z</time><course>52</course><type>18</type></trkpt>
      <trkpt lat="41.1006416" lon="-3.6688134"><ele>2119</ele><speed>43</speed><time>2016-10-08T12:47:23Z</time><course>52</course><type>18</type></trkpt>
      <trkpt lat="41.100705" lon="-3.66868"><ele>2117</ele><speed>52</speed><time>2016-10-08T12:47:24Z</time><course>48</course><type>18</type></trkpt>
      <trkpt lat="41.10076" lon="-3.668565"><ele>2116</ele><speed>49</speed><time>2016-10-08T12:47:25Z</time><course>49</course><type>18</type></trkpt>
      <trkpt lat="41.10083" lon="-3.6684701"><ele>2113</ele><speed>45</speed><time>2016-10-08T12:47:26Z</time><course>49</course><type>18</type></trkpt>
      <trkpt lat="41.100895" lon="-3.6683717"><ele>2112</ele><speed>43</speed><time>2016-10-08T12:47:27Z</time><course>49</course><type>18</type></trkpt>
      <trkpt lat="41.1009683" lon="-3.66827"><ele>2110</ele><speed>43</speed><time>2016-10-08T12:47:28Z</time><course>48</course><type>18</type></trkpt>
      <trkpt lat="41.1010233" lon="-3.6681584"><ele>2107</ele><speed>43</speed><time>2016-10-08T12:47:29Z</time><course>50</course><type>18</type></trkpt>
      <trkpt lat="41.101085" lon="-3.6680484"><ele>2105</ele><speed>44</speed><time>2016-10-08T12:47:30Z</time><course>49</course><type>18</type></trkpt>
      <trkpt lat="41.10115" lon="-3.6679334"><ele>2103</ele><speed>46</speed><time>2016-10-08T12:47:31Z</time><course>49</course><type>18</type></trkpt>
      <trkpt lat="41.1012416" lon="-3.6678217"><ele>2101</ele><speed>48</speed><time>2016-10-08T12:47:32Z</time><course>47</course><type>18</type></trkpt>
      <trkpt lat="41.1013283" lon="-3.667715"><ele>2099</ele><speed>47</speed><time>2016-10-08T12:47:33Z</time><course>45</course><type>18</type></trkpt>
      <trkpt lat="41.101415" lon="-3.66762"><ele>2098</ele><speed>47</speed><time>2016-10-08T12:47:34Z</time><course>42</course><type>18</type></trkpt>
      <trkpt lat="41.1014983" lon="-3.6675034"><ele>2097</ele><speed>48</speed><time>2016-10-08T12:47:35Z</time><course>43</course><type>18</type></trkpt>
      <trkpt lat="41.1015466" lon="-3.66741"><ele>2096</ele><speed>39</speed><time>2016-10-08T12:47:36Z</time><course>47</course><type>18</type></trkpt>
      <trkpt lat="41.1016216" lon="-3.6673017"><ele>2095</ele><speed>39</speed><time>2016-10-08T12:47:37Z</time><course>49</course><type>18</type></trkpt>
      <trkpt lat="41.1017183" lon="-3.6671884"><ele>2093</ele><speed>42</speed><time>2016-10-08T12:47:38Z</time><course>47</course><type>18</type></trkpt>
      <trkpt lat="41.1018433" lon="-3.667085"><ele>2091</ele><speed>48</speed><time>2016-10-08T12:47:39Z</time><course>48</course><type>18</type></trkpt>
      <trkpt lat="41.101945" lon="-3.6669634"><ele>2089</ele><speed>50</speed><time>2016-10-08T12:47:40Z</time><course>48</course><type>18</type></trkpt>
      <trkpt lat="41.1020516" lon="-3.66684"><ele>2087</ele><speed>51</speed><time>2016-10-08T12:47:41Z</time><course>47</course><type>18</type></trkpt>
      <trkpt lat="41.1020733" lon="-3.6666784"><ele>2086</ele><speed>51</speed><time>2016-10-08T12:47:42Z</time><course>50</course><type>18</type></trkpt>
      <trkpt lat="41.1021549" lon="-3.6665667"><ele>2083</ele><speed>53</speed><time>2016-10-08T12:47:43Z</time><course>52</course><type>18</type></trkpt>
      <trkpt lat="41.1022516" lon="-3.6664467"><ele>2079</ele><speed>55</speed><time>2016-10-08T12:47:44Z</time><course>53</course><type>18</type></trkpt>
      <trkpt lat="41.1023683" lon="-3.6663284"><ele>2077</ele><speed>55</speed><time>2016-10-08T12:47:45Z</time><course>54</course><type>18</type></trkpt>
      <trkpt lat="41.1024566" lon="-3.6661884"><ele>2075</ele><speed>55</speed><time>2016-10-08T12:47:46Z</time><course>57</course><type>18</type></trkpt>
      <trkpt lat="41.1025633" lon="-3.6660584"><ele>2072</ele><speed>55</speed><time>2016-10-08T12:47:47Z</time><course>61</course><type>18</type></trkpt>
      <trkpt lat="41.102665" lon="-3.6659384"><ele>2068</ele><speed>44</speed><time>2016-10-08T12:47:48Z</time><course>64</course><type>18</type></trkpt>
      <trkpt lat="41.102745" lon="-3.66582"><ele>2065</ele><speed>42</speed><time>2016-10-08T12:47:49Z</time><course>65</course><type>18</type></trkpt>
      <trkpt lat="41.1028333" lon="-3.665675"><ele>2062</ele><speed>54</speed><time>2016-10-08T12:47:50Z</time><course>62</course><type>18</type></trkpt>
      <trkpt lat="41.1029066" lon="-3.6655134"><ele>2060</ele><speed>50</speed><time>2016-10-08T12:47:51Z</time><course>63</course><type>18</type></trkpt>
      <trkpt lat="41.1029183" lon="-3.6653534"><ele>2058</ele><speed>49</speed><time>2016-10-08T12:47:52Z</time><course>64</course><type>18</type></trkpt>
      <trkpt lat="41.1029733" lon="-3.665195"><ele>2056</ele><speed>49</speed><time>2016-10-08T12:47:53Z</time><course>65</course><type>18</type></trkpt>
      <trkpt lat="41.1030233" lon="-3.6650617"><ele>2055</ele><speed>46</speed><time>2016-10-08T12:47:54Z</time><course>64</course><type>18</type></trkpt>
      <trkpt lat="41.1030483" lon="-3.6649634"><ele>2054</ele><speed>42</speed><time>2016-10-08T12:47:55Z</time><course>64</course><type>18</type></trkpt>
      <trkpt lat="41.1029583" lon="-3.66481"><ele>2050</ele><speed>33</speed><time>2016-10-08T12:47:57Z</time><course>66</course><type>18</type></trkpt>
      <trkpt lat="41.1030483" lon="-3.664745"><ele>2047</ele><speed>29</speed><time>2016-10-08T12:47:59Z</time><course>35</course><type>18</type></trkpt>
      <trkpt lat="41.1031366" lon="-3.6646834"><ele>2044</ele><speed>27</speed><time>2016-10-08T12:48:01Z</time><course>25</course><type>18</type></trkpt>
      <trkpt lat="41.1032166" lon="-3.6646734"><ele>2042</ele><speed>24</speed><time>2016-10-08T12:48:03Z</time><course>13</course><type>18</type></trkpt>
      <trkpt lat="41.1032716" lon="-3.6647834"><ele>2039</ele><speed>13</speed><time>2016-10-08T12:48:06Z</time><course>7</course><type>18</type></trkpt>
      <trkpt lat="41.1032833" lon="-3.6648917"><ele>2036</ele><speed>17</speed><time>2016-10-08T12:48:08Z</time><course>326</course><type>18</type></trkpt>
      <trkpt lat="41.10335" lon="-3.6649767"><ele>2033</ele><speed>15</speed><time>2016-10-08T12:48:11Z</time><course>328</course><type>18</type></trkpt>
      <trkpt lat="41.103285" lon="-3.6648934"><ele>2030</ele><speed>12</speed><time>2016-10-08T12:48:14Z</time><course>147</course><type>18</type></trkpt>
      <trkpt lat="41.1032266" lon="-3.664815"><ele>2028</ele><speed>12</speed><time>2016-10-08T12:48:16Z</time><course>131</course><type>18</type></trkpt>
      <trkpt lat="41.1031899" lon="-3.664675"><ele>2026</ele><speed>14</speed><time>2016-10-08T12:48:18Z</time><course>107</course><type>18</type></trkpt>
      <trkpt lat="41.1030733" lon="-3.664505"><ele>2025</ele><speed>22</speed><time>2016-10-08T12:48:19Z</time><course>111</course><type>18</type></trkpt>
      <trkpt lat="41.1030716" lon="-3.664355"><ele>2024</ele><speed>25</speed><time>2016-10-08T12:48:20Z</time><course>107</course><type>18</type></trkpt>
      <trkpt lat="41.103095" lon="-3.6642117"><ele>2023</ele><speed>26</speed><time>2016-10-08T12:48:21Z</time><course>100</course><type>18</type></trkpt>
      <trkpt lat="41.1031083" lon="-3.6640384"><ele>2022</ele><speed>28</speed><time>2016-10-08T12:48:22Z</time><course>93</course><type>18</type></trkpt>
      <trkpt lat="41.10313" lon="-3.6638617"><ele>2021</ele><speed>30</speed><time>2016-10-08T12:48:23Z</time><course>88</course><type>18</type></trkpt>
      <trkpt lat="41.103155" lon="-3.6636834"><ele>2021</ele><speed>32</speed><time>2016-10-08T12:48:24Z</time><course>84</course><type>18</type></trkpt>
      <trkpt lat="41.1031916" lon="-3.6635034"><ele>2020</ele><speed>34</speed><time>2016-10-08T12:48:25Z</time><course>81</course><type>18</type></trkpt>
      <trkpt lat="41.1032316" lon="-3.6633417"><ele>2019</ele><speed>35</speed><time>2016-10-08T12:48:26Z</time><course>77</course><type>18</type></trkpt>
      <trkpt lat="41.1032766" lon="-3.6631767"><ele>2018</ele><speed>36</speed><time>2016-10-08T12:48:27Z</time><course>75</course><type>18</type></trkpt>
      <trkpt lat="41.10333" lon="-3.66302"><ele>2017</ele><speed>37</speed><time>2016-10-08T12:48:28Z</time><course>72</course><type>18</type></trkpt>
      <trkpt lat="41.1033283" lon="-3.6628567"><ele>2016</ele><speed>37</speed><time>2016-10-08T12:48:29Z</time><course>69</course><type>18</type></trkpt>
      <trkpt lat="41.1034016" lon="-3.6626517"><ele>2015</ele><speed>37</speed><time>2016-10-08T12:48:30Z</time><course>66</course><type>18</type></trkpt>
      <trkpt lat="41.1034966" lon="-3.662505"><ele>2014</ele><speed>38</speed><time>2016-10-08T12:48:31Z</time><course>62</course><type>18</type></trkpt>
      <trkpt lat="41.1035833" lon="-3.662385"><ele>2014</ele><speed>39</speed><time>2016-10-08T12:48:32Z</time><course>60</course><type>18</type></trkpt>
      <trkpt lat="41.10371" lon="-3.662185"><ele>2012</ele><speed>37</speed><time>2016-10-08T12:48:34Z</time><course>55</course><type>18</type></trkpt>
      <trkpt lat="41.1038666" lon="-3.66203"><ele>2010</ele><speed>38</speed><time>2016-10-08T12:48:36Z</time><course>48</course><type>18</type></trkpt>
      <trkpt lat="41.1040166" lon="-3.6618784"><ele>2008</ele><speed>37</speed><time>2016-10-08T12:48:38Z</time><course>42</course><type>18</type></trkpt>
      <trkpt lat="41.10416" lon="-3.6617167"><ele>2006</ele><speed>36</speed><time>2016-10-08T12:48:40Z</time><course>39</course><type>18</type></trkpt>
      <trkpt lat="41.1042733" lon="-3.6615784"><ele>2005</ele><speed>29</speed><time>2016-10-08T12:48:42Z</time><course>42</course><type>18</type></trkpt>
      <trkpt lat="41.104425" lon="-3.661455"><ele>2002</ele><speed>35</speed><time>2016-10-08T12:48:44Z</time><course>48</course><type>18</type></trkpt>
      <trkpt lat="41.1045266" lon="-3.66129"><ele>2000</ele><speed>32</speed><time>2016-10-08T12:48:46Z</time><course>45</course><type>18</type></trkpt>
      <trkpt lat="41.1046033" lon="-3.66109"><ele>1998</ele><speed>37</speed><time>2016-10-08T12:48:48Z</time><course>49</course><type>18</type></trkpt>
      <trkpt lat="41.10462" lon="-3.6608634"><ele>1996</ele><speed>29</speed><time>2016-10-08T12:48:50Z</time><course>54</course><type>18</type></trkpt>
      <trkpt lat="41.1046016" lon="-3.6607"><ele>1993</ele><speed>24</speed><time>2016-10-08T12:48:54Z</time><course>55</course><type>18</type></trkpt>
      <trkpt lat="41.1045483" lon="-3.6605434"><ele>1992</ele><speed>30</speed><time>2016-10-08T12:48:55Z</time><course>77</course><type>18</type></trkpt>
      <trkpt lat="41.1045466" lon="-3.6602984"><ele>1990</ele><speed>31</speed><time>2016-10-08T12:48:57Z</time><course>85</course><type>18</type></trkpt>
      <trkpt lat="41.1045483" lon="-3.6600634"><ele>1988</ele><speed>32</speed><time>2016-10-08T12:48:59Z</time><course>88</course><type>18</type></trkpt>
      <trkpt lat="41.1045283" lon="-3.6598334"><ele>1986</ele><speed>33</speed><time>2016-10-08T12:49:01Z</time><course>92</course><type>18</type></trkpt>
      <trkpt lat="41.1044833" lon="-3.659625"><ele>1985</ele><speed>33</speed><time>2016-10-08T12:49:03Z</time><course>96</course><type>18</type></trkpt>
      <trkpt lat="41.104395" lon="-3.659715"><ele>1982</ele><speed>15</speed><time>2016-10-08T12:49:06Z</time><course>103</course><type>18</type></trkpt>
      <trkpt lat="41.104175" lon="-3.6598817"><ele>1981</ele><speed>11</speed><time>2016-10-08T12:49:10Z</time><course>277</course><type>18</type></trkpt>
      <trkpt lat="41.1042016" lon="-3.66093"><ele>1942</ele><speed>11</speed><time>2016-10-08T12:49:11Z</time><course>299</course><type>18</type></trkpt>
      <trkpt lat="41.10417" lon="-3.6612067"><ele>1937</ele><speed>17</speed><time>2016-10-08T12:49:12Z</time><course>3</course><type>18</type></trkpt>
      <trkpt lat="41.1041566" lon="-3.6613967"><ele>1940</ele><speed>17</speed><time>2016-10-08T12:49:13Z</time><course>12</course><type>18</type></trkpt>
      <trkpt lat="41.104245" lon="-3.6613884"><ele>1939</ele><speed>24</speed><time>2016-10-08T12:49:16Z</time><course>45</course><type>18</type></trkpt>
      <trkpt lat="41.1043183" lon="-3.6612617"><ele>1938</ele><speed>24</speed><time>2016-10-08T12:49:18Z</time><course>49</course><type>18</type></trkpt>
      <trkpt lat="41.104325" lon="-3.6611467"><ele>1934</ele><speed>30</speed><time>2016-10-08T12:49:19Z</time><course>59</course><type>18</type></trkpt>
      <trkpt lat="41.1042466" lon="-3.6610134"><ele>1928</ele><speed>29</speed><time>2016-10-08T12:49:20Z</time><course>71</course><type>18</type></trkpt>
      <trkpt lat="41.1042066" lon="-3.6609234"><ele>1926</ele><speed>26</speed><time>2016-10-08T12:49:21Z</time><course>82</course><type>18</type></trkpt>
      <trkpt lat="41.104125" lon="-3.6609051"><ele>1924</ele><speed>16</speed><time>2016-10-08T12:49:22Z</time><course>105</course><type>18</type></trkpt>
      <trkpt lat="41.10392" lon="-3.6608667"><ele>1922</ele><speed>22</speed><time>2016-10-08T12:49:24Z</time><course>139</course><type>18</type></trkpt>
      <trkpt lat="41.1038233" lon="-3.6608167"><ele>1921</ele><speed>25</speed><time>2016-10-08T12:49:25Z</time><course>146</course><type>18</type></trkpt>
      <trkpt lat="41.1037283" lon="-3.66076"><ele>1921</ele><speed>30</speed><time>2016-10-08T12:49:26Z</time><course>143</course><type>18</type></trkpt>
      <trkpt lat="41.1036166" lon="-3.6607117"><ele>1921</ele><speed>34</speed><time>2016-10-08T12:49:27Z</time><course>147</course><type>18</type></trkpt>
      <trkpt lat="41.1034383" lon="-3.6607184"><ele>1919</ele><speed>30</speed><time>2016-10-08T12:49:29Z</time><course>160</course><type>18</type></trkpt>
      <trkpt lat="41.1033183" lon="-3.6607767"><ele>1919</ele><speed>31</speed><time>2016-10-08T12:49:30Z</time><course>183</course><type>18</type></trkpt>
      <trkpt lat="41.10321" lon="-3.6608334"><ele>1918</ele><speed>33</speed><time>2016-10-08T12:49:31Z</time><course>191</course><type>18</type></trkpt>
      <trkpt lat="41.103105" lon="-3.6609"><ele>1918</ele><speed>35</speed><time>2016-10-08T12:49:32Z</time><course>196</course><type>18</type></trkpt>
      <trkpt lat="41.103075" lon="-3.661065"><ele>1917</ele><speed>27</speed><time>2016-10-08T12:49:34Z</time><course>208</course><type>18</type></trkpt>
      <trkpt lat="41.103075" lon="-3.6611751"><ele>1918</ele><speed>22</speed><time>2016-10-08T12:49:35Z</time><course>217</course><type>18</type></trkpt>
      <trkpt lat="41.1030933" lon="-3.6612867"><ele>1918</ele><speed>19</speed><time>2016-10-08T12:49:36Z</time><course>235</course><type>18</type></trkpt>
      <trkpt lat="41.1031133" lon="-3.6613784"><ele>1918</ele><speed>16</speed><time>2016-10-08T12:49:37Z</time><course>257</course><type>18</type></trkpt>
      <trkpt lat="41.1031616" lon="-3.6614667"><ele>1919</ele><speed>14</speed><time>2016-10-08T12:49:38Z</time><course>287</course><type>18</type></trkpt>
      <trkpt lat="41.1032516" lon="-3.66158"><ele>1921</ele><speed>18</speed><time>2016-10-08T12:49:40Z</time><course>320</course><type>18</type></trkpt>
      <trkpt lat="41.1033383" lon="-3.66163"><ele>1921</ele><speed>26</speed><time>2016-10-08T12:49:41Z</time><course>331</course><type>18</type></trkpt>
      <trkpt lat="41.103395" lon="-3.66169"><ele>1923</ele><speed>25</speed><time>2016-10-08T12:49:42Z</time><course>335</course><type>18</type></trkpt>
      <trkpt lat="41.1034333" lon="-3.661775"><ele>1925</ele><speed>23</speed><time>2016-10-08T12:49:43Z</time><course>325</course><type>18</type></trkpt>
      <trkpt lat="41.1034966" lon="-3.661855"><ele>1927</ele><speed>18</speed><time>2016-10-08T12:49:45Z</time><course>350</course><type>18</type></trkpt>
      <trkpt lat="41.1035916" lon="-3.6617617"><ele>1926</ele><speed>14</speed><time>2016-10-08T12:49:48Z</time><course>36</course><type>18</type></trkpt>
      <trkpt lat="41.1036416" lon="-3.6616484"><ele>1925</ele><speed>17</speed><time>2016-10-08T12:49:50Z</time><course>52</course><type>18</type></trkpt>
      <trkpt lat="41.10372" lon="-3.661465"><ele>1929</ele><speed>15</speed><time>2016-10-08T12:49:53Z</time><course>91</course><type>18</type></trkpt>
      <trkpt lat="41.1037016" lon="-3.6613484"><ele>1929</ele><speed>18</speed><time>2016-10-08T12:49:54Z</time><course>99</course><type>18</type></trkpt>
      <trkpt lat="41.1036583" lon="-3.6612267"><ele>1929</ele><speed>22</speed><time>2016-10-08T12:49:55Z</time><course>111</course><type>18</type></trkpt>
      <trkpt lat="41.1035983" lon="-3.6610851"><ele>1930</ele><speed>26</speed><time>2016-10-08T12:49:56Z</time><course>117</course><type>18</type></trkpt>
      <trkpt lat="41.1035433" lon="-3.6609784"><ele>1930</ele><speed>28</speed><time>2016-10-08T12:49:57Z</time><course>120</course><type>18</type></trkpt>
      <trkpt lat="41.1034533" lon="-3.6608151"><ele>1931</ele><speed>34</speed><time>2016-10-08T12:49:58Z</time><course>123</course><type>18</type></trkpt>
      <trkpt lat="41.1033666" lon="-3.66071"><ele>1931</ele><speed>36</speed><time>2016-10-08T12:49:59Z</time><course>127</course><type>18</type></trkpt>
      <trkpt lat="41.103265" lon="-3.6605984"><ele>1932</ele><speed>39</speed><time>2016-10-08T12:50:00Z</time><course>132</course><type>18</type></trkpt>
      <trkpt lat="41.103155" lon="-3.6605167"><ele>1931</ele><speed>41</speed><time>2016-10-08T12:50:01Z</time><course>136</course><type>18</type></trkpt>
      <trkpt lat="41.1030616" lon="-3.6604334"><ele>1931</ele><speed>41</speed><time>2016-10-08T12:50:02Z</time><course>138</course><type>18</type></trkpt>
      <trkpt lat="41.1029016" lon="-3.6603334"><ele>1931</ele><speed>46</speed><time>2016-10-08T12:50:03Z</time><course>145</course><type>18</type></trkpt>
      <trkpt lat="41.102765" lon="-3.6603651"><ele>1931</ele><speed>44</speed><time>2016-10-08T12:50:04Z</time><course>156</course><type>18</type></trkpt>
      <trkpt lat="41.1026033" lon="-3.6604567"><ele>1931</ele><speed>35</speed><time>2016-10-08T12:50:06Z</time><course>163</course><type>18</type></trkpt>
      <trkpt lat="41.1027133" lon="-3.6604234"><ele>1932</ele><speed>18</speed><time>2016-10-08T12:50:08Z</time><course>134</course><type>18</type></trkpt>
      <trkpt lat="41.102795" lon="-3.660385"><ele>1933</ele><speed>15</speed><time>2016-10-08T12:50:09Z</time><course>96</course><type>18</type></trkpt>
      <trkpt lat="41.10296" lon="-3.660325"><ele>1936</ele><speed>31</speed><time>2016-10-08T12:50:11Z</time><course>48</course><type>18</type></trkpt>
      <trkpt lat="41.10302" lon="-3.660255"><ele>1936</ele><speed>34</speed><time>2016-10-08T12:50:12Z</time><course>48</course><type>18</type></trkpt>
      <trkpt lat="41.1030866" lon="-3.6601817"><ele>1937</ele><speed>37</speed><time>2016-10-08T12:50:13Z</time><course>48</course><type>18</type></trkpt>
      <trkpt lat="41.10315" lon="-3.6600817"><ele>1937</ele><speed>45</speed><time>2016-10-08T12:50:14Z</time><course>48</course><type>18</type></trkpt>
      <trkpt lat="41.1032133" lon="-3.6599817"><ele>1937</ele><speed>40</speed><time>2016-10-08T12:50:15Z</time><course>51</course><type>18</type></trkpt>
      <trkpt lat="41.1032716" lon="-3.6598784"><ele>1937</ele><speed>40</speed><time>2016-10-08T12:50:16Z</time><course>52</course><type>18</type></trkpt>
      <trkpt lat="41.10333" lon="-3.6597684"><ele>1938</ele><speed>41</speed><time>2016-10-08T12:50:17Z</time><course>54</course><type>18</type></trkpt>
      <trkpt lat="41.1033933" lon="-3.6596584"><ele>1938</ele><speed>41</speed><time>2016-10-08T12:50:18Z</time><course>53</course><type>18</type></trkpt>
      <trkpt lat="41.1034583" lon="-3.65955"><ele>1938</ele><speed>41</speed><time>2016-10-08T12:50:19Z</time><course>52</course><type>18</type></trkpt>
      <trkpt lat="41.10351" lon="-3.6594467"><ele>1938</ele><speed>40</speed><time>2016-10-08T12:50:20Z</time><course>53</course><type>18</type></trkpt>
      <trkpt lat="41.1035633" lon="-3.6593284"><ele>1938</ele><speed>40</speed><time>2016-10-08T12:50:21Z</time><course>55</course><type>18</type></trkpt>
      <trkpt lat="41.1036233" lon="-3.6591984"><ele>1938</ele><speed>40</speed><time>2016-10-08T12:50:22Z</time><course>58</course><type>18</type></trkpt>
      <trkpt lat="41.1036783" lon="-3.659085"><ele>1939</ele><speed>39</speed><time>2016-10-08T12:50:23Z</time><course>60</course><type>18</type></trkpt>
      <trkpt lat="41.1037483" lon="-3.6589634"><ele>1940</ele><speed>40</speed><time>2016-10-08T12:50:24Z</time><course>61</course><type>18</type></trkpt>
      <trkpt lat="41.103825" lon="-3.6588717"><ele>1940</ele><speed>39</speed><time>2016-10-08T12:50:25Z</time><course>61</course><type>18</type></trkpt>
      <trkpt lat="41.1037966" lon="-3.6587184"><ele>1941</ele><speed>33</speed><time>2016-10-08T12:50:27Z</time><course>72</course><type>18</type></trkpt>
      <trkpt lat="41.1036933" lon="-3.6585834"><ele>1941</ele><speed>28</speed><time>2016-10-08T12:50:29Z</time><course>89</course><type>18</type></trkpt>
      <trkpt lat="41.1034566" lon="-3.6584817"><ele>1941</ele><speed>28</speed><time>2016-10-08T12:50:31Z</time><course>117</course><type>18</type></trkpt>
      <trkpt lat="41.1033516" lon="-3.6584334"><ele>1941</ele><speed>28</speed><time>2016-10-08T12:50:32Z</time><course>125</course><type>18</type></trkpt>
      <trkpt lat="41.1032366" lon="-3.658255"><ele>1942</ele><speed>26</speed><time>2016-10-08T12:50:34Z</time><course>121</course><type>18</type></trkpt>
      <trkpt lat="41.1029566" lon="-3.6580567"><ele>1943</ele><speed>27</speed><time>2016-10-08T12:50:36Z</time><course>132</course><type>18</type></trkpt>
      <trkpt lat="41.102855" lon="-3.6581167"><ele>1945</ele><speed>6</speed><time>2016-10-08T12:50:39Z</time><course>95</course><type>18</type></trkpt>
      <trkpt lat="41.10291" lon="-3.65823"><ele>1945</ele><speed>10</speed><time>2016-10-08T12:50:42Z</time><course>2</course><type>18</type></trkpt>
      <trkpt lat="41.1030066" lon="-3.6582567"><ele>1946</ele><speed>15</speed><time>2016-10-08T12:50:44Z</time><course>8</course><type>18</type></trkpt>
      <trkpt lat="41.1031316" lon="-3.6583134"><ele>1946</ele><speed>27</speed><time>2016-10-08T12:50:46Z</time><course>345</course><type>18</type></trkpt>
      <trkpt lat="41.10325" lon="-3.65838"><ele>1946</ele><speed>25</speed><time>2016-10-08T12:50:48Z</time><course>349</course><type>18</type></trkpt>
      <trkpt lat="41.103355" lon="-3.6584684"><ele>1946</ele><speed>23</speed><time>2016-10-08T12:50:50Z</time><course>345</course><type>18</type></trkpt>
      <trkpt lat="41.1034433" lon="-3.6585167"><ele>1946</ele><speed>21</speed><time>2016-10-08T12:50:52Z</time><course>351</course><type>18</type></trkpt>
      <trkpt lat="41.103495" lon="-3.6583867"><ele>1946</ele><speed>16</speed><time>2016-10-08T12:50:55Z</time><course>31</course><type>18</type></trkpt>
      <trkpt lat="41.1035183" lon="-3.6582117"><ele>1947</ele><speed>19</speed><time>2016-10-08T12:50:57Z</time><course>58</course><type>18</type></trkpt>
      <trkpt lat="41.1036733" lon="-3.6581217"><ele>1947</ele><speed>23</speed><time>2016-10-08T12:51:00Z</time><course>37</course><type>18</type></trkpt>
      <trkpt lat="41.103795" lon="-3.65809"><ele>1947</ele><speed>23</speed><time>2016-10-08T12:51:02Z</time><course>19</course><type>18</type></trkpt>
      <trkpt lat="41.1039316" lon="-3.6581084"><ele>1947</ele><speed>27</speed><time>2016-10-08T12:51:04Z</time><course>0</course><type>18</type></trkpt>
      <trkpt lat="41.1040833" lon="-3.6580967"><ele>1947</ele><speed>26</speed><time>2016-10-08T12:51:06Z</time><course>2</course><type>18</type></trkpt>
      <trkpt lat="41.1042466" lon="-3.6580734"><ele>1948</ele><speed>25</speed><time>2016-10-08T12:51:08Z</time><course>6</course><type>18</type></trkpt>
      <trkpt lat="41.10441" lon="-3.6580817"><ele>1947</ele><speed>24</speed><time>2016-10-08T12:51:09Z</time><course>6</course><type>18</type></trkpt>
      <trkpt lat="41.10455" lon="-3.6581367"><ele>1948</ele><speed>16</speed><time>2016-10-08T12:51:12Z</time><course>333</course><type>18</type></trkpt>
      <trkpt lat="41.1045716" lon="-3.6582584"><ele>1949</ele><speed>13</speed><time>2016-10-08T12:51:14Z</time><course>305</course><type>18</type></trkpt>
      <trkpt lat="41.1046616" lon="-3.6583334"><ele>1949</ele><speed>15</speed><time>2016-10-08T12:51:16Z</time><course>329</course><type>18</type></trkpt>
      <trkpt lat="41.1046983" lon="-3.6584934"><ele>1951</ele><speed>9</speed><time>2016-10-08T12:51:18Z</time><course>336</course><type>18</type></trkpt>
      <trkpt lat="41.1047416" lon="-3.65833"><ele>1953</ele><speed>40</speed><time>2016-10-08T12:51:20Z</time><course>61</course><type>18</type></trkpt>
      <trkpt lat="41.1047833" lon="-3.6582317"><ele>1954</ele><speed>35</speed><time>2016-10-08T12:51:21Z</time><course>62</course><type>18</type></trkpt>
      <trkpt lat="41.1048183" lon="-3.658135"><ele>1954</ele><speed>33</speed><time>2016-10-08T12:51:22Z</time><course>65</course><type>18</type></trkpt>
      <trkpt lat="41.1048716" lon="-3.6580434"><ele>1955</ele><speed>33</speed><time>2016-10-08T12:51:23Z</time><course>66</course><type>18</type></trkpt>
      <trkpt lat="41.1049183" lon="-3.6579534"><ele>1955</ele><speed>32</speed><time>2016-10-08T12:51:24Z</time><course>66</course><type>18</type></trkpt>
      <trkpt lat="41.1050666" lon="-3.65788"><ele>1957</ele><speed>33</speed><time>2016-10-08T12:51:25Z</time><course>63</course><type>18</type></trkpt>
      <trkpt lat="41.1050699" lon="-3.6577584"><ele>1957</ele><speed>34</speed><time>2016-10-08T12:51:26Z</time><course>69</course><type>18</type></trkpt>
      <trkpt lat="41.1050283" lon="-3.6576584"><ele>1956</ele><speed>22</speed><time>2016-10-08T12:51:28Z</time><course>77</course><type>18</type></trkpt>
      <trkpt lat="41.10495" lon="-3.6576184"><ele>1957</ele><speed>19</speed><time>2016-10-08T12:51:29Z</time><course>97</course><type>18</type></trkpt>
      <trkpt lat="41.1048216" lon="-3.6576167"><ele>1957</ele><speed>18</speed><time>2016-10-08T12:51:30Z</time><course>133</course><type>18</type></trkpt>
      <trkpt lat="41.10473" lon="-3.6576234"><ele>1957</ele><speed>12</speed><time>2016-10-08T12:51:32Z</time><course>142</course><type>18</type></trkpt>
      <trkpt lat="41.104645" lon="-3.6576967"><ele>1957</ele><speed>8</speed><time>2016-10-08T12:51:34Z</time><course>171</course><type>18</type></trkpt>
      <trkpt lat="41.1045833" lon="-3.6578167"><ele>1957</ele><speed>11</speed><time>2016-10-08T12:51:36Z</time><course>234</course><type>18</type></trkpt>
      <trkpt lat="41.104525" lon="-3.6578967"><ele>1958</ele><speed>15</speed><time>2016-10-08T12:51:37Z</time><course>232</course><type>18</type></trkpt>
      <trkpt lat="41.1044766" lon="-3.6579967"><ele>1959</ele><speed>19</speed><time>2016-10-08T12:51:38Z</time><course>267</course><type>18</type></trkpt>
      <trkpt lat="41.1043416" lon="-3.6581234"><ele>1961</ele><speed>18</speed><time>2016-10-08T12:51:40Z</time><course>255</course><type>18</type></trkpt>
      <trkpt lat="41.1042816" lon="-3.6582167"><ele>1963</ele><speed>10</speed><time>2016-10-08T12:51:43Z</time><course>327</course><type>18</type></trkpt>
      <trkpt lat="41.10435" lon="-3.6583717"><ele>1964</ele><speed>20</speed><time>2016-10-08T12:51:45Z</time><course>322</course><type>18</type></trkpt>
      <trkpt lat="41.1044283" lon="-3.6585"><ele>1965</ele><speed>24</speed><time>2016-10-08T12:51:47Z</time><course>322</course><type>18</type></trkpt>
      <trkpt lat="41.1044866" lon="-3.6585634"><ele>1966</ele><speed>25</speed><time>2016-10-08T12:51:48Z</time><course>318</course><type>18</type></trkpt>
      <trkpt lat="41.1045466" lon="-3.65864"><ele>1967</ele><speed>25</speed><time>2016-10-08T12:51:49Z</time><course>314</course><type>18</type></trkpt>
      <trkpt lat="41.1045933" lon="-3.6587184"><ele>1968</ele><speed>22</speed><time>2016-10-08T12:51:50Z</time><course>313</course><type>18</type></trkpt>
      <trkpt lat="41.1046316" lon="-3.6587834"><ele>1969</ele><speed>20</speed><time>2016-10-08T12:51:51Z</time><course>317</course><type>18</type></trkpt>
      <trkpt lat="41.10468" lon="-3.6588384"><ele>1970</ele><speed>20</speed><time>2016-10-08T12:51:52Z</time><course>324</course><type>18</type></trkpt>
      <trkpt lat="41.1047283" lon="-3.6588917"><ele>1972</ele><speed>21</speed><time>2016-10-08T12:51:53Z</time><course>320</course><type>18</type></trkpt>
      <trkpt lat="41.1047916" lon="-3.6589684"><ele>1973</ele><speed>32</speed><time>2016-10-08T12:51:54Z</time><course>317</course><type>18</type></trkpt>
      <trkpt lat="41.1048466" lon="-3.6589767"><ele>1974</ele><speed>18</speed><time>2016-10-08T12:51:55Z</time><course>348</course><type>18</type></trkpt>
      <trkpt lat="41.104905" lon="-3.65907"><ele>1976</ele><speed>17</speed><time>2016-10-08T12:51:57Z</time><course>323</course><type>18</type></trkpt>
      <trkpt lat="41.1049433" lon="-3.6591384"><ele>1977</ele><speed>23</speed><time>2016-10-08T12:51:58Z</time><course>312</course><type>18</type></trkpt>
      <trkpt lat="41.1049883" lon="-3.659205"><ele>1978</ele><speed>27</speed><time>2016-10-08T12:51:59Z</time><course>311</course><type>18</type></trkpt>
      <trkpt lat="41.1050466" lon="-3.6592567"><ele>1979</ele><speed>29</speed><time>2016-10-08T12:52:00Z</time><course>316</course><type>18</type></trkpt>
      <trkpt lat="41.1051116" lon="-3.6593084"><ele>1980</ele><speed>29</speed><time>2016-10-08T12:52:01Z</time><course>322</course><type>18</type></trkpt>
      <trkpt lat="41.1051733" lon="-3.6593517"><ele>1981</ele><speed>28</speed><time>2016-10-08T12:52:02Z</time><course>328</course><type>18</type></trkpt>
      <trkpt lat="41.10523" lon="-3.65939"><ele>1983</ele><speed>26</speed><time>2016-10-08T12:52:03Z</time><course>331</course><type>18</type></trkpt>
      <trkpt lat="41.1052883" lon="-3.6594234"><ele>1984</ele><speed>25</speed><time>2016-10-08T12:52:04Z</time><course>333</course><type>18</type></trkpt>
      <trkpt lat="41.1053483" lon="-3.6594517"><ele>1986</ele><speed>25</speed><time>2016-10-08T12:52:05Z</time><course>335</course><type>18</type></trkpt>
      <trkpt lat="41.10541" lon="-3.6594567"><ele>1987</ele><speed>23</speed><time>2016-10-08T12:52:06Z</time><course>348</course><type>18</type></trkpt>
      <trkpt lat="41.1054683" lon="-3.659455"><ele>1989</ele><speed>23</speed><time>2016-10-08T12:52:07Z</time><course>0</course><type>18</type></trkpt>
      <trkpt lat="41.1055366" lon="-3.659395"><ele>1994</ele><speed>26</speed><time>2016-10-08T12:52:09Z</time><course>44</course><type>18</type></trkpt>
      <trkpt lat="41.1055616" lon="-3.6592984"><ele>1996</ele><speed>34</speed><time>2016-10-08T12:52:10Z</time><course>61</course><type>18</type></trkpt>
      <trkpt lat="41.1055833" lon="-3.6591934"><ele>1998</ele><speed>37</speed><time>2016-10-08T12:52:11Z</time><course>71</course><type>18</type></trkpt>
      <trkpt lat="41.1056183" lon="-3.659085"><ele>1999</ele><speed>35</speed><time>2016-10-08T12:52:12Z</time><course>69</course><type>18</type></trkpt>
      <trkpt lat="41.1056083" lon="-3.6589684"><ele>1999</ele><speed>33</speed><time>2016-10-08T12:52:13Z</time><course>81</course><type>18</type></trkpt>
      <trkpt lat="41.1055716" lon="-3.6587967"><ele>1999</ele><speed>45</speed><time>2016-10-08T12:52:14Z</time><course>102</course><type>18</type></trkpt>
      <trkpt lat="41.1055016" lon="-3.6587184"><ele>1999</ele><speed>40</speed><time>2016-10-08T12:52:15Z</time><course>119</course><type>18</type></trkpt>
      <trkpt lat="41.1054216" lon="-3.658675"><ele>1999</ele><speed>34</speed><time>2016-10-08T12:52:16Z</time><course>132</course><type>18</type></trkpt>
      <trkpt lat="41.1053216" lon="-3.658685"><ele>2000</ele><speed>31</speed><time>2016-10-08T12:52:17Z</time><course>154</course><type>18</type></trkpt>
      <trkpt lat="41.105225" lon="-3.658705"><ele>2001</ele><speed>31</speed><time>2016-10-08T12:52:18Z</time><course>169</course><type>18</type></trkpt>
      <trkpt lat="41.105135" lon="-3.6587317"><ele>2002</ele><speed>31</speed><time>2016-10-08T12:52:19Z</time><course>182</course><type>18</type></trkpt>
      <trkpt lat="41.1050349" lon="-3.658775"><ele>2003</ele><speed>34</speed><time>2016-10-08T12:52:20Z</time><course>189</course><type>18</type></trkpt>
      <trkpt lat="41.1049516" lon="-3.658825"><ele>2003</ele><speed>33</speed><time>2016-10-08T12:52:21Z</time><course>196</course><type>18</type></trkpt>
      <trkpt lat="41.1048933" lon="-3.65892"><ele>2004</ele><speed>35</speed><time>2016-10-08T12:52:22Z</time><course>223</course><type>18</type></trkpt>
      <trkpt lat="41.104835" lon="-3.6590017"><ele>2006</ele><speed>34</speed><time>2016-10-08T12:52:23Z</time><course>228</course><type>18</type></trkpt>
      <trkpt lat="41.1047833" lon="-3.65909"><ele>2007</ele><speed>33</speed><time>2016-10-08T12:52:24Z</time><course>232</course><type>18</type></trkpt>
      <trkpt lat="41.1047466" lon="-3.659175"><ele>2007</ele><speed>30</speed><time>2016-10-08T12:52:25Z</time><course>237</course><type>18</type></trkpt>
      <trkpt lat="41.10473" lon="-3.6592684"><ele>2008</ele><speed>27</speed><time>2016-10-08T12:52:26Z</time><course>249</course><type>18</type></trkpt>
      <trkpt lat="41.1047083" lon="-3.659355"><ele>2009</ele><speed>28</speed><time>2016-10-08T12:52:27Z</time><course>252</course><type>18</type></trkpt>
      <trkpt lat="41.1046633" lon="-3.659445"><ele>2012</ele><speed>28</speed><time>2016-10-08T12:52:28Z</time><course>256</course><type>18</type></trkpt>
      <trkpt lat="41.1046133" lon="-3.6595284"><ele>2014</ele><speed>28</speed><time>2016-10-08T12:52:29Z</time><course>246</course><type>18</type></trkpt>
      <trkpt lat="41.1045516" lon="-3.6596167"><ele>2016</ele><speed>29</speed><time>2016-10-08T12:52:30Z</time><course>230</course><type>18</type></trkpt>
      <trkpt lat="41.1044933" lon="-3.659695"><ele>2018</ele><speed>29</speed><time>2016-10-08T12:52:31Z</time><course>230</course><type>18</type></trkpt>
      <trkpt lat="41.1044416" lon="-3.6597784"><ele>2020</ele><speed>29</speed><time>2016-10-08T12:52:32Z</time><course>233</course><type>18</type></trkpt>
      <trkpt lat="41.1044083" lon="-3.6598684"><ele>2021</ele><speed>28</speed><time>2016-10-08T12:52:33Z</time><course>239</course><type>18</type></trkpt>
      <trkpt lat="41.10441" lon="-3.6600267"><ele>2022</ele><speed>25</speed><time>2016-10-08T12:52:35Z</time><course>255</course><type>18</type></trkpt>
      <trkpt lat="41.1045066" lon="-3.6601484"><ele>2023</ele><speed>21</speed><time>2016-10-08T12:52:37Z</time><course>276</course><type>18</type></trkpt>
      <trkpt lat="41.104575" lon="-3.6601834"><ele>2024</ele><speed>20</speed><time>2016-10-08T12:52:38Z</time><course>291</course><type>18</type></trkpt>
      <trkpt lat="41.1046749" lon="-3.6601984"><ele>2025</ele><speed>21</speed><time>2016-10-08T12:52:39Z</time><course>310</course><type>18</type></trkpt>
      <trkpt lat="41.1048033" lon="-3.6602084"><ele>2026</ele><speed>26</speed><time>2016-10-08T12:52:40Z</time><course>325</course><type>18</type></trkpt>
      <trkpt lat="41.10494" lon="-3.6602167"><ele>2027</ele><speed>31</speed><time>2016-10-08T12:52:41Z</time><course>334</course><type>18</type></trkpt>
      <trkpt lat="41.1051466" lon="-3.66013"><ele>2028</ele><speed>37</speed><time>2016-10-08T12:52:42Z</time><course>349</course><type>18</type></trkpt>
      <trkpt lat="41.10531" lon="-3.66008"><ele>2029</ele><speed>40</speed><time>2016-10-08T12:52:43Z</time><course>357</course><type>18</type></trkpt>
      <trkpt lat="41.105465" lon="-3.6600734"><ele>2030</ele><speed>49</speed><time>2016-10-08T12:52:44Z</time><course>351</course><type>18</type></trkpt>
      <trkpt lat="41.10565" lon="-3.6600467"><ele>2031</ele><speed>53</speed><time>2016-10-08T12:52:45Z</time><course>353</course><type>18</type></trkpt>
      <trkpt lat="41.1058216" lon="-3.6600217"><ele>2032</ele><speed>55</speed><time>2016-10-08T12:52:46Z</time><course>357</course><type>18</type></trkpt>
      <trkpt lat="41.1059833" lon="-3.6600117"><ele>2033</ele><speed>55</speed><time>2016-10-08T12:52:47Z</time><course>358</course><type>18</type></trkpt>
      <trkpt lat="41.1061116" lon="-3.66"><ele>2034</ele><speed>52</speed><time>2016-10-08T12:52:48Z</time><course>359</course><type>18</type></trkpt>
      <trkpt lat="41.1062333" lon="-3.6599767"><ele>2035</ele><speed>50</speed><time>2016-10-08T12:52:49Z</time><course>1</course><type>18</type></trkpt>
      <trkpt lat="41.1063433" lon="-3.6599284"><ele>2036</ele><speed>47</speed><time>2016-10-08T12:52:50Z</time><course>5</course><type>18</type></trkpt>
      <trkpt lat="41.1064316" lon="-3.6598417"><ele>2037</ele><speed>44</speed><time>2016-10-08T12:52:51Z</time><course>11</course><type>18</type></trkpt>
      <trkpt lat="41.10652" lon="-3.65982"><ele>2038</ele><speed>40</speed><time>2016-10-08T12:52:52Z</time><course>9</course><type>18</type></trkpt>
      <trkpt lat="41.1065999" lon="-3.6597834"><ele>2039</ele><speed>39</speed><time>2016-10-08T12:52:53Z</time><course>6</course><type>18</type></trkpt>
      <trkpt lat="41.1066816" lon="-3.6597817"><ele>2040</ele><speed>38</speed><time>2016-10-08T12:52:54Z</time><course>4</course><type>18</type></trkpt>
      <trkpt lat="41.1067616" lon="-3.6597934"><ele>2041</ele><speed>37</speed><time>2016-10-08T12:52:55Z</time><course>0</course><type>18</type></trkpt>
      <trkpt lat="41.106845" lon="-3.6597734"><ele>2042</ele><speed>34</speed><time>2016-10-08T12:52:56Z</time><course>0</course><type>18</type></trkpt>
      <trkpt lat="41.1069583" lon="-3.6597667"><ele>2045</ele><speed>26</speed><time>2016-10-08T12:52:58Z</time><course>354</course><type>18</type></trkpt>
      <trkpt lat="41.10707" lon="-3.6598184"><ele>2046</ele><speed>26</speed><time>2016-10-08T12:53:00Z</time><course>341</course><type>18</type></trkpt>
      <trkpt lat="41.10713" lon="-3.659845"><ele>2047</ele><speed>26</speed><time>2016-10-08T12:53:01Z</time><course>342</course><type>18</type></trkpt>
      <trkpt lat="41.10719" lon="-3.6598867"><ele>2047</ele><speed>27</speed><time>2016-10-08T12:53:02Z</time><course>336</course><type>18</type></trkpt>
      <trkpt lat="41.1072566" lon="-3.6598984"><ele>2048</ele><speed>26</speed><time>2016-10-08T12:53:03Z</time><course>341</course><type>18</type></trkpt>
      <trkpt lat="41.1073833" lon="-3.6599034"><ele>2050</ele><speed>23</speed><time>2016-10-08T12:53:05Z</time><course>336</course><type>18</type></trkpt>
      <trkpt lat="41.1074833" lon="-3.6598967"><ele>2052</ele><speed>22</speed><time>2016-10-08T12:53:07Z</time><course>346</course><type>18</type></trkpt>
      <trkpt lat="41.107625" lon="-3.6598634"><ele>2053</ele><speed>26</speed><time>2016-10-08T12:53:09Z</time><course>0</course><type>18</type></trkpt>
      <trkpt lat="41.1077516" lon="-3.65982"><ele>2054</ele><speed>33</speed><time>2016-10-08T12:53:10Z</time><course>8</course><type>18</type></trkpt>
      <trkpt lat="41.107855" lon="-3.6597517"><ele>2054</ele><speed>38</speed><time>2016-10-08T12:53:11Z</time><course>16</course><type>18</type></trkpt>
      <trkpt lat="41.1079483" lon="-3.6596334"><ele>2055</ele><speed>43</speed><time>2016-10-08T12:53:12Z</time><course>26</course><type>18</type></trkpt>
      <trkpt lat="41.1080533" lon="-3.6594984"><ele>2055</ele><speed>50</speed><time>2016-10-08T12:53:13Z</time><course>33</course><type>18</type></trkpt>
      <trkpt lat="41.1081633" lon="-3.659375"><ele>2055</ele><speed>52</speed><time>2016-10-08T12:53:14Z</time><course>36</course><type>18</type></trkpt>
      <trkpt lat="41.10826" lon="-3.6592567"><ele>2056</ele><speed>50</speed><time>2016-10-08T12:53:15Z</time><course>40</course><type>18</type></trkpt>
      <trkpt lat="41.10836" lon="-3.659145"><ele>2057</ele><speed>46</speed><time>2016-10-08T12:53:16Z</time><course>38</course><type>18</type></trkpt>
      <trkpt lat="41.10845" lon="-3.6590417"><ele>2057</ele><speed>44</speed><time>2016-10-08T12:53:17Z</time><course>37</course><type>18</type></trkpt>
      <trkpt lat="41.1085433" lon="-3.65894"><ele>2058</ele><speed>47</speed><time>2016-10-08T12:53:18Z</time><course>37</course><type>18</type></trkpt>
      <trkpt lat="41.1086433" lon="-3.6588217"><ele>2059</ele><speed>49</speed><time>2016-10-08T12:53:19Z</time><course>38</course><type>18</type></trkpt>
      <trkpt lat="41.1087366" lon="-3.6587317"><ele>2059</ele><speed>43</speed><time>2016-10-08T12:53:20Z</time><course>36</course><type>18</type></trkpt>
      <trkpt lat="41.1088166" lon="-3.6586534"><ele>2060</ele><speed>42</speed><time>2016-10-08T12:53:21Z</time><course>37</course><type>18</type></trkpt>
      <trkpt lat="41.1088933" lon="-3.6586017"><ele>2061</ele><speed>39</speed><time>2016-10-08T12:53:22Z</time><course>37</course><type>18</type></trkpt>
      <trkpt lat="41.1089816" lon="-3.6585384"><ele>2063</ele><speed>28</speed><time>2016-10-08T12:53:24Z</time><course>34</course><type>18</type></trkpt>
      <trkpt lat="41.1090516" lon="-3.6584784"><ele>2064</ele><speed>32</speed><time>2016-10-08T12:53:25Z</time><course>34</course><type>18</type></trkpt>
      <trkpt lat="41.1091133" lon="-3.6583917"><ele>2064</ele><speed>36</speed><time>2016-10-08T12:53:26Z</time><course>38</course><type>18</type></trkpt>
      <trkpt lat="41.10917" lon="-3.6582867"><ele>2065</ele><speed>37</speed><time>2016-10-08T12:53:27Z</time><course>43</course><type>18</type></trkpt>
      <trkpt lat="41.10923" lon="-3.6581867"><ele>2066</ele><speed>38</speed><time>2016-10-08T12:53:28Z</time><course>44</course><type>18</type></trkpt>
      <trkpt lat="41.1092966" lon="-3.65809"><ele>2066</ele><speed>38</speed><time>2016-10-08T12:53:29Z</time><course>40</course><type>18</type></trkpt>
      <trkpt lat="41.10937" lon="-3.6579867"><ele>2067</ele><speed>37</speed><time>2016-10-08T12:53:30Z</time><course>39</course><type>18</type></trkpt>
      <trkpt lat="41.1094433" lon="-3.6579001"><ele>2068</ele><speed>37</speed><time>2016-10-08T12:53:31Z</time><course>37</course><type>18</type></trkpt>
      <trkpt lat="41.1095216" lon="-3.657805"><ele>2068</ele><speed>37</speed><time>2016-10-08T12:53:32Z</time><course>38</course><type>18</type></trkpt>
      <trkpt lat="41.1095833" lon="-3.65772"><ele>2069</ele><speed>35</speed><time>2016-10-08T12:53:33Z</time><course>41</course><type>18</type></trkpt>
      <trkpt lat="41.10963" lon="-3.6576067"><ele>2069</ele><speed>37</speed><time>2016-10-08T12:53:34Z</time><course>48</course><type>18</type></trkpt>
      <trkpt lat="41.1096916" lon="-3.6575067"><ele>2070</ele><speed>37</speed><time>2016-10-08T12:53:35Z</time><course>43</course><type>18</type></trkpt>
      <trkpt lat="41.1097366" lon="-3.6573834"><ele>2071</ele><speed>39</speed><time>2016-10-08T12:53:36Z</time><course>55</course><type>18</type></trkpt>
      <trkpt lat="41.1097866" lon="-3.65727"><ele>2072</ele><speed>39</speed><time>2016-10-08T12:53:37Z</time><course>56</course><type>18</type></trkpt>
      <trkpt lat="41.1098266" lon="-3.6571584"><ele>2073</ele><speed>39</speed><time>2016-10-08T12:53:38Z</time><course>57</course><type>18</type></trkpt>
      <trkpt lat="41.109825" lon="-3.6570317"><ele>2073</ele><speed>38</speed><time>2016-10-08T12:53:39Z</time><course>63</course><type>18</type></trkpt>
      <trkpt lat="41.1097116" lon="-3.65689"><ele>2071</ele><speed>36</speed><time>2016-10-08T12:53:40Z</time><course>80</course><type>18</type></trkpt>
      <trkpt lat="41.1096433" lon="-3.65677"><ele>2071</ele><speed>35</speed><time>2016-10-08T12:53:41Z</time><course>96</course><type>18</type></trkpt>
      <trkpt lat="41.1095766" lon="-3.6566834"><ele>2071</ele><speed>34</speed><time>2016-10-08T12:53:42Z</time><course>110</course><type>18</type></trkpt>
      <trkpt lat="41.109505" lon="-3.6565984"><ele>2071</ele><speed>33</speed><time>2016-10-08T12:53:43Z</time><course>119</course><type>18</type></trkpt>
      <trkpt lat="41.1094316" lon="-3.65652"><ele>2071</ele><speed>33</speed><time>2016-10-08T12:53:44Z</time><course>125</course><type>18</type></trkpt>
      <trkpt lat="41.1093533" lon="-3.6564717"><ele>2071</ele><speed>29</speed><time>2016-10-08T12:53:45Z</time><course>130</course><type>18</type></trkpt>
      <trkpt lat="41.10927" lon="-3.6564084"><ele>2072</ele><speed>25</speed><time>2016-10-08T12:53:46Z</time><course>134</course><type>18</type></trkpt>
      <trkpt lat="41.1091866" lon="-3.6563884"><ele>2072</ele><speed>22</speed><time>2016-10-08T12:53:47Z</time><course>138</course><type>18</type></trkpt>
      <trkpt lat="41.10909" lon="-3.6564467"><ele>2074</ele><speed>14</speed><time>2016-10-08T12:53:49Z</time><course>152</course><type>18</type></trkpt>
      <trkpt lat="41.10901" lon="-3.6564684"><ele>2074</ele><speed>12</speed><time>2016-10-08T12:53:50Z</time><course>157</course><type>18</type></trkpt>
      <trkpt lat="41.108935" lon="-3.6565017"><ele>2075</ele><speed>13</speed><time>2016-10-08T12:53:51Z</time><course>165</course><type>18</type></trkpt>
      <trkpt lat="41.1089033" lon="-3.6566667"><ele>2075</ele><speed>10</speed><time>2016-10-08T12:53:53Z</time><course>222</course><type>18</type></trkpt>
      <trkpt lat="41.1089133" lon="-3.6567917"><ele>2076</ele><speed>14</speed><time>2016-10-08T12:53:54Z</time><course>256</course><type>18</type></trkpt>
      <trkpt lat="41.1088766" lon="-3.65698"><ele>2077</ele><speed>17</speed><time>2016-10-08T12:53:56Z</time><course>255</course><type>18</type></trkpt>
      <trkpt lat="41.1088983" lon="-3.6571734"><ele>2078</ele><speed>20</speed><time>2016-10-08T12:53:58Z</time><course>272</course><type>18</type></trkpt>
      <trkpt lat="41.1090133" lon="-3.6572384"><ele>2080</ele><speed>16</speed><time>2016-10-08T12:54:00Z</time><course>301</course><type>18</type></trkpt>
      <trkpt lat="41.1091083" lon="-3.6572384"><ele>2080</ele><speed>17</speed><time>2016-10-08T12:54:01Z</time><course>321</course><type>18</type></trkpt>
      <trkpt lat="41.1091966" lon="-3.6572217"><ele>2080</ele><speed>19</speed><time>2016-10-08T12:54:02Z</time><course>336</course><type>18</type></trkpt>
      <trkpt lat="41.1093066" lon="-3.6571584"><ele>2081</ele><speed>20</speed><time>2016-10-08T12:54:03Z</time><course>356</course><type>18</type></trkpt>
      <trkpt lat="41.109435" lon="-3.6570551"><ele>2081</ele><speed>30</speed><time>2016-10-08T12:54:04Z</time><course>22</course><type>18</type></trkpt>
      <trkpt lat="41.109555" lon="-3.6569517"><ele>2082</ele><speed>24</speed><time>2016-10-08T12:54:06Z</time><course>24</course><type>18</type></trkpt>
      <trkpt lat="41.1096233" lon="-3.6569134"><ele>2082</ele><speed>26</speed><time>2016-10-08T12:54:07Z</time><course>22</course><type>18</type></trkpt>
      <trkpt lat="41.1096933" lon="-3.6568784"><ele>2083</ele><speed>28</speed><time>2016-10-08T12:54:08Z</time><course>22</course><type>18</type></trkpt>
      <trkpt lat="41.1097766" lon="-3.6568367"><ele>2083</ele><speed>29</speed><time>2016-10-08T12:54:09Z</time><course>19</course><type>18</type></trkpt>
      <trkpt lat="41.1098633" lon="-3.6567917"><ele>2083</ele><speed>32</speed><time>2016-10-08T12:54:10Z</time><course>20</course><type>18</type></trkpt>
      <trkpt lat="41.1099566" lon="-3.6567384"><ele>2083</ele><speed>32</speed><time>2016-10-08T12:54:11Z</time><course>21</course><type>18</type></trkpt>
      <trkpt lat="41.1100383" lon="-3.6566917"><ele>2084</ele><speed>32</speed><time>2016-10-08T12:54:12Z</time><course>22</course><type>18</type></trkpt>
      <trkpt lat="41.1101666" lon="-3.656705"><ele>2085</ele><speed>25</speed><time>2016-10-08T12:54:14Z</time><course>13</course><type>18</type></trkpt>
      <trkpt lat="41.1103666" lon="-3.6568334"><ele>2086</ele><speed>30</speed><time>2016-10-08T12:54:16Z</time><course>354</course><type>18</type></trkpt>
      <trkpt lat="41.1104833" lon="-3.656865"><ele>2086</ele><speed>33</speed><time>2016-10-08T12:54:17Z</time><course>357</course><type>18</type></trkpt>
      <trkpt lat="41.1105816" lon="-3.6568434"><ele>2086</ele><speed>32</speed><time>2016-10-08T12:54:18Z</time><course>4</course><type>18</type></trkpt>
      <trkpt lat="41.1106766" lon="-3.6568117"><ele>2087</ele><speed>32</speed><time>2016-10-08T12:54:19Z</time><course>10</course><type>18</type></trkpt>
      <trkpt lat="41.1107783" lon="-3.6567684"><ele>2088</ele><speed>32</speed><time>2016-10-08T12:54:20Z</time><course>15</course><type>18</type></trkpt>
      <trkpt lat="41.110885" lon="-3.656715"><ele>2088</ele><speed>34</speed><time>2016-10-08T12:54:21Z</time><course>17</course><type>18</type></trkpt>
      <trkpt lat="41.1109833" lon="-3.6566467"><ele>2089</ele><speed>35</speed><time>2016-10-08T12:54:22Z</time><course>19</course><type>18</type></trkpt>
      <trkpt lat="41.1110933" lon="-3.65659"><ele>2090</ele><speed>36</speed><time>2016-10-08T12:54:23Z</time><course>20</course><type>18</type></trkpt>
      <trkpt lat="41.1112116" lon="-3.656545"><ele>2090</ele><speed>38</speed><time>2016-10-08T12:54:24Z</time><course>19</course><type>18</type></trkpt>
      <trkpt lat="41.1113233" lon="-3.6564717"><ele>2091</ele><speed>44</speed><time>2016-10-08T12:54:25Z</time><course>22</course><type>18</type></trkpt>
      <trkpt lat="41.1114433" lon="-3.6564234"><ele>2092</ele><speed>46</speed><time>2016-10-08T12:54:26Z</time><course>22</course><type>18</type></trkpt>
      <trkpt lat="41.1115416" lon="-3.656375"><ele>2092</ele><speed>39</speed><time>2016-10-08T12:54:27Z</time><course>19</course><type>18</type></trkpt>
      <trkpt lat="41.1116516" lon="-3.6563417"><ele>2093</ele><speed>39</speed><time>2016-10-08T12:54:28Z</time><course>19</course><type>18</type></trkpt>
      <trkpt lat="41.11176" lon="-3.656305"><ele>2094</ele><speed>39</speed><time>2016-10-08T12:54:29Z</time><course>18</course><type>18</type></trkpt>
      <trkpt lat="41.1119483" lon="-3.6563534"><ele>2095</ele><speed>33</speed><time>2016-10-08T12:54:31Z</time><course>0</course><type>18</type></trkpt>
      <trkpt lat="41.1120766" lon="-3.6563684"><ele>2096</ele><speed>39</speed><time>2016-10-08T12:54:32Z</time><course>1</course><type>18</type></trkpt>
      <trkpt lat="41.1121883" lon="-3.6563634"><ele>2097</ele><speed>43</speed><time>2016-10-08T12:54:33Z</time><course>4</course><type>18</type></trkpt>
      <trkpt lat="41.1123016" lon="-3.6563467"><ele>2098</ele><speed>44</speed><time>2016-10-08T12:54:34Z</time><course>6</course><type>18</type></trkpt>
      <trkpt lat="41.112405" lon="-3.6563184"><ele>2099</ele><speed>42</speed><time>2016-10-08T12:54:35Z</time><course>9</course><type>18</type></trkpt>
      <trkpt lat="41.1125033" lon="-3.6562484"><ele>2099</ele><speed>39</speed><time>2016-10-08T12:54:36Z</time><course>12</course><type>18</type></trkpt>
      <trkpt lat="41.1126" lon="-3.6562001"><ele>2100</ele><speed>39</speed><time>2016-10-08T12:54:37Z</time><course>15</course><type>18</type></trkpt>
      <trkpt lat="41.1126816" lon="-3.6561367"><ele>2101</ele><speed>40</speed><time>2016-10-08T12:54:38Z</time><course>21</course><type>18</type></trkpt>
      <trkpt lat="41.1127933" lon="-3.6560817"><ele>2102</ele><speed>43</speed><time>2016-10-08T12:54:39Z</time><course>23</course><type>18</type></trkpt>
      <trkpt lat="41.1129016" lon="-3.6560367"><ele>2102</ele><speed>44</speed><time>2016-10-08T12:54:40Z</time><course>22</course><type>18</type></trkpt>
      <trkpt lat="41.1130033" lon="-3.6559784"><ele>2103</ele><speed>44</speed><time>2016-10-08T12:54:41Z</time><course>22</course><type>18</type></trkpt>
      <trkpt lat="41.1131199" lon="-3.65592"><ele>2104</ele><speed>51</speed><time>2016-10-08T12:54:42Z</time><course>23</course><type>18</type></trkpt>
      <trkpt lat="41.113245" lon="-3.655835"><ele>2105</ele><speed>60</speed><time>2016-10-08T12:54:43Z</time><course>26</course><type>18</type></trkpt>
      <trkpt lat="41.11336" lon="-3.6557467"><ele>2106</ele><speed>59</speed><time>2016-10-08T12:54:44Z</time><course>27</course><type>18</type></trkpt>
      <trkpt lat="41.1134716" lon="-3.6556617"><ele>2106</ele><speed>58</speed><time>2016-10-08T12:54:45Z</time><course>27</course><type>18</type></trkpt>
      <trkpt lat="41.1136599" lon="-3.6554967"><ele>2108</ele><speed>54</speed><time>2016-10-08T12:54:47Z</time><course>27</course><type>18</type></trkpt>
      <trkpt lat="41.1137683" lon="-3.6554284"><ele>2109</ele><speed>52</speed><time>2016-10-08T12:54:48Z</time><course>27</course><type>18</type></trkpt>
      <trkpt lat="41.11387" lon="-3.6553617"><ele>2110</ele><speed>50</speed><time>2016-10-08T12:54:49Z</time><course>26</course><type>18</type></trkpt>
      <trkpt lat="41.1139233" lon="-3.6552234"><ele>2112</ele><speed>36</speed><time>2016-10-08T12:54:54Z</time><course>28</course><type>18</type></trkpt>
      <trkpt lat="41.1140916" lon="-3.6552117"><ele>2113</ele><speed>38</speed><time>2016-10-08T12:54:56Z</time><course>22</course><type>18</type></trkpt>
      <trkpt lat="41.114305" lon="-3.655165"><ele>2115</ele><speed>42</speed><time>2016-10-08T12:54:58Z</time><course>21</course><type>18</type></trkpt>
      <trkpt lat="41.1144833" lon="-3.6550834"><ele>2116</ele><speed>43</speed><time>2016-10-08T12:55:00Z</time><course>20</course><type>18</type></trkpt>
      <trkpt lat="41.1146683" lon="-3.6550467"><ele>2117</ele><speed>33</speed><time>2016-10-08T12:55:02Z</time><course>17</course><type>18</type></trkpt>
      <trkpt lat="41.114855" lon="-3.65506"><ele>2119</ele><speed>24</speed><time>2016-10-08T12:55:05Z</time><course>36</course><type>18</type></trkpt>
      <trkpt lat="41.1147433" lon="-3.6551067"><ele>2120</ele><speed>27</speed><time>2016-10-08T12:55:07Z</time><course>40</course><type>18</type></trkpt>
      <trkpt lat="41.1147683" lon="-3.654735"><ele>2120</ele><speed>36</speed><time>2016-10-08T12:55:10Z</time><course>44</course><type>18</type></trkpt>
      <trkpt lat="41.11485" lon="-3.6546"><ele>2122</ele><speed>23</speed><time>2016-10-08T12:55:14Z</time><course>47</course><type>18</type></trkpt>
      <trkpt lat="41.1149916" lon="-3.6545451"><ele>2125</ele><speed>19</speed><time>2016-10-08T12:55:19Z</time><course>43</course><type>18</type></trkpt>
      <trkpt lat="41.1151166" lon="-3.654505"><ele>2127</ele><speed>13</speed><time>2016-10-08T12:55:22Z</time><course>43</course><type>18</type></trkpt>
      <trkpt lat="41.11523" lon="-3.6544317"><ele>2129</ele><speed>21</speed><time>2016-10-08T12:55:24Z</time><course>37</course><type>18</type></trkpt>
      <trkpt lat="41.1154133" lon="-3.6543917"><ele>2130</ele><speed>29</speed><time>2016-10-08T12:55:26Z</time><course>35</course><type>18</type></trkpt>
      <trkpt lat="41.1155616" lon="-3.6544834"><ele>2130</ele><speed>30</speed><time>2016-10-08T12:55:27Z</time><course>31</course><type>18</type></trkpt>
      <trkpt lat="41.1157116" lon="-3.6545901"><ele>2131</ele><speed>33</speed><time>2016-10-08T12:55:28Z</time><course>30</course><type>18</type></trkpt>
      <trkpt lat="41.1158283" lon="-3.654615"><ele>2131</ele><speed>37</speed><time>2016-10-08T12:55:29Z</time><course>28</course><type>18</type></trkpt>
      <trkpt lat="41.1159683" lon="-3.6546834"><ele>2132</ele><speed>39</speed><time>2016-10-08T12:55:30Z</time><course>28</course><type>18</type></trkpt>
      <trkpt lat="41.1161666" lon="-3.6548384"><ele>2133</ele><speed>44</speed><time>2016-10-08T12:55:32Z</time><course>37</course><type>18</type></trkpt>
      <trkpt lat="41.1162983" lon="-3.65482"><ele>2133</ele><speed>46</speed><time>2016-10-08T12:55:33Z</time><course>37</course><type>18</type></trkpt>
      <trkpt lat="41.1163933" lon="-3.6547367"><ele>2134</ele><speed>51</speed><time>2016-10-08T12:55:34Z</time><course>44</course><type>18</type></trkpt>
      <trkpt lat="41.11649" lon="-3.65444"><ele>2133</ele><speed>50</speed><time>2016-10-08T12:55:35Z</time><course>44</course><type>18</type></trkpt>
      <trkpt lat="41.1165883" lon="-3.6541834"><ele>2133</ele><speed>50</speed><time>2016-10-08T12:55:36Z</time><course>43</course><type>18</type></trkpt>
      <trkpt lat="41.1166766" lon="-3.6539767"><ele>2133</ele><speed>47</speed><time>2016-10-08T12:55:37Z</time><course>43</course><type>18</type></trkpt>
      <trkpt lat="41.1167866" lon="-3.65379"><ele>2134</ele><speed>41</speed><time>2016-10-08T12:55:39Z</time><course>44</course><type>18</type></trkpt>
      <trkpt lat="41.116895" lon="-3.65365"><ele>2136</ele><speed>36</speed><time>2016-10-08T12:55:41Z</time><course>46</course><type>18</type></trkpt>
      <trkpt lat="41.11694" lon="-3.653455"><ele>2139</ele><speed>26</speed><time>2016-10-08T12:55:46Z</time><course>52</course><type>18</type></trkpt>
      <trkpt lat="41.1169933" lon="-3.6533084"><ele>2143</ele><speed>25</speed><time>2016-10-08T12:55:51Z</time><course>38</course><type>18</type></trkpt>
      <trkpt lat="41.1171316" lon="-3.6531934"><ele>2145</ele><speed>26</speed><time>2016-10-08T12:55:54Z</time><course>33</course><type>18</type></trkpt>
      <trkpt lat="41.1172466" lon="-3.6529917"><ele>2147</ele><speed>26</speed><time>2016-10-08T12:55:57Z</time><course>44</course><type>18</type></trkpt>
      <trkpt lat="41.1173516" lon="-3.652805"><ele>2149</ele><speed>25</speed><time>2016-10-08T12:56:00Z</time><course>45</course><type>18</type></trkpt>
      <trkpt lat="41.1175099" lon="-3.6527584"><ele>2151</ele><speed>24</speed><time>2016-10-08T12:56:03Z</time><course>28</course><type>18</type></trkpt>
      <trkpt lat="41.11761" lon="-3.6526667"><ele>2156</ele><speed>14</speed><time>2016-10-08T12:56:12Z</time><course>348</course><type>18</type></trkpt>
      <trkpt lat="41.1175716" lon="-3.65295"><ele>2154</ele><speed>20</speed><time>2016-10-08T12:56:16Z</time><course>358</course><type>18</type></trkpt>
      <trkpt lat="41.1178316" lon="-3.6530734"><ele>2152</ele><speed>31</speed><time>2016-10-08T12:56:18Z</time><course>5</course><type>18</type></trkpt>
      <trkpt lat="41.1180633" lon="-3.6531434"><ele>2153</ele><speed>33</speed><time>2016-10-08T12:56:20Z</time><course>7</course><type>18</type></trkpt>
      <trkpt lat="41.1181983" lon="-3.65308"><ele>2153</ele><speed>38</speed><time>2016-10-08T12:56:21Z</time><course>13</course><type>18</type></trkpt>
      <trkpt lat="41.1183866" lon="-3.6529967"><ele>2154</ele><speed>36</speed><time>2016-10-08T12:56:23Z</time><course>20</course><type>18</type></trkpt>
      <trkpt lat="41.1184316" lon="-3.6526834"><ele>2155</ele><speed>29</speed><time>2016-10-08T12:56:25Z</time><course>23</course><type>18</type></trkpt>
      <trkpt lat="41.11861" lon="-3.65261"><ele>2156</ele><speed>34</speed><time>2016-10-08T12:56:27Z</time><course>26</course><type>18</type></trkpt>
      <trkpt lat="41.11862" lon="-3.6524401"><ele>2156</ele><speed>32</speed><time>2016-10-08T12:56:28Z</time><course>28</course><type>18</type></trkpt>
      <trkpt lat="41.1187583" lon="-3.65234"><ele>2156</ele><speed>31</speed><time>2016-10-08T12:56:30Z</time><course>27</course><type>18</type></trkpt>
      <trkpt lat="41.1189083" lon="-3.6522317"><ele>2157</ele><speed>22</speed><time>2016-10-08T12:56:33Z</time><course>21</course><type>18</type></trkpt>
      <trkpt lat="41.119005" lon="-3.652415"><ele>2155</ele><speed>17</speed><time>2016-10-08T12:56:35Z</time><course>1</course><type>18</type></trkpt>
      <trkpt lat="41.1190783" lon="-3.6522584"><ele>2158</ele><speed>16</speed><time>2016-10-08T12:56:40Z</time><course>19</course><type>18</type></trkpt>
      <trkpt lat="41.119025" lon="-3.65204"><ele>2159</ele><speed>18</speed><time>2016-10-08T12:56:41Z</time><course>21</course><type>18</type></trkpt>
      <trkpt lat="41.1190933" lon="-3.651865"><ele>2160</ele><speed>20</speed><time>2016-10-08T12:56:43Z</time><course>24</course><type>18</type></trkpt>
      <trkpt lat="41.1192566" lon="-3.65175"><ele>2161</ele><speed>30</speed><time>2016-10-08T12:56:45Z</time><course>26</course><type>18</type></trkpt>
      <trkpt lat="41.1194166" lon="-3.6516867"><ele>2162</ele><speed>25</speed><time>2016-10-08T12:56:48Z</time><course>30</course><type>18</type></trkpt>
      <trkpt lat="41.1195716" lon="-3.6517134"><ele>2161</ele><speed>22</speed><time>2016-10-08T12:56:52Z</time><course>29</course><type>18</type></trkpt>
      <trkpt lat="41.1197166" lon="-3.65143"><ele>2162</ele><speed>29</speed><time>2016-10-08T12:56:54Z</time><course>37</course><type>18</type></trkpt>
      <trkpt lat="41.1197816" lon="-3.6510734"><ele>2162</ele><speed>27</speed><time>2016-10-08T12:56:56Z</time><course>43</course><type>18</type></trkpt>
      <trkpt lat="41.11996" lon="-3.6507834"><ele>2161</ele><speed>34</speed><time>2016-10-08T12:56:58Z</time><course>42</course><type>18</type></trkpt>
      <trkpt lat="41.1199216" lon="-3.6504434"><ele>2160</ele><speed>34</speed><time>2016-10-08T12:56:59Z</time><course>42</course><type>18</type></trkpt>
      <trkpt lat="41.1199583" lon="-3.6501134"><ele>2159</ele><speed>54</speed><time>2016-10-08T12:57:00Z</time><course>34</course><type>18</type></trkpt>
      <trkpt lat="41.11995" lon="-3.6497884"><ele>2159</ele><speed>38</speed><time>2016-10-08T12:57:01Z</time><course>40</course><type>18</type></trkpt>
      <trkpt lat="41.1201" lon="-3.6497117"><ele>2158</ele><speed>23</speed><time>2016-10-08T12:57:03Z</time><course>42</course><type>18</type></trkpt>
      <trkpt lat="41.1202283" lon="-3.649695"><ele>2156</ele><speed>29</speed><time>2016-10-08T12:57:04Z</time><course>34</course><type>18</type></trkpt>
      <trkpt lat="41.1203316" lon="-3.6496884"><ele>2154</ele><speed>34</speed><time>2016-10-08T12:57:05Z</time><course>29</course><type>18</type></trkpt>
      <trkpt lat="41.1204333" lon="-3.6496584"><ele>2154</ele><speed>37</speed><time>2016-10-08T12:57:06Z</time><course>28</course><type>18</type></trkpt>
      <trkpt lat="41.1205266" lon="-3.6496217"><ele>2153</ele><speed>36</speed><time>2016-10-08T12:57:07Z</time><course>31</course><type>18</type></trkpt>
      <trkpt lat="41.1206216" lon="-3.6495834"><ele>2152</ele><speed>34</speed><time>2016-10-08T12:57:08Z</time><course>33</course><type>18</type></trkpt>
      <trkpt lat="41.12071" lon="-3.6495417"><ele>2152</ele><speed>33</speed><time>2016-10-08T12:57:09Z</time><course>34</course><type>18</type></trkpt>
      <trkpt lat="41.1208183" lon="-3.6495217"><ele>2151</ele><speed>30</speed><time>2016-10-08T12:57:10Z</time><course>33</course><type>18</type></trkpt>
      <trkpt lat="41.1209633" lon="-3.6495"><ele>2150</ele><speed>23</speed><time>2016-10-08T12:57:12Z</time><course>27</course><type>18</type></trkpt>
      <trkpt lat="41.12109" lon="-3.6495184"><ele>2150</ele><speed>27</speed><time>2016-10-08T12:57:15Z</time><course>16</course><type>18</type></trkpt>
      <trkpt lat="41.1210649" lon="-3.6493867"><ele>2149</ele><speed>25</speed><time>2016-10-08T12:57:17Z</time><course>21</course><type>18</type></trkpt>
      <trkpt lat="41.120905" lon="-3.6492084"><ele>2149</ele><speed>22</speed><time>2016-10-08T12:57:18Z</time><course>32</course><type>18</type></trkpt>
      <trkpt lat="41.1208183" lon="-3.6489867"><ele>2149</ele><speed>20</speed><time>2016-10-08T12:57:20Z</time><course>54</course><type>18</type></trkpt>
      <trkpt lat="41.1209199" lon="-3.64889"><ele>2150</ele><speed>19</speed><time>2016-10-08T12:57:23Z</time><course>24</course><type>18</type></trkpt>
      <trkpt lat="41.1208483" lon="-3.6489567"><ele>2151</ele><speed>13</speed><time>2016-10-08T12:57:26Z</time><course>338</course><type>18</type></trkpt>
      <trkpt lat="41.120855" lon="-3.6490734"><ele>2152</ele><speed>14</speed><time>2016-10-08T12:57:28Z</time><course>335</course><type>18</type></trkpt>
      <trkpt lat="41.1208916" lon="-3.6491667"><ele>2152</ele><speed>15</speed><time>2016-10-08T12:57:30Z</time><course>354</course><type>18</type></trkpt>
      <trkpt lat="41.1209983" lon="-3.6492284"><ele>2149</ele><speed>18</speed><time>2016-10-08T12:57:32Z</time><course>13</course><type>18</type></trkpt>
      <trkpt lat="41.1211233" lon="-3.64921"><ele>2146</ele><speed>20</speed><time>2016-10-08T12:57:34Z</time><course>19</course><type>18</type></trkpt>
      <trkpt lat="41.1212066" lon="-3.64917"><ele>2145</ele><speed>28</speed><time>2016-10-08T12:57:35Z</time><course>24</course><type>18</type></trkpt>
      <trkpt lat="41.1212983" lon="-3.64906"><ele>2145</ele><speed>28</speed><time>2016-10-08T12:57:37Z</time><course>31</course><type>18</type></trkpt>
      <trkpt lat="41.1213966" lon="-3.64899"><ele>2145</ele><speed>25</speed><time>2016-10-08T12:57:39Z</time><course>35</course><type>18</type></trkpt>
      <trkpt lat="41.1215133" lon="-3.6490017"><ele>2145</ele><speed>22</speed><time>2016-10-08T12:57:41Z</time><course>16</course><type>18</type></trkpt>
      <trkpt lat="41.121615" lon="-3.6490517"><ele>2146</ele><speed>21</speed><time>2016-10-08T12:57:43Z</time><course>1</course><type>18</type></trkpt>
      <trkpt lat="41.1217233" lon="-3.6491317"><ele>2146</ele><speed>22</speed><time>2016-10-08T12:57:45Z</time><course>355</course><type>18</type></trkpt>
      <trkpt lat="41.1217766" lon="-3.6492017"><ele>2144</ele><speed>23</speed><time>2016-10-08T12:57:46Z</time><course>349</course><type>18</type></trkpt>
      <trkpt lat="41.12186" lon="-3.649245"><ele>2142</ele><speed>20</speed><time>2016-10-08T12:57:48Z</time><course>355</course><type>18</type></trkpt>
      <trkpt lat="41.1219549" lon="-3.6492834"><ele>2141</ele><speed>20</speed><time>2016-10-08T12:57:50Z</time><course>1</course><type>18</type></trkpt>
      <trkpt lat="41.1220133" lon="-3.6493017"><ele>2139</ele><speed>21</speed><time>2016-10-08T12:57:51Z</time><course>354</course><type>18</type></trkpt>
      <trkpt lat="41.1221016" lon="-3.6492934"><ele>2140</ele><speed>15</speed><time>2016-10-08T12:57:53Z</time><course>354</course><type>18</type></trkpt>
      <trkpt lat="41.12219" lon="-3.6492734"><ele>2140</ele><speed>11</speed><time>2016-10-08T12:57:56Z</time><course>1</course><type>18</type></trkpt>
      <trkpt lat="41.121915" lon="-3.6491484"><ele>2135</ele><speed>7</speed><time>2016-10-08T12:57:58Z</time><course>154</course><type>18</type></trkpt>
      <trkpt lat="41.1217983" lon="-3.649125"><ele>2133</ele><speed>13</speed><time>2016-10-08T12:57:59Z</time><course>165</course><type>18</type></trkpt>
      <trkpt lat="41.1216616" lon="-3.6491334"><ele>2130</ele><speed>20</speed><time>2016-10-08T12:58:00Z</time><course>174</course><type>18</type></trkpt>
      <trkpt lat="41.121545" lon="-3.6490484"><ele>2131</ele><speed>24</speed><time>2016-10-08T12:58:01Z</time><course>175</course><type>18</type></trkpt>
      <trkpt lat="41.1214816" lon="-3.6489534"><ele>2131</ele><speed>21</speed><time>2016-10-08T12:58:02Z</time><course>168</course><type>18</type></trkpt>
      <trkpt lat="41.1213249" lon="-3.6490117"><ele>2126</ele><speed>19</speed><time>2016-10-08T12:58:03Z</time><course>177</course><type>18</type></trkpt>
      <trkpt lat="41.1212083" lon="-3.649065"><ele>2126</ele><speed>17</speed><time>2016-10-08T12:58:05Z</time><course>183</course><type>18</type></trkpt>
      <trkpt lat="41.12122" lon="-3.6491817"><ele>2126</ele><speed>23</speed><time>2016-10-08T12:58:06Z</time><course>256</course><type>18</type></trkpt>
      <trkpt lat="41.1211616" lon="-3.6493084"><ele>2127</ele><speed>31</speed><time>2016-10-08T12:58:08Z</time><course>271</course><type>18</type></trkpt>
      <trkpt lat="41.12115" lon="-3.649435"><ele>2128</ele><speed>26</speed><time>2016-10-08T12:58:10Z</time><course>260</course><type>18</type></trkpt>
      <trkpt lat="41.1212666" lon="-3.6494717"><ele>2129</ele><speed>15</speed><time>2016-10-08T12:58:15Z</time><course>316</course><type>18</type></trkpt>
      <trkpt lat="41.1213533" lon="-3.6494934"><ele>2129</ele><speed>19</speed><time>2016-10-08T12:58:16Z</time><course>329</course><type>18</type></trkpt>
      <trkpt lat="41.1214249" lon="-3.6495084"><ele>2130</ele><speed>20</speed><time>2016-10-08T12:58:17Z</time><course>339</course><type>18</type></trkpt>
      <trkpt lat="41.1214983" lon="-3.649515"><ele>2130</ele><speed>20</speed><time>2016-10-08T12:58:18Z</time><course>347</course><type>18</type></trkpt>
      <trkpt lat="41.1215716" lon="-3.6495017"><ele>2130</ele><speed>23</speed><time>2016-10-08T12:58:19Z</time><course>359</course><type>18</type></trkpt>
      <trkpt lat="41.1216766" lon="-3.6495217"><ele>2129</ele><speed>18</speed><time>2016-10-08T12:58:21Z</time><course>359</course><type>18</type></trkpt>
      <trkpt lat="41.1217299" lon="-3.6495084"><ele>2130</ele><speed>19</speed><time>2016-10-08T12:58:22Z</time><course>7</course><type>18</type></trkpt>
      <trkpt lat="41.1218283" lon="-3.6494684"><ele>2130</ele><speed>21</speed><time>2016-10-08T12:58:24Z</time><course>24</course><type>18</type></trkpt>
      <trkpt lat="41.1218916" lon="-3.6494284"><ele>2130</ele><speed>23</speed><time>2016-10-08T12:58:25Z</time><course>22</course><type>18</type></trkpt>
      <trkpt lat="41.1219416" lon="-3.6493884"><ele>2131</ele><speed>22</speed><time>2016-10-08T12:58:26Z</time><course>24</course><type>18</type></trkpt>
      <trkpt lat="41.1219933" lon="-3.6493534"><ele>2131</ele><speed>21</speed><time>2016-10-08T12:58:27Z</time><course>26</course><type>18</type></trkpt>
      <trkpt lat="41.1220483" lon="-3.6493117"><ele>2132</ele><speed>20</speed><time>2016-10-08T12:58:28Z</time><course>26</course><type>18</type></trkpt>
      <trkpt lat="41.12212" lon="-3.6492784"><ele>2133</ele><speed>17</speed><time>2016-10-08T12:58:30Z</time><course>23</course><type>18</type></trkpt>
      <trkpt lat="41.12222" lon="-3.6492667"><ele>2134</ele><speed>17</speed><time>2016-10-08T12:58:33Z</time><course>17</course><type>18</type></trkpt>
      <trkpt lat="41.1221066" lon="-3.64918"><ele>2137</ele><speed>16</speed><time>2016-10-08T12:58:38Z</time><course>195</course><type>18</type></trkpt>
      <trkpt lat="41.1219716" lon="-3.649135"><ele>2138</ele><speed>22</speed><time>2016-10-08T12:58:40Z</time><course>186</course><type>18</type></trkpt>
      <trkpt lat="41.1217933" lon="-3.6491017"><ele>2139</ele><speed>28</speed><time>2016-10-08T12:58:42Z</time><course>183</course><type>18</type></trkpt>
      <trkpt lat="41.12162" lon="-3.6490817"><ele>2140</ele><speed>30</speed><time>2016-10-08T12:58:44Z</time><course>182</course><type>18</type></trkpt>
      <trkpt lat="41.1214616" lon="-3.6490584"><ele>2140</ele><speed>30</speed><time>2016-10-08T12:58:46Z</time><course>181</course><type>18</type></trkpt>
      <trkpt lat="41.1213" lon="-3.64906"><ele>2141</ele><speed>30</speed><time>2016-10-08T12:58:48Z</time><course>185</course><type>18</type></trkpt>
      <trkpt lat="41.12114" lon="-3.6491034"><ele>2142</ele><speed>30</speed><time>2016-10-08T12:58:50Z</time><course>189</course><type>18</type></trkpt>
      <trkpt lat="41.121025" lon="-3.64916"><ele>2143</ele><speed>26</speed><time>2016-10-08T12:58:52Z</time><course>191</course><type>18</type></trkpt>
      <trkpt lat="41.1209033" lon="-3.64897"><ele>2141</ele><speed>25</speed><time>2016-10-08T12:58:53Z</time><course>194</course><type>18</type></trkpt>
      <trkpt lat="41.12059" lon="-3.6485784"><ele>2140</ele><speed>26</speed><time>2016-10-08T12:58:54Z</time><course>191</course><type>18</type></trkpt>
      <trkpt lat="41.120775" lon="-3.6485717"><ele>2137</ele><speed>15</speed><time>2016-10-08T12:58:56Z</time><course>206</course><type>18</type></trkpt>
      <trkpt lat="41.120985" lon="-3.6486467"><ele>2136</ele><speed>10</speed><time>2016-10-08T12:58:57Z</time><course>226</course><type>18</type></trkpt>
      <trkpt lat="41.1211533" lon="-3.6486351"><ele>2135</ele><speed>8</speed><time>2016-10-08T12:58:58Z</time><course>262</course><type>18</type></trkpt>
      <trkpt lat="41.1213349" lon="-3.6486267"><ele>2134</ele><speed>11</speed><time>2016-10-08T12:58:59Z</time><course>302</course><type>18</type></trkpt>
      <trkpt lat="41.1214633" lon="-3.648625"><ele>2134</ele><speed>14</speed><time>2016-10-08T12:59:00Z</time><course>328</course><type>18</type></trkpt>
      <trkpt lat="41.121575" lon="-3.6486034"><ele>2135</ele><speed>15</speed><time>2016-10-08T12:59:02Z</time><course>351</course><type>18</type></trkpt>
      <trkpt lat="41.1216316" lon="-3.6487634"><ele>2139</ele><speed>11</speed><time>2016-10-08T12:59:11Z</time><course>323</course><type>18</type></trkpt>
      <trkpt lat="41.121695" lon="-3.6489184"><ele>2140</ele><speed>12</speed><time>2016-10-08T12:59:13Z</time><course>328</course><type>18</type></trkpt>
      <trkpt lat="41.121835" lon="-3.6489334"><ele>2142</ele><speed>17</speed><time>2016-10-08T12:59:16Z</time><course>346</course><type>18</type></trkpt>
      <trkpt lat="41.1219516" lon="-3.6488734"><ele>2143</ele><speed>19</speed><time>2016-10-08T12:59:18Z</time><course>4</course><type>18</type></trkpt>
      <trkpt lat="41.122055" lon="-3.649005"><ele>2143</ele><speed>16</speed><time>2016-10-08T12:59:20Z</time><course>357</course><type>18</type></trkpt>
      <trkpt lat="41.122165" lon="-3.648805"><ele>2144</ele><speed>15</speed><time>2016-10-08T12:59:25Z</time><course>12</course><type>18</type></trkpt>
      <trkpt lat="41.1222916" lon="-3.6487734"><ele>2143</ele><speed>20</speed><time>2016-10-08T12:59:26Z</time><course>9</course><type>18</type></trkpt>
      <trkpt lat="41.1224583" lon="-3.64875"><ele>2142</ele><speed>25</speed><time>2016-10-08T12:59:27Z</time><course>359</course><type>18</type></trkpt>
      <trkpt lat="41.1226333" lon="-3.6487534"><ele>2141</ele><speed>28</speed><time>2016-10-08T12:59:28Z</time><course>354</course><type>18</type></trkpt>
      <trkpt lat="41.12279" lon="-3.6488017"><ele>2142</ele><speed>25</speed><time>2016-10-08T12:59:30Z</time><course>343</course><type>18</type></trkpt>
      <trkpt lat="41.1229066" lon="-3.6489"><ele>2142</ele><speed>21</speed><time>2016-10-08T12:59:32Z</time><course>335</course><type>18</type></trkpt>
      <trkpt lat="41.1230616" lon="-3.6488267"><ele>2143</ele><speed>22</speed><time>2016-10-08T12:59:34Z</time><course>353</course><type>18</type></trkpt>
      <trkpt lat="41.123165" lon="-3.6487884"><ele>2144</ele><speed>16</speed><time>2016-10-08T12:59:36Z</time><course>325</course><type>18</type></trkpt>
      <trkpt lat="41.1232333" lon="-3.648865"><ele>2145</ele><speed>14</speed><time>2016-10-08T12:59:39Z</time><course>287</course><type>18</type></trkpt>
      <trkpt lat="41.1231916" lon="-3.64901"><ele>2146</ele><speed>19</speed><time>2016-10-08T12:59:42Z</time><course>246</course><type>18</type></trkpt>
      <trkpt lat="41.1230833" lon="-3.6490767"><ele>2147</ele><speed>20</speed><time>2016-10-08T12:59:44Z</time><course>230</course><type>18</type></trkpt>
      <trkpt lat="41.1229566" lon="-3.649045"><ele>2147</ele><speed>22</speed><time>2016-10-08T12:59:45Z</time><course>216</course><type>18</type></trkpt>
      <trkpt lat="41.1227466" lon="-3.6484184"><ele>2146</ele><speed>18</speed><time>2016-10-08T12:59:46Z</time><course>165</course><type>18</type></trkpt>
      <trkpt lat="41.1225916" lon="-3.64807"><ele>2146</ele><speed>22</speed><time>2016-10-08T12:59:47Z</time><course>150</course><type>18</type></trkpt>
      <trkpt lat="41.122515" lon="-3.648145"><ele>2146</ele><speed>17</speed><time>2016-10-08T12:59:49Z</time><course>163</course><type>18</type></trkpt>
      <trkpt lat="41.122445" lon="-3.6480134"><ele>2146</ele><speed>11</speed><time>2016-10-08T12:59:53Z</time><course>137</course><type>18</type></trkpt>
      <trkpt lat="41.1225683" lon="-3.6478784"><ele>2147</ele><speed>11</speed><time>2016-10-08T12:59:57Z</time><course>54</course><type>18</type></trkpt>
      <trkpt lat="41.122735" lon="-3.6478184"><ele>2147</ele><speed>16</speed><time>2016-10-08T12:59:59Z</time><course>32</course><type>18</type></trkpt>
      <trkpt lat="41.122815" lon="-3.6477684"><ele>2147</ele><speed>17</speed><time>2016-10-08T13:00:00Z</time><course>33</course><type>18</type></trkpt>
      <trkpt lat="41.12294" lon="-3.6476817"><ele>2147</ele><speed>20</speed><time>2016-10-08T13:00:01Z</time><course>34</course><type>18</type></trkpt>
      <trkpt lat="41.1230216" lon="-3.6476084"><ele>2147</ele><speed>22</speed><time>2016-10-08T13:00:02Z</time><course>37</course><type>18</type></trkpt>
      <trkpt lat="41.1230916" lon="-3.647545"><ele>2147</ele><speed>22</speed><time>2016-10-08T13:00:03Z</time><course>40</course><type>18</type></trkpt>
      <trkpt lat="41.1232016" lon="-3.6474834"><ele>2145</ele><speed>22</speed><time>2016-10-08T13:00:05Z</time><course>49</course><type>18</type></trkpt>
      <trkpt lat="41.1232883" lon="-3.6472934"><ele>2145</ele><speed>34</speed><time>2016-10-08T13:00:07Z</time><course>50</course><type>18</type></trkpt>
      <trkpt lat="41.1234116" lon="-3.6472117"><ele>2143</ele><speed>31</speed><time>2016-10-08T13:00:09Z</time><course>46</course><type>18</type></trkpt>
      <trkpt lat="41.1234566" lon="-3.6471017"><ele>2144</ele><speed>31</speed><time>2016-10-08T13:00:10Z</time><course>49</course><type>18</type></trkpt>
      <trkpt lat="41.1234833" lon="-3.6469867"><ele>2144</ele><speed>30</speed><time>2016-10-08T13:00:11Z</time><course>54</course><type>18</type></trkpt>
      <trkpt lat="41.1233933" lon="-3.6468567"><ele>2144</ele><speed>22</speed><time>2016-10-08T13:00:12Z</time><course>79</course><type>18</type></trkpt>
      <trkpt lat="41.1234783" lon="-3.64699"><ele>2140</ele><speed>22</speed><time>2016-10-08T13:00:13Z</time><course>67</course><type>18</type></trkpt>
      <trkpt lat="41.1235333" lon="-3.6468034"><ele>2140</ele><speed>22</speed><time>2016-10-08T13:00:15Z</time><course>59</course><type>18</type></trkpt>
      <trkpt lat="41.1235266" lon="-3.6466417"><ele>2140</ele><speed>19</speed><time>2016-10-08T13:00:17Z</time><course>53</course><type>18</type></trkpt>
      <trkpt lat="41.123605" lon="-3.646745"><ele>2141</ele><speed>13</speed><time>2016-10-08T13:00:26Z</time><course>333</course><type>18</type></trkpt>
      <trkpt lat="41.123685" lon="-3.6468017"><ele>2142</ele><speed>15</speed><time>2016-10-08T13:00:29Z</time><course>357</course><type>18</type></trkpt>
      <trkpt lat="41.12381" lon="-3.6469417"><ele>2142</ele><speed>15</speed><time>2016-10-08T13:00:32Z</time><course>325</course><type>18</type></trkpt>
      <trkpt lat="41.1236866" lon="-3.6469634"><ele>2142</ele><speed>4</speed><time>2016-10-08T13:00:36Z</time><course>313</course><type>18</type></trkpt>
      <trkpt lat="41.1235833" lon="-3.64695"><ele>2142</ele><speed>11</speed><time>2016-10-08T13:00:37Z</time><course>178</course><type>18</type></trkpt>
      <trkpt lat="41.1231083" lon="-3.6472934"><ele>2142</ele><speed>27</speed><time>2016-10-08T13:00:39Z</time><course>194</course><type>18</type></trkpt>
      <trkpt lat="41.1229783" lon="-3.64746"><ele>2142</ele><speed>28</speed><time>2016-10-08T13:00:40Z</time><course>196</course><type>18</type></trkpt>
      <trkpt lat="41.123" lon="-3.6472534"><ele>2140</ele><speed>19</speed><time>2016-10-08T13:00:42Z</time><course>170</course><type>18</type></trkpt>
      <trkpt lat="41.12293" lon="-3.64711"><ele>2140</ele><speed>19</speed><time>2016-10-08T13:00:43Z</time><course>146</course><type>18</type></trkpt>
      <trkpt lat="41.122885" lon="-3.6469234"><ele>2140</ele><speed>18</speed><time>2016-10-08T13:00:45Z</time><course>122</course><type>18</type></trkpt>
      <trkpt lat="41.1228316" lon="-3.64666"><ele>2139</ele><speed>17</speed><time>2016-10-08T13:00:47Z</time><course>107</course><type>18</type></trkpt>
      <trkpt lat="41.1227733" lon="-3.646415"><ele>2139</ele><speed>17</speed><time>2016-10-08T13:00:49Z</time><course>101</course><type>18</type></trkpt>
      <trkpt lat="41.1228083" lon="-3.646285"><ele>2139</ele><speed>15</speed><time>2016-10-08T13:00:51Z</time><course>90</course><type>18</type></trkpt>
      <trkpt lat="41.1228833" lon="-3.6462"><ele>2139</ele><speed>12</speed><time>2016-10-08T13:00:53Z</time><course>77</course><type>18</type></trkpt>
      <trkpt lat="41.12306" lon="-3.6462334"><ele>2139</ele><speed>10</speed><time>2016-10-08T13:00:55Z</time><course>19</course><type>18</type></trkpt>
      <trkpt lat="41.1231633" lon="-3.6462967"><ele>2139</ele><speed>19</speed><time>2016-10-08T13:00:56Z</time><course>342</course><type>18</type></trkpt>
      <trkpt lat="41.1233116" lon="-3.6463084"><ele>2139</ele><speed>24</speed><time>2016-10-08T13:00:58Z</time><course>350</course><type>18</type></trkpt>
      <trkpt lat="41.1234516" lon="-3.6463484"><ele>2139</ele><speed>24</speed><time>2016-10-08T13:01:00Z</time><course>347</course><type>18</type></trkpt>
      <trkpt lat="41.1235333" lon="-3.6463684"><ele>2139</ele><speed>24</speed><time>2016-10-08T13:01:01Z</time><course>347</course><type>18</type></trkpt>
      <trkpt lat="41.1236083" lon="-3.646415"><ele>2139</ele><speed>24</speed><time>2016-10-08T13:01:02Z</time><course>343</course><type>18</type></trkpt>
      <trkpt lat="41.1237416" lon="-3.6465517"><ele>2138</ele><speed>24</speed><time>2016-10-08T13:01:04Z</time><course>330</course><type>18</type></trkpt>
      <trkpt lat="41.1238516" lon="-3.6465984"><ele>2138</ele><speed>29</speed><time>2016-10-08T13:01:05Z</time><course>341</course><type>18</type></trkpt>
      <trkpt lat="41.12395" lon="-3.6466567"><ele>2138</ele><speed>31</speed><time>2016-10-08T13:01:06Z</time><course>343</course><type>18</type></trkpt>
      <trkpt lat="41.1240633" lon="-3.6466984"><ele>2138</ele><speed>34</speed><time>2016-10-08T13:01:07Z</time><course>347</course><type>18</type></trkpt>
      <trkpt lat="41.1242433" lon="-3.64678"><ele>2137</ele><speed>40</speed><time>2016-10-08T13:01:08Z</time><course>348</course><type>18</type></trkpt>
      <trkpt lat="41.1245816" lon="-3.6470817"><ele>2135</ele><speed>51</speed><time>2016-10-08T13:01:09Z</time><course>342</course><type>18</type></trkpt>
      <trkpt lat="41.124725" lon="-3.647125"><ele>2135</ele><speed>52</speed><time>2016-10-08T13:01:10Z</time><course>344</course><type>18</type></trkpt>
      <trkpt lat="41.12476" lon="-3.6467117"><ele>2133</ele><speed>41</speed><time>2016-10-08T13:01:11Z</time><course>12</course><type>18</type></trkpt>
      <trkpt lat="41.1248783" lon="-3.6465984"><ele>2130</ele><speed>37</speed><time>2016-10-08T13:01:13Z</time><course>19</course><type>18</type></trkpt>
      <trkpt lat="41.1250216" lon="-3.64663"><ele>2130</ele><speed>49</speed><time>2016-10-08T13:01:14Z</time><course>19</course><type>18</type></trkpt>
      <trkpt lat="41.125225" lon="-3.6465367"><ele>2129</ele><speed>48</speed><time>2016-10-08T13:01:16Z</time><course>19</course><type>18</type></trkpt>
      <trkpt lat="41.1253766" lon="-3.6464984"><ele>2129</ele><speed>49</speed><time>2016-10-08T13:01:17Z</time><course>17</course><type>18</type></trkpt>
      <trkpt lat="41.12558" lon="-3.6465"><ele>2128</ele><speed>52</speed><time>2016-10-08T13:01:18Z</time><course>14</course><type>18</type></trkpt>
      <trkpt lat="41.12579" lon="-3.646515"><ele>2127</ele><speed>54</speed><time>2016-10-08T13:01:19Z</time><course>10</course><type>18</type></trkpt>
      <trkpt lat="41.1259483" lon="-3.6465167"><ele>2127</ele><speed>53</speed><time>2016-10-08T13:01:20Z</time><course>8</course><type>18</type></trkpt>
      <trkpt lat="41.12586" lon="-3.64636"><ele>2126</ele><speed>41</speed><time>2016-10-08T13:01:21Z</time><course>14</course><type>18</type></trkpt>
      <trkpt lat="41.1255133" lon="-3.64557"><ele>2123</ele><speed>29</speed><time>2016-10-08T13:01:22Z</time><course>40</course><type>18</type></trkpt>
      <trkpt lat="41.1251483" lon="-3.644795"><ele>2121</ele><speed>30</speed><time>2016-10-08T13:01:23Z</time><course>54</course><type>18</type></trkpt>
      <trkpt lat="41.1250383" lon="-3.6445184"><ele>2121</ele><speed>30</speed><time>2016-10-08T13:01:24Z</time><course>58</course><type>18</type></trkpt>
      <trkpt lat="41.1249566" lon="-3.6443717"><ele>2120</ele><speed>27</speed><time>2016-10-08T13:01:25Z</time><course>62</course><type>18</type></trkpt>
      <trkpt lat="41.12504" lon="-3.6444717"><ele>2109</ele><speed>9</speed><time>2016-10-08T13:01:36Z</time><course>20</course><type>18</type></trkpt>
      <trkpt lat="41.1251399" lon="-3.6444184"><ele>2108</ele><speed>19</speed><time>2016-10-08T13:01:38Z</time><course>35</course><type>18</type></trkpt>
      <trkpt lat="41.12521" lon="-3.6443417"><ele>2108</ele><speed>23</speed><time>2016-10-08T13:01:39Z</time><course>33</course><type>18</type></trkpt>
      <trkpt lat="41.12529" lon="-3.644295"><ele>2106</ele><speed>19</speed><time>2016-10-08T13:01:41Z</time><course>15</course><type>18</type></trkpt>
      <trkpt lat="41.125385" lon="-3.644415"><ele>2104</ele><speed>21</speed><time>2016-10-08T13:01:42Z</time><course>1</course><type>18</type></trkpt>
      <trkpt lat="41.125455" lon="-3.64446"><ele>2103</ele><speed>21</speed><time>2016-10-08T13:01:43Z</time><course>352</course><type>18</type></trkpt>
      <trkpt lat="41.1255183" lon="-3.6445184"><ele>2102</ele><speed>21</speed><time>2016-10-08T13:01:44Z</time><course>348</course><type>18</type></trkpt>
      <trkpt lat="41.1256533" lon="-3.6445767"><ele>2098</ele><speed>21</speed><time>2016-10-08T13:01:46Z</time><course>2</course><type>18</type></trkpt>
      <trkpt lat="41.1257266" lon="-3.6445834"><ele>2097</ele><speed>22</speed><time>2016-10-08T13:01:47Z</time><course>8</course><type>18</type></trkpt>
      <trkpt lat="41.1258016" lon="-3.6445534"><ele>2095</ele><speed>25</speed><time>2016-10-08T13:01:48Z</time><course>13</course><type>18</type></trkpt>
      <trkpt lat="41.1258766" lon="-3.6445317"><ele>2094</ele><speed>27</speed><time>2016-10-08T13:01:49Z</time><course>18</course><type>18</type></trkpt>
      <trkpt lat="41.1259516" lon="-3.6445034"><ele>2093</ele><speed>28</speed><time>2016-10-08T13:01:50Z</time><course>20</course><type>18</type></trkpt>
      <trkpt lat="41.1260283" lon="-3.6444434"><ele>2092</ele><speed>29</speed><time>2016-10-08T13:01:51Z</time><course>22</course><type>18</type></trkpt>
      <trkpt lat="41.12625" lon="-3.6444134"><ele>2088</ele><speed>24</speed><time>2016-10-08T13:01:53Z</time><course>11</course><type>18</type></trkpt>
      <trkpt lat="41.1263833" lon="-3.6443767"><ele>2087</ele><speed>29</speed><time>2016-10-08T13:01:54Z</time><course>14</course><type>18</type></trkpt>
      <trkpt lat="41.126525" lon="-3.6443417"><ele>2085</ele><speed>34</speed><time>2016-10-08T13:01:55Z</time><course>20</course><type>18</type></trkpt>
      <trkpt lat="41.1266533" lon="-3.6442834"><ele>2083</ele><speed>37</speed><time>2016-10-08T13:01:56Z</time><course>25</course><type>18</type></trkpt>
      <trkpt lat="41.1268016" lon="-3.6442567"><ele>2081</ele><speed>38</speed><time>2016-10-08T13:01:57Z</time><course>27</course><type>18</type></trkpt>
      <trkpt lat="41.1269416" lon="-3.6442334"><ele>2079</ele><speed>39</speed><time>2016-10-08T13:01:58Z</time><course>28</course><type>18</type></trkpt>
      <trkpt lat="41.1270483" lon="-3.6440867"><ele>2076</ele><speed>35</speed><time>2016-10-08T13:02:00Z</time><course>35</course><type>18</type></trkpt>
      <trkpt lat="41.12716" lon="-3.6439567"><ele>2074</ele><speed>33</speed><time>2016-10-08T13:02:02Z</time><course>36</course><type>18</type></trkpt>
      <trkpt lat="41.1272033" lon="-3.6438534"><ele>2072</ele><speed>35</speed><time>2016-10-08T13:02:03Z</time><course>37</course><type>18</type></trkpt>
      <trkpt lat="41.1272766" lon="-3.64377"><ele>2071</ele><speed>35</speed><time>2016-10-08T13:02:04Z</time><course>37</course><type>18</type></trkpt>
      <trkpt lat="41.1273716" lon="-3.6437317"><ele>2069</ele><speed>33</speed><time>2016-10-08T13:02:05Z</time><course>36</course><type>18</type></trkpt>
      <trkpt lat="41.1274316" lon="-3.6436684"><ele>2068</ele><speed>33</speed><time>2016-10-08T13:02:06Z</time><course>37</course><type>18</type></trkpt>
      <trkpt lat="41.1274966" lon="-3.6435967"><ele>2067</ele><speed>34</speed><time>2016-10-08T13:02:07Z</time><course>38</course><type>18</type></trkpt>
      <trkpt lat="41.12754" lon="-3.643485"><ele>2066</ele><speed>33</speed><time>2016-10-08T13:02:08Z</time><course>41</course><type>18</type></trkpt>
      <trkpt lat="41.1275866" lon="-3.6433667"><ele>2065</ele><speed>35</speed><time>2016-10-08T13:02:09Z</time><course>45</course><type>18</type></trkpt>
      <trkpt lat="41.127625" lon="-3.643245"><ele>2064</ele><speed>35</speed><time>2016-10-08T13:02:10Z</time><course>47</course><type>18</type></trkpt>
      <trkpt lat="41.1276233" lon="-3.6429984"><ele>2063</ele><speed>30</speed><time>2016-10-08T13:02:12Z</time><course>50</course><type>18</type></trkpt>
      <trkpt lat="41.1275833" lon="-3.6428767"><ele>2063</ele><speed>26</speed><time>2016-10-08T13:02:13Z</time><course>54</course><type>18</type></trkpt>
      <trkpt lat="41.127635" lon="-3.6427184"><ele>2063</ele><speed>25</speed><time>2016-10-08T13:02:15Z</time><course>53</course><type>18</type></trkpt>
      <trkpt lat="41.1275183" lon="-3.6430867"><ele>2062</ele><speed>6</speed><time>2016-10-08T13:02:18Z</time><course>348</course><type>18</type></trkpt>
      <trkpt lat="41.12751" lon="-3.6432817"><ele>2060</ele><speed>9</speed><time>2016-10-08T13:02:19Z</time><course>310</course><type>18</type></trkpt>
      <trkpt lat="41.1274733" lon="-3.6434367"><ele>2060</ele><speed>12</speed><time>2016-10-08T13:02:20Z</time><course>286</course><type>18</type></trkpt>
      <trkpt lat="41.127445" lon="-3.64359"><ele>2059</ele><speed>16</speed><time>2016-10-08T13:02:21Z</time><course>272</course><type>18</type></trkpt>
      <trkpt lat="41.127375" lon="-3.643755"><ele>2059</ele><speed>20</speed><time>2016-10-08T13:02:22Z</time><course>260</course><type>18</type></trkpt>
      <trkpt lat="41.1273583" lon="-3.6438917"><ele>2059</ele><speed>21</speed><time>2016-10-08T13:02:23Z</time><course>254</course><type>18</type></trkpt>
      <trkpt lat="41.1272333" lon="-3.6440117"><ele>2058</ele><speed>23</speed><time>2016-10-08T13:02:25Z</time><course>235</course><type>18</type></trkpt>
      <trkpt lat="41.12716" lon="-3.644035"><ele>2057</ele><speed>26</speed><time>2016-10-08T13:02:26Z</time><course>223</course><type>18</type></trkpt>
      <trkpt lat="41.1270983" lon="-3.6439517"><ele>2056</ele><speed>24</speed><time>2016-10-08T13:02:27Z</time><course>194</course><type>18</type></trkpt>
      <trkpt lat="41.1269966" lon="-3.6438784"><ele>2054</ele><speed>29</speed><time>2016-10-08T13:02:28Z</time><course>174</course><type>18</type></trkpt>
      <trkpt lat="41.12688" lon="-3.6438084"><ele>2053</ele><speed>35</speed><time>2016-10-08T13:02:29Z</time><course>163</course><type>18</type></trkpt>
      <trkpt lat="41.1267733" lon="-3.6437117"><ele>2052</ele><speed>37</speed><time>2016-10-08T13:02:30Z</time><course>153</course><type>18</type></trkpt>
      <trkpt lat="41.126655" lon="-3.6436267"><ele>2051</ele><speed>40</speed><time>2016-10-08T13:02:31Z</time><course>146</course><type>18</type></trkpt>
      <trkpt lat="41.1266016" lon="-3.6434967"><ele>2049</ele><speed>40</speed><time>2016-10-08T13:02:32Z</time><course>138</course><type>18</type></trkpt>
      <trkpt lat="41.12655" lon="-3.643355"><ele>2049</ele><speed>42</speed><time>2016-10-08T13:02:33Z</time><course>132</course><type>18</type></trkpt>
      <trkpt lat="41.1264833" lon="-3.6432234"><ele>2048</ele><speed>44</speed><time>2016-10-08T13:02:34Z</time><course>127</course><type>18</type></trkpt>
      <trkpt lat="41.1264183" lon="-3.6430817"><ele>2048</ele><speed>46</speed><time>2016-10-08T13:02:35Z</time><course>125</course><type>18</type></trkpt>
      <trkpt lat="41.1263633" lon="-3.6429367"><ele>2047</ele><speed>46</speed><time>2016-10-08T13:02:36Z</time><course>119</course><type>18</type></trkpt>
      <trkpt lat="41.1264033" lon="-3.6427667"><ele>2046</ele><speed>46</speed><time>2016-10-08T13:02:37Z</time><course>112</course><type>18</type></trkpt>
      <trkpt lat="41.1264016" lon="-3.6426134"><ele>2044</ele><speed>46</speed><time>2016-10-08T13:02:38Z</time><course>109</course><type>18</type></trkpt>
      <trkpt lat="41.1264383" lon="-3.6424567"><ele>2042</ele><speed>46</speed><time>2016-10-08T13:02:39Z</time><course>102</course><type>18</type></trkpt>
      <trkpt lat="41.1264383" lon="-3.6422967"><ele>2041</ele><speed>47</speed><time>2016-10-08T13:02:40Z</time><course>97</course><type>18</type></trkpt>
      <trkpt lat="41.126425" lon="-3.6421684"><ele>2039</ele><speed>43</speed><time>2016-10-08T13:02:41Z</time><course>109</course><type>18</type></trkpt>
      <trkpt lat="41.1264266" lon="-3.6420584"><ele>2038</ele><speed>41</speed><time>2016-10-08T13:02:42Z</time><course>106</course><type>18</type></trkpt>
      <trkpt lat="41.126435" lon="-3.6419334"><ele>2037</ele><speed>41</speed><time>2016-10-08T13:02:43Z</time><course>96</course><type>18</type></trkpt>
      <trkpt lat="41.1264416" lon="-3.6418034"><ele>2036</ele><speed>41</speed><time>2016-10-08T13:02:44Z</time><course>92</course><type>18</type></trkpt>
      <trkpt lat="41.1264766" lon="-3.641675"><ele>2035</ele><speed>42</speed><time>2016-10-08T13:02:45Z</time><course>82</course><type>18</type></trkpt>
      <trkpt lat="41.1265133" lon="-3.6415434"><ele>2034</ele><speed>44</speed><time>2016-10-08T13:02:46Z</time><course>77</course><type>18</type></trkpt>
      <trkpt lat="41.12655" lon="-3.6414034"><ele>2032</ele><speed>46</speed><time>2016-10-08T13:02:47Z</time><course>75</course><type>18</type></trkpt>
      <trkpt lat="41.1265883" lon="-3.6412284"><ele>2031</ele><speed>46</speed><time>2016-10-08T13:02:48Z</time><course>76</course><type>18</type></trkpt>
      <trkpt lat="41.126645" lon="-3.6410784"><ele>2029</ele><speed>47</speed><time>2016-10-08T13:02:49Z</time><course>75</course><type>18</type></trkpt>
      <trkpt lat="41.126695" lon="-3.6409234"><ele>2028</ele><speed>49</speed><time>2016-10-08T13:02:50Z</time><course>76</course><type>18</type></trkpt>
      <trkpt lat="41.1267333" lon="-3.64076"><ele>2027</ele><speed>48</speed><time>2016-10-08T13:02:51Z</time><course>76</course><type>18</type></trkpt>
      <trkpt lat="41.1267649" lon="-3.64061"><ele>2026</ele><speed>48</speed><time>2016-10-08T13:02:52Z</time><course>75</course><type>18</type></trkpt>
      <trkpt lat="41.1268916" lon="-3.6405484"><ele>2025</ele><speed>37</speed><time>2016-10-08T13:02:54Z</time><course>67</course><type>18</type></trkpt>
      <trkpt lat="41.126935" lon="-3.6404467"><ele>2024</ele><speed>36</speed><time>2016-10-08T13:02:55Z</time><course>67</course><type>18</type></trkpt>
      <trkpt lat="41.1269783" lon="-3.64036"><ele>2024</ele><speed>35</speed><time>2016-10-08T13:02:56Z</time><course>66</course><type>18</type></trkpt>
      <trkpt lat="41.1268716" lon="-3.6402867"><ele>2021</ele><speed>24</speed><time>2016-10-08T13:02:58Z</time><course>74</course><type>18</type></trkpt>
      <trkpt lat="41.1267783" lon="-3.6404584"><ele>2020</ele><speed>10</speed><time>2016-10-08T13:02:59Z</time><course>104</course><type>18</type></trkpt>
      <trkpt lat="41.1265833" lon="-3.6407367"><ele>2017</ele><speed>7</speed><time>2016-10-08T13:03:00Z</time><course>154</course><type>18</type></trkpt>
      <trkpt lat="41.126535" lon="-3.6408917"><ele>2016</ele><speed>8</speed><time>2016-10-08T13:03:01Z</time><course>169</course><type>18</type></trkpt>
      <trkpt lat="41.1264533" lon="-3.6410417"><ele>2015</ele><speed>13</speed><time>2016-10-08T13:03:03Z</time><course>172</course><type>18</type></trkpt>
      <trkpt lat="41.1263916" lon="-3.6411284"><ele>2014</ele><speed>21</speed><time>2016-10-08T13:03:04Z</time><course>178</course><type>18</type></trkpt>
      <trkpt lat="41.1263016" lon="-3.641155"><ele>2014</ele><speed>27</speed><time>2016-10-08T13:03:05Z</time><course>171</course><type>18</type></trkpt>
      <trkpt lat="41.12623" lon="-3.64114"><ele>2013</ele><speed>29</speed><time>2016-10-08T13:03:06Z</time><course>160</course><type>18</type></trkpt>
      <trkpt lat="41.12613" lon="-3.64112"><ele>2013</ele><speed>31</speed><time>2016-10-08T13:03:07Z</time><course>154</course><type>18</type></trkpt>
      <trkpt lat="41.1260166" lon="-3.641085"><ele>2012</ele><speed>33</speed><time>2016-10-08T13:03:08Z</time><course>149</course><type>18</type></trkpt>
      <trkpt lat="41.1259066" lon="-3.64104"><ele>2012</ele><speed>34</speed><time>2016-10-08T13:03:09Z</time><course>146</course><type>18</type></trkpt>
      <trkpt lat="41.1257833" lon="-3.6409867"><ele>2012</ele><speed>35</speed><time>2016-10-08T13:03:10Z</time><course>143</course><type>18</type></trkpt>
      <trkpt lat="41.1256266" lon="-3.6409734"><ele>2012</ele><speed>36</speed><time>2016-10-08T13:03:11Z</time><course>144</course><type>18</type></trkpt>
      <trkpt lat="41.1255683" lon="-3.6408784"><ele>2011</ele><speed>36</speed><time>2016-10-08T13:03:12Z</time><course>141</course><type>18</type></trkpt>
      <trkpt lat="41.1255066" lon="-3.6407767"><ele>2010</ele><speed>37</speed><time>2016-10-08T13:03:13Z</time><course>138</course><type>18</type></trkpt>
      <trkpt lat="41.1254416" lon="-3.640585"><ele>2009</ele><speed>31</speed><time>2016-10-08T13:03:15Z</time><course>124</course><type>18</type></trkpt>
      <trkpt lat="41.1253933" lon="-3.6404734"><ele>2009</ele><speed>32</speed><time>2016-10-08T13:03:16Z</time><course>123</course><type>18</type></trkpt>
      <trkpt lat="41.1253566" lon="-3.640385"><ele>2009</ele><speed>28</speed><time>2016-10-08T13:03:17Z</time><course>120</course><type>18</type></trkpt>
      <trkpt lat="41.125325" lon="-3.6402234"><ele>2009</ele><speed>23</speed><time>2016-10-08T13:03:19Z</time><course>112</course><type>18</type></trkpt>
      <trkpt lat="41.12537" lon="-3.64004"><ele>2008</ele><speed>24</speed><time>2016-10-08T13:03:20Z</time><course>100</course><type>18</type></trkpt>
      <trkpt lat="41.12539" lon="-3.6399184"><ele>2008</ele><speed>24</speed><time>2016-10-08T13:03:21Z</time><course>94</course><type>18</type></trkpt>
      <trkpt lat="41.1254983" lon="-3.639825"><ele>2007</ele><speed>22</speed><time>2016-10-08T13:03:22Z</time><course>80</course><type>18</type></trkpt>
      <trkpt lat="41.1256416" lon="-3.639755"><ele>2006</ele><speed>16</speed><time>2016-10-08T13:03:24Z</time><course>54</course><type>18</type></trkpt>
      <trkpt lat="41.1257516" lon="-3.6397617"><ele>2006</ele><speed>17</speed><time>2016-10-08T13:03:25Z</time><course>29</course><type>18</type></trkpt>
      <trkpt lat="41.1258633" lon="-3.63979"><ele>2006</ele><speed>21</speed><time>2016-10-08T13:03:26Z</time><course>13</course><type>18</type></trkpt>
      <trkpt lat="41.1260533" lon="-3.63988"><ele>2005</ele><speed>25</speed><time>2016-10-08T13:03:27Z</time><course>1</course><type>18</type></trkpt>
      <trkpt lat="41.126165" lon="-3.6399184"><ele>2005</ele><speed>27</speed><time>2016-10-08T13:03:28Z</time><course>355</course><type>18</type></trkpt>
      <trkpt lat="41.1263216" lon="-3.6400034"><ele>2004</ele><speed>39</speed><time>2016-10-08T13:03:29Z</time><course>344</course><type>18</type></trkpt>
      <trkpt lat="41.1264583" lon="-3.6400534"><ele>2004</ele><speed>38</speed><time>2016-10-08T13:03:30Z</time><course>347</course><type>18</type></trkpt>
      <trkpt lat="41.1265766" lon="-3.6400934"><ele>2003</ele><speed>38</speed><time>2016-10-08T13:03:31Z</time><course>348</course><type>18</type></trkpt>
      <trkpt lat="41.12667" lon="-3.6401084"><ele>2003</ele><speed>35</speed><time>2016-10-08T13:03:32Z</time><course>353</course><type>18</type></trkpt>
      <trkpt lat="41.1267633" lon="-3.640115"><ele>2003</ele><speed>35</speed><time>2016-10-08T13:03:33Z</time><course>354</course><type>18</type></trkpt>
      <trkpt lat="41.1268849" lon="-3.6400217"><ele>2002</ele><speed>31</speed><time>2016-10-08T13:03:35Z</time><course>9</course><type>18</type></trkpt>
      <trkpt lat="41.126985" lon="-3.640015"><ele>2002</ele><speed>23</speed><time>2016-10-08T13:03:37Z</time><course>8</course><type>18</type></trkpt>
      <trkpt lat="41.12709" lon="-3.6400784"><ele>2002</ele><speed>16</speed><time>2016-10-08T13:03:39Z</time><course>352</course><type>18</type></trkpt>
      <trkpt lat="41.1271116" lon="-3.640175"><ele>2001</ele><speed>13</speed><time>2016-10-08T13:03:41Z</time><course>314</course><type>18</type></trkpt>
      <trkpt lat="41.1271683" lon="-3.64024"><ele>2001</ele><speed>14</speed><time>2016-10-08T13:03:42Z</time><course>306</course><type>18</type></trkpt>
      <trkpt lat="41.1272033" lon="-3.640385"><ele>2000</ele><speed>17</speed><time>2016-10-08T13:03:44Z</time><course>290</course><type>18</type></trkpt>
      <trkpt lat="41.1271999" lon="-3.6405717"><ele>1998</ele><speed>26</speed><time>2016-10-08T13:03:46Z</time><course>286</course><type>18</type></trkpt>
      <trkpt lat="41.1271816" lon="-3.6406784"><ele>1997</ele><speed>24</speed><time>2016-10-08T13:03:47Z</time><course>263</course><type>18</type></trkpt>
      <trkpt lat="41.1271666" lon="-3.6408451"><ele>1997</ele><speed>23</speed><time>2016-10-08T13:03:49Z</time><course>265</course><type>18</type></trkpt>
      <trkpt lat="41.1271566" lon="-3.6410867"><ele>1996</ele><speed>26</speed><time>2016-10-08T13:03:51Z</time><course>267</course><type>18</type></trkpt>
      <trkpt lat="41.12716" lon="-3.6412384"><ele>1995</ele><speed>20</speed><time>2016-10-08T13:03:53Z</time><course>258</course><type>18</type></trkpt>
      <trkpt lat="41.1270733" lon="-3.6412767"><ele>1995</ele><speed>20</speed><time>2016-10-08T13:03:54Z</time><course>234</course><type>18</type></trkpt>
      <trkpt lat="41.1270083" lon="-3.6413467"><ele>1995</ele><speed>24</speed><time>2016-10-08T13:03:55Z</time><course>231</course><type>18</type></trkpt>
      <trkpt lat="41.1269266" lon="-3.6414834"><ele>1994</ele><speed>25</speed><time>2016-10-08T13:03:57Z</time><course>234</course><type>18</type></trkpt>
      <trkpt lat="41.1268583" lon="-3.6415651"><ele>1993</ele><speed>25</speed><time>2016-10-08T13:03:58Z</time><course>228</course><type>18</type></trkpt>
      <trkpt lat="41.1267949" lon="-3.6416317"><ele>1992</ele><speed>26</speed><time>2016-10-08T13:03:59Z</time><course>220</course><type>18</type></trkpt>
      <trkpt lat="41.1267233" lon="-3.641685"><ele>1992</ele><speed>28</speed><time>2016-10-08T13:04:00Z</time><course>213</course><type>18</type></trkpt>
      <trkpt lat="41.1266533" lon="-3.64174"><ele>1991</ele><speed>30</speed><time>2016-10-08T13:04:01Z</time><course>210</course><type>18</type></trkpt>
      <trkpt lat="41.12658" lon="-3.6417917"><ele>1991</ele><speed>31</speed><time>2016-10-08T13:04:02Z</time><course>206</course><type>18</type></trkpt>
      <trkpt lat="41.12651" lon="-3.6418417"><ele>1991</ele><speed>31</speed><time>2016-10-08T13:04:03Z</time><course>207</course><type>18</type></trkpt>
      <trkpt lat="41.1264116" lon="-3.641885"><ele>1991</ele><speed>39</speed><time>2016-10-08T13:04:04Z</time><course>201</course><type>18</type></trkpt>
      <trkpt lat="41.12632" lon="-3.6419334"><ele>1991</ele><speed>37</speed><time>2016-10-08T13:04:05Z</time><course>203</course><type>18</type></trkpt>
      <trkpt lat="41.1262516" lon="-3.6420084"><ele>1991</ele><speed>31</speed><time>2016-10-08T13:04:06Z</time><course>218</course><type>18</type></trkpt>
      <trkpt lat="41.1261983" lon="-3.64203"><ele>1990</ele><speed>29</speed><time>2016-10-08T13:04:07Z</time><course>214</course><type>18</type></trkpt>
      <trkpt lat="41.12613" lon="-3.6419734"><ele>1989</ele><speed>26</speed><time>2016-10-08T13:04:08Z</time><course>186</course><type>18</type></trkpt>
      <trkpt lat="41.126055" lon="-3.6419667"><ele>1988</ele><speed>25</speed><time>2016-10-08T13:04:09Z</time><course>178</course><type>18</type></trkpt>
      <trkpt lat="41.1259783" lon="-3.64194"><ele>1989</ele><speed>26</speed><time>2016-10-08T13:04:10Z</time><course>157</course><type>18</type></trkpt>
      <trkpt lat="41.1259083" lon="-3.641885"><ele>1989</ele><speed>27</speed><time>2016-10-08T13:04:11Z</time><course>146</course><type>18</type></trkpt>
      <trkpt lat="41.1258483" lon="-3.6418134"><ele>1989</ele><speed>28</speed><time>2016-10-08T13:04:12Z</time><course>137</course><type>18</type></trkpt>
      <trkpt lat="41.1257616" lon="-3.6416717"><ele>1988</ele><speed>25</speed><time>2016-10-08T13:04:14Z</time><course>126</course><type>18</type></trkpt>
      <trkpt lat="41.1257416" lon="-3.6415684"><ele>1988</ele><speed>26</speed><time>2016-10-08T13:04:15Z</time><course>120</course><type>18</type></trkpt>
      <trkpt lat="41.1257483" lon="-3.6414117"><ele>1987</ele><speed>28</speed><time>2016-10-08T13:04:16Z</time><course>107</course><type>18</type></trkpt>
      <trkpt lat="41.1257816" lon="-3.6411534"><ele>1987</ele><speed>41</speed><time>2016-10-08T13:04:17Z</time><course>85</course><type>18</type></trkpt>
      <trkpt lat="41.12581" lon="-3.641005"><ele>1987</ele><speed>40</speed><time>2016-10-08T13:04:18Z</time><course>81</course><type>18</type></trkpt>
      <trkpt lat="41.1258316" lon="-3.6408451"><ele>1987</ele><speed>42</speed><time>2016-10-08T13:04:19Z</time><course>78</course><type>18</type></trkpt>
      <trkpt lat="41.1258566" lon="-3.6406467"><ele>1986</ele><speed>55</speed><time>2016-10-08T13:04:20Z</time><course>73</course><type>18</type></trkpt>
      <trkpt lat="41.1258866" lon="-3.6404684"><ele>1986</ele><speed>51</speed><time>2016-10-08T13:04:21Z</time><course>76</course><type>18</type></trkpt>
      <trkpt lat="41.1259133" lon="-3.64029"><ele>1986</ele><speed>51</speed><time>2016-10-08T13:04:22Z</time><course>76</course><type>18</type></trkpt>
      <trkpt lat="41.1259283" lon="-3.6400467"><ele>1986</ele><speed>52</speed><time>2016-10-08T13:04:23Z</time><course>77</course><type>18</type></trkpt>
      <trkpt lat="41.1259333" lon="-3.6397417"><ele>1986</ele><speed>55</speed><time>2016-10-08T13:04:24Z</time><course>78</course><type>18</type></trkpt>
      <trkpt lat="41.1259383" lon="-3.6395217"><ele>1986</ele><speed>53</speed><time>2016-10-08T13:04:25Z</time><course>80</course><type>18</type></trkpt>
      <trkpt lat="41.125965" lon="-3.639385"><ele>1986</ele><speed>50</speed><time>2016-10-08T13:04:26Z</time><course>79</course><type>18</type></trkpt>
      <trkpt lat="41.1260816" lon="-3.6393251"><ele>1986</ele><speed>36</speed><time>2016-10-08T13:04:28Z</time><course>73</course><type>18</type></trkpt>
      <trkpt lat="41.12618" lon="-3.6393517"><ele>1986</ele><speed>30</speed><time>2016-10-08T13:04:29Z</time><course>63</course><type>18</type></trkpt>
      <trkpt lat="41.1262916" lon="-3.63941"><ele>1985</ele><speed>18</speed><time>2016-10-08T13:04:31Z</time><course>44</course><type>18</type></trkpt>
      <trkpt lat="41.1263866" lon="-3.63951"><ele>1984</ele><speed>16</speed><time>2016-10-08T13:04:33Z</time><course>352</course><type>18</type></trkpt>
      <trkpt lat="41.12645" lon="-3.6396284"><ele>1983</ele><speed>16</speed><time>2016-10-08T13:04:35Z</time><course>323</course><type>18</type></trkpt>
      <trkpt lat="41.1264766" lon="-3.6397417"><ele>1982</ele><speed>14</speed><time>2016-10-08T13:04:37Z</time><course>336</course><type>18</type></trkpt>
      <trkpt lat="41.1264883" lon="-3.63985"><ele>1981</ele><speed>7</speed><time>2016-10-08T13:04:40Z</time><course>306</course><type>18</type></trkpt>
      <trkpt lat="41.1264116" lon="-3.639905"><ele>1981</ele><speed>14</speed><time>2016-10-08T13:04:45Z</time><course>191</course><type>18</type></trkpt>
      <trkpt lat="41.126265" lon="-3.6399067"><ele>1981</ele><speed>25</speed><time>2016-10-08T13:04:47Z</time><course>173</course><type>18</type></trkpt>
      <trkpt lat="41.1261683" lon="-3.63986"><ele>1980</ele><speed>30</speed><time>2016-10-08T13:04:48Z</time><course>164</course><type>18</type></trkpt>
      <trkpt lat="41.1260666" lon="-3.6398034"><ele>1980</ele><speed>32</speed><time>2016-10-08T13:04:49Z</time><course>159</course><type>18</type></trkpt>
      <trkpt lat="41.1259733" lon="-3.63974"><ele>1980</ele><speed>31</speed><time>2016-10-08T13:04:50Z</time><course>152</course><type>18</type></trkpt>
      <trkpt lat="41.1258416" lon="-3.63971"><ele>1980</ele><speed>33</speed><time>2016-10-08T13:04:51Z</time><course>148</course><type>18</type></trkpt>
      <trkpt lat="41.1256083" lon="-3.6397584"><ele>1981</ele><speed>38</speed><time>2016-10-08T13:04:52Z</time><course>152</course><type>18</type></trkpt>
      <trkpt lat="41.1254883" lon="-3.6397134"><ele>1981</ele><speed>40</speed><time>2016-10-08T13:04:53Z</time><course>151</course><type>18</type></trkpt>
      <trkpt lat="41.1254383" lon="-3.6396034"><ele>1981</ele><speed>38</speed><time>2016-10-08T13:04:54Z</time><course>144</course><type>18</type></trkpt>
      <trkpt lat="41.1254033" lon="-3.639485"><ele>1981</ele><speed>36</speed><time>2016-10-08T13:04:55Z</time><course>136</course><type>18</type></trkpt>
      <trkpt lat="41.1254583" lon="-3.6393251"><ele>1980</ele><speed>28</speed><time>2016-10-08T13:04:56Z</time><course>112</course><type>18</type></trkpt>
      <trkpt lat="41.1254583" lon="-3.6391784"><ele>1980</ele><speed>27</speed><time>2016-10-08T13:04:57Z</time><course>107</course><type>18</type></trkpt>
      <trkpt lat="41.1254433" lon="-3.638935"><ele>1980</ele><speed>28</speed><time>2016-10-08T13:04:58Z</time><course>92</course><type>18</type></trkpt>
      <trkpt lat="41.1254666" lon="-3.6387784"><ele>1980</ele><speed>26</speed><time>2016-10-08T13:04:59Z</time><course>72</course><type>18</type></trkpt>
      <trkpt lat="41.1255233" lon="-3.6386817"><ele>1979</ele><speed>24</speed><time>2016-10-08T13:05:00Z</time><course>51</course><type>18</type></trkpt>
      <trkpt lat="41.1256233" lon="-3.638525"><ele>1979</ele><speed>26</speed><time>2016-10-08T13:05:02Z</time><course>41</course><type>18</type></trkpt>
      <trkpt lat="41.1257066" lon="-3.6384667"><ele>1979</ele><speed>29</speed><time>2016-10-08T13:05:03Z</time><course>31</course><type>18</type></trkpt>
      <trkpt lat="41.125805" lon="-3.6384"><ele>1978</ele><speed>31</speed><time>2016-10-08T13:05:04Z</time><course>26</course><type>18</type></trkpt>
      <trkpt lat="41.1259016" lon="-3.63834"><ele>1978</ele><speed>31</speed><time>2016-10-08T13:05:05Z</time><course>26</course><type>18</type></trkpt>
      <trkpt lat="41.12599" lon="-3.6382901"><ele>1978</ele><speed>32</speed><time>2016-10-08T13:05:06Z</time><course>23</course><type>18</type></trkpt>
      <trkpt lat="41.1260833" lon="-3.6382484"><ele>1978</ele><speed>32</speed><time>2016-10-08T13:05:07Z</time><course>20</course><type>18</type></trkpt>
      <trkpt lat="41.1261766" lon="-3.6382117"><ele>1977</ele><speed>32</speed><time>2016-10-08T13:05:08Z</time><course>18</course><type>18</type></trkpt>
      <trkpt lat="41.1262666" lon="-3.6381767"><ele>1977</ele><speed>32</speed><time>2016-10-08T13:05:09Z</time><course>14</course><type>18</type></trkpt>
      <trkpt lat="41.1263633" lon="-3.6381617"><ele>1977</ele><speed>35</speed><time>2016-10-08T13:05:10Z</time><course>4</course><type>18</type></trkpt>
      <trkpt lat="41.1264783" lon="-3.6381717"><ele>1977</ele><speed>40</speed><time>2016-10-08T13:05:11Z</time><course>357</course><type>18</type></trkpt>
      <trkpt lat="41.126595" lon="-3.6381667"><ele>1977</ele><speed>42</speed><time>2016-10-08T13:05:12Z</time><course>1</course><type>18</type></trkpt>
      <trkpt lat="41.1267033" lon="-3.6381667"><ele>1976</ele><speed>42</speed><time>2016-10-08T13:05:13Z</time><course>359</course><type>18</type></trkpt>
      <trkpt lat="41.1268099" lon="-3.6381667"><ele>1976</ele><speed>41</speed><time>2016-10-08T13:05:14Z</time><course>0</course><type>18</type></trkpt>
      <trkpt lat="41.1269166" lon="-3.6381484"><ele>1976</ele><speed>40</speed><time>2016-10-08T13:05:15Z</time><course>1</course><type>18</type></trkpt>
      <trkpt lat="41.1270066" lon="-3.6381084"><ele>1976</ele><speed>37</speed><time>2016-10-08T13:05:16Z</time><course>5</course><type>18</type></trkpt>
      <trkpt lat="41.1270366" lon="-3.6379967"><ele>1975</ele><speed>30</speed><time>2016-10-08T13:05:17Z</time><course>22</course><type>18</type></trkpt>
      <trkpt lat="41.1271116" lon="-3.63795"><ele>1975</ele><speed>30</speed><time>2016-10-08T13:05:18Z</time><course>20</course><type>18</type></trkpt>
      <trkpt lat="41.1271916" lon="-3.6379067"><ele>1974</ele><speed>31</speed><time>2016-10-08T13:05:19Z</time><course>16</course><type>18</type></trkpt>
      <trkpt lat="41.1272733" lon="-3.6378684"><ele>1974</ele><speed>33</speed><time>2016-10-08T13:05:20Z</time><course>13</course><type>18</type></trkpt>
      <trkpt lat="41.1273516" lon="-3.637815"><ele>1973</ele><speed>36</speed><time>2016-10-08T13:05:21Z</time><course>15</course><type>18</type></trkpt>
      <trkpt lat="41.12743" lon="-3.6377584"><ele>1973</ele><speed>37</speed><time>2016-10-08T13:05:22Z</time><course>17</course><type>18</type></trkpt>
      <trkpt lat="41.1274966" lon="-3.6377"><ele>1972</ele><speed>34</speed><time>2016-10-08T13:05:23Z</time><course>20</course><type>18</type></trkpt>
      <trkpt lat="41.1275683" lon="-3.637645"><ele>1972</ele><speed>34</speed><time>2016-10-08T13:05:24Z</time><course>22</course><type>18</type></trkpt>
      <trkpt lat="41.1276366" lon="-3.6375834"><ele>1971</ele><speed>35</speed><time>2016-10-08T13:05:25Z</time><course>22</course><type>18</type></trkpt>
      <trkpt lat="41.1277083" lon="-3.6375267"><ele>1971</ele><speed>36</speed><time>2016-10-08T13:05:26Z</time><course>21</course><type>18</type></trkpt>
      <trkpt lat="41.1277966" lon="-3.637475"><ele>1971</ele><speed>38</speed><time>2016-10-08T13:05:27Z</time><course>21</course><type>18</type></trkpt>
      <trkpt lat="41.1279133" lon="-3.6374517"><ele>1970</ele><speed>44</speed><time>2016-10-08T13:05:28Z</time><course>7</course><type>18</type></trkpt>
      <trkpt lat="41.12802" lon="-3.6374267"><ele>1970</ele><speed>43</speed><time>2016-10-08T13:05:29Z</time><course>9</course><type>18</type></trkpt>
      <trkpt lat="41.1281183" lon="-3.63739"><ele>1969</ele><speed>42</speed><time>2016-10-08T13:05:30Z</time><course>10</course><type>18</type></trkpt>
      <trkpt lat="41.1281816" lon="-3.6373101"><ele>1969</ele><speed>40</speed><time>2016-10-08T13:05:31Z</time><course>16</course><type>18</type></trkpt>
      <trkpt lat="41.1282283" lon="-3.6372067"><ele>1969</ele><speed>37</speed><time>2016-10-08T13:05:32Z</time><course>26</course><type>18</type></trkpt>
      <trkpt lat="41.1283316" lon="-3.6370884"><ele>1968</ele><speed>29</speed><time>2016-10-08T13:05:34Z</time><course>31</course><type>18</type></trkpt>
      <trkpt lat="41.128425" lon="-3.6370134"><ele>1967</ele><speed>29</speed><time>2016-10-08T13:05:36Z</time><course>21</course><type>18</type></trkpt>
      <trkpt lat="41.1285533" lon="-3.6369501"><ele>1965</ele><speed>32</speed><time>2016-10-08T13:05:38Z</time><course>14</course><type>18</type></trkpt>
      <trkpt lat="41.128635" lon="-3.636935"><ele>1965</ele><speed>34</speed><time>2016-10-08T13:05:39Z</time><course>9</course><type>18</type></trkpt>
      <trkpt lat="41.1287666" lon="-3.6369067"><ele>1964</ele><speed>33</speed><time>2016-10-08T13:05:41Z</time><course>5</course><type>18</type></trkpt>
      <trkpt lat="41.1288966" lon="-3.6368817"><ele>1962</ele><speed>34</speed><time>2016-10-08T13:05:43Z</time><course>4</course><type>18</type></trkpt>
      <trkpt lat="41.128995" lon="-3.6369"><ele>1961</ele><speed>42</speed><time>2016-10-08T13:05:44Z</time><course>350</course><type>18</type></trkpt>
      <trkpt lat="41.1290833" lon="-3.6369234"><ele>1960</ele><speed>43</speed><time>2016-10-08T13:05:45Z</time><course>348</course><type>18</type></trkpt>
      <trkpt lat="41.1291933" lon="-3.6369417"><ele>1960</ele><speed>44</speed><time>2016-10-08T13:05:46Z</time><course>351</course><type>18</type></trkpt>
      <trkpt lat="41.1293216" lon="-3.6369567"><ele>1958</ele><speed>25</speed><time>2016-10-08T13:05:48Z</time><course>1</course><type>18</type></trkpt>
      <trkpt lat="41.1294" lon="-3.6369217"><ele>1958</ele><speed>27</speed><time>2016-10-08T13:05:49Z</time><course>13</course><type>18</type></trkpt>
      <trkpt lat="41.129485" lon="-3.6368867"><ele>1957</ele><speed>30</speed><time>2016-10-08T13:05:50Z</time><course>17</course><type>18</type></trkpt>
      <trkpt lat="41.1295616" lon="-3.6368517"><ele>1957</ele><speed>32</speed><time>2016-10-08T13:05:51Z</time><course>14</course><type>18</type></trkpt>
      <trkpt lat="41.1296899" lon="-3.6368151"><ele>1955</ele><speed>30</speed><time>2016-10-08T13:05:53Z</time><course>8</course><type>18</type></trkpt>
      <trkpt lat="41.1297766" lon="-3.636775"><ele>1954</ele><speed>23</speed><time>2016-10-08T13:05:55Z</time><course>8</course><type>18</type></trkpt>
      <trkpt lat="41.1298699" lon="-3.63678"><ele>1953</ele><speed>20</speed><time>2016-10-08T13:05:57Z</time><course>351</course><type>18</type></trkpt>
      <trkpt lat="41.1299233" lon="-3.6368"><ele>1953</ele><speed>22</speed><time>2016-10-08T13:05:58Z</time><course>345</course><type>18</type></trkpt>
      <trkpt lat="41.1299816" lon="-3.6368217"><ele>1952</ele><speed>24</speed><time>2016-10-08T13:05:59Z</time><course>342</course><type>18</type></trkpt>
      <trkpt lat="41.1300883" lon="-3.6368734"><ele>1950</ele><speed>28</speed><time>2016-10-08T13:06:01Z</time><course>336</course><type>18</type></trkpt>
      <trkpt lat="41.1301483" lon="-3.6369084"><ele>1949</ele><speed>30</speed><time>2016-10-08T13:06:02Z</time><course>336</course><type>18</type></trkpt>
      <trkpt lat="41.130205" lon="-3.6369584"><ele>1949</ele><speed>28</speed><time>2016-10-08T13:06:03Z</time><course>331</course><type>18</type></trkpt>
      <trkpt lat="41.130255" lon="-3.6369934"><ele>1948</ele><speed>26</speed><time>2016-10-08T13:06:04Z</time><course>331</course><type>18</type></trkpt>
      <trkpt lat="41.1303333" lon="-3.6370267"><ele>1948</ele><speed>20</speed><time>2016-10-08T13:06:06Z</time><course>335</course><type>18</type></trkpt>
      <trkpt lat="41.13045" lon="-3.6370884"><ele>1945</ele><speed>21</speed><time>2016-10-08T13:06:10Z</time><course>334</course><type>18</type></trkpt>
      <trkpt lat="41.13054" lon="-3.6371751"><ele>1943</ele><speed>22</speed><time>2016-10-08T13:06:12Z</time><course>325</course><type>18</type></trkpt>
      <trkpt lat="41.1305933" lon="-3.6372167"><ele>1943</ele><speed>22</speed><time>2016-10-08T13:06:13Z</time><course>327</course><type>18</type></trkpt>
      <trkpt lat="41.1306516" lon="-3.6372717"><ele>1942</ele><speed>24</speed><time>2016-10-08T13:06:14Z</time><course>334</course><type>18</type></trkpt>
      <trkpt lat="41.1307249" lon="-3.6373017"><ele>1941</ele><speed>26</speed><time>2016-10-08T13:06:15Z</time><course>339</course><type>18</type></trkpt>
      <trkpt lat="41.1308" lon="-3.637325"><ele>1940</ele><speed>29</speed><time>2016-10-08T13:06:16Z</time><course>345</course><type>18</type></trkpt>
      <trkpt lat="41.130885" lon="-3.6373417"><ele>1940</ele><speed>32</speed><time>2016-10-08T13:06:17Z</time><course>350</course><type>18</type></trkpt>
      <trkpt lat="41.13097" lon="-3.6373634"><ele>1939</ele><speed>33</speed><time>2016-10-08T13:06:18Z</time><course>347</course><type>18</type></trkpt>
      <trkpt lat="41.13106" lon="-3.6373834"><ele>1938</ele><speed>34</speed><time>2016-10-08T13:06:19Z</time><course>348</course><type>18</type></trkpt>
      <trkpt lat="41.1311533" lon="-3.6373967"><ele>1938</ele><speed>34</speed><time>2016-10-08T13:06:20Z</time><course>351</course><type>18</type></trkpt>
      <trkpt lat="41.1312383" lon="-3.637425"><ele>1937</ele><speed>34</speed><time>2016-10-08T13:06:21Z</time><course>348</course><type>18</type></trkpt>
      <trkpt lat="41.131315" lon="-3.637475"><ele>1936</ele><speed>32</speed><time>2016-10-08T13:06:22Z</time><course>338</course><type>18</type></trkpt>
      <trkpt lat="41.1313983" lon="-3.6375134"><ele>1936</ele><speed>33</speed><time>2016-10-08T13:06:23Z</time><course>339</course><type>18</type></trkpt>
      <trkpt lat="41.1314883" lon="-3.637525"><ele>1935</ele><speed>34</speed><time>2016-10-08T13:06:24Z</time><course>346</course><type>18</type></trkpt>
      <trkpt lat="41.1315716" lon="-3.63752"><ele>1934</ele><speed>33</speed><time>2016-10-08T13:06:25Z</time><course>355</course><type>18</type></trkpt>
      <trkpt lat="41.1316583" lon="-3.6375134"><ele>1933</ele><speed>32</speed><time>2016-10-08T13:06:26Z</time><course>359</course><type>18</type></trkpt>
      <trkpt lat="41.1317466" lon="-3.6375034"><ele>1933</ele><speed>32</speed><time>2016-10-08T13:06:27Z</time><course>2</course><type>18</type></trkpt>
      <trkpt lat="41.131845" lon="-3.6374884"><ele>1932</ele><speed>33</speed><time>2016-10-08T13:06:28Z</time><course>5</course><type>18</type></trkpt>
      <trkpt lat="41.1319483" lon="-3.6374567"><ele>1931</ele><speed>36</speed><time>2016-10-08T13:06:29Z</time><course>10</course><type>18</type></trkpt>
      <trkpt lat="41.132055" lon="-3.63741"><ele>1931</ele><speed>38</speed><time>2016-10-08T13:06:30Z</time><course>13</course><type>18</type></trkpt>
      <trkpt lat="41.13215" lon="-3.63734"><ele>1930</ele><speed>38</speed><time>2016-10-08T13:06:31Z</time><course>18</course><type>18</type></trkpt>
      <trkpt lat="41.132245" lon="-3.6372734"><ele>1929</ele><speed>36</speed><time>2016-10-08T13:06:32Z</time><course>22</course><type>18</type></trkpt>
      <trkpt lat="41.132335" lon="-3.6371784"><ele>1928</ele><speed>37</speed><time>2016-10-08T13:06:33Z</time><course>25</course><type>18</type></trkpt>
      <trkpt lat="41.13243" lon="-3.6370984"><ele>1927</ele><speed>40</speed><time>2016-10-08T13:06:34Z</time><course>27</course><type>18</type></trkpt>
      <trkpt lat="41.1325233" lon="-3.63703"><ele>1926</ele><speed>39</speed><time>2016-10-08T13:06:35Z</time><course>28</course><type>18</type></trkpt>
      <trkpt lat="41.1326516" lon="-3.636935"><ele>1925</ele><speed>50</speed><time>2016-10-08T13:06:36Z</time><course>30</course><type>18</type></trkpt>
      <trkpt lat="41.1327716" lon="-3.6368601"><ele>1925</ele><speed>50</speed><time>2016-10-08T13:06:37Z</time><course>28</course><type>18</type></trkpt>
      <trkpt lat="41.1328783" lon="-3.6367834"><ele>1924</ele><speed>49</speed><time>2016-10-08T13:06:38Z</time><course>27</course><type>18</type></trkpt>
      <trkpt lat="41.13297" lon="-3.636715"><ele>1924</ele><speed>46</speed><time>2016-10-08T13:06:39Z</time><course>26</course><type>18</type></trkpt>
      <trkpt lat="41.1330666" lon="-3.6365434"><ele>1924</ele><speed>46</speed><time>2016-10-08T13:06:40Z</time><course>28</course><type>18</type></trkpt>
      <trkpt lat="41.1332266" lon="-3.6365417"><ele>1923</ele><speed>38</speed><time>2016-10-08T13:06:42Z</time><course>20</course><type>18</type></trkpt>
      <trkpt lat="41.13334" lon="-3.6365017"><ele>1923</ele><speed>41</speed><time>2016-10-08T13:06:43Z</time><course>20</course><type>18</type></trkpt>
      <trkpt lat="41.1334483" lon="-3.6364434"><ele>1922</ele><speed>43</speed><time>2016-10-08T13:06:44Z</time><course>22</course><type>18</type></trkpt>
      <trkpt lat="41.1335533" lon="-3.6363651"><ele>1922</ele><speed>46</speed><time>2016-10-08T13:06:45Z</time><course>24</course><type>18</type></trkpt>
      <trkpt lat="41.133665" lon="-3.6362817"><ele>1921</ele><speed>48</speed><time>2016-10-08T13:06:46Z</time><course>26</course><type>18</type></trkpt>
      <trkpt lat="41.133795" lon="-3.63624"><ele>1921</ele><speed>50</speed><time>2016-10-08T13:06:47Z</time><course>26</course><type>18</type></trkpt>
      <trkpt lat="41.1339183" lon="-3.6361667"><ele>1920</ele><speed>50</speed><time>2016-10-08T13:06:48Z</time><course>27</course><type>18</type></trkpt>
      <trkpt lat="41.1340383" lon="-3.6360967"><ele>1920</ele><speed>51</speed><time>2016-10-08T13:06:49Z</time><course>26</course><type>18</type></trkpt>
      <trkpt lat="41.1341483" lon="-3.6360067"><ele>1919</ele><speed>50</speed><time>2016-10-08T13:06:50Z</time><course>27</course><type>18</type></trkpt>
      <trkpt lat="41.1342516" lon="-3.6359134"><ele>1918</ele><speed>49</speed><time>2016-10-08T13:06:51Z</time><course>28</course><type>18</type></trkpt>
      <trkpt lat="41.13436" lon="-3.635785"><ele>1918</ele><speed>60</speed><time>2016-10-08T13:06:52Z</time><course>33</course><type>18</type></trkpt>
      <trkpt lat="41.134475" lon="-3.6356817"><ele>1917</ele><speed>56</speed><time>2016-10-08T13:06:53Z</time><course>33</course><type>18</type></trkpt>
      <trkpt lat="41.1345866" lon="-3.6355517"><ele>1917</ele><speed>55</speed><time>2016-10-08T13:06:54Z</time><course>33</course><type>18</type></trkpt>
      <trkpt lat="41.1346983" lon="-3.635455"><ele>1916</ele><speed>53</speed><time>2016-10-08T13:06:55Z</time><course>32</course><type>18</type></trkpt>
      <trkpt lat="41.13479" lon="-3.6354117"><ele>1916</ele><speed>47</speed><time>2016-10-08T13:06:56Z</time><course>32</course><type>18</type></trkpt>
      <trkpt lat="41.1349133" lon="-3.6353334"><ele>1915</ele><speed>37</speed><time>2016-10-08T13:06:58Z</time><course>31</course><type>18</type></trkpt>
      <trkpt lat="41.1350066" lon="-3.635265"><ele>1915</ele><speed>41</speed><time>2016-10-08T13:06:59Z</time><course>31</course><type>18</type></trkpt>
      <trkpt lat="41.13518" lon="-3.6351334"><ele>1914</ele><speed>43</speed><time>2016-10-08T13:07:01Z</time><course>27</course><type>18</type></trkpt>
      <trkpt lat="41.1352816" lon="-3.63504"><ele>1913</ele><speed>44</speed><time>2016-10-08T13:07:02Z</time><course>27</course><type>18</type></trkpt>
      <trkpt lat="41.13539" lon="-3.6349434"><ele>1912</ele><speed>46</speed><time>2016-10-08T13:07:03Z</time><course>29</course><type>18</type></trkpt>
      <trkpt lat="41.135485" lon="-3.63484"><ele>1912</ele><speed>46</speed><time>2016-10-08T13:07:04Z</time><course>31</course><type>18</type></trkpt>
      <trkpt lat="41.135575" lon="-3.6347334"><ele>1911</ele><speed>47</speed><time>2016-10-08T13:07:05Z</time><course>33</course><type>18</type></trkpt>
      <trkpt lat="41.1356666" lon="-3.6346317"><ele>1910</ele><speed>48</speed><time>2016-10-08T13:07:06Z</time><course>34</course><type>18</type></trkpt>
      <trkpt lat="41.1357633" lon="-3.6344734"><ele>1910</ele><speed>48</speed><time>2016-10-08T13:07:07Z</time><course>32</course><type>18</type></trkpt>
      <trkpt lat="41.135855" lon="-3.6343584"><ele>1910</ele><speed>50</speed><time>2016-10-08T13:07:08Z</time><course>32</course><type>18</type></trkpt>
      <trkpt lat="41.1359783" lon="-3.6342467"><ele>1909</ele><speed>61</speed><time>2016-10-08T13:07:09Z</time><course>32</course><type>18</type></trkpt>
      <trkpt lat="41.13609" lon="-3.6341434"><ele>1909</ele><speed>55</speed><time>2016-10-08T13:07:10Z</time><course>33</course><type>18</type></trkpt>
      <trkpt lat="41.1362" lon="-3.6340534"><ele>1908</ele><speed>53</speed><time>2016-10-08T13:07:11Z</time><course>31</course><type>18</type></trkpt>
      <trkpt lat="41.13629" lon="-3.6339684"><ele>1908</ele><speed>50</speed><time>2016-10-08T13:07:12Z</time><course>30</course><type>18</type></trkpt>
      <trkpt lat="41.1363649" lon="-3.6338934"><ele>1908</ele><speed>46</speed><time>2016-10-08T13:07:13Z</time><course>30</course><type>18</type></trkpt>
      <trkpt lat="41.1365233" lon="-3.6338384"><ele>1907</ele><speed>40</speed><time>2016-10-08T13:07:15Z</time><course>24</course><type>18</type></trkpt>
      <trkpt lat="41.1366283" lon="-3.63377"><ele>1907</ele><speed>42</speed><time>2016-10-08T13:07:16Z</time><course>26</course><type>18</type></trkpt>
      <trkpt lat="41.1365833" lon="-3.6336434"><ele>1904</ele><speed>39</speed><time>2016-10-08T13:07:17Z</time><course>31</course><type>18</type></trkpt>
      <trkpt lat="41.1366283" lon="-3.633445"><ele>1900</ele><speed>41</speed><time>2016-10-08T13:07:19Z</time><course>32</course><type>18</type></trkpt>
      <trkpt lat="41.1367349" lon="-3.6333734"><ele>1899</ele><speed>44</speed><time>2016-10-08T13:07:20Z</time><course>33</course><type>18</type></trkpt>
      <trkpt lat="41.136865" lon="-3.6333117"><ele>1898</ele><speed>50</speed><time>2016-10-08T13:07:21Z</time><course>30</course><type>18</type></trkpt>
      <trkpt lat="41.1369883" lon="-3.6332317"><ele>1897</ele><speed>51</speed><time>2016-10-08T13:07:22Z</time><course>31</course><type>18</type></trkpt>
      <trkpt lat="41.1370266" lon="-3.63311"><ele>1895</ele><speed>47</speed><time>2016-10-08T13:07:23Z</time><course>35</course><type>18</type></trkpt>
      <trkpt lat="41.1371316" lon="-3.633025"><ele>1895</ele><speed>46</speed><time>2016-10-08T13:07:24Z</time><course>35</course><type>18</type></trkpt>
      <trkpt lat="41.137235" lon="-3.6329334"><ele>1894</ele><speed>49</speed><time>2016-10-08T13:07:25Z</time><course>36</course><type>18</type></trkpt>
      <trkpt lat="41.1373533" lon="-3.632835"><ele>1893</ele><speed>57</speed><time>2016-10-08T13:07:26Z</time><course>36</course><type>18</type></trkpt>
      <trkpt lat="41.1374733" lon="-3.6327334"><ele>1892</ele><speed>55</speed><time>2016-10-08T13:07:27Z</time><course>35</course><type>18</type></trkpt>
      <trkpt lat="41.1375233" lon="-3.6326084"><ele>1891</ele><speed>50</speed><time>2016-10-08T13:07:28Z</time><course>37</course><type>18</type></trkpt>
      <trkpt lat="41.1375733" lon="-3.632505"><ele>1890</ele><speed>46</speed><time>2016-10-08T13:07:29Z</time><course>37</course><type>18</type></trkpt>
      <trkpt lat="41.137675" lon="-3.6324517"><ele>1889</ele><speed>28</speed><time>2016-10-08T13:07:31Z</time><course>35</course><type>18</type></trkpt>
      <trkpt lat="41.1378383" lon="-3.6323634"><ele>1888</ele><speed>34</speed><time>2016-10-08T13:07:33Z</time><course>31</course><type>18</type></trkpt>
      <trkpt lat="41.1379533" lon="-3.6323134"><ele>1887</ele><speed>39</speed><time>2016-10-08T13:07:34Z</time><course>29</course><type>18</type></trkpt>
      <trkpt lat="41.1380433" lon="-3.6322267"><ele>1887</ele><speed>42</speed><time>2016-10-08T13:07:35Z</time><course>32</course><type>18</type></trkpt>
      <trkpt lat="41.13817" lon="-3.6321234"><ele>1886</ele><speed>44</speed><time>2016-10-08T13:07:36Z</time><course>33</course><type>18</type></trkpt>
      <trkpt lat="41.13831" lon="-3.632025"><ele>1885</ele><speed>46</speed><time>2016-10-08T13:07:37Z</time><course>31</course><type>18</type></trkpt>
      <trkpt lat="41.1384416" lon="-3.6319384"><ele>1884</ele><speed>48</speed><time>2016-10-08T13:07:38Z</time><course>29</course><type>18</type></trkpt>
      <trkpt lat="41.138575" lon="-3.6318634"><ele>1883</ele><speed>51</speed><time>2016-10-08T13:07:39Z</time><course>27</course><type>18</type></trkpt>
      <trkpt lat="41.13871" lon="-3.631785"><ele>1882</ele><speed>54</speed><time>2016-10-08T13:07:40Z</time><course>26</course><type>18</type></trkpt>
      <trkpt lat="41.1388566" lon="-3.63173"><ele>1881</ele><speed>55</speed><time>2016-10-08T13:07:41Z</time><course>25</course><type>18</type></trkpt>
      <trkpt lat="41.1390066" lon="-3.631645"><ele>1880</ele><speed>63</speed><time>2016-10-08T13:07:42Z</time><course>27</course><type>18</type></trkpt>
      <trkpt lat="41.1391616" lon="-3.6315367"><ele>1879</ele><speed>72</speed><time>2016-10-08T13:07:43Z</time><course>32</course><type>18</type></trkpt>
      <trkpt lat="41.1393483" lon="-3.6314817"><ele>1879</ele><speed>64</speed><time>2016-10-08T13:07:44Z</time><course>26</course><type>18</type></trkpt>
      <trkpt lat="41.1395066" lon="-3.6314234"><ele>1878</ele><speed>63</speed><time>2016-10-08T13:07:45Z</time><course>26</course><type>18</type></trkpt>
      <trkpt lat="41.139645" lon="-3.6313784"><ele>1877</ele><speed>60</speed><time>2016-10-08T13:07:46Z</time><course>25</course><type>18</type></trkpt>
      <trkpt lat="41.1397299" lon="-3.6313334"><ele>1877</ele><speed>50</speed><time>2016-10-08T13:07:47Z</time><course>24</course><type>18</type></trkpt>
      <trkpt lat="41.13984" lon="-3.6312817"><ele>1876</ele><speed>52</speed><time>2016-10-08T13:07:48Z</time><course>28</course><type>18</type></trkpt>
      <trkpt lat="41.1399583" lon="-3.6312267"><ele>1875</ele><speed>53</speed><time>2016-10-08T13:07:49Z</time><course>31</course><type>18</type></trkpt>
      <trkpt lat="41.1400449" lon="-3.631155"><ele>1874</ele><speed>51</speed><time>2016-10-08T13:07:50Z</time><course>33</course><type>18</type></trkpt>
      <trkpt lat="41.1401566" lon="-3.6310867"><ele>1874</ele><speed>51</speed><time>2016-10-08T13:07:51Z</time><course>32</course><type>18</type></trkpt>
      <trkpt lat="41.1401233" lon="-3.6309367"><ele>1871</ele><speed>48</speed><time>2016-10-08T13:07:52Z</time><course>34</course><type>18</type></trkpt>
      <trkpt lat="41.1400083" lon="-3.6307484"><ele>1867</ele><speed>46</speed><time>2016-10-08T13:07:53Z</time><course>35</course><type>18</type></trkpt>
      <trkpt lat="41.13998" lon="-3.6306067"><ele>1865</ele><speed>46</speed><time>2016-10-08T13:07:54Z</time><course>36</course><type>18</type></trkpt>
      <trkpt lat="41.1400116" lon="-3.6304934"><ele>1862</ele><speed>51</speed><time>2016-10-08T13:07:55Z</time><course>33</course><type>18</type></trkpt>
      <trkpt lat="41.1400449" lon="-3.630375"><ele>1860</ele><speed>50</speed><time>2016-10-08T13:07:56Z</time><course>32</course><type>18</type></trkpt>
      <trkpt lat="41.1400833" lon="-3.6302484"><ele>1858</ele><speed>50</speed><time>2016-10-08T13:07:57Z</time><course>33</course><type>18</type></trkpt>
      <trkpt lat="41.1402016" lon="-3.630175"><ele>1857</ele><speed>47</speed><time>2016-10-08T13:07:58Z</time><course>32</course><type>18</type></trkpt>
      <trkpt lat="41.1402666" lon="-3.63007"><ele>1855</ele><speed>53</speed><time>2016-10-08T13:07:59Z</time><course>31</course><type>18</type></trkpt>
      <trkpt lat="41.1404049" lon="-3.6299767"><ele>1853</ele><speed>60</speed><time>2016-10-08T13:08:00Z</time><course>33</course><type>18</type></trkpt>
      <trkpt lat="41.140525" lon="-3.629875"><ele>1852</ele><speed>53</speed><time>2016-10-08T13:08:01Z</time><course>33</course><type>18</type></trkpt>
      <trkpt lat="41.1406466" lon="-3.6297867"><ele>1852</ele><speed>52</speed><time>2016-10-08T13:08:02Z</time><course>33</course><type>18</type></trkpt>
      <trkpt lat="41.1407666" lon="-3.6297084"><ele>1851</ele><speed>51</speed><time>2016-10-08T13:08:03Z</time><course>32</course><type>18</type></trkpt>
      <trkpt lat="41.1408633" lon="-3.6296767"><ele>1849</ele><speed>41</speed><time>2016-10-08T13:08:04Z</time><course>28</course><type>18</type></trkpt>
      <trkpt lat="41.14096" lon="-3.6296134"><ele>1848</ele><speed>41</speed><time>2016-10-08T13:08:05Z</time><course>32</course><type>18</type></trkpt>
      <trkpt lat="41.1410416" lon="-3.6295417"><ele>1847</ele><speed>43</speed><time>2016-10-08T13:08:06Z</time><course>35</course><type>18</type></trkpt>
      <trkpt lat="41.141115" lon="-3.62946"><ele>1846</ele><speed>43</speed><time>2016-10-08T13:08:07Z</time><course>38</course><type>18</type></trkpt>
      <trkpt lat="41.141205" lon="-3.62926"><ele>1842</ele><speed>50</speed><time>2016-10-08T13:08:09Z</time><course>31</course><type>18</type></trkpt>
      <trkpt lat="41.1412583" lon="-3.6291567"><ele>1840</ele><speed>54</speed><time>2016-10-08T13:08:10Z</time><course>29</course><type>18</type></trkpt>
      <trkpt lat="41.14137" lon="-3.62908"><ele>1840</ele><speed>53</speed><time>2016-10-08T13:08:11Z</time><course>28</course><type>18</type></trkpt>
      <trkpt lat="41.1413916" lon="-3.6289484"><ele>1837</ele><speed>47</speed><time>2016-10-08T13:08:12Z</time><course>32</course><type>18</type></trkpt>
      <trkpt lat="41.1414883" lon="-3.6288684"><ele>1836</ele><speed>44</speed><time>2016-10-08T13:08:13Z</time><course>33</course><type>18</type></trkpt>
      <trkpt lat="41.1415916" lon="-3.628785"><ele>1835</ele><speed>43</speed><time>2016-10-08T13:08:14Z</time><course>35</course><type>18</type></trkpt>
      <trkpt lat="41.1416833" lon="-3.6287184"><ele>1834</ele><speed>41</speed><time>2016-10-08T13:08:15Z</time><course>35</course><type>18</type></trkpt>
      <trkpt lat="41.1417966" lon="-3.62865"><ele>1834</ele><speed>50</speed><time>2016-10-08T13:08:16Z</time><course>33</course><type>18</type></trkpt>
      <trkpt lat="41.1419483" lon="-3.6285717"><ele>1833</ele><speed>56</speed><time>2016-10-08T13:08:17Z</time><course>33</course><type>18</type></trkpt>
      <trkpt lat="41.14208" lon="-3.628495"><ele>1832</ele><speed>55</speed><time>2016-10-08T13:08:18Z</time><course>31</course><type>18</type></trkpt>
      <trkpt lat="41.1422083" lon="-3.6284117"><ele>1831</ele><speed>55</speed><time>2016-10-08T13:08:19Z</time><course>29</course><type>18</type></trkpt>
      <trkpt lat="41.1423299" lon="-3.62841"><ele>1831</ele><speed>53</speed><time>2016-10-08T13:08:20Z</time><course>27</course><type>18</type></trkpt>
      <trkpt lat="41.14243" lon="-3.6283567"><ele>1830</ele><speed>51</speed><time>2016-10-08T13:08:21Z</time><course>28</course><type>18</type></trkpt>
      <trkpt lat="41.1425249" lon="-3.6283034"><ele>1830</ele><speed>49</speed><time>2016-10-08T13:08:22Z</time><course>28</course><type>18</type></trkpt>
      <trkpt lat="41.1426149" lon="-3.6281784"><ele>1828</ele><speed>38</speed><time>2016-10-08T13:08:24Z</time><course>30</course><type>18</type></trkpt>
      <trkpt lat="41.1425583" lon="-3.628045"><ele>1827</ele><speed>36</speed><time>2016-10-08T13:08:25Z</time><course>35</course><type>18</type></trkpt>
      <trkpt lat="41.1425166" lon="-3.6279284"><ele>1825</ele><speed>34</speed><time>2016-10-08T13:08:26Z</time><course>37</course><type>18</type></trkpt>
      <trkpt lat="41.1424033" lon="-3.6276734"><ele>1822</ele><speed>29</speed><time>2016-10-08T13:08:28Z</time><course>39</course><type>18</type></trkpt>
      <trkpt lat="41.1423749" lon="-3.6275134"><ele>1820</ele><speed>27</speed><time>2016-10-08T13:08:30Z</time><course>28</course><type>18</type></trkpt>
      <trkpt lat="41.1423716" lon="-3.627405"><ele>1817</ele><speed>24</speed><time>2016-10-08T13:08:32Z</time><course>18</course><type>18</type></trkpt>
      <trkpt lat="41.1424483" lon="-3.6273617"><ele>1815</ele><speed>23</speed><time>2016-10-08T13:08:34Z</time><course>19</course><type>18</type></trkpt>
      <trkpt lat="41.1425366" lon="-3.627355"><ele>1813</ele><speed>24</speed><time>2016-10-08T13:08:36Z</time><course>8</course><type>18</type></trkpt>
      <trkpt lat="41.142625" lon="-3.627275"><ele>1811</ele><speed>26</speed><time>2016-10-08T13:08:39Z</time><course>355</course><type>18</type></trkpt>
      <trkpt lat="41.1427333" lon="-3.6273334"><ele>1808</ele><speed>25</speed><time>2016-10-08T13:08:41Z</time><course>345</course><type>18</type></trkpt>
      <trkpt lat="41.14281" lon="-3.62743"><ele>1806</ele><speed>22</speed><time>2016-10-08T13:08:43Z</time><course>350</course><type>18</type></trkpt>
      <trkpt lat="41.1429433" lon="-3.6274417"><ele>1804</ele><speed>26</speed><time>2016-10-08T13:08:45Z</time><course>8</course><type>18</type></trkpt>
      <trkpt lat="41.143035" lon="-3.6274034"><ele>1802</ele><speed>32</speed><time>2016-10-08T13:08:46Z</time><course>17</course><type>18</type></trkpt>
      <trkpt lat="41.1431116" lon="-3.62736"><ele>1801</ele><speed>30</speed><time>2016-10-08T13:08:47Z</time><course>20</course><type>18</type></trkpt>
      <trkpt lat="41.1431983" lon="-3.6272884"><ele>1799</ele><speed>21</speed><time>2016-10-08T13:08:49Z</time><course>28</course><type>18</type></trkpt>
      <trkpt lat="41.1432733" lon="-3.6272217"><ele>1798</ele><speed>19</speed><time>2016-10-08T13:08:51Z</time><course>32</course><type>18</type></trkpt>
      <trkpt lat="41.1432216" lon="-3.6271417"><ele>1796</ele><speed>15</speed><time>2016-10-08T13:08:52Z</time><course>52</course><type>18</type></trkpt>
      <trkpt lat="41.1430216" lon="-3.6269867"><ele>1793</ele><speed>15</speed><time>2016-10-08T13:08:53Z</time><course>86</course><type>18</type></trkpt>
      <trkpt lat="41.1429749" lon="-3.626895"><ele>1791</ele><speed>15</speed><time>2016-10-08T13:08:54Z</time><course>84</course><type>18</type></trkpt>
      <trkpt lat="41.1428833" lon="-3.6269984"><ele>1788</ele><speed>0</speed><time>2016-10-08T13:08:55Z</time><course>84</course><type>18</type></trkpt>
      <trkpt lat="41.1428249" lon="-3.62708"><ele>1785</ele><speed>12</speed><time>2016-10-08T13:08:58Z</time><course>281</course><type>18</type></trkpt>
      <trkpt lat="41.14283" lon="-3.6271901"><ele>1783</ele><speed>15</speed><time>2016-10-08T13:09:01Z</time><course>272</course><type>18</type></trkpt>
      <trkpt lat="41.14282" lon="-3.627295"><ele>1780</ele><speed>20</speed><time>2016-10-08T13:09:06Z</time><course>275</course><type>18</type></trkpt>
      <trkpt lat="41.1428166" lon="-3.6274384"><ele>1779</ele><speed>20</speed><time>2016-10-08T13:09:08Z</time><course>268</course><type>18</type></trkpt>
      <trkpt lat="41.1427783" lon="-3.6275567"><ele>1777</ele><speed>13</speed><time>2016-10-08T13:09:11Z</time><course>265</course><type>18</type></trkpt>
      <trkpt lat="41.142765" lon="-3.6276784"><ele>1776</ele><speed>15</speed><time>2016-10-08T13:09:13Z</time><course>273</course><type>18</type></trkpt>
      <trkpt lat="41.1427816" lon="-3.6277834"><ele>1775</ele><speed>20</speed><time>2016-10-08T13:09:14Z</time><course>279</course><type>18</type></trkpt>
      <trkpt lat="41.1428166" lon="-3.6278984"><ele>1774</ele><speed>24</speed><time>2016-10-08T13:09:15Z</time><course>285</course><type>18</type></trkpt>
      <trkpt lat="41.1428633" lon="-3.6280767"><ele>1773</ele><speed>26</speed><time>2016-10-08T13:09:17Z</time><course>291</course><type>18</type></trkpt>
      <trkpt lat="41.142905" lon="-3.62817"><ele>1772</ele><speed>26</speed><time>2016-10-08T13:09:18Z</time><course>297</course><type>18</type></trkpt>
      <trkpt lat="41.14285" lon="-3.6283417"><ele>1771</ele><speed>23</speed><time>2016-10-08T13:09:20Z</time><course>303</course><type>18</type></trkpt>
      <trkpt lat="41.1428483" lon="-3.6285184"><ele>1770</ele><speed>26</speed><time>2016-10-08T13:09:22Z</time><course>303</course><type>18</type></trkpt>
      <trkpt lat="41.14289" lon="-3.628605"><ele>1769</ele><speed>28</speed><time>2016-10-08T13:09:23Z</time><course>304</course><type>18</type></trkpt>
      <trkpt lat="41.1429266" lon="-3.6286967"><ele>1769</ele><speed>28</speed><time>2016-10-08T13:09:24Z</time><course>302</course><type>18</type></trkpt>
      <trkpt lat="41.1429666" lon="-3.6287967"><ele>1768</ele><speed>32</speed><time>2016-10-08T13:09:25Z</time><course>301</course><type>18</type></trkpt>
      <trkpt lat="41.1430066" lon="-3.6288834"><ele>1767</ele><speed>30</speed><time>2016-10-08T13:09:26Z</time><course>304</course><type>18</type></trkpt>
      <trkpt lat="41.1430716" lon="-3.6290384"><ele>1766</ele><speed>25</speed><time>2016-10-08T13:09:28Z</time><course>302</course><type>18</type></trkpt>
      <trkpt lat="41.1430966" lon="-3.6291684"><ele>1765</ele><speed>22</speed><time>2016-10-08T13:09:30Z</time><course>301</course><type>18</type></trkpt>
      <trkpt lat="41.1431833" lon="-3.629135"><ele>1763</ele><speed>14</speed><time>2016-10-08T13:09:33Z</time><course>324</course><type>18</type></trkpt>
      <trkpt lat="41.143235" lon="-3.6290084"><ele>1762</ele><speed>14</speed><time>2016-10-08T13:09:35Z</time><course>15</course><type>18</type></trkpt>
      <trkpt lat="41.143295" lon="-3.6288434"><ele>1761</ele><speed>18</speed><time>2016-10-08T13:09:37Z</time><course>48</course><type>18</type></trkpt>
      <trkpt lat="41.14342" lon="-3.6287234"><ele>1760</ele><speed>25</speed><time>2016-10-08T13:09:40Z</time><course>44</course><type>18</type></trkpt>
      <trkpt lat="41.1435083" lon="-3.628585"><ele>1758</ele><speed>27</speed><time>2016-10-08T13:09:42Z</time><course>42</course><type>18</type></trkpt>
      <trkpt lat="41.1436316" lon="-3.6284017"><ele>1757</ele><speed>33</speed><time>2016-10-08T13:09:44Z</time><course>45</course><type>18</type></trkpt>
      <trkpt lat="41.1437333" lon="-3.6282434"><ele>1756</ele><speed>31</speed><time>2016-10-08T13:09:46Z</time><course>47</course><type>18</type></trkpt>
      <trkpt lat="41.1437416" lon="-3.6280517"><ele>1755</ele><speed>28</speed><time>2016-10-08T13:09:48Z</time><course>56</course><type>18</type></trkpt>
      <trkpt lat="41.1438" lon="-3.6279084"><ele>1754</ele><speed>28</speed><time>2016-10-08T13:09:51Z</time><course>60</course><type>18</type></trkpt>
      <trkpt lat="41.1438833" lon="-3.627625"><ele>1753</ele><speed>42</speed><time>2016-10-08T13:09:53Z</time><course>60</course><type>18</type></trkpt>
      <trkpt lat="41.1439383" lon="-3.6275"><ele>1752</ele><speed>46</speed><time>2016-10-08T13:09:54Z</time><course>60</course><type>18</type></trkpt>
      <trkpt lat="41.1439866" lon="-3.62736"><ele>1752</ele><speed>46</speed><time>2016-10-08T13:09:55Z</time><course>62</course><type>18</type></trkpt>
      <trkpt lat="41.1440283" lon="-3.6272217"><ele>1751</ele><speed>46</speed><time>2016-10-08T13:09:56Z</time><course>64</course><type>18</type></trkpt>
      <trkpt lat="41.1440633" lon="-3.6270784"><ele>1751</ele><speed>46</speed><time>2016-10-08T13:09:57Z</time><course>67</course><type>18</type></trkpt>
      <trkpt lat="41.1441066" lon="-3.62694"><ele>1750</ele><speed>46</speed><time>2016-10-08T13:09:58Z</time><course>65</course><type>18</type></trkpt>
      <trkpt lat="41.1441483" lon="-3.6268034"><ele>1750</ele><speed>45</speed><time>2016-10-08T13:09:59Z</time><course>64</course><type>18</type></trkpt>
      <trkpt lat="41.1441983" lon="-3.6266684"><ele>1749</ele><speed>44</speed><time>2016-10-08T13:10:00Z</time><course>64</course><type>18</type></trkpt>
      <trkpt lat="41.14425" lon="-3.62654"><ele>1748</ele><speed>43</speed><time>2016-10-08T13:10:01Z</time><course>63</course><type>18</type></trkpt>
      <trkpt lat="41.1443216" lon="-3.62639"><ele>1747</ele><speed>31</speed><time>2016-10-08T13:10:03Z</time><course>63</course><type>18</type></trkpt>
      <trkpt lat="41.144385" lon="-3.626155"><ele>1746</ele><speed>37</speed><time>2016-10-08T13:10:05Z</time><course>66</course><type>18</type></trkpt>
      <trkpt lat="41.14447" lon="-3.6259284"><ele>1745</ele><speed>41</speed><time>2016-10-08T13:10:07Z</time><course>62</course><type>18</type></trkpt>
      <trkpt lat="41.144565" lon="-3.6256817"><ele>1744</ele><speed>44</speed><time>2016-10-08T13:10:09Z</time><course>60</course><type>18</type></trkpt>
      <trkpt lat="41.1445266" lon="-3.6253967"><ele>1744</ele><speed>46</speed><time>2016-10-08T13:10:10Z</time><course>62</course><type>18</type></trkpt>
      <trkpt lat="41.1445666" lon="-3.6252517"><ele>1743</ele><speed>47</speed><time>2016-10-08T13:10:11Z</time><course>65</course><type>18</type></trkpt>
      <trkpt lat="41.144605" lon="-3.6251084"><ele>1743</ele><speed>46</speed><time>2016-10-08T13:10:12Z</time><course>67</course><type>18</type></trkpt>
      <trkpt lat="41.1446366" lon="-3.62497"><ele>1742</ele><speed>44</speed><time>2016-10-08T13:10:13Z</time><course>68</course><type>18</type></trkpt>
      <trkpt lat="41.1446766" lon="-3.6248284"><ele>1742</ele><speed>45</speed><time>2016-10-08T13:10:14Z</time><course>67</course><type>18</type></trkpt>
      <trkpt lat="41.1447166" lon="-3.624685"><ele>1741</ele><speed>45</speed><time>2016-10-08T13:10:15Z</time><course>67</course><type>18</type></trkpt>
      <trkpt lat="41.1447633" lon="-3.624535"><ele>1741</ele><speed>47</speed><time>2016-10-08T13:10:16Z</time><course>65</course><type>18</type></trkpt>
      <trkpt lat="41.1448133" lon="-3.6243984"><ele>1740</ele><speed>45</speed><time>2016-10-08T13:10:17Z</time><course>67</course><type>18</type></trkpt>
      <trkpt lat="41.1448666" lon="-3.6241084"><ele>1739</ele><speed>40</speed><time>2016-10-08T13:10:19Z</time><course>83</course><type>18</type></trkpt>
      <trkpt lat="41.14488" lon="-3.623955"><ele>1739</ele><speed>43</speed><time>2016-10-08T13:10:20Z</time><course>83</course><type>18</type></trkpt>
      <trkpt lat="41.1448983" lon="-3.6237984"><ele>1738</ele><speed>45</speed><time>2016-10-08T13:10:21Z</time><course>81</course><type>18</type></trkpt>
      <trkpt lat="41.1449133" lon="-3.62364"><ele>1737</ele><speed>46</speed><time>2016-10-08T13:10:22Z</time><course>81</course><type>18</type></trkpt>
      <trkpt lat="41.1449266" lon="-3.6234817"><ele>1737</ele><speed>47</speed><time>2016-10-08T13:10:23Z</time><course>82</course><type>18</type></trkpt>
      <trkpt lat="41.1449433" lon="-3.6233217"><ele>1736</ele><speed>47</speed><time>2016-10-08T13:10:24Z</time><course>80</course><type>18</type></trkpt>
      <trkpt lat="41.1449716" lon="-3.6231534"><ele>1736</ele><speed>49</speed><time>2016-10-08T13:10:25Z</time><course>78</course><type>18</type></trkpt>
      <trkpt lat="41.1450033" lon="-3.6230017"><ele>1735</ele><speed>48</speed><time>2016-10-08T13:10:26Z</time><course>75</course><type>18</type></trkpt>
      <trkpt lat="41.145035" lon="-3.62285"><ele>1735</ele><speed>47</speed><time>2016-10-08T13:10:27Z</time><course>74</course><type>18</type></trkpt>
      <trkpt lat="41.145065" lon="-3.6227084"><ele>1734</ele><speed>45</speed><time>2016-10-08T13:10:28Z</time><course>72</course><type>18</type></trkpt>
      <trkpt lat="41.14511" lon="-3.6225584"><ele>1734</ele><speed>47</speed><time>2016-10-08T13:10:29Z</time><course>69</course><type>18</type></trkpt>
      <trkpt lat="41.1451616" lon="-3.6223984"><ele>1733</ele><speed>48</speed><time>2016-10-08T13:10:30Z</time><course>67</course><type>18</type></trkpt>
      <trkpt lat="41.1452316" lon="-3.62221"><ele>1733</ele><speed>58</speed><time>2016-10-08T13:10:31Z</time><course>64</course><type>18</type></trkpt>
      <trkpt lat="41.1453016" lon="-3.622015"><ele>1732</ele><speed>62</speed><time>2016-10-08T13:10:32Z</time><course>63</course><type>18</type></trkpt>
      <trkpt lat="41.145365" lon="-3.6218334"><ele>1732</ele><speed>61</speed><time>2016-10-08T13:10:33Z</time><course>63</course><type>18</type></trkpt>
      <trkpt lat="41.1454216" lon="-3.62166"><ele>1731</ele><speed>60</speed><time>2016-10-08T13:10:34Z</time><course>64</course><type>18</type></trkpt>
      <trkpt lat="41.1454716" lon="-3.62149"><ele>1731</ele><speed>59</speed><time>2016-10-08T13:10:35Z</time><course>65</course><type>18</type></trkpt>
      <trkpt lat="41.14552" lon="-3.6212884"><ele>1730</ele><speed>59</speed><time>2016-10-08T13:10:36Z</time><course>68</course><type>18</type></trkpt>
      <trkpt lat="41.1455683" lon="-3.6211134"><ele>1730</ele><speed>58</speed><time>2016-10-08T13:10:37Z</time><course>68</course><type>18</type></trkpt>
      <trkpt lat="41.1456166" lon="-3.6209534"><ele>1729</ele><speed>55</speed><time>2016-10-08T13:10:38Z</time><course>67</course><type>18</type></trkpt>
      <trkpt lat="41.1456733" lon="-3.6208084"><ele>1729</ele><speed>52</speed><time>2016-10-08T13:10:39Z</time><course>64</course><type>18</type></trkpt>
      <trkpt lat="41.1457683" lon="-3.6205784"><ele>1728</ele><speed>47</speed><time>2016-10-08T13:10:41Z</time><course>63</course><type>18</type></trkpt>
      <trkpt lat="41.1458566" lon="-3.6203667"><ele>1727</ele><speed>37</speed><time>2016-10-08T13:10:44Z</time><course>61</course><type>18</type></trkpt>
      <trkpt lat="41.145955" lon="-3.62021"><ele>1726</ele><speed>32</speed><time>2016-10-08T13:10:46Z</time><course>58</course><type>18</type></trkpt>
      <trkpt lat="41.1460783" lon="-3.6200767"><ele>1725</ele><speed>31</speed><time>2016-10-08T13:10:48Z</time><course>52</course><type>18</type></trkpt>
      <trkpt lat="41.146205" lon="-3.61995"><ele>1724</ele><speed>31</speed><time>2016-10-08T13:10:50Z</time><course>46</course><type>18</type></trkpt>
      <trkpt lat="41.14639" lon="-3.6198134"><ele>1723</ele><speed>30</speed><time>2016-10-08T13:10:52Z</time><course>43</course><type>18</type></trkpt>
      <trkpt lat="41.1465183" lon="-3.6196384"><ele>1723</ele><speed>31</speed><time>2016-10-08T13:10:54Z</time><course>46</course><type>18</type></trkpt>
      <trkpt lat="41.14665" lon="-3.6195"><ele>1722</ele><speed>29</speed><time>2016-10-08T13:10:56Z</time><course>42</course><type>18</type></trkpt>
      <trkpt lat="41.1468233" lon="-3.6193967"><ele>1721</ele><speed>25</speed><time>2016-10-08T13:10:58Z</time><course>37</course><type>18</type></trkpt>
      <trkpt lat="41.146985" lon="-3.6193384"><ele>1720</ele><speed>21</speed><time>2016-10-08T13:11:01Z</time><course>34</course><type>18</type></trkpt>
      <trkpt lat="41.1471916" lon="-3.6194167"><ele>1719</ele><speed>23</speed><time>2016-10-08T13:11:02Z</time><course>20</course><type>18</type></trkpt>
      <trkpt lat="41.1473316" lon="-3.6193767"><ele>1718</ele><speed>26</speed><time>2016-10-08T13:11:04Z</time><course>5</course><type>18</type></trkpt>
      <trkpt lat="41.147465" lon="-3.6194184"><ele>1717</ele><speed>28</speed><time>2016-10-08T13:11:06Z</time><course>354</course><type>18</type></trkpt>
      <trkpt lat="41.14763" lon="-3.6195"><ele>1716</ele><speed>31</speed><time>2016-10-08T13:11:07Z</time><course>349</course><type>18</type></trkpt>
      <trkpt lat="41.1477366" lon="-3.6195467"><ele>1715</ele><speed>32</speed><time>2016-10-08T13:11:08Z</time><course>346</course><type>18</type></trkpt>
      <trkpt lat="41.1478533" lon="-3.6195834"><ele>1715</ele><speed>34</speed><time>2016-10-08T13:11:09Z</time><course>344</course><type>18</type></trkpt>
      <trkpt lat="41.1479533" lon="-3.6196251"><ele>1713</ele><speed>37</speed><time>2016-10-08T13:11:11Z</time><course>343</course><type>18</type></trkpt>
      <trkpt lat="41.1481033" lon="-3.619645"><ele>1711</ele><speed>36</speed><time>2016-10-08T13:11:13Z</time><course>351</course><type>18</type></trkpt>
      <trkpt lat="41.148265" lon="-3.6196817"><ele>1710</ele><speed>34</speed><time>2016-10-08T13:11:15Z</time><course>349</course><type>18</type></trkpt>
      <trkpt lat="41.1484166" lon="-3.6196617"><ele>1709</ele><speed>30</speed><time>2016-10-08T13:11:17Z</time><course>0</course><type>18</type></trkpt>
      <trkpt lat="41.1485633" lon="-3.619635"><ele>1708</ele><speed>29</speed><time>2016-10-08T13:11:19Z</time><course>3</course><type>18</type></trkpt>
      <trkpt lat="41.1487166" lon="-3.6195417"><ele>1707</ele><speed>29</speed><time>2016-10-08T13:11:21Z</time><course>13</course><type>18</type></trkpt>
      <trkpt lat="41.1487833" lon="-3.6194467"><ele>1706</ele><speed>30</speed><time>2016-10-08T13:11:22Z</time><course>22</course><type>18</type></trkpt>
      <trkpt lat="41.1489266" lon="-3.61941"><ele>1705</ele><speed>30</speed><time>2016-10-08T13:11:24Z</time><course>5</course><type>18</type></trkpt>
      <trkpt lat="41.14908" lon="-3.619395"><ele>1704</ele><speed>34</speed><time>2016-10-08T13:11:26Z</time><course>354</course><type>18</type></trkpt>
      <trkpt lat="41.1492116" lon="-3.6194067"><ele>1703</ele><speed>34</speed><time>2016-10-08T13:11:28Z</time><course>352</course><type>18</type></trkpt>
      <trkpt lat="41.1493666" lon="-3.6194017"><ele>1702</ele><speed>36</speed><time>2016-10-08T13:11:30Z</time><course>355</course><type>18</type></trkpt>
      <trkpt lat="41.14946" lon="-3.6194117"><ele>1701</ele><speed>38</speed><time>2016-10-08T13:11:31Z</time><course>351</course><type>18</type></trkpt>
      <trkpt lat="41.1496483" lon="-3.6194717"><ele>1700</ele><speed>44</speed><time>2016-10-08T13:11:33Z</time><course>344</course><type>18</type></trkpt>
      <trkpt lat="41.1497383" lon="-3.61954"><ele>1699</ele><speed>45</speed><time>2016-10-08T13:11:34Z</time><course>336</course><type>18</type></trkpt>
      <trkpt lat="41.1498399" lon="-3.6195934"><ele>1699</ele><speed>45</speed><time>2016-10-08T13:11:35Z</time><course>337</course><type>18</type></trkpt>
      <trkpt lat="41.1499433" lon="-3.619645"><ele>1698</ele><speed>44</speed><time>2016-10-08T13:11:36Z</time><course>339</course><type>18</type></trkpt>
      <trkpt lat="41.150165" lon="-3.619895"><ele>1697</ele><speed>48</speed><time>2016-10-08T13:11:37Z</time><course>337</course><type>18</type></trkpt>
      <trkpt lat="41.1502783" lon="-3.619945"><ele>1697</ele><speed>47</speed><time>2016-10-08T13:11:38Z</time><course>338</course><type>18</type></trkpt>
      <trkpt lat="41.1504116" lon="-3.6200067"><ele>1696</ele><speed>48</speed><time>2016-10-08T13:11:39Z</time><course>338</course><type>18</type></trkpt>
      <trkpt lat="41.1505333" lon="-3.6200417"><ele>1695</ele><speed>47</speed><time>2016-10-08T13:11:40Z</time><course>341</course><type>18</type></trkpt>
      <trkpt lat="41.1506433" lon="-3.6200734"><ele>1695</ele><speed>46</speed><time>2016-10-08T13:11:41Z</time><course>342</course><type>18</type></trkpt>
      <trkpt lat="41.1508333" lon="-3.6200534"><ele>1694</ele><speed>39</speed><time>2016-10-08T13:11:43Z</time><course>354</course><type>18</type></trkpt>
      <trkpt lat="41.1510116" lon="-3.6201217"><ele>1693</ele><speed>38</speed><time>2016-10-08T13:11:45Z</time><course>351</course><type>18</type></trkpt>
      <trkpt lat="41.1511266" lon="-3.62017"><ele>1692</ele><speed>40</speed><time>2016-10-08T13:11:46Z</time><course>350</course><type>18</type></trkpt>
      <trkpt lat="41.15122" lon="-3.6201684"><ele>1691</ele><speed>43</speed><time>2016-10-08T13:11:47Z</time><course>348</course><type>18</type></trkpt>
      <trkpt lat="41.151345" lon="-3.62022"><ele>1691</ele><speed>44</speed><time>2016-10-08T13:11:48Z</time><course>348</course><type>18</type></trkpt>
      <trkpt lat="41.1514599" lon="-3.62024"><ele>1690</ele><speed>44</speed><time>2016-10-08T13:11:49Z</time><course>348</course><type>18</type></trkpt>
      <trkpt lat="41.1515883" lon="-3.6202917"><ele>1690</ele><speed>45</speed><time>2016-10-08T13:11:50Z</time><course>344</course><type>18</type></trkpt>
      <trkpt lat="41.15175" lon="-3.62033"><ele>1689</ele><speed>46</speed><time>2016-10-08T13:11:51Z</time><course>344</course><type>18</type></trkpt>
      <trkpt lat="41.1518666" lon="-3.620365"><ele>1689</ele><speed>46</speed><time>2016-10-08T13:11:52Z</time><course>345</course><type>18</type></trkpt>
      <trkpt lat="41.1519783" lon="-3.62041"><ele>1688</ele><speed>45</speed><time>2016-10-08T13:11:53Z</time><course>343</course><type>18</type></trkpt>
      <trkpt lat="41.1520833" lon="-3.620465"><ele>1688</ele><speed>45</speed><time>2016-10-08T13:11:54Z</time><course>343</course><type>18</type></trkpt>
      <trkpt lat="41.152185" lon="-3.6205434"><ele>1687</ele><speed>44</speed><time>2016-10-08T13:11:55Z</time><course>341</course><type>18</type></trkpt>
      <trkpt lat="41.1523266" lon="-3.62062"><ele>1686</ele><speed>28</speed><time>2016-10-08T13:11:58Z</time><course>344</course><type>18</type></trkpt>
      <trkpt lat="41.1524316" lon="-3.6206717"><ele>1685</ele><speed>30</speed><time>2016-10-08T13:12:00Z</time><course>338</course><type>18</type></trkpt>
      <trkpt lat="41.1526483" lon="-3.6207134"><ele>1685</ele><speed>30</speed><time>2016-10-08T13:12:01Z</time><course>335</course><type>18</type></trkpt>
      <trkpt lat="41.152735" lon="-3.6207517"><ele>1684</ele><speed>32</speed><time>2016-10-08T13:12:02Z</time><course>331</course><type>18</type></trkpt>
      <trkpt lat="41.1528166" lon="-3.6207984"><ele>1684</ele><speed>33</speed><time>2016-10-08T13:12:03Z</time><course>331</course><type>18</type></trkpt>
      <trkpt lat="41.1529033" lon="-3.620845"><ele>1684</ele><speed>35</speed><time>2016-10-08T13:12:04Z</time><course>335</course><type>18</type></trkpt>
      <trkpt lat="41.1529766" lon="-3.62089"><ele>1683</ele><speed>30</speed><time>2016-10-08T13:12:05Z</time><course>336</course><type>18</type></trkpt>
      <trkpt lat="41.1530483" lon="-3.6209267"><ele>1683</ele><speed>29</speed><time>2016-10-08T13:12:06Z</time><course>337</course><type>18</type></trkpt>
      <trkpt lat="41.1531183" lon="-3.6209534"><ele>1682</ele><speed>28</speed><time>2016-10-08T13:12:07Z</time><course>337</course><type>18</type></trkpt>
      <trkpt lat="41.153195" lon="-3.6209884"><ele>1682</ele><speed>31</speed><time>2016-10-08T13:12:08Z</time><course>334</course><type>18</type></trkpt>
      <trkpt lat="41.15327" lon="-3.6210067"><ele>1681</ele><speed>31</speed><time>2016-10-08T13:12:09Z</time><course>338</course><type>18</type></trkpt>
      <trkpt lat="41.1533416" lon="-3.6210184"><ele>1681</ele><speed>29</speed><time>2016-10-08T13:12:10Z</time><course>342</course><type>18</type></trkpt>
      <trkpt lat="41.1534299" lon="-3.6209484"><ele>1680</ele><speed>28</speed><time>2016-10-08T13:12:11Z</time><course>355</course><type>18</type></trkpt>
      <trkpt lat="41.1535133" lon="-3.6208834"><ele>1680</ele><speed>28</speed><time>2016-10-08T13:12:12Z</time><course>3</course><type>18</type></trkpt>
      <trkpt lat="41.1536033" lon="-3.6208034"><ele>1679</ele><speed>29</speed><time>2016-10-08T13:12:13Z</time><course>10</course><type>18</type></trkpt>
      <trkpt lat="41.15369" lon="-3.620725"><ele>1679</ele><speed>31</speed><time>2016-10-08T13:12:14Z</time><course>18</course><type>18</type></trkpt>
      <trkpt lat="41.1537716" lon="-3.620655"><ele>1678</ele><speed>33</speed><time>2016-10-08T13:12:15Z</time><course>24</course><type>18</type></trkpt>
      <trkpt lat="41.1538516" lon="-3.6205167"><ele>1678</ele><speed>39</speed><time>2016-10-08T13:12:16Z</time><course>35</course><type>18</type></trkpt>
      <trkpt lat="41.1539249" lon="-3.62043"><ele>1677</ele><speed>38</speed><time>2016-10-08T13:12:17Z</time><course>36</course><type>18</type></trkpt>
      <trkpt lat="41.1539966" lon="-3.6203517"><ele>1677</ele><speed>38</speed><time>2016-10-08T13:12:18Z</time><course>36</course><type>18</type></trkpt>
      <trkpt lat="41.1540666" lon="-3.6202734"><ele>1676</ele><speed>36</speed><time>2016-10-08T13:12:19Z</time><course>36</course><type>18</type></trkpt>
      <trkpt lat="41.1541383" lon="-3.6202034"><ele>1676</ele><speed>35</speed><time>2016-10-08T13:12:20Z</time><course>35</course><type>18</type></trkpt>
      <trkpt lat="41.1542" lon="-3.6201434"><ele>1676</ele><speed>32</speed><time>2016-10-08T13:12:21Z</time><course>31</course><type>18</type></trkpt>
      <trkpt lat="41.1542683" lon="-3.6200967"><ele>1675</ele><speed>31</speed><time>2016-10-08T13:12:22Z</time><course>27</course><type>18</type></trkpt>
      <trkpt lat="41.1543183" lon="-3.6200067"><ele>1675</ele><speed>29</speed><time>2016-10-08T13:12:23Z</time><course>21</course><type>18</type></trkpt>
      <trkpt lat="41.1543866" lon="-3.61996"><ele>1674</ele><speed>29</speed><time>2016-10-08T13:12:24Z</time><course>20</course><type>18</type></trkpt>
      <trkpt lat="41.1544883" lon="-3.6199867"><ele>1673</ele><speed>24</speed><time>2016-10-08T13:12:26Z</time><course>358</course><type>18</type></trkpt>
      <trkpt lat="41.1546233" lon="-3.6198867"><ele>1672</ele><speed>35</speed><time>2016-10-08T13:12:28Z</time><course>28</course><type>18</type></trkpt>
      <trkpt lat="41.15472" lon="-3.6198234"><ele>1672</ele><speed>40</speed><time>2016-10-08T13:12:29Z</time><course>25</course><type>18</type></trkpt>
      <trkpt lat="41.1548016" lon="-3.619775"><ele>1671</ele><speed>35</speed><time>2016-10-08T13:12:30Z</time><course>22</course><type>18</type></trkpt>
      <trkpt lat="41.154875" lon="-3.619795"><ele>1671</ele><speed>28</speed><time>2016-10-08T13:12:31Z</time><course>1</course><type>18</type></trkpt>
      <trkpt lat="41.1549916" lon="-3.6198534"><ele>1670</ele><speed>22</speed><time>2016-10-08T13:12:33Z</time><course>339</course><type>18</type></trkpt>
      <trkpt lat="41.1550849" lon="-3.619915"><ele>1670</ele><speed>19</speed><time>2016-10-08T13:12:35Z</time><course>336</course><type>18</type></trkpt>
      <trkpt lat="41.1551883" lon="-3.6199684"><ele>1669</ele><speed>23</speed><time>2016-10-08T13:12:37Z</time><course>338</course><type>18</type></trkpt>
      <trkpt lat="41.1552566" lon="-3.6199817"><ele>1669</ele><speed>25</speed><time>2016-10-08T13:12:38Z</time><course>343</course><type>18</type></trkpt>
      <trkpt lat="41.1553233" lon="-3.62"><ele>1668</ele><speed>26</speed><time>2016-10-08T13:12:39Z</time><course>344</course><type>18</type></trkpt>
      <trkpt lat="41.15539" lon="-3.62001"><ele>1668</ele><speed>25</speed><time>2016-10-08T13:12:40Z</time><course>346</course><type>18</type></trkpt>
      <trkpt lat="41.1554666" lon="-3.620035"><ele>1668</ele><speed>35</speed><time>2016-10-08T13:12:41Z</time><course>339</course><type>18</type></trkpt>
      <trkpt lat="41.1555366" lon="-3.6200767"><ele>1668</ele><speed>32</speed><time>2016-10-08T13:12:42Z</time><course>334</course><type>18</type></trkpt>
      <trkpt lat="41.155605" lon="-3.6201184"><ele>1667</ele><speed>31</speed><time>2016-10-08T13:12:43Z</time><course>334</course><type>18</type></trkpt>
      <trkpt lat="41.1557033" lon="-3.6200767"><ele>1667</ele><speed>20</speed><time>2016-10-08T13:12:46Z</time><course>23</course><type>18</type></trkpt>
      <trkpt lat="41.15581" lon="-3.62005"><ele>1666</ele><speed>21</speed><time>2016-10-08T13:12:48Z</time><course>18</course><type>18</type></trkpt>
      <trkpt lat="41.15592" lon="-3.6199284"><ele>1666</ele><speed>28</speed><time>2016-10-08T13:12:50Z</time><course>41</course><type>18</type></trkpt>
      <trkpt lat="41.1559833" lon="-3.619795"><ele>1665</ele><speed>34</speed><time>2016-10-08T13:12:51Z</time><course>49</course><type>18</type></trkpt>
      <trkpt lat="41.15605" lon="-3.619685"><ele>1665</ele><speed>38</speed><time>2016-10-08T13:12:52Z</time><course>47</course><type>18</type></trkpt>
      <trkpt lat="41.15614" lon="-3.6197"><ele>1665</ele><speed>33</speed><time>2016-10-08T13:12:54Z</time><course>42</course><type>18</type></trkpt>
      <trkpt lat="41.1562333" lon="-3.6195417"><ele>1664</ele><speed>36</speed><time>2016-10-08T13:12:56Z</time><course>52</course><type>18</type></trkpt>
      <trkpt lat="41.15627" lon="-3.619435"><ele>1664</ele><speed>37</speed><time>2016-10-08T13:12:57Z</time><course>60</course><type>18</type></trkpt>
      <trkpt lat="41.1563083" lon="-3.6193317"><ele>1664</ele><speed>36</speed><time>2016-10-08T13:12:58Z</time><course>60</course><type>18</type></trkpt>
      <trkpt lat="41.1563483" lon="-3.6192234"><ele>1664</ele><speed>37</speed><time>2016-10-08T13:12:59Z</time><course>62</course><type>18</type></trkpt>
      <trkpt lat="41.1563066" lon="-3.6190867"><ele>1663</ele><speed>36</speed><time>2016-10-08T13:13:00Z</time><course>75</course><type>18</type></trkpt>
      <trkpt lat="41.1562999" lon="-3.618965"><ele>1663</ele><speed>35</speed><time>2016-10-08T13:13:01Z</time><course>80</course><type>18</type></trkpt>
      <trkpt lat="41.156235" lon="-3.618855"><ele>1661</ele><speed>35</speed><time>2016-10-08T13:13:02Z</time><course>95</course><type>18</type></trkpt>
      <trkpt lat="41.1561766" lon="-3.6187701"><ele>1659</ele><speed>34</speed><time>2016-10-08T13:13:03Z</time><course>101</course><type>18</type></trkpt>
      <trkpt lat="41.15609" lon="-3.6187017"><ele>1659</ele><speed>33</speed><time>2016-10-08T13:13:04Z</time><course>110</course><type>18</type></trkpt>
      <trkpt lat="41.1559583" lon="-3.6186517"><ele>1658</ele><speed>26</speed><time>2016-10-08T13:13:06Z</time><course>131</course><type>18</type></trkpt>
      <trkpt lat="41.15578" lon="-3.6188517"><ele>1655</ele><speed>32</speed><time>2016-10-08T13:13:07Z</time><course>174</course><type>18</type></trkpt>
      <trkpt lat="41.1557" lon="-3.618875"><ele>1654</ele><speed>31</speed><time>2016-10-08T13:13:08Z</time><course>183</course><type>18</type></trkpt>
      <trkpt lat="41.1556283" lon="-3.618925"><ele>1654</ele><speed>29</speed><time>2016-10-08T13:13:09Z</time><course>193</course><type>18</type></trkpt>
      <trkpt lat="41.1555783" lon="-3.619065"><ele>1654</ele><speed>31</speed><time>2016-10-08T13:13:10Z</time><course>226</course><type>18</type></trkpt>
      <trkpt lat="41.1555083" lon="-3.6192134"><ele>1653</ele><speed>26</speed><time>2016-10-08T13:13:12Z</time><course>233</course><type>18</type></trkpt>
      <trkpt lat="41.1555" lon="-3.6193534"><ele>1652</ele><speed>22</speed><time>2016-10-08T13:13:14Z</time><course>256</course><type>18</type></trkpt>
      <trkpt lat="41.1554816" lon="-3.619515"><ele>1651</ele><speed>25</speed><time>2016-10-08T13:13:16Z</time><course>258</course><type>18</type></trkpt>
      <trkpt lat="41.1554383" lon="-3.6196634"><ele>1650</ele><speed>14</speed><time>2016-10-08T13:13:18Z</time><course>237</course><type>18</type></trkpt>
      <trkpt lat="41.1554333" lon="-3.619775"><ele>1649</ele><speed>15</speed><time>2016-10-08T13:13:20Z</time><course>260</course><type>18</type></trkpt>
      <trkpt lat="41.1554433" lon="-3.6199267"><ele>1648</ele><speed>21</speed><time>2016-10-08T13:13:22Z</time><course>269</course><type>18</type></trkpt>
      <trkpt lat="41.1555166" lon="-3.6200817"><ele>1647</ele><speed>26</speed><time>2016-10-08T13:13:24Z</time><course>298</course><type>18</type></trkpt>
      <trkpt lat="41.155565" lon="-3.620155"><ele>1646</ele><speed>27</speed><time>2016-10-08T13:13:25Z</time><course>304</course><type>18</type></trkpt>
      <trkpt lat="41.1556083" lon="-3.620225"><ele>1646</ele><speed>26</speed><time>2016-10-08T13:13:26Z</time><course>303</course><type>18</type></trkpt>
      <trkpt lat="41.1556466" lon="-3.6202867"><ele>1646</ele><speed>23</speed><time>2016-10-08T13:13:27Z</time><course>302</course><type>18</type></trkpt>
      <trkpt lat="41.1556816" lon="-3.620345"><ele>1645</ele><speed>21</speed><time>2016-10-08T13:13:28Z</time><course>304</course><type>18</type></trkpt>
      <trkpt lat="41.1557216" lon="-3.6204067"><ele>1645</ele><speed>23</speed><time>2016-10-08T13:13:29Z</time><course>311</course><type>18</type></trkpt>
      <trkpt lat="41.15577" lon="-3.6204667"><ele>1644</ele><speed>26</speed><time>2016-10-08T13:13:30Z</time><course>315</course><type>18</type></trkpt>
      <trkpt lat="41.1558183" lon="-3.6205334"><ele>1644</ele><speed>28</speed><time>2016-10-08T13:13:31Z</time><course>314</course><type>18</type></trkpt>
      <trkpt lat="41.1558716" lon="-3.6205917"><ele>1644</ele><speed>34</speed><time>2016-10-08T13:13:32Z</time><course>313</course><type>18</type></trkpt>
      <trkpt lat="41.1559166" lon="-3.620655"><ele>1644</ele><speed>17</speed><time>2016-10-08T13:13:33Z</time><course>318</course><type>18</type></trkpt>
      <trkpt lat="41.1559516" lon="-3.6207167"><ele>1643</ele><speed>14</speed><time>2016-10-08T13:13:34Z</time><course>325</course><type>18</type></trkpt>
      <trkpt lat="41.1560366" lon="-3.620795"><ele>1643</ele><speed>21</speed><time>2016-10-08T13:13:36Z</time><course>324</course><type>18</type></trkpt>
      <trkpt lat="41.1561266" lon="-3.620835"><ele>1643</ele><speed>19</speed><time>2016-10-08T13:13:38Z</time><course>336</course><type>18</type></trkpt>
      <trkpt lat="41.1562316" lon="-3.6208767"><ele>1642</ele><speed>23</speed><time>2016-10-08T13:13:40Z</time><course>342</course><type>18</type></trkpt>
      <trkpt lat="41.15629" lon="-3.6208967"><ele>1641</ele><speed>24</speed><time>2016-10-08T13:13:41Z</time><course>346</course><type>18</type></trkpt>
      <trkpt lat="41.15635" lon="-3.620905"><ele>1641</ele><speed>23</speed><time>2016-10-08T13:13:42Z</time><course>352</course><type>18</type></trkpt>
      <trkpt lat="41.156465" lon="-3.620895"><ele>1640</ele><speed>22</speed><time>2016-10-08T13:13:44Z</time><course>0</course><type>18</type></trkpt>
      <trkpt lat="41.1565766" lon="-3.6208417"><ele>1640</ele><speed>21</speed><time>2016-10-08T13:13:46Z</time><course>11</course><type>18</type></trkpt>
      <trkpt lat="41.1566366" lon="-3.6206684"><ele>1639</ele><speed>21</speed><time>2016-10-08T13:13:48Z</time><course>50</course><type>18</type></trkpt>
      <trkpt lat="41.1567216" lon="-3.6205084"><ele>1639</ele><speed>24</speed><time>2016-10-08T13:13:50Z</time><course>53</course><type>18</type></trkpt>
      <trkpt lat="41.156765" lon="-3.6203367"><ele>1638</ele><speed>24</speed><time>2016-10-08T13:13:52Z</time><course>64</course><type>18</type></trkpt>
      <trkpt lat="41.1567083" lon="-3.620125"><ele>1637</ele><speed>27</speed><time>2016-10-08T13:13:53Z</time><course>74</course><type>18</type></trkpt>
      <trkpt lat="41.1566266" lon="-3.6199167"><ele>1636</ele><speed>30</speed><time>2016-10-08T13:13:54Z</time><course>85</course><type>18</type></trkpt>
      <trkpt lat="41.1566149" lon="-3.61973"><ele>1633</ele><speed>33</speed><time>2016-10-08T13:13:55Z</time><course>89</course><type>18</type></trkpt>
      <trkpt lat="41.1566666" lon="-3.6195534"><ele>1629</ele><speed>33</speed><time>2016-10-08T13:13:56Z</time><course>87</course><type>18</type></trkpt>
      <trkpt lat="41.1564583" lon="-3.6195517"><ele>1623</ele><speed>34</speed><time>2016-10-08T13:13:57Z</time><course>110</course><type>18</type></trkpt>
      <trkpt lat="41.1562616" lon="-3.619475"><ele>1620</ele><speed>42</speed><time>2016-10-08T13:13:58Z</time><course>134</course><type>18</type></trkpt>
      <trkpt lat="41.1561233" lon="-3.61955"><ele>1618</ele><speed>40</speed><time>2016-10-08T13:13:59Z</time><course>165</course><type>18</type></trkpt>
      <trkpt lat="41.1560066" lon="-3.6195417"><ele>1617</ele><speed>41</speed><time>2016-10-08T13:14:00Z</time><course>171</course><type>18</type></trkpt>
      <trkpt lat="41.1558766" lon="-3.6195134"><ele>1616</ele><speed>42</speed><time>2016-10-08T13:14:01Z</time><course>174</course><type>18</type></trkpt>
      <trkpt lat="41.1557616" lon="-3.6195467"><ele>1614</ele><speed>40</speed><time>2016-10-08T13:14:02Z</time><course>177</course><type>18</type></trkpt>
      <trkpt lat="41.15568" lon="-3.6195917"><ele>1611</ele><speed>33</speed><time>2016-10-08T13:14:03Z</time><course>181</course><type>18</type></trkpt>
      <trkpt lat="41.15562" lon="-3.61965"><ele>1610</ele><speed>28</speed><time>2016-10-08T13:14:04Z</time><course>187</course><type>18</type></trkpt>
      <trkpt lat="41.15553" lon="-3.6198134"><ele>1608</ele><speed>28</speed><time>2016-10-08T13:14:06Z</time><course>206</course><type>18</type></trkpt>
      <trkpt lat="41.1554916" lon="-3.6199034"><ele>1607</ele><speed>28</speed><time>2016-10-08T13:14:07Z</time><course>219</course><type>18</type></trkpt>
      <trkpt lat="41.1554033" lon="-3.6200717"><ele>1604</ele><speed>16</speed><time>2016-10-08T13:14:09Z</time><course>223</course><type>18</type></trkpt>
      <trkpt lat="41.15544" lon="-3.62022"><ele>1602</ele><speed>15</speed><time>2016-10-08T13:14:11Z</time><course>251</course><type>18</type></trkpt>
      <trkpt lat="41.1553966" lon="-3.6203417"><ele>1600</ele><speed>13</speed><time>2016-10-08T13:14:13Z</time><course>258</course><type>18</type></trkpt>
      <trkpt lat="41.1554616" lon="-3.6204584"><ele>1598</ele><speed>15</speed><time>2016-10-08T13:14:15Z</time><course>287</course><type>18</type></trkpt>
      <trkpt lat="41.155515" lon="-3.6204934"><ele>1595</ele><speed>7</speed><time>2016-10-08T13:14:17Z</time><course>322</course><type>18</type></trkpt>
      <trkpt lat="41.155605" lon="-3.6203134"><ele>1592</ele><speed>9</speed><time>2016-10-08T13:14:19Z</time><course>72</course><type>18</type></trkpt>
      <trkpt lat="41.1556233" lon="-3.620215"><ele>1590</ele><speed>17</speed><time>2016-10-08T13:14:20Z</time><course>94</course><type>18</type></trkpt>
      <trkpt lat="41.1556266" lon="-3.6201184"><ele>1589</ele><speed>21</speed><time>2016-10-08T13:14:21Z</time><course>97</course><type>18</type></trkpt>
      <trkpt lat="41.1556416" lon="-3.6200017"><ele>1589</ele><speed>22</speed><time>2016-10-08T13:14:22Z</time><course>89</course><type>18</type></trkpt>
      <trkpt lat="41.1556716" lon="-3.6198917"><ele>1588</ele><speed>24</speed><time>2016-10-08T13:14:23Z</time><course>84</course><type>18</type></trkpt>
      <trkpt lat="41.1557633" lon="-3.619785"><ele>1587</ele><speed>27</speed><time>2016-10-08T13:14:24Z</time><course>71</course><type>18</type></trkpt>
      <trkpt lat="41.155745" lon="-3.6196084"><ele>1585</ele><speed>26</speed><time>2016-10-08T13:14:26Z</time><course>82</course><type>18</type></trkpt>
      <trkpt lat="41.15568" lon="-3.6195234"><ele>1583</ele><speed>27</speed><time>2016-10-08T13:14:27Z</time><course>104</course><type>18</type></trkpt>
      <trkpt lat="41.1555983" lon="-3.6195584"><ele>1581</ele><speed>26</speed><time>2016-10-08T13:14:28Z</time><course>135</course><type>18</type></trkpt>
      <trkpt lat="41.155505" lon="-3.6197017"><ele>1579</ele><speed>22</speed><time>2016-10-08T13:14:29Z</time><course>158</course><type>18</type></trkpt>
      <trkpt lat="41.1554166" lon="-3.6198417"><ele>1577</ele><speed>20</speed><time>2016-10-08T13:14:30Z</time><course>185</course><type>18</type></trkpt>
      <trkpt lat="41.1553483" lon="-3.619935"><ele>1576</ele><speed>20</speed><time>2016-10-08T13:14:31Z</time><course>204</course><type>18</type></trkpt>
      <trkpt lat="41.1552933" lon="-3.6200384"><ele>1574</ele><speed>21</speed><time>2016-10-08T13:14:32Z</time><course>236</course><type>18</type></trkpt>
      <trkpt lat="41.15524" lon="-3.6201684"><ele>1571</ele><speed>19</speed><time>2016-10-08T13:14:34Z</time><course>279</course><type>18</type></trkpt>
      <trkpt lat="41.1552766" lon="-3.6203134"><ele>1566</ele><speed>20</speed><time>2016-10-08T13:14:36Z</time><course>330</course><type>18</type></trkpt>
      <trkpt lat="41.15535" lon="-3.6202384"><ele>1564</ele><speed>29</speed><time>2016-10-08T13:14:37Z</time><course>44</course><type>18</type></trkpt>
      <trkpt lat="41.1553933" lon="-3.6201434"><ele>1562</ele><speed>38</speed><time>2016-10-08T13:14:38Z</time><course>67</course><type>18</type></trkpt>
      <trkpt lat="41.15543" lon="-3.6200017"><ele>1561</ele><speed>46</speed><time>2016-10-08T13:14:39Z</time><course>73</course><type>18</type></trkpt>
      <trkpt lat="41.1554416" lon="-3.619845"><ele>1560</ele><speed>44</speed><time>2016-10-08T13:14:40Z</time><course>86</course><type>18</type></trkpt>
      <trkpt lat="41.1554616" lon="-3.619645"><ele>1558</ele><speed>58</speed><time>2016-10-08T13:14:41Z</time><course>89</course><type>18</type></trkpt>
      <trkpt lat="41.1554283" lon="-3.6194817"><ele>1555</ele><speed>52</speed><time>2016-10-08T13:14:42Z</time><course>99</course><type>18</type></trkpt>
      <trkpt lat="41.1553416" lon="-3.61939"><ele>1553</ele><speed>44</speed><time>2016-10-08T13:14:43Z</time><course>125</course><type>18</type></trkpt>
      <trkpt lat="41.1552416" lon="-3.6192917"><ele>1551</ele><speed>47</speed><time>2016-10-08T13:14:44Z</time><course>138</course><type>18</type></trkpt>
      <trkpt lat="41.1551383" lon="-3.6191967"><ele>1548</ele><speed>47</speed><time>2016-10-08T13:14:45Z</time><course>143</course><type>18</type></trkpt>
      <trkpt lat="41.155025" lon="-3.619135"><ele>1544</ele><speed>46</speed><time>2016-10-08T13:14:46Z</time><course>148</course><type>18</type></trkpt>
      <trkpt lat="41.1549083" lon="-3.6190884"><ele>1542</ele><speed>45</speed><time>2016-10-08T13:14:47Z</time><course>154</course><type>18</type></trkpt>
      <trkpt lat="41.1547983" lon="-3.6190584"><ele>1540</ele><speed>43</speed><time>2016-10-08T13:14:48Z</time><course>160</course><type>18</type></trkpt>
      <trkpt lat="41.154695" lon="-3.6190984"><ele>1538</ele><speed>42</speed><time>2016-10-08T13:14:49Z</time><course>173</course><type>18</type></trkpt>
      <trkpt lat="41.1545933" lon="-3.619095"><ele>1536</ele><speed>39</speed><time>2016-10-08T13:14:50Z</time><course>174</course><type>18</type></trkpt>
      <trkpt lat="41.1545133" lon="-3.61912"><ele>1534</ele><speed>31</speed><time>2016-10-08T13:14:51Z</time><course>178</course><type>18</type></trkpt>
      <trkpt lat="41.1544416" lon="-3.6191367"><ele>1533</ele><speed>28</speed><time>2016-10-08T13:14:52Z</time><course>181</course><type>18</type></trkpt>
      <trkpt lat="41.1543783" lon="-3.6191534"><ele>1532</ele><speed>25</speed><time>2016-10-08T13:14:53Z</time><course>186</course><type>18</type></trkpt>
      <trkpt lat="41.15435" lon="-3.6193551"><ele>1529</ele><speed>16</speed><time>2016-10-08T13:14:55Z</time><course>247</course><type>18</type></trkpt>
      <trkpt lat="41.1543483" lon="-3.619465"><ele>1528</ele><speed>18</speed><time>2016-10-08T13:14:56Z</time><course>253</course><type>18</type></trkpt>
      <trkpt lat="41.15437" lon="-3.6196084"><ele>1526</ele><speed>18</speed><time>2016-10-08T13:14:57Z</time><course>267</course><type>18</type></trkpt>
      <trkpt lat="41.1543216" lon="-3.6197384"><ele>1526</ele><speed>28</speed><time>2016-10-08T13:14:58Z</time><course>250</course><type>18</type></trkpt>
      <trkpt lat="41.1543366" lon="-3.6198117"><ele>1524</ele><speed>20</speed><time>2016-10-08T13:14:59Z</time><course>262</course><type>18</type></trkpt>
      <trkpt lat="41.1543749" lon="-3.61987"><ele>1523</ele><speed>15</speed><time>2016-10-08T13:15:00Z</time><course>288</course><type>18</type></trkpt>
      <trkpt lat="41.1544266" lon="-3.6199067"><ele>1521</ele><speed>15</speed><time>2016-10-08T13:15:01Z</time><course>314</course><type>18</type></trkpt>
      <trkpt lat="41.15448" lon="-3.6199334"><ele>1520</ele><speed>14</speed><time>2016-10-08T13:15:02Z</time><course>333</course><type>18</type></trkpt>
      <trkpt lat="41.154545" lon="-3.619935"><ele>1518</ele><speed>14</speed><time>2016-10-08T13:15:03Z</time><course>355</course><type>18</type></trkpt>
      <trkpt lat="41.1546866" lon="-3.6198"><ele>1513</ele><speed>25</speed><time>2016-10-08T13:15:04Z</time><course>33</course><type>18</type></trkpt>
      <trkpt lat="41.154785" lon="-3.619685"><ele>1509</ele><speed>32</speed><time>2016-10-08T13:15:05Z</time><course>45</course><type>18</type></trkpt>
      <trkpt lat="41.1548383" lon="-3.6195801"><ele>1507</ele><speed>35</speed><time>2016-10-08T13:15:06Z</time><course>58</course><type>18</type></trkpt>
      <trkpt lat="41.1548566" lon="-3.619475"><ele>1504</ele><speed>35</speed><time>2016-10-08T13:15:07Z</time><course>66</course><type>18</type></trkpt>
      <trkpt lat="41.1548599" lon="-3.6193667"><ele>1503</ele><speed>33</speed><time>2016-10-08T13:15:08Z</time><course>86</course><type>18</type></trkpt>
      <trkpt lat="41.15485" lon="-3.61926"><ele>1502</ele><speed>33</speed><time>2016-10-08T13:15:09Z</time><course>99</course><type>18</type></trkpt>
      <trkpt lat="41.15483" lon="-3.6191267"><ele>1500</ele><speed>38</speed><time>2016-10-08T13:15:10Z</time><course>103</course><type>18</type></trkpt>
      <trkpt lat="41.1548" lon="-3.6189784"><ele>1499</ele><speed>42</speed><time>2016-10-08T13:15:11Z</time><course>105</course><type>18</type></trkpt>
      <trkpt lat="41.15473" lon="-3.61882"><ele>1498</ele><speed>49</speed><time>2016-10-08T13:15:12Z</time><course>115</course><type>18</type></trkpt>
      <trkpt lat="41.154675" lon="-3.618665"><ele>1497</ele><speed>52</speed><time>2016-10-08T13:15:13Z</time><course>116</course><type>18</type></trkpt>
      <trkpt lat="41.1546116" lon="-3.618505"><ele>1496</ele><speed>54</speed><time>2016-10-08T13:15:14Z</time><course>118</course><type>18</type></trkpt>
      <trkpt lat="41.1545633" lon="-3.6183634"><ele>1495</ele><speed>49</speed><time>2016-10-08T13:15:15Z</time><course>115</course><type>18</type></trkpt>
      <trkpt lat="41.15453" lon="-3.6182267"><ele>1493</ele><speed>44</speed><time>2016-10-08T13:15:16Z</time><course>105</course><type>18</type></trkpt>
      <trkpt lat="41.1544933" lon="-3.6180867"><ele>1492</ele><speed>33</speed><time>2016-10-08T13:15:18Z</time><course>103</course><type>18</type></trkpt>
      <trkpt lat="41.1544166" lon="-3.617975"><ele>1489</ele><speed>30</speed><time>2016-10-08T13:15:20Z</time><course>115</course><type>18</type></trkpt>
      <trkpt lat="41.1543616" lon="-3.6180967"><ele>1487</ele><speed>23</speed><time>2016-10-08T13:15:21Z</time><course>133</course><type>18</type></trkpt>
      <trkpt lat="41.1543033" lon="-3.618175"><ele>1486</ele><speed>18</speed><time>2016-10-08T13:15:22Z</time><course>153</course><type>18</type></trkpt>
      <trkpt lat="41.1542466" lon="-3.618255"><ele>1485</ele><speed>14</speed><time>2016-10-08T13:15:23Z</time><course>179</course><type>18</type></trkpt>
      <trkpt lat="41.1541783" lon="-3.618355"><ele>1484</ele><speed>17</speed><time>2016-10-08T13:15:24Z</time><course>207</course><type>18</type></trkpt>
      <trkpt lat="41.1541166" lon="-3.61844"><ele>1483</ele><speed>19</speed><time>2016-10-08T13:15:25Z</time><course>224</course><type>18</type></trkpt>
      <trkpt lat="41.1540583" lon="-3.618535"><ele>1482</ele><speed>23</speed><time>2016-10-08T13:15:26Z</time><course>235</course><type>18</type></trkpt>
      <trkpt lat="41.1539983" lon="-3.6186484"><ele>1481</ele><speed>27</speed><time>2016-10-08T13:15:27Z</time><course>244</course><type>18</type></trkpt>
      <trkpt lat="41.1539633" lon="-3.61875"><ele>1480</ele><speed>26</speed><time>2016-10-08T13:15:28Z</time><course>252</course><type>18</type></trkpt>
      <trkpt lat="41.1539083" lon="-3.618855"><ele>1480</ele><speed>26</speed><time>2016-10-08T13:15:29Z</time><course>261</course><type>18</type></trkpt>
      <trkpt lat="41.1538866" lon="-3.6189384"><ele>1479</ele><speed>24</speed><time>2016-10-08T13:15:30Z</time><course>257</course><type>18</type></trkpt>
      <trkpt lat="41.153885" lon="-3.6190317"><ele>1477</ele><speed>16</speed><time>2016-10-08T13:15:32Z</time><course>250</course><type>18</type></trkpt>
      <trkpt lat="41.15394" lon="-3.6190984"><ele>1474</ele><speed>17</speed><time>2016-10-08T13:15:35Z</time><course>313</course><type>18</type></trkpt>
      <trkpt lat="41.1540266" lon="-3.619245"><ele>1472</ele><speed>25</speed><time>2016-10-08T13:15:37Z</time><course>313</course><type>18</type></trkpt>
      <trkpt lat="41.1541183" lon="-3.619385"><ele>1470</ele><speed>25</speed><time>2016-10-08T13:15:39Z</time><course>316</course><type>18</type></trkpt>
      <trkpt lat="41.1541683" lon="-3.6194451"><ele>1469</ele><speed>26</speed><time>2016-10-08T13:15:40Z</time><course>322</course><type>18</type></trkpt>
      <trkpt lat="41.154225" lon="-3.6195034"><ele>1468</ele><speed>27</speed><time>2016-10-08T13:15:41Z</time><course>326</course><type>18</type></trkpt>
      <trkpt lat="41.1542883" lon="-3.6195534"><ele>1467</ele><speed>28</speed><time>2016-10-08T13:15:42Z</time><course>328</course><type>18</type></trkpt>
      <trkpt lat="41.1543516" lon="-3.6196084"><ele>1466</ele><speed>30</speed><time>2016-10-08T13:15:43Z</time><course>328</course><type>18</type></trkpt>
      <trkpt lat="41.1544133" lon="-3.6196667"><ele>1465</ele><speed>30</speed><time>2016-10-08T13:15:44Z</time><course>326</course><type>18</type></trkpt>
      <trkpt lat="41.154475" lon="-3.6197334"><ele>1464</ele><speed>31</speed><time>2016-10-08T13:15:45Z</time><course>322</course><type>18</type></trkpt>
      <trkpt lat="41.1545366" lon="-3.6198034"><ele>1463</ele><speed>31</speed><time>2016-10-08T13:15:46Z</time><course>321</course><type>18</type></trkpt>
      <trkpt lat="41.1545966" lon="-3.6198784"><ele>1462</ele><speed>32</speed><time>2016-10-08T13:15:47Z</time><course>318</course><type>18</type></trkpt>
      <trkpt lat="41.1546766" lon="-3.6199834"><ele>1461</ele><speed>40</speed><time>2016-10-08T13:15:48Z</time><course>315</course><type>18</type></trkpt>
      <trkpt lat="41.15474" lon="-3.6200767"><ele>1460</ele><speed>39</speed><time>2016-10-08T13:15:49Z</time><course>314</course><type>18</type></trkpt>
      <trkpt lat="41.1548" lon="-3.6201517"><ele>1459</ele><speed>36</speed><time>2016-10-08T13:15:50Z</time><course>315</course><type>18</type></trkpt>
      <trkpt lat="41.1548483" lon="-3.62023"><ele>1458</ele><speed>33</speed><time>2016-10-08T13:15:51Z</time><course>314</course><type>18</type></trkpt>
      <trkpt lat="41.15489" lon="-3.620315"><ele>1457</ele><speed>31</speed><time>2016-10-08T13:15:52Z</time><course>310</course><type>18</type></trkpt>
      <trkpt lat="41.15492" lon="-3.6204034"><ele>1456</ele><speed>29</speed><time>2016-10-08T13:15:53Z</time><course>306</course><type>18</type></trkpt>
      <trkpt lat="41.1549466" lon="-3.6204967"><ele>1454</ele><speed>30</speed><time>2016-10-08T13:15:54Z</time><course>296</course><type>18</type></trkpt>
      <trkpt lat="41.1549" lon="-3.6206867"><ele>1452</ele><speed>30</speed><time>2016-10-08T13:15:56Z</time><course>272</course><type>18</type></trkpt>
      <trkpt lat="41.154865" lon="-3.62079"><ele>1451</ele><speed>31</speed><time>2016-10-08T13:15:57Z</time><course>264</course><type>18</type></trkpt>
      <trkpt lat="41.1548416" lon="-3.62089"><ele>1450</ele><speed>32</speed><time>2016-10-08T13:15:58Z</time><course>262</course><type>18</type></trkpt>
      <trkpt lat="41.1548216" lon="-3.6210034"><ele>1449</ele><speed>35</speed><time>2016-10-08T13:15:59Z</time><course>262</course><type>18</type></trkpt>
      <trkpt lat="41.1548" lon="-3.621115"><ele>1448</ele><speed>35</speed><time>2016-10-08T13:16:00Z</time><course>260</course><type>18</type></trkpt>
      <trkpt lat="41.1547699" lon="-3.6212284"><ele>1447</ele><speed>34</speed><time>2016-10-08T13:16:01Z</time><course>258</course><type>18</type></trkpt>
      <trkpt lat="41.1547316" lon="-3.6213384"><ele>1445</ele><speed>31</speed><time>2016-10-08T13:16:02Z</time><course>257</course><type>18</type></trkpt>
      <trkpt lat="41.1547133" lon="-3.6214367"><ele>1444</ele><speed>30</speed><time>2016-10-08T13:16:03Z</time><course>265</course><type>18</type></trkpt>
      <trkpt lat="41.1546899" lon="-3.621545"><ele>1444</ele><speed>34</speed><time>2016-10-08T13:16:04Z</time><course>263</course><type>18</type></trkpt>
      <trkpt lat="41.1547183" lon="-3.6216234"><ele>1443</ele><speed>27</speed><time>2016-10-08T13:16:05Z</time><course>299</course><type>18</type></trkpt>
      <trkpt lat="41.1547583" lon="-3.6216784"><ele>1442</ele><speed>29</speed><time>2016-10-08T13:16:06Z</time><course>347</course><type>18</type></trkpt>
      <trkpt lat="41.1548366" lon="-3.6216834"><ele>1441</ele><speed>31</speed><time>2016-10-08T13:16:07Z</time><course>356</course><type>18</type></trkpt>
      <trkpt lat="41.1549166" lon="-3.6216734"><ele>1440</ele><speed>33</speed><time>2016-10-08T13:16:08Z</time><course>3</course><type>18</type></trkpt>
      <trkpt lat="41.155" lon="-3.6216217"><ele>1439</ele><speed>34</speed><time>2016-10-08T13:16:09Z</time><course>15</course><type>18</type></trkpt>
      <trkpt lat="41.1550816" lon="-3.621585"><ele>1439</ele><speed>34</speed><time>2016-10-08T13:16:10Z</time><course>15</course><type>18</type></trkpt>
      <trkpt lat="41.155155" lon="-3.621545"><ele>1438</ele><speed>33</speed><time>2016-10-08T13:16:11Z</time><course>17</course><type>18</type></trkpt>
      <trkpt lat="41.15523" lon="-3.6214734"><ele>1437</ele><speed>35</speed><time>2016-10-08T13:16:12Z</time><course>29</course><type>18</type></trkpt>
      <trkpt lat="41.1553083" lon="-3.6213534"><ele>1434</ele><speed>39</speed><time>2016-10-08T13:16:13Z</time><course>40</course><type>18</type></trkpt>
      <trkpt lat="41.155375" lon="-3.6212284"><ele>1431</ele><speed>39</speed><time>2016-10-08T13:16:14Z</time><course>48</course><type>18</type></trkpt>
      <trkpt lat="41.1554316" lon="-3.621105"><ele>1429</ele><speed>37</speed><time>2016-10-08T13:16:15Z</time><course>54</course><type>18</type></trkpt>
      <trkpt lat="41.1554783" lon="-3.620985"><ele>1426</ele><speed>37</speed><time>2016-10-08T13:16:16Z</time><course>57</course><type>18</type></trkpt>
      <trkpt lat="41.1555349" lon="-3.6208751"><ele>1423</ele><speed>37</speed><time>2016-10-08T13:16:17Z</time><course>54</course><type>18</type></trkpt>
      <trkpt lat="41.155605" lon="-3.6207484"><ele>1420</ele><speed>38</speed><time>2016-10-08T13:16:18Z</time><course>51</course><type>18</type></trkpt>
      <trkpt lat="41.1556683" lon="-3.6206384"><ele>1417</ele><speed>38</speed><time>2016-10-08T13:16:19Z</time><course>50</course><type>18</type></trkpt>
      <trkpt lat="41.15573" lon="-3.6205367"><ele>1415</ele><speed>40</speed><time>2016-10-08T13:16:20Z</time><course>49</course><type>18</type></trkpt>
      <trkpt lat="41.15579" lon="-3.6204334"><ele>1413</ele><speed>39</speed><time>2016-10-08T13:16:21Z</time><course>49</course><type>18</type></trkpt>
      <trkpt lat="41.15586" lon="-3.620335"><ele>1416</ele><speed>40</speed><time>2016-10-08T13:16:22Z</time><course>49</course><type>18</type></trkpt>
      <trkpt lat="41.1559316" lon="-3.62023"><ele>1414</ele><speed>39</speed><time>2016-10-08T13:16:23Z</time><course>49</course><type>18</type></trkpt>
      <trkpt lat="41.1559733" lon="-3.6201067"><ele>1413</ele><speed>36</speed><time>2016-10-08T13:16:24Z</time><course>60</course><type>18</type></trkpt>
      <trkpt lat="41.1560316" lon="-3.6200317"><ele>1412</ele><speed>32</speed><time>2016-10-08T13:16:25Z</time><course>56</course><type>18</type></trkpt>
      <trkpt lat="41.15611" lon="-3.61994"><ele>1412</ele><speed>37</speed><time>2016-10-08T13:16:26Z</time><course>51</course><type>18</type></trkpt>
      <trkpt lat="41.1561966" lon="-3.6198534"><ele>1411</ele><speed>41</speed><time>2016-10-08T13:16:27Z</time><course>45</course><type>18</type></trkpt>
      <trkpt lat="41.1562666" lon="-3.6197617"><ele>1409</ele><speed>42</speed><time>2016-10-08T13:16:28Z</time><course>44</course><type>18</type></trkpt>
      <trkpt lat="41.1563383" lon="-3.6196717"><ele>1408</ele><speed>40</speed><time>2016-10-08T13:16:29Z</time><course>43</course><type>18</type></trkpt>
      <trkpt lat="41.1564066" lon="-3.6195834"><ele>1406</ele><speed>40</speed><time>2016-10-08T13:16:30Z</time><course>44</course><type>18</type></trkpt>
      <trkpt lat="41.1564733" lon="-3.619495"><ele>1405</ele><speed>40</speed><time>2016-10-08T13:16:31Z</time><course>44</course><type>18</type></trkpt>
      <trkpt lat="41.1565433" lon="-3.6194067"><ele>1404</ele><speed>41</speed><time>2016-10-08T13:16:32Z</time><course>42</course><type>18</type></trkpt>
      <trkpt lat="41.1566116" lon="-3.6193384"><ele>1403</ele><speed>39</speed><time>2016-10-08T13:16:33Z</time><course>37</course><type>18</type></trkpt>
      <trkpt lat="41.1566833" lon="-3.6192917"><ele>1402</ele><speed>35</speed><time>2016-10-08T13:16:34Z</time><course>29</course><type>18</type></trkpt>
      <trkpt lat="41.1567533" lon="-3.6192684"><ele>1400</ele><speed>33</speed><time>2016-10-08T13:16:35Z</time><course>22</course><type>18</type></trkpt>
      <trkpt lat="41.1568833" lon="-3.61925"><ele>1398</ele><speed>29</speed><time>2016-10-08T13:16:37Z</time><course>10</course><type>18</type></trkpt>
      <trkpt lat="41.1569916" lon="-3.6192617"><ele>1396</ele><speed>24</speed><time>2016-10-08T13:16:39Z</time><course>7</course><type>18</type></trkpt>
      <trkpt lat="41.15708" lon="-3.6192384"><ele>1391</ele><speed>9</speed><time>2016-10-08T13:16:44Z</time><course>17</course><type>18</type></trkpt>
      <trkpt lat="41.1571516" lon="-3.6193034"><ele>1389</ele><speed>14</speed><time>2016-10-08T13:16:46Z</time><course>338</course><type>18</type></trkpt>
      <trkpt lat="41.1572" lon="-3.619385"><ele>1388</ele><speed>19</speed><time>2016-10-08T13:16:47Z</time><course>327</course><type>18</type></trkpt>
      <trkpt lat="41.1572466" lon="-3.619485"><ele>1387</ele><speed>23</speed><time>2016-10-08T13:16:48Z</time><course>318</course><type>18</type></trkpt>
      <trkpt lat="41.1572983" lon="-3.6195801"><ele>1385</ele><speed>25</speed><time>2016-10-08T13:16:49Z</time><course>316</course><type>18</type></trkpt>
      <trkpt lat="41.157355" lon="-3.619665"><ele>1385</ele><speed>26</speed><time>2016-10-08T13:16:50Z</time><course>318</course><type>18</type></trkpt>
      <trkpt lat="41.1574116" lon="-3.61975"><ele>1384</ele><speed>26</speed><time>2016-10-08T13:16:51Z</time><course>320</course><type>18</type></trkpt>
      <trkpt lat="41.1574733" lon="-3.6198434"><ele>1383</ele><speed>26</speed><time>2016-10-08T13:16:52Z</time><course>319</course><type>18</type></trkpt>
      <trkpt lat="41.1575266" lon="-3.6199184"><ele>1382</ele><speed>25</speed><time>2016-10-08T13:16:53Z</time><course>318</course><type>18</type></trkpt>
      <trkpt lat="41.1575733" lon="-3.62"><ele>1381</ele><speed>26</speed><time>2016-10-08T13:16:54Z</time><course>315</course><type>18</type></trkpt>
      <trkpt lat="41.15764" lon="-3.6201017"><ele>1381</ele><speed>37</speed><time>2016-10-08T13:16:55Z</time><course>311</course><type>18</type></trkpt>
      <trkpt lat="41.157705" lon="-3.6201834"><ele>1380</ele><speed>33</speed><time>2016-10-08T13:16:56Z</time><course>313</course><type>18</type></trkpt>
      <trkpt lat="41.1577666" lon="-3.6202484"><ele>1379</ele><speed>31</speed><time>2016-10-08T13:16:57Z</time><course>316</course><type>18</type></trkpt>
      <trkpt lat="41.1578216" lon="-3.6203167"><ele>1378</ele><speed>30</speed><time>2016-10-08T13:16:58Z</time><course>316</course><type>18</type></trkpt>
      <trkpt lat="41.15786" lon="-3.620405"><ele>1377</ele><speed>29</speed><time>2016-10-08T13:16:59Z</time><course>312</course><type>18</type></trkpt>
      <trkpt lat="41.1578916" lon="-3.6205067"><ele>1376</ele><speed>29</speed><time>2016-10-08T13:17:00Z</time><course>308</course><type>18</type></trkpt>
      <trkpt lat="41.1579933" lon="-3.6206484"><ele>1374</ele><speed>27</speed><time>2016-10-08T13:17:02Z</time><course>317</course><type>18</type></trkpt>
      <trkpt lat="41.1580816" lon="-3.6207117"><ele>1372</ele><speed>24</speed><time>2016-10-08T13:17:04Z</time><course>328</course><type>18</type></trkpt>
      <trkpt lat="41.1581466" lon="-3.6204984"><ele>1370</ele><speed>27</speed><time>2016-10-08T13:17:08Z</time><course>32</course><type>18</type></trkpt>
      <trkpt lat="41.15816" lon="-3.6203317"><ele>1369</ele><speed>31</speed><time>2016-10-08T13:17:09Z</time><course>43</course><type>18</type></trkpt>
      <trkpt lat="41.1582133" lon="-3.62024"><ele>1368</ele><speed>34</speed><time>2016-10-08T13:17:10Z</time><course>45</course><type>18</type></trkpt>
      <trkpt lat="41.1582833" lon="-3.620145"><ele>1368</ele><speed>44</speed><time>2016-10-08T13:17:11Z</time><course>45</course><type>18</type></trkpt>
      <trkpt lat="41.1583616" lon="-3.6200284"><ele>1367</ele><speed>47</speed><time>2016-10-08T13:17:12Z</time><course>45</course><type>18</type></trkpt>
      <trkpt lat="41.1584333" lon="-3.6199167"><ele>1366</ele><speed>47</speed><time>2016-10-08T13:17:13Z</time><course>45</course><type>18</type></trkpt>
      <trkpt lat="41.1585016" lon="-3.6198117"><ele>1366</ele><speed>46</speed><time>2016-10-08T13:17:14Z</time><course>46</course><type>18</type></trkpt>
      <trkpt lat="41.1586183" lon="-3.619725"><ele>1365</ele><speed>46</speed><time>2016-10-08T13:17:15Z</time><course>41</course><type>18</type></trkpt>
      <trkpt lat="41.1587" lon="-3.6196134"><ele>1364</ele><speed>46</speed><time>2016-10-08T13:17:16Z</time><course>44</course><type>18</type></trkpt>
      <trkpt lat="41.158765" lon="-3.6195134"><ele>1364</ele><speed>44</speed><time>2016-10-08T13:17:17Z</time><course>45</course><type>18</type></trkpt>
      <trkpt lat="41.1588216" lon="-3.6194184"><ele>1363</ele><speed>42</speed><time>2016-10-08T13:17:18Z</time><course>46</course><type>18</type></trkpt>
      <trkpt lat="41.15885" lon="-3.61928"><ele>1361</ele><speed>34</speed><time>2016-10-08T13:17:20Z</time><course>51</course><type>18</type></trkpt>
      <trkpt lat="41.158775" lon="-3.619095"><ele>1360</ele><speed>29</speed><time>2016-10-08T13:17:22Z</time><course>75</course><type>18</type></trkpt>
      <trkpt lat="41.15858" lon="-3.61889"><ele>1359</ele><speed>25</speed><time>2016-10-08T13:17:24Z</time><course>101</course><type>18</type></trkpt>
      <trkpt lat="41.158475" lon="-3.618845"><ele>1359</ele><speed>25</speed><time>2016-10-08T13:17:25Z</time><course>126</course><type>18</type></trkpt>
      <trkpt lat="41.1584666" lon="-3.6189684"><ele>1355</ele><speed>0</speed><time>2016-10-08T13:17:31Z</time><course>143</course><type>18</type></trkpt>
      <trkpt lat="41.158385" lon="-3.619065"><ele>1354</ele><speed>10</speed><time>2016-10-08T13:17:33Z</time><course>209</course><type>18</type></trkpt>
      <trkpt lat="41.1583366" lon="-3.6191734"><ele>1352</ele><speed>4</speed><time>2016-10-08T13:17:36Z</time><course>227</course><type>18</type></trkpt>
      <trkpt lat="41.1582166" lon="-3.6191234"><ele>1352</ele><speed>10</speed><time>2016-10-08T13:17:39Z</time><course>110</course><type>18</type></trkpt>
      <trkpt lat="41.1581866" lon="-3.6189667"><ele>1351</ele><speed>17</speed><time>2016-10-08T13:17:42Z</time><course>95</course><type>18</type></trkpt>
      <trkpt lat="41.1581466" lon="-3.618795"><ele>1349</ele><speed>23</speed><time>2016-10-08T13:17:44Z</time><course>105</course><type>18</type></trkpt>
      <trkpt lat="41.1580683" lon="-3.6186234"><ele>1348</ele><speed>26</speed><time>2016-10-08T13:17:46Z</time><course>112</course><type>18</type></trkpt>
      <trkpt lat="41.1581233" lon="-3.618325"><ele>1348</ele><speed>33</speed><time>2016-10-08T13:17:47Z</time><course>108</course><type>18</type></trkpt>
      <trkpt lat="41.1581383" lon="-3.618085"><ele>1348</ele><speed>35</speed><time>2016-10-08T13:17:48Z</time><course>104</course><type>18</type></trkpt>
      <trkpt lat="41.1581333" lon="-3.6179317"><ele>1348</ele><speed>31</speed><time>2016-10-08T13:17:49Z</time><course>102</course><type>18</type></trkpt>
      <trkpt lat="41.1581066" lon="-3.6178034"><ele>1347</ele><speed>31</speed><time>2016-10-08T13:17:50Z</time><course>102</course><type>18</type></trkpt>
      <trkpt lat="41.158035" lon="-3.6176984"><ele>1347</ele><speed>31</speed><time>2016-10-08T13:17:51Z</time><course>106</course><type>18</type></trkpt>
      <trkpt lat="41.15795" lon="-3.6177034"><ele>1348</ele><speed>17</speed><time>2016-10-08T13:17:52Z</time><course>127</course><type>18</type></trkpt>
      <trkpt lat="41.1578583" lon="-3.617665"><ele>1347</ele><speed>11</speed><time>2016-10-08T13:17:55Z</time><course>149</course><type>18</type></trkpt>
      <trkpt lat="41.15793" lon="-3.6175717"><ele>1345</ele><speed>11</speed><time>2016-10-08T13:18:00Z</time><course>72</course><type>18</type></trkpt>
      <trkpt lat="41.1579933" lon="-3.6174284"><ele>1343</ele><speed>16</speed><time>2016-10-08T13:18:03Z</time><course>75</course><type>18</type></trkpt>
      <trkpt lat="41.1580316" lon="-3.6172917"><ele>1342</ele><speed>18</speed><time>2016-10-08T13:18:05Z</time><course>70</course><type>18</type></trkpt>
      <trkpt lat="41.1581516" lon="-3.6171817"><ele>1341</ele><speed>20</speed><time>2016-10-08T13:18:07Z</time><course>66</course><type>18</type></trkpt>
      <trkpt lat="41.1582433" lon="-3.6173084"><ele>1338</ele><speed>9</speed><time>2016-10-08T13:18:12Z</time><course>99</course><type>18</type></trkpt>
      <trkpt lat="41.1581766" lon="-3.6175334"><ele>1337</ele><speed>15</speed><time>2016-10-08T13:18:14Z</time><course>301</course><type>18</type></trkpt>
      <trkpt lat="41.1582399" lon="-3.6176917"><ele>1336</ele><speed>14</speed><time>2016-10-08T13:18:16Z</time><course>326</course><type>18</type></trkpt>
      <trkpt lat="41.1583366" lon="-3.6177834"><ele>1335</ele><speed>18</speed><time>2016-10-08T13:18:18Z</time><course>341</course><type>18</type></trkpt>
      <trkpt lat="41.1584499" lon="-3.6178"><ele>1334</ele><speed>19</speed><time>2016-10-08T13:18:20Z</time><course>353</course><type>18</type></trkpt>
      <trkpt lat="41.158565" lon="-3.6178517"><ele>1333</ele><speed>23</speed><time>2016-10-08T13:18:22Z</time><course>333</course><type>18</type></trkpt>
      <trkpt lat="41.1586916" lon="-3.61791"><ele>1332</ele><speed>24</speed><time>2016-10-08T13:18:24Z</time><course>338</course><type>18</type></trkpt>
      <trkpt lat="41.1588133" lon="-3.6179467"><ele>1331</ele><speed>23</speed><time>2016-10-08T13:18:26Z</time><course>344</course><type>18</type></trkpt>
      <trkpt lat="41.1589366" lon="-3.617935"><ele>1329</ele><speed>23</speed><time>2016-10-08T13:18:28Z</time><course>353</course><type>18</type></trkpt>
      <trkpt lat="41.1589116" lon="-3.6177834"><ele>1329</ele><speed>17</speed><time>2016-10-08T13:18:29Z</time><course>10</course><type>18</type></trkpt>
      <trkpt lat="41.1589516" lon="-3.61757"><ele>1327</ele><speed>15</speed><time>2016-10-08T13:18:31Z</time><course>39</course><type>18</type></trkpt>
      <trkpt lat="41.1588966" lon="-3.6172367"><ele>1327</ele><speed>25</speed><time>2016-10-08T13:18:32Z</time><course>82</course><type>18</type></trkpt>
      <trkpt lat="41.158875" lon="-3.61712"><ele>1326</ele><speed>26</speed><time>2016-10-08T13:18:33Z</time><course>89</course><type>18</type></trkpt>
      <trkpt lat="41.1587566" lon="-3.6168784"><ele>1325</ele><speed>28</speed><time>2016-10-08T13:18:35Z</time><course>104</course><type>18</type></trkpt>
      <trkpt lat="41.15868" lon="-3.61676"><ele>1324</ele><speed>30</speed><time>2016-10-08T13:18:36Z</time><course>111</course><type>18</type></trkpt>
      <trkpt lat="41.1585866" lon="-3.6165617"><ele>1323</ele><speed>30</speed><time>2016-10-08T13:18:38Z</time><course>111</course><type>18</type></trkpt>
      <trkpt lat="41.1584916" lon="-3.6163617"><ele>1322</ele><speed>31</speed><time>2016-10-08T13:18:40Z</time><course>116</course><type>18</type></trkpt>
      <trkpt lat="41.1583783" lon="-3.6162734"><ele>1320</ele><speed>28</speed><time>2016-10-08T13:18:42Z</time><course>123</course><type>18</type></trkpt>
      <trkpt lat="41.1582699" lon="-3.6162267"><ele>1318</ele><speed>20</speed><time>2016-10-08T13:18:46Z</time><course>109</course><type>18</type></trkpt>
      <trkpt lat="41.1583883" lon="-3.616155"><ele>1315</ele><speed>17</speed><time>2016-10-08T13:18:50Z</time><course>76</course><type>18</type></trkpt>
      <trkpt lat="41.1584683" lon="-3.6160334"><ele>1314</ele><speed>21</speed><time>2016-10-08T13:18:52Z</time><course>73</course><type>18</type></trkpt>
      <trkpt lat="41.1585549" lon="-3.6159117"><ele>1312</ele><speed>24</speed><time>2016-10-08T13:18:54Z</time><course>69</course><type>18</type></trkpt>
      <trkpt lat="41.1586133" lon="-3.6157467"><ele>1311</ele><speed>25</speed><time>2016-10-08T13:18:56Z</time><course>73</course><type>18</type></trkpt>
      <trkpt lat="41.1593416" lon="-3.6152467"><ele>1312</ele><speed>41</speed><time>2016-10-08T13:18:58Z</time><course>79</course><type>18</type></trkpt>
      <trkpt lat="41.1591966" lon="-3.6151184"><ele>1311</ele><speed>42</speed><time>2016-10-08T13:18:59Z</time><course>118</course><type>18</type></trkpt>
      <trkpt lat="41.1590983" lon="-3.6149734"><ele>1311</ele><speed>47</speed><time>2016-10-08T13:19:00Z</time><course>128</course><type>18</type></trkpt>
      <trkpt lat="41.1589983" lon="-3.61487"><ele>1310</ele><speed>45</speed><time>2016-10-08T13:19:01Z</time><course>133</course><type>18</type></trkpt>
      <trkpt lat="41.1588916" lon="-3.614775"><ele>1310</ele><speed>43</speed><time>2016-10-08T13:19:02Z</time><course>137</course><type>18</type></trkpt>
      <trkpt lat="41.15879" lon="-3.6147067"><ele>1309</ele><speed>43</speed><time>2016-10-08T13:19:03Z</time><course>142</course><type>18</type></trkpt>
      <trkpt lat="41.15868" lon="-3.6146567"><ele>1308</ele><speed>43</speed><time>2016-10-08T13:19:04Z</time><course>148</course><type>18</type></trkpt>
      <trkpt lat="41.15856" lon="-3.6146684"><ele>1308</ele><speed>41</speed><time>2016-10-08T13:19:05Z</time><course>162</course><type>18</type></trkpt>
      <trkpt lat="41.158455" lon="-3.6146734"><ele>1307</ele><speed>38</speed><time>2016-10-08T13:19:06Z</time><course>170</course><type>18</type></trkpt>
      <trkpt lat="41.1582816" lon="-3.6146567"><ele>1306</ele><speed>29</speed><time>2016-10-08T13:19:08Z</time><course>164</course><type>18</type></trkpt>
      <trkpt lat="41.1581683" lon="-3.6146"><ele>1305</ele><speed>26</speed><time>2016-10-08T13:19:10Z</time><course>152</course><type>18</type></trkpt>
      <trkpt lat="41.15805" lon="-3.6145884"><ele>1303</ele><speed>17</speed><time>2016-10-08T13:19:13Z</time><course>164</course><type>18</type></trkpt>
      <trkpt lat="41.1579466" lon="-3.6145167"><ele>1302</ele><speed>19</speed><time>2016-10-08T13:19:15Z</time><course>159</course><type>18</type></trkpt>
      <trkpt lat="41.1575766" lon="-3.6150517"><ele>1306</ele><speed>29</speed><time>2016-10-08T13:19:17Z</time><course>172</course><type>18</type></trkpt>
      <trkpt lat="41.1573733" lon="-3.6154334"><ele>1307</ele><speed>28</speed><time>2016-10-08T13:19:18Z</time><course>165</course><type>18</type></trkpt>
      <trkpt lat="41.1571816" lon="-3.6156617"><ele>1307</ele><speed>28</speed><time>2016-10-08T13:19:19Z</time><course>164</course><type>18</type></trkpt>
      <trkpt lat="41.1569783" lon="-3.61581"><ele>1308</ele><speed>30</speed><time>2016-10-08T13:19:20Z</time><course>165</course><type>18</type></trkpt>
      <trkpt lat="41.15691" lon="-3.6156734"><ele>1308</ele><speed>30</speed><time>2016-10-08T13:19:21Z</time><course>160</course><type>18</type></trkpt>
      <trkpt lat="41.1568316" lon="-3.6155317"><ele>1308</ele><speed>34</speed><time>2016-10-08T13:19:22Z</time><course>155</course><type>18</type></trkpt>
      <trkpt lat="41.156745" lon="-3.6154167"><ele>1307</ele><speed>38</speed><time>2016-10-08T13:19:23Z</time><course>153</course><type>18</type></trkpt>
      <trkpt lat="41.1566133" lon="-3.61539"><ele>1306</ele><speed>37</speed><time>2016-10-08T13:19:25Z</time><course>162</course><type>18</type></trkpt>
      <trkpt lat="41.1564833" lon="-3.6152734"><ele>1306</ele><speed>34</speed><time>2016-10-08T13:19:27Z</time><course>160</course><type>18</type></trkpt>
      <trkpt lat="41.1564916" lon="-3.6148967"><ele>1305</ele><speed>17</speed><time>2016-10-08T13:19:30Z</time><course>104</course><type>18</type></trkpt>
      <trkpt lat="41.1565316" lon="-3.6147517"><ele>1305</ele><speed>20</speed><time>2016-10-08T13:19:31Z</time><course>78</course><type>18</type></trkpt>
      <trkpt lat="41.1565866" lon="-3.6146167"><ele>1304</ele><speed>19</speed><time>2016-10-08T13:19:32Z</time><course>72</course><type>18</type></trkpt>
      <trkpt lat="41.15663" lon="-3.61446"><ele>1304</ele><speed>19</speed><time>2016-10-08T13:19:33Z</time><course>71</course><type>18</type></trkpt>
      <trkpt lat="41.156675" lon="-3.6142684"><ele>1303</ele><speed>21</speed><time>2016-10-08T13:19:35Z</time><course>83</course><type>18</type></trkpt>
      <trkpt lat="41.1567133" lon="-3.614065"><ele>1302</ele><speed>27</speed><time>2016-10-08T13:19:37Z</time><course>85</course><type>18</type></trkpt>
      <trkpt lat="41.1567883" lon="-3.6138667"><ele>1301</ele><speed>30</speed><time>2016-10-08T13:19:39Z</time><course>83</course><type>18</type></trkpt>
      <trkpt lat="41.1568583" lon="-3.6136234"><ele>1300</ele><speed>32</speed><time>2016-10-08T13:19:41Z</time><course>82</course><type>18</type></trkpt>
      <trkpt lat="41.1569183" lon="-3.61336"><ele>1299</ele><speed>35</speed><time>2016-10-08T13:19:43Z</time><course>83</course><type>18</type></trkpt>
      <trkpt lat="41.15774" lon="-3.6128734"><ele>1305</ele><speed>50</speed><time>2016-10-08T13:19:44Z</time><course>41</course><type>18</type></trkpt>
      <trkpt lat="41.1582366" lon="-3.6128067"><ele>1306</ele><speed>53</speed><time>2016-10-08T13:19:45Z</time><course>41</course><type>18</type></trkpt>
      <trkpt lat="41.1586583" lon="-3.6117784"><ele>1308</ele><speed>61</speed><time>2016-10-08T13:19:46Z</time><course>42</course><type>18</type></trkpt>
      <trkpt lat="41.1587633" lon="-3.6115784"><ele>1310</ele><speed>59</speed><time>2016-10-08T13:19:47Z</time><course>43</course><type>18</type></trkpt>
      <trkpt lat="41.15882" lon="-3.6100901"><ele>1315</ele><speed>67</speed><time>2016-10-08T13:19:48Z</time><course>53</course><type>18</type></trkpt>
      <trkpt lat="41.158705" lon="-3.609605"><ele>1319</ele><speed>64</speed><time>2016-10-08T13:19:49Z</time><course>56</course><type>18</type></trkpt>
      <trkpt lat="41.1582699" lon="-3.6091634"><ele>1322</ele><speed>59</speed><time>2016-10-08T13:19:50Z</time><course>65</course><type>18</type></trkpt>
      <trkpt lat="41.1582533" lon="-3.6089384"><ele>1322</ele><speed>56</speed><time>2016-10-08T13:19:51Z</time><course>63</course><type>18</type></trkpt>
      <trkpt lat="41.1582816" lon="-3.6088034"><ele>1322</ele><speed>51</speed><time>2016-10-08T13:19:52Z</time><course>62</course><type>18</type></trkpt>
      <trkpt lat="41.1582133" lon="-3.6089067"><ele>1322</ele><speed>8</speed><time>2016-10-08T13:19:58Z</time><course>1</course><type>18</type></trkpt>
      <trkpt lat="41.1583083" lon="-3.6088417"><ele>1321</ele><speed>9</speed><time>2016-10-08T13:20:04Z</time><course>358</course><type>18</type></trkpt>
      <trkpt lat="41.1584066" lon="-3.6088717"><ele>1319</ele><speed>11</speed><time>2016-10-08T13:20:08Z</time><course>350</course><type>18</type></trkpt>
      <trkpt lat="41.158365" lon="-3.6087084"><ele>1318</ele><speed>9</speed><time>2016-10-08T13:20:13Z</time><course>122</course><type>18</type></trkpt>
      <trkpt lat="41.1582233" lon="-3.608555"><ele>1317</ele><speed>20</speed><time>2016-10-08T13:20:15Z</time><course>144</course><type>18</type></trkpt>
      <trkpt lat="41.15808" lon="-3.608395"><ele>1316</ele><speed>24</speed><time>2016-10-08T13:20:17Z</time><course>143</course><type>18</type></trkpt>
      <trkpt lat="41.15792" lon="-3.6082417"><ele>1316</ele><speed>26</speed><time>2016-10-08T13:20:19Z</time><course>143</course><type>18</type></trkpt>
      <trkpt lat="41.1577516" lon="-3.608085"><ele>1315</ele><speed>29</speed><time>2016-10-08T13:20:21Z</time><course>145</course><type>18</type></trkpt>
      <trkpt lat="41.1571966" lon="-3.6071567"><ele>1316</ele><speed>40</speed><time>2016-10-08T13:20:22Z</time><course>150</course><type>18</type></trkpt>
      <trkpt lat="41.1567916" lon="-3.6065917"><ele>1316</ele><speed>50</speed><time>2016-10-08T13:20:23Z</time><course>154</course><type>18</type></trkpt>
      <trkpt lat="41.1565066" lon="-3.6061334"><ele>1316</ele><speed>52</speed><time>2016-10-08T13:20:24Z</time><course>152</course><type>18</type></trkpt>
      <trkpt lat="41.1562633" lon="-3.60688"><ele>1319</ele><speed>39</speed><time>2016-10-08T13:20:25Z</time><course>153</course><type>18</type></trkpt>
      <trkpt lat="41.1561766" lon="-3.6073267"><ele>1320</ele><speed>29</speed><time>2016-10-08T13:20:26Z</time><course>148</course><type>18</type></trkpt>
      <trkpt lat="41.15606" lon="-3.60741"><ele>1321</ele><speed>20</speed><time>2016-10-08T13:20:27Z</time><course>131</course><type>18</type></trkpt>
      <trkpt lat="41.1563533" lon="-3.60799"><ele>1325</ele><speed>14</speed><time>2016-10-08T13:20:29Z</time><course>67</course><type>18</type></trkpt>
      <trkpt lat="41.1565249" lon="-3.6080767"><ele>1326</ele><speed>29</speed><time>2016-10-08T13:20:32Z</time><course>68</course><type>18</type></trkpt>
      <trkpt lat="41.1566266" lon="-3.6078067"><ele>1327</ele><speed>36</speed><time>2016-10-08T13:20:35Z</time><course>66</course><type>18</type></trkpt>
      <trkpt lat="41.1566933" lon="-3.6076784"><ele>1327</ele><speed>38</speed><time>2016-10-08T13:20:36Z</time><course>68</course><type>18</type></trkpt>
      <trkpt lat="41.156885" lon="-3.6076017"><ele>1328</ele><speed>39</speed><time>2016-10-08T13:20:37Z</time><course>65</course><type>18</type></trkpt>
      <trkpt lat="41.1570666" lon="-3.6075234"><ele>1329</ele><speed>40</speed><time>2016-10-08T13:20:38Z</time><course>61</course><type>18</type></trkpt>
      <trkpt lat="41.15729" lon="-3.6074334"><ele>1330</ele><speed>41</speed><time>2016-10-08T13:20:39Z</time><course>59</course><type>18</type></trkpt>
      <trkpt lat="41.1574716" lon="-3.6073634"><ele>1331</ele><speed>40</speed><time>2016-10-08T13:20:40Z</time><course>57</course><type>18</type></trkpt>
      <trkpt lat="41.1577883" lon="-3.607295"><ele>1333</ele><speed>42</speed><time>2016-10-08T13:20:41Z</time><course>53</course><type>18</type></trkpt>
      <trkpt lat="41.1574116" lon="-3.6073517"><ele>1335</ele><speed>31</speed><time>2016-10-08T13:20:42Z</time><course>67</course><type>18</type></trkpt>
      <trkpt lat="41.1575883" lon="-3.6069834"><ele>1336</ele><speed>37</speed><time>2016-10-08T13:20:43Z</time><course>66</course><type>18</type></trkpt>
      <trkpt lat="41.1576666" lon="-3.6067967"><ele>1337</ele><speed>38</speed><time>2016-10-08T13:20:44Z</time><course>64</course><type>18</type></trkpt>
      <trkpt lat="41.1577916" lon="-3.6066567"><ele>1338</ele><speed>40</speed><time>2016-10-08T13:20:45Z</time><course>57</course><type>18</type></trkpt>
      <trkpt lat="41.157745" lon="-3.606395"><ele>1341</ele><speed>42</speed><time>2016-10-08T13:20:46Z</time><course>65</course><type>18</type></trkpt>
      <trkpt lat="41.1575616" lon="-3.6062334"><ele>1348</ele><speed>25</speed><time>2016-10-08T13:20:49Z</time><course>76</course><type>18</type></trkpt>
      <trkpt lat="41.15746" lon="-3.6061784"><ele>1350</ele><speed>22</speed><time>2016-10-08T13:20:50Z</time><course>73</course><type>18</type></trkpt>
      <trkpt lat="41.15735" lon="-3.6061117"><ele>1353</ele><speed>19</speed><time>2016-10-08T13:20:53Z</time><course>96</course><type>18</type></trkpt>
      <trkpt lat="41.157245" lon="-3.6060667"><ele>1353</ele><speed>19</speed><time>2016-10-08T13:20:55Z</time><course>114</course><type>18</type></trkpt>
      <trkpt lat="41.1570266" lon="-3.6060617"><ele>1357</ele><speed>13</speed><time>2016-10-08T13:20:56Z</time><course>114</course><type>18</type></trkpt>
      <trkpt lat="41.1567266" lon="-3.6059017"><ele>1358</ele><speed>8</speed><time>2016-10-08T13:20:57Z</time><course>143</course><type>18</type></trkpt>
      <trkpt lat="41.1566333" lon="-3.6060534"><ele>1359</ele><speed>13</speed><time>2016-10-08T13:21:00Z</time><course>71</course><type>18</type></trkpt>
      <trkpt lat="41.1567433" lon="-3.60592"><ele>1363</ele><speed>28</speed><time>2016-10-08T13:21:07Z</time><course>83</course><type>18</type></trkpt>
      <trkpt lat="41.1566583" lon="-3.605775"><ele>1364</ele><speed>28</speed><time>2016-10-08T13:21:09Z</time><course>99</course><type>18</type></trkpt>
      <trkpt lat="41.1567783" lon="-3.60564"><ele>1367</ele><speed>26</speed><time>2016-10-08T13:21:11Z</time><course>112</course><type>18</type></trkpt>
      <trkpt lat="41.1567483" lon="-3.605455"><ele>1370</ele><speed>24</speed><time>2016-10-08T13:21:13Z</time><course>122</course><type>18</type></trkpt>
      <trkpt lat="41.156645" lon="-3.6052384"><ele>1370</ele><speed>28</speed><time>2016-10-08T13:21:15Z</time><course>115</course><type>18</type></trkpt>
      <trkpt lat="41.1565016" lon="-3.6050567"><ele>1371</ele><speed>34</speed><time>2016-10-08T13:21:16Z</time><course>122</course><type>18</type></trkpt>
      <trkpt lat="41.156425" lon="-3.604905"><ele>1372</ele><speed>29</speed><time>2016-10-08T13:21:17Z</time><course>120</course><type>18</type></trkpt>
      <trkpt lat="41.1563616" lon="-3.6047884"><ele>1372</ele><speed>24</speed><time>2016-10-08T13:21:18Z</time><course>116</course><type>18</type></trkpt>
      <trkpt lat="41.15628" lon="-3.60467"><ele>1374</ele><speed>17</speed><time>2016-10-08T13:21:20Z</time><course>103</course><type>18</type></trkpt>
      <trkpt lat="41.15614" lon="-3.6047017"><ele>1379</ele><speed>15</speed><time>2016-10-08T13:21:23Z</time><course>63</course><type>18</type></trkpt>
      <trkpt lat="41.15617" lon="-3.604885"><ele>1379</ele><speed>19</speed><time>2016-10-08T13:21:24Z</time><course>47</course><type>18</type></trkpt>
      <trkpt lat="41.156225" lon="-3.6050667"><ele>1380</ele><speed>22</speed><time>2016-10-08T13:21:26Z</time><course>31</course><type>18</type></trkpt>
      <trkpt lat="41.1562666" lon="-3.6052434"><ele>1381</ele><speed>24</speed><time>2016-10-08T13:21:27Z</time><course>23</course><type>18</type></trkpt>
      <trkpt lat="41.1563133" lon="-3.60538"><ele>1382</ele><speed>26</speed><time>2016-10-08T13:21:29Z</time><course>16</course><type>18</type></trkpt>
      <trkpt lat="41.15643" lon="-3.6054317"><ele>1383</ele><speed>26</speed><time>2016-10-08T13:21:31Z</time><course>15</course><type>18</type></trkpt>
      <trkpt lat="41.1565983" lon="-3.6056134"><ele>1384</ele><speed>28</speed><time>2016-10-08T13:21:33Z</time><course>5</course><type>18</type></trkpt>
      <trkpt lat="41.15671" lon="-3.605725"><ele>1385</ele><speed>29</speed><time>2016-10-08T13:21:35Z</time><course>1</course><type>18</type></trkpt>
      <trkpt lat="41.1567883" lon="-3.60586"><ele>1385</ele><speed>21</speed><time>2016-10-08T13:21:37Z</time><course>343</course><type>18</type></trkpt>
      <trkpt lat="41.1571116" lon="-3.6061617"><ele>1390</ele><speed>31</speed><time>2016-10-08T13:21:38Z</time><course>329</course><type>18</type></trkpt>
      <trkpt lat="41.1573666" lon="-3.606405"><ele>1394</ele><speed>34</speed><time>2016-10-08T13:21:39Z</time><course>326</course><type>18</type></trkpt>
      <trkpt lat="41.1577" lon="-3.6067284"><ele>1397</ele><speed>40</speed><time>2016-10-08T13:21:40Z</time><course>324</course><type>18</type></trkpt>
      <trkpt lat="41.1577183" lon="-3.6063217"><ele>1400</ele><speed>32</speed><time>2016-10-08T13:21:41Z</time><course>333</course><type>18</type></trkpt>
      <trkpt lat="41.1576316" lon="-3.6058334"><ele>1402</ele><speed>21</speed><time>2016-10-08T13:21:42Z</time><course>337</course><type>18</type></trkpt>
      <trkpt lat="41.1574933" lon="-3.6056417"><ele>1404</ele><speed>9</speed><time>2016-10-08T13:21:43Z</time><course>288</course><type>18</type></trkpt>
      <trkpt lat="41.1573783" lon="-3.6055534"><ele>1406</ele><speed>13</speed><time>2016-10-08T13:21:44Z</time><course>273</course><type>18</type></trkpt>
      <trkpt lat="41.157135" lon="-3.60563"><ele>1408</ele><speed>17</speed><time>2016-10-08T13:21:45Z</time><course>254</course><type>18</type></trkpt>
      <trkpt lat="41.1570316" lon="-3.6056367"><ele>1409</ele><speed>10</speed><time>2016-10-08T13:21:46Z</time><course>248</course><type>18</type></trkpt>
      <trkpt lat="41.156815" lon="-3.6056017"><ele>1411</ele><speed>11</speed><time>2016-10-08T13:21:47Z</time><course>253</course><type>18</type></trkpt>
      <trkpt lat="41.1566566" lon="-3.60557"><ele>1412</ele><speed>12</speed><time>2016-10-08T13:21:48Z</time><course>215</course><type>18</type></trkpt>
      <trkpt lat="41.1565083" lon="-3.6055284"><ele>1413</ele><speed>15</speed><time>2016-10-08T13:21:49Z</time><course>186</course><type>18</type></trkpt>
      <trkpt lat="41.15637" lon="-3.6055167"><ele>1414</ele><speed>15</speed><time>2016-10-08T13:21:50Z</time><course>208</course><type>18</type></trkpt>
      <trkpt lat="41.1562833" lon="-3.6055484"><ele>1415</ele><speed>15</speed><time>2016-10-08T13:21:51Z</time><course>242</course><type>18</type></trkpt>
      <trkpt lat="41.1562383" lon="-3.605625"><ele>1417</ele><speed>13</speed><time>2016-10-08T13:21:53Z</time><course>266</course><type>18</type></trkpt>
      <trkpt lat="41.1563116" lon="-3.605675"><ele>1419</ele><speed>14</speed><time>2016-10-08T13:21:56Z</time><course>343</course><type>18</type></trkpt>
      <trkpt lat="41.1564016" lon="-3.6056634"><ele>1421</ele><speed>19</speed><time>2016-10-08T13:21:59Z</time><course>23</course><type>18</type></trkpt>
      <trkpt lat="41.1564383" lon="-3.6055201"><ele>1423</ele><speed>32</speed><time>2016-10-08T13:22:01Z</time><course>53</course><type>18</type></trkpt>
      <trkpt lat="41.1564366" lon="-3.60537"><ele>1425</ele><speed>34</speed><time>2016-10-08T13:22:03Z</time><course>64</course><type>18</type></trkpt>
      <trkpt lat="41.1563666" lon="-3.60519"><ele>1427</ele><speed>35</speed><time>2016-10-08T13:22:05Z</time><course>79</course><type>18</type></trkpt>
      <trkpt lat="41.156115" lon="-3.6051267"><ele>1430</ele><speed>32</speed><time>2016-10-08T13:22:07Z</time><course>84</course><type>18</type></trkpt>
      <trkpt lat="41.1560533" lon="-3.6049667"><ele>1431</ele><speed>31</speed><time>2016-10-08T13:22:09Z</time><course>88</course><type>18</type></trkpt>
      <trkpt lat="41.1561216" lon="-3.6048317"><ele>1432</ele><speed>30</speed><time>2016-10-08T13:22:10Z</time><course>90</course><type>18</type></trkpt>
      <trkpt lat="41.1561616" lon="-3.6046117"><ele>1434</ele><speed>33</speed><time>2016-10-08T13:22:11Z</time><course>94</course><type>18</type></trkpt>
      <trkpt lat="41.156155" lon="-3.6044184"><ele>1435</ele><speed>36</speed><time>2016-10-08T13:22:12Z</time><course>103</course><type>18</type></trkpt>
      <trkpt lat="41.1561466" lon="-3.604145"><ele>1438</ele><speed>40</speed><time>2016-10-08T13:22:13Z</time><course>110</course><type>18</type></trkpt>
      <trkpt lat="41.1560816" lon="-3.6039917"><ele>1440</ele><speed>38</speed><time>2016-10-08T13:22:14Z</time><course>134</course><type>18</type></trkpt>
      <trkpt lat="41.1559816" lon="-3.603795"><ele>1441</ele><speed>40</speed><time>2016-10-08T13:22:15Z</time><course>131</course><type>18</type></trkpt>
      <trkpt lat="41.155825" lon="-3.6037984"><ele>1446</ele><speed>24</speed><time>2016-10-08T13:22:17Z</time><course>147</course><type>18</type></trkpt>
      <trkpt lat="41.15563" lon="-3.6039484"><ele>1448</ele><speed>25</speed><time>2016-10-08T13:22:18Z</time><course>191</course><type>18</type></trkpt>
      <trkpt lat="41.155555" lon="-3.6041367"><ele>1451</ele><speed>28</speed><time>2016-10-08T13:22:19Z</time><course>228</course><type>18</type></trkpt>
      <trkpt lat="41.155505" lon="-3.604255"><ele>1453</ele><speed>28</speed><time>2016-10-08T13:22:20Z</time><course>234</course><type>18</type></trkpt>
      <trkpt lat="41.1554816" lon="-3.6043467"><ele>1453</ele><speed>26</speed><time>2016-10-08T13:22:21Z</time><course>260</course><type>18</type></trkpt>
      <trkpt lat="41.1554533" lon="-3.604485"><ele>1455</ele><speed>28</speed><time>2016-10-08T13:22:22Z</time><course>256</course><type>18</type></trkpt>
      <trkpt lat="41.1554033" lon="-3.6046384"><ele>1456</ele><speed>31</speed><time>2016-10-08T13:22:23Z</time><course>249</course><type>18</type></trkpt>
      <trkpt lat="41.1552333" lon="-3.6047984"><ele>1460</ele><speed>34</speed><time>2016-10-08T13:22:24Z</time><course>245</course><type>18</type></trkpt>
      <trkpt lat="41.15519" lon="-3.6049734"><ele>1461</ele><speed>34</speed><time>2016-10-08T13:22:25Z</time><course>245</course><type>18</type></trkpt>
      <trkpt lat="41.1551383" lon="-3.6051117"><ele>1462</ele><speed>31</speed><time>2016-10-08T13:22:26Z</time><course>247</course><type>18</type></trkpt>
      <trkpt lat="41.155045" lon="-3.6052467"><ele>1463</ele><speed>21</speed><time>2016-10-08T13:22:28Z</time><course>244</course><type>18</type></trkpt>
      <trkpt lat="41.1549233" lon="-3.6052767"><ele>1464</ele><speed>17</speed><time>2016-10-08T13:22:30Z</time><course>218</course><type>18</type></trkpt>
      <trkpt lat="41.1547983" lon="-3.605375"><ele>1467</ele><speed>16</speed><time>2016-10-08T13:22:33Z</time><course>208</course><type>18</type></trkpt>
      <trkpt lat="41.1550399" lon="-3.6052334"><ele>1471</ele><speed>10</speed><time>2016-10-08T13:22:36Z</time><course>163</course><type>18</type></trkpt>
      <trkpt lat="41.1550416" lon="-3.60506"><ele>1472</ele><speed>15</speed><time>2016-10-08T13:22:37Z</time><course>134</course><type>18</type></trkpt>
      <trkpt lat="41.1552133" lon="-3.60477"><ele>1473</ele><speed>20</speed><time>2016-10-08T13:22:38Z</time><course>104</course><type>18</type></trkpt>
      <trkpt lat="41.15517" lon="-3.6046167"><ele>1474</ele><speed>26</speed><time>2016-10-08T13:22:39Z</time><course>104</course><type>18</type></trkpt>
      <trkpt lat="41.1549416" lon="-3.6046317"><ele>1475</ele><speed>29</speed><time>2016-10-08T13:22:40Z</time><course>103</course><type>18</type></trkpt>
      <trkpt lat="41.1551583" lon="-3.604515"><ele>1479</ele><speed>32</speed><time>2016-10-08T13:22:41Z</time><course>108</course><type>18</type></trkpt>
      <trkpt lat="41.1555366" lon="-3.6044384"><ele>1482</ele><speed>37</speed><time>2016-10-08T13:22:42Z</time><course>113</course><type>18</type></trkpt>
      <trkpt lat="41.155435" lon="-3.60464"><ele>1490</ele><speed>36</speed><time>2016-10-08T13:22:43Z</time><course>122</course><type>18</type></trkpt>
      <trkpt lat="41.1554466" lon="-3.6036384"><ele>1493</ele><speed>37</speed><time>2016-10-08T13:22:44Z</time><course>122</course><type>18</type></trkpt>
      <trkpt lat="41.1553516" lon="-3.603175"><ele>1497</ele><speed>33</speed><time>2016-10-08T13:22:45Z</time><course>121</course><type>18</type></trkpt>
      <trkpt lat="41.155205" lon="-3.60305"><ele>1502</ele><speed>24</speed><time>2016-10-08T13:22:47Z</time><course>172</course><type>18</type></trkpt>
      <trkpt lat="41.1550966" lon="-3.6031084"><ele>1509</ele><speed>20</speed><time>2016-10-08T13:22:49Z</time><course>207</course><type>18</type></trkpt>
      <trkpt lat="41.1550666" lon="-3.60324"><ele>1511</ele><speed>23</speed><time>2016-10-08T13:22:50Z</time><course>238</course><type>18</type></trkpt>
      <trkpt lat="41.154945" lon="-3.6032667"><ele>1514</ele><speed>22</speed><time>2016-10-08T13:22:51Z</time><course>251</course><type>18</type></trkpt>
      <trkpt lat="41.1548833" lon="-3.6034067"><ele>1517</ele><speed>21</speed><time>2016-10-08T13:22:53Z</time><course>259</course><type>18</type></trkpt>
      <trkpt lat="41.15489" lon="-3.60357"><ele>1520</ele><speed>22</speed><time>2016-10-08T13:22:55Z</time><course>266</course><type>18</type></trkpt>
      <trkpt lat="41.1547966" lon="-3.6037117"><ele>1525</ele><speed>20</speed><time>2016-10-08T13:22:57Z</time><course>263</course><type>18</type></trkpt>
      <trkpt lat="41.1545966" lon="-3.6036467"><ele>1529</ele><speed>18</speed><time>2016-10-08T13:22:58Z</time><course>255</course><type>18</type></trkpt>
      <trkpt lat="41.154315" lon="-3.6032934"><ele>1532</ele><speed>15</speed><time>2016-10-08T13:22:59Z</time><course>230</course><type>18</type></trkpt>
      <trkpt lat="41.154145" lon="-3.603155"><ele>1534</ele><speed>13</speed><time>2016-10-08T13:23:00Z</time><course>235</course><type>18</type></trkpt>
      <trkpt lat="41.1539216" lon="-3.6030217"><ele>1538</ele><speed>6</speed><time>2016-10-08T13:23:01Z</time><course>298</course><type>18</type></trkpt>
      <trkpt lat="41.1536766" lon="-3.6028367"><ele>1541</ele><speed>9</speed><time>2016-10-08T13:23:02Z</time><course>312</course><type>18</type></trkpt>
      <trkpt lat="41.1535199" lon="-3.6027417"><ele>1543</ele><speed>12</speed><time>2016-10-08T13:23:03Z</time><course>321</course><type>18</type></trkpt>
      <trkpt lat="41.1536766" lon="-3.6029"><ele>1548</ele><speed>24</speed><time>2016-10-08T13:23:06Z</time><course>359</course><type>18</type></trkpt>
      <trkpt lat="41.1537916" lon="-3.6029534"><ele>1549</ele><speed>26</speed><time>2016-10-08T13:23:07Z</time><course>0</course><type>18</type></trkpt>
      <trkpt lat="41.1539266" lon="-3.6029584"><ele>1553</ele><speed>26</speed><time>2016-10-08T13:23:09Z</time><course>13</course><type>18</type></trkpt>
      <trkpt lat="41.1540599" lon="-3.6028817"><ele>1556</ele><speed>31</speed><time>2016-10-08T13:23:11Z</time><course>5</course><type>18</type></trkpt>
      <trkpt lat="41.1540516" lon="-3.603175"><ele>1560</ele><speed>32</speed><time>2016-10-08T13:23:12Z</time><course>9</course><type>18</type></trkpt>
      <trkpt lat="41.154215" lon="-3.6031384"><ele>1562</ele><speed>29</speed><time>2016-10-08T13:23:14Z</time><course>1</course><type>18</type></trkpt>
      <trkpt lat="41.1541333" lon="-3.6037617"><ele>1568</ele><speed>29</speed><time>2016-10-08T13:23:15Z</time><course>356</course><type>18</type></trkpt>
      <trkpt lat="41.15265" lon="-3.6061501"><ele>1579</ele><speed>30</speed><time>2016-10-08T13:23:18Z</time><course>14</course><type>18</type></trkpt>
      <trkpt lat="41.1524" lon="-3.60582"><ele>1581</ele><speed>33</speed><time>2016-10-08T13:23:19Z</time><course>24</course><type>18</type></trkpt>
      <trkpt lat="41.1523116" lon="-3.6056017"><ele>1585</ele><speed>34</speed><time>2016-10-08T13:23:20Z</time><course>33</course><type>18</type></trkpt>
      <trkpt lat="41.1523383" lon="-3.6053884"><ele>1588</ele><speed>35</speed><time>2016-10-08T13:23:21Z</time><course>40</course><type>18</type></trkpt>
      <trkpt lat="41.15231" lon="-3.60513"><ele>1592</ele><speed>32</speed><time>2016-10-08T13:23:22Z</time><course>56</course><type>18</type></trkpt>
      <trkpt lat="41.1523616" lon="-3.6049317"><ele>1594</ele><speed>33</speed><time>2016-10-08T13:23:23Z</time><course>62</course><type>18</type></trkpt>
      <trkpt lat="41.15237" lon="-3.60475"><ele>1597</ele><speed>30</speed><time>2016-10-08T13:23:25Z</time><course>73</course><type>18</type></trkpt>
      <trkpt lat="41.1523233" lon="-3.60462"><ele>1598</ele><speed>32</speed><time>2016-10-08T13:23:26Z</time><course>84</course><type>18</type></trkpt>
      <trkpt lat="41.1523283" lon="-3.6044067"><ele>1600</ele><speed>36</speed><time>2016-10-08T13:23:27Z</time><course>87</course><type>18</type></trkpt>
      <trkpt lat="41.1523499" lon="-3.604225"><ele>1602</ele><speed>37</speed><time>2016-10-08T13:23:28Z</time><course>89</course><type>18</type></trkpt>
      <trkpt lat="41.1524066" lon="-3.6040067"><ele>1604</ele><speed>40</speed><time>2016-10-08T13:23:29Z</time><course>85</course><type>18</type></trkpt>
      <trkpt lat="41.1524066" lon="-3.6037367"><ele>1610</ele><speed>38</speed><time>2016-10-08T13:23:31Z</time><course>91</course><type>18</type></trkpt>
      <trkpt lat="41.152445" lon="-3.6035284"><ele>1616</ele><speed>34</speed><time>2016-10-08T13:23:33Z</time><course>85</course><type>18</type></trkpt>
      <trkpt lat="41.1525183" lon="-3.603375"><ele>1620</ele><speed>41</speed><time>2016-10-08T13:23:34Z</time><course>75</course><type>18</type></trkpt>
      <trkpt lat="41.1525983" lon="-3.60322"><ele>1624</ele><speed>47</speed><time>2016-10-08T13:23:35Z</time><course>69</course><type>18</type></trkpt>
      <trkpt lat="41.15269" lon="-3.60307"><ele>1628</ele><speed>47</speed><time>2016-10-08T13:23:36Z</time><course>65</course><type>18</type></trkpt>
      <trkpt lat="41.1528116" lon="-3.602955"><ele>1632</ele><speed>43</speed><time>2016-10-08T13:23:37Z</time><course>59</course><type>18</type></trkpt>
      <trkpt lat="41.1529233" lon="-3.6028534"><ele>1635</ele><speed>42</speed><time>2016-10-08T13:23:38Z</time><course>55</course><type>18</type></trkpt>
      <trkpt lat="41.1530533" lon="-3.6027784"><ele>1639</ele><speed>41</speed><time>2016-10-08T13:23:39Z</time><course>50</course><type>18</type></trkpt>
      <trkpt lat="41.1531933" lon="-3.6026934"><ele>1642</ele><speed>41</speed><time>2016-10-08T13:23:40Z</time><course>44</course><type>18</type></trkpt>
      <trkpt lat="41.15331" lon="-3.602585"><ele>1645</ele><speed>42</speed><time>2016-10-08T13:23:41Z</time><course>42</course><type>18</type></trkpt>
      <trkpt lat="41.1534316" lon="-3.6024684"><ele>1648</ele><speed>43</speed><time>2016-10-08T13:23:42Z</time><course>41</course><type>18</type></trkpt>
      <trkpt lat="41.1535633" lon="-3.60235"><ele>1650</ele><speed>46</speed><time>2016-10-08T13:23:43Z</time><course>42</course><type>18</type></trkpt>
      <trkpt lat="41.1537066" lon="-3.60225"><ele>1652</ele><speed>47</speed><time>2016-10-08T13:23:44Z</time><course>39</course><type>18</type></trkpt>
      <trkpt lat="41.15384" lon="-3.6021567"><ele>1654</ele><speed>47</speed><time>2016-10-08T13:23:45Z</time><course>38</course><type>18</type></trkpt>
      <trkpt lat="41.1539733" lon="-3.60202"><ele>1656</ele><speed>50</speed><time>2016-10-08T13:23:46Z</time><course>37</course><type>18</type></trkpt>
      <trkpt lat="41.1541266" lon="-3.601865"><ele>1658</ele><speed>55</speed><time>2016-10-08T13:23:47Z</time><course>38</course><type>18</type></trkpt>
      <trkpt lat="41.1542433" lon="-3.601695"><ele>1660</ele><speed>55</speed><time>2016-10-08T13:23:48Z</time><course>40</course><type>18</type></trkpt>
      <trkpt lat="41.1543816" lon="-3.6015034"><ele>1662</ele><speed>57</speed><time>2016-10-08T13:23:49Z</time><course>42</course><type>18</type></trkpt>
      <trkpt lat="41.1545333" lon="-3.6013367"><ele>1664</ele><speed>58</speed><time>2016-10-08T13:23:50Z</time><course>42</course><type>18</type></trkpt>
      <trkpt lat="41.154685" lon="-3.60118"><ele>1667</ele><speed>58</speed><time>2016-10-08T13:23:51Z</time><course>41</course><type>18</type></trkpt>
      <trkpt lat="41.1548266" lon="-3.601"><ele>1670</ele><speed>57</speed><time>2016-10-08T13:23:52Z</time><course>42</course><type>18</type></trkpt>
      <trkpt lat="41.1549866" lon="-3.60081"><ele>1673</ele><speed>58</speed><time>2016-10-08T13:23:53Z</time><course>41</course><type>18</type></trkpt>
      <trkpt lat="41.155135" lon="-3.600625"><ele>1676</ele><speed>58</speed><time>2016-10-08T13:23:54Z</time><course>41</course><type>18</type></trkpt>
      <trkpt lat="41.1552916" lon="-3.6004517"><ele>1679</ele><speed>58</speed><time>2016-10-08T13:23:55Z</time><course>41</course><type>18</type></trkpt>
      <trkpt lat="41.155465" lon="-3.6002934"><ele>1681</ele><speed>59</speed><time>2016-10-08T13:23:56Z</time><course>39</course><type>18</type></trkpt>
      <trkpt lat="41.155635" lon="-3.6001217"><ele>1684</ele><speed>60</speed><time>2016-10-08T13:23:57Z</time><course>39</course><type>18</type></trkpt>
      <trkpt lat="41.15573" lon="-3.6000367"><ele>1687</ele><speed>58</speed><time>2016-10-08T13:23:58Z</time><course>38</course><type>18</type></trkpt>
      <trkpt lat="41.1558766" lon="-3.5999267"><ele>1690</ele><speed>58</speed><time>2016-10-08T13:23:59Z</time><course>36</course><type>18</type></trkpt>
      <trkpt lat="41.1559983" lon="-3.5998134"><ele>1693</ele><speed>56</speed><time>2016-10-08T13:24:00Z</time><course>34</course><type>18</type></trkpt>
      <trkpt lat="41.1562816" lon="-3.5997001"><ele>1696</ele><speed>62</speed><time>2016-10-08T13:24:01Z</time><course>32</course><type>18</type></trkpt>
      <trkpt lat="41.1564066" lon="-3.5998317"><ele>1701</ele><speed>65</speed><time>2016-10-08T13:24:02Z</time><course>25</course><type>18</type></trkpt>
      <trkpt lat="41.1562733" lon="-3.5998134"><ele>1711</ele><speed>49</speed><time>2016-10-08T13:24:05Z</time><course>31</course><type>18</type></trkpt>
      <trkpt lat="41.1562883" lon="-3.59968"><ele>1716</ele><speed>43</speed><time>2016-10-08T13:24:07Z</time><course>36</course><type>18</type></trkpt>
      <trkpt lat="41.156155" lon="-3.5995617"><ele>1725</ele><speed>32</speed><time>2016-10-08T13:24:10Z</time><course>54</course><type>18</type></trkpt>
      <trkpt lat="41.1562933" lon="-3.5996117"><ele>1741</ele><speed>8</speed><time>2016-10-08T13:24:14Z</time><course>273</course><type>18</type></trkpt>
      <trkpt lat="41.156405" lon="-3.5995684"><ele>1747</ele><speed>17</speed><time>2016-10-08T13:24:16Z</time><course>308</course><type>18</type></trkpt>
      <trkpt lat="41.1565066" lon="-3.599635"><ele>1754</ele><speed>11</speed><time>2016-10-08T13:24:20Z</time><course>334</course><type>18</type></trkpt>
      <trkpt lat="41.156455" lon="-3.5997451"><ele>1760</ele><speed>12</speed><time>2016-10-08T13:24:22Z</time><course>332</course><type>18</type></trkpt>
      <trkpt lat="41.1563383" lon="-3.599785"><ele>1781</ele><speed>12</speed><time>2016-10-08T13:24:27Z</time><course>109</course><type>18</type></trkpt>
      <trkpt lat="41.1564133" lon="-3.5999784"><ele>1798</ele><speed>7</speed><time>2016-10-08T13:24:30Z</time><course>109</course><type>18</type></trkpt>
      <trkpt lat="41.15654" lon="-3.5997067"><ele>1807</ele><speed>13</speed><time>2016-10-08T13:24:31Z</time><course>88</course><type>18</type></trkpt>
      <trkpt lat="41.1566216" lon="-3.5995167"><ele>1812</ele><speed>16</speed><time>2016-10-08T13:24:32Z</time><course>80</course><type>18</type></trkpt>
      <trkpt lat="41.1566733" lon="-3.59917"><ele>1819</ele><speed>20</speed><time>2016-10-08T13:24:33Z</time><course>71</course><type>18</type></trkpt>
      <trkpt lat="41.1566" lon="-3.5986167"><ele>1825</ele><speed>24</speed><time>2016-10-08T13:24:34Z</time><course>82</course><type>18</type></trkpt>
      <trkpt lat="41.1565333" lon="-3.5984467"><ele>1829</ele><speed>26</speed><time>2016-10-08T13:24:35Z</time><course>95</course><type>18</type></trkpt>
      <trkpt lat="41.1565033" lon="-3.5982067"><ele>1834</ele><speed>32</speed><time>2016-10-08T13:24:36Z</time><course>100</course><type>18</type></trkpt>
      <trkpt lat="41.1564716" lon="-3.5979767"><ele>1837</ele><speed>30</speed><time>2016-10-08T13:24:38Z</time><course>100</course><type>18</type></trkpt>
      <trkpt lat="41.1563866" lon="-3.5977617"><ele>1840</ele><speed>35</speed><time>2016-10-08T13:24:39Z</time><course>103</course><type>18</type></trkpt>
      <trkpt lat="41.1563116" lon="-3.59759"><ele>1843</ele><speed>37</speed><time>2016-10-08T13:24:40Z</time><course>106</course><type>18</type></trkpt>
      <trkpt lat="41.15617" lon="-3.597425"><ele>1846</ele><speed>39</speed><time>2016-10-08T13:24:41Z</time><course>113</course><type>18</type></trkpt>
      <trkpt lat="41.1560666" lon="-3.5973634"><ele>1849</ele><speed>37</speed><time>2016-10-08T13:24:42Z</time><course>121</course><type>18</type></trkpt>
      <trkpt lat="41.1559316" lon="-3.5973334"><ele>1853</ele><speed>28</speed><time>2016-10-08T13:24:44Z</time><course>131</course><type>18</type></trkpt>
      <trkpt lat="41.15602" lon="-3.5974017"><ele>1865</ele><speed>18</speed><time>2016-10-08T13:24:49Z</time><course>68</course><type>18</type></trkpt>
      <trkpt lat="41.1561566" lon="-3.5974084"><ele>1867</ele><speed>21</speed><time>2016-10-08T13:24:50Z</time><course>55</course><type>18</type></trkpt>
      <trkpt lat="41.15592" lon="-3.59775"><ele>1877</ele><speed>20</speed><time>2016-10-08T13:24:51Z</time><course>58</course><type>18</type></trkpt>
      <trkpt lat="41.1555866" lon="-3.5981684"><ele>1883</ele><speed>19</speed><time>2016-10-08T13:24:52Z</time><course>46</course><type>18</type></trkpt>
      <trkpt lat="41.15571" lon="-3.5981134"><ele>1892</ele><speed>24</speed><time>2016-10-08T13:24:56Z</time><course>51</course><type>18</type></trkpt>
      <trkpt lat="41.1557233" lon="-3.5979617"><ele>1898</ele><speed>17</speed><time>2016-10-08T13:25:00Z</time><course>62</course><type>18</type></trkpt>
      <trkpt lat="41.1555933" lon="-3.5982467"><ele>1909</ele><speed>17</speed><time>2016-10-08T13:25:03Z</time><course>101</course><type>18</type></trkpt>
      <trkpt lat="41.1555866" lon="-3.598645"><ele>1916</ele><speed>13</speed><time>2016-10-08T13:25:04Z</time><course>122</course><type>18</type></trkpt>
      <trkpt lat="41.1557466" lon="-3.5988551"><ele>1924</ele><speed>10</speed><time>2016-10-08T13:25:05Z</time><course>139</course><type>18</type></trkpt>
      <trkpt lat="41.1561216" lon="-3.598755"><ele>1933</ele><speed>7</speed><time>2016-10-08T13:25:06Z</time><course>133</course><type>18</type></trkpt>
      <trkpt lat="41.15629" lon="-3.59876"><ele>1940</ele><speed>0</speed><time>2016-10-08T13:25:07Z</time><course>133</course><type>18</type></trkpt>
      <trkpt lat="41.15617" lon="-3.5986217"><ele>1947</ele><speed>31</speed><time>2016-10-08T13:25:08Z</time><course>181</course><type>18</type></trkpt>
      <trkpt lat="41.1561033" lon="-3.5984517"><ele>1958</ele><speed>32</speed><time>2016-10-08T13:25:10Z</time><course>178</course><type>18</type></trkpt>
      <trkpt lat="41.1559883" lon="-3.5981467"><ele>1968</ele><speed>27</speed><time>2016-10-08T13:25:12Z</time><course>170</course><type>18</type></trkpt>
      <trkpt lat="41.1559116" lon="-3.5980117"><ele>1975</ele><speed>31</speed><time>2016-10-08T13:25:13Z</time><course>181</course><type>18</type></trkpt>
      <trkpt lat="41.1558516" lon="-3.5979167"><ele>1985</ele><speed>20</speed><time>2016-10-08T13:25:15Z</time><course>227</course><type>18</type></trkpt>
      <trkpt lat="41.155755" lon="-3.5978317"><ele>1990</ele><speed>17</speed><time>2016-10-08T13:25:16Z</time><course>235</course><type>18</type></trkpt>
      <trkpt lat="41.155695" lon="-3.5977734"><ele>1994</ele><speed>15</speed><time>2016-10-08T13:25:17Z</time><course>240</course><type>18</type></trkpt>
      <trkpt lat="41.155785" lon="-3.5977084"><ele>2008</ele><speed>18</speed><time>2016-10-08T13:25:21Z</time><course>333</course><type>18</type></trkpt>
      <trkpt lat="41.1559366" lon="-3.59765"><ele>2013</ele><speed>26</speed><time>2016-10-08T13:25:23Z</time><course>357</course><type>18</type></trkpt>
      <trkpt lat="41.1559816" lon="-3.5977317"><ele>2025</ele><speed>31</speed><time>2016-10-08T13:25:25Z</time><course>21</course><type>18</type></trkpt>
      <trkpt lat="41.15604" lon="-3.5978367"><ele>2043</ele><speed>29</speed><time>2016-10-08T13:25:28Z</time><course>26</course><type>18</type></trkpt>
      <trkpt lat="41.156105" lon="-3.5979517"><ele>2050</ele><speed>25</speed><time>2016-10-08T13:25:30Z</time><course>16</course><type>18</type></trkpt>
      <trkpt lat="41.1561366" lon="-3.5980834"><ele>2057</ele><speed>26</speed><time>2016-10-08T13:25:31Z</time><course>24</course><type>18</type></trkpt>
      <trkpt lat="41.156215" lon="-3.5981517"><ele>2065</ele><speed>27</speed><time>2016-10-08T13:25:33Z</time><course>31</course><type>18</type></trkpt>
      <trkpt lat="41.1563449" lon="-3.598155"><ele>2073</ele><speed>25</speed><time>2016-10-08T13:25:35Z</time><course>27</course><type>18</type></trkpt>
      <trkpt lat="41.15652" lon="-3.5982017"><ele>2077</ele><speed>28</speed><time>2016-10-08T13:25:36Z</time><course>15</course><type>18</type></trkpt>
      <trkpt lat="41.156565" lon="-3.5981"><ele>2086</ele><speed>14</speed><time>2016-10-08T13:25:38Z</time><course>28</course><type>18</type></trkpt>
      <trkpt lat="41.1564616" lon="-3.5980767"><ele>2093</ele><speed>0</speed><time>2016-10-08T13:25:40Z</time><course>12</course><type>18</type></trkpt>
      <trkpt lat="41.1562766" lon="-3.5980617"><ele>2098</ele><speed>29</speed><time>2016-10-08T13:25:41Z</time><course>192</course><type>18</type></trkpt>
      <trkpt lat="41.1562016" lon="-3.5979817"><ele>2104</ele><speed>28</speed><time>2016-10-08T13:25:42Z</time><course>199</course><type>18</type></trkpt>
      <trkpt lat="41.1560749" lon="-3.597815"><ele>2110</ele><speed>30</speed><time>2016-10-08T13:25:43Z</time><course>191</course><type>18</type></trkpt>
      <trkpt lat="41.1559566" lon="-3.5977034"><ele>2117</ele><speed>33</speed><time>2016-10-08T13:25:44Z</time><course>206</course><type>18</type></trkpt>
      <trkpt lat="41.1558133" lon="-3.5976034"><ele>2122</ele><speed>34</speed><time>2016-10-08T13:25:45Z</time><course>198</course><type>18</type></trkpt>
      <trkpt lat="41.1557466" lon="-3.59756"><ele>2127</ele><speed>28</speed><time>2016-10-08T13:25:46Z</time><course>226</course><type>18</type></trkpt>
      <trkpt lat="41.1556716" lon="-3.5975317"><ele>2145</ele><speed>24</speed><time>2016-10-08T13:25:49Z</time><course>299</course><type>18</type></trkpt>
      <trkpt lat="41.1557616" lon="-3.59753"><ele>2165</ele><speed>25</speed><time>2016-10-08T13:25:54Z</time><course>350</course><type>18</type></trkpt>
      <trkpt lat="41.155825" lon="-3.5974684"><ele>2180</ele><speed>34</speed><time>2016-10-08T13:25:57Z</time><course>43</course><type>18</type></trkpt>
      <trkpt lat="41.1558733" lon="-3.5973784"><ele>2190</ele><speed>40</speed><time>2016-10-08T13:25:59Z</time><course>55</course><type>18</type></trkpt>
      <trkpt lat="41.1559383" lon="-3.597245"><ele>2202</ele><speed>50</speed><time>2016-10-08T13:26:01Z</time><course>60</course><type>18</type></trkpt>
      <trkpt lat="41.1559766" lon="-3.5971184"><ele>2205</ele><speed>48</speed><time>2016-10-08T13:26:02Z</time><course>63</course><type>18</type></trkpt>
      <trkpt lat="41.1560716" lon="-3.5970017"><ele>2211</ele><speed>41</speed><time>2016-10-08T13:26:04Z</time><course>57</course><type>18</type></trkpt>
      <trkpt lat="41.1561166" lon="-3.5969167"><ele>2213</ele><speed>38</speed><time>2016-10-08T13:26:05Z</time><course>58</course><type>18</type></trkpt>
      <trkpt lat="41.156005" lon="-3.5970284"><ele>2222</ele><speed>10</speed><time>2016-10-08T13:26:08Z</time><course>76</course><type>18</type></trkpt>
      <trkpt lat="41.1559583" lon="-3.596875"><ele>2229</ele><speed>17</speed><time>2016-10-08T13:26:10Z</time><course>112</course><type>18</type></trkpt>
      <trkpt lat="41.155815" lon="-3.5966984"><ele>2236</ele><speed>22</speed><time>2016-10-08T13:26:12Z</time><course>144</course><type>18</type></trkpt>
      <trkpt lat="41.155725" lon="-3.5966934"><ele>2241</ele><speed>23</speed><time>2016-10-08T13:26:13Z</time><course>195</course><type>18</type></trkpt>
      <trkpt lat="41.1556466" lon="-3.5965667"><ele>2246</ele><speed>22</speed><time>2016-10-08T13:26:14Z</time><course>204</course><type>18</type></trkpt>
      <trkpt lat="41.1555666" lon="-3.59652"><ele>2251</ele><speed>23</speed><time>2016-10-08T13:26:15Z</time><course>241</course><type>18</type></trkpt>
      <trkpt lat="41.1555116" lon="-3.5967017"><ele>2264</ele><speed>20</speed><time>2016-10-08T13:26:20Z</time><course>275</course><type>18</type></trkpt>
      <trkpt lat="41.1554916" lon="-3.5968684"><ele>2270</ele><speed>20</speed><time>2016-10-08T13:26:22Z</time><course>282</course><type>18</type></trkpt>
      <trkpt lat="41.155495" lon="-3.597015"><ele>2273</ele><speed>20</speed><time>2016-10-08T13:26:24Z</time><course>304</course><type>18</type></trkpt>
      <trkpt lat="41.1554383" lon="-3.597195"><ele>2279</ele><speed>20</speed><time>2016-10-08T13:26:25Z</time><course>303</course><type>18</type></trkpt>
      <trkpt lat="41.1554233" lon="-3.5973"><ele>2282</ele><speed>21</speed><time>2016-10-08T13:26:26Z</time><course>307</course><type>18</type></trkpt>
      <trkpt lat="41.1553816" lon="-3.5970717"><ele>2292</ele><speed>23</speed><time>2016-10-08T13:26:30Z</time><course>80</course><type>18</type></trkpt>
      <trkpt lat="41.1550916" lon="-3.5963567"><ele>2298</ele><speed>35</speed><time>2016-10-08T13:26:32Z</time><course>116</course><type>18</type></trkpt>
      <trkpt lat="41.1550383" lon="-3.5962867"><ele>2300</ele><speed>35</speed><time>2016-10-08T13:26:33Z</time><course>123</course><type>18</type></trkpt>
      <trkpt lat="41.1549183" lon="-3.5961667"><ele>2303</ele><speed>36</speed><time>2016-10-08T13:26:35Z</time><course>146</course><type>18</type></trkpt>
      <trkpt lat="41.154845" lon="-3.5961367"><ele>2304</ele><speed>35</speed><time>2016-10-08T13:26:36Z</time><course>168</course><type>18</type></trkpt>
      <trkpt lat="41.1547583" lon="-3.5961367"><ele>2306</ele><speed>36</speed><time>2016-10-08T13:26:37Z</time><course>177</course><type>18</type></trkpt>
      <trkpt lat="41.1546783" lon="-3.5961417"><ele>2307</ele><speed>35</speed><time>2016-10-08T13:26:38Z</time><course>179</course><type>18</type></trkpt>
      <trkpt lat="41.1546116" lon="-3.596015"><ele>2311</ele><speed>33</speed><time>2016-10-08T13:26:39Z</time><course>173</course><type>18</type></trkpt>
      <trkpt lat="41.1545833" lon="-3.5957867"><ele>2316</ele><speed>31</speed><time>2016-10-08T13:26:40Z</time><course>150</course><type>18</type></trkpt>
      <trkpt lat="41.1545233" lon="-3.5955267"><ele>2321</ele><speed>35</speed><time>2016-10-08T13:26:41Z</time><course>141</course><type>18</type></trkpt>
      <trkpt lat="41.15448" lon="-3.5953267"><ele>2325</ele><speed>37</speed><time>2016-10-08T13:26:42Z</time><course>132</course><type>18</type></trkpt>
      <trkpt lat="41.1544383" lon="-3.5951934"><ele>2328</ele><speed>36</speed><time>2016-10-08T13:26:43Z</time><course>126</course><type>18</type></trkpt>
      <trkpt lat="41.1544466" lon="-3.5953834"><ele>2338</ele><speed>24</speed><time>2016-10-08T13:26:46Z</time><course>296</course><type>18</type></trkpt>
      <trkpt lat="41.1545283" lon="-3.595495"><ele>2342</ele><speed>23</speed><time>2016-10-08T13:26:48Z</time><course>308</course><type>18</type></trkpt>
      <trkpt lat="41.1545833" lon="-3.595525"><ele>2344</ele><speed>23</speed><time>2016-10-08T13:26:49Z</time><course>320</course><type>18</type></trkpt>
      <trkpt lat="41.1546566" lon="-3.59553"><ele>2346</ele><speed>26</speed><time>2016-10-08T13:26:50Z</time><course>347</course><type>18</type></trkpt>
      <trkpt lat="41.1547366" lon="-3.595525"><ele>2345</ele><speed>28</speed><time>2016-10-08T13:26:51Z</time><course>350</course><type>18</type></trkpt>
      <trkpt lat="41.154785" lon="-3.595485"><ele>2348</ele><speed>23</speed><time>2016-10-08T13:26:52Z</time><course>14</course><type>18</type></trkpt>
      <trkpt lat="41.15484" lon="-3.5954634"><ele>2349</ele><speed>23</speed><time>2016-10-08T13:26:53Z</time><course>17</course><type>18</type></trkpt>
      <trkpt lat="41.1549616" lon="-3.59543"><ele>2352</ele><speed>24</speed><time>2016-10-08T13:26:55Z</time><course>13</course><type>18</type></trkpt>
      <trkpt lat="41.1550916" lon="-3.59539"><ele>2354</ele><speed>24</speed><time>2016-10-08T13:26:57Z</time><course>13</course><type>18</type></trkpt>
      <trkpt lat="41.1551566" lon="-3.5953217"><ele>2356</ele><speed>17</speed><time>2016-10-08T13:26:59Z</time><course>23</course><type>18</type></trkpt>
      <trkpt lat="41.1551833" lon="-3.5952017"><ele>2358</ele><speed>16</speed><time>2016-10-08T13:27:01Z</time><course>49</course><type>18</type></trkpt>
      <trkpt lat="41.1552216" lon="-3.5949734"><ele>2362</ele><speed>15</speed><time>2016-10-08T13:27:04Z</time><course>64</course><type>18</type></trkpt>
      <trkpt lat="41.155225" lon="-3.5948517"><ele>2363</ele><speed>15</speed><time>2016-10-08T13:27:05Z</time><course>71</course><type>18</type></trkpt>
      <trkpt lat="41.15516" lon="-3.5947334"><ele>2365</ele><speed>16</speed><time>2016-10-08T13:27:06Z</time><course>91</course><type>18</type></trkpt>
      <trkpt lat="41.1549666" lon="-3.5945617"><ele>2366</ele><speed>25</speed><time>2016-10-08T13:27:07Z</time><course>135</course><type>18</type></trkpt>
      <trkpt lat="41.15478" lon="-3.5942784"><ele>2370</ele><speed>27</speed><time>2016-10-08T13:27:09Z</time><course>136</course><type>18</type></trkpt>
      <trkpt lat="41.154715" lon="-3.594205"><ele>2372</ele><speed>14</speed><time>2016-10-08T13:27:11Z</time><course>115</course><type>18</type></trkpt>
      <trkpt lat="41.1546316" lon="-3.5943134"><ele>2376</ele><speed>12</speed><time>2016-10-08T13:27:15Z</time><course>267</course><type>18</type></trkpt>
      <trkpt lat="41.1546533" lon="-3.594445"><ele>2378</ele><speed>17</speed><time>2016-10-08T13:27:17Z</time><course>289</course><type>18</type></trkpt>
      <trkpt lat="41.1547266" lon="-3.59457"><ele>2380</ele><speed>22</speed><time>2016-10-08T13:27:19Z</time><course>319</course><type>18</type></trkpt>
      <trkpt lat="41.1548316" lon="-3.594665"><ele>2383</ele><speed>22</speed><time>2016-10-08T13:27:21Z</time><course>345</course><type>18</type></trkpt>
      <trkpt lat="41.1549216" lon="-3.5947117"><ele>2386</ele><speed>20</speed><time>2016-10-08T13:27:23Z</time><course>354</course><type>18</type></trkpt>
      <trkpt lat="41.1550166" lon="-3.59474"><ele>2388</ele><speed>19</speed><time>2016-10-08T13:27:25Z</time><course>352</course><type>18</type></trkpt>
      <trkpt lat="41.155145" lon="-3.5947634"><ele>2391</ele><speed>24</speed><time>2016-10-08T13:27:27Z</time><course>356</course><type>18</type></trkpt>
      <trkpt lat="41.1552716" lon="-3.5948217"><ele>2393</ele><speed>27</speed><time>2016-10-08T13:27:29Z</time><course>349</course><type>18</type></trkpt>
      <trkpt lat="41.1553483" lon="-3.59484"><ele>2394</ele><speed>29</speed><time>2016-10-08T13:27:30Z</time><course>354</course><type>18</type></trkpt>
      <trkpt lat="41.15547" lon="-3.5948334"><ele>2397</ele><speed>28</speed><time>2016-10-08T13:27:32Z</time><course>4</course><type>18</type></trkpt>
      <trkpt lat="41.15557" lon="-3.5947484"><ele>2399</ele><speed>17</speed><time>2016-10-08T13:27:35Z</time><course>30</course><type>18</type></trkpt>
      <trkpt lat="41.1555416" lon="-3.5945934"><ele>2400</ele><speed>18</speed><time>2016-10-08T13:27:36Z</time><course>52</course><type>18</type></trkpt>
      <trkpt lat="41.1554866" lon="-3.5943484"><ele>2402</ele><speed>21</speed><time>2016-10-08T13:27:38Z</time><course>83</course><type>18</type></trkpt>
      <trkpt lat="41.1554816" lon="-3.5941517"><ele>2404</ele><speed>26</speed><time>2016-10-08T13:27:39Z</time><course>93</course><type>18</type></trkpt>
      <trkpt lat="41.1554166" lon="-3.5939967"><ele>2405</ele><speed>27</speed><time>2016-10-08T13:27:40Z</time><course>103</course><type>18</type></trkpt>
      <trkpt lat="41.1553566" lon="-3.5938767"><ele>2407</ele><speed>24</speed><time>2016-10-08T13:27:41Z</time><course>106</course><type>18</type></trkpt>
      <trkpt lat="41.1552616" lon="-3.5937901"><ele>2410</ele><speed>25</speed><time>2016-10-08T13:27:42Z</time><course>118</course><type>18</type></trkpt>
      <trkpt lat="41.1551866" lon="-3.5937567"><ele>2411</ele><speed>24</speed><time>2016-10-08T13:27:43Z</time><course>133</course><type>18</type></trkpt>
      <trkpt lat="41.1550483" lon="-3.5938034"><ele>2413</ele><speed>31</speed><time>2016-10-08T13:27:44Z</time><course>168</course><type>18</type></trkpt>
      <trkpt lat="41.1549683" lon="-3.5938867"><ele>2415</ele><speed>29</speed><time>2016-10-08T13:27:45Z</time><course>210</course><type>18</type></trkpt>
      <trkpt lat="41.1548366" lon="-3.5939084"><ele>2418</ele><speed>28</speed><time>2016-10-08T13:27:46Z</time><course>211</course><type>18</type></trkpt>
      <trkpt lat="41.1547183" lon="-3.5939284"><ele>2421</ele><speed>26</speed><time>2016-10-08T13:27:47Z</time><course>211</course><type>18</type></trkpt>
      <trkpt lat="41.1546449" lon="-3.5939767"><ele>2423</ele><speed>22</speed><time>2016-10-08T13:27:48Z</time><course>211</course><type>18</type></trkpt>
      <trkpt lat="41.1546083" lon="-3.5941034"><ele>2428</ele><speed>14</speed><time>2016-10-08T13:27:50Z</time><course>236</course><type>18</type></trkpt>
      <trkpt lat="41.15465" lon="-3.5941784"><ele>2431</ele><speed>14</speed><time>2016-10-08T13:27:51Z</time><course>281</course><type>18</type></trkpt>
      <trkpt lat="41.1547433" lon="-3.5942717"><ele>2434</ele><speed>26</speed><time>2016-10-08T13:27:52Z</time><course>312</course><type>18</type></trkpt>
      <trkpt lat="41.15483" lon="-3.5943567"><ele>2437</ele><speed>29</speed><time>2016-10-08T13:27:53Z</time><course>323</course><type>18</type></trkpt>
      <trkpt lat="41.1548933" lon="-3.594415"><ele>2438</ele><speed>29</speed><time>2016-10-08T13:27:54Z</time><course>327</course><type>18</type></trkpt>
      <trkpt lat="41.1549566" lon="-3.5944717"><ele>2440</ele><speed>29</speed><time>2016-10-08T13:27:55Z</time><course>329</course><type>18</type></trkpt>
      <trkpt lat="41.1550216" lon="-3.59452"><ele>2442</ele><speed>28</speed><time>2016-10-08T13:27:56Z</time><course>332</course><type>18</type></trkpt>
      <trkpt lat="41.1550916" lon="-3.5945367"><ele>2441</ele><speed>29</speed><time>2016-10-08T13:27:57Z</time><course>337</course><type>18</type></trkpt>
      <trkpt lat="41.1551666" lon="-3.5945684"><ele>2442</ele><speed>30</speed><time>2016-10-08T13:27:58Z</time><course>338</course><type>18</type></trkpt>
      <trkpt lat="41.1552466" lon="-3.5946084"><ele>2444</ele><speed>32</speed><time>2016-10-08T13:27:59Z</time><course>337</course><type>18</type></trkpt>
      <trkpt lat="41.155335" lon="-3.5946484"><ele>2445</ele><speed>34</speed><time>2016-10-08T13:28:00Z</time><course>338</course><type>18</type></trkpt>
      <trkpt lat="41.155425" lon="-3.5947017"><ele>2446</ele><speed>36</speed><time>2016-10-08T13:28:01Z</time><course>337</course><type>18</type></trkpt>
      <trkpt lat="41.1555133" lon="-3.594755"><ele>2447</ele><speed>36</speed><time>2016-10-08T13:28:02Z</time><course>336</course><type>18</type></trkpt>
      <trkpt lat="41.1555933" lon="-3.594845"><ele>2448</ele><speed>36</speed><time>2016-10-08T13:28:03Z</time><course>332</course><type>18</type></trkpt>
      <trkpt lat="41.1557416" lon="-3.59499"><ele>2451</ele><speed>36</speed><time>2016-10-08T13:28:05Z</time><course>332</course><type>18</type></trkpt>
      <trkpt lat="41.1558383" lon="-3.5950567"><ele>2452</ele><speed>38</speed><time>2016-10-08T13:28:06Z</time><course>336</course><type>18</type></trkpt>
      <trkpt lat="41.1559916" lon="-3.5951084"><ele>2455</ele><speed>35</speed><time>2016-10-08T13:28:08Z</time><course>342</course><type>18</type></trkpt>
      <trkpt lat="41.1561516" lon="-3.5951167"><ele>2458</ele><speed>33</speed><time>2016-10-08T13:28:10Z</time><course>351</course><type>18</type></trkpt>
      <trkpt lat="41.1563033" lon="-3.5950984"><ele>2460</ele><speed>33</speed><time>2016-10-08T13:28:12Z</time><course>359</course><type>18</type></trkpt>
      <trkpt lat="41.1564516" lon="-3.59503"><ele>2463</ele><speed>33</speed><time>2016-10-08T13:28:14Z</time><course>8</course><type>18</type></trkpt>
      <trkpt lat="41.1565966" lon="-3.5949667"><ele>2466</ele><speed>33</speed><time>2016-10-08T13:28:16Z</time><course>12</course><type>18</type></trkpt>
      <trkpt lat="41.1567333" lon="-3.594905"><ele>2468</ele><speed>31</speed><time>2016-10-08T13:28:18Z</time><course>13</course><type>18</type></trkpt>
      <trkpt lat="41.1568766" lon="-3.5948701"><ele>2470</ele><speed>31</speed><time>2016-10-08T13:28:20Z</time><course>11</course><type>18</type></trkpt>
      <trkpt lat="41.157015" lon="-3.5948284"><ele>2472</ele><speed>29</speed><time>2016-10-08T13:28:22Z</time><course>11</course><type>18</type></trkpt>
      <trkpt lat="41.157125" lon="-3.5947817"><ele>2475</ele><speed>31</speed><time>2016-10-08T13:28:24Z</time><course>23</course><type>18</type></trkpt>
      <trkpt lat="41.1572333" lon="-3.5946767"><ele>2478</ele><speed>35</speed><time>2016-10-08T13:28:26Z</time><course>29</course><type>18</type></trkpt>
      <trkpt lat="41.1572866" lon="-3.594565"><ele>2481</ele><speed>39</speed><time>2016-10-08T13:28:28Z</time><course>29</course><type>18</type></trkpt>
      <trkpt lat="41.1573966" lon="-3.5944467"><ele>2483</ele><speed>41</speed><time>2016-10-08T13:28:30Z</time><course>28</course><type>18</type></trkpt>
      <trkpt lat="41.15756" lon="-3.5943384"><ele>2485</ele><speed>42</speed><time>2016-10-08T13:28:32Z</time><course>25</course><type>18</type></trkpt>
      <trkpt lat="41.1577016" lon="-3.5942567"><ele>2487</ele><speed>56</speed><time>2016-10-08T13:28:33Z</time><course>26</course><type>18</type></trkpt>
      <trkpt lat="41.1578" lon="-3.5941834"><ele>2488</ele><speed>50</speed><time>2016-10-08T13:28:34Z</time><course>25</course><type>18</type></trkpt>
      <trkpt lat="41.1579033" lon="-3.5940984"><ele>2489</ele><speed>51</speed><time>2016-10-08T13:28:35Z</time><course>23</course><type>18</type></trkpt>
      <trkpt lat="41.1579983" lon="-3.59404"><ele>2490</ele><speed>50</speed><time>2016-10-08T13:28:36Z</time><course>22</course><type>18</type></trkpt>
      <trkpt lat="41.1580833" lon="-3.5939934"><ele>2491</ele><speed>48</speed><time>2016-10-08T13:28:37Z</time><course>20</course><type>18</type></trkpt>
      <trkpt lat="41.1581633" lon="-3.593895"><ele>2494</ele><speed>37</speed><time>2016-10-08T13:28:39Z</time><course>22</course><type>18</type></trkpt>
      <trkpt lat="41.1582516" lon="-3.593795"><ele>2496</ele><speed>36</speed><time>2016-10-08T13:28:41Z</time><course>26</course><type>18</type></trkpt>
      <trkpt lat="41.1583616" lon="-3.5936984"><ele>2499</ele><speed>34</speed><time>2016-10-08T13:28:43Z</time><course>28</course><type>18</type></trkpt>
      <trkpt lat="41.1584666" lon="-3.5935717"><ele>2501</ele><speed>33</speed><time>2016-10-08T13:28:45Z</time><course>33</course><type>18</type></trkpt>
      <trkpt lat="41.1585216" lon="-3.59349"><ele>2502</ele><speed>34</speed><time>2016-10-08T13:28:46Z</time><course>33</course><type>18</type></trkpt>
      <trkpt lat="41.1585766" lon="-3.5933784"><ele>2504</ele><speed>35</speed><time>2016-10-08T13:28:47Z</time><course>31</course><type>18</type></trkpt>
      <trkpt lat="41.1586366" lon="-3.5932734"><ele>2506</ele><speed>34</speed><time>2016-10-08T13:28:48Z</time><course>29</course><type>18</type></trkpt>
      <trkpt lat="41.158705" lon="-3.5931984"><ele>2508</ele><speed>36</speed><time>2016-10-08T13:28:49Z</time><course>29</course><type>18</type></trkpt>
      <trkpt lat="41.1587866" lon="-3.5931184"><ele>2509</ele><speed>40</speed><time>2016-10-08T13:28:50Z</time><course>29</course><type>18</type></trkpt>
      <trkpt lat="41.1588683" lon="-3.593045"><ele>2511</ele><speed>39</speed><time>2016-10-08T13:28:51Z</time><course>28</course><type>18</type></trkpt>
      <trkpt lat="41.1589333" lon="-3.5929884"><ele>2512</ele><speed>36</speed><time>2016-10-08T13:28:52Z</time><course>26</course><type>18</type></trkpt>
      <trkpt lat="41.15906" lon="-3.5929234"><ele>2514</ele><speed>32</speed><time>2016-10-08T13:28:54Z</time><course>23</course><type>18</type></trkpt>
      <trkpt lat="41.1591983" lon="-3.5928684"><ele>2516</ele><speed>28</speed><time>2016-10-08T13:28:56Z</time><course>19</course><type>18</type></trkpt>
      <trkpt lat="41.159315" lon="-3.5928384"><ele>2517</ele><speed>23</speed><time>2016-10-08T13:28:58Z</time><course>14</course><type>18</type></trkpt>
      <trkpt lat="41.1594683" lon="-3.5928717"><ele>2519</ele><speed>23</speed><time>2016-10-08T13:29:00Z</time><course>9</course><type>18</type></trkpt>
      <trkpt lat="41.1595166" lon="-3.5927484"><ele>2522</ele><speed>23</speed><time>2016-10-08T13:29:03Z</time><course>27</course><type>18</type></trkpt>
      <trkpt lat="41.159605" lon="-3.59266"><ele>2524</ele><speed>22</speed><time>2016-10-08T13:29:05Z</time><course>31</course><type>18</type></trkpt>
      <trkpt lat="41.1597333" lon="-3.5925317"><ele>2526</ele><speed>35</speed><time>2016-10-08T13:29:07Z</time><course>32</course><type>18</type></trkpt>
      <trkpt lat="41.15987" lon="-3.5923934"><ele>2528</ele><speed>33</speed><time>2016-10-08T13:29:09Z</time><course>32</course><type>18</type></trkpt>
      <trkpt lat="41.1599283" lon="-3.5922701"><ele>2530</ele><speed>27</speed><time>2016-10-08T13:29:11Z</time><course>35</course><type>18</type></trkpt>
      <trkpt lat="41.1600316" lon="-3.59214"><ele>2533</ele><speed>25</speed><time>2016-10-08T13:29:14Z</time><course>33</course><type>18</type></trkpt>
      <trkpt lat="41.1601316" lon="-3.5920284"><ele>2535</ele><speed>31</speed><time>2016-10-08T13:29:16Z</time><course>32</course><type>18</type></trkpt>
      <trkpt lat="41.1602466" lon="-3.5918917"><ele>2537</ele><speed>32</speed><time>2016-10-08T13:29:18Z</time><course>32</course><type>18</type></trkpt>
      <trkpt lat="41.16039" lon="-3.59174"><ele>2540</ele><speed>33</speed><time>2016-10-08T13:29:20Z</time><course>30</course><type>18</type></trkpt>
      <trkpt lat="41.1604533" lon="-3.591625"><ele>2541</ele><speed>35</speed><time>2016-10-08T13:29:21Z</time><course>29</course><type>18</type></trkpt>
      <trkpt lat="41.1605283" lon="-3.5915184"><ele>2542</ele><speed>36</speed><time>2016-10-08T13:29:22Z</time><course>31</course><type>18</type></trkpt>
      <trkpt lat="41.1606433" lon="-3.5914567"><ele>2543</ele><speed>39</speed><time>2016-10-08T13:29:23Z</time><course>30</course><type>18</type></trkpt>
      <trkpt lat="41.1607616" lon="-3.5913967"><ele>2544</ele><speed>45</speed><time>2016-10-08T13:29:24Z</time><course>30</course><type>18</type></trkpt>
      <trkpt lat="41.1608816" lon="-3.5913367"><ele>2545</ele><speed>45</speed><time>2016-10-08T13:29:25Z</time><course>28</course><type>18</type></trkpt>
      <trkpt lat="41.1609883" lon="-3.5912867"><ele>2546</ele><speed>45</speed><time>2016-10-08T13:29:26Z</time><course>25</course><type>18</type></trkpt>
      <trkpt lat="41.161085" lon="-3.59127"><ele>2547</ele><speed>43</speed><time>2016-10-08T13:29:27Z</time><course>20</course><type>18</type></trkpt>
      <trkpt lat="41.1612033" lon="-3.5912717"><ele>2548</ele><speed>43</speed><time>2016-10-08T13:29:28Z</time><course>15</course><type>18</type></trkpt>
      <trkpt lat="41.16133" lon="-3.5912917"><ele>2549</ele><speed>42</speed><time>2016-10-08T13:29:29Z</time><course>10</course><type>18</type></trkpt>
      <trkpt lat="41.1614766" lon="-3.5913017"><ele>2550</ele><speed>50</speed><time>2016-10-08T13:29:30Z</time><course>11</course><type>18</type></trkpt>
      <trkpt lat="41.16162" lon="-3.5912917"><ele>2551</ele><speed>55</speed><time>2016-10-08T13:29:31Z</time><course>12</course><type>18</type></trkpt>
      <trkpt lat="41.16178" lon="-3.59132"><ele>2552</ele><speed>60</speed><time>2016-10-08T13:29:32Z</time><course>7</course><type>18</type></trkpt>
      <trkpt lat="41.1619016" lon="-3.5913184"><ele>2552</ele><speed>60</speed><time>2016-10-08T13:29:33Z</time><course>6</course><type>18</type></trkpt>
      <trkpt lat="41.1620166" lon="-3.5913184"><ele>2553</ele><speed>59</speed><time>2016-10-08T13:29:34Z</time><course>4</course><type>18</type></trkpt>
      <trkpt lat="41.162125" lon="-3.591325"><ele>2554</ele><speed>58</speed><time>2016-10-08T13:29:35Z</time><course>2</course><type>18</type></trkpt>
      <trkpt lat="41.16221" lon="-3.5913084"><ele>2555</ele><speed>56</speed><time>2016-10-08T13:29:36Z</time><course>5</course><type>18</type></trkpt>
      <trkpt lat="41.1623433" lon="-3.5911734"><ele>2556</ele><speed>56</speed><time>2016-10-08T13:29:38Z</time><course>18</course><type>18</type></trkpt>
      <trkpt lat="41.162385" lon="-3.5910767"><ele>2556</ele><speed>52</speed><time>2016-10-08T13:29:39Z</time><course>25</course><type>18</type></trkpt>
      <trkpt lat="41.16246" lon="-3.5909584"><ele>2557</ele><speed>53</speed><time>2016-10-08T13:29:40Z</time><course>30</course><type>18</type></trkpt>
      <trkpt lat="41.1624883" lon="-3.5908367"><ele>2558</ele><speed>49</speed><time>2016-10-08T13:29:41Z</time><course>37</course><type>18</type></trkpt>
      <trkpt lat="41.1625333" lon="-3.5907234"><ele>2559</ele><speed>47</speed><time>2016-10-08T13:29:42Z</time><course>42</course><type>18</type></trkpt>
      <trkpt lat="41.1624583" lon="-3.5906034"><ele>2560</ele><speed>41</speed><time>2016-10-08T13:29:43Z</time><course>53</course><type>18</type></trkpt>
      <trkpt lat="41.162415" lon="-3.5905117"><ele>2560</ele><speed>34</speed><time>2016-10-08T13:29:44Z</time><course>67</course><type>18</type></trkpt>
      <trkpt lat="41.1623166" lon="-3.5903434"><ele>2560</ele><speed>29</speed><time>2016-10-08T13:29:46Z</time><course>85</course><type>18</type></trkpt>
      <trkpt lat="41.1622883" lon="-3.59046"><ele>2560</ele><speed>18</speed><time>2016-10-08T13:29:47Z</time><course>92</course><type>18</type></trkpt>
      <trkpt lat="41.1622583" lon="-3.5905484"><ele>2560</ele><speed>8</speed><time>2016-10-08T13:29:48Z</time><course>85</course><type>18</type></trkpt>
      <trkpt lat="41.1621933" lon="-3.5906717"><ele>2560</ele><speed>5</speed><time>2016-10-08T13:29:49Z</time><course>85</course><type>18</type></trkpt>
      <trkpt lat="41.1621416" lon="-3.5908267"><ele>2561</ele><speed>20</speed><time>2016-10-08T13:29:50Z</time><course>277</course><type>18</type></trkpt>
      <trkpt lat="41.1621016" lon="-3.5909984"><ele>2561</ele><speed>29</speed><time>2016-10-08T13:29:51Z</time><course>288</course><type>18</type></trkpt>
      <trkpt lat="41.1620616" lon="-3.5911784"><ele>2561</ele><speed>31</speed><time>2016-10-08T13:29:52Z</time><course>297</course><type>18</type></trkpt>
      <trkpt lat="41.1620166" lon="-3.5912484"><ele>2562</ele><speed>29</speed><time>2016-10-08T13:29:53Z</time><course>300</course><type>18</type></trkpt>
      <trkpt lat="41.1621066" lon="-3.5913384"><ele>2563</ele><speed>33</speed><time>2016-10-08T13:29:55Z</time><course>325</course><type>18</type></trkpt>
      <trkpt lat="41.1621666" lon="-3.5913967"><ele>2563</ele><speed>31</speed><time>2016-10-08T13:29:56Z</time><course>331</course><type>18</type></trkpt>
      <trkpt lat="41.1622316" lon="-3.5914384"><ele>2564</ele><speed>36</speed><time>2016-10-08T13:29:57Z</time><course>331</course><type>18</type></trkpt>
      <trkpt lat="41.1622866" lon="-3.5915134"><ele>2565</ele><speed>27</speed><time>2016-10-08T13:29:58Z</time><course>329</course><type>18</type></trkpt>
      <trkpt lat="41.16233" lon="-3.59158"><ele>2566</ele><speed>23</speed><time>2016-10-08T13:29:59Z</time><course>326</course><type>18</type></trkpt>
      <trkpt lat="41.162385" lon="-3.5916401"><ele>2563</ele><speed>31</speed><time>2016-10-08T13:30:00Z</time><course>330</course><type>18</type></trkpt>
      <trkpt lat="41.1624566" lon="-3.591695"><ele>2560</ele><speed>33</speed><time>2016-10-08T13:30:01Z</time><course>333</course><type>18</type></trkpt>
      <trkpt lat="41.162535" lon="-3.5917467"><ele>2558</ele><speed>35</speed><time>2016-10-08T13:30:02Z</time><course>336</course><type>18</type></trkpt>
      <trkpt lat="41.1626333" lon="-3.59181"><ele>2559</ele><speed>42</speed><time>2016-10-08T13:30:03Z</time><course>339</course><type>18</type></trkpt>
      <trkpt lat="41.1627416" lon="-3.5918534"><ele>2557</ele><speed>45</speed><time>2016-10-08T13:30:04Z</time><course>342</course><type>18</type></trkpt>
      <trkpt lat="41.1628483" lon="-3.59189"><ele>2556</ele><speed>44</speed><time>2016-10-08T13:30:05Z</time><course>344</course><type>18</type></trkpt>
      <trkpt lat="41.16295" lon="-3.59192"><ele>2554</ele><speed>42</speed><time>2016-10-08T13:30:06Z</time><course>346</course><type>18</type></trkpt>
      <trkpt lat="41.1630633" lon="-3.591915"><ele>2552</ele><speed>42</speed><time>2016-10-08T13:30:07Z</time><course>350</course><type>18</type></trkpt>
      <trkpt lat="41.16318" lon="-3.5919217"><ele>2550</ele><speed>45</speed><time>2016-10-08T13:30:08Z</time><course>353</course><type>18</type></trkpt>
      <trkpt lat="41.1632966" lon="-3.5919167"><ele>2548</ele><speed>45</speed><time>2016-10-08T13:30:09Z</time><course>357</course><type>18</type></trkpt>
      <trkpt lat="41.1634149" lon="-3.591895"><ele>2546</ele><speed>44</speed><time>2016-10-08T13:30:10Z</time><course>1</course><type>18</type></trkpt>
      <trkpt lat="41.1635266" lon="-3.59187"><ele>2544</ele><speed>41</speed><time>2016-10-08T13:30:11Z</time><course>5</course><type>18</type></trkpt>
      <trkpt lat="41.1636383" lon="-3.5918417"><ele>2542</ele><speed>41</speed><time>2016-10-08T13:30:12Z</time><course>5</course><type>18</type></trkpt>
      <trkpt lat="41.1637516" lon="-3.5918067"><ele>2540</ele><speed>42</speed><time>2016-10-08T13:30:13Z</time><course>4</course><type>18</type></trkpt>
      <trkpt lat="41.1638683" lon="-3.5917717"><ele>2538</ele><speed>43</speed><time>2016-10-08T13:30:14Z</time><course>6</course><type>18</type></trkpt>
      <trkpt lat="41.1640316" lon="-3.5916734"><ele>2536</ele><speed>48</speed><time>2016-10-08T13:30:15Z</time><course>5</course><type>18</type></trkpt>
      <trkpt lat="41.1641666" lon="-3.591615"><ele>2533</ele><speed>47</speed><time>2016-10-08T13:30:16Z</time><course>4</course><type>18</type></trkpt>
      <trkpt lat="41.1642533" lon="-3.59157"><ele>2530</ele><speed>36</speed><time>2016-10-08T13:30:17Z</time><course>358</course><type>18</type></trkpt>
      <trkpt lat="41.164355" lon="-3.5915434"><ele>2528</ele><speed>34</speed><time>2016-10-08T13:30:18Z</time><course>359</course><type>18</type></trkpt>
      <trkpt lat="41.1644516" lon="-3.5915067"><ele>2527</ele><speed>34</speed><time>2016-10-08T13:30:19Z</time><course>6</course><type>18</type></trkpt>
      <trkpt lat="41.1645383" lon="-3.5914217"><ele>2525</ele><speed>37</speed><time>2016-10-08T13:30:20Z</time><course>22</course><type>18</type></trkpt>
      <trkpt lat="41.16464" lon="-3.5913317"><ele>2523</ele><speed>40</speed><time>2016-10-08T13:30:21Z</time><course>24</course><type>18</type></trkpt>
      <trkpt lat="41.1647366" lon="-3.591235"><ele>2521</ele><speed>43</speed><time>2016-10-08T13:30:22Z</time><course>27</course><type>18</type></trkpt>
      <trkpt lat="41.16484" lon="-3.5911234"><ele>2518</ele><speed>47</speed><time>2016-10-08T13:30:23Z</time><course>30</course><type>18</type></trkpt>
      <trkpt lat="41.1649383" lon="-3.5909934"><ele>2516</ele><speed>53</speed><time>2016-10-08T13:30:24Z</time><course>35</course><type>18</type></trkpt>
      <trkpt lat="41.1650383" lon="-3.590895"><ele>2515</ele><speed>50</speed><time>2016-10-08T13:30:25Z</time><course>34</course><type>18</type></trkpt>
      <trkpt lat="41.1651383" lon="-3.5908"><ele>2513</ele><speed>48</speed><time>2016-10-08T13:30:26Z</time><course>34</course><type>18</type></trkpt>
      <trkpt lat="41.1652433" lon="-3.5907051"><ele>2511</ele><speed>48</speed><time>2016-10-08T13:30:27Z</time><course>32</course><type>18</type></trkpt>
      <trkpt lat="41.1653433" lon="-3.5906151"><ele>2510</ele><speed>49</speed><time>2016-10-08T13:30:28Z</time><course>30</course><type>18</type></trkpt>
      <trkpt lat="41.1654566" lon="-3.590535"><ele>2508</ele><speed>52</speed><time>2016-10-08T13:30:29Z</time><course>28</course><type>18</type></trkpt>
      <trkpt lat="41.1655533" lon="-3.5904567"><ele>2506</ele><speed>55</speed><time>2016-10-08T13:30:30Z</time><course>29</course><type>18</type></trkpt>
      <trkpt lat="41.1657066" lon="-3.5903451"><ele>2505</ele><speed>69</speed><time>2016-10-08T13:30:31Z</time><course>31</course><type>18</type></trkpt>
      <trkpt lat="41.1658066" lon="-3.59025"><ele>2503</ele><speed>61</speed><time>2016-10-08T13:30:32Z</time><course>31</course><type>18</type></trkpt>
      <trkpt lat="41.1659333" lon="-3.5901584"><ele>2502</ele><speed>60</speed><time>2016-10-08T13:30:33Z</time><course>29</course><type>18</type></trkpt>
      <trkpt lat="41.1660416" lon="-3.5900584"><ele>2501</ele><speed>59</speed><time>2016-10-08T13:30:34Z</time><course>32</course><type>18</type></trkpt>
      <trkpt lat="41.1661316" lon="-3.5899284"><ele>2500</ele><speed>56</speed><time>2016-10-08T13:30:35Z</time><course>37</course><type>18</type></trkpt>
      <trkpt lat="41.16624" lon="-3.5898284"><ele>2498</ele><speed>54</speed><time>2016-10-08T13:30:36Z</time><course>36</course><type>18</type></trkpt>
      <trkpt lat="41.166295" lon="-3.5897617"><ele>2495</ele><speed>39</speed><time>2016-10-08T13:30:38Z</time><course>33</course><type>18</type></trkpt>
      <trkpt lat="41.1663649" lon="-3.5897034"><ele>2494</ele><speed>42</speed><time>2016-10-08T13:30:39Z</time><course>32</course><type>18</type></trkpt>
      <trkpt lat="41.166515" lon="-3.5895917"><ele>2491</ele><speed>47</speed><time>2016-10-08T13:30:41Z</time><course>31</course><type>18</type></trkpt>
      <trkpt lat="41.1665733" lon="-3.5895284"><ele>2489</ele><speed>45</speed><time>2016-10-08T13:30:42Z</time><course>29</course><type>18</type></trkpt>
      <trkpt lat="41.1666333" lon="-3.589465"><ele>2487</ele><speed>43</speed><time>2016-10-08T13:30:43Z</time><course>28</course><type>18</type></trkpt>
      <trkpt lat="41.16671" lon="-3.5894067"><ele>2485</ele><speed>43</speed><time>2016-10-08T13:30:44Z</time><course>27</course><type>18</type></trkpt>
      <trkpt lat="41.16681" lon="-3.58935"><ele>2483</ele><speed>44</speed><time>2016-10-08T13:30:45Z</time><course>25</course><type>18</type></trkpt>
      <trkpt lat="41.16691" lon="-3.5892967"><ele>2482</ele><speed>45</speed><time>2016-10-08T13:30:46Z</time><course>22</course><type>18</type></trkpt>
      <trkpt lat="41.1670033" lon="-3.5892284"><ele>2480</ele><speed>47</speed><time>2016-10-08T13:30:47Z</time><course>26</course><type>18</type></trkpt>
      <trkpt lat="41.16711" lon="-3.5891334"><ele>2479</ele><speed>56</speed><time>2016-10-08T13:30:48Z</time><course>33</course><type>18</type></trkpt>
      <trkpt lat="41.1672099" lon="-3.5890617"><ele>2477</ele><speed>45</speed><time>2016-10-08T13:30:49Z</time><course>26</course><type>18</type></trkpt>
      <trkpt lat="41.1673066" lon="-3.589005"><ele>2476</ele><speed>45</speed><time>2016-10-08T13:30:50Z</time><course>24</course><type>18</type></trkpt>
      <trkpt lat="41.1673966" lon="-3.588965"><ele>2475</ele><speed>43</speed><time>2016-10-08T13:30:51Z</time><course>22</course><type>18</type></trkpt>
      <trkpt lat="41.1674683" lon="-3.5889434"><ele>2474</ele><speed>39</speed><time>2016-10-08T13:30:52Z</time><course>19</course><type>18</type></trkpt>
      <trkpt lat="41.1675716" lon="-3.5889034"><ele>2470</ele><speed>27</speed><time>2016-10-08T13:30:55Z</time><course>24</course><type>18</type></trkpt>
      <trkpt lat="41.1676383" lon="-3.5888567"><ele>2468</ele><speed>29</speed><time>2016-10-08T13:30:56Z</time><course>22</course><type>18</type></trkpt>
      <trkpt lat="41.1677599" lon="-3.58876"><ele>2466</ele><speed>26</speed><time>2016-10-08T13:30:58Z</time><course>22</course><type>18</type></trkpt>
      <trkpt lat="41.1678883" lon="-3.5886334"><ele>2463</ele><speed>30</speed><time>2016-10-08T13:31:00Z</time><course>35</course><type>18</type></trkpt>
      <trkpt lat="41.167955" lon="-3.5885467"><ele>2462</ele><speed>35</speed><time>2016-10-08T13:31:01Z</time><course>40</course><type>18</type></trkpt>
      <trkpt lat="41.1680366" lon="-3.5884617"><ele>2460</ele><speed>39</speed><time>2016-10-08T13:31:02Z</time><course>37</course><type>18</type></trkpt>
      <trkpt lat="41.168125" lon="-3.588385"><ele>2459</ele><speed>42</speed><time>2016-10-08T13:31:03Z</time><course>32</course><type>18</type></trkpt>
      <trkpt lat="41.1682183" lon="-3.5883034"><ele>2457</ele><speed>47</speed><time>2016-10-08T13:31:04Z</time><course>33</course><type>18</type></trkpt>
      <trkpt lat="41.1683333" lon="-3.58821"><ele>2456</ele><speed>57</speed><time>2016-10-08T13:31:05Z</time><course>33</course><type>18</type></trkpt>
      <trkpt lat="41.16845" lon="-3.5881134"><ele>2454</ele><speed>55</speed><time>2016-10-08T13:31:06Z</time><course>32</course><type>18</type></trkpt>
      <trkpt lat="41.1685366" lon="-3.5880367"><ele>2453</ele><speed>53</speed><time>2016-10-08T13:31:07Z</time><course>31</course><type>18</type></trkpt>
      <trkpt lat="41.1686049" lon="-3.587985"><ele>2452</ele><speed>47</speed><time>2016-10-08T13:31:08Z</time><course>30</course><type>18</type></trkpt>
      <trkpt lat="41.168715" lon="-3.58795"><ele>2451</ele><speed>45</speed><time>2016-10-08T13:31:09Z</time><course>26</course><type>18</type></trkpt>
      <trkpt lat="41.1688" lon="-3.5879267"><ele>2450</ele><speed>36</speed><time>2016-10-08T13:31:10Z</time><course>21</course><type>18</type></trkpt>
      <trkpt lat="41.1689733" lon="-3.5878267"><ele>2447</ele><speed>48</speed><time>2016-10-08T13:31:12Z</time><course>25</course><type>18</type></trkpt>
      <trkpt lat="41.1690766" lon="-3.58776"><ele>2446</ele><speed>49</speed><time>2016-10-08T13:31:13Z</time><course>26</course><type>18</type></trkpt>
      <trkpt lat="41.1691883" lon="-3.587685"><ele>2444</ele><speed>51</speed><time>2016-10-08T13:31:14Z</time><course>27</course><type>18</type></trkpt>
      <trkpt lat="41.1693066" lon="-3.5876067"><ele>2443</ele><speed>53</speed><time>2016-10-08T13:31:15Z</time><course>27</course><type>18</type></trkpt>
      <trkpt lat="41.1694266" lon="-3.5875217"><ele>2441</ele><speed>54</speed><time>2016-10-08T13:31:16Z</time><course>27</course><type>18</type></trkpt>
      <trkpt lat="41.1695466" lon="-3.5874334"><ele>2439</ele><speed>54</speed><time>2016-10-08T13:31:17Z</time><course>29</course><type>18</type></trkpt>
      <trkpt lat="41.1696633" lon="-3.5873367"><ele>2438</ele><speed>53</speed><time>2016-10-08T13:31:18Z</time><course>32</course><type>18</type></trkpt>
      <trkpt lat="41.169765" lon="-3.587245"><ele>2436</ele><speed>51</speed><time>2016-10-08T13:31:19Z</time><course>34</course><type>18</type></trkpt>
      <trkpt lat="41.16986" lon="-3.5871567"><ele>2435</ele><speed>50</speed><time>2016-10-08T13:31:20Z</time><course>34</course><type>18</type></trkpt>
      <trkpt lat="41.1699566" lon="-3.5870634"><ele>2433</ele><speed>51</speed><time>2016-10-08T13:31:21Z</time><course>35</course><type>18</type></trkpt>
      <trkpt lat="41.1700883" lon="-3.5869367"><ele>2431</ele><speed>65</speed><time>2016-10-08T13:31:22Z</time><course>36</course><type>18</type></trkpt>
      <trkpt lat="41.1702166" lon="-3.586825"><ele>2430</ele><speed>62</speed><time>2016-10-08T13:31:23Z</time><course>34</course><type>18</type></trkpt>
      <trkpt lat="41.1703033" lon="-3.5867417"><ele>2428</ele><speed>59</speed><time>2016-10-08T13:31:24Z</time><course>34</course><type>18</type></trkpt>
      <trkpt lat="41.1703633" lon="-3.5866817"><ele>2426</ele><speed>54</speed><time>2016-10-08T13:31:25Z</time><course>33</course><type>18</type></trkpt>
      <trkpt lat="41.1704383" lon="-3.5866134"><ele>2424</ele><speed>53</speed><time>2016-10-08T13:31:26Z</time><course>34</course><type>18</type></trkpt>
      <trkpt lat="41.1705183" lon="-3.5865584"><ele>2422</ele><speed>51</speed><time>2016-10-08T13:31:27Z</time><course>34</course><type>18</type></trkpt>
      <trkpt lat="41.170585" lon="-3.5864917"><ele>2420</ele><speed>48</speed><time>2016-10-08T13:31:28Z</time><course>35</course><type>18</type></trkpt>
      <trkpt lat="41.1706566" lon="-3.5864284"><ele>2419</ele><speed>46</speed><time>2016-10-08T13:31:29Z</time><course>35</course><type>18</type></trkpt>
      <trkpt lat="41.1707366" lon="-3.5863267"><ele>2417</ele><speed>46</speed><time>2016-10-08T13:31:30Z</time><course>38</course><type>18</type></trkpt>
      <trkpt lat="41.1708033" lon="-3.5862134"><ele>2416</ele><speed>47</speed><time>2016-10-08T13:31:31Z</time><course>44</course><type>18</type></trkpt>
      <trkpt lat="41.1708733" lon="-3.5861"><ele>2415</ele><speed>46</speed><time>2016-10-08T13:31:32Z</time><course>46</course><type>18</type></trkpt>
      <trkpt lat="41.170965" lon="-3.5860484"><ele>2414</ele><speed>46</speed><time>2016-10-08T13:31:33Z</time><course>47</course><type>18</type></trkpt>
      <trkpt lat="41.1710433" lon="-3.5859551"><ele>2413</ele><speed>47</speed><time>2016-10-08T13:31:34Z</time><course>48</course><type>18</type></trkpt>
      <trkpt lat="41.17113" lon="-3.5857217"><ele>2411</ele><speed>48</speed><time>2016-10-08T13:31:36Z</time><course>52</course><type>18</type></trkpt>
      <trkpt lat="41.17121" lon="-3.5855867"><ele>2409</ele><speed>52</speed><time>2016-10-08T13:31:37Z</time><course>52</course><type>18</type></trkpt>
      <trkpt lat="41.1712966" lon="-3.5854384"><ele>2408</ele><speed>61</speed><time>2016-10-08T13:31:38Z</time><course>54</course><type>18</type></trkpt>
      <trkpt lat="41.1713316" lon="-3.585255"><ele>2406</ele><speed>66</speed><time>2016-10-08T13:31:39Z</time><course>59</course><type>18</type></trkpt>
      <trkpt lat="41.171425" lon="-3.5850667"><ele>2405</ele><speed>65</speed><time>2016-10-08T13:31:40Z</time><course>59</course><type>18</type></trkpt>
      <trkpt lat="41.17153" lon="-3.5849067"><ele>2404</ele><speed>63</speed><time>2016-10-08T13:31:41Z</time><course>57</course><type>18</type></trkpt>
      <trkpt lat="41.17162" lon="-3.5847717"><ele>2403</ele><speed>59</speed><time>2016-10-08T13:31:42Z</time><course>57</course><type>18</type></trkpt>
      <trkpt lat="41.1717483" lon="-3.5845684"><ele>2400</ele><speed>47</speed><time>2016-10-08T13:31:44Z</time><course>57</course><type>18</type></trkpt>
      <trkpt lat="41.1718416" lon="-3.5844217"><ele>2399</ele><speed>49</speed><time>2016-10-08T13:31:45Z</time><course>57</course><type>18</type></trkpt>
      <trkpt lat="41.171825" lon="-3.5843067"><ele>2397</ele><speed>47</speed><time>2016-10-08T13:31:46Z</time><course>54</course><type>18</type></trkpt>
      <trkpt lat="41.1718733" lon="-3.5842117"><ele>2395</ele><speed>43</speed><time>2016-10-08T13:31:47Z</time><course>50</course><type>18</type></trkpt>
      <trkpt lat="41.1718883" lon="-3.58411"><ele>2394</ele><speed>44</speed><time>2016-10-08T13:31:48Z</time><course>48</course><type>18</type></trkpt>
      <trkpt lat="41.1719166" lon="-3.58401"><ele>2392</ele><speed>45</speed><time>2016-10-08T13:31:49Z</time><course>48</course><type>18</type></trkpt>
      <trkpt lat="41.1719816" lon="-3.5839"><ele>2391</ele><speed>46</speed><time>2016-10-08T13:31:50Z</time><course>49</course><type>18</type></trkpt>
      <trkpt lat="41.172055" lon="-3.58379"><ele>2389</ele><speed>48</speed><time>2016-10-08T13:31:51Z</time><course>49</course><type>18</type></trkpt>
      <trkpt lat="41.1721333" lon="-3.5836817"><ele>2388</ele><speed>49</speed><time>2016-10-08T13:31:52Z</time><course>47</course><type>18</type></trkpt>
      <trkpt lat="41.17222" lon="-3.5836084"><ele>2386</ele><speed>53</speed><time>2016-10-08T13:31:53Z</time><course>38</course><type>18</type></trkpt>
      <trkpt lat="41.1723316" lon="-3.5834967"><ele>2384</ele><speed>51</speed><time>2016-10-08T13:31:54Z</time><course>36</course><type>18</type></trkpt>
      <trkpt lat="41.1724566" lon="-3.5833817"><ele>2383</ele><speed>57</speed><time>2016-10-08T13:31:55Z</time><course>37</course><type>18</type></trkpt>
      <trkpt lat="41.1725766" lon="-3.5832784"><ele>2381</ele><speed>56</speed><time>2016-10-08T13:31:56Z</time><course>36</course><type>18</type></trkpt>
      <trkpt lat="41.172705" lon="-3.58319"><ele>2380</ele><speed>56</speed><time>2016-10-08T13:31:57Z</time><course>33</course><type>18</type></trkpt>
      <trkpt lat="41.1728033" lon="-3.583105"><ele>2378</ele><speed>54</speed><time>2016-10-08T13:31:58Z</time><course>32</course><type>18</type></trkpt>
      <trkpt lat="41.1728783" lon="-3.583025"><ele>2377</ele><speed>50</speed><time>2016-10-08T13:31:59Z</time><course>33</course><type>18</type></trkpt>
      <trkpt lat="41.1729616" lon="-3.5828984"><ele>2376</ele><speed>49</speed><time>2016-10-08T13:32:00Z</time><course>39</course><type>18</type></trkpt>
      <trkpt lat="41.173115" lon="-3.5827867"><ele>2373</ele><speed>43</speed><time>2016-10-08T13:32:02Z</time><course>33</course><type>18</type></trkpt>
      <trkpt lat="41.1732533" lon="-3.582745"><ele>2370</ele><speed>47</speed><time>2016-10-08T13:32:04Z</time><course>31</course><type>18</type></trkpt>
      <trkpt lat="41.17332" lon="-3.5826901"><ele>2368</ele><speed>47</speed><time>2016-10-08T13:32:05Z</time><course>33</course><type>18</type></trkpt>
      <trkpt lat="41.1733983" lon="-3.5826284"><ele>2367</ele><speed>47</speed><time>2016-10-08T13:32:06Z</time><course>33</course><type>18</type></trkpt>
      <trkpt lat="41.1734683" lon="-3.5825567"><ele>2365</ele><speed>47</speed><time>2016-10-08T13:32:07Z</time><course>33</course><type>18</type></trkpt>
      <trkpt lat="41.1735516" lon="-3.582485"><ele>2364</ele><speed>47</speed><time>2016-10-08T13:32:08Z</time><course>32</course><type>18</type></trkpt>
      <trkpt lat="41.1736366" lon="-3.582415"><ele>2363</ele><speed>47</speed><time>2016-10-08T13:32:09Z</time><course>32</course><type>18</type></trkpt>
      <trkpt lat="41.173735" lon="-3.5823417"><ele>2361</ele><speed>48</speed><time>2016-10-08T13:32:10Z</time><course>31</course><type>18</type></trkpt>
      <trkpt lat="41.1738366" lon="-3.5822634"><ele>2360</ele><speed>49</speed><time>2016-10-08T13:32:11Z</time><course>32</course><type>18</type></trkpt>
      <trkpt lat="41.173945" lon="-3.5821817"><ele>2358</ele><speed>51</speed><time>2016-10-08T13:32:12Z</time><course>30</course><type>18</type></trkpt>
      <trkpt lat="41.1740899" lon="-3.5820667"><ele>2356</ele><speed>64</speed><time>2016-10-08T13:32:13Z</time><course>32</course><type>18</type></trkpt>
      <trkpt lat="41.17423" lon="-3.5819567"><ele>2355</ele><speed>64</speed><time>2016-10-08T13:32:14Z</time><course>31</course><type>18</type></trkpt>
      <trkpt lat="41.1743616" lon="-3.5818584"><ele>2354</ele><speed>62</speed><time>2016-10-08T13:32:15Z</time><course>30</course><type>18</type></trkpt>
      <trkpt lat="41.1744966" lon="-3.5817534"><ele>2352</ele><speed>61</speed><time>2016-10-08T13:32:16Z</time><course>30</course><type>18</type></trkpt>
      <trkpt lat="41.174615" lon="-3.5816667"><ele>2351</ele><speed>57</speed><time>2016-10-08T13:32:17Z</time><course>31</course><type>18</type></trkpt>
      <trkpt lat="41.1747066" lon="-3.581585"><ele>2349</ele><speed>52</speed><time>2016-10-08T13:32:18Z</time><course>33</course><type>18</type></trkpt>
      <trkpt lat="41.1748016" lon="-3.5815284"><ele>2348</ele><speed>47</speed><time>2016-10-08T13:32:19Z</time><course>31</course><type>18</type></trkpt>
      <trkpt lat="41.1748816" lon="-3.5814834"><ele>2347</ele><speed>43</speed><time>2016-10-08T13:32:20Z</time><course>29</course><type>18</type></trkpt>
      <trkpt lat="41.1749566" lon="-3.5814317"><ele>2345</ele><speed>40</speed><time>2016-10-08T13:32:21Z</time><course>29</course><type>18</type></trkpt>
      <trkpt lat="41.175075" lon="-3.5813184"><ele>2342</ele><speed>39</speed><time>2016-10-08T13:32:23Z</time><course>38</course><type>18</type></trkpt>
      <trkpt lat="41.175145" lon="-3.58125"><ele>2341</ele><speed>39</speed><time>2016-10-08T13:32:24Z</time><course>43</course><type>18</type></trkpt>
      <trkpt lat="41.1751783" lon="-3.581145"><ele>2339</ele><speed>39</speed><time>2016-10-08T13:32:25Z</time><course>61</course><type>18</type></trkpt>
      <trkpt lat="41.1752216" lon="-3.58103"><ele>2338</ele><speed>38</speed><time>2016-10-08T13:32:26Z</time><course>65</course><type>18</type></trkpt>
      <trkpt lat="41.1752266" lon="-3.5809134"><ele>2337</ele><speed>32</speed><time>2016-10-08T13:32:27Z</time><course>78</course><type>18</type></trkpt>
      <trkpt lat="41.1752016" lon="-3.5808034"><ele>2335</ele><speed>30</speed><time>2016-10-08T13:32:28Z</time><course>98</course><type>18</type></trkpt>
      <trkpt lat="41.17515" lon="-3.5806667"><ele>2334</ele><speed>34</speed><time>2016-10-08T13:32:29Z</time><course>103</course><type>18</type></trkpt>
      <trkpt lat="41.175085" lon="-3.58056"><ele>2331</ele><speed>30</speed><time>2016-10-08T13:32:30Z</time><course>113</course><type>18</type></trkpt>
      <trkpt lat="41.1750383" lon="-3.58042"><ele>2329</ele><speed>31</speed><time>2016-10-08T13:32:31Z</time><course>101</course><type>18</type></trkpt>
      <trkpt lat="41.1749899" lon="-3.5803034"><ele>2328</ele><speed>25</speed><time>2016-10-08T13:32:32Z</time><course>102</course><type>18</type></trkpt>
      <trkpt lat="41.174905" lon="-3.5801817"><ele>2325</ele><speed>24</speed><time>2016-10-08T13:32:34Z</time><course>126</course><type>18</type></trkpt>
      <trkpt lat="41.1748533" lon="-3.5801534"><ele>2324</ele><speed>18</speed><time>2016-10-08T13:32:35Z</time><course>142</course><type>18</type></trkpt>
      <trkpt lat="41.1747733" lon="-3.5800517"><ele>2321</ele><speed>22</speed><time>2016-10-08T13:32:37Z</time><course>125</course><type>18</type></trkpt>
      <trkpt lat="41.1746683" lon="-3.5799717"><ele>2318</ele><speed>21</speed><time>2016-10-08T13:32:39Z</time><course>134</course><type>18</type></trkpt>
      <trkpt lat="41.1745516" lon="-3.5799217"><ele>2317</ele><speed>24</speed><time>2016-10-08T13:32:40Z</time><course>144</course><type>18</type></trkpt>
      <trkpt lat="41.17448" lon="-3.5798717"><ele>2316</ele><speed>25</speed><time>2016-10-08T13:32:41Z</time><course>144</course><type>18</type></trkpt>
      <trkpt lat="41.1746316" lon="-3.5801817"><ele>2311</ele><speed>11</speed><time>2016-10-08T13:32:44Z</time><course>20</course><type>18</type></trkpt>
      <trkpt lat="41.1747416" lon="-3.5802184"><ele>2308</ele><speed>18</speed><time>2016-10-08T13:32:46Z</time><course>3</course><type>18</type></trkpt>
      <trkpt lat="41.1748416" lon="-3.58015"><ele>2306</ele><speed>21</speed><time>2016-10-08T13:32:48Z</time><course>32</course><type>18</type></trkpt>
      <trkpt lat="41.1749233" lon="-3.5800451"><ele>2304</ele><speed>22</speed><time>2016-10-08T13:32:50Z</time><course>45</course><type>18</type></trkpt>
      <trkpt lat="41.1750083" lon="-3.5800517"><ele>2301</ele><speed>18</speed><time>2016-10-08T13:32:53Z</time><course>31</course><type>18</type></trkpt>
      <trkpt lat="41.1750533" lon="-3.5799684"><ele>2300</ele><speed>27</speed><time>2016-10-08T13:32:54Z</time><course>54</course><type>18</type></trkpt>
      <trkpt lat="41.1751016" lon="-3.5798917"><ele>2299</ele><speed>30</speed><time>2016-10-08T13:32:55Z</time><course>58</course><type>18</type></trkpt>
      <trkpt lat="41.175155" lon="-3.5797834"><ele>2298</ele><speed>37</speed><time>2016-10-08T13:32:56Z</time><course>59</course><type>18</type></trkpt>
      <trkpt lat="41.1752016" lon="-3.5796634"><ele>2297</ele><speed>43</speed><time>2016-10-08T13:32:57Z</time><course>63</course><type>18</type></trkpt>
      <trkpt lat="41.1752616" lon="-3.579525"><ele>2296</ele><speed>49</speed><time>2016-10-08T13:32:58Z</time><course>66</course><type>18</type></trkpt>
      <trkpt lat="41.1753166" lon="-3.5793801"><ele>2295</ele><speed>49</speed><time>2016-10-08T13:32:59Z</time><course>67</course><type>18</type></trkpt>
      <trkpt lat="41.1753616" lon="-3.5792517"><ele>2294</ele><speed>47</speed><time>2016-10-08T13:33:00Z</time><course>74</course><type>18</type></trkpt>
      <trkpt lat="41.1753966" lon="-3.579115"><ele>2293</ele><speed>46</speed><time>2016-10-08T13:33:01Z</time><course>79</course><type>18</type></trkpt>
      <trkpt lat="41.1754216" lon="-3.5789734"><ele>2292</ele><speed>47</speed><time>2016-10-08T13:33:02Z</time><course>81</course><type>18</type></trkpt>
      <trkpt lat="41.175445" lon="-3.578825"><ele>2291</ele><speed>47</speed><time>2016-10-08T13:33:03Z</time><course>81</course><type>18</type></trkpt>
      <trkpt lat="41.1754683" lon="-3.5786817"><ele>2290</ele><speed>46</speed><time>2016-10-08T13:33:04Z</time><course>81</course><type>18</type></trkpt>
      <trkpt lat="41.1755033" lon="-3.5785267"><ele>2289</ele><speed>46</speed><time>2016-10-08T13:33:05Z</time><course>81</course><type>18</type></trkpt>
      <trkpt lat="41.1755216" lon="-3.578365"><ele>2289</ele><speed>47</speed><time>2016-10-08T13:33:06Z</time><course>83</course><type>18</type></trkpt>
      <trkpt lat="41.1755216" lon="-3.5782101"><ele>2289</ele><speed>48</speed><time>2016-10-08T13:33:07Z</time><course>87</course><type>18</type></trkpt>
      <trkpt lat="41.17549" lon="-3.5780434"><ele>2288</ele><speed>52</speed><time>2016-10-08T13:33:08Z</time><course>95</course><type>18</type></trkpt>
      <trkpt lat="41.1754616" lon="-3.5779017"><ele>2287</ele><speed>47</speed><time>2016-10-08T13:33:09Z</time><course>96</course><type>18</type></trkpt>
      <trkpt lat="41.175435" lon="-3.577725"><ele>2286</ele><speed>54</speed><time>2016-10-08T13:33:10Z</time><course>99</course><type>18</type></trkpt>
      <trkpt lat="41.1753766" lon="-3.5775684"><ele>2286</ele><speed>50</speed><time>2016-10-08T13:33:11Z</time><course>103</course><type>18</type></trkpt>
      <trkpt lat="41.1753533" lon="-3.5774334"><ele>2285</ele><speed>41</speed><time>2016-10-08T13:33:12Z</time><course>97</course><type>18</type></trkpt>
      <trkpt lat="41.1753266" lon="-3.5773367"><ele>2285</ele><speed>32</speed><time>2016-10-08T13:33:13Z</time><course>90</course><type>18</type></trkpt>
      <trkpt lat="41.1753266" lon="-3.5772467"><ele>2284</ele><speed>30</speed><time>2016-10-08T13:33:14Z</time><course>86</course><type>18</type></trkpt>
      <trkpt lat="41.1753316" lon="-3.5771367"><ele>2283</ele><speed>25</speed><time>2016-10-08T13:33:16Z</time><course>81</course><type>18</type></trkpt>
      <trkpt lat="41.1753583" lon="-3.577265"><ele>2281</ele><speed>10</speed><time>2016-10-08T13:33:18Z</time><course>17</course><type>18</type></trkpt>
      <trkpt lat="41.175475" lon="-3.5772784"><ele>2278</ele><speed>26</speed><time>2016-10-08T13:33:21Z</time><course>43</course><type>18</type></trkpt>
      <trkpt lat="41.1755283" lon="-3.5771967"><ele>2277</ele><speed>31</speed><time>2016-10-08T13:33:22Z</time><course>51</course><type>18</type></trkpt>
      <trkpt lat="41.1755833" lon="-3.5771034"><ele>2276</ele><speed>37</speed><time>2016-10-08T13:33:23Z</time><course>61</course><type>18</type></trkpt>
      <trkpt lat="41.1756216" lon="-3.57699"><ele>2275</ele><speed>40</speed><time>2016-10-08T13:33:24Z</time><course>72</course><type>18</type></trkpt>
      <trkpt lat="41.1756716" lon="-3.5767884"><ele>2274</ele><speed>56</speed><time>2016-10-08T13:33:25Z</time><course>73</course><type>18</type></trkpt>
      <trkpt lat="41.17564" lon="-3.576675"><ele>2273</ele><speed>41</speed><time>2016-10-08T13:33:26Z</time><course>99</course><type>18</type></trkpt>
      <trkpt lat="41.1755733" lon="-3.5765551"><ele>2272</ele><speed>44</speed><time>2016-10-08T13:33:27Z</time><course>123</course><type>18</type></trkpt>
      <trkpt lat="41.1754849" lon="-3.5764717"><ele>2272</ele><speed>46</speed><time>2016-10-08T13:33:28Z</time><course>137</course><type>18</type></trkpt>
      <trkpt lat="41.17539" lon="-3.5764184"><ele>2271</ele><speed>46</speed><time>2016-10-08T13:33:29Z</time><course>149</course><type>18</type></trkpt>
      <trkpt lat="41.1752933" lon="-3.576355"><ele>2271</ele><speed>45</speed><time>2016-10-08T13:33:30Z</time><course>153</course><type>18</type></trkpt>
      <trkpt lat="41.175195" lon="-3.5763067"><ele>2270</ele><speed>44</speed><time>2016-10-08T13:33:31Z</time><course>157</course><type>18</type></trkpt>
      <trkpt lat="41.1750866" lon="-3.5762984"><ele>2270</ele><speed>41</speed><time>2016-10-08T13:33:32Z</time><course>162</course><type>18</type></trkpt>
      <trkpt lat="41.1749816" lon="-3.576335"><ele>2270</ele><speed>39</speed><time>2016-10-08T13:33:33Z</time><course>169</course><type>18</type></trkpt>
      <trkpt lat="41.1748883" lon="-3.576365"><ele>2269</ele><speed>35</speed><time>2016-10-08T13:33:34Z</time><course>175</course><type>18</type></trkpt>
      <trkpt lat="41.174835" lon="-3.576405"><ele>2268</ele><speed>23</speed><time>2016-10-08T13:33:35Z</time><course>178</course><type>18</type></trkpt>
      <trkpt lat="41.1748333" lon="-3.5765117"><ele>2268</ele><speed>15</speed><time>2016-10-08T13:33:36Z</time><course>243</course><type>18</type></trkpt>
      <trkpt lat="41.1748416" lon="-3.57665"><ele>2267</ele><speed>13</speed><time>2016-10-08T13:33:38Z</time><course>280</course><type>18</type></trkpt>
      <trkpt lat="41.17495" lon="-3.576665"><ele>2267</ele><speed>20</speed><time>2016-10-08T13:33:40Z</time><course>15</course><type>18</type></trkpt>
      <trkpt lat="41.1750083" lon="-3.5766384"><ele>2267</ele><speed>22</speed><time>2016-10-08T13:33:41Z</time><course>23</course><type>18</type></trkpt>
      <trkpt lat="41.1750866" lon="-3.5765834"><ele>2266</ele><speed>19</speed><time>2016-10-08T13:33:43Z</time><course>25</course><type>18</type></trkpt>
      <trkpt lat="41.1751466" lon="-3.5765767"><ele>2267</ele><speed>27</speed><time>2016-10-08T13:33:44Z</time><course>10</course><type>18</type></trkpt>
      <trkpt lat="41.1752016" lon="-3.57655"><ele>2266</ele><speed>25</speed><time>2016-10-08T13:33:45Z</time><course>21</course><type>18</type></trkpt>
      <trkpt lat="41.1752083" lon="-3.576405"><ele>2266</ele><speed>18</speed><time>2016-10-08T13:33:47Z</time><course>85</course><type>18</type></trkpt>
      <trkpt lat="41.1751633" lon="-3.5763284"><ele>2267</ele><speed>16</speed><time>2016-10-08T13:33:49Z</time><course>112</course><type>18</type></trkpt>
      <trkpt lat="41.1750366" lon="-3.5762767"><ele>2269</ele><speed>24</speed><time>2016-10-08T13:33:51Z</time><course>153</course><type>18</type></trkpt>
      <trkpt lat="41.17495" lon="-3.57623"><ele>2269</ele><speed>28</speed><time>2016-10-08T13:33:52Z</time><course>156</course><type>18</type></trkpt>
      <trkpt lat="41.17486" lon="-3.5761634"><ele>2269</ele><speed>31</speed><time>2016-10-08T13:33:53Z</time><course>157</course><type>18</type></trkpt>
      <trkpt lat="41.1747533" lon="-3.5760734"><ele>2269</ele><speed>32</speed><time>2016-10-08T13:33:54Z</time><course>161</course><type>18</type></trkpt>
      <trkpt lat="41.1746533" lon="-3.5760134"><ele>2268</ele><speed>29</speed><time>2016-10-08T13:33:55Z</time><course>171</course><type>18</type></trkpt>
      <trkpt lat="41.1745566" lon="-3.57598"><ele>2267</ele><speed>28</speed><time>2016-10-08T13:33:56Z</time><course>182</course><type>18</type></trkpt>
      <trkpt lat="41.1744783" lon="-3.5759567"><ele>2266</ele><speed>26</speed><time>2016-10-08T13:33:57Z</time><course>185</course><type>18</type></trkpt>
      <trkpt lat="41.17438" lon="-3.575905"><ele>2266</ele><speed>19</speed><time>2016-10-08T13:33:59Z</time><course>169</course><type>18</type></trkpt>
      <trkpt lat="41.17432" lon="-3.575805"><ele>2265</ele><speed>22</speed><time>2016-10-08T13:34:00Z</time><course>159</course><type>18</type></trkpt>
      <trkpt lat="41.1743566" lon="-3.5759167"><ele>2264</ele><speed>18</speed><time>2016-10-08T13:34:04Z</time><course>319</course><type>18</type></trkpt>
      <trkpt lat="41.1744083" lon="-3.5759434"><ele>2264</ele><speed>22</speed><time>2016-10-08T13:34:05Z</time><course>332</course><type>18</type></trkpt>
      <trkpt lat="41.1745183" lon="-3.57592"><ele>2264</ele><speed>24</speed><time>2016-10-08T13:34:07Z</time><course>3</course><type>18</type></trkpt>
      <trkpt lat="41.17459" lon="-3.5758934"><ele>2264</ele><speed>26</speed><time>2016-10-08T13:34:08Z</time><course>12</course><type>18</type></trkpt>
      <trkpt lat="41.1746683" lon="-3.5758351"><ele>2263</ele><speed>30</speed><time>2016-10-08T13:34:09Z</time><course>28</course><type>18</type></trkpt>
      <trkpt lat="41.1747433" lon="-3.5757784"><ele>2263</ele><speed>32</speed><time>2016-10-08T13:34:10Z</time><course>32</course><type>18</type></trkpt>
      <trkpt lat="41.1748033" lon="-3.5756984"><ele>2263</ele><speed>31</speed><time>2016-10-08T13:34:11Z</time><course>46</course><type>18</type></trkpt>
      <trkpt lat="41.1748366" lon="-3.5756084"><ele>2263</ele><speed>29</speed><time>2016-10-08T13:34:12Z</time><course>62</course><type>18</type></trkpt>
      <trkpt lat="41.17485" lon="-3.5754967"><ele>2263</ele><speed>30</speed><time>2016-10-08T13:34:13Z</time><course>81</course><type>18</type></trkpt>
      <trkpt lat="41.1748466" lon="-3.5753667"><ele>2262</ele><speed>32</speed><time>2016-10-08T13:34:14Z</time><course>86</course><type>18</type></trkpt>
      <trkpt lat="41.17484" lon="-3.5752134"><ele>2262</ele><speed>36</speed><time>2016-10-08T13:34:15Z</time><course>89</course><type>18</type></trkpt>
      <trkpt lat="41.17482" lon="-3.5750567"><ele>2262</ele><speed>38</speed><time>2016-10-08T13:34:16Z</time><course>93</course><type>18</type></trkpt>
      <trkpt lat="41.1747883" lon="-3.574895"><ele>2262</ele><speed>41</speed><time>2016-10-08T13:34:17Z</time><course>98</course><type>18</type></trkpt>
      <trkpt lat="41.1747683" lon="-3.574735"><ele>2262</ele><speed>42</speed><time>2016-10-08T13:34:18Z</time><course>98</course><type>18</type></trkpt>
      <trkpt lat="41.1747366" lon="-3.5745717"><ele>2262</ele><speed>44</speed><time>2016-10-08T13:34:19Z</time><course>97</course><type>18</type></trkpt>
      <trkpt lat="41.1747583" lon="-3.5743684"><ele>2263</ele><speed>44</speed><time>2016-10-08T13:34:20Z</time><course>96</course><type>18</type></trkpt>
      <trkpt lat="41.1747283" lon="-3.5742784"><ele>2263</ele><speed>34</speed><time>2016-10-08T13:34:21Z</time><course>108</course><type>18</type></trkpt>
      <trkpt lat="41.1746883" lon="-3.574165"><ele>2263</ele><speed>34</speed><time>2016-10-08T13:34:22Z</time><course>108</course><type>18</type></trkpt>
      <trkpt lat="41.1746516" lon="-3.5740534"><ele>2263</ele><speed>33</speed><time>2016-10-08T13:34:23Z</time><course>110</course><type>18</type></trkpt>
      <trkpt lat="41.17457" lon="-3.5740534"><ele>2263</ele><speed>29</speed><time>2016-10-08T13:34:24Z</time><course>143</course><type>18</type></trkpt>
      <trkpt lat="41.1745" lon="-3.5739867"><ele>2263</ele><speed>27</speed><time>2016-10-08T13:34:25Z</time><course>144</course><type>18</type></trkpt>
      <trkpt lat="41.17441" lon="-3.5738184"><ele>2263</ele><speed>28</speed><time>2016-10-08T13:34:26Z</time><course>137</course><type>18</type></trkpt>
      <trkpt lat="41.174335" lon="-3.57373"><ele>2261</ele><speed>17</speed><time>2016-10-08T13:34:28Z</time><course>112</course><type>18</type></trkpt>
      <trkpt lat="41.1742733" lon="-3.573765"><ele>2262</ele><speed>6</speed><time>2016-10-08T13:34:30Z</time><course>354</course><type>18</type></trkpt>
      <trkpt lat="41.174335" lon="-3.573815"><ele>2261</ele><speed>18</speed><time>2016-10-08T13:34:32Z</time><course>356</course><type>18</type></trkpt>
      <trkpt lat="41.1743966" lon="-3.5738267"><ele>2261</ele><speed>28</speed><time>2016-10-08T13:34:33Z</time><course>11</course><type>18</type></trkpt>
      <trkpt lat="41.1744766" lon="-3.5738317"><ele>2262</ele><speed>44</speed><time>2016-10-08T13:34:34Z</time><course>18</course><type>18</type></trkpt>
      <trkpt lat="41.1745366" lon="-3.5737767"><ele>2262</ele><speed>38</speed><time>2016-10-08T13:34:35Z</time><course>43</course><type>18</type></trkpt>
      <trkpt lat="41.17459" lon="-3.5736917"><ele>2262</ele><speed>41</speed><time>2016-10-08T13:34:36Z</time><course>59</course><type>18</type></trkpt>
      <trkpt lat="41.1746299" lon="-3.5735684"><ele>2261</ele><speed>45</speed><time>2016-10-08T13:34:37Z</time><course>70</course><type>18</type></trkpt>
      <trkpt lat="41.174655" lon="-3.57343"><ele>2260</ele><speed>47</speed><time>2016-10-08T13:34:38Z</time><course>79</course><type>18</type></trkpt>
      <trkpt lat="41.1746733" lon="-3.5732767"><ele>2260</ele><speed>48</speed><time>2016-10-08T13:34:39Z</time><course>81</course><type>18</type></trkpt>
      <trkpt lat="41.1746833" lon="-3.5731167"><ele>2259</ele><speed>49</speed><time>2016-10-08T13:34:40Z</time><course>83</course><type>18</type></trkpt>
      <trkpt lat="41.174685" lon="-3.5729684"><ele>2259</ele><speed>49</speed><time>2016-10-08T13:34:41Z</time><course>87</course><type>18</type></trkpt>
      <trkpt lat="41.1746833" lon="-3.57282"><ele>2258</ele><speed>48</speed><time>2016-10-08T13:34:42Z</time><course>89</course><type>18</type></trkpt>
      <trkpt lat="41.1746733" lon="-3.57268"><ele>2257</ele><speed>45</speed><time>2016-10-08T13:34:43Z</time><course>90</course><type>18</type></trkpt>
      <trkpt lat="41.174655" lon="-3.572575"><ele>2257</ele><speed>44</speed><time>2016-10-08T13:34:44Z</time><course>93</course><type>18</type></trkpt>
      <trkpt lat="41.1746566" lon="-3.572465"><ele>2257</ele><speed>41</speed><time>2016-10-08T13:34:45Z</time><course>92</course><type>18</type></trkpt>
      <trkpt lat="41.1745266" lon="-3.57247"><ele>2260</ele><speed>37</speed><time>2016-10-08T13:34:46Z</time><course>108</course><type>18</type></trkpt>
      <trkpt lat="41.1743316" lon="-3.5725734"><ele>2262</ele><speed>20</speed><time>2016-10-08T13:34:48Z</time><course>149</course><type>18</type></trkpt>
      <trkpt lat="41.1742133" lon="-3.5725917"><ele>2262</ele><speed>15</speed><time>2016-10-08T13:34:50Z</time><course>135</course><type>18</type></trkpt>
      <trkpt lat="41.1741216" lon="-3.5725667"><ele>2262</ele><speed>15</speed><time>2016-10-08T13:34:52Z</time><course>144</course><type>18</type></trkpt>
      <trkpt lat="41.174065" lon="-3.5726367"><ele>2262</ele><speed>11</speed><time>2016-10-08T13:34:53Z</time><course>165</course><type>18</type></trkpt>
      <trkpt lat="41.17396" lon="-3.5725"><ele>2263</ele><speed>31</speed><time>2016-10-08T13:35:01Z</time><course>123</course><type>18</type></trkpt>
      <trkpt lat="41.1738433" lon="-3.5723117"><ele>2263</ele><speed>39</speed><time>2016-10-08T13:35:03Z</time><course>120</course><type>18</type></trkpt>
      <trkpt lat="41.1737233" lon="-3.5722617"><ele>2263</ele><speed>41</speed><time>2016-10-08T13:35:04Z</time><course>128</course><type>18</type></trkpt>
      <trkpt lat="41.1736483" lon="-3.5721817"><ele>2263</ele><speed>39</speed><time>2016-10-08T13:35:05Z</time><course>128</course><type>18</type></trkpt>
      <trkpt lat="41.1735633" lon="-3.57211"><ele>2263</ele><speed>39</speed><time>2016-10-08T13:35:06Z</time><course>128</course><type>18</type></trkpt>
      <trkpt lat="41.173475" lon="-3.5720834"><ele>2263</ele><speed>32</speed><time>2016-10-08T13:35:07Z</time><course>133</course><type>18</type></trkpt>
      <trkpt lat="41.1733083" lon="-3.5720517"><ele>2263</ele><speed>35</speed><time>2016-10-08T13:35:09Z</time><course>190</course><type>18</type></trkpt>
      <trkpt lat="41.1731666" lon="-3.572085"><ele>2263</ele><speed>33</speed><time>2016-10-08T13:35:11Z</time><course>194</course><type>18</type></trkpt>
      <trkpt lat="41.173045" lon="-3.5721234"><ele>2263</ele><speed>31</speed><time>2016-10-08T13:35:13Z</time><course>195</course><type>18</type></trkpt>
      <trkpt lat="41.173095" lon="-3.5723901"><ele>2263</ele><speed>22</speed><time>2016-10-08T13:35:16Z</time><course>235</course><type>18</type></trkpt>
      <trkpt lat="41.17323" lon="-3.572485"><ele>2263</ele><speed>28</speed><time>2016-10-08T13:35:17Z</time><course>308</course><type>18</type></trkpt>
      <trkpt lat="41.1733016" lon="-3.5725584"><ele>2266</ele><speed>25</speed><time>2016-10-08T13:35:18Z</time><course>315</course><type>18</type></trkpt>
      <trkpt lat="41.173365" lon="-3.572605"><ele>2268</ele><speed>21</speed><time>2016-10-08T13:35:19Z</time><course>321</course><type>18</type></trkpt>
      <trkpt lat="41.1734716" lon="-3.5726601"><ele>2272</ele><speed>16</speed><time>2016-10-08T13:35:21Z</time><course>325</course><type>18</type></trkpt>
      <trkpt lat="41.1736116" lon="-3.5727017"><ele>2275</ele><speed>30</speed><time>2016-10-08T13:35:23Z</time><course>349</course><type>18</type></trkpt>
      <trkpt lat="41.17371" lon="-3.5727167"><ele>2278</ele><speed>30</speed><time>2016-10-08T13:35:24Z</time><course>2</course><type>18</type></trkpt>
      <trkpt lat="41.1738199" lon="-3.5727067"><ele>2281</ele><speed>38</speed><time>2016-10-08T13:35:25Z</time><course>23</course><type>18</type></trkpt>
      <trkpt lat="41.1739466" lon="-3.572645"><ele>2281</ele><speed>37</speed><time>2016-10-08T13:35:26Z</time><course>27</course><type>18</type></trkpt>
      <trkpt lat="41.174065" lon="-3.57259"><ele>2282</ele><speed>37</speed><time>2016-10-08T13:35:27Z</time><course>31</course><type>18</type></trkpt>
      <trkpt lat="41.1741783" lon="-3.57253"><ele>2283</ele><speed>37</speed><time>2016-10-08T13:35:28Z</time><course>31</course><type>18</type></trkpt>
      <trkpt lat="41.1742766" lon="-3.5724667"><ele>2285</ele><speed>38</speed><time>2016-10-08T13:35:29Z</time><course>31</course><type>18</type></trkpt>
      <trkpt lat="41.1743816" lon="-3.5724117"><ele>2286</ele><speed>37</speed><time>2016-10-08T13:35:30Z</time><course>30</course><type>18</type></trkpt>
      <trkpt lat="41.17447" lon="-3.5723367"><ele>2287</ele><speed>37</speed><time>2016-10-08T13:35:31Z</time><course>34</course><type>18</type></trkpt>
      <trkpt lat="41.1745483" lon="-3.5722534"><ele>2288</ele><speed>38</speed><time>2016-10-08T13:35:32Z</time><course>37</course><type>18</type></trkpt>
      <trkpt lat="41.1746133" lon="-3.5721617"><ele>2289</ele><speed>38</speed><time>2016-10-08T13:35:33Z</time><course>42</course><type>18</type></trkpt>
      <trkpt lat="41.17467" lon="-3.57205"><ele>2290</ele><speed>39</speed><time>2016-10-08T13:35:34Z</time><course>47</course><type>18</type></trkpt>
      <trkpt lat="41.1747199" lon="-3.5719184"><ele>2290</ele><speed>40</speed><time>2016-10-08T13:35:35Z</time><course>51</course><type>18</type></trkpt>
      <trkpt lat="41.1747483" lon="-3.571765"><ele>2291</ele><speed>41</speed><time>2016-10-08T13:35:36Z</time><course>56</course><type>18</type></trkpt>
      <trkpt lat="41.174745" lon="-3.57156"><ele>2292</ele><speed>44</speed><time>2016-10-08T13:35:37Z</time><course>64</course><type>18</type></trkpt>
      <trkpt lat="41.1746783" lon="-3.5714084"><ele>2292</ele><speed>43</speed><time>2016-10-08T13:35:38Z</time><course>75</course><type>18</type></trkpt>
      <trkpt lat="41.1746466" lon="-3.57125"><ele>2293</ele><speed>43</speed><time>2016-10-08T13:35:39Z</time><course>85</course><type>18</type></trkpt>
      <trkpt lat="41.1746333" lon="-3.5710867"><ele>2293</ele><speed>42</speed><time>2016-10-08T13:35:40Z</time><course>86</course><type>18</type></trkpt>
      <trkpt lat="41.17461" lon="-3.5709234"><ele>2294</ele><speed>41</speed><time>2016-10-08T13:35:41Z</time><course>89</course><type>18</type></trkpt>
      <trkpt lat="41.1745966" lon="-3.57077"><ele>2294</ele><speed>43</speed><time>2016-10-08T13:35:42Z</time><course>92</course><type>18</type></trkpt>
      <trkpt lat="41.1745916" lon="-3.5706217"><ele>2295</ele><speed>43</speed><time>2016-10-08T13:35:43Z</time><course>91</course><type>18</type></trkpt>
      <trkpt lat="41.1745766" lon="-3.5704934"><ele>2295</ele><speed>39</speed><time>2016-10-08T13:35:44Z</time><course>93</course><type>18</type></trkpt>
      <trkpt lat="41.174465" lon="-3.5704651"><ele>2300</ele><speed>43</speed><time>2016-10-08T13:35:45Z</time><course>106</course><type>18</type></trkpt>
      <trkpt lat="41.17437" lon="-3.5704367"><ele>2306</ele><speed>37</speed><time>2016-10-08T13:35:46Z</time><course>112</course><type>18</type></trkpt>
      <trkpt lat="41.17426" lon="-3.5704234"><ele>2311</ele><speed>34</speed><time>2016-10-08T13:35:47Z</time><course>126</course><type>18</type></trkpt>
      <trkpt lat="41.174175" lon="-3.5704201"><ele>2314</ele><speed>27</speed><time>2016-10-08T13:35:48Z</time><course>155</course><type>18</type></trkpt>
      <trkpt lat="41.1740983" lon="-3.5703834"><ele>2316</ele><speed>27</speed><time>2016-10-08T13:35:49Z</time><course>167</course><type>18</type></trkpt>
      <trkpt lat="41.174025" lon="-3.5703767"><ele>2319</ele><speed>28</speed><time>2016-10-08T13:35:50Z</time><course>181</course><type>18</type></trkpt>
      <trkpt lat="41.1739583" lon="-3.57038"><ele>2320</ele><speed>28</speed><time>2016-10-08T13:35:51Z</time><course>190</course><type>18</type></trkpt>
      <trkpt lat="41.1738916" lon="-3.5704067"><ele>2322</ele><speed>25</speed><time>2016-10-08T13:35:52Z</time><course>201</course><type>18</type></trkpt>
      <trkpt lat="41.1738366" lon="-3.5704484"><ele>2323</ele><speed>25</speed><time>2016-10-08T13:35:53Z</time><course>213</course><type>18</type></trkpt>
      <trkpt lat="41.1737766" lon="-3.5705634"><ele>2325</ele><speed>20</speed><time>2016-10-08T13:35:55Z</time><course>239</course><type>18</type></trkpt>
      <trkpt lat="41.1737916" lon="-3.5706417"><ele>2326</ele><speed>20</speed><time>2016-10-08T13:35:56Z</time><course>276</course><type>18</type></trkpt>
      <trkpt lat="41.1738383" lon="-3.570715"><ele>2327</ele><speed>24</speed><time>2016-10-08T13:35:57Z</time><course>313</course><type>18</type></trkpt>
      <trkpt lat="41.1738916" lon="-3.57077"><ele>2329</ele><speed>22</speed><time>2016-10-08T13:35:58Z</time><course>343</course><type>18</type></trkpt>
      <trkpt lat="41.173945" lon="-3.570795"><ele>2331</ele><speed>21</speed><time>2016-10-08T13:35:59Z</time><course>355</course><type>18</type></trkpt>
      <trkpt lat="41.17401" lon="-3.57081"><ele>2331</ele><speed>26</speed><time>2016-10-08T13:36:00Z</time><course>358</course><type>18</type></trkpt>
      <trkpt lat="41.1740783" lon="-3.5708184"><ele>2332</ele><speed>28</speed><time>2016-10-08T13:36:01Z</time><course>357</course><type>18</type></trkpt>
      <trkpt lat="41.1741516" lon="-3.57083"><ele>2333</ele><speed>30</speed><time>2016-10-08T13:36:02Z</time><course>359</course><type>18</type></trkpt>
      <trkpt lat="41.17423" lon="-3.570835"><ele>2334</ele><speed>31</speed><time>2016-10-08T13:36:03Z</time><course>2</course><type>18</type></trkpt>
      <trkpt lat="41.1743183" lon="-3.5708334"><ele>2335</ele><speed>34</speed><time>2016-10-08T13:36:04Z</time><course>7</course><type>18</type></trkpt>
      <trkpt lat="41.1744033" lon="-3.5708167"><ele>2336</ele><speed>34</speed><time>2016-10-08T13:36:05Z</time><course>13</course><type>18</type></trkpt>
      <trkpt lat="41.1744866" lon="-3.5707834"><ele>2337</ele><speed>34</speed><time>2016-10-08T13:36:06Z</time><course>18</course><type>18</type></trkpt>
      <trkpt lat="41.1745683" lon="-3.5707367"><ele>2338</ele><speed>35</speed><time>2016-10-08T13:36:07Z</time><course>22</course><type>18</type></trkpt>
      <trkpt lat="41.17465" lon="-3.570675"><ele>2339</ele><speed>37</speed><time>2016-10-08T13:36:08Z</time><course>28</course><type>18</type></trkpt>
      <trkpt lat="41.174725" lon="-3.5706067"><ele>2339</ele><speed>37</speed><time>2016-10-08T13:36:09Z</time><course>34</course><type>18</type></trkpt>
      <trkpt lat="41.1747983" lon="-3.5705334"><ele>2340</ele><speed>39</speed><time>2016-10-08T13:36:10Z</time><course>37</course><type>18</type></trkpt>
      <trkpt lat="41.17487" lon="-3.5704467"><ele>2341</ele><speed>41</speed><time>2016-10-08T13:36:11Z</time><course>41</course><type>18</type></trkpt>
      <trkpt lat="41.1749466" lon="-3.5703467"><ele>2342</ele><speed>44</speed><time>2016-10-08T13:36:12Z</time><course>43</course><type>18</type></trkpt>
      <trkpt lat="41.1750166" lon="-3.570235"><ele>2343</ele><speed>44</speed><time>2016-10-08T13:36:13Z</time><course>46</course><type>18</type></trkpt>
      <trkpt lat="41.1750883" lon="-3.5701284"><ele>2343</ele><speed>44</speed><time>2016-10-08T13:36:14Z</time><course>46</course><type>18</type></trkpt>
      <trkpt lat="41.1751233" lon="-3.5700634"><ele>2349</ele><speed>46</speed><time>2016-10-08T13:36:15Z</time><course>47</course><type>18</type></trkpt>
      <trkpt lat="41.1751666" lon="-3.5700184"><ele>2355</ele><speed>44</speed><time>2016-10-08T13:36:16Z</time><course>46</course><type>18</type></trkpt>
      <trkpt lat="41.1752149" lon="-3.5699534"><ele>2357</ele><speed>32</speed><time>2016-10-08T13:36:17Z</time><course>45</course><type>18</type></trkpt>
      <trkpt lat="41.1752766" lon="-3.5698684"><ele>2358</ele><speed>35</speed><time>2016-10-08T13:36:18Z</time><course>44</course><type>18</type></trkpt>
      <trkpt lat="41.175335" lon="-3.5697834"><ele>2361</ele><speed>41</speed><time>2016-10-08T13:36:19Z</time><course>44</course><type>18</type></trkpt>
      <trkpt lat="41.1754016" lon="-3.5696767"><ele>2363</ele><speed>44</speed><time>2016-10-08T13:36:20Z</time><course>41</course><type>18</type></trkpt>
      <trkpt lat="41.1754783" lon="-3.569575"><ele>2364</ele><speed>45</speed><time>2016-10-08T13:36:21Z</time><course>39</course><type>18</type></trkpt>
      <trkpt lat="41.1755583" lon="-3.569475"><ele>2365</ele><speed>46</speed><time>2016-10-08T13:36:22Z</time><course>40</course><type>18</type></trkpt>
      <trkpt lat="41.1756416" lon="-3.56938"><ele>2366</ele><speed>47</speed><time>2016-10-08T13:36:23Z</time><course>39</course><type>18</type></trkpt>
      <trkpt lat="41.1757316" lon="-3.5692767"><ele>2367</ele><speed>48</speed><time>2016-10-08T13:36:24Z</time><course>39</course><type>18</type></trkpt>
      <trkpt lat="41.1758383" lon="-3.569155"><ele>2368</ele><speed>55</speed><time>2016-10-08T13:36:25Z</time><course>39</course><type>18</type></trkpt>
      <trkpt lat="41.175925" lon="-3.5690417"><ele>2369</ele><speed>50</speed><time>2016-10-08T13:36:26Z</time><course>39</course><type>18</type></trkpt>
      <trkpt lat="41.1760116" lon="-3.56894"><ele>2370</ele><speed>46</speed><time>2016-10-08T13:36:27Z</time><course>37</course><type>18</type></trkpt>
      <trkpt lat="41.1760983" lon="-3.5688484"><ele>2371</ele><speed>44</speed><time>2016-10-08T13:36:28Z</time><course>36</course><type>18</type></trkpt>
      <trkpt lat="41.176185" lon="-3.5687584"><ele>2372</ele><speed>45</speed><time>2016-10-08T13:36:29Z</time><course>35</course><type>18</type></trkpt>
      <trkpt lat="41.1762766" lon="-3.56867"><ele>2372</ele><speed>46</speed><time>2016-10-08T13:36:30Z</time><course>34</course><type>18</type></trkpt>
      <trkpt lat="41.1763666" lon="-3.5685784"><ele>2373</ele><speed>46</speed><time>2016-10-08T13:36:31Z</time><course>34</course><type>18</type></trkpt>
      <trkpt lat="41.17645" lon="-3.5684934"><ele>2373</ele><speed>44</speed><time>2016-10-08T13:36:32Z</time><course>34</course><type>18</type></trkpt>
      <trkpt lat="41.1765466" lon="-3.5684234"><ele>2374</ele><speed>44</speed><time>2016-10-08T13:36:33Z</time><course>31</course><type>18</type></trkpt>
      <trkpt lat="41.1766366" lon="-3.5683634"><ele>2374</ele><speed>42</speed><time>2016-10-08T13:36:34Z</time><course>28</course><type>18</type></trkpt>
      <trkpt lat="41.1767516" lon="-3.56829"><ele>2375</ele><speed>30</speed><time>2016-10-08T13:36:36Z</time><course>27</course><type>18</type></trkpt>
      <trkpt lat="41.17682" lon="-3.5682284"><ele>2375</ele><speed>32</speed><time>2016-10-08T13:36:37Z</time><course>28</course><type>18</type></trkpt>
      <trkpt lat="41.1768883" lon="-3.5681534"><ele>2375</ele><speed>33</speed><time>2016-10-08T13:36:38Z</time><course>31</course><type>18</type></trkpt>
      <trkpt lat="41.1769716" lon="-3.56807"><ele>2375</ele><speed>36</speed><time>2016-10-08T13:36:39Z</time><course>33</course><type>18</type></trkpt>
      <trkpt lat="41.177065" lon="-3.5679634"><ele>2375</ele><speed>41</speed><time>2016-10-08T13:36:40Z</time><course>36</course><type>18</type></trkpt>
      <trkpt lat="41.1771666" lon="-3.5678367"><ele>2375</ele><speed>46</speed><time>2016-10-08T13:36:41Z</time><course>39</course><type>18</type></trkpt>
      <trkpt lat="41.1772716" lon="-3.5677084"><ele>2375</ele><speed>50</speed><time>2016-10-08T13:36:42Z</time><course>40</course><type>18</type></trkpt>
      <trkpt lat="41.1773666" lon="-3.56758"><ele>2375</ele><speed>52</speed><time>2016-10-08T13:36:43Z</time><course>42</course><type>18</type></trkpt>
      <trkpt lat="41.17746" lon="-3.5674484"><ele>2375</ele><speed>52</speed><time>2016-10-08T13:36:44Z</time><course>44</course><type>18</type></trkpt>
      <trkpt lat="41.1775566" lon="-3.5673117"><ele>2375</ele><speed>53</speed><time>2016-10-08T13:36:45Z</time><course>45</course><type>18</type></trkpt>
      <trkpt lat="41.1776433" lon="-3.5671767"><ele>2375</ele><speed>54</speed><time>2016-10-08T13:36:46Z</time><course>47</course><type>18</type></trkpt>
      <trkpt lat="41.17773" lon="-3.5670434"><ele>2375</ele><speed>54</speed><time>2016-10-08T13:36:47Z</time><course>47</course><type>18</type></trkpt>
      <trkpt lat="41.1778166" lon="-3.566895"><ele>2375</ele><speed>55</speed><time>2016-10-08T13:36:48Z</time><course>47</course><type>18</type></trkpt>
      <trkpt lat="41.1779183" lon="-3.566755"><ele>2375</ele><speed>57</speed><time>2016-10-08T13:36:49Z</time><course>45</course><type>18</type></trkpt>
      <trkpt lat="41.17802" lon="-3.566645"><ele>2374</ele><speed>48</speed><time>2016-10-08T13:36:50Z</time><course>38</course><type>18</type></trkpt>
      <trkpt lat="41.17811" lon="-3.5665367"><ele>2374</ele><speed>46</speed><time>2016-10-08T13:36:51Z</time><course>38</course><type>18</type></trkpt>
      <trkpt lat="41.1782016" lon="-3.5664034"><ele>2374</ele><speed>48</speed><time>2016-10-08T13:36:52Z</time><course>41</course><type>18</type></trkpt>
      <trkpt lat="41.1782883" lon="-3.5662484"><ele>2374</ele><speed>51</speed><time>2016-10-08T13:36:53Z</time><course>46</course><type>18</type></trkpt>
      <trkpt lat="41.1783933" lon="-3.566085"><ele>2374</ele><speed>55</speed><time>2016-10-08T13:36:54Z</time><course>48</course><type>18</type></trkpt>
      <trkpt lat="41.1784966" lon="-3.5659017"><ele>2373</ele><speed>59</speed><time>2016-10-08T13:36:55Z</time><course>50</course><type>18</type></trkpt>
      <trkpt lat="41.1785933" lon="-3.5657334"><ele>2373</ele><speed>60</speed><time>2016-10-08T13:36:56Z</time><course>50</course><type>18</type></trkpt>
      <trkpt lat="41.1786783" lon="-3.5655734"><ele>2372</ele><speed>60</speed><time>2016-10-08T13:36:57Z</time><course>51</course><type>18</type></trkpt>
      <trkpt lat="41.17878" lon="-3.5653867"><ele>2371</ele><speed>69</speed><time>2016-10-08T13:36:58Z</time><course>53</course><type>18</type></trkpt>
      <trkpt lat="41.1789133" lon="-3.5651767"><ele>2370</ele><speed>69</speed><time>2016-10-08T13:36:59Z</time><course>50</course><type>18</type></trkpt>
      <trkpt lat="41.1790333" lon="-3.564995"><ele>2370</ele><speed>67</speed><time>2016-10-08T13:37:00Z</time><course>48</course><type>18</type></trkpt>
      <trkpt lat="41.1791216" lon="-3.56486"><ele>2369</ele><speed>65</speed><time>2016-10-08T13:37:01Z</time><course>46</course><type>18</type></trkpt>
      <trkpt lat="41.1792033" lon="-3.5647234"><ele>2368</ele><speed>65</speed><time>2016-10-08T13:37:02Z</time><course>48</course><type>18</type></trkpt>
      <trkpt lat="41.17932" lon="-3.5645717"><ele>2367</ele><speed>66</speed><time>2016-10-08T13:37:03Z</time><course>48</course><type>18</type></trkpt>
      <trkpt lat="41.1794583" lon="-3.5644"><ele>2367</ele><speed>76</speed><time>2016-10-08T13:37:04Z</time><course>48</course><type>18</type></trkpt>
      <trkpt lat="41.179605" lon="-3.564205"><ele>2366</ele><speed>79</speed><time>2016-10-08T13:37:05Z</time><course>48</course><type>18</type></trkpt>
      <trkpt lat="41.1797116" lon="-3.5640434"><ele>2365</ele><speed>76</speed><time>2016-10-08T13:37:06Z</time><course>48</course><type>18</type></trkpt>
      <trkpt lat="41.1798383" lon="-3.5638584"><ele>2365</ele><speed>75</speed><time>2016-10-08T13:37:07Z</time><course>47</course><type>18</type></trkpt>
      <trkpt lat="41.1799083" lon="-3.5637217"><ele>2366</ele><speed>69</speed><time>2016-10-08T13:37:08Z</time><course>46</course><type>18</type></trkpt>
      <trkpt lat="41.1799633" lon="-3.56361"><ele>2365</ele><speed>50</speed><time>2016-10-08T13:37:10Z</time><course>44</course><type>18</type></trkpt>
      <trkpt lat="41.1800433" lon="-3.5635917"><ele>2365</ele><speed>41</speed><time>2016-10-08T13:37:11Z</time><course>38</course><type>18</type></trkpt>
      <trkpt lat="41.1801366" lon="-3.56354"><ele>2365</ele><speed>44</speed><time>2016-10-08T13:37:12Z</time><course>34</course><type>18</type></trkpt>
      <trkpt lat="41.1802183" lon="-3.5634834"><ele>2364</ele><speed>44</speed><time>2016-10-08T13:37:13Z</time><course>32</course><type>18</type></trkpt>
      <trkpt lat="41.1803183" lon="-3.5634267"><ele>2364</ele><speed>45</speed><time>2016-10-08T13:37:14Z</time><course>31</course><type>18</type></trkpt>
      <trkpt lat="41.180445" lon="-3.56338"><ele>2363</ele><speed>49</speed><time>2016-10-08T13:37:15Z</time><course>27</course><type>18</type></trkpt>
      <trkpt lat="41.1805716" lon="-3.5633434"><ele>2363</ele><speed>47</speed><time>2016-10-08T13:37:16Z</time><course>25</course><type>18</type></trkpt>
      <trkpt lat="41.1806566" lon="-3.5633067"><ele>2362</ele><speed>45</speed><time>2016-10-08T13:37:17Z</time><course>25</course><type>18</type></trkpt>
      <trkpt lat="41.1807733" lon="-3.5631967"><ele>2360</ele><speed>42</speed><time>2016-10-08T13:37:19Z</time><course>29</course><type>18</type></trkpt>
      <trkpt lat="41.1808616" lon="-3.5631134"><ele>2360</ele><speed>44</speed><time>2016-10-08T13:37:20Z</time><course>30</course><type>18</type></trkpt>
      <trkpt lat="41.18096" lon="-3.563025"><ele>2359</ele><speed>45</speed><time>2016-10-08T13:37:21Z</time><course>31</course><type>18</type></trkpt>
      <trkpt lat="41.1810666" lon="-3.5629084"><ele>2358</ele><speed>48</speed><time>2016-10-08T13:37:22Z</time><course>33</course><type>18</type></trkpt>
      <trkpt lat="41.1811583" lon="-3.5628417"><ele>2357</ele><speed>47</speed><time>2016-10-08T13:37:23Z</time><course>29</course><type>18</type></trkpt>
      <trkpt lat="41.1812483" lon="-3.5627317"><ele>2357</ele><speed>47</speed><time>2016-10-08T13:37:24Z</time><course>31</course><type>18</type></trkpt>
      <trkpt lat="41.1813416" lon="-3.5626434"><ele>2357</ele><speed>47</speed><time>2016-10-08T13:37:25Z</time><course>32</course><type>18</type></trkpt>
      <trkpt lat="41.18144" lon="-3.56249"><ele>2356</ele><speed>38</speed><time>2016-10-08T13:37:27Z</time><course>36</course><type>18</type></trkpt>
      <trkpt lat="41.1815233" lon="-3.5624"><ele>2356</ele><speed>41</speed><time>2016-10-08T13:37:28Z</time><course>37</course><type>18</type></trkpt>
      <trkpt lat="41.18162" lon="-3.56232"><ele>2356</ele><speed>43</speed><time>2016-10-08T13:37:29Z</time><course>34</course><type>18</type></trkpt>
      <trkpt lat="41.181715" lon="-3.5622317"><ele>2355</ele><speed>44</speed><time>2016-10-08T13:37:30Z</time><course>31</course><type>18</type></trkpt>
      <trkpt lat="41.1818033" lon="-3.5621517"><ele>2355</ele><speed>44</speed><time>2016-10-08T13:37:31Z</time><course>32</course><type>18</type></trkpt>
      <trkpt lat="41.18189" lon="-3.562075"><ele>2355</ele><speed>42</speed><time>2016-10-08T13:37:32Z</time><course>31</course><type>18</type></trkpt>
      <trkpt lat="41.1819816" lon="-3.5620067"><ele>2354</ele><speed>42</speed><time>2016-10-08T13:37:33Z</time><course>28</course><type>18</type></trkpt>
      <trkpt lat="41.18207" lon="-3.5619467"><ele>2353</ele><speed>43</speed><time>2016-10-08T13:37:34Z</time><course>27</course><type>18</type></trkpt>
      <trkpt lat="41.1821466" lon="-3.5618817"><ele>2352</ele><speed>44</speed><time>2016-10-08T13:37:35Z</time><course>28</course><type>18</type></trkpt>
      <trkpt lat="41.1822333" lon="-3.5618134"><ele>2352</ele><speed>43</speed><time>2016-10-08T13:37:36Z</time><course>27</course><type>18</type></trkpt>
      <trkpt lat="41.182325" lon="-3.5617517"><ele>2351</ele><speed>41</speed><time>2016-10-08T13:37:37Z</time><course>26</course><type>18</type></trkpt>
      <trkpt lat="41.1824083" lon="-3.56168"><ele>2350</ele><speed>48</speed><time>2016-10-08T13:37:38Z</time><course>29</course><type>18</type></trkpt>
      <trkpt lat="41.182495" lon="-3.5616067"><ele>2349</ele><speed>51</speed><time>2016-10-08T13:37:39Z</time><course>30</course><type>18</type></trkpt>
      <trkpt lat="41.182585" lon="-3.561545"><ele>2347</ele><speed>49</speed><time>2016-10-08T13:37:40Z</time><course>29</course><type>18</type></trkpt>
      <trkpt lat="41.1826716" lon="-3.5614967"><ele>2346</ele><speed>47</speed><time>2016-10-08T13:37:41Z</time><course>27</course><type>18</type></trkpt>
      <trkpt lat="41.1827616" lon="-3.5614484"><ele>2345</ele><speed>44</speed><time>2016-10-08T13:37:42Z</time><course>25</course><type>18</type></trkpt>
      <trkpt lat="41.182825" lon="-3.5614017"><ele>2344</ele><speed>39</speed><time>2016-10-08T13:37:43Z</time><course>24</course><type>18</type></trkpt>
      <trkpt lat="41.1829183" lon="-3.561305"><ele>2343</ele><speed>29</speed><time>2016-10-08T13:37:45Z</time><course>27</course><type>18</type></trkpt>
      <trkpt lat="41.182975" lon="-3.5612317"><ele>2342</ele><speed>30</speed><time>2016-10-08T13:37:46Z</time><course>30</course><type>18</type></trkpt>
      <trkpt lat="41.1830383" lon="-3.5611817"><ele>2342</ele><speed>33</speed><time>2016-10-08T13:37:47Z</time><course>29</course><type>18</type></trkpt>
      <trkpt lat="41.1831049" lon="-3.56114"><ele>2341</ele><speed>35</speed><time>2016-10-08T13:37:48Z</time><course>26</course><type>18</type></trkpt>
      <trkpt lat="41.1831766" lon="-3.5611084"><ele>2340</ele><speed>34</speed><time>2016-10-08T13:37:49Z</time><course>22</course><type>18</type></trkpt>
      <trkpt lat="41.1832499" lon="-3.561085"><ele>2339</ele><speed>34</speed><time>2016-10-08T13:37:50Z</time><course>20</course><type>18</type></trkpt>
      <trkpt lat="41.1833216" lon="-3.5610684"><ele>2337</ele><speed>33</speed><time>2016-10-08T13:37:51Z</time><course>19</course><type>18</type></trkpt>
      <trkpt lat="41.18346" lon="-3.5610217"><ele>2335</ele><speed>33</speed><time>2016-10-08T13:37:53Z</time><course>18</course><type>18</type></trkpt>
      <trkpt lat="41.18354" lon="-3.560995"><ele>2333</ele><speed>35</speed><time>2016-10-08T13:37:54Z</time><course>16</course><type>18</type></trkpt>
      <trkpt lat="41.18362" lon="-3.5609634"><ele>2332</ele><speed>35</speed><time>2016-10-08T13:37:55Z</time><course>13</course><type>18</type></trkpt>
      <trkpt lat="41.1837233" lon="-3.5609417"><ele>2330</ele><speed>43</speed><time>2016-10-08T13:37:56Z</time><course>356</course><type>18</type></trkpt>
      <trkpt lat="41.1838533" lon="-3.56096"><ele>2329</ele><speed>43</speed><time>2016-10-08T13:37:57Z</time><course>355</course><type>18</type></trkpt>
      <trkpt lat="41.1839783" lon="-3.5609734"><ele>2328</ele><speed>44</speed><time>2016-10-08T13:37:58Z</time><course>356</course><type>18</type></trkpt>
      <trkpt lat="41.184075" lon="-3.56096"><ele>2327</ele><speed>40</speed><time>2016-10-08T13:37:59Z</time><course>355</course><type>18</type></trkpt>
      <trkpt lat="41.1841733" lon="-3.5609301"><ele>2326</ele><speed>39</speed><time>2016-10-08T13:38:00Z</time><course>359</course><type>18</type></trkpt>
      <trkpt lat="41.1842666" lon="-3.5608634"><ele>2326</ele><speed>40</speed><time>2016-10-08T13:38:01Z</time><course>7</course><type>18</type></trkpt>
      <trkpt lat="41.1843266" lon="-3.5607334"><ele>2325</ele><speed>40</speed><time>2016-10-08T13:38:02Z</time><course>20</course><type>18</type></trkpt>
      <trkpt lat="41.1844116" lon="-3.56068"><ele>2324</ele><speed>41</speed><time>2016-10-08T13:38:03Z</time><course>19</course><type>18</type></trkpt>
      <trkpt lat="41.1844933" lon="-3.5606151"><ele>2323</ele><speed>41</speed><time>2016-10-08T13:38:04Z</time><course>18</course><type>18</type></trkpt>
      <trkpt lat="41.1845866" lon="-3.560555"><ele>2322</ele><speed>43</speed><time>2016-10-08T13:38:05Z</time><course>19</course><type>18</type></trkpt>
      <trkpt lat="41.1846866" lon="-3.5604917"><ele>2322</ele><speed>46</speed><time>2016-10-08T13:38:06Z</time><course>21</course><type>18</type></trkpt>
      <trkpt lat="41.18479" lon="-3.560405"><ele>2321</ele><speed>49</speed><time>2016-10-08T13:38:07Z</time><course>22</course><type>18</type></trkpt>
      <trkpt lat="41.1848933" lon="-3.5603217"><ele>2320</ele><speed>50</speed><time>2016-10-08T13:38:08Z</time><course>22</course><type>18</type></trkpt>
      <trkpt lat="41.1849933" lon="-3.5602434"><ele>2319</ele><speed>50</speed><time>2016-10-08T13:38:09Z</time><course>23</course><type>18</type></trkpt>
      <trkpt lat="41.18507" lon="-3.560175"><ele>2318</ele><speed>42</speed><time>2016-10-08T13:38:10Z</time><course>24</course><type>18</type></trkpt>
      <trkpt lat="41.1851433" lon="-3.5601017"><ele>2317</ele><speed>39</speed><time>2016-10-08T13:38:11Z</time><course>27</course><type>18</type></trkpt>
      <trkpt lat="41.18524" lon="-3.560025"><ele>2316</ele><speed>51</speed><time>2016-10-08T13:38:12Z</time><course>29</course><type>18</type></trkpt>
      <trkpt lat="41.18532" lon="-3.55992"><ele>2315</ele><speed>53</speed><time>2016-10-08T13:38:13Z</time><course>34</course><type>18</type></trkpt>
      <trkpt lat="41.1853983" lon="-3.5598267"><ele>2314</ele><speed>49</speed><time>2016-10-08T13:38:14Z</time><course>34</course><type>18</type></trkpt>
      <trkpt lat="41.185475" lon="-3.5597417"><ele>2313</ele><speed>47</speed><time>2016-10-08T13:38:15Z</time><course>35</course><type>18</type></trkpt>
      <trkpt lat="41.1855383" lon="-3.5596801"><ele>2313</ele><speed>41</speed><time>2016-10-08T13:38:16Z</time><course>36</course><type>18</type></trkpt>
      <trkpt lat="41.1856166" lon="-3.5596517"><ele>2312</ele><speed>23</speed><time>2016-10-08T13:38:18Z</time><course>23</course><type>18</type></trkpt>
      <trkpt lat="41.1857183" lon="-3.559575"><ele>2311</ele><speed>31</speed><time>2016-10-08T13:38:20Z</time><course>30</course><type>18</type></trkpt>
      <trkpt lat="41.185795" lon="-3.5595034"><ele>2310</ele><speed>37</speed><time>2016-10-08T13:38:21Z</time><course>31</course><type>18</type></trkpt>
      <trkpt lat="41.1858716" lon="-3.55944"><ele>2310</ele><speed>40</speed><time>2016-10-08T13:38:22Z</time><course>31</course><type>18</type></trkpt>
      <trkpt lat="41.1859833" lon="-3.5593784"><ele>2308</ele><speed>41</speed><time>2016-10-08T13:38:23Z</time><course>29</course><type>18</type></trkpt>
      <trkpt lat="41.186075" lon="-3.5593134"><ele>2307</ele><speed>38</speed><time>2016-10-08T13:38:24Z</time><course>28</course><type>18</type></trkpt>
      <trkpt lat="41.1861533" lon="-3.55925"><ele>2306</ele><speed>35</speed><time>2016-10-08T13:38:25Z</time><course>29</course><type>18</type></trkpt>
      <trkpt lat="41.18625" lon="-3.55919"><ele>2305</ele><speed>35</speed><time>2016-10-08T13:38:26Z</time><course>30</course><type>18</type></trkpt>
      <trkpt lat="41.1863216" lon="-3.5591284"><ele>2304</ele><speed>35</speed><time>2016-10-08T13:38:27Z</time><course>25</course><type>18</type></trkpt>
      <trkpt lat="41.1863933" lon="-3.559075"><ele>2304</ele><speed>37</speed><time>2016-10-08T13:38:28Z</time><course>21</course><type>18</type></trkpt>
      <trkpt lat="41.1865216" lon="-3.55903"><ele>2303</ele><speed>38</speed><time>2016-10-08T13:38:29Z</time><course>20</course><type>18</type></trkpt>
      <trkpt lat="41.1867216" lon="-3.5589584"><ele>2300</ele><speed>52</speed><time>2016-10-08T13:38:30Z</time><course>24</course><type>18</type></trkpt>
      <trkpt lat="41.1868716" lon="-3.5589267"><ele>2299</ele><speed>49</speed><time>2016-10-08T13:38:31Z</time><course>10</course><type>18</type></trkpt>
      <trkpt lat="41.1869683" lon="-3.5588917"><ele>2299</ele><speed>45</speed><time>2016-10-08T13:38:32Z</time><course>5</course><type>18</type></trkpt>
      <trkpt lat="41.1870733" lon="-3.5588534"><ele>2298</ele><speed>44</speed><time>2016-10-08T13:38:33Z</time><course>8</course><type>18</type></trkpt>
      <trkpt lat="41.1871433" lon="-3.5587867"><ele>2297</ele><speed>37</speed><time>2016-10-08T13:38:34Z</time><course>16</course><type>18</type></trkpt>
      <trkpt lat="41.1872233" lon="-3.5587217"><ele>2296</ele><speed>36</speed><time>2016-10-08T13:38:35Z</time><course>22</course><type>18</type></trkpt>
      <trkpt lat="41.1873033" lon="-3.5586367"><ele>2295</ele><speed>37</speed><time>2016-10-08T13:38:36Z</time><course>30</course><type>18</type></trkpt>
      <trkpt lat="41.1873966" lon="-3.558545"><ele>2295</ele><speed>40</speed><time>2016-10-08T13:38:37Z</time><course>34</course><type>18</type></trkpt>
      <trkpt lat="41.1874766" lon="-3.558455"><ele>2294</ele><speed>43</speed><time>2016-10-08T13:38:38Z</time><course>36</course><type>18</type></trkpt>
      <trkpt lat="41.1875416" lon="-3.5583417"><ele>2293</ele><speed>44</speed><time>2016-10-08T13:38:39Z</time><course>41</course><type>18</type></trkpt>
      <trkpt lat="41.187605" lon="-3.5582234"><ele>2293</ele><speed>46</speed><time>2016-10-08T13:38:40Z</time><course>44</course><type>18</type></trkpt>
      <trkpt lat="41.1876533" lon="-3.5580934"><ele>2292</ele><speed>48</speed><time>2016-10-08T13:38:41Z</time><course>45</course><type>18</type></trkpt>
      <trkpt lat="41.1877033" lon="-3.5579467"><ele>2292</ele><speed>48</speed><time>2016-10-08T13:38:42Z</time><course>47</course><type>18</type></trkpt>
      <trkpt lat="41.1877583" lon="-3.5578284"><ele>2291</ele><speed>46</speed><time>2016-10-08T13:38:43Z</time><course>48</course><type>18</type></trkpt>
      <trkpt lat="41.1878183" lon="-3.557695"><ele>2290</ele><speed>45</speed><time>2016-10-08T13:38:44Z</time><course>51</course><type>18</type></trkpt>
      <trkpt lat="41.1878833" lon="-3.5575634"><ele>2290</ele><speed>47</speed><time>2016-10-08T13:38:45Z</time><course>52</course><type>18</type></trkpt>
      <trkpt lat="41.1879533" lon="-3.5574284"><ele>2289</ele><speed>48</speed><time>2016-10-08T13:38:46Z</time><course>52</course><type>18</type></trkpt>
      <trkpt lat="41.1880283" lon="-3.5572784"><ele>2289</ele><speed>52</speed><time>2016-10-08T13:38:47Z</time><course>52</course><type>18</type></trkpt>
      <trkpt lat="41.1881583" lon="-3.557175"><ele>2287</ele><speed>39</speed><time>2016-10-08T13:38:48Z</time><course>46</course><type>18</type></trkpt>
      <trkpt lat="41.1882983" lon="-3.557065"><ele>2286</ele><speed>33</speed><time>2016-10-08T13:38:49Z</time><course>42</course><type>18</type></trkpt>
      <trkpt lat="41.1884616" lon="-3.5569667"><ele>2284</ele><speed>33</speed><time>2016-10-08T13:38:50Z</time><course>41</course><type>18</type></trkpt>
      <trkpt lat="41.1885916" lon="-3.55687"><ele>2283</ele><speed>35</speed><time>2016-10-08T13:38:51Z</time><course>42</course><type>18</type></trkpt>
      <trkpt lat="41.1887233" lon="-3.5567667"><ele>2282</ele><speed>37</speed><time>2016-10-08T13:38:52Z</time><course>43</course><type>18</type></trkpt>
      <trkpt lat="41.1888183" lon="-3.55666"><ele>2281</ele><speed>40</speed><time>2016-10-08T13:38:53Z</time><course>44</course><type>18</type></trkpt>
      <trkpt lat="41.18889" lon="-3.55655"><ele>2281</ele><speed>41</speed><time>2016-10-08T13:38:54Z</time><course>45</course><type>18</type></trkpt>
      <trkpt lat="41.18895" lon="-3.556435"><ele>2280</ele><speed>40</speed><time>2016-10-08T13:38:55Z</time><course>47</course><type>18</type></trkpt>
      <trkpt lat="41.1889416" lon="-3.556295"><ele>2280</ele><speed>38</speed><time>2016-10-08T13:38:56Z</time><course>55</course><type>18</type></trkpt>
      <trkpt lat="41.188905" lon="-3.5561334"><ele>2280</ele><speed>36</speed><time>2016-10-08T13:38:57Z</time><course>66</course><type>18</type></trkpt>
      <trkpt lat="41.1888333" lon="-3.55594"><ele>2279</ele><speed>36</speed><time>2016-10-08T13:38:58Z</time><course>80</course><type>18</type></trkpt>
      <trkpt lat="41.188785" lon="-3.55579"><ele>2279</ele><speed>36</speed><time>2016-10-08T13:38:59Z</time><course>89</course><type>18</type></trkpt>
      <trkpt lat="41.188705" lon="-3.5555017"><ele>2278</ele><speed>38</speed><time>2016-10-08T13:39:01Z</time><course>98</course><type>18</type></trkpt>
      <trkpt lat="41.1886533" lon="-3.5553467"><ele>2277</ele><speed>40</speed><time>2016-10-08T13:39:02Z</time><course>102</course><type>18</type></trkpt>
      <trkpt lat="41.1885733" lon="-3.55522"><ele>2277</ele><speed>42</speed><time>2016-10-08T13:39:03Z</time><course>108</course><type>18</type></trkpt>
      <trkpt lat="41.18848" lon="-3.5551134"><ele>2276</ele><speed>44</speed><time>2016-10-08T13:39:04Z</time><course>112</course><type>18</type></trkpt>
      <trkpt lat="41.188385" lon="-3.5549834"><ele>2276</ele><speed>46</speed><time>2016-10-08T13:39:05Z</time><course>116</course><type>18</type></trkpt>
      <trkpt lat="41.1882233" lon="-3.5548917"><ele>2275</ele><speed>41</speed><time>2016-10-08T13:39:07Z</time><course>111</course><type>18</type></trkpt>
      <trkpt lat="41.1881333" lon="-3.5547034"><ele>2274</ele><speed>38</speed><time>2016-10-08T13:39:09Z</time><course>112</course><type>18</type></trkpt>
      <trkpt lat="41.18817" lon="-3.554875"><ele>2272</ele><speed>32</speed><time>2016-10-08T13:39:10Z</time><course>117</course><type>18</type></trkpt>
      <trkpt lat="41.1882233" lon="-3.55515"><ele>2271</ele><speed>25</speed><time>2016-10-08T13:39:11Z</time><course>125</course><type>18</type></trkpt>
      <trkpt lat="41.1881216" lon="-3.5550934"><ele>2269</ele><speed>28</speed><time>2016-10-08T13:39:14Z</time><course>123</course><type>18</type></trkpt>
      <trkpt lat="41.1876366" lon="-3.5545734"><ele>2264</ele><speed>38</speed><time>2016-10-08T13:39:16Z</time><course>117</course><type>18</type></trkpt>
      <trkpt lat="41.1876016" lon="-3.5543717"><ele>2263</ele><speed>39</speed><time>2016-10-08T13:39:17Z</time><course>114</course><type>18</type></trkpt>
      <trkpt lat="41.187495" lon="-3.554105"><ele>2263</ele><speed>40</speed><time>2016-10-08T13:39:18Z</time><course>116</course><type>18</type></trkpt>
      <trkpt lat="41.187435" lon="-3.55398"><ele>2262</ele><speed>45</speed><time>2016-10-08T13:39:19Z</time><course>123</course><type>18</type></trkpt>
      <trkpt lat="41.1873" lon="-3.553725"><ele>2261</ele><speed>33</speed><time>2016-10-08T13:39:21Z</time><course>115</course><type>18</type></trkpt>
      <trkpt lat="41.1873783" lon="-3.55388"><ele>2259</ele><speed>15</speed><time>2016-10-08T13:39:23Z</time><course>104</course><type>18</type></trkpt>
      <trkpt lat="41.1874383" lon="-3.5540067"><ele>2258</ele><speed>15</speed><time>2016-10-08T13:39:24Z</time><course>99</course><type>18</type></trkpt>
      <trkpt lat="41.18739" lon="-3.5536934"><ele>2255</ele><speed>41</speed><time>2016-10-08T13:39:27Z</time><course>105</course><type>18</type></trkpt>
      <trkpt lat="41.1873566" lon="-3.5535267"><ele>2254</ele><speed>44</speed><time>2016-10-08T13:39:28Z</time><course>105</course><type>18</type></trkpt>
      <trkpt lat="41.1873316" lon="-3.553375"><ele>2254</ele><speed>44</speed><time>2016-10-08T13:39:29Z</time><course>104</course><type>18</type></trkpt>
      <trkpt lat="41.1873083" lon="-3.55322"><ele>2253</ele><speed>45</speed><time>2016-10-08T13:39:30Z</time><course>103</course><type>18</type></trkpt>
      <trkpt lat="41.1872933" lon="-3.55306"><ele>2253</ele><speed>46</speed><time>2016-10-08T13:39:31Z</time><course>100</course><type>18</type></trkpt>
      <trkpt lat="41.1872783" lon="-3.5529017"><ele>2252</ele><speed>47</speed><time>2016-10-08T13:39:32Z</time><course>100</course><type>18</type></trkpt>
      <trkpt lat="41.1872616" lon="-3.5527384"><ele>2251</ele><speed>48</speed><time>2016-10-08T13:39:33Z</time><course>99</course><type>18</type></trkpt>
      <trkpt lat="41.1872366" lon="-3.55254"><ele>2251</ele><speed>51</speed><time>2016-10-08T13:39:34Z</time><course>100</course><type>18</type></trkpt>
      <trkpt lat="41.1872233" lon="-3.5523784"><ele>2250</ele><speed>51</speed><time>2016-10-08T13:39:35Z</time><course>100</course><type>18</type></trkpt>
      <trkpt lat="41.1872066" lon="-3.552215"><ele>2250</ele><speed>52</speed><time>2016-10-08T13:39:36Z</time><course>100</course><type>18</type></trkpt>
      <trkpt lat="41.1871899" lon="-3.5520251"><ele>2249</ele><speed>56</speed><time>2016-10-08T13:39:37Z</time><course>98</course><type>18</type></trkpt>
      <trkpt lat="41.1871716" lon="-3.5518434"><ele>2249</ele><speed>56</speed><time>2016-10-08T13:39:38Z</time><course>98</course><type>18</type></trkpt>
      <trkpt lat="41.1871566" lon="-3.5516734"><ele>2248</ele><speed>54</speed><time>2016-10-08T13:39:39Z</time><course>97</course><type>18</type></trkpt>
      <trkpt lat="41.187135" lon="-3.5515167"><ele>2248</ele><speed>49</speed><time>2016-10-08T13:39:40Z</time><course>95</course><type>18</type></trkpt>
      <trkpt lat="41.1871066" lon="-3.5513784"><ele>2247</ele><speed>47</speed><time>2016-10-08T13:39:41Z</time><course>98</course><type>18</type></trkpt>
      <trkpt lat="41.1870766" lon="-3.55122"><ele>2247</ele><speed>47</speed><time>2016-10-08T13:39:42Z</time><course>100</course><type>18</type></trkpt>
      <trkpt lat="41.1870266" lon="-3.5510834"><ele>2246</ele><speed>46</speed><time>2016-10-08T13:39:43Z</time><course>104</course><type>18</type></trkpt>
      <trkpt lat="41.1869566" lon="-3.5509484"><ele>2246</ele><speed>45</speed><time>2016-10-08T13:39:44Z</time><course>108</course><type>18</type></trkpt>
      <trkpt lat="41.186845" lon="-3.5508584"><ele>2245</ele><speed>46</speed><time>2016-10-08T13:39:45Z</time><course>120</course><type>18</type></trkpt>
      <trkpt lat="41.1867333" lon="-3.55074"><ele>2245</ele><speed>48</speed><time>2016-10-08T13:39:46Z</time><course>126</course><type>18</type></trkpt>
      <trkpt lat="41.186625" lon="-3.5506334"><ele>2244</ele><speed>49</speed><time>2016-10-08T13:39:47Z</time><course>131</course><type>18</type></trkpt>
      <trkpt lat="41.1864766" lon="-3.5504934"><ele>2244</ele><speed>52</speed><time>2016-10-08T13:39:48Z</time><course>135</course><type>18</type></trkpt>
      <trkpt lat="41.1863183" lon="-3.5504167"><ele>2243</ele><speed>57</speed><time>2016-10-08T13:39:49Z</time><course>142</course><type>18</type></trkpt>
      <trkpt lat="41.18618" lon="-3.5502984"><ele>2243</ele><speed>56</speed><time>2016-10-08T13:39:50Z</time><course>141</course><type>18</type></trkpt>
      <trkpt lat="41.1860683" lon="-3.5501717"><ele>2242</ele><speed>55</speed><time>2016-10-08T13:39:51Z</time><course>134</course><type>18</type></trkpt>
      <trkpt lat="41.1859766" lon="-3.5500634"><ele>2242</ele><speed>52</speed><time>2016-10-08T13:39:52Z</time><course>134</course><type>18</type></trkpt>
      <trkpt lat="41.18588" lon="-3.5499467"><ele>2241</ele><speed>57</speed><time>2016-10-08T13:39:53Z</time><course>133</course><type>18</type></trkpt>
      <trkpt lat="41.185775" lon="-3.5498184"><ele>2241</ele><speed>60</speed><time>2016-10-08T13:39:54Z</time><course>134</course><type>18</type></trkpt>
      <trkpt lat="41.1856699" lon="-3.5496834"><ele>2240</ele><speed>59</speed><time>2016-10-08T13:39:55Z</time><course>134</course><type>18</type></trkpt>
      <trkpt lat="41.1855683" lon="-3.54956"><ele>2240</ele><speed>58</speed><time>2016-10-08T13:39:56Z</time><course>134</course><type>18</type></trkpt>
      <trkpt lat="41.1854899" lon="-3.549465"><ele>2240</ele><speed>56</speed><time>2016-10-08T13:39:57Z</time><course>134</course><type>18</type></trkpt>
      <trkpt lat="41.1853383" lon="-3.5493184"><ele>2238</ele><speed>37</speed><time>2016-10-08T13:39:59Z</time><course>138</course><type>18</type></trkpt>
      <trkpt lat="41.1851366" lon="-3.54896"><ele>2237</ele><speed>43</speed><time>2016-10-08T13:40:00Z</time><course>133</course><type>18</type></trkpt>
      <trkpt lat="41.185045" lon="-3.5488234"><ele>2236</ele><speed>43</speed><time>2016-10-08T13:40:01Z</time><course>129</course><type>18</type></trkpt>
      <trkpt lat="41.184915" lon="-3.5485767"><ele>2234</ele><speed>42</speed><time>2016-10-08T13:40:02Z</time><course>125</course><type>18</type></trkpt>
      <trkpt lat="41.1847433" lon="-3.5482917"><ele>2231</ele><speed>44</speed><time>2016-10-08T13:40:03Z</time><course>120</course><type>18</type></trkpt>
      <trkpt lat="41.1846366" lon="-3.548105"><ele>2228</ele><speed>45</speed><time>2016-10-08T13:40:04Z</time><course>119</course><type>18</type></trkpt>
      <trkpt lat="41.1845166" lon="-3.5478767"><ele>2222</ele><speed>50</speed><time>2016-10-08T13:40:05Z</time><course>117</course><type>18</type></trkpt>
      <trkpt lat="41.1843733" lon="-3.5476317"><ele>2213</ele><speed>52</speed><time>2016-10-08T13:40:06Z</time><course>116</course><type>18</type></trkpt>
      <trkpt lat="41.1843116" lon="-3.5474117"><ele>2211</ele><speed>49</speed><time>2016-10-08T13:40:07Z</time><course>115</course><type>18</type></trkpt>
      <trkpt lat="41.184245" lon="-3.5472517"><ele>2208</ele><speed>45</speed><time>2016-10-08T13:40:08Z</time><course>112</course><type>18</type></trkpt>
      <trkpt lat="41.1842233" lon="-3.5470501"><ele>2200</ele><speed>48</speed><time>2016-10-08T13:40:10Z</time><course>93</course><type>18</type></trkpt>
      <trkpt lat="41.18421" lon="-3.5468817"><ele>2196</ele><speed>57</speed><time>2016-10-08T13:40:11Z</time><course>87</course><type>18</type></trkpt>
      <trkpt lat="41.1841983" lon="-3.5467617"><ele>2193</ele><speed>51</speed><time>2016-10-08T13:40:12Z</time><course>95</course><type>18</type></trkpt>
      <trkpt lat="41.184105" lon="-3.5467434"><ele>2180</ele><speed>37</speed><time>2016-10-08T13:40:15Z</time><course>103</course><type>18</type></trkpt>
      <trkpt lat="41.1840066" lon="-3.546795"><ele>2174</ele><speed>33</speed><time>2016-10-08T13:40:16Z</time><course>114</course><type>18</type></trkpt>
      <trkpt lat="41.18407" lon="-3.5467351"><ele>2148</ele><speed>21</speed><time>2016-10-08T13:40:21Z</time><course>54</course><type>18</type></trkpt>
      <trkpt lat="41.1841366" lon="-3.5468684"><ele>2136</ele><speed>22</speed><time>2016-10-08T13:40:23Z</time><course>359</course><type>18</type></trkpt>
      <trkpt lat="41.184235" lon="-3.5469934"><ele>2128</ele><speed>22</speed><time>2016-10-08T13:40:25Z</time><course>346</course><type>18</type></trkpt>
      <trkpt lat="41.1842966" lon="-3.5470567"><ele>2125</ele><speed>23</speed><time>2016-10-08T13:40:26Z</time><course>340</course><type>18</type></trkpt>
      <trkpt lat="41.1843866" lon="-3.5471717"><ele>2121</ele><speed>24</speed><time>2016-10-08T13:40:27Z</time><course>331</course><type>18</type></trkpt>
      <trkpt lat="41.1844616" lon="-3.5472634"><ele>2119</ele><speed>25</speed><time>2016-10-08T13:40:28Z</time><course>327</course><type>18</type></trkpt>
      <trkpt lat="41.18456" lon="-3.547415"><ele>2115</ele><speed>25</speed><time>2016-10-08T13:40:30Z</time><course>319</course><type>18</type></trkpt>
      <trkpt lat="41.1846366" lon="-3.5474717"><ele>2113</ele><speed>24</speed><time>2016-10-08T13:40:31Z</time><course>317</course><type>18</type></trkpt>
      <trkpt lat="41.1847016" lon="-3.5475384"><ele>2112</ele><speed>20</speed><time>2016-10-08T13:40:32Z</time><course>305</course><type>18</type></trkpt>
      <trkpt lat="41.1845766" lon="-3.5477667"><ele>2108</ele><speed>21</speed><time>2016-10-08T13:40:33Z</time><course>260</course><type>18</type></trkpt>
      <trkpt lat="41.1845733" lon="-3.5478934"><ele>2107</ele><speed>26</speed><time>2016-10-08T13:40:34Z</time><course>249</course><type>18</type></trkpt>
      <trkpt lat="41.1845233" lon="-3.5480517"><ele>2105</ele><speed>28</speed><time>2016-10-08T13:40:35Z</time><course>243</course><type>18</type></trkpt>
      <trkpt lat="41.1843933" lon="-3.548335"><ele>2101</ele><speed>36</speed><time>2016-10-08T13:40:36Z</time><course>229</course><type>18</type></trkpt>
      <trkpt lat="41.18424" lon="-3.5485734"><ele>2098</ele><speed>42</speed><time>2016-10-08T13:40:37Z</time><course>224</course><type>18</type></trkpt>
      <trkpt lat="41.1841516" lon="-3.5488084"><ele>2094</ele><speed>45</speed><time>2016-10-08T13:40:38Z</time><course>220</course><type>18</type></trkpt>
      <trkpt lat="41.1839533" lon="-3.5490734"><ele>2090</ele><speed>47</speed><time>2016-10-08T13:40:39Z</time><course>214</course><type>18</type></trkpt>
      <trkpt lat="41.18374" lon="-3.5492034"><ele>2088</ele><speed>48</speed><time>2016-10-08T13:40:40Z</time><course>209</course><type>18</type></trkpt>
      <trkpt lat="41.1835733" lon="-3.5494084"><ele>2084</ele><speed>46</speed><time>2016-10-08T13:40:41Z</time><course>205</course><type>18</type></trkpt>
      <trkpt lat="41.1834016" lon="-3.5495134"><ele>2082</ele><speed>47</speed><time>2016-10-08T13:40:42Z</time><course>202</course><type>18</type></trkpt>
      <trkpt lat="41.1832483" lon="-3.54961"><ele>2080</ele><speed>50</speed><time>2016-10-08T13:40:43Z</time><course>200</course><type>18</type></trkpt>
      <trkpt lat="41.1830866" lon="-3.5497"><ele>2079</ele><speed>60</speed><time>2016-10-08T13:40:44Z</time><course>201</course><type>18</type></trkpt>
      <trkpt lat="41.1829033" lon="-3.5497917"><ele>2077</ele><speed>62</speed><time>2016-10-08T13:40:45Z</time><course>200</course><type>18</type></trkpt>
      <trkpt lat="41.1827566" lon="-3.5498634"><ele>2075</ele><speed>61</speed><time>2016-10-08T13:40:46Z</time><course>196</course><type>18</type></trkpt>
      <trkpt lat="41.1826199" lon="-3.5499567"><ele>2073</ele><speed>60</speed><time>2016-10-08T13:40:47Z</time><course>196</course><type>18</type></trkpt>
      <trkpt lat="41.1824833" lon="-3.550045"><ele>2071</ele><speed>60</speed><time>2016-10-08T13:40:48Z</time><course>198</course><type>18</type></trkpt>
      <trkpt lat="41.18239" lon="-3.5501734"><ele>2069</ele><speed>55</speed><time>2016-10-08T13:40:49Z</time><course>203</course><type>18</type></trkpt>
      <trkpt lat="41.1822866" lon="-3.5502"><ele>2065</ele><speed>39</speed><time>2016-10-08T13:40:51Z</time><course>199</course><type>18</type></trkpt>
      <trkpt lat="41.1821666" lon="-3.5502017"><ele>2063</ele><speed>39</speed><time>2016-10-08T13:40:52Z</time><course>191</course><type>18</type></trkpt>
      <trkpt lat="41.1820483" lon="-3.5501967"><ele>2061</ele><speed>38</speed><time>2016-10-08T13:40:53Z</time><course>183</course><type>18</type></trkpt>
      <trkpt lat="41.1819133" lon="-3.5501734"><ele>2058</ele><speed>39</speed><time>2016-10-08T13:40:54Z</time><course>180</course><type>18</type></trkpt>
      <trkpt lat="41.1817733" lon="-3.550145"><ele>2056</ele><speed>42</speed><time>2016-10-08T13:40:55Z</time><course>181</course><type>18</type></trkpt>
      <trkpt lat="41.1816783" lon="-3.5501117"><ele>2054</ele><speed>44</speed><time>2016-10-08T13:40:56Z</time><course>181</course><type>18</type></trkpt>
      <trkpt lat="41.1815666" lon="-3.550075"><ele>2049</ele><speed>45</speed><time>2016-10-08T13:40:57Z</time><course>182</course><type>18</type></trkpt>
      <trkpt lat="41.1814633" lon="-3.550035"><ele>2044</ele><speed>46</speed><time>2016-10-08T13:40:58Z</time><course>182</course><type>18</type></trkpt>
      <trkpt lat="41.18131" lon="-3.5500167"><ele>2041</ele><speed>47</speed><time>2016-10-08T13:40:59Z</time><course>182</course><type>18</type></trkpt>
      <trkpt lat="41.18121" lon="-3.54996"><ele>2036</ele><speed>47</speed><time>2016-10-08T13:41:00Z</time><course>179</course><type>18</type></trkpt>
      <trkpt lat="41.18106" lon="-3.5499417"><ele>2033</ele><speed>58</speed><time>2016-10-08T13:41:01Z</time><course>178</course><type>18</type></trkpt>
      <trkpt lat="41.1808833" lon="-3.549865"><ele>2031</ele><speed>60</speed><time>2016-10-08T13:41:02Z</time><course>171</course><type>18</type></trkpt>
      <trkpt lat="41.180725" lon="-3.5498084"><ele>2029</ele><speed>59</speed><time>2016-10-08T13:41:03Z</time><course>171</course><type>18</type></trkpt>
      <trkpt lat="41.1805833" lon="-3.5497634"><ele>2026</ele><speed>57</speed><time>2016-10-08T13:41:04Z</time><course>170</course><type>18</type></trkpt>
      <trkpt lat="41.1804716" lon="-3.549735"><ele>2024</ele><speed>53</speed><time>2016-10-08T13:41:05Z</time><course>170</course><type>18</type></trkpt>
      <trkpt lat="41.1803633" lon="-3.5497034"><ele>2022</ele><speed>50</speed><time>2016-10-08T13:41:06Z</time><course>170</course><type>18</type></trkpt>
      <trkpt lat="41.1803083" lon="-3.5496234"><ele>2011</ele><speed>34</speed><time>2016-10-08T13:41:10Z</time><course>179</course><type>18</type></trkpt>
      <trkpt lat="41.1802416" lon="-3.549575"><ele>2007</ele><speed>37</speed><time>2016-10-08T13:41:11Z</time><course>175</course><type>18</type></trkpt>
      <trkpt lat="41.1801316" lon="-3.5495084"><ele>2002</ele><speed>39</speed><time>2016-10-08T13:41:12Z</time><course>173</course><type>18</type></trkpt>
      <trkpt lat="41.1800433" lon="-3.549455"><ele>1997</ele><speed>39</speed><time>2016-10-08T13:41:13Z</time><course>171</course><type>18</type></trkpt>
      <trkpt lat="41.1799333" lon="-3.5493617"><ele>1985</ele><speed>40</speed><time>2016-10-08T13:41:15Z</time><course>169</course><type>18</type></trkpt>
      <trkpt lat="41.179835" lon="-3.5493117"><ele>1980</ele><speed>40</speed><time>2016-10-08T13:41:16Z</time><course>169</course><type>18</type></trkpt>
      <trkpt lat="41.179755" lon="-3.5492684"><ele>1974</ele><speed>40</speed><time>2016-10-08T13:41:17Z</time><course>170</course><type>18</type></trkpt>
      <trkpt lat="41.179645" lon="-3.5492067"><ele>1969</ele><speed>53</speed><time>2016-10-08T13:41:18Z</time><course>166</course><type>18</type></trkpt>
      <trkpt lat="41.1795166" lon="-3.5491517"><ele>1965</ele><speed>51</speed><time>2016-10-08T13:41:19Z</time><course>169</course><type>18</type></trkpt>
      <trkpt lat="41.1793983" lon="-3.54909"><ele>1962</ele><speed>50</speed><time>2016-10-08T13:41:20Z</time><course>167</course><type>18</type></trkpt>
      <trkpt lat="41.1792766" lon="-3.5490434"><ele>1960</ele><speed>49</speed><time>2016-10-08T13:41:21Z</time><course>167</course><type>18</type></trkpt>
      <trkpt lat="41.1791783" lon="-3.5490084"><ele>1958</ele><speed>46</speed><time>2016-10-08T13:41:22Z</time><course>167</course><type>18</type></trkpt>
      <trkpt lat="41.1791016" lon="-3.5489917"><ele>1955</ele><speed>40</speed><time>2016-10-08T13:41:23Z</time><course>167</course><type>18</type></trkpt>
      <trkpt lat="41.1790366" lon="-3.5489484"><ele>1953</ele><speed>29</speed><time>2016-10-08T13:41:24Z</time><course>162</course><type>18</type></trkpt>
      <trkpt lat="41.1789116" lon="-3.5488967"><ele>1951</ele><speed>35</speed><time>2016-10-08T13:41:25Z</time><course>162</course><type>18</type></trkpt>
      <trkpt lat="41.1788033" lon="-3.5488434"><ele>1948</ele><speed>39</speed><time>2016-10-08T13:41:26Z</time><course>161</course><type>18</type></trkpt>
      <trkpt lat="41.1787116" lon="-3.5487917"><ele>1944</ele><speed>43</speed><time>2016-10-08T13:41:27Z</time><course>160</course><type>18</type></trkpt>
      <trkpt lat="41.1786066" lon="-3.5487217"><ele>1942</ele><speed>44</speed><time>2016-10-08T13:41:28Z</time><course>158</course><type>18</type></trkpt>
      <trkpt lat="41.1784983" lon="-3.5486634"><ele>1938</ele><speed>43</speed><time>2016-10-08T13:41:29Z</time><course>156</course><type>18</type></trkpt>
      <trkpt lat="41.1784166" lon="-3.54863"><ele>1935</ele><speed>41</speed><time>2016-10-08T13:41:30Z</time><course>156</course><type>18</type></trkpt>
      <trkpt lat="41.178225" lon="-3.54856"><ele>1927</ele><speed>41</speed><time>2016-10-08T13:41:32Z</time><course>165</course><type>18</type></trkpt>
      <trkpt lat="41.1780883" lon="-3.5485267"><ele>1924</ele><speed>44</speed><time>2016-10-08T13:41:33Z</time><course>169</course><type>18</type></trkpt>
      <trkpt lat="41.1779816" lon="-3.5485034"><ele>1920</ele><speed>47</speed><time>2016-10-08T13:41:34Z</time><course>170</course><type>18</type></trkpt>
      <trkpt lat="41.1778533" lon="-3.5484934"><ele>1917</ele><speed>58</speed><time>2016-10-08T13:41:35Z</time><course>173</course><type>18</type></trkpt>
      <trkpt lat="41.1777516" lon="-3.5484384"><ele>1913</ele><speed>51</speed><time>2016-10-08T13:41:36Z</time><course>165</course><type>18</type></trkpt>
      <trkpt lat="41.1776533" lon="-3.5483901"><ele>1913</ele><speed>49</speed><time>2016-10-08T13:41:37Z</time><course>165</course><type>18</type></trkpt>
      <trkpt lat="41.1775516" lon="-3.54833"><ele>1910</ele><speed>48</speed><time>2016-10-08T13:41:38Z</time><course>166</course><type>18</type></trkpt>
      <trkpt lat="41.1774566" lon="-3.5482717"><ele>1908</ele><speed>47</speed><time>2016-10-08T13:41:39Z</time><course>165</course><type>18</type></trkpt>
      <trkpt lat="41.1773666" lon="-3.5482117"><ele>1904</ele><speed>34</speed><time>2016-10-08T13:41:41Z</time><course>166</course><type>18</type></trkpt>
      <trkpt lat="41.1772866" lon="-3.54816"><ele>1902</ele><speed>33</speed><time>2016-10-08T13:41:42Z</time><course>164</course><type>18</type></trkpt>
      <trkpt lat="41.1772116" lon="-3.548115"><ele>1898</ele><speed>35</speed><time>2016-10-08T13:41:43Z</time><course>162</course><type>18</type></trkpt>
      <trkpt lat="41.1771316" lon="-3.5480717"><ele>1895</ele><speed>37</speed><time>2016-10-08T13:41:44Z</time><course>162</course><type>18</type></trkpt>
      <trkpt lat="41.1769983" lon="-3.548025"><ele>1889</ele><speed>43</speed><time>2016-10-08T13:41:46Z</time><course>162</course><type>18</type></trkpt>
      <trkpt lat="41.176895" lon="-3.5479584"><ele>1885</ele><speed>46</speed><time>2016-10-08T13:41:47Z</time><course>160</course><type>18</type></trkpt>
      <trkpt lat="41.1768" lon="-3.54789"><ele>1881</ele><speed>49</speed><time>2016-10-08T13:41:48Z</time><course>158</course><type>18</type></trkpt>
      <trkpt lat="41.176715" lon="-3.54783"><ele>1876</ele><speed>52</speed><time>2016-10-08T13:41:49Z</time><course>153</course><type>18</type></trkpt>
      <trkpt lat="41.1766466" lon="-3.5477717"><ele>1872</ele><speed>46</speed><time>2016-10-08T13:41:50Z</time><course>150</course><type>18</type></trkpt>
      <trkpt lat="41.1765649" lon="-3.5476884"><ele>1868</ele><speed>43</speed><time>2016-10-08T13:41:51Z</time><course>147</course><type>18</type></trkpt>
      <trkpt lat="41.1764516" lon="-3.5476034"><ele>1865</ele><speed>49</speed><time>2016-10-08T13:41:52Z</time><course>152</course><type>18</type></trkpt>
      <trkpt lat="41.176365" lon="-3.5475134"><ele>1862</ele><speed>48</speed><time>2016-10-08T13:41:53Z</time><course>149</course><type>18</type></trkpt>
      <trkpt lat="41.1762733" lon="-3.5474184"><ele>1860</ele><speed>45</speed><time>2016-10-08T13:41:54Z</time><course>147</course><type>18</type></trkpt>
      <trkpt lat="41.1761966" lon="-3.54733"><ele>1858</ele><speed>44</speed><time>2016-10-08T13:41:55Z</time><course>147</course><type>18</type></trkpt>
      <trkpt lat="41.1761433" lon="-3.5472367"><ele>1855</ele><speed>42</speed><time>2016-10-08T13:41:56Z</time><course>144</course><type>18</type></trkpt>
      <trkpt lat="41.1760733" lon="-3.5472117"><ele>1853</ele><speed>39</speed><time>2016-10-08T13:41:57Z</time><course>158</course><type>18</type></trkpt>
      <trkpt lat="41.17602" lon="-3.5471017"><ele>1850</ele><speed>30</speed><time>2016-10-08T13:41:59Z</time><course>153</course><type>18</type></trkpt>
      <trkpt lat="41.1759349" lon="-3.5469817"><ele>1848</ele><speed>35</speed><time>2016-10-08T13:42:00Z</time><course>148</course><type>18</type></trkpt>
      <trkpt lat="41.175815" lon="-3.5468234"><ele>1846</ele><speed>41</speed><time>2016-10-08T13:42:01Z</time><course>144</course><type>18</type></trkpt>
      <trkpt lat="41.17572" lon="-3.5466917"><ele>1843</ele><speed>46</speed><time>2016-10-08T13:42:02Z</time><course>141</course><type>18</type></trkpt>
      <trkpt lat="41.1756066" lon="-3.5465617"><ele>1841</ele><speed>47</speed><time>2016-10-08T13:42:03Z</time><course>139</course><type>18</type></trkpt>
      <trkpt lat="41.175495" lon="-3.5464134"><ele>1838</ele><speed>49</speed><time>2016-10-08T13:42:04Z</time><course>137</course><type>18</type></trkpt>
      <trkpt lat="41.17543" lon="-3.5462517"><ele>1836</ele><speed>51</speed><time>2016-10-08T13:42:05Z</time><course>133</course><type>18</type></trkpt>
      <trkpt lat="41.1753733" lon="-3.5460934"><ele>1833</ele><speed>51</speed><time>2016-10-08T13:42:06Z</time><course>130</course><type>18</type></trkpt>
      <trkpt lat="41.1752916" lon="-3.5459234"><ele>1830</ele><speed>49</speed><time>2016-10-08T13:42:07Z</time><course>130</course><type>18</type></trkpt>
      <trkpt lat="41.1752149" lon="-3.545755"><ele>1828</ele><speed>47</speed><time>2016-10-08T13:42:08Z</time><course>128</course><type>18</type></trkpt>
      <trkpt lat="41.175135" lon="-3.5456"><ele>1826</ele><speed>56</speed><time>2016-10-08T13:42:09Z</time><course>129</course><type>18</type></trkpt>
      <trkpt lat="41.1750366" lon="-3.5454334"><ele>1824</ele><speed>53</speed><time>2016-10-08T13:42:10Z</time><course>127</course><type>18</type></trkpt>
      <trkpt lat="41.1749449" lon="-3.5452834"><ele>1822</ele><speed>52</speed><time>2016-10-08T13:42:11Z</time><course>127</course><type>18</type></trkpt>
      <trkpt lat="41.1748549" lon="-3.5451184"><ele>1819</ele><speed>52</speed><time>2016-10-08T13:42:12Z</time><course>129</course><type>18</type></trkpt>
      <trkpt lat="41.1747649" lon="-3.5449517"><ele>1816</ele><speed>52</speed><time>2016-10-08T13:42:13Z</time><course>131</course><type>18</type></trkpt>
      <trkpt lat="41.1747633" lon="-3.5447317"><ele>1812</ele><speed>45</speed><time>2016-10-08T13:42:14Z</time><course>124</course><type>18</type></trkpt>
      <trkpt lat="41.1747183" lon="-3.544555"><ele>1809</ele><speed>46</speed><time>2016-10-08T13:42:15Z</time><course>120</course><type>18</type></trkpt>
      <trkpt lat="41.1746566" lon="-3.5443867"><ele>1807</ele><speed>47</speed><time>2016-10-08T13:42:16Z</time><course>118</course><type>18</type></trkpt>
      <trkpt lat="41.1746283" lon="-3.5442"><ele>1805</ele><speed>48</speed><time>2016-10-08T13:42:17Z</time><course>113</course><type>18</type></trkpt>
      <trkpt lat="41.1746233" lon="-3.5440317"><ele>1803</ele><speed>48</speed><time>2016-10-08T13:42:18Z</time><course>106</course><type>18</type></trkpt>
      <trkpt lat="41.1745916" lon="-3.5438634"><ele>1802</ele><speed>48</speed><time>2016-10-08T13:42:19Z</time><course>106</course><type>18</type></trkpt>
      <trkpt lat="41.1745616" lon="-3.5436917"><ele>1800</ele><speed>49</speed><time>2016-10-08T13:42:20Z</time><course>104</course><type>18</type></trkpt>
      <trkpt lat="41.1745583" lon="-3.5435034"><ele>1798</ele><speed>50</speed><time>2016-10-08T13:42:21Z</time><course>99</course><type>18</type></trkpt>
      <trkpt lat="41.17457" lon="-3.543315"><ele>1797</ele><speed>50</speed><time>2016-10-08T13:42:22Z</time><course>94</course><type>18</type></trkpt>
      <trkpt lat="41.1745816" lon="-3.5431367"><ele>1795</ele><speed>49</speed><time>2016-10-08T13:42:23Z</time><course>91</course><type>18</type></trkpt>
      <trkpt lat="41.174595" lon="-3.542955"><ele>1793</ele><speed>48</speed><time>2016-10-08T13:42:24Z</time><course>90</course><type>18</type></trkpt>
      <trkpt lat="41.1746216" lon="-3.5428017"><ele>1792</ele><speed>50</speed><time>2016-10-08T13:42:25Z</time><course>82</course><type>18</type></trkpt>
      <trkpt lat="41.1746883" lon="-3.5426151"><ele>1791</ele><speed>57</speed><time>2016-10-08T13:42:26Z</time><course>75</course><type>18</type></trkpt>
      <trkpt lat="41.1747333" lon="-3.5424317"><ele>1790</ele><speed>57</speed><time>2016-10-08T13:42:27Z</time><course>75</course><type>18</type></trkpt>
      <trkpt lat="41.1747766" lon="-3.542245"><ele>1789</ele><speed>57</speed><time>2016-10-08T13:42:28Z</time><course>76</course><type>18</type></trkpt>
      <trkpt lat="41.1748016" lon="-3.5420717"><ele>1788</ele><speed>55</speed><time>2016-10-08T13:42:29Z</time><course>78</course><type>18</type></trkpt>
      <trkpt lat="41.1748233" lon="-3.5419"><ele>1787</ele><speed>54</speed><time>2016-10-08T13:42:30Z</time><course>79</course><type>18</type></trkpt>
      <trkpt lat="41.17482" lon="-3.5417567"><ele>1786</ele><speed>50</speed><time>2016-10-08T13:42:31Z</time><course>82</course><type>18</type></trkpt>
      <trkpt lat="41.1748283" lon="-3.5415984"><ele>1785</ele><speed>49</speed><time>2016-10-08T13:42:32Z</time><course>83</course><type>18</type></trkpt>
      <trkpt lat="41.1748233" lon="-3.5414484"><ele>1784</ele><speed>48</speed><time>2016-10-08T13:42:33Z</time><course>85</course><type>18</type></trkpt>
      <trkpt lat="41.1747983" lon="-3.5413"><ele>1783</ele><speed>46</speed><time>2016-10-08T13:42:34Z</time><course>89</course><type>18</type></trkpt>
      <trkpt lat="41.17476" lon="-3.5411217"><ele>1782</ele><speed>49</speed><time>2016-10-08T13:42:35Z</time><course>93</course><type>18</type></trkpt>
      <trkpt lat="41.1747666" lon="-3.540985"><ele>1780</ele><speed>46</speed><time>2016-10-08T13:42:36Z</time><course>90</course><type>18</type></trkpt>
      <trkpt lat="41.1747883" lon="-3.54086"><ele>1778</ele><speed>43</speed><time>2016-10-08T13:42:37Z</time><course>81</course><type>18</type></trkpt>
      <trkpt lat="41.1748766" lon="-3.5406684"><ele>1775</ele><speed>43</speed><time>2016-10-08T13:42:39Z</time><course>69</course><type>18</type></trkpt>
      <trkpt lat="41.1749366" lon="-3.54048"><ele>1773</ele><speed>38</speed><time>2016-10-08T13:42:41Z</time><course>68</course><type>18</type></trkpt>
      <trkpt lat="41.175055" lon="-3.5404434"><ele>1772</ele><speed>28</speed><time>2016-10-08T13:42:43Z</time><course>55</course><type>18</type></trkpt>
      <trkpt lat="41.1752133" lon="-3.5404217"><ele>1769</ele><speed>27</speed><time>2016-10-08T13:42:45Z</time><course>38</course><type>18</type></trkpt>
      <trkpt lat="41.1753616" lon="-3.5405317"><ele>1768</ele><speed>29</speed><time>2016-10-08T13:42:46Z</time><course>19</course><type>18</type></trkpt>
      <trkpt lat="41.1755266" lon="-3.54053"><ele>1763</ele><speed>22</speed><time>2016-10-08T13:42:48Z</time><course>40</course><type>18</type></trkpt>
      <trkpt lat="41.1753783" lon="-3.54052"><ele>1755</ele><speed>14</speed><time>2016-10-08T13:42:51Z</time><course>89</course><type>18</type></trkpt>
      <trkpt lat="41.1752783" lon="-3.54048"><ele>1751</ele><speed>9</speed><time>2016-10-08T13:42:53Z</time><course>132</course><type>18</type></trkpt>
      <trkpt lat="41.1751233" lon="-3.5404684"><ele>1747</ele><speed>27</speed><time>2016-10-08T13:42:56Z</time><course>165</course><type>18</type></trkpt>
      <trkpt lat="41.1750166" lon="-3.5404784"><ele>1745</ele><speed>31</speed><time>2016-10-08T13:42:57Z</time><course>169</course><type>18</type></trkpt>
      <trkpt lat="41.1748916" lon="-3.540515"><ele>1744</ele><speed>33</speed><time>2016-10-08T13:42:58Z</time><course>175</course><type>18</type></trkpt>
      <trkpt lat="41.1747583" lon="-3.54057"><ele>1742</ele><speed>36</speed><time>2016-10-08T13:42:59Z</time><course>182</course><type>18</type></trkpt>
      <trkpt lat="41.1746183" lon="-3.54064"><ele>1741</ele><speed>42</speed><time>2016-10-08T13:43:00Z</time><course>190</course><type>18</type></trkpt>
      <trkpt lat="41.1745033" lon="-3.5406784"><ele>1740</ele><speed>43</speed><time>2016-10-08T13:43:01Z</time><course>192</course><type>18</type></trkpt>
      <trkpt lat="41.1744049" lon="-3.540745"><ele>1738</ele><speed>43</speed><time>2016-10-08T13:43:02Z</time><course>193</course><type>18</type></trkpt>
      <trkpt lat="41.1742933" lon="-3.5408217"><ele>1737</ele><speed>42</speed><time>2016-10-08T13:43:03Z</time><course>197</course><type>18</type></trkpt>
      <trkpt lat="41.174195" lon="-3.540895"><ele>1735</ele><speed>39</speed><time>2016-10-08T13:43:04Z</time><course>201</course><type>18</type></trkpt>
      <trkpt lat="41.174085" lon="-3.541"><ele>1734</ele><speed>47</speed><time>2016-10-08T13:43:05Z</time><course>208</course><type>18</type></trkpt>
      <trkpt lat="41.1739583" lon="-3.5411267"><ele>1732</ele><speed>51</speed><time>2016-10-08T13:43:06Z</time><course>211</course><type>18</type></trkpt>
      <trkpt lat="41.1738583" lon="-3.541235"><ele>1731</ele><speed>49</speed><time>2016-10-08T13:43:07Z</time><course>212</course><type>18</type></trkpt>
      <trkpt lat="41.1737683" lon="-3.5413334"><ele>1730</ele><speed>48</speed><time>2016-10-08T13:43:08Z</time><course>214</course><type>18</type></trkpt>
      <trkpt lat="41.1736816" lon="-3.5414167"><ele>1728</ele><speed>46</speed><time>2016-10-08T13:43:09Z</time><course>213</course><type>18</type></trkpt>
      <trkpt lat="41.173605" lon="-3.541465"><ele>1727</ele><speed>41</speed><time>2016-10-08T13:43:10Z</time><course>209</course><type>18</type></trkpt>
      <trkpt lat="41.1734866" lon="-3.541485"><ele>1726</ele><speed>39</speed><time>2016-10-08T13:43:11Z</time><course>197</course><type>18</type></trkpt>
      <trkpt lat="41.1734133" lon="-3.5415084"><ele>1725</ele><speed>35</speed><time>2016-10-08T13:43:12Z</time><course>197</course><type>18</type></trkpt>
      <trkpt lat="41.17334" lon="-3.5415534"><ele>1724</ele><speed>34</speed><time>2016-10-08T13:43:13Z</time><course>203</course><type>18</type></trkpt>
      <trkpt lat="41.17326" lon="-3.5415901"><ele>1723</ele><speed>33</speed><time>2016-10-08T13:43:14Z</time><course>205</course><type>18</type></trkpt>
      <trkpt lat="41.1731333" lon="-3.5416417"><ele>1720</ele><speed>24</speed><time>2016-10-08T13:43:16Z</time><course>212</course><type>18</type></trkpt>
      <trkpt lat="41.1730216" lon="-3.54173"><ele>1718</ele><speed>25</speed><time>2016-10-08T13:43:18Z</time><course>215</course><type>18</type></trkpt>
      <trkpt lat="41.17296" lon="-3.5417934"><ele>1716</ele><speed>30</speed><time>2016-10-08T13:43:19Z</time><course>216</course><type>18</type></trkpt>
      <trkpt lat="41.1729016" lon="-3.5418717"><ele>1715</ele><speed>32</speed><time>2016-10-08T13:43:20Z</time><course>219</course><type>18</type></trkpt>
      <trkpt lat="41.17285" lon="-3.541975"><ele>1714</ele><speed>31</speed><time>2016-10-08T13:43:21Z</time><course>223</course><type>18</type></trkpt>
      <trkpt lat="41.172795" lon="-3.5420867"><ele>1713</ele><speed>41</speed><time>2016-10-08T13:43:22Z</time><course>232</course><type>18</type></trkpt>
      <trkpt lat="41.172825" lon="-3.5422334"><ele>1712</ele><speed>25</speed><time>2016-10-08T13:43:23Z</time><course>283</course><type>18</type></trkpt>
      <trkpt lat="41.1728683" lon="-3.5423867"><ele>1711</ele><speed>24</speed><time>2016-10-08T13:43:24Z</time><course>340</course><type>18</type></trkpt>
      <trkpt lat="41.1729433" lon="-3.5424184"><ele>1710</ele><speed>26</speed><time>2016-10-08T13:43:25Z</time><course>358</course><type>18</type></trkpt>
      <trkpt lat="41.1730233" lon="-3.5424267"><ele>1709</ele><speed>27</speed><time>2016-10-08T13:43:26Z</time><course>7</course><type>18</type></trkpt>
      <trkpt lat="41.1730983" lon="-3.5424167"><ele>1708</ele><speed>26</speed><time>2016-10-08T13:43:27Z</time><course>15</course><type>18</type></trkpt>
      <trkpt lat="41.1731716" lon="-3.5423717"><ele>1706</ele><speed>30</speed><time>2016-10-08T13:43:28Z</time><course>24</course><type>18</type></trkpt>
      <trkpt lat="41.1732466" lon="-3.54234"><ele>1705</ele><speed>29</speed><time>2016-10-08T13:43:29Z</time><course>24</course><type>18</type></trkpt>
      <trkpt lat="41.173335" lon="-3.542315"><ele>1704</ele><speed>33</speed><time>2016-10-08T13:43:30Z</time><course>18</course><type>18</type></trkpt>
      <trkpt lat="41.1733933" lon="-3.5422884"><ele>1703</ele><speed>29</speed><time>2016-10-08T13:43:31Z</time><course>19</course><type>18</type></trkpt>
      <trkpt lat="41.17345" lon="-3.5422567"><ele>1702</ele><speed>27</speed><time>2016-10-08T13:43:32Z</time><course>25</course><type>18</type></trkpt>
      <trkpt lat="41.1735033" lon="-3.54221"><ele>1700</ele><speed>27</speed><time>2016-10-08T13:43:33Z</time><course>35</course><type>18</type></trkpt>
      <trkpt lat="41.1735533" lon="-3.5421417"><ele>1698</ele><speed>28</speed><time>2016-10-08T13:43:34Z</time><course>44</course><type>18</type></trkpt>
      <trkpt lat="41.1736083" lon="-3.5420717"><ele>1697</ele><speed>30</speed><time>2016-10-08T13:43:35Z</time><course>45</course><type>18</type></trkpt>
      <trkpt lat="41.1736483" lon="-3.541995"><ele>1696</ele><speed>30</speed><time>2016-10-08T13:43:36Z</time><course>47</course><type>18</type></trkpt>
      <trkpt lat="41.173695" lon="-3.5419184"><ele>1695</ele><speed>30</speed><time>2016-10-08T13:43:37Z</time><course>49</course><type>18</type></trkpt>
      <trkpt lat="41.1737383" lon="-3.5418484"><ele>1695</ele><speed>28</speed><time>2016-10-08T13:43:38Z</time><course>48</course><type>18</type></trkpt>
      <trkpt lat="41.17379" lon="-3.5417634"><ele>1694</ele><speed>34</speed><time>2016-10-08T13:43:39Z</time><course>51</course><type>18</type></trkpt>
      <trkpt lat="41.173855" lon="-3.5416867"><ele>1693</ele><speed>36</speed><time>2016-10-08T13:43:40Z</time><course>43</course><type>18</type></trkpt>
      <trkpt lat="41.1739266" lon="-3.5416084"><ele>1693</ele><speed>36</speed><time>2016-10-08T13:43:41Z</time><course>40</course><type>18</type></trkpt>
      <trkpt lat="41.1739916" lon="-3.5415417"><ele>1692</ele><speed>35</speed><time>2016-10-08T13:43:42Z</time><course>38</course><type>18</type></trkpt>
      <trkpt lat="41.1740899" lon="-3.5414567"><ele>1691</ele><speed>28</speed><time>2016-10-08T13:43:44Z</time><course>33</course><type>18</type></trkpt>
      <trkpt lat="41.17414" lon="-3.541325"><ele>1689</ele><speed>25</speed><time>2016-10-08T13:43:46Z</time><course>48</course><type>18</type></trkpt>
      <trkpt lat="41.1741833" lon="-3.541155"><ele>1687</ele><speed>26</speed><time>2016-10-08T13:43:48Z</time><course>63</course><type>18</type></trkpt>
      <trkpt lat="41.1741983" lon="-3.5410417"><ele>1686</ele><speed>28</speed><time>2016-10-08T13:43:49Z</time><course>67</course><type>18</type></trkpt>
      <trkpt lat="41.1742249" lon="-3.5409367"><ele>1686</ele><speed>30</speed><time>2016-10-08T13:43:50Z</time><course>63</course><type>18</type></trkpt>
      <trkpt lat="41.1742583" lon="-3.5408434"><ele>1685</ele><speed>29</speed><time>2016-10-08T13:43:51Z</time><course>58</course><type>18</type></trkpt>
      <trkpt lat="41.1742916" lon="-3.54076"><ele>1684</ele><speed>27</speed><time>2016-10-08T13:43:52Z</time><course>53</course><type>18</type></trkpt>
      <trkpt lat="41.1743316" lon="-3.5406717"><ele>1684</ele><speed>29</speed><time>2016-10-08T13:43:53Z</time><course>52</course><type>18</type></trkpt>
      <trkpt lat="41.17437" lon="-3.540575"><ele>1684</ele><speed>32</speed><time>2016-10-08T13:43:54Z</time><course>55</course><type>18</type></trkpt>
      <trkpt lat="41.17441" lon="-3.5404734"><ele>1684</ele><speed>34</speed><time>2016-10-08T13:43:55Z</time><course>57</course><type>18</type></trkpt>
      <trkpt lat="41.1744616" lon="-3.5403684"><ele>1684</ele><speed>43</speed><time>2016-10-08T13:43:56Z</time><course>49</course><type>18</type></trkpt>
      <trkpt lat="41.1745" lon="-3.5402584"><ele>1684</ele><speed>35</speed><time>2016-10-08T13:43:57Z</time><course>54</course><type>18</type></trkpt>
      <trkpt lat="41.1745516" lon="-3.5401584"><ele>1685</ele><speed>26</speed><time>2016-10-08T13:43:58Z</time><course>63</course><type>18</type></trkpt>
      <trkpt lat="41.1745966" lon="-3.5400517"><ele>1685</ele><speed>32</speed><time>2016-10-08T13:43:59Z</time><course>62</course><type>18</type></trkpt>
      <trkpt lat="41.174645" lon="-3.5399584"><ele>1685</ele><speed>32</speed><time>2016-10-08T13:44:00Z</time><course>52</course><type>18</type></trkpt>
      <trkpt lat="41.1746966" lon="-3.5398667"><ele>1684</ele><speed>32</speed><time>2016-10-08T13:44:01Z</time><course>49</course><type>18</type></trkpt>
      <trkpt lat="41.1747516" lon="-3.5397884"><ele>1684</ele><speed>33</speed><time>2016-10-08T13:44:02Z</time><course>44</course><type>18</type></trkpt>
      <trkpt lat="41.1748316" lon="-3.5397117"><ele>1685</ele><speed>34</speed><time>2016-10-08T13:44:03Z</time><course>36</course><type>18</type></trkpt>
      <trkpt lat="41.1749033" lon="-3.5396334"><ele>1685</ele><speed>35</speed><time>2016-10-08T13:44:04Z</time><course>36</course><type>18</type></trkpt>
      <trkpt lat="41.1749666" lon="-3.5395417"><ele>1686</ele><speed>37</speed><time>2016-10-08T13:44:05Z</time><course>41</course><type>18</type></trkpt>
      <trkpt lat="41.1750166" lon="-3.5394467"><ele>1686</ele><speed>36</speed><time>2016-10-08T13:44:06Z</time><course>48</course><type>18</type></trkpt>
      <trkpt lat="41.1750616" lon="-3.5393517"><ele>1687</ele><speed>33</speed><time>2016-10-08T13:44:07Z</time><course>51</course><type>18</type></trkpt>
      <trkpt lat="41.1750983" lon="-3.5392534"><ele>1687</ele><speed>35</speed><time>2016-10-08T13:44:08Z</time><course>57</course><type>18</type></trkpt>
      <trkpt lat="41.175135" lon="-3.5391484"><ele>1688</ele><speed>36</speed><time>2016-10-08T13:44:09Z</time><course>60</course><type>18</type></trkpt>
      <trkpt lat="41.1751699" lon="-3.5390417"><ele>1688</ele><speed>36</speed><time>2016-10-08T13:44:10Z</time><course>62</course><type>18</type></trkpt>
      <trkpt lat="41.1752033" lon="-3.5389334"><ele>1688</ele><speed>36</speed><time>2016-10-08T13:44:11Z</time><course>65</course><type>18</type></trkpt>
      <trkpt lat="41.1752316" lon="-3.5388167"><ele>1688</ele><speed>38</speed><time>2016-10-08T13:44:12Z</time><course>67</course><type>18</type></trkpt>
      <trkpt lat="41.1752766" lon="-3.5386884"><ele>1688</ele><speed>49</speed><time>2016-10-08T13:44:13Z</time><course>62</course><type>18</type></trkpt>
      <trkpt lat="41.175325" lon="-3.53855"><ele>1688</ele><speed>48</speed><time>2016-10-08T13:44:14Z</time><course>63</course><type>18</type></trkpt>
      <trkpt lat="41.175375" lon="-3.53842"><ele>1688</ele><speed>46</speed><time>2016-10-08T13:44:15Z</time><course>63</course><type>18</type></trkpt>
      <trkpt lat="41.1754266" lon="-3.53831"><ele>1688</ele><speed>43</speed><time>2016-10-08T13:44:16Z</time><course>61</course><type>18</type></trkpt>
      <trkpt lat="41.175475" lon="-3.5382017"><ele>1687</ele><speed>41</speed><time>2016-10-08T13:44:17Z</time><course>61</course><type>18</type></trkpt>
      <trkpt lat="41.1755083" lon="-3.5381084"><ele>1687</ele><speed>37</speed><time>2016-10-08T13:44:18Z</time><course>59</course><type>18</type></trkpt>
      <trkpt lat="41.1755416" lon="-3.538005"><ele>1687</ele><speed>36</speed><time>2016-10-08T13:44:19Z</time><course>61</course><type>18</type></trkpt>
      <trkpt lat="41.17556" lon="-3.53791"><ele>1686</ele><speed>34</speed><time>2016-10-08T13:44:20Z</time><course>65</course><type>18</type></trkpt>
      <trkpt lat="41.17541" lon="-3.5379284"><ele>1681</ele><speed>25</speed><time>2016-10-08T13:44:21Z</time><course>82</course><type>18</type></trkpt>
      <trkpt lat="41.1753" lon="-3.5379434"><ele>1678</ele><speed>11</speed><time>2016-10-08T13:44:23Z</time><course>109</course><type>18</type></trkpt>
      <trkpt lat="41.1751716" lon="-3.5381"><ele>1676</ele><speed>11</speed><time>2016-10-08T13:44:25Z</time><course>205</course><type>18</type></trkpt>
      <trkpt lat="41.1750933" lon="-3.538215"><ele>1675</ele><speed>18</speed><time>2016-10-08T13:44:26Z</time><course>216</course><type>18</type></trkpt>
      <trkpt lat="41.17503" lon="-3.53831"><ele>1674</ele><speed>21</speed><time>2016-10-08T13:44:27Z</time><course>219</course><type>18</type></trkpt>
      <trkpt lat="41.1749816" lon="-3.5384584"><ele>1673</ele><speed>21</speed><time>2016-10-08T13:44:29Z</time><course>264</course><type>18</type></trkpt>
      <trkpt lat="41.1749666" lon="-3.5385617"><ele>1673</ele><speed>27</speed><time>2016-10-08T13:44:30Z</time><course>258</course><type>18</type></trkpt>
      <trkpt lat="41.1749633" lon="-3.5387434"><ele>1672</ele><speed>26</speed><time>2016-10-08T13:44:32Z</time><course>263</course><type>18</type></trkpt>
      <trkpt lat="41.1749283" lon="-3.5388934"><ele>1672</ele><speed>23</speed><time>2016-10-08T13:44:34Z</time><course>259</course><type>18</type></trkpt>
      <trkpt lat="41.1748166" lon="-3.53894"><ele>1672</ele><speed>18</speed><time>2016-10-08T13:44:36Z</time><course>219</course><type>18</type></trkpt>
      <trkpt lat="41.17471" lon="-3.5389984"><ele>1672</ele><speed>20</speed><time>2016-10-08T13:44:38Z</time><course>202</course><type>18</type></trkpt>
      <trkpt lat="41.1746299" lon="-3.5390884"><ele>1671</ele><speed>19</speed><time>2016-10-08T13:44:40Z</time><course>215</course><type>18</type></trkpt>
      <trkpt lat="41.1745766" lon="-3.5391934"><ele>1671</ele><speed>19</speed><time>2016-10-08T13:44:42Z</time><course>261</course><type>18</type></trkpt>
      <trkpt lat="41.1745399" lon="-3.5393517"><ele>1670</ele><speed>24</speed><time>2016-10-08T13:44:44Z</time><course>257</course><type>18</type></trkpt>
      <trkpt lat="41.1745366" lon="-3.5395267"><ele>1668</ele><speed>34</speed><time>2016-10-08T13:44:48Z</time><course>245</course><type>18</type></trkpt>
      <trkpt lat="41.17449" lon="-3.5396767"><ele>1667</ele><speed>30</speed><time>2016-10-08T13:44:50Z</time><course>243</course><type>18</type></trkpt>
      <trkpt lat="41.174395" lon="-3.5398217"><ele>1666</ele><speed>21</speed><time>2016-10-08T13:44:54Z</time><course>234</course><type>18</type></trkpt>
      <trkpt lat="41.1742516" lon="-3.5398767"><ele>1665</ele><speed>20</speed><time>2016-10-08T13:44:56Z</time><course>235</course><type>18</type></trkpt>
      <trkpt lat="41.17417" lon="-3.539985"><ele>1665</ele><speed>21</speed><time>2016-10-08T13:44:58Z</time><course>264</course><type>18</type></trkpt>
      <trkpt lat="41.174115" lon="-3.5401534"><ele>1664</ele><speed>22</speed><time>2016-10-08T13:45:00Z</time><course>258</course><type>18</type></trkpt>
      <trkpt lat="41.1740683" lon="-3.5403184"><ele>1663</ele><speed>25</speed><time>2016-10-08T13:45:02Z</time><course>247</course><type>18</type></trkpt>
      <trkpt lat="41.174015" lon="-3.540495"><ele>1662</ele><speed>28</speed><time>2016-10-08T13:45:04Z</time><course>248</course><type>18</type></trkpt>
      <trkpt lat="41.17398" lon="-3.54091"><ele>1666</ele><speed>36</speed><time>2016-10-08T13:45:05Z</time><course>248</course><type>18</type></trkpt>
      <trkpt lat="41.1739549" lon="-3.5411467"><ele>1667</ele><speed>36</speed><time>2016-10-08T13:45:06Z</time><course>249</course><type>18</type></trkpt>
      <trkpt lat="41.17396" lon="-3.5413234"><ele>1666</ele><speed>35</speed><time>2016-10-08T13:45:07Z</time><course>253</course><type>18</type></trkpt>
      <trkpt lat="41.1739583" lon="-3.5414567"><ele>1666</ele><speed>31</speed><time>2016-10-08T13:45:08Z</time><course>257</course><type>18</type></trkpt>
      <trkpt lat="41.17395" lon="-3.541555"><ele>1665</ele><speed>26</speed><time>2016-10-08T13:45:09Z</time><course>253</course><type>18</type></trkpt>
      <trkpt lat="41.17389" lon="-3.54171"><ele>1665</ele><speed>27</speed><time>2016-10-08T13:45:11Z</time><course>232</course><type>18</type></trkpt>
      <trkpt lat="41.173835" lon="-3.541795"><ele>1664</ele><speed>31</speed><time>2016-10-08T13:45:12Z</time><course>227</course><type>18</type></trkpt>
      <trkpt lat="41.1737383" lon="-3.54188"><ele>1664</ele><speed>33</speed><time>2016-10-08T13:45:13Z</time><course>226</course><type>18</type></trkpt>
      <trkpt lat="41.1736533" lon="-3.5419584"><ele>1664</ele><speed>31</speed><time>2016-10-08T13:45:14Z</time><course>227</course><type>18</type></trkpt>
      <trkpt lat="41.1735866" lon="-3.5420567"><ele>1664</ele><speed>28</speed><time>2016-10-08T13:45:15Z</time><course>228</course><type>18</type></trkpt>
      <trkpt lat="41.17353" lon="-3.54213"><ele>1664</ele><speed>29</speed><time>2016-10-08T13:45:16Z</time><course>230</course><type>18</type></trkpt>
      <trkpt lat="41.1734733" lon="-3.5422034"><ele>1664</ele><speed>30</speed><time>2016-10-08T13:45:17Z</time><course>228</course><type>18</type></trkpt>
      <trkpt lat="41.1734083" lon="-3.5422867"><ele>1663</ele><speed>32</speed><time>2016-10-08T13:45:18Z</time><course>227</course><type>18</type></trkpt>
      <trkpt lat="41.173335" lon="-3.542365"><ele>1663</ele><speed>34</speed><time>2016-10-08T13:45:19Z</time><course>223</course><type>18</type></trkpt>
      <trkpt lat="41.1732533" lon="-3.5424567"><ele>1662</ele><speed>37</speed><time>2016-10-08T13:45:20Z</time><course>223</course><type>18</type></trkpt>
      <trkpt lat="41.173165" lon="-3.5425717"><ele>1662</ele><speed>47</speed><time>2016-10-08T13:45:21Z</time><course>227</course><type>18</type></trkpt>
      <trkpt lat="41.1730883" lon="-3.5426717"><ele>1662</ele><speed>40</speed><time>2016-10-08T13:45:22Z</time><course>225</course><type>18</type></trkpt>
      <trkpt lat="41.17302" lon="-3.542765"><ele>1662</ele><speed>39</speed><time>2016-10-08T13:45:23Z</time><course>227</course><type>18</type></trkpt>
      <trkpt lat="41.1729616" lon="-3.54287"><ele>1662</ele><speed>37</speed><time>2016-10-08T13:45:24Z</time><course>229</course><type>18</type></trkpt>
      <trkpt lat="41.1729383" lon="-3.542985"><ele>1662</ele><speed>31</speed><time>2016-10-08T13:45:25Z</time><course>244</course><type>18</type></trkpt>
      <trkpt lat="41.1728316" lon="-3.5430934"><ele>1663</ele><speed>27</speed><time>2016-10-08T13:45:27Z</time><course>229</course><type>18</type></trkpt>
      <trkpt lat="41.1727616" lon="-3.5431634"><ele>1663</ele><speed>31</speed><time>2016-10-08T13:45:28Z</time><course>229</course><type>18</type></trkpt>
      <trkpt lat="41.1727083" lon="-3.5432384"><ele>1662</ele><speed>32</speed><time>2016-10-08T13:45:29Z</time><course>231</course><type>18</type></trkpt>
      <trkpt lat="41.1726583" lon="-3.5433184"><ele>1662</ele><speed>32</speed><time>2016-10-08T13:45:30Z</time><course>233</course><type>18</type></trkpt>
      <trkpt lat="41.1725583" lon="-3.5433817"><ele>1663</ele><speed>32</speed><time>2016-10-08T13:45:31Z</time><course>235</course><type>18</type></trkpt>
      <trkpt lat="41.1725083" lon="-3.5434617"><ele>1663</ele><speed>31</speed><time>2016-10-08T13:45:32Z</time><course>238</course><type>18</type></trkpt>
      <trkpt lat="41.1724566" lon="-3.54355"><ele>1663</ele><speed>31</speed><time>2016-10-08T13:45:33Z</time><course>240</course><type>18</type></trkpt>
      <trkpt lat="41.1724" lon="-3.5436434"><ele>1663</ele><speed>32</speed><time>2016-10-08T13:45:34Z</time><course>244</course><type>18</type></trkpt>
      <trkpt lat="41.1723616" lon="-3.5437334"><ele>1664</ele><speed>32</speed><time>2016-10-08T13:45:35Z</time><course>246</course><type>18</type></trkpt>
      <trkpt lat="41.1723383" lon="-3.5438234"><ele>1664</ele><speed>30</speed><time>2016-10-08T13:45:36Z</time><course>248</course><type>18</type></trkpt>
      <trkpt lat="41.1723083" lon="-3.5439167"><ele>1664</ele><speed>33</speed><time>2016-10-08T13:45:37Z</time><course>256</course><type>18</type></trkpt>
      <trkpt lat="41.1722883" lon="-3.5440184"><ele>1665</ele><speed>37</speed><time>2016-10-08T13:45:38Z</time><course>262</course><type>18</type></trkpt>
      <trkpt lat="41.1722633" lon="-3.5441184"><ele>1666</ele><speed>18</speed><time>2016-10-08T13:45:39Z</time><course>243</course><type>18</type></trkpt>
      <trkpt lat="41.1722399" lon="-3.5442"><ele>1666</ele><speed>19</speed><time>2016-10-08T13:45:40Z</time><course>244</course><type>18</type></trkpt>
      <trkpt lat="41.1722166" lon="-3.54427"><ele>1667</ele><speed>23</speed><time>2016-10-08T13:45:41Z</time><course>256</course><type>18</type></trkpt>
      <trkpt lat="41.1721949" lon="-3.5443484"><ele>1667</ele><speed>24</speed><time>2016-10-08T13:45:42Z</time><course>255</course><type>18</type></trkpt>
      <trkpt lat="41.17218" lon="-3.5444267"><ele>1668</ele><speed>24</speed><time>2016-10-08T13:45:43Z</time><course>258</course><type>18</type></trkpt>
      <trkpt lat="41.17217" lon="-3.5445"><ele>1669</ele><speed>24</speed><time>2016-10-08T13:45:44Z</time><course>261</course><type>18</type></trkpt>
      <trkpt lat="41.17216" lon="-3.5445767"><ele>1669</ele><speed>26</speed><time>2016-10-08T13:45:45Z</time><course>263</course><type>18</type></trkpt>
      <trkpt lat="41.1721466" lon="-3.5446717"><ele>1670</ele><speed>28</speed><time>2016-10-08T13:45:46Z</time><course>261</course><type>18</type></trkpt>
      <trkpt lat="41.1721316" lon="-3.5447684"><ele>1670</ele><speed>29</speed><time>2016-10-08T13:45:47Z</time><course>258</course><type>18</type></trkpt>
      <trkpt lat="41.17211" lon="-3.5448617"><ele>1671</ele><speed>30</speed><time>2016-10-08T13:45:48Z</time><course>254</course><type>18</type></trkpt>
      <trkpt lat="41.172085" lon="-3.5449451"><ele>1671</ele><speed>30</speed><time>2016-10-08T13:45:49Z</time><course>249</course><type>18</type></trkpt>
      <trkpt lat="41.1720533" lon="-3.5450217"><ele>1671</ele><speed>30</speed><time>2016-10-08T13:45:50Z</time><course>245</course><type>18</type></trkpt>
      <trkpt lat="41.1720149" lon="-3.54511"><ele>1671</ele><speed>30</speed><time>2016-10-08T13:45:51Z</time><course>241</course><type>18</type></trkpt>
      <trkpt lat="41.171975" lon="-3.5452067"><ele>1672</ele><speed>31</speed><time>2016-10-08T13:45:52Z</time><course>241</course><type>18</type></trkpt>
      <trkpt lat="41.1719383" lon="-3.5452984"><ele>1672</ele><speed>31</speed><time>2016-10-08T13:45:53Z</time><course>242</course><type>18</type></trkpt>
      <trkpt lat="41.17191" lon="-3.5453884"><ele>1672</ele><speed>36</speed><time>2016-10-08T13:45:54Z</time><course>247</course><type>18</type></trkpt>
      <trkpt lat="41.171875" lon="-3.5455034"><ele>1672</ele><speed>40</speed><time>2016-10-08T13:45:55Z</time><course>250</course><type>18</type></trkpt>
      <trkpt lat="41.1718283" lon="-3.5456184"><ele>1672</ele><speed>39</speed><time>2016-10-08T13:45:56Z</time><course>244</course><type>18</type></trkpt>
      <trkpt lat="41.1717816" lon="-3.5457217"><ele>1672</ele><speed>37</speed><time>2016-10-08T13:45:57Z</time><course>242</course><type>18</type></trkpt>
      <trkpt lat="41.1717449" lon="-3.5457934"><ele>1672</ele><speed>33</speed><time>2016-10-08T13:45:58Z</time><course>241</course><type>18</type></trkpt>
      <trkpt lat="41.17169" lon="-3.5458767"><ele>1672</ele><speed>32</speed><time>2016-10-08T13:45:59Z</time><course>237</course><type>18</type></trkpt>
      <trkpt lat="41.1716383" lon="-3.545955"><ele>1672</ele><speed>31</speed><time>2016-10-08T13:46:00Z</time><course>235</course><type>18</type></trkpt>
      <trkpt lat="41.17156" lon="-3.5460834"><ele>1671</ele><speed>27</speed><time>2016-10-08T13:46:02Z</time><course>236</course><type>18</type></trkpt>
      <trkpt lat="41.1714666" lon="-3.5461934"><ele>1670</ele><speed>28</speed><time>2016-10-08T13:46:04Z</time><course>240</course><type>18</type></trkpt>
      <trkpt lat="41.1713933" lon="-3.5462934"><ele>1669</ele><speed>25</speed><time>2016-10-08T13:46:06Z</time><course>245</course><type>18</type></trkpt>
      <trkpt lat="41.171345" lon="-3.54642"><ele>1671</ele><speed>30</speed><time>2016-10-08T13:46:09Z</time><course>239</course><type>18</type></trkpt>
      <trkpt lat="41.1713133" lon="-3.5464934"><ele>1672</ele><speed>31</speed><time>2016-10-08T13:46:10Z</time><course>240</course><type>18</type></trkpt>
      <trkpt lat="41.1712866" lon="-3.5465884"><ele>1671</ele><speed>43</speed><time>2016-10-08T13:46:11Z</time><course>260</course><type>18</type></trkpt>
      <trkpt lat="41.1712883" lon="-3.5467"><ele>1672</ele><speed>35</speed><time>2016-10-08T13:46:12Z</time><course>276</course><type>18</type></trkpt>
      <trkpt lat="41.1712949" lon="-3.5468067"><ele>1673</ele><speed>30</speed><time>2016-10-08T13:46:13Z</time><course>277</course><type>18</type></trkpt>
      <trkpt lat="41.1712533" lon="-3.54688"><ele>1674</ele><speed>23</speed><time>2016-10-08T13:46:14Z</time><course>235</course><type>18</type></trkpt>
      <trkpt lat="41.171305" lon="-3.546805"><ele>1670</ele><speed>6</speed><time>2016-10-08T13:46:18Z</time><course>72</course><type>18</type></trkpt>
      <trkpt lat="41.1713983" lon="-3.546715"><ele>1670</ele><speed>16</speed><time>2016-10-08T13:46:19Z</time><course>49</course><type>18</type></trkpt>
      <trkpt lat="41.1714733" lon="-3.546635"><ele>1670</ele><speed>23</speed><time>2016-10-08T13:46:20Z</time><course>44</course><type>18</type></trkpt>
      <trkpt lat="41.1715683" lon="-3.5465467"><ele>1670</ele><speed>28</speed><time>2016-10-08T13:46:21Z</time><course>41</course><type>18</type></trkpt>
      <trkpt lat="41.1716383" lon="-3.5464767"><ele>1670</ele><speed>28</speed><time>2016-10-08T13:46:22Z</time><course>40</course><type>18</type></trkpt>
      <trkpt lat="41.1717333" lon="-3.5464017"><ele>1670</ele><speed>31</speed><time>2016-10-08T13:46:23Z</time><course>37</course><type>18</type></trkpt>
      <trkpt lat="41.17182" lon="-3.546315"><ele>1670</ele><speed>33</speed><time>2016-10-08T13:46:24Z</time><course>40</course><type>18</type></trkpt>
      <trkpt lat="41.1719183" lon="-3.546215"><ele>1670</ele><speed>35</speed><time>2016-10-08T13:46:25Z</time><course>45</course><type>18</type></trkpt>
      <trkpt lat="41.1720133" lon="-3.54609"><ele>1670</ele><speed>42</speed><time>2016-10-08T13:46:26Z</time><course>49</course><type>18</type></trkpt>
      <trkpt lat="41.172095" lon="-3.5459667"><ele>1670</ele><speed>40</speed><time>2016-10-08T13:46:27Z</time><course>54</course><type>18</type></trkpt>
      <trkpt lat="41.1721716" lon="-3.54584"><ele>1670</ele><speed>48</speed><time>2016-10-08T13:46:28Z</time><course>55</course><type>18</type></trkpt>
      <trkpt lat="41.172255" lon="-3.5456984"><ele>1670</ele><speed>51</speed><time>2016-10-08T13:46:29Z</time><course>55</course><type>18</type></trkpt>
      <trkpt lat="41.1723233" lon="-3.54557"><ele>1670</ele><speed>37</speed><time>2016-10-08T13:46:30Z</time><course>57</course><type>18</type></trkpt>
      <trkpt lat="41.1723933" lon="-3.5454334"><ele>1670</ele><speed>38</speed><time>2016-10-08T13:46:31Z</time><course>61</course><type>18</type></trkpt>
      <trkpt lat="41.1724716" lon="-3.5453134"><ele>1670</ele><speed>42</speed><time>2016-10-08T13:46:32Z</time><course>56</course><type>18</type></trkpt>
      <trkpt lat="41.172525" lon="-3.545205"><ele>1670</ele><speed>39</speed><time>2016-10-08T13:46:33Z</time><course>53</course><type>18</type></trkpt>
      <trkpt lat="41.1725766" lon="-3.5451017"><ele>1670</ele><speed>37</speed><time>2016-10-08T13:46:34Z</time><course>52</course><type>18</type></trkpt>
      <trkpt lat="41.1726383" lon="-3.5450017"><ele>1670</ele><speed>36</speed><time>2016-10-08T13:46:35Z</time><course>50</course><type>18</type></trkpt>
      <trkpt lat="41.1727033" lon="-3.5449067"><ele>1670</ele><speed>36</speed><time>2016-10-08T13:46:36Z</time><course>48</course><type>18</type></trkpt>
      <trkpt lat="41.172775" lon="-3.5448101"><ele>1669</ele><speed>38</speed><time>2016-10-08T13:46:37Z</time><course>43</course><type>18</type></trkpt>
      <trkpt lat="41.17285" lon="-3.544715"><ele>1669</ele><speed>40</speed><time>2016-10-08T13:46:38Z</time><course>42</course><type>18</type></trkpt>
      <trkpt lat="41.1729316" lon="-3.5446184"><ele>1669</ele><speed>41</speed><time>2016-10-08T13:46:39Z</time><course>42</course><type>18</type></trkpt>
      <trkpt lat="41.1730033" lon="-3.544525"><ele>1668</ele><speed>41</speed><time>2016-10-08T13:46:40Z</time><course>43</course><type>18</type></trkpt>
      <trkpt lat="41.1730716" lon="-3.5444284"><ele>1668</ele><speed>40</speed><time>2016-10-08T13:46:41Z</time><course>43</course><type>18</type></trkpt>
      <trkpt lat="41.17314" lon="-3.54434"><ele>1667</ele><speed>39</speed><time>2016-10-08T13:46:42Z</time><course>42</course><type>18</type></trkpt>
      <trkpt lat="41.1732166" lon="-3.5442567"><ele>1667</ele><speed>38</speed><time>2016-10-08T13:46:43Z</time><course>39</course><type>18</type></trkpt>
      <trkpt lat="41.1732883" lon="-3.5441784"><ele>1667</ele><speed>36</speed><time>2016-10-08T13:46:44Z</time><course>39</course><type>18</type></trkpt>
      <trkpt lat="41.1733616" lon="-3.5440967"><ele>1667</ele><speed>38</speed><time>2016-10-08T13:46:45Z</time><course>40</course><type>18</type></trkpt>
      <trkpt lat="41.1734266" lon="-3.5440184"><ele>1666</ele><speed>40</speed><time>2016-10-08T13:46:46Z</time><course>40</course><type>18</type></trkpt>
      <trkpt lat="41.1735066" lon="-3.5439534"><ele>1665</ele><speed>40</speed><time>2016-10-08T13:46:47Z</time><course>36</course><type>18</type></trkpt>
      <trkpt lat="41.1735466" lon="-3.5438634"><ele>1665</ele><speed>37</speed><time>2016-10-08T13:46:48Z</time><course>48</course><type>18</type></trkpt>
      <trkpt lat="41.173615" lon="-3.5437984"><ele>1664</ele><speed>36</speed><time>2016-10-08T13:46:49Z</time><course>47</course><type>18</type></trkpt>
      <trkpt lat="41.173665" lon="-3.543745"><ele>1664</ele><speed>31</speed><time>2016-10-08T13:46:50Z</time><course>48</course><type>18</type></trkpt>
      <trkpt lat="41.17372" lon="-3.54369"><ele>1664</ele><speed>29</speed><time>2016-10-08T13:46:51Z</time><course>44</course><type>18</type></trkpt>
      <trkpt lat="41.17378" lon="-3.5436684"><ele>1664</ele><speed>26</speed><time>2016-10-08T13:46:52Z</time><course>38</course><type>18</type></trkpt>
      <trkpt lat="41.1738533" lon="-3.5436717"><ele>1664</ele><speed>25</speed><time>2016-10-08T13:46:53Z</time><course>24</course><type>18</type></trkpt>
      <trkpt lat="41.1739716" lon="-3.5437"><ele>1663</ele><speed>23</speed><time>2016-10-08T13:46:55Z</time><course>6</course><type>18</type></trkpt>
      <trkpt lat="41.1740283" lon="-3.543755"><ele>1663</ele><speed>22</speed><time>2016-10-08T13:46:56Z</time><course>356</course><type>18</type></trkpt>
      <trkpt lat="41.1740883" lon="-3.5437984"><ele>1663</ele><speed>22</speed><time>2016-10-08T13:46:57Z</time><course>350</course><type>18</type></trkpt>
      <trkpt lat="41.17415" lon="-3.54384"><ele>1663</ele><speed>23</speed><time>2016-10-08T13:46:58Z</time><course>344</course><type>18</type></trkpt>
      <trkpt lat="41.1742166" lon="-3.543885"><ele>1662</ele><speed>23</speed><time>2016-10-08T13:46:59Z</time><course>340</course><type>18</type></trkpt>
      <trkpt lat="41.1742699" lon="-3.5439267"><ele>1662</ele><speed>23</speed><time>2016-10-08T13:47:00Z</time><course>336</course><type>18</type></trkpt>
      <trkpt lat="41.1743216" lon="-3.5439817"><ele>1662</ele><speed>24</speed><time>2016-10-08T13:47:01Z</time><course>327</course><type>18</type></trkpt>
      <trkpt lat="41.1743733" lon="-3.5440284"><ele>1661</ele><speed>23</speed><time>2016-10-08T13:47:02Z</time><course>328</course><type>18</type></trkpt>
      <trkpt lat="41.1744433" lon="-3.5441084"><ele>1661</ele><speed>34</speed><time>2016-10-08T13:47:03Z</time><course>322</course><type>18</type></trkpt>
      <trkpt lat="41.17449" lon="-3.5442"><ele>1661</ele><speed>32</speed><time>2016-10-08T13:47:04Z</time><course>316</course><type>18</type></trkpt>
      <trkpt lat="41.1745566" lon="-3.5442784"><ele>1661</ele><speed>33</speed><time>2016-10-08T13:47:05Z</time><course>321</course><type>18</type></trkpt>
      <trkpt lat="41.174655" lon="-3.5443817"><ele>1660</ele><speed>30</speed><time>2016-10-08T13:47:07Z</time><course>334</course><type>18</type></trkpt>
      <trkpt lat="41.1746916" lon="-3.54453"><ele>1660</ele><speed>23</speed><time>2016-10-08T13:47:09Z</time><course>318</course><type>18</type></trkpt>
      <trkpt lat="41.174725" lon="-3.5446567"><ele>1659</ele><speed>18</speed><time>2016-10-08T13:47:11Z</time><course>305</course><type>18</type></trkpt>
      <trkpt lat="41.1747566" lon="-3.5447767"><ele>1659</ele><speed>19</speed><time>2016-10-08T13:47:13Z</time><course>298</course><type>18</type></trkpt>
      <trkpt lat="41.1748066" lon="-3.54493"><ele>1658</ele><speed>25</speed><time>2016-10-08T13:47:15Z</time><course>296</course><type>18</type></trkpt>
      <trkpt lat="41.174825" lon="-3.5450267"><ele>1658</ele><speed>26</speed><time>2016-10-08T13:47:16Z</time><course>295</course><type>18</type></trkpt>
      <trkpt lat="41.1748616" lon="-3.5452017"><ele>1657</ele><speed>24</speed><time>2016-10-08T13:47:18Z</time><course>299</course><type>18</type></trkpt>
      <trkpt lat="41.1748716" lon="-3.54532"><ele>1657</ele><speed>30</speed><time>2016-10-08T13:47:19Z</time><course>296</course><type>18</type></trkpt>
      <trkpt lat="41.1749083" lon="-3.5453951"><ele>1656</ele><speed>25</speed><time>2016-10-08T13:47:20Z</time><course>311</course><type>18</type></trkpt>
      <trkpt lat="41.1749716" lon="-3.545415"><ele>1656</ele><speed>25</speed><time>2016-10-08T13:47:21Z</time><course>329</course><type>18</type></trkpt>
      <trkpt lat="41.1750583" lon="-3.5454067"><ele>1653</ele><speed>29</speed><time>2016-10-08T13:47:22Z</time><course>337</course><type>18</type></trkpt>
      <trkpt lat="41.1751333" lon="-3.5454284"><ele>1652</ele><speed>28</speed><time>2016-10-08T13:47:23Z</time><course>337</course><type>18</type></trkpt>
      <trkpt lat="41.17519" lon="-3.5454334"><ele>1651</ele><speed>26</speed><time>2016-10-08T13:47:24Z</time><course>333</course><type>18</type></trkpt>
      <trkpt lat="41.1752633" lon="-3.5453734"><ele>1648</ele><speed>18</speed><time>2016-10-08T13:47:26Z</time><course>352</course><type>18</type></trkpt>
      <trkpt lat="41.17527" lon="-3.54524"><ele>1648</ele><speed>21</speed><time>2016-10-08T13:47:27Z</time><course>41</course><type>18</type></trkpt>
      <trkpt lat="41.17528" lon="-3.5450734"><ele>1647</ele><speed>28</speed><time>2016-10-08T13:47:28Z</time><course>62</course><type>18</type></trkpt>
      <trkpt lat="41.1753033" lon="-3.5449367"><ele>1646</ele><speed>31</speed><time>2016-10-08T13:47:29Z</time><course>67</course><type>18</type></trkpt>
      <trkpt lat="41.1753133" lon="-3.5447584"><ele>1645</ele><speed>37</speed><time>2016-10-08T13:47:30Z</time><course>74</course><type>18</type></trkpt>
      <trkpt lat="41.1753166" lon="-3.5445917"><ele>1645</ele><speed>39</speed><time>2016-10-08T13:47:31Z</time><course>79</course><type>18</type></trkpt>
      <trkpt lat="41.1753183" lon="-3.544435"><ele>1644</ele><speed>40</speed><time>2016-10-08T13:47:32Z</time><course>84</course><type>18</type></trkpt>
      <trkpt lat="41.17531" lon="-3.544275"><ele>1643</ele><speed>38</speed><time>2016-10-08T13:47:33Z</time><course>87</course><type>18</type></trkpt>
      <trkpt lat="41.1753066" lon="-3.5441284"><ele>1642</ele><speed>37</speed><time>2016-10-08T13:47:34Z</time><course>88</course><type>18</type></trkpt>
      <trkpt lat="41.1753049" lon="-3.54396"><ele>1642</ele><speed>39</speed><time>2016-10-08T13:47:35Z</time><course>85</course><type>18</type></trkpt>
      <trkpt lat="41.1752966" lon="-3.5438"><ele>1641</ele><speed>41</speed><time>2016-10-08T13:47:36Z</time><course>86</course><type>18</type></trkpt>
      <trkpt lat="41.1753016" lon="-3.54362"><ele>1641</ele><speed>45</speed><time>2016-10-08T13:47:37Z</time><course>84</course><type>18</type></trkpt>
      <trkpt lat="41.1753049" lon="-3.5434584"><ele>1640</ele><speed>43</speed><time>2016-10-08T13:47:38Z</time><course>85</course><type>18</type></trkpt>
      <trkpt lat="41.1753116" lon="-3.5433034"><ele>1640</ele><speed>42</speed><time>2016-10-08T13:47:39Z</time><course>84</course><type>18</type></trkpt>
      <trkpt lat="41.1753116" lon="-3.54316"><ele>1640</ele><speed>41</speed><time>2016-10-08T13:47:40Z</time><course>85</course><type>18</type></trkpt>
      <trkpt lat="41.175265" lon="-3.5430584"><ele>1640</ele><speed>35</speed><time>2016-10-08T13:47:41Z</time><course>98</course><type>18</type></trkpt>
      <trkpt lat="41.1752716" lon="-3.54285"><ele>1640</ele><speed>34</speed><time>2016-10-08T13:47:42Z</time><course>88</course><type>18</type></trkpt>
      <trkpt lat="41.1753133" lon="-3.54272"><ele>1640</ele><speed>37</speed><time>2016-10-08T13:47:43Z</time><course>80</course><type>18</type></trkpt>
      <trkpt lat="41.1753833" lon="-3.5425817"><ele>1640</ele><speed>39</speed><time>2016-10-08T13:47:44Z</time><course>68</course><type>18</type></trkpt>
      <trkpt lat="41.1754316" lon="-3.542455"><ele>1639</ele><speed>36</speed><time>2016-10-08T13:47:45Z</time><course>65</course><type>18</type></trkpt>
      <trkpt lat="41.175475" lon="-3.5423334"><ele>1639</ele><speed>32</speed><time>2016-10-08T13:47:46Z</time><course>63</course><type>18</type></trkpt>
      <trkpt lat="41.175515" lon="-3.5422284"><ele>1638</ele><speed>30</speed><time>2016-10-08T13:47:47Z</time><course>61</course><type>18</type></trkpt>
      <trkpt lat="41.17556" lon="-3.5421284"><ele>1638</ele><speed>32</speed><time>2016-10-08T13:47:48Z</time><course>59</course><type>18</type></trkpt>
      <trkpt lat="41.17561" lon="-3.5420134"><ele>1637</ele><speed>35</speed><time>2016-10-08T13:47:49Z</time><course>58</course><type>18</type></trkpt>
      <trkpt lat="41.1756616" lon="-3.541905"><ele>1637</ele><speed>37</speed><time>2016-10-08T13:47:50Z</time><course>58</course><type>18</type></trkpt>
      <trkpt lat="41.1757116" lon="-3.541805"><ele>1637</ele><speed>36</speed><time>2016-10-08T13:47:51Z</time><course>56</course><type>18</type></trkpt>
      <trkpt lat="41.17576" lon="-3.5417134"><ele>1636</ele><speed>32</speed><time>2016-10-08T13:47:52Z</time><course>52</course><type>18</type></trkpt>
      <trkpt lat="41.17582" lon="-3.5416184"><ele>1636</ele><speed>38</speed><time>2016-10-08T13:47:53Z</time><course>49</course><type>18</type></trkpt>
      <trkpt lat="41.1758733" lon="-3.54153"><ele>1636</ele><speed>35</speed><time>2016-10-08T13:47:54Z</time><course>49</course><type>18</type></trkpt>
      <trkpt lat="41.1759266" lon="-3.54144"><ele>1636</ele><speed>34</speed><time>2016-10-08T13:47:55Z</time><course>52</course><type>18</type></trkpt>
      <trkpt lat="41.17597" lon="-3.54129"><ele>1635</ele><speed>28</speed><time>2016-10-08T13:47:57Z</time><course>62</course><type>18</type></trkpt>
      <trkpt lat="41.1759349" lon="-3.5411517"><ele>1634</ele><speed>22</speed><time>2016-10-08T13:47:59Z</time><course>88</course><type>18</type></trkpt>
      <trkpt lat="41.1759799" lon="-3.5410567"><ele>1635</ele><speed>21</speed><time>2016-10-08T13:48:00Z</time><course>82</course><type>18</type></trkpt>
      <trkpt lat="41.17608" lon="-3.540895"><ele>1635</ele><speed>24</speed><time>2016-10-08T13:48:02Z</time><course>53</course><type>18</type></trkpt>
      <trkpt lat="41.1761666" lon="-3.5408217"><ele>1634</ele><speed>28</speed><time>2016-10-08T13:48:03Z</time><course>45</course><type>18</type></trkpt>
      <trkpt lat="41.1762466" lon="-3.54076"><ele>1634</ele><speed>30</speed><time>2016-10-08T13:48:04Z</time><course>38</course><type>18</type></trkpt>
      <trkpt lat="41.1763166" lon="-3.5406901"><ele>1633</ele><speed>31</speed><time>2016-10-08T13:48:05Z</time><course>34</course><type>18</type></trkpt>
      <trkpt lat="41.1763866" lon="-3.5406384"><ele>1633</ele><speed>30</speed><time>2016-10-08T13:48:06Z</time><course>29</course><type>18</type></trkpt>
      <trkpt lat="41.17651" lon="-3.54055"><ele>1632</ele><speed>30</speed><time>2016-10-08T13:48:08Z</time><course>34</course><type>18</type></trkpt>
      <trkpt lat="41.1765833" lon="-3.540495"><ele>1631</ele><speed>32</speed><time>2016-10-08T13:48:09Z</time><course>35</course><type>18</type></trkpt>
      <trkpt lat="41.1766683" lon="-3.5404517"><ele>1631</ele><speed>32</speed><time>2016-10-08T13:48:10Z</time><course>24</course><type>18</type></trkpt>
      <trkpt lat="41.1767566" lon="-3.54039"><ele>1630</ele><speed>35</speed><time>2016-10-08T13:48:11Z</time><course>28</course><type>18</type></trkpt>
      <trkpt lat="41.1768466" lon="-3.540315"><ele>1629</ele><speed>38</speed><time>2016-10-08T13:48:12Z</time><course>30</course><type>18</type></trkpt>
      <trkpt lat="41.176935" lon="-3.540225"><ele>1628</ele><speed>40</speed><time>2016-10-08T13:48:13Z</time><course>33</course><type>18</type></trkpt>
      <trkpt lat="41.1770149" lon="-3.5401117"><ele>1628</ele><speed>43</speed><time>2016-10-08T13:48:14Z</time><course>40</course><type>18</type></trkpt>
      <trkpt lat="41.1770933" lon="-3.5400334"><ele>1627</ele><speed>41</speed><time>2016-10-08T13:48:15Z</time><course>39</course><type>18</type></trkpt>
      <trkpt lat="41.1771533" lon="-3.539955"><ele>1626</ele><speed>39</speed><time>2016-10-08T13:48:16Z</time><course>42</course><type>18</type></trkpt>
      <trkpt lat="41.17727" lon="-3.5398534"><ele>1624</ele><speed>33</speed><time>2016-10-08T13:48:18Z</time><course>28</course><type>18</type></trkpt>
      <trkpt lat="41.1773866" lon="-3.5398267"><ele>1622</ele><speed>28</speed><time>2016-10-08T13:48:20Z</time><course>24</course><type>18</type></trkpt>
      <trkpt lat="41.1775099" lon="-3.5397551"><ele>1620</ele><speed>31</speed><time>2016-10-08T13:48:22Z</time><course>25</course><type>18</type></trkpt>
      <trkpt lat="41.177585" lon="-3.5397134"><ele>1619</ele><speed>32</speed><time>2016-10-08T13:48:23Z</time><course>21</course><type>18</type></trkpt>
      <trkpt lat="41.177665" lon="-3.53968"><ele>1618</ele><speed>33</speed><time>2016-10-08T13:48:24Z</time><course>20</course><type>18</type></trkpt>
      <trkpt lat="41.1777433" lon="-3.5396434"><ele>1617</ele><speed>32</speed><time>2016-10-08T13:48:25Z</time><course>21</course><type>18</type></trkpt>
      <trkpt lat="41.1778216" lon="-3.5396134"><ele>1616</ele><speed>31</speed><time>2016-10-08T13:48:26Z</time><course>18</course><type>18</type></trkpt>
      <trkpt lat="41.1779166" lon="-3.5395884"><ele>1614</ele><speed>38</speed><time>2016-10-08T13:48:27Z</time><course>18</course><type>18</type></trkpt>
      <trkpt lat="41.17801" lon="-3.5395534"><ele>1613</ele><speed>36</speed><time>2016-10-08T13:48:28Z</time><course>19</course><type>18</type></trkpt>
      <trkpt lat="41.1780966" lon="-3.5395301"><ele>1612</ele><speed>35</speed><time>2016-10-08T13:48:29Z</time><course>18</course><type>18</type></trkpt>
      <trkpt lat="41.1781766" lon="-3.5395067"><ele>1612</ele><speed>35</speed><time>2016-10-08T13:48:30Z</time><course>19</course><type>18</type></trkpt>
      <trkpt lat="41.1782466" lon="-3.5394767"><ele>1612</ele><speed>19</speed><time>2016-10-08T13:48:32Z</time><course>17</course><type>18</type></trkpt>
      <trkpt lat="41.1783466" lon="-3.5393484"><ele>1611</ele><speed>22</speed><time>2016-10-08T13:48:34Z</time><course>34</course><type>18</type></trkpt>
      <trkpt lat="41.1784166" lon="-3.5392601"><ele>1611</ele><speed>26</speed><time>2016-10-08T13:48:35Z</time><course>38</course><type>18</type></trkpt>
      <trkpt lat="41.17854" lon="-3.5392367"><ele>1610</ele><speed>30</speed><time>2016-10-08T13:48:36Z</time><course>29</course><type>18</type></trkpt>
      <trkpt lat="41.178615" lon="-3.5391484"><ele>1610</ele><speed>32</speed><time>2016-10-08T13:48:37Z</time><course>25</course><type>18</type></trkpt>
      <trkpt lat="41.1787083" lon="-3.5390967"><ele>1610</ele><speed>32</speed><time>2016-10-08T13:48:38Z</time><course>20</course><type>18</type></trkpt>
      <trkpt lat="41.1787916" lon="-3.5390367"><ele>1609</ele><speed>31</speed><time>2016-10-08T13:48:39Z</time><course>14</course><type>18</type></trkpt>
      <trkpt lat="41.1788716" lon="-3.5390017"><ele>1609</ele><speed>31</speed><time>2016-10-08T13:48:40Z</time><course>11</course><type>18</type></trkpt>
      <trkpt lat="41.178955" lon="-3.5389734"><ele>1608</ele><speed>31</speed><time>2016-10-08T13:48:41Z</time><course>8</course><type>18</type></trkpt>
      <trkpt lat="41.1790383" lon="-3.5389517"><ele>1608</ele><speed>31</speed><time>2016-10-08T13:48:42Z</time><course>7</course><type>18</type></trkpt>
      <trkpt lat="41.1791416" lon="-3.53896"><ele>1607</ele><speed>38</speed><time>2016-10-08T13:48:43Z</time><course>357</course><type>18</type></trkpt>
      <trkpt lat="41.1792683" lon="-3.5389967"><ele>1606</ele><speed>44</speed><time>2016-10-08T13:48:44Z</time><course>349</course><type>18</type></trkpt>
      <trkpt lat="41.1793816" lon="-3.5390334"><ele>1605</ele><speed>40</speed><time>2016-10-08T13:48:45Z</time><course>349</course><type>18</type></trkpt>
      <trkpt lat="41.1794783" lon="-3.5390584"><ele>1605</ele><speed>38</speed><time>2016-10-08T13:48:46Z</time><course>349</course><type>18</type></trkpt>
      <trkpt lat="41.1795366" lon="-3.5390434"><ele>1604</ele><speed>36</speed><time>2016-10-08T13:48:47Z</time><course>353</course><type>18</type></trkpt>
      <trkpt lat="41.1796083" lon="-3.53903"><ele>1604</ele><speed>34</speed><time>2016-10-08T13:48:48Z</time><course>356</course><type>18</type></trkpt>
      <trkpt lat="41.1797066" lon="-3.538975"><ele>1602</ele><speed>31</speed><time>2016-10-08T13:48:50Z</time><course>2</course><type>18</type></trkpt>
      <trkpt lat="41.1797766" lon="-3.5389417"><ele>1602</ele><speed>33</speed><time>2016-10-08T13:48:51Z</time><course>4</course><type>18</type></trkpt>
      <trkpt lat="41.1799033" lon="-3.53894"><ele>1601</ele><speed>26</speed><time>2016-10-08T13:48:53Z</time><course>8</course><type>18</type></trkpt>
      <trkpt lat="41.17996" lon="-3.5389367"><ele>1601</ele><speed>24</speed><time>2016-10-08T13:48:54Z</time><course>12</course><type>18</type></trkpt>
      <trkpt lat="41.1800633" lon="-3.53891"><ele>1601</ele><speed>24</speed><time>2016-10-08T13:48:56Z</time><course>16</course><type>18</type></trkpt>
      <trkpt lat="41.1801266" lon="-3.5388884"><ele>1600</ele><speed>25</speed><time>2016-10-08T13:48:57Z</time><course>14</course><type>18</type></trkpt>
      <trkpt lat="41.1802616" lon="-3.5388884"><ele>1599</ele><speed>27</speed><time>2016-10-08T13:48:59Z</time><course>0</course><type>18</type></trkpt>
      <trkpt lat="41.1804166" lon="-3.5389451"><ele>1598</ele><speed>29</speed><time>2016-10-08T13:49:01Z</time><course>350</course><type>18</type></trkpt>
      <trkpt lat="41.1805483" lon="-3.5389884"><ele>1597</ele><speed>26</speed><time>2016-10-08T13:49:03Z</time><course>355</course><type>18</type></trkpt>
      <trkpt lat="41.18065" lon="-3.53895"><ele>1595</ele><speed>21</speed><time>2016-10-08T13:49:05Z</time><course>19</course><type>18</type></trkpt>
      <trkpt lat="41.1807633" lon="-3.538935"><ele>1593</ele><speed>21</speed><time>2016-10-08T13:49:07Z</time><course>17</course><type>18</type></trkpt>
      <trkpt lat="41.18085" lon="-3.5389901"><ele>1591</ele><speed>15</speed><time>2016-10-08T13:49:09Z</time><course>5</course><type>18</type></trkpt>
      <trkpt lat="41.1809283" lon="-3.539085"><ele>1589</ele><speed>19</speed><time>2016-10-08T13:49:11Z</time><course>333</course><type>18</type></trkpt>
      <trkpt lat="41.180985" lon="-3.5392484"><ele>1587</ele><speed>18</speed><time>2016-10-08T13:49:13Z</time><course>324</course><type>18</type></trkpt>
      <trkpt lat="41.1810366" lon="-3.5394217"><ele>1586</ele><speed>17</speed><time>2016-10-08T13:49:15Z</time><course>313</course><type>18</type></trkpt>
      <trkpt lat="41.1811033" lon="-3.5395767"><ele>1585</ele><speed>22</speed><time>2016-10-08T13:49:17Z</time><course>306</course><type>18</type></trkpt>
      <trkpt lat="41.1811433" lon="-3.53967"><ele>1584</ele><speed>31</speed><time>2016-10-08T13:49:18Z</time><course>298</course><type>18</type></trkpt>
      <trkpt lat="41.1811816" lon="-3.5397684"><ele>1583</ele><speed>28</speed><time>2016-10-08T13:49:19Z</time><course>300</course><type>18</type></trkpt>
      <trkpt lat="41.1812133" lon="-3.539865"><ele>1583</ele><speed>27</speed><time>2016-10-08T13:49:20Z</time><course>301</course><type>18</type></trkpt>
      <trkpt lat="41.181205" lon="-3.5400167"><ele>1583</ele><speed>25</speed><time>2016-10-08T13:49:21Z</time><course>296</course><type>18</type></trkpt>
      <trkpt lat="41.1812266" lon="-3.5401534"><ele>1581</ele><speed>18</speed><time>2016-10-08T13:49:24Z</time><course>299</course><type>18</type></trkpt>
      <trkpt lat="41.1813166" lon="-3.54028"><ele>1580</ele><speed>23</speed><time>2016-10-08T13:49:26Z</time><course>313</course><type>18</type></trkpt>
      <trkpt lat="41.1814383" lon="-3.5404034"><ele>1579</ele><speed>24</speed><time>2016-10-08T13:49:28Z</time><course>323</course><type>18</type></trkpt>
      <trkpt lat="41.181515" lon="-3.5404667"><ele>1579</ele><speed>24</speed><time>2016-10-08T13:49:29Z</time><course>334</course><type>18</type></trkpt>
      <trkpt lat="41.1816316" lon="-3.5405567"><ele>1579</ele><speed>21</speed><time>2016-10-08T13:49:31Z</time><course>348</course><type>18</type></trkpt>
      <trkpt lat="41.1817533" lon="-3.5406467"><ele>1579</ele><speed>22</speed><time>2016-10-08T13:49:33Z</time><course>357</course><type>18</type></trkpt>
      <trkpt lat="41.18186" lon="-3.54052"><ele>1577</ele><speed>23</speed><time>2016-10-08T13:49:35Z</time><course>21</course><type>18</type></trkpt>
      <trkpt lat="41.1818099" lon="-3.5402884"><ele>1577</ele><speed>23</speed><time>2016-10-08T13:49:37Z</time><course>65</course><type>18</type></trkpt>
      <trkpt lat="41.1818216" lon="-3.5400784"><ele>1576</ele><speed>27</speed><time>2016-10-08T13:49:39Z</time><course>76</course><type>18</type></trkpt>
      <trkpt lat="41.1818" lon="-3.5399417"><ele>1576</ele><speed>31</speed><time>2016-10-08T13:49:40Z</time><course>89</course><type>18</type></trkpt>
      <trkpt lat="41.1816533" lon="-3.5398267"><ele>1575</ele><speed>29</speed><time>2016-10-08T13:49:42Z</time><course>115</course><type>18</type></trkpt>
      <trkpt lat="41.1815616" lon="-3.539735"><ele>1575</ele><speed>32</speed><time>2016-10-08T13:49:43Z</time><course>125</course><type>18</type></trkpt>
      <trkpt lat="41.1814616" lon="-3.5396767"><ele>1575</ele><speed>33</speed><time>2016-10-08T13:49:44Z</time><course>138</course><type>18</type></trkpt>
      <trkpt lat="41.1813666" lon="-3.5396384"><ele>1574</ele><speed>34</speed><time>2016-10-08T13:49:45Z</time><course>147</course><type>18</type></trkpt>
      <trkpt lat="41.1812516" lon="-3.5396034"><ele>1574</ele><speed>37</speed><time>2016-10-08T13:49:46Z</time><course>157</course><type>18</type></trkpt>
      <trkpt lat="41.1811516" lon="-3.53958"><ele>1573</ele><speed>35</speed><time>2016-10-08T13:49:47Z</time><course>164</course><type>18</type></trkpt>
      <trkpt lat="41.1810516" lon="-3.5395717"><ele>1573</ele><speed>34</speed><time>2016-10-08T13:49:48Z</time><course>173</course><type>18</type></trkpt>
      <trkpt lat="41.1809333" lon="-3.53956"><ele>1572</ele><speed>33</speed><time>2016-10-08T13:49:49Z</time><course>180</course><type>18</type></trkpt>
      <trkpt lat="41.1808366" lon="-3.5395867"><ele>1572</ele><speed>34</speed><time>2016-10-08T13:49:50Z</time><course>186</course><type>18</type></trkpt>
      <trkpt lat="41.1807366" lon="-3.5396"><ele>1571</ele><speed>35</speed><time>2016-10-08T13:49:51Z</time><course>185</course><type>18</type></trkpt>
      <trkpt lat="41.1806183" lon="-3.5396217"><ele>1571</ele><speed>43</speed><time>2016-10-08T13:49:52Z</time><course>186</course><type>18</type></trkpt>
      <trkpt lat="41.1805233" lon="-3.53963"><ele>1570</ele><speed>40</speed><time>2016-10-08T13:49:53Z</time><course>183</course><type>18</type></trkpt>
      <trkpt lat="41.1804083" lon="-3.5396651"><ele>1570</ele><speed>26</speed><time>2016-10-08T13:49:55Z</time><course>185</course><type>18</type></trkpt>
      <trkpt lat="41.18034" lon="-3.5397"><ele>1569</ele><speed>27</speed><time>2016-10-08T13:49:56Z</time><course>192</course><type>18</type></trkpt>
      <trkpt lat="41.180245" lon="-3.5398517"><ele>1569</ele><speed>24</speed><time>2016-10-08T13:49:58Z</time><course>226</course><type>18</type></trkpt>
      <trkpt lat="41.1802333" lon="-3.5399467"><ele>1568</ele><speed>25</speed><time>2016-10-08T13:49:59Z</time><course>240</course><type>18</type></trkpt>
      <trkpt lat="41.1801883" lon="-3.5401234"><ele>1567</ele><speed>26</speed><time>2016-10-08T13:50:01Z</time><course>247</course><type>18</type></trkpt>
      <trkpt lat="41.1801533" lon="-3.5402017"><ele>1567</ele><speed>26</speed><time>2016-10-08T13:50:02Z</time><course>256</course><type>18</type></trkpt>
      <trkpt lat="41.1801583" lon="-3.5402834"><ele>1567</ele><speed>27</speed><time>2016-10-08T13:50:03Z</time><course>272</course><type>18</type></trkpt>
      <trkpt lat="41.1801616" lon="-3.540365"><ele>1567</ele><speed>28</speed><time>2016-10-08T13:50:04Z</time><course>280</course><type>18</type></trkpt>
      <trkpt lat="41.18017" lon="-3.5404484"><ele>1566</ele><speed>27</speed><time>2016-10-08T13:50:05Z</time><course>282</course><type>18</type></trkpt>
      <trkpt lat="41.180205" lon="-3.5405917"><ele>1566</ele><speed>24</speed><time>2016-10-08T13:50:07Z</time><course>289</course><type>18</type></trkpt>
      <trkpt lat="41.1802233" lon="-3.5406734"><ele>1566</ele><speed>24</speed><time>2016-10-08T13:50:08Z</time><course>287</course><type>18</type></trkpt>
      <trkpt lat="41.1802433" lon="-3.5407667"><ele>1566</ele><speed>31</speed><time>2016-10-08T13:50:09Z</time><course>286</course><type>18</type></trkpt>
      <trkpt lat="41.1802666" lon="-3.5408517"><ele>1566</ele><speed>30</speed><time>2016-10-08T13:50:10Z</time><course>287</course><type>18</type></trkpt>
      <trkpt lat="41.1802816" lon="-3.540955"><ele>1566</ele><speed>30</speed><time>2016-10-08T13:50:11Z</time><course>285</course><type>18</type></trkpt>
      <trkpt lat="41.1802966" lon="-3.5410667"><ele>1566</ele><speed>30</speed><time>2016-10-08T13:50:12Z</time><course>284</course><type>18</type></trkpt>
      <trkpt lat="41.1803266" lon="-3.54121"><ele>1566</ele><speed>23</speed><time>2016-10-08T13:50:14Z</time><course>289</course><type>18</type></trkpt>
      <trkpt lat="41.1803983" lon="-3.5413117"><ele>1566</ele><speed>19</speed><time>2016-10-08T13:50:16Z</time><course>302</course><type>18</type></trkpt>
      <trkpt lat="41.1805083" lon="-3.5413767"><ele>1566</ele><speed>24</speed><time>2016-10-08T13:50:18Z</time><course>318</course><type>18</type></trkpt>
      <trkpt lat="41.1806483" lon="-3.5414017"><ele>1566</ele><speed>27</speed><time>2016-10-08T13:50:20Z</time><course>332</course><type>18</type></trkpt>
      <trkpt lat="41.1807749" lon="-3.5414467"><ele>1566</ele><speed>25</speed><time>2016-10-08T13:50:22Z</time><course>333</course><type>18</type></trkpt>
      <trkpt lat="41.1808883" lon="-3.541515"><ele>1566</ele><speed>24</speed><time>2016-10-08T13:50:24Z</time><course>326</course><type>18</type></trkpt>
      <trkpt lat="41.1809733" lon="-3.54158"><ele>1567</ele><speed>35</speed><time>2016-10-08T13:50:25Z</time><course>320</course><type>18</type></trkpt>
      <trkpt lat="41.1810633" lon="-3.5416284"><ele>1567</ele><speed>35</speed><time>2016-10-08T13:50:26Z</time><course>329</course><type>18</type></trkpt>
      <trkpt lat="41.1811466" lon="-3.5416517"><ele>1567</ele><speed>32</speed><time>2016-10-08T13:50:27Z</time><course>330</course><type>18</type></trkpt>
      <trkpt lat="41.1812283" lon="-3.5416884"><ele>1566</ele><speed>32</speed><time>2016-10-08T13:50:28Z</time><course>337</course><type>18</type></trkpt>
      <trkpt lat="41.1813133" lon="-3.5416884"><ele>1566</ele><speed>30</speed><time>2016-10-08T13:50:29Z</time><course>357</course><type>18</type></trkpt>
      <trkpt lat="41.1813633" lon="-3.5416384"><ele>1565</ele><speed>22</speed><time>2016-10-08T13:50:30Z</time><course>27</course><type>18</type></trkpt>
      <trkpt lat="41.1813933" lon="-3.5415334"><ele>1564</ele><speed>9</speed><time>2016-10-08T13:50:32Z</time><course>60</course><type>18</type></trkpt>
      <trkpt lat="41.1812866" lon="-3.5414834"><ele>1564</ele><speed>26</speed><time>2016-10-08T13:50:34Z</time><course>184</course><type>18</type></trkpt>
      <trkpt lat="41.1812166" lon="-3.54147"><ele>1564</ele><speed>29</speed><time>2016-10-08T13:50:35Z</time><course>184</course><type>18</type></trkpt>
      <trkpt lat="41.1811333" lon="-3.5414884"><ele>1563</ele><speed>30</speed><time>2016-10-08T13:50:36Z</time><course>194</course><type>18</type></trkpt>
      <trkpt lat="41.1810533" lon="-3.54152"><ele>1562</ele><speed>29</speed><time>2016-10-08T13:50:37Z</time><course>204</course><type>18</type></trkpt>
      <trkpt lat="41.18099" lon="-3.5415634"><ele>1562</ele><speed>27</speed><time>2016-10-08T13:50:38Z</time><course>210</course><type>18</type></trkpt>
      <trkpt lat="41.180945" lon="-3.5416134"><ele>1561</ele><speed>24</speed><time>2016-10-08T13:50:39Z</time><course>225</course><type>18</type></trkpt>
      <trkpt lat="41.180915" lon="-3.541715"><ele>1561</ele><speed>23</speed><time>2016-10-08T13:50:41Z</time><course>268</course><type>18</type></trkpt>
      <trkpt lat="41.1810016" lon="-3.541725"><ele>1563</ele><speed>23</speed><time>2016-10-08T13:50:44Z</time><course>354</course><type>18</type></trkpt>
      <trkpt lat="41.181105" lon="-3.5417134"><ele>1563</ele><speed>22</speed><time>2016-10-08T13:50:46Z</time><course>358</course><type>18</type></trkpt>
      <trkpt lat="41.1812133" lon="-3.5417"><ele>1564</ele><speed>24</speed><time>2016-10-08T13:50:48Z</time><course>348</course><type>18</type></trkpt>
      <trkpt lat="41.1812716" lon="-3.5417134"><ele>1564</ele><speed>24</speed><time>2016-10-08T13:50:49Z</time><course>342</course><type>18</type></trkpt>
      <trkpt lat="41.18134" lon="-3.5417484"><ele>1565</ele><speed>32</speed><time>2016-10-08T13:50:50Z</time><course>331</course><type>18</type></trkpt>
      <trkpt lat="41.1814466" lon="-3.5418034"><ele>1567</ele><speed>37</speed><time>2016-10-08T13:50:52Z</time><course>324</course><type>18</type></trkpt>
      <trkpt lat="41.1814983" lon="-3.5418534"><ele>1567</ele><speed>35</speed><time>2016-10-08T13:50:53Z</time><course>323</course><type>18</type></trkpt>
      <trkpt lat="41.1815516" lon="-3.541945"><ele>1568</ele><speed>26</speed><time>2016-10-08T13:50:55Z</time><course>313</course><type>18</type></trkpt>
      <trkpt lat="41.1816033" lon="-3.5420067"><ele>1569</ele><speed>22</speed><time>2016-10-08T13:50:57Z</time><course>316</course><type>18</type></trkpt>
      <trkpt lat="41.1816583" lon="-3.54203"><ele>1571</ele><speed>25</speed><time>2016-10-08T13:50:59Z</time><course>323</course><type>18</type></trkpt>
      <trkpt lat="41.1817333" lon="-3.5420584"><ele>1573</ele><speed>17</speed><time>2016-10-08T13:51:02Z</time><course>347</course><type>18</type></trkpt>
      <trkpt lat="41.18167" lon="-3.54209"><ele>1575</ele><speed>12</speed><time>2016-10-08T13:51:06Z</time><course>253</course><type>18</type></trkpt>
      <trkpt lat="41.1815083" lon="-3.5420567"><ele>1575</ele><speed>21</speed><time>2016-10-08T13:51:08Z</time><course>212</course><type>18</type></trkpt>
      <trkpt lat="41.1814133" lon="-3.542065"><ele>1576</ele><speed>26</speed><time>2016-10-08T13:51:09Z</time><course>203</course><type>18</type></trkpt>
      <trkpt lat="41.18132" lon="-3.5420884"><ele>1576</ele><speed>30</speed><time>2016-10-08T13:51:10Z</time><course>202</course><type>18</type></trkpt>
      <trkpt lat="41.1812133" lon="-3.5421134"><ele>1576</ele><speed>31</speed><time>2016-10-08T13:51:11Z</time><course>206</course><type>18</type></trkpt>
      <trkpt lat="41.1811233" lon="-3.5421484"><ele>1576</ele><speed>31</speed><time>2016-10-08T13:51:12Z</time><course>211</course><type>18</type></trkpt>
      <trkpt lat="41.1810449" lon="-3.5421984"><ele>1576</ele><speed>31</speed><time>2016-10-08T13:51:13Z</time><course>221</course><type>18</type></trkpt>
      <trkpt lat="41.1809533" lon="-3.5423234"><ele>1576</ele><speed>29</speed><time>2016-10-08T13:51:15Z</time><course>236</course><type>18</type></trkpt>
      <trkpt lat="41.180805" lon="-3.542455"><ele>1577</ele><speed>37</speed><time>2016-10-08T13:51:17Z</time><course>215</course><type>18</type></trkpt>
      <trkpt lat="41.1807433" lon="-3.5425184"><ele>1577</ele><speed>33</speed><time>2016-10-08T13:51:18Z</time><course>224</course><type>18</type></trkpt>
      <trkpt lat="41.1806833" lon="-3.54261"><ele>1578</ele><speed>21</speed><time>2016-10-08T13:51:20Z</time><course>240</course><type>18</type></trkpt>
      <trkpt lat="41.1807933" lon="-3.5426534"><ele>1577</ele><speed>14</speed><time>2016-10-08T13:51:25Z</time><course>312</course><type>18</type></trkpt>
      <trkpt lat="41.180875" lon="-3.5426284"><ele>1577</ele><speed>16</speed><time>2016-10-08T13:51:26Z</time><course>335</course><type>18</type></trkpt>
      <trkpt lat="41.1809883" lon="-3.5425317"><ele>1576</ele><speed>21</speed><time>2016-10-08T13:51:27Z</time><course>356</course><type>18</type></trkpt>
      <trkpt lat="41.1810966" lon="-3.5424267"><ele>1577</ele><speed>29</speed><time>2016-10-08T13:51:28Z</time><course>14</course><type>18</type></trkpt>
      <trkpt lat="41.181165" lon="-3.542365"><ele>1577</ele><speed>28</speed><time>2016-10-08T13:51:29Z</time><course>19</course><type>18</type></trkpt>
      <trkpt lat="41.1812033" lon="-3.5422634"><ele>1578</ele><speed>24</speed><time>2016-10-08T13:51:30Z</time><course>30</course><type>18</type></trkpt>
      <trkpt lat="41.181295" lon="-3.5421167"><ele>1579</ele><speed>32</speed><time>2016-10-08T13:51:32Z</time><course>40</course><type>18</type></trkpt>
      <trkpt lat="41.18135" lon="-3.542025"><ele>1580</ele><speed>38</speed><time>2016-10-08T13:51:33Z</time><course>45</course><type>18</type></trkpt>
      <trkpt lat="41.1814216" lon="-3.5419384"><ele>1580</ele><speed>37</speed><time>2016-10-08T13:51:34Z</time><course>42</course><type>18</type></trkpt>
      <trkpt lat="41.1815333" lon="-3.5418667"><ele>1581</ele><speed>43</speed><time>2016-10-08T13:51:35Z</time><course>32</course><type>18</type></trkpt>
      <trkpt lat="41.1815933" lon="-3.5418084"><ele>1581</ele><speed>39</speed><time>2016-10-08T13:51:36Z</time><course>32</course><type>18</type></trkpt>
      <trkpt lat="41.181645" lon="-3.5417534"><ele>1581</ele><speed>35</speed><time>2016-10-08T13:51:37Z</time><course>33</course><type>18</type></trkpt>
      <trkpt lat="41.1817066" lon="-3.54165"><ele>1582</ele><speed>27</speed><time>2016-10-08T13:51:39Z</time><course>39</course><type>18</type></trkpt>
      <trkpt lat="41.181645" lon="-3.5415417"><ele>1582</ele><speed>11</speed><time>2016-10-08T13:51:42Z</time><course>51</course><type>18</type></trkpt>
      <trkpt lat="41.18157" lon="-3.541525"><ele>1583</ele><speed>6</speed><time>2016-10-08T13:51:43Z</time><course>85</course><type>18</type></trkpt>
      <trkpt lat="41.1814766" lon="-3.5414984"><ele>1580</ele><speed>28</speed><time>2016-10-08T13:51:44Z</time><course>238</course><type>18</type></trkpt>
      <trkpt lat="41.181365" lon="-3.5415034"><ele>1583</ele><speed>26</speed><time>2016-10-08T13:51:45Z</time><course>241</course><type>18</type></trkpt>
      <trkpt lat="41.18129" lon="-3.5415534"><ele>1583</ele><speed>24</speed><time>2016-10-08T13:51:46Z</time><course>247</course><type>18</type></trkpt>
      <trkpt lat="41.1811733" lon="-3.5416017"><ele>1586</ele><speed>19</speed><time>2016-10-08T13:51:48Z</time><course>252</course><type>18</type></trkpt>
      <trkpt lat="41.1811183" lon="-3.5417017"><ele>1589</ele><speed>23</speed><time>2016-10-08T13:51:50Z</time><course>267</course><type>18</type></trkpt>
      <trkpt lat="41.1811033" lon="-3.5418417"><ele>1590</ele><speed>22</speed><time>2016-10-08T13:51:52Z</time><course>266</course><type>18</type></trkpt>
      <trkpt lat="41.1810816" lon="-3.5420134"><ele>1591</ele><speed>25</speed><time>2016-10-08T13:51:54Z</time><course>265</course><type>18</type></trkpt>
      <trkpt lat="41.1810583" lon="-3.54212"><ele>1591</ele><speed>28</speed><time>2016-10-08T13:51:55Z</time><course>262</course><type>18</type></trkpt>
      <trkpt lat="41.18103" lon="-3.5422967"><ele>1592</ele><speed>27</speed><time>2016-10-08T13:51:57Z</time><course>263</course><type>18</type></trkpt>
      <trkpt lat="41.1810066" lon="-3.5424217"><ele>1594</ele><speed>27</speed><time>2016-10-08T13:51:58Z</time><course>264</course><type>18</type></trkpt>
      <trkpt lat="41.1809166" lon="-3.5425684"><ele>1599</ele><speed>29</speed><time>2016-10-08T13:51:59Z</time><course>257</course><type>18</type></trkpt>
      <trkpt lat="41.18108" lon="-3.5423717"><ele>1602</ele><speed>10</speed><time>2016-10-08T13:52:03Z</time><course>344</course><type>18</type></trkpt>
      <trkpt lat="41.1811816" lon="-3.5422267"><ele>1604</ele><speed>16</speed><time>2016-10-08T13:52:04Z</time><course>18</course><type>18</type></trkpt>
      <trkpt lat="41.1812733" lon="-3.5420784"><ele>1606</ele><speed>24</speed><time>2016-10-08T13:52:05Z</time><course>33</course><type>18</type></trkpt>
      <trkpt lat="41.1813283" lon="-3.5419284"><ele>1607</ele><speed>30</speed><time>2016-10-08T13:52:06Z</time><course>41</course><type>18</type></trkpt>
      <trkpt lat="41.181355" lon="-3.5417917"><ele>1608</ele><speed>34</speed><time>2016-10-08T13:52:07Z</time><course>53</course><type>18</type></trkpt>
      <trkpt lat="41.18142" lon="-3.5416084"><ele>1608</ele><speed>32</speed><time>2016-10-08T13:52:09Z</time><course>59</course><type>18</type></trkpt>
      <trkpt lat="41.1814883" lon="-3.54144"><ele>1608</ele><speed>30</speed><time>2016-10-08T13:52:11Z</time><course>64</course><type>18</type></trkpt>
      <trkpt lat="41.1815533" lon="-3.5412734"><ele>1609</ele><speed>28</speed><time>2016-10-08T13:52:13Z</time><course>63</course><type>18</type></trkpt>
      <trkpt lat="41.181605" lon="-3.5410834"><ele>1610</ele><speed>24</speed><time>2016-10-08T13:52:15Z</time><course>61</course><type>18</type></trkpt>
      <trkpt lat="41.1816566" lon="-3.540945"><ele>1612</ele><speed>19</speed><time>2016-10-08T13:52:17Z</time><course>60</course><type>18</type></trkpt>
      <trkpt lat="41.1816166" lon="-3.54109"><ele>1613</ele><speed>5</speed><time>2016-10-08T13:52:21Z</time><course>333</course><type>18</type></trkpt>
      <trkpt lat="41.1816466" lon="-3.541205"><ele>1613</ele><speed>9</speed><time>2016-10-08T13:52:23Z</time><course>313</course><type>18</type></trkpt>
      <trkpt lat="41.1817033" lon="-3.5413284"><ele>1613</ele><speed>11</speed><time>2016-10-08T13:52:26Z</time><course>316</course><type>18</type></trkpt>
      <trkpt lat="41.1818266" lon="-3.5414334"><ele>1613</ele><speed>15</speed><time>2016-10-08T13:52:30Z</time><course>328</course><type>18</type></trkpt>
      <trkpt lat="41.181955" lon="-3.54143"><ele>1613</ele><speed>18</speed><time>2016-10-08T13:52:32Z</time><course>350</course><type>18</type></trkpt>
      <trkpt lat="41.181845" lon="-3.5416417"><ele>1615</ele><speed>16</speed><time>2016-10-08T13:52:33Z</time><course>344</course><type>18</type></trkpt>
      <trkpt lat="41.181645" lon="-3.54226"><ele>1616</ele><speed>16</speed><time>2016-10-08T13:52:34Z</time><course>333</course><type>18</type></trkpt>
      <trkpt lat="41.1815216" lon="-3.5421584"><ele>1617</ele><speed>5</speed><time>2016-10-08T13:52:37Z</time><course>337</course><type>18</type></trkpt>
      <trkpt lat="41.1814316" lon="-3.5419417"><ele>1617</ele><speed>19</speed><time>2016-10-08T13:52:38Z</time><course>103</course><type>18</type></trkpt>
      <trkpt lat="41.1813716" lon="-3.5418517"><ele>1618</ele><speed>18</speed><time>2016-10-08T13:52:39Z</time><course>112</course><type>18</type></trkpt>
      <trkpt lat="41.1812516" lon="-3.54163"><ele>1619</ele><speed>24</speed><time>2016-10-08T13:52:41Z</time><course>114</course><type>18</type></trkpt>
      <trkpt lat="41.18117" lon="-3.5414384"><ele>1619</ele><speed>26</speed><time>2016-10-08T13:52:43Z</time><course>116</course><type>18</type></trkpt>
      <trkpt lat="41.1811133" lon="-3.54129"><ele>1620</ele><speed>23</speed><time>2016-10-08T13:52:45Z</time><course>116</course><type>18</type></trkpt>
      <trkpt lat="41.1810266" lon="-3.54112"><ele>1620</ele><speed>24</speed><time>2016-10-08T13:52:47Z</time><course>121</course><type>18</type></trkpt>
      <trkpt lat="41.1809666" lon="-3.54097"><ele>1620</ele><speed>22</speed><time>2016-10-08T13:52:49Z</time><course>120</course><type>18</type></trkpt>
      <trkpt lat="41.1809" lon="-3.5411784"><ele>1621</ele><speed>6</speed><time>2016-10-08T13:52:53Z</time><course>188</course><type>18</type></trkpt>
      <trkpt lat="41.1810983" lon="-3.5413317"><ele>1621</ele><speed>0</speed><time>2016-10-08T13:52:55Z</time><course>333</course><type>18</type></trkpt>
      <trkpt lat="41.1811983" lon="-3.5413917"><ele>1621</ele><speed>14</speed><time>2016-10-08T13:52:56Z</time><course>341</course><type>18</type></trkpt>
      <trkpt lat="41.1813316" lon="-3.541425"><ele>1622</ele><speed>14</speed><time>2016-10-08T13:52:58Z</time><course>353</course><type>18</type></trkpt>
      <trkpt lat="41.1814533" lon="-3.5411401"><ele>1622</ele><speed>40</speed><time>2016-10-08T13:53:01Z</time><course>70</course><type>18</type></trkpt>
      <trkpt lat="41.181335" lon="-3.5409384"><ele>1623</ele><speed>27</speed><time>2016-10-08T13:53:04Z</time><course>122</course><type>18</type></trkpt>
      <trkpt lat="41.181205" lon="-3.54079"><ele>1623</ele><speed>37</speed><time>2016-10-08T13:53:06Z</time><course>129</course><type>18</type></trkpt>
      <trkpt lat="41.181115" lon="-3.5406867"><ele>1623</ele><speed>39</speed><time>2016-10-08T13:53:07Z</time><course>129</course><type>18</type></trkpt>
      <trkpt lat="41.18103" lon="-3.5405917"><ele>1623</ele><speed>38</speed><time>2016-10-08T13:53:08Z</time><course>130</course><type>18</type></trkpt>
      <trkpt lat="41.1809549" lon="-3.54051"><ele>1623</ele><speed>38</speed><time>2016-10-08T13:53:09Z</time><course>131</course><type>18</type></trkpt>
      <trkpt lat="41.18086" lon="-3.5404184"><ele>1624</ele><speed>40</speed><time>2016-10-08T13:53:10Z</time><course>134</course><type>18</type></trkpt>
      <trkpt lat="41.1807616" lon="-3.5403217"><ele>1624</ele><speed>37</speed><time>2016-10-08T13:53:11Z</time><course>133</course><type>18</type></trkpt>
      <trkpt lat="41.1806783" lon="-3.5402367"><ele>1624</ele><speed>33</speed><time>2016-10-08T13:53:12Z</time><course>133</course><type>18</type></trkpt>
      <trkpt lat="41.1805883" lon="-3.5402217"><ele>1624</ele><speed>28</speed><time>2016-10-08T13:53:13Z</time><course>143</course><type>18</type></trkpt>
      <trkpt lat="41.1804166" lon="-3.540315"><ele>1625</ele><speed>23</speed><time>2016-10-08T13:53:15Z</time><course>177</course><type>18</type></trkpt>
      <trkpt lat="41.1803016" lon="-3.540355"><ele>1626</ele><speed>17</speed><time>2016-10-08T13:53:17Z</time><course>200</course><type>18</type></trkpt>
      <trkpt lat="41.1802616" lon="-3.5405484"><ele>1626</ele><speed>24</speed><time>2016-10-08T13:53:19Z</time><course>260</course><type>18</type></trkpt>
      <trkpt lat="41.1803183" lon="-3.5406967"><ele>1626</ele><speed>16</speed><time>2016-10-08T13:53:22Z</time><course>328</course><type>18</type></trkpt>
      <trkpt lat="41.1804116" lon="-3.5407284"><ele>1625</ele><speed>18</speed><time>2016-10-08T13:53:24Z</time><course>342</course><type>18</type></trkpt>
      <trkpt lat="41.1805383" lon="-3.540695"><ele>1624</ele><speed>24</speed><time>2016-10-08T13:53:26Z</time><course>15</course><type>18</type></trkpt>
      <trkpt lat="41.1806066" lon="-3.5406517"><ele>1624</ele><speed>26</speed><time>2016-10-08T13:53:27Z</time><course>23</course><type>18</type></trkpt>
      <trkpt lat="41.18071" lon="-3.5405184"><ele>1623</ele><speed>34</speed><time>2016-10-08T13:53:29Z</time><course>49</course><type>18</type></trkpt>
      <trkpt lat="41.1807566" lon="-3.5403434"><ele>1624</ele><speed>34</speed><time>2016-10-08T13:53:31Z</time><course>68</course><type>18</type></trkpt>
      <trkpt lat="41.1807666" lon="-3.540245"><ele>1624</ele><speed>34</speed><time>2016-10-08T13:53:32Z</time><course>73</course><type>18</type></trkpt>
      <trkpt lat="41.1807299" lon="-3.5401484"><ele>1624</ele><speed>29</speed><time>2016-10-08T13:53:33Z</time><course>95</course><type>18</type></trkpt>
      <trkpt lat="41.1807066" lon="-3.54005"><ele>1624</ele><speed>31</speed><time>2016-10-08T13:53:34Z</time><course>100</course><type>18</type></trkpt>
      <trkpt lat="41.1806566" lon="-3.5399684"><ele>1625</ele><speed>34</speed><time>2016-10-08T13:53:35Z</time><course>117</course><type>18</type></trkpt>
      <trkpt lat="41.1806116" lon="-3.5398667"><ele>1625</ele><speed>34</speed><time>2016-10-08T13:53:36Z</time><course>118</course><type>18</type></trkpt>
      <trkpt lat="41.1805833" lon="-3.5397184"><ele>1625</ele><speed>32</speed><time>2016-10-08T13:53:38Z</time><course>113</course><type>18</type></trkpt>
      <trkpt lat="41.1805566" lon="-3.5395634"><ele>1625</ele><speed>29</speed><time>2016-10-08T13:53:40Z</time><course>114</course><type>18</type></trkpt>
      <trkpt lat="41.1805233" lon="-3.5397717"><ele>1625</ele><speed>7</speed><time>2016-10-08T13:53:44Z</time><course>223</course><type>18</type></trkpt>
      <trkpt lat="41.1804733" lon="-3.5399067"><ele>1625</ele><speed>11</speed><time>2016-10-08T13:53:45Z</time><course>236</course><type>18</type></trkpt>
      <trkpt lat="41.1804233" lon="-3.5400634"><ele>1625</ele><speed>16</speed><time>2016-10-08T13:53:46Z</time><course>245</course><type>18</type></trkpt>
      <trkpt lat="41.1804683" lon="-3.5402367"><ele>1625</ele><speed>15</speed><time>2016-10-08T13:53:48Z</time><course>283</course><type>18</type></trkpt>
      <trkpt lat="41.1805716" lon="-3.54014"><ele>1624</ele><speed>23</speed><time>2016-10-08T13:53:50Z</time><course>16</course><type>18</type></trkpt>
      <trkpt lat="41.18066" lon="-3.5400084"><ele>1624</ele><speed>37</speed><time>2016-10-08T13:53:51Z</time><course>50</course><type>18</type></trkpt>
      <trkpt lat="41.1807216" lon="-3.5398117"><ele>1623</ele><speed>20</speed><time>2016-10-08T13:53:53Z</time><course>80</course><type>18</type></trkpt>
      <trkpt lat="41.1806766" lon="-3.5396484"><ele>1623</ele><speed>20</speed><time>2016-10-08T13:53:55Z</time><course>102</course><type>18</type></trkpt>
      <trkpt lat="41.1806033" lon="-3.5394817"><ele>1623</ele><speed>30</speed><time>2016-10-08T13:53:57Z</time><course>115</course><type>18</type></trkpt>
      <trkpt lat="41.18056" lon="-3.5394017"><ele>1623</ele><speed>43</speed><time>2016-10-08T13:53:58Z</time><course>124</course><type>18</type></trkpt>
      <trkpt lat="41.1804966" lon="-3.5393517"><ele>1624</ele><speed>43</speed><time>2016-10-08T13:53:59Z</time><course>140</course><type>18</type></trkpt>
      <trkpt lat="41.1804216" lon="-3.5392834"><ele>1624</ele><speed>43</speed><time>2016-10-08T13:54:00Z</time><course>141</course><type>18</type></trkpt>
      <trkpt lat="41.18034" lon="-3.53921"><ele>1624</ele><speed>42</speed><time>2016-10-08T13:54:01Z</time><course>143</course><type>18</type></trkpt>
      <trkpt lat="41.18027" lon="-3.539145"><ele>1624</ele><speed>37</speed><time>2016-10-08T13:54:02Z</time><course>144</course><type>18</type></trkpt>
      <trkpt lat="41.180195" lon="-3.5390817"><ele>1624</ele><speed>35</speed><time>2016-10-08T13:54:03Z</time><course>146</course><type>18</type></trkpt>
      <trkpt lat="41.1800766" lon="-3.5391717"><ele>1624</ele><speed>36</speed><time>2016-10-08T13:54:04Z</time><course>181</course><type>18</type></trkpt>
      <trkpt lat="41.1799916" lon="-3.539185"><ele>1625</ele><speed>36</speed><time>2016-10-08T13:54:05Z</time><course>186</course><type>18</type></trkpt>
      <trkpt lat="41.179915" lon="-3.539205"><ele>1625</ele><speed>33</speed><time>2016-10-08T13:54:06Z</time><course>190</course><type>18</type></trkpt>
      <trkpt lat="41.1798416" lon="-3.5392317"><ele>1626</ele><speed>31</speed><time>2016-10-08T13:54:07Z</time><course>195</course><type>18</type></trkpt>
      <trkpt lat="41.17972" lon="-3.5392834"><ele>1626</ele><speed>26</speed><time>2016-10-08T13:54:09Z</time><course>198</course><type>18</type></trkpt>
      <trkpt lat="41.1795733" lon="-3.5393417"><ele>1627</ele><speed>36</speed><time>2016-10-08T13:54:11Z</time><course>205</course><type>18</type></trkpt>
      <trkpt lat="41.1795349" lon="-3.5394484"><ele>1627</ele><speed>34</speed><time>2016-10-08T13:54:12Z</time><course>222</course><type>18</type></trkpt>
      <trkpt lat="41.17948" lon="-3.539515"><ele>1628</ele><speed>31</speed><time>2016-10-08T13:54:13Z</time><course>220</course><type>18</type></trkpt>
      <trkpt lat="41.179405" lon="-3.5396334"><ele>1628</ele><speed>20</speed><time>2016-10-08T13:54:15Z</time><course>220</course><type>18</type></trkpt>
      <trkpt lat="41.17944" lon="-3.5397517"><ele>1628</ele><speed>5</speed><time>2016-10-08T13:54:18Z</time><course>235</course><type>18</type></trkpt>
      <trkpt lat="41.1796016" lon="-3.5398217"><ele>1628</ele><speed>10</speed><time>2016-10-08T13:54:20Z</time><course>349</course><type>18</type></trkpt>
      <trkpt lat="41.17969" lon="-3.5398467"><ele>1628</ele><speed>12</speed><time>2016-10-08T13:54:21Z</time><course>6</course><type>18</type></trkpt>
      <trkpt lat="41.179815" lon="-3.5397934"><ele>1628</ele><speed>17</speed><time>2016-10-08T13:54:23Z</time><course>37</course><type>18</type></trkpt>
      <trkpt lat="41.1798949" lon="-3.5397234"><ele>1629</ele><speed>22</speed><time>2016-10-08T13:54:24Z</time><course>38</course><type>18</type></trkpt>
      <trkpt lat="41.1800633" lon="-3.5396184"><ele>1629</ele><speed>32</speed><time>2016-10-08T13:54:26Z</time><course>32</course><type>18</type></trkpt>
      <trkpt lat="41.180225" lon="-3.5394634"><ele>1629</ele><speed>31</speed><time>2016-10-08T13:54:28Z</time><course>35</course><type>18</type></trkpt>
      <trkpt lat="41.18034" lon="-3.53932"><ele>1630</ele><speed>29</speed><time>2016-10-08T13:54:30Z</time><course>37</course><type>18</type></trkpt>
      <trkpt lat="41.1804466" lon="-3.5391967"><ele>1630</ele><speed>25</speed><time>2016-10-08T13:54:32Z</time><course>35</course><type>18</type></trkpt>
      <trkpt lat="41.1806833" lon="-3.5388417"><ele>1631</ele><speed>30</speed><time>2016-10-08T13:54:33Z</time><course>40</course><type>18</type></trkpt>
      <trkpt lat="41.180875" lon="-3.53823"><ele>1633</ele><speed>32</speed><time>2016-10-08T13:54:35Z</time><course>46</course><type>18</type></trkpt>
      <trkpt lat="41.1807633" lon="-3.5380867"><ele>1633</ele><speed>28</speed><time>2016-10-08T13:54:36Z</time><course>55</course><type>18</type></trkpt>
      <trkpt lat="41.1806516" lon="-3.5380084"><ele>1634</ele><speed>22</speed><time>2016-10-08T13:54:37Z</time><course>71</course><type>18</type></trkpt>
      <trkpt lat="41.180375" lon="-3.5372267"><ele>1637</ele><speed>31</speed><time>2016-10-08T13:54:39Z</time><course>85</course><type>18</type></trkpt>
      <trkpt lat="41.180215" lon="-3.5368667"><ele>1639</ele><speed>37</speed><time>2016-10-08T13:54:40Z</time><course>89</course><type>18</type></trkpt>
      <trkpt lat="41.1800633" lon="-3.536595"><ele>1641</ele><speed>42</speed><time>2016-10-08T13:54:41Z</time><course>93</course><type>18</type></trkpt>
      <trkpt lat="41.180025" lon="-3.536735"><ele>1644</ele><speed>19</speed><time>2016-10-08T13:54:43Z</time><course>91</course><type>18</type></trkpt>
      <trkpt lat="41.1800966" lon="-3.536685"><ele>1661</ele><speed>16</speed><time>2016-10-08T13:54:49Z</time><course>23</course><type>18</type></trkpt>
      <trkpt lat="41.18002" lon="-3.5366967"><ele>1664</ele><speed>10</speed><time>2016-10-08T13:54:51Z</time><course>89</course><type>18</type></trkpt>
      <trkpt lat="41.1799266" lon="-3.5366834"><ele>1666</ele><speed>15</speed><time>2016-10-08T13:54:52Z</time><course>117</course><type>18</type></trkpt>
      <trkpt lat="41.1800116" lon="-3.53646"><ele>1668</ele><speed>26</speed><time>2016-10-08T13:54:54Z</time><course>81</course><type>18</type></trkpt>
      <trkpt lat="41.1800583" lon="-3.536325"><ele>1672</ele><speed>28</speed><time>2016-10-08T13:54:56Z</time><course>93</course><type>18</type></trkpt>
      <trkpt lat="41.1800183" lon="-3.536205"><ele>1677</ele><speed>35</speed><time>2016-10-08T13:54:59Z</time><course>116</course><type>18</type></trkpt>
      <trkpt lat="41.17991" lon="-3.5362284"><ele>1681</ele><speed>33</speed><time>2016-10-08T13:55:00Z</time><course>125</course><type>18</type></trkpt>
      <trkpt lat="41.1798283" lon="-3.5361617"><ele>1683</ele><speed>35</speed><time>2016-10-08T13:55:01Z</time><course>123</course><type>18</type></trkpt>
      <trkpt lat="41.1797616" lon="-3.5360317"><ele>1685</ele><speed>36</speed><time>2016-10-08T13:55:02Z</time><course>122</course><type>18</type></trkpt>
      <trkpt lat="41.17971" lon="-3.5358234"><ele>1686</ele><speed>40</speed><time>2016-10-08T13:55:03Z</time><course>125</course><type>18</type></trkpt>
      <trkpt lat="41.17966" lon="-3.53569"><ele>1687</ele><speed>39</speed><time>2016-10-08T13:55:04Z</time><course>127</course><type>18</type></trkpt>
      <trkpt lat="41.1795933" lon="-3.535575"><ele>1688</ele><speed>39</speed><time>2016-10-08T13:55:05Z</time><course>127</course><type>18</type></trkpt>
      <trkpt lat="41.1794566" lon="-3.5354667"><ele>1690</ele><speed>29</speed><time>2016-10-08T13:55:07Z</time><course>136</course><type>18</type></trkpt>
      <trkpt lat="41.1794083" lon="-3.535375"><ele>1691</ele><speed>30</speed><time>2016-10-08T13:55:08Z</time><course>136</course><type>18</type></trkpt>
      <trkpt lat="41.1793683" lon="-3.5354884"><ele>1694</ele><speed>11</speed><time>2016-10-08T13:55:12Z</time><course>145</course><type>18</type></trkpt>
      <trkpt lat="41.179365" lon="-3.5355884"><ele>1696</ele><speed>6</speed><time>2016-10-08T13:55:14Z</time><course>194</course><type>18</type></trkpt>
      <trkpt lat="41.1793666" lon="-3.5356867"><ele>1698</ele><speed>7</speed><time>2016-10-08T13:55:16Z</time><course>261</course><type>18</type></trkpt>
      <trkpt lat="41.1794333" lon="-3.5358151"><ele>1700</ele><speed>11</speed><time>2016-10-08T13:55:19Z</time><course>295</course><type>18</type></trkpt>
      <trkpt lat="41.1794683" lon="-3.5360217"><ele>1701</ele><speed>15</speed><time>2016-10-08T13:55:21Z</time><course>285</course><type>18</type></trkpt>
      <trkpt lat="41.17959" lon="-3.5360967"><ele>1703</ele><speed>18</speed><time>2016-10-08T13:55:23Z</time><course>320</course><type>18</type></trkpt>
      <trkpt lat="41.1793883" lon="-3.5367167"><ele>1715</ele><speed>17</speed><time>2016-10-08T13:55:28Z</time><course>140</course><type>18</type></trkpt>
      <trkpt lat="41.1793549" lon="-3.53629"><ele>1716</ele><speed>20</speed><time>2016-10-08T13:55:29Z</time><course>124</course><type>18</type></trkpt>
      <trkpt lat="41.179335" lon="-3.5360867"><ele>1717</ele><speed>34</speed><time>2016-10-08T13:55:30Z</time><course>116</course><type>18</type></trkpt>
      <trkpt lat="41.1792983" lon="-3.5359517"><ele>1718</ele><speed>35</speed><time>2016-10-08T13:55:31Z</time><course>120</course><type>18</type></trkpt>
      <trkpt lat="41.1791749" lon="-3.53582"><ele>1720</ele><speed>38</speed><time>2016-10-08T13:55:33Z</time><course>124</course><type>18</type></trkpt>
      <trkpt lat="41.17905" lon="-3.5358667"><ele>1722</ele><speed>34</speed><time>2016-10-08T13:55:34Z</time><course>127</course><type>18</type></trkpt>
      <trkpt lat="41.1789733" lon="-3.5357467"><ele>1723</ele><speed>35</speed><time>2016-10-08T13:55:35Z</time><course>127</course><type>18</type></trkpt>
      <trkpt lat="41.1788583" lon="-3.5357067"><ele>1725</ele><speed>36</speed><time>2016-10-08T13:55:36Z</time><course>124</course><type>18</type></trkpt>
      <trkpt lat="41.17893" lon="-3.5355384"><ele>1727</ele><speed>37</speed><time>2016-10-08T13:55:37Z</time><course>124</course><type>18</type></trkpt>
      <trkpt lat="41.17912" lon="-3.53531"><ele>1731</ele><speed>31</speed><time>2016-10-08T13:55:39Z</time><course>129</course><type>18</type></trkpt>
      <trkpt lat="41.179055" lon="-3.5352667"><ele>1735</ele><speed>27</speed><time>2016-10-08T13:55:42Z</time><course>142</course><type>18</type></trkpt>
      <trkpt lat="41.179015" lon="-3.5353484"><ele>1738</ele><speed>18</speed><time>2016-10-08T13:55:44Z</time><course>149</course><type>18</type></trkpt>
      <trkpt lat="41.1790216" lon="-3.5357701"><ele>1739</ele><speed>33</speed><time>2016-10-08T13:55:45Z</time><course>262</course><type>18</type></trkpt>
      <trkpt lat="41.1789883" lon="-3.5359367"><ele>1742</ele><speed>25</speed><time>2016-10-08T13:55:47Z</time><course>204</course><type>18</type></trkpt>
      <trkpt lat="41.1789183" lon="-3.5360484"><ele>1743</ele><speed>36</speed><time>2016-10-08T13:55:48Z</time><course>216</course><type>18</type></trkpt>
      <trkpt lat="41.1789" lon="-3.5361717"><ele>1744</ele><speed>25</speed><time>2016-10-08T13:55:50Z</time><course>251</course><type>18</type></trkpt>
      <trkpt lat="41.1789049" lon="-3.536285"><ele>1746</ele><speed>21</speed><time>2016-10-08T13:55:52Z</time><course>258</course><type>18</type></trkpt>
      <trkpt lat="41.17892" lon="-3.5363967"><ele>1748</ele><speed>13</speed><time>2016-10-08T13:55:55Z</time><course>280</course><type>18</type></trkpt>
      <trkpt lat="41.1786833" lon="-3.53666"><ele>1755</ele><speed>14</speed><time>2016-10-08T13:55:57Z</time><course>258</course><type>18</type></trkpt>
      <trkpt lat="41.1779783" lon="-3.5372317"><ele>1764</ele><speed>18</speed><time>2016-10-08T13:55:58Z</time><course>237</course><type>18</type></trkpt>
      <trkpt lat="41.1777783" lon="-3.53734"><ele>1769</ele><speed>22</speed><time>2016-10-08T13:55:59Z</time><course>223</course><type>18</type></trkpt>
      <trkpt lat="41.1773766" lon="-3.537675"><ele>1776</ele><speed>25</speed><time>2016-10-08T13:56:00Z</time><course>217</course><type>18</type></trkpt>
      <trkpt lat="41.17754" lon="-3.5380034"><ele>1782</ele><speed>17</speed><time>2016-10-08T13:56:01Z</time><course>235</course><type>18</type></trkpt>
      <trkpt lat="41.1774483" lon="-3.538135"><ele>1788</ele><speed>17</speed><time>2016-10-08T13:56:02Z</time><course>238</course><type>18</type></trkpt>
      <trkpt lat="41.1776816" lon="-3.5382617"><ele>1795</ele><speed>13</speed><time>2016-10-08T13:56:03Z</time><course>271</course><type>18</type></trkpt>
      <trkpt lat="41.1778966" lon="-3.5382734"><ele>1799</ele><speed>13</speed><time>2016-10-08T13:56:04Z</time><course>308</course><type>18</type></trkpt>
      <trkpt lat="41.1783083" lon="-3.5383567"><ele>1808</ele><speed>12</speed><time>2016-10-08T13:56:09Z</time><course>333</course><type>18</type></trkpt>
      <trkpt lat="41.1787249" lon="-3.5383167"><ele>1813</ele><speed>14</speed><time>2016-10-08T13:56:10Z</time><course>343</course><type>18</type></trkpt>
      <trkpt lat="41.1788483" lon="-3.5383684"><ele>1815</ele><speed>15</speed><time>2016-10-08T13:56:11Z</time><course>336</course><type>18</type></trkpt>
      <trkpt lat="41.1785933" lon="-3.5382217"><ele>1822</ele><speed>26</speed><time>2016-10-08T13:56:16Z</time><course>161</course><type>18</type></trkpt>
      <trkpt lat="41.1783966" lon="-3.538165"><ele>1824</ele><speed>34</speed><time>2016-10-08T13:56:18Z</time><course>166</course><type>18</type></trkpt>
      <trkpt lat="41.1783083" lon="-3.53813"><ele>1825</ele><speed>35</speed><time>2016-10-08T13:56:19Z</time><course>164</course><type>18</type></trkpt>
      <trkpt lat="41.1782166" lon="-3.5381167"><ele>1826</ele><speed>37</speed><time>2016-10-08T13:56:20Z</time><course>164</course><type>18</type></trkpt>
      <trkpt lat="41.1781266" lon="-3.5380884"><ele>1828</ele><speed>37</speed><time>2016-10-08T13:56:21Z</time><course>166</course><type>18</type></trkpt>
      <trkpt lat="41.178025" lon="-3.5380667"><ele>1829</ele><speed>37</speed><time>2016-10-08T13:56:22Z</time><course>169</course><type>18</type></trkpt>
      <trkpt lat="41.1778366" lon="-3.538005"><ele>1831</ele><speed>37</speed><time>2016-10-08T13:56:24Z</time><course>168</course><type>18</type></trkpt>
      <trkpt lat="41.1777166" lon="-3.5379534"><ele>1832</ele><speed>38</speed><time>2016-10-08T13:56:25Z</time><course>168</course><type>18</type></trkpt>
      <trkpt lat="41.1775866" lon="-3.537955"><ele>1833</ele><speed>39</speed><time>2016-10-08T13:56:26Z</time><course>173</course><type>18</type></trkpt>
      <trkpt lat="41.1773866" lon="-3.5379417"><ele>1835</ele><speed>38</speed><time>2016-10-08T13:56:28Z</time><course>177</course><type>18</type></trkpt>
      <trkpt lat="41.17707" lon="-3.5381"><ele>1837</ele><speed>48</speed><time>2016-10-08T13:56:30Z</time><course>190</course><type>18</type></trkpt>
      <trkpt lat="41.1769433" lon="-3.5381417"><ele>1839</ele><speed>47</speed><time>2016-10-08T13:56:31Z</time><course>190</course><type>18</type></trkpt>
      <trkpt lat="41.1767133" lon="-3.53818"><ele>1841</ele><speed>44</speed><time>2016-10-08T13:56:33Z</time><course>187</course><type>18</type></trkpt>
      <trkpt lat="41.1756783" lon="-3.5390617"><ele>1847</ele><speed>47</speed><time>2016-10-08T13:56:36Z</time><course>189</course><type>18</type></trkpt>
      <trkpt lat="41.17545" lon="-3.5390967"><ele>1852</ele><speed>39</speed><time>2016-10-08T13:56:41Z</time><course>173</course><type>18</type></trkpt>
      <trkpt lat="41.1752783" lon="-3.5390684"><ele>1854</ele><speed>42</speed><time>2016-10-08T13:56:43Z</time><course>180</course><type>18</type></trkpt>
      <trkpt lat="41.175615" lon="-3.5389634"><ele>1858</ele><speed>31</speed><time>2016-10-08T13:56:45Z</time><course>175</course><type>18</type></trkpt>
      <trkpt lat="41.1762716" lon="-3.5389167"><ele>1860</ele><speed>25</speed><time>2016-10-08T13:56:46Z</time><course>165</course><type>18</type></trkpt>
      <trkpt lat="41.176445" lon="-3.5388584"><ele>1862</ele><speed>27</speed><time>2016-10-08T13:56:47Z</time><course>164</course><type>18</type></trkpt>
      <trkpt lat="41.176255" lon="-3.5387334"><ele>1865</ele><speed>31</speed><time>2016-10-08T13:56:49Z</time><course>172</course><type>18</type></trkpt>
      <trkpt lat="41.176095" lon="-3.5386967"><ele>1866</ele><speed>33</speed><time>2016-10-08T13:56:50Z</time><course>174</course><type>18</type></trkpt>
      <trkpt lat="41.1759483" lon="-3.5386234"><ele>1867</ele><speed>35</speed><time>2016-10-08T13:56:51Z</time><course>176</course><type>18</type></trkpt>
      <trkpt lat="41.1758333" lon="-3.5385784"><ele>1868</ele><speed>34</speed><time>2016-10-08T13:56:52Z</time><course>178</course><type>18</type></trkpt>
      <trkpt lat="41.175675" lon="-3.5385367"><ele>1871</ele><speed>31</speed><time>2016-10-08T13:56:54Z</time><course>170</course><type>18</type></trkpt>
      <trkpt lat="41.1755216" lon="-3.5385167"><ele>1873</ele><speed>30</speed><time>2016-10-08T13:56:56Z</time><course>173</course><type>18</type></trkpt>
      <trkpt lat="41.175355" lon="-3.5384217"><ele>1876</ele><speed>31</speed><time>2016-10-08T13:56:58Z</time><course>172</course><type>18</type></trkpt>
      <trkpt lat="41.1750683" lon="-3.5379"><ele>1881</ele><speed>35</speed><time>2016-10-08T13:57:00Z</time><course>162</course><type>18</type></trkpt>
      <trkpt lat="41.1741633" lon="-3.53606"><ele>1895</ele><speed>45</speed><time>2016-10-08T13:57:03Z</time><course>150</course><type>18</type></trkpt>
      <trkpt lat="41.1743599" lon="-3.536"><ele>1897</ele><speed>40</speed><time>2016-10-08T13:57:04Z</time><course>149</course><type>18</type></trkpt>
      <trkpt lat="41.1746616" lon="-3.5360117"><ele>1899</ele><speed>29</speed><time>2016-10-08T13:57:05Z</time><course>159</course><type>18</type></trkpt>
      <trkpt lat="41.1754483" lon="-3.5358184"><ele>1902</ele><speed>12</speed><time>2016-10-08T13:57:06Z</time><course>132</course><type>18</type></trkpt>
      <trkpt lat="41.1756083" lon="-3.53585"><ele>1904</ele><speed>0</speed><time>2016-10-08T13:57:07Z</time><course>132</course><type>18</type></trkpt>
      <trkpt lat="41.1759516" lon="-3.5357784"><ele>1906</ele><speed>13</speed><time>2016-10-08T13:57:08Z</time><course>348</course><type>18</type></trkpt>
      <trkpt lat="41.1761216" lon="-3.5355934"><ele>1908</ele><speed>37</speed><time>2016-10-08T13:57:10Z</time><course>34</course><type>18</type></trkpt>
      <trkpt lat="41.1762233" lon="-3.53538"><ele>1911</ele><speed>21</speed><time>2016-10-08T13:57:12Z</time><course>56</course><type>18</type></trkpt>
      <trkpt lat="41.1762266" lon="-3.535165"><ele>1910</ele><speed>29</speed><time>2016-10-08T13:57:14Z</time><course>84</course><type>18</type></trkpt>
      <trkpt lat="41.176245" lon="-3.5349067"><ele>1910</ele><speed>37</speed><time>2016-10-08T13:57:16Z</time><course>85</course><type>18</type></trkpt>
      <trkpt lat="41.1762516" lon="-3.53465"><ele>1910</ele><speed>39</speed><time>2016-10-08T13:57:18Z</time><course>87</course><type>18</type></trkpt>
      <trkpt lat="41.1762416" lon="-3.534375"><ele>1909</ele><speed>37</speed><time>2016-10-08T13:57:20Z</time><course>88</course><type>18</type></trkpt>
      <trkpt lat="41.1761816" lon="-3.5341334"><ele>1909</ele><speed>36</speed><time>2016-10-08T13:57:22Z</time><course>91</course><type>18</type></trkpt>
      <trkpt lat="41.1760816" lon="-3.533905"><ele>1909</ele><speed>35</speed><time>2016-10-08T13:57:24Z</time><course>98</course><type>18</type></trkpt>
      <trkpt lat="41.1758816" lon="-3.5337684"><ele>1909</ele><speed>39</speed><time>2016-10-08T13:57:25Z</time><course>119</course><type>18</type></trkpt>
      <trkpt lat="41.1757766" lon="-3.5336584"><ele>1909</ele><speed>39</speed><time>2016-10-08T13:57:26Z</time><course>125</course><type>18</type></trkpt>
      <trkpt lat="41.1757166" lon="-3.5335634"><ele>1909</ele><speed>35</speed><time>2016-10-08T13:57:27Z</time><course>123</course><type>18</type></trkpt>
      <trkpt lat="41.1756133" lon="-3.5334184"><ele>1909</ele><speed>29</speed><time>2016-10-08T13:57:29Z</time><course>123</course><type>18</type></trkpt>
      <trkpt lat="41.1755666" lon="-3.5331784"><ele>1909</ele><speed>40</speed><time>2016-10-08T13:57:31Z</time><course>116</course><type>18</type></trkpt>
      <trkpt lat="41.1755383" lon="-3.532985"><ele>1909</ele><speed>30</speed><time>2016-10-08T13:57:33Z</time><course>124</course><type>18</type></trkpt>
      <trkpt lat="41.175445" lon="-3.5329784"><ele>1909</ele><speed>27</speed><time>2016-10-08T13:57:35Z</time><course>156</course><type>18</type></trkpt>
      <trkpt lat="41.1753483" lon="-3.53295"><ele>1908</ele><speed>22</speed><time>2016-10-08T13:57:38Z</time><course>163</course><type>18</type></trkpt>
      <trkpt lat="41.175255" lon="-3.5330284"><ele>1908</ele><speed>13</speed><time>2016-10-08T13:57:41Z</time><course>179</course><type>18</type></trkpt>
      <trkpt lat="41.1752016" lon="-3.5332151"><ele>1908</ele><speed>13</speed><time>2016-10-08T13:57:43Z</time><course>222</course><type>18</type></trkpt>
      <trkpt lat="41.1752616" lon="-3.533365"><ele>1908</ele><speed>13</speed><time>2016-10-08T13:57:45Z</time><course>275</course><type>18</type></trkpt>
      <trkpt lat="41.1743816" lon="-3.5345934"><ele>1930</ele><speed>45</speed><time>2016-10-08T13:57:48Z</time><course>239</course><type>18</type></trkpt>
      <trkpt lat="41.1741199" lon="-3.5354217"><ele>1933</ele><speed>50</speed><time>2016-10-08T13:57:49Z</time><course>244</course><type>18</type></trkpt>
      <trkpt lat="41.1742016" lon="-3.5356734"><ele>1935</ele><speed>48</speed><time>2016-10-08T13:57:50Z</time><course>248</course><type>18</type></trkpt>
      <trkpt lat="41.1742733" lon="-3.5358534"><ele>1938</ele><speed>43</speed><time>2016-10-08T13:57:51Z</time><course>251</course><type>18</type></trkpt>
      <trkpt lat="41.17435" lon="-3.5357367"><ele>1946</ele><speed>6</speed><time>2016-10-08T13:57:57Z</time><course>152</course><type>18</type></trkpt>
      <trkpt lat="41.1743166" lon="-3.5354667"><ele>1947</ele><speed>17</speed><time>2016-10-08T13:57:59Z</time><course>121</course><type>18</type></trkpt>
      <trkpt lat="41.17423" lon="-3.535025"><ele>1950</ele><speed>27</speed><time>2016-10-08T13:58:00Z</time><course>118</course><type>18</type></trkpt>
      <trkpt lat="41.1742966" lon="-3.5348384"><ele>1951</ele><speed>28</speed><time>2016-10-08T13:58:02Z</time><course>114</course><type>18</type></trkpt>
      <trkpt lat="41.1744433" lon="-3.5347034"><ele>1952</ele><speed>30</speed><time>2016-10-08T13:58:04Z</time><course>117</course><type>18</type></trkpt>
      <trkpt lat="41.1744" lon="-3.53445"><ele>1951</ele><speed>31</speed><time>2016-10-08T13:58:07Z</time><course>120</course><type>18</type></trkpt>
      <trkpt lat="41.1742533" lon="-3.5343367"><ele>1950</ele><speed>30</speed><time>2016-10-08T13:58:09Z</time><course>139</course><type>18</type></trkpt>
      <trkpt lat="41.1740899" lon="-3.5342317"><ele>1949</ele><speed>30</speed><time>2016-10-08T13:58:11Z</time><course>146</course><type>18</type></trkpt>
      <trkpt lat="41.174245" lon="-3.5345017"><ele>1949</ele><speed>16</speed><time>2016-10-08T13:58:13Z</time><course>142</course><type>18</type></trkpt>
      <trkpt lat="41.174345" lon="-3.5347017"><ele>1948</ele><speed>9</speed><time>2016-10-08T13:58:14Z</time><course>153</course><type>18</type></trkpt>
      <trkpt lat="41.1744733" lon="-3.5350167"><ele>1948</ele><speed>7</speed><time>2016-10-08T13:58:16Z</time><course>242</course><type>18</type></trkpt>
      <trkpt lat="41.1745766" lon="-3.5352234"><ele>1947</ele><speed>13</speed><time>2016-10-08T13:58:19Z</time><course>300</course><type>18</type></trkpt>
      <trkpt lat="41.1746266" lon="-3.5354084"><ele>1947</ele><speed>16</speed><time>2016-10-08T13:58:21Z</time><course>294</course><type>18</type></trkpt>
      <trkpt lat="41.1746933" lon="-3.5355901"><ele>1946</ele><speed>17</speed><time>2016-10-08T13:58:23Z</time><course>300</course><type>18</type></trkpt>
      <trkpt lat="41.174665" lon="-3.5358517"><ele>1946</ele><speed>17</speed><time>2016-10-08T13:58:26Z</time><course>300</course><type>18</type></trkpt>
      <trkpt lat="41.1747633" lon="-3.5359467"><ele>1945</ele><speed>18</speed><time>2016-10-08T13:58:28Z</time><course>318</course><type>18</type></trkpt>
      <trkpt lat="41.17485" lon="-3.53565"><ele>1945</ele><speed>21</speed><time>2016-10-08T13:58:30Z</time><course>4</course><type>18</type></trkpt>
      <trkpt lat="41.17489" lon="-3.5355017"><ele>1945</ele><speed>24</speed><time>2016-10-08T13:58:31Z</time><course>20</course><type>18</type></trkpt>
      <trkpt lat="41.17496" lon="-3.5353234"><ele>1945</ele><speed>34</speed><time>2016-10-08T13:58:32Z</time><course>37</course><type>18</type></trkpt>
      <trkpt lat="41.1749716" lon="-3.5351134"><ele>1945</ele><speed>39</speed><time>2016-10-08T13:58:33Z</time><course>57</course><type>18</type></trkpt>
      <trkpt lat="41.1750083" lon="-3.5349784"><ele>1945</ele><speed>41</speed><time>2016-10-08T13:58:34Z</time><course>57</course><type>18</type></trkpt>
      <trkpt lat="41.175045" lon="-3.5348084"><ele>1945</ele><speed>49</speed><time>2016-10-08T13:58:35Z</time><course>60</course><type>18</type></trkpt>
      <trkpt lat="41.1750983" lon="-3.534665"><ele>1945</ele><speed>48</speed><time>2016-10-08T13:58:36Z</time><course>61</course><type>18</type></trkpt>
      <trkpt lat="41.1751633" lon="-3.5345417"><ele>1945</ele><speed>47</speed><time>2016-10-08T13:58:37Z</time><course>59</course><type>18</type></trkpt>
      <trkpt lat="41.175275" lon="-3.5344334"><ele>1945</ele><speed>46</speed><time>2016-10-08T13:58:38Z</time><course>56</course><type>18</type></trkpt>
      <trkpt lat="41.175355" lon="-3.5343284"><ele>1945</ele><speed>43</speed><time>2016-10-08T13:58:39Z</time><course>57</course><type>18</type></trkpt>
      <trkpt lat="41.175435" lon="-3.5342217"><ele>1944</ele><speed>42</speed><time>2016-10-08T13:58:40Z</time><course>57</course><type>18</type></trkpt>
      <trkpt lat="41.1755566" lon="-3.5340284"><ele>1944</ele><speed>38</speed><time>2016-10-08T13:58:42Z</time><course>58</course><type>18</type></trkpt>
      <trkpt lat="41.1756083" lon="-3.53384"><ele>1944</ele><speed>35</speed><time>2016-10-08T13:58:44Z</time><course>65</course><type>18</type></trkpt>
      <trkpt lat="41.17559" lon="-3.533655"><ele>1943</ele><speed>32</speed><time>2016-10-08T13:58:46Z</time><course>76</course><type>18</type></trkpt>
      <trkpt lat="41.1753916" lon="-3.5335167"><ele>1943</ele><speed>22</speed><time>2016-10-08T13:58:49Z</time><course>102</course><type>18</type></trkpt>
      <trkpt lat="41.1752866" lon="-3.5334217"><ele>1943</ele><speed>22</speed><time>2016-10-08T13:58:50Z</time><course>113</course><type>18</type></trkpt>
      <trkpt lat="41.175145" lon="-3.5333"><ele>1943</ele><speed>24</speed><time>2016-10-08T13:58:51Z</time><course>123</course><type>18</type></trkpt>
      <trkpt lat="41.1749899" lon="-3.53311"><ele>1944</ele><speed>26</speed><time>2016-10-08T13:58:53Z</time><course>137</course><type>18</type></trkpt>
      <trkpt lat="41.1748999" lon="-3.5329084"><ele>1944</ele><speed>26</speed><time>2016-10-08T13:58:55Z</time><course>137</course><type>18</type></trkpt>
      <trkpt lat="41.175595" lon="-3.53241"><ele>1947</ele><speed>23</speed><time>2016-10-08T13:58:56Z</time><course>92</course><type>18</type></trkpt>
      <trkpt lat="41.1759883" lon="-3.5322317"><ele>1948</ele><speed>24</speed><time>2016-10-08T13:58:57Z</time><course>79</course><type>18</type></trkpt>
      <trkpt lat="41.1755016" lon="-3.531035"><ele>1951</ele><speed>31</speed><time>2016-10-08T13:58:58Z</time><course>82</course><type>18</type></trkpt>
      <trkpt lat="41.1752033" lon="-3.5306367"><ele>1953</ele><speed>34</speed><time>2016-10-08T13:58:59Z</time><course>74</course><type>18</type></trkpt>
      <trkpt lat="41.175325" lon="-3.53043"><ele>1954</ele><speed>36</speed><time>2016-10-08T13:59:01Z</time><course>62</course><type>18</type></trkpt>
      <trkpt lat="41.1754816" lon="-3.5304084"><ele>1954</ele><speed>37</speed><time>2016-10-08T13:59:02Z</time><course>56</course><type>18</type></trkpt>
      <trkpt lat="41.1756366" lon="-3.5302067"><ele>1954</ele><speed>38</speed><time>2016-10-08T13:59:04Z</time><course>55</course><type>18</type></trkpt>
      <trkpt lat="41.1757333" lon="-3.530095"><ele>1955</ele><speed>39</speed><time>2016-10-08T13:59:05Z</time><course>53</course><type>18</type></trkpt>
      <trkpt lat="41.1758433" lon="-3.5299184"><ele>1955</ele><speed>43</speed><time>2016-10-08T13:59:06Z</time><course>52</course><type>18</type></trkpt>
      <trkpt lat="41.1759383" lon="-3.5297817"><ele>1955</ele><speed>45</speed><time>2016-10-08T13:59:07Z</time><course>53</course><type>18</type></trkpt>
      <trkpt lat="41.175885" lon="-3.5296634"><ele>1955</ele><speed>45</speed><time>2016-10-08T13:59:08Z</time><course>56</course><type>18</type></trkpt>
      <trkpt lat="41.1758933" lon="-3.529525"><ele>1955</ele><speed>45</speed><time>2016-10-08T13:59:09Z</time><course>59</course><type>18</type></trkpt>
      <trkpt lat="41.1758766" lon="-3.5294017"><ele>1956</ele><speed>43</speed><time>2016-10-08T13:59:10Z</time><course>64</course><type>18</type></trkpt>
      <trkpt lat="41.175895" lon="-3.529255"><ele>1956</ele><speed>43</speed><time>2016-10-08T13:59:11Z</time><course>66</course><type>18</type></trkpt>
      <trkpt lat="41.1759433" lon="-3.5291067"><ele>1956</ele><speed>43</speed><time>2016-10-08T13:59:12Z</time><course>67</course><type>18</type></trkpt>
      <trkpt lat="41.1759683" lon="-3.5289684"><ele>1956</ele><speed>42</speed><time>2016-10-08T13:59:13Z</time><course>69</course><type>18</type></trkpt>
      <trkpt lat="41.1759799" lon="-3.528785"><ele>1956</ele><speed>44</speed><time>2016-10-08T13:59:14Z</time><course>73</course><type>18</type></trkpt>
      <trkpt lat="41.17602" lon="-3.5286434"><ele>1957</ele><speed>37</speed><time>2016-10-08T13:59:15Z</time><course>68</course><type>18</type></trkpt>
      <trkpt lat="41.1760233" lon="-3.5284934"><ele>1957</ele><speed>28</speed><time>2016-10-08T13:59:17Z</time><course>72</course><type>18</type></trkpt>
      <trkpt lat="41.1760533" lon="-3.528605"><ele>1961</ele><speed>27</speed><time>2016-10-08T13:59:24Z</time><course>9</course><type>18</type></trkpt>
      <trkpt lat="41.1761766" lon="-3.5285917"><ele>1964</ele><speed>25</speed><time>2016-10-08T13:59:27Z</time><course>20</course><type>18</type></trkpt>
      <trkpt lat="41.17626" lon="-3.5286017"><ele>1964</ele><speed>22</speed><time>2016-10-08T13:59:29Z</time><course>13</course><type>18</type></trkpt>
      <trkpt lat="41.1763833" lon="-3.52864"><ele>1965</ele><speed>32</speed><time>2016-10-08T13:59:31Z</time><course>3</course><type>18</type></trkpt>
      <trkpt lat="41.1764033" lon="-3.528495"><ele>1965</ele><speed>22</speed><time>2016-10-08T13:59:33Z</time><course>35</course><type>18</type></trkpt>
      <trkpt lat="41.1762933" lon="-3.5285317"><ele>1971</ele><speed>16</speed><time>2016-10-08T13:59:36Z</time><course>61</course><type>18</type></trkpt>
      <trkpt lat="41.1761599" lon="-3.5287867"><ele>1975</ele><speed>16</speed><time>2016-10-08T13:59:37Z</time><course>69</course><type>18</type></trkpt>
      <trkpt lat="41.1760283" lon="-3.5288634"><ele>1978</ele><speed>17</speed><time>2016-10-08T13:59:38Z</time><course>78</course><type>18</type></trkpt>
      <trkpt lat="41.1759633" lon="-3.5284584"><ele>1979</ele><speed>27</speed><time>2016-10-08T13:59:40Z</time><course>90</course><type>18</type></trkpt>
      <trkpt lat="41.1759633" lon="-3.5282467"><ele>1979</ele><speed>30</speed><time>2016-10-08T13:59:42Z</time><course>89</course><type>18</type></trkpt>
      <trkpt lat="41.1759616" lon="-3.5280034"><ele>1980</ele><speed>33</speed><time>2016-10-08T13:59:44Z</time><course>90</course><type>18</type></trkpt>
      <trkpt lat="41.1759233" lon="-3.5277084"><ele>1980</ele><speed>36</speed><time>2016-10-08T13:59:46Z</time><course>88</course><type>18</type></trkpt>
      <trkpt lat="41.175855" lon="-3.5275867"><ele>1980</ele><speed>33</speed><time>2016-10-08T13:59:47Z</time><course>100</course><type>18</type></trkpt>
      <trkpt lat="41.1756933" lon="-3.527065"><ele>1981</ele><speed>44</speed><time>2016-10-08T13:59:48Z</time><course>105</course><type>18</type></trkpt>
      <trkpt lat="41.1756083" lon="-3.52679"><ele>1982</ele><speed>44</speed><time>2016-10-08T13:59:50Z</time><course>112</course><type>18</type></trkpt>
      <trkpt lat="41.1755033" lon="-3.5268134"><ele>1984</ele><speed>40</speed><time>2016-10-08T13:59:53Z</time><course>128</course><type>18</type></trkpt>
      <trkpt lat="41.1754" lon="-3.5269767"><ele>1985</ele><speed>23</speed><time>2016-10-08T13:59:55Z</time><course>151</course><type>18</type></trkpt>
      <trkpt lat="41.1753016" lon="-3.5270667"><ele>1985</ele><speed>12</speed><time>2016-10-08T13:59:57Z</time><course>168</course><type>18</type></trkpt>
      <trkpt lat="41.1754266" lon="-3.527045"><ele>1987</ele><speed>16</speed><time>2016-10-08T14:00:06Z</time><course>29</course><type>18</type></trkpt>
      <trkpt lat="41.175555" lon="-3.5270084"><ele>1987</ele><speed>20</speed><time>2016-10-08T14:00:08Z</time><course>30</course><type>18</type></trkpt>
      <trkpt lat="41.1756283" lon="-3.52693"><ele>1987</ele><speed>22</speed><time>2016-10-08T14:00:09Z</time><course>33</course><type>18</type></trkpt>
      <trkpt lat="41.1756983" lon="-3.526855"><ele>1987</ele><speed>25</speed><time>2016-10-08T14:00:10Z</time><course>37</course><type>18</type></trkpt>
      <trkpt lat="41.1757483" lon="-3.5263184"><ele>1989</ele><speed>38</speed><time>2016-10-08T14:00:11Z</time><course>48</course><type>18</type></trkpt>
      <trkpt lat="41.1755316" lon="-3.5253917"><ele>1993</ele><speed>53</speed><time>2016-10-08T14:00:12Z</time><course>92</course><type>18</type></trkpt>
      <trkpt lat="41.1754266" lon="-3.5248017"><ele>1996</ele><speed>55</speed><time>2016-10-08T14:00:13Z</time><course>96</course><type>18</type></trkpt>
      <trkpt lat="41.175345" lon="-3.52441"><ele>1999</ele><speed>55</speed><time>2016-10-08T14:00:14Z</time><course>106</course><type>18</type></trkpt>
      <trkpt lat="41.175285" lon="-3.524165"><ele>2001</ele><speed>50</speed><time>2016-10-08T14:00:15Z</time><course>113</course><type>18</type></trkpt>
      <trkpt lat="41.1752416" lon="-3.5240067"><ele>2002</ele><speed>53</speed><time>2016-10-08T14:00:16Z</time><course>112</course><type>18</type></trkpt>
      <trkpt lat="41.1752266" lon="-3.5238767"><ele>2004</ele><speed>51</speed><time>2016-10-08T14:00:17Z</time><course>114</course><type>18</type></trkpt>
      <trkpt lat="41.1752133" lon="-3.523735"><ele>2006</ele><speed>50</speed><time>2016-10-08T14:00:18Z</time><course>113</course><type>18</type></trkpt>
      <trkpt lat="41.1752733" lon="-3.5235984"><ele>2010</ele><speed>50</speed><time>2016-10-08T14:00:19Z</time><course>109</course><type>18</type></trkpt>
      <trkpt lat="41.1753116" lon="-3.5237917"><ele>2019</ele><speed>37</speed><time>2016-10-08T14:00:21Z</time><course>130</course><type>18</type></trkpt>
      <trkpt lat="41.17558" lon="-3.52362"><ele>2024</ele><speed>35</speed><time>2016-10-08T14:00:22Z</time><course>135</course><type>18</type></trkpt>
      <trkpt lat="41.1756199" lon="-3.5235084"><ele>2027</ele><speed>32</speed><time>2016-10-08T14:00:23Z</time><course>131</course><type>18</type></trkpt>
      <trkpt lat="41.175625" lon="-3.523345"><ele>2031</ele><speed>30</speed><time>2016-10-08T14:00:24Z</time><course>125</course><type>18</type></trkpt>
      <trkpt lat="41.1756266" lon="-3.52324"><ele>2034</ele><speed>26</speed><time>2016-10-08T14:00:25Z</time><course>117</course><type>18</type></trkpt>
      <trkpt lat="41.1756183" lon="-3.52312"><ele>2037</ele><speed>24</speed><time>2016-10-08T14:00:26Z</time><course>107</course><type>18</type></trkpt>
      <trkpt lat="41.1756866" lon="-3.523245"><ele>2046</ele><speed>25</speed><time>2016-10-08T14:00:29Z</time><course>5</course><type>18</type></trkpt>
      <trkpt lat="41.1756649" lon="-3.523055"><ele>2056</ele><speed>24</speed><time>2016-10-08T14:00:32Z</time><course>30</course><type>18</type></trkpt>
      <trkpt lat="41.1756916" lon="-3.5229517"><ele>2062</ele><speed>26</speed><time>2016-10-08T14:00:33Z</time><course>29</course><type>18</type></trkpt>
      <trkpt lat="41.1758066" lon="-3.5228634"><ele>2067</ele><speed>26</speed><time>2016-10-08T14:00:35Z</time><course>40</course><type>18</type></trkpt>
      <trkpt lat="41.1758616" lon="-3.5227267"><ele>2073</ele><speed>38</speed><time>2016-10-08T14:00:37Z</time><course>70</course><type>18</type></trkpt>
      <trkpt lat="41.1758833" lon="-3.5225667"><ele>2077</ele><speed>40</speed><time>2016-10-08T14:00:39Z</time><course>80</course><type>18</type></trkpt>
      <trkpt lat="41.1758766" lon="-3.522435"><ele>2079</ele><speed>43</speed><time>2016-10-08T14:00:40Z</time><course>85</course><type>18</type></trkpt>
      <trkpt lat="41.17586" lon="-3.5222884"><ele>2082</ele><speed>46</speed><time>2016-10-08T14:00:41Z</time><course>89</course><type>18</type></trkpt>
      <trkpt lat="41.1758216" lon="-3.5222167"><ele>2087</ele><speed>50</speed><time>2016-10-08T14:00:42Z</time><course>102</course><type>18</type></trkpt>
      <trkpt lat="41.175905" lon="-3.5220134"><ele>2098</ele><speed>50</speed><time>2016-10-08T14:00:44Z</time><course>106</course><type>18</type></trkpt>
      <trkpt lat="41.17596" lon="-3.5219084"><ele>2102</ele><speed>49</speed><time>2016-10-08T14:00:45Z</time><course>107</course><type>18</type></trkpt>
      <trkpt lat="41.1759366" lon="-3.5217717"><ele>2104</ele><speed>47</speed><time>2016-10-08T14:00:46Z</time><course>112</course><type>18</type></trkpt>
      <trkpt lat="41.1758733" lon="-3.52167"><ele>2108</ele><speed>48</speed><time>2016-10-08T14:00:47Z</time><course>117</course><type>18</type></trkpt>
      <trkpt lat="41.17582" lon="-3.5215467"><ele>2110</ele><speed>49</speed><time>2016-10-08T14:00:48Z</time><course>120</course><type>18</type></trkpt>
      <trkpt lat="41.1757116" lon="-3.5215334"><ele>2115</ele><speed>48</speed><time>2016-10-08T14:00:49Z</time><course>129</course><type>18</type></trkpt>
      <trkpt lat="41.1755749" lon="-3.52155"><ele>2120</ele><speed>54</speed><time>2016-10-08T14:00:50Z</time><course>139</course><type>18</type></trkpt>
      <trkpt lat="41.175415" lon="-3.5216867"><ele>2126</ele><speed>49</speed><time>2016-10-08T14:00:51Z</time><course>159</course><type>18</type></trkpt>
      <trkpt lat="41.175275" lon="-3.521695"><ele>2130</ele><speed>49</speed><time>2016-10-08T14:00:52Z</time><course>163</course><type>18</type></trkpt>
      <trkpt lat="41.1750966" lon="-3.5215817"><ele>2136</ele><speed>49</speed><time>2016-10-08T14:00:53Z</time><course>171</course><type>18</type></trkpt>
      <trkpt lat="41.1749733" lon="-3.5215034"><ele>2140</ele><speed>47</speed><time>2016-10-08T14:00:54Z</time><course>179</course><type>18</type></trkpt>
      <trkpt lat="41.1748916" lon="-3.52149"><ele>2142</ele><speed>45</speed><time>2016-10-08T14:00:55Z</time><course>182</course><type>18</type></trkpt>
      <trkpt lat="41.17479" lon="-3.5214467"><ele>2146</ele><speed>34</speed><time>2016-10-08T14:00:57Z</time><course>181</course><type>18</type></trkpt>
      <trkpt lat="41.1747533" lon="-3.52133"><ele>2154</ele><speed>17</speed><time>2016-10-08T14:00:59Z</time><course>182</course><type>18</type></trkpt>
      <trkpt lat="41.174845" lon="-3.5213167"><ele>2168</ele><speed>11</speed><time>2016-10-08T14:01:01Z</time><course>285</course><type>18</type></trkpt>
      <trkpt lat="41.1749016" lon="-3.5213834"><ele>2182</ele><speed>18</speed><time>2016-10-08T14:01:03Z</time><course>317</course><type>18</type></trkpt>
      <trkpt lat="41.174965" lon="-3.5214634"><ele>2188</ele><speed>18</speed><time>2016-10-08T14:01:04Z</time><course>329</course><type>18</type></trkpt>
      <trkpt lat="41.1750816" lon="-3.5214934"><ele>2194</ele><speed>21</speed><time>2016-10-08T14:01:06Z</time><course>346</course><type>18</type></trkpt>
      <trkpt lat="41.175135" lon="-3.5214417"><ele>2206</ele><speed>26</speed><time>2016-10-08T14:01:08Z</time><course>22</course><type>18</type></trkpt>
      <trkpt lat="41.1751466" lon="-3.52133"><ele>2233</ele><speed>36</speed><time>2016-10-08T14:01:12Z</time><course>45</course><type>18</type></trkpt>
      <trkpt lat="41.1751933" lon="-3.52124"><ele>2234</ele><speed>38</speed><time>2016-10-08T14:01:13Z</time><course>44</course><type>18</type></trkpt>
      <trkpt lat="41.1752783" lon="-3.5211617"><ele>2244</ele><speed>38</speed><time>2016-10-08T14:01:15Z</time><course>43</course><type>18</type></trkpt>
      <trkpt lat="41.1753483" lon="-3.5210934"><ele>2246</ele><speed>39</speed><time>2016-10-08T14:01:16Z</time><course>45</course><type>18</type></trkpt>
      <trkpt lat="41.175285" lon="-3.5209434"><ele>2258</ele><speed>47</speed><time>2016-10-08T14:01:18Z</time><course>75</course><type>18</type></trkpt>
      <trkpt lat="41.1752266" lon="-3.5209084"><ele>2267</ele><speed>50</speed><time>2016-10-08T14:01:19Z</time><course>78</course><type>18</type></trkpt>
      <trkpt lat="41.1751933" lon="-3.5208084"><ele>2274</ele><speed>49</speed><time>2016-10-08T14:01:20Z</time><course>83</course><type>18</type></trkpt>
      <trkpt lat="41.1751166" lon="-3.5207417"><ele>2284</ele><speed>48</speed><time>2016-10-08T14:01:21Z</time><course>91</course><type>18</type></trkpt>
      <trkpt lat="41.1750416" lon="-3.5206534"><ele>2290</ele><speed>46</speed><time>2016-10-08T14:01:22Z</time><course>100</course><type>18</type></trkpt>
      <trkpt lat="41.17497" lon="-3.5205467"><ele>2292</ele><speed>46</speed><time>2016-10-08T14:01:23Z</time><course>105</course><type>18</type></trkpt>
      <trkpt lat="41.17489" lon="-3.520455"><ele>2297</ele><speed>47</speed><time>2016-10-08T14:01:24Z</time><course>106</course><type>18</type></trkpt>
      <trkpt lat="41.174825" lon="-3.5203217"><ele>2299</ele><speed>48</speed><time>2016-10-08T14:01:25Z</time><course>111</course><type>18</type></trkpt>
      <trkpt lat="41.174835" lon="-3.5201717"><ele>2302</ele><speed>50</speed><time>2016-10-08T14:01:26Z</time><course>107</course><type>18</type></trkpt>
      <trkpt lat="41.1748433" lon="-3.5200267"><ele>2305</ele><speed>52</speed><time>2016-10-08T14:01:27Z</time><course>114</course><type>18</type></trkpt>
      <trkpt lat="41.1748083" lon="-3.5198917"><ele>2310</ele><speed>39</speed><time>2016-10-08T14:01:29Z</time><course>135</course><type>18</type></trkpt>
      <trkpt lat="41.1747183" lon="-3.519855"><ele>2314</ele><speed>25</speed><time>2016-10-08T14:01:31Z</time><course>149</course><type>18</type></trkpt>
      <trkpt lat="41.17478" lon="-3.5199567"><ele>2346</ele><speed>19</speed><time>2016-10-08T14:01:39Z</time><course>2</course><type>18</type></trkpt>
      <trkpt lat="41.17484" lon="-3.5199651"><ele>2355</ele><speed>27</speed><time>2016-10-08T14:01:41Z</time><course>23</course><type>18</type></trkpt>
      <trkpt lat="41.174875" lon="-3.51988"><ele>2372</ele><speed>25</speed><time>2016-10-08T14:01:45Z</time><course>48</course><type>18</type></trkpt>
      <trkpt lat="41.17491" lon="-3.519825"><ele>2374</ele><speed>28</speed><time>2016-10-08T14:01:46Z</time><course>54</course><type>18</type></trkpt>
      <trkpt lat="41.1749583" lon="-3.5197534"><ele>2374</ele><speed>32</speed><time>2016-10-08T14:01:47Z</time><course>59</course><type>18</type></trkpt>
      <trkpt lat="41.1749266" lon="-3.519615"><ele>2382</ele><speed>42</speed><time>2016-10-08T14:01:49Z</time><course>71</course><type>18</type></trkpt>
      <trkpt lat="41.1748733" lon="-3.5194934"><ele>2392</ele><speed>42</speed><time>2016-10-08T14:01:51Z</time><course>84</course><type>18</type></trkpt>
      <trkpt lat="41.1748366" lon="-3.5194167"><ele>2398</ele><speed>43</speed><time>2016-10-08T14:01:52Z</time><course>93</course><type>18</type></trkpt>
      <trkpt lat="41.1747916" lon="-3.5193417"><ele>2403</ele><speed>44</speed><time>2016-10-08T14:01:53Z</time><course>112</course><type>18</type></trkpt>
      <trkpt lat="41.1747683" lon="-3.5192634"><ele>2408</ele><speed>44</speed><time>2016-10-08T14:01:54Z</time><course>116</course><type>18</type></trkpt>
      <trkpt lat="41.1747316" lon="-3.519175"><ele>2411</ele><speed>45</speed><time>2016-10-08T14:01:55Z</time><course>120</course><type>18</type></trkpt>
      <trkpt lat="41.174655" lon="-3.519075"><ele>2413</ele><speed>46</speed><time>2016-10-08T14:01:56Z</time><course>125</course><type>18</type></trkpt>
      <trkpt lat="41.174575" lon="-3.5189684"><ele>2414</ele><speed>49</speed><time>2016-10-08T14:01:57Z</time><course>123</course><type>18</type></trkpt>
      <trkpt lat="41.1744733" lon="-3.5188567"><ele>2416</ele><speed>53</speed><time>2016-10-08T14:01:58Z</time><course>129</course><type>18</type></trkpt>
      <trkpt lat="41.1743933" lon="-3.518745"><ele>2417</ele><speed>50</speed><time>2016-10-08T14:01:59Z</time><course>130</course><type>18</type></trkpt>
      <trkpt lat="41.174345" lon="-3.51864"><ele>2418</ele><speed>45</speed><time>2016-10-08T14:02:00Z</time><course>127</course><type>18</type></trkpt>
      <trkpt lat="41.1743333" lon="-3.5185467"><ele>2420</ele><speed>37</speed><time>2016-10-08T14:02:01Z</time><course>123</course><type>18</type></trkpt>
      <trkpt lat="41.174245" lon="-3.5185267"><ele>2424</ele><speed>29</speed><time>2016-10-08T14:02:03Z</time><course>165</course><type>18</type></trkpt>
      <trkpt lat="41.1741816" lon="-3.5185184"><ele>2426</ele><speed>29</speed><time>2016-10-08T14:02:04Z</time><course>170</course><type>18</type></trkpt>
      <trkpt lat="41.1741" lon="-3.5185067"><ele>2430</ele><speed>22</speed><time>2016-10-08T14:02:06Z</time><course>176</course><type>18</type></trkpt>
      <trkpt lat="41.1740233" lon="-3.51853"><ele>2435</ele><speed>19</speed><time>2016-10-08T14:02:08Z</time><course>179</course><type>18</type></trkpt>
      <trkpt lat="41.174085" lon="-3.5186117"><ele>2447</ele><speed>19</speed><time>2016-10-08T14:02:13Z</time><course>301</course><type>18</type></trkpt>
      <trkpt lat="41.1741649" lon="-3.5186517"><ele>2450</ele><speed>28</speed><time>2016-10-08T14:02:14Z</time><course>333</course><type>18</type></trkpt>
      <trkpt lat="41.1742633" lon="-3.5186567"><ele>2454</ele><speed>26</speed><time>2016-10-08T14:02:15Z</time><course>352</course><type>18</type></trkpt>
      <trkpt lat="41.1743483" lon="-3.51865"><ele>2459</ele><speed>26</speed><time>2016-10-08T14:02:16Z</time><course>19</course><type>18</type></trkpt>
      <trkpt lat="41.1744033" lon="-3.5187034"><ele>2466</ele><speed>30</speed><time>2016-10-08T14:02:17Z</time><course>19</course><type>18</type></trkpt>
      <trkpt lat="41.1744833" lon="-3.518765"><ele>2471</ele><speed>34</speed><time>2016-10-08T14:02:18Z</time><course>17</course><type>18</type></trkpt>
      <trkpt lat="41.1745683" lon="-3.5188034"><ele>2476</ele><speed>39</speed><time>2016-10-08T14:02:19Z</time><course>18</course><type>18</type></trkpt>
      <trkpt lat="41.17465" lon="-3.5187717"><ele>2480</ele><speed>43</speed><time>2016-10-08T14:02:20Z</time><course>23</course><type>18</type></trkpt>
      <trkpt lat="41.174715" lon="-3.5187617"><ele>2486</ele><speed>48</speed><time>2016-10-08T14:02:21Z</time><course>33</course><type>18</type></trkpt>
      <trkpt lat="41.1748016" lon="-3.5186967"><ele>2500</ele><speed>55</speed><time>2016-10-08T14:02:23Z</time><course>51</course><type>18</type></trkpt>
      <trkpt lat="41.1748233" lon="-3.5185967"><ele>2505</ele><speed>53</speed><time>2016-10-08T14:02:24Z</time><course>59</course><type>18</type></trkpt>
      <trkpt lat="41.1748433" lon="-3.518485"><ele>2510</ele><speed>51</speed><time>2016-10-08T14:02:25Z</time><course>63</course><type>18</type></trkpt>
      <trkpt lat="41.1748366" lon="-3.51834"><ele>2514</ele><speed>49</speed><time>2016-10-08T14:02:26Z</time><course>70</course><type>18</type></trkpt>
      <trkpt lat="41.1747933" lon="-3.5182201"><ele>2519</ele><speed>47</speed><time>2016-10-08T14:02:27Z</time><course>79</course><type>18</type></trkpt>
      <trkpt lat="41.1747616" lon="-3.5181017"><ele>2523</ele><speed>46</speed><time>2016-10-08T14:02:28Z</time><course>88</course><type>18</type></trkpt>
      <trkpt lat="41.17471" lon="-3.5179784"><ele>2526</ele><speed>44</speed><time>2016-10-08T14:02:29Z</time><course>97</course><type>18</type></trkpt>
      <trkpt lat="41.1746366" lon="-3.5178784"><ele>2529</ele><speed>43</speed><time>2016-10-08T14:02:30Z</time><course>106</course><type>18</type></trkpt>
      <trkpt lat="41.1745516" lon="-3.5177884"><ele>2529</ele><speed>40</speed><time>2016-10-08T14:02:31Z</time><course>120</course><type>18</type></trkpt>
      <trkpt lat="41.1744816" lon="-3.5176984"><ele>2531</ele><speed>38</speed><time>2016-10-08T14:02:32Z</time><course>127</course><type>18</type></trkpt>
      <trkpt lat="41.174385" lon="-3.51762"><ele>2532</ele><speed>40</speed><time>2016-10-08T14:02:33Z</time><course>134</course><type>18</type></trkpt>
      <trkpt lat="41.1743133" lon="-3.517535"><ele>2534</ele><speed>41</speed><time>2016-10-08T14:02:34Z</time><course>134</course><type>18</type></trkpt>
      <trkpt lat="41.174275" lon="-3.51742"><ele>2538</ele><speed>38</speed><time>2016-10-08T14:02:35Z</time><course>131</course><type>18</type></trkpt>
      <trkpt lat="41.1742733" lon="-3.51731"><ele>2541</ele><speed>33</speed><time>2016-10-08T14:02:36Z</time><course>119</course><type>18</type></trkpt>
      <trkpt lat="41.174245" lon="-3.5172134"><ele>2544</ele><speed>30</speed><time>2016-10-08T14:02:37Z</time><course>118</course><type>18</type></trkpt>
      <trkpt lat="41.1741433" lon="-3.5171734"><ele>2550</ele><speed>21</speed><time>2016-10-08T14:02:39Z</time><course>154</course><type>18</type></trkpt>
      <trkpt lat="41.1741516" lon="-3.5172934"><ele>2564</ele><speed>8</speed><time>2016-10-08T14:02:43Z</time><course>309</course><type>18</type></trkpt>
      <trkpt lat="41.1742433" lon="-3.5173434"><ele>2570</ele><speed>10</speed><time>2016-10-08T14:02:45Z</time><course>347</course><type>18</type></trkpt>
      <trkpt lat="41.17434" lon="-3.517395"><ele>2577</ele><speed>18</speed><time>2016-10-08T14:02:47Z</time><course>7</course><type>18</type></trkpt>
      <trkpt lat="41.1744083" lon="-3.5174217"><ele>2585</ele><speed>37</speed><time>2016-10-08T14:02:49Z</time><course>35</course><type>18</type></trkpt>
      <trkpt lat="41.17447" lon="-3.517395"><ele>2590</ele><speed>35</speed><time>2016-10-08T14:02:50Z</time><course>48</course><type>18</type></trkpt>
      <trkpt lat="41.1745183" lon="-3.51729"><ele>2596</ele><speed>42</speed><time>2016-10-08T14:02:52Z</time><course>50</course><type>18</type></trkpt>
      <trkpt lat="41.1745566" lon="-3.51721"><ele>2604</ele><speed>47</speed><time>2016-10-08T14:02:54Z</time><course>50</course><type>18</type></trkpt>
      <trkpt lat="41.1746266" lon="-3.5170934"><ele>2611</ele><speed>47</speed><time>2016-10-08T14:02:56Z</time><course>54</course><type>18</type></trkpt>
      <trkpt lat="41.1746866" lon="-3.516975"><ele>2615</ele><speed>47</speed><time>2016-10-08T14:02:57Z</time><course>58</course><type>18</type></trkpt>
      <trkpt lat="41.1747366" lon="-3.5168567"><ele>2619</ele><speed>48</speed><time>2016-10-08T14:02:58Z</time><course>64</course><type>18</type></trkpt>
      <trkpt lat="41.1747649" lon="-3.5167117"><ele>2621</ele><speed>50</speed><time>2016-10-08T14:02:59Z</time><course>71</course><type>18</type></trkpt>
      <trkpt lat="41.1747966" lon="-3.51659"><ele>2623</ele><speed>49</speed><time>2016-10-08T14:03:00Z</time><course>74</course><type>18</type></trkpt>
      <trkpt lat="41.1748216" lon="-3.5164417"><ele>2624</ele><speed>48</speed><time>2016-10-08T14:03:01Z</time><course>79</course><type>18</type></trkpt>
      <trkpt lat="41.1748633" lon="-3.516305"><ele>2626</ele><speed>48</speed><time>2016-10-08T14:03:02Z</time><course>82</course><type>18</type></trkpt>
      <trkpt lat="41.17488" lon="-3.5161517"><ele>2628</ele><speed>47</speed><time>2016-10-08T14:03:03Z</time><course>86</course><type>18</type></trkpt>
      <trkpt lat="41.1748816" lon="-3.5160067"><ele>2630</ele><speed>48</speed><time>2016-10-08T14:03:04Z</time><course>85</course><type>18</type></trkpt>
      <trkpt lat="41.174895" lon="-3.5158584"><ele>2631</ele><speed>47</speed><time>2016-10-08T14:03:05Z</time><course>85</course><type>18</type></trkpt>
      <trkpt lat="41.1748966" lon="-3.5157017"><ele>2633</ele><speed>47</speed><time>2016-10-08T14:03:06Z</time><course>86</course><type>18</type></trkpt>
      <trkpt lat="41.1749233" lon="-3.5155417"><ele>2633</ele><speed>48</speed><time>2016-10-08T14:03:07Z</time><course>82</course><type>18</type></trkpt>
      <trkpt lat="41.1749449" lon="-3.5153734"><ele>2634</ele><speed>49</speed><time>2016-10-08T14:03:08Z</time><course>81</course><type>18</type></trkpt>
      <trkpt lat="41.1749566" lon="-3.5152117"><ele>2635</ele><speed>49</speed><time>2016-10-08T14:03:09Z</time><course>82</course><type>18</type></trkpt>
      <trkpt lat="41.1749516" lon="-3.515085"><ele>2636</ele><speed>46</speed><time>2016-10-08T14:03:10Z</time><course>84</course><type>18</type></trkpt>
      <trkpt lat="41.1750116" lon="-3.514865"><ele>2638</ele><speed>41</speed><time>2016-10-08T14:03:12Z</time><course>77</course><type>18</type></trkpt>
      <trkpt lat="41.175055" lon="-3.5147334"><ele>2639</ele><speed>43</speed><time>2016-10-08T14:03:13Z</time><course>71</course><type>18</type></trkpt>
      <trkpt lat="41.1750716" lon="-3.5145734"><ele>2640</ele><speed>46</speed><time>2016-10-08T14:03:14Z</time><course>73</course><type>18</type></trkpt>
      <trkpt lat="41.1750966" lon="-3.514435"><ele>2641</ele><speed>46</speed><time>2016-10-08T14:03:15Z</time><course>71</course><type>18</type></trkpt>
      <trkpt lat="41.1751249" lon="-3.514295"><ele>2642</ele><speed>47</speed><time>2016-10-08T14:03:16Z</time><course>70</course><type>18</type></trkpt>
      <trkpt lat="41.175145" lon="-3.5141567"><ele>2643</ele><speed>48</speed><time>2016-10-08T14:03:17Z</time><course>68</course><type>18</type></trkpt>
      <trkpt lat="41.175185" lon="-3.5140417"><ele>2644</ele><speed>49</speed><time>2016-10-08T14:03:18Z</time><course>62</course><type>18</type></trkpt>
      <trkpt lat="41.1753049" lon="-3.5139017"><ele>2647</ele><speed>46</speed><time>2016-10-08T14:03:20Z</time><course>52</course><type>18</type></trkpt>
      <trkpt lat="41.175375" lon="-3.5137967"><ele>2648</ele><speed>47</speed><time>2016-10-08T14:03:21Z</time><course>49</course><type>18</type></trkpt>
      <trkpt lat="41.1754533" lon="-3.51371"><ele>2649</ele><speed>47</speed><time>2016-10-08T14:03:22Z</time><course>48</course><type>18</type></trkpt>
      <trkpt lat="41.1755566" lon="-3.51358"><ele>2649</ele><speed>57</speed><time>2016-10-08T14:03:23Z</time><course>46</course><type>18</type></trkpt>
      <trkpt lat="41.1756566" lon="-3.5134517"><ele>2650</ele><speed>55</speed><time>2016-10-08T14:03:24Z</time><course>45</course><type>18</type></trkpt>
      <trkpt lat="41.1757433" lon="-3.513325"><ele>2651</ele><speed>53</speed><time>2016-10-08T14:03:25Z</time><course>47</course><type>18</type></trkpt>
      <trkpt lat="41.17584" lon="-3.5132217"><ele>2652</ele><speed>50</speed><time>2016-10-08T14:03:26Z</time><course>46</course><type>18</type></trkpt>
      <trkpt lat="41.1758899" lon="-3.51313"><ele>2653</ele><speed>43</speed><time>2016-10-08T14:03:27Z</time><course>48</course><type>18</type></trkpt>
      <trkpt lat="41.1759566" lon="-3.5130284"><ele>2655</ele><speed>50</speed><time>2016-10-08T14:03:28Z</time><course>49</course><type>18</type></trkpt>
      <trkpt lat="41.1760383" lon="-3.5129284"><ele>2657</ele><speed>52</speed><time>2016-10-08T14:03:29Z</time><course>48</course><type>18</type></trkpt>
      <trkpt lat="41.176105" lon="-3.51281"><ele>2658</ele><speed>48</speed><time>2016-10-08T14:03:30Z</time><course>48</course><type>18</type></trkpt>
      <trkpt lat="41.1761766" lon="-3.5127117"><ele>2659</ele><speed>43</speed><time>2016-10-08T14:03:31Z</time><course>44</course><type>18</type></trkpt>
      <trkpt lat="41.17627" lon="-3.5126267"><ele>2660</ele><speed>41</speed><time>2016-10-08T14:03:32Z</time><course>40</course><type>18</type></trkpt>
      <trkpt lat="41.1763616" lon="-3.5125417"><ele>2662</ele><speed>42</speed><time>2016-10-08T14:03:33Z</time><course>34</course><type>18</type></trkpt>
      <trkpt lat="41.176455" lon="-3.51245"><ele>2663</ele><speed>46</speed><time>2016-10-08T14:03:34Z</time><course>34</course><type>18</type></trkpt>
      <trkpt lat="41.17655" lon="-3.5123534"><ele>2665</ele><speed>49</speed><time>2016-10-08T14:03:35Z</time><course>34</course><type>18</type></trkpt>
      <trkpt lat="41.1766583" lon="-3.5122634"><ele>2666</ele><speed>50</speed><time>2016-10-08T14:03:36Z</time><course>33</course><type>18</type></trkpt>
      <trkpt lat="41.1767633" lon="-3.5121784"><ele>2667</ele><speed>49</speed><time>2016-10-08T14:03:37Z</time><course>31</course><type>18</type></trkpt>
      <trkpt lat="41.1768883" lon="-3.5121017"><ele>2668</ele><speed>48</speed><time>2016-10-08T14:03:38Z</time><course>28</course><type>18</type></trkpt>
      <trkpt lat="41.177005" lon="-3.51201"><ele>2669</ele><speed>60</speed><time>2016-10-08T14:03:39Z</time><course>32</course><type>18</type></trkpt>
      <trkpt lat="41.1771316" lon="-3.5119167"><ele>2670</ele><speed>57</speed><time>2016-10-08T14:03:40Z</time><course>28</course><type>18</type></trkpt>
      <trkpt lat="41.1772583" lon="-3.5118334"><ele>2670</ele><speed>55</speed><time>2016-10-08T14:03:41Z</time><course>28</course><type>18</type></trkpt>
      <trkpt lat="41.177385" lon="-3.511775"><ele>2671</ele><speed>53</speed><time>2016-10-08T14:03:42Z</time><course>26</course><type>18</type></trkpt>
      <trkpt lat="41.1774633" lon="-3.5117"><ele>2672</ele><speed>49</speed><time>2016-10-08T14:03:43Z</time><course>26</course><type>18</type></trkpt>
      <trkpt lat="41.1775716" lon="-3.5116467"><ele>2672</ele><speed>35</speed><time>2016-10-08T14:03:45Z</time><course>21</course><type>18</type></trkpt>
      <trkpt lat="41.17767" lon="-3.5116017"><ele>2673</ele><speed>39</speed><time>2016-10-08T14:03:46Z</time><course>24</course><type>18</type></trkpt>
      <trkpt lat="41.1777933" lon="-3.51153"><ele>2674</ele><speed>43</speed><time>2016-10-08T14:03:47Z</time><course>28</course><type>18</type></trkpt>
      <trkpt lat="41.1778933" lon="-3.5114734"><ele>2674</ele><speed>44</speed><time>2016-10-08T14:03:48Z</time><course>27</course><type>18</type></trkpt>
      <trkpt lat="41.1780166" lon="-3.5114417"><ele>2675</ele><speed>45</speed><time>2016-10-08T14:03:49Z</time><course>26</course><type>18</type></trkpt>
      <trkpt lat="41.1781216" lon="-3.5113767"><ele>2675</ele><speed>46</speed><time>2016-10-08T14:03:50Z</time><course>26</course><type>18</type></trkpt>
      <trkpt lat="41.178235" lon="-3.5113084"><ele>2676</ele><speed>49</speed><time>2016-10-08T14:03:51Z</time><course>26</course><type>18</type></trkpt>
      <trkpt lat="41.1783716" lon="-3.511245"><ele>2677</ele><speed>52</speed><time>2016-10-08T14:03:52Z</time><course>27</course><type>18</type></trkpt>
      <trkpt lat="41.1784999" lon="-3.511165"><ele>2678</ele><speed>54</speed><time>2016-10-08T14:03:53Z</time><course>28</course><type>18</type></trkpt>
      <trkpt lat="41.178625" lon="-3.5110784"><ele>2678</ele><speed>53</speed><time>2016-10-08T14:03:54Z</time><course>26</course><type>18</type></trkpt>
      <trkpt lat="41.1787533" lon="-3.5110017"><ele>2679</ele><speed>53</speed><time>2016-10-08T14:03:55Z</time><course>24</course><type>18</type></trkpt>
      <trkpt lat="41.1789033" lon="-3.5109117"><ele>2679</ele><speed>63</speed><time>2016-10-08T14:03:56Z</time><course>25</course><type>18</type></trkpt>
      <trkpt lat="41.1790566" lon="-3.5108284"><ele>2680</ele><speed>61</speed><time>2016-10-08T14:03:57Z</time><course>24</course><type>18</type></trkpt>
      <trkpt lat="41.1791816" lon="-3.5107517"><ele>2681</ele><speed>53</speed><time>2016-10-08T14:03:58Z</time><course>24</course><type>18</type></trkpt>
      <trkpt lat="41.1792966" lon="-3.5107084"><ele>2681</ele><speed>43</speed><time>2016-10-08T14:03:59Z</time><course>15</course><type>18</type></trkpt>
      <trkpt lat="41.17942" lon="-3.5106117"><ele>2682</ele><speed>47</speed><time>2016-10-08T14:04:00Z</time><course>23</course><type>18</type></trkpt>
      <trkpt lat="41.1795316" lon="-3.5105284"><ele>2683</ele><speed>49</speed><time>2016-10-08T14:04:01Z</time><course>26</course><type>18</type></trkpt>
      <trkpt lat="41.1796433" lon="-3.5104567"><ele>2683</ele><speed>50</speed><time>2016-10-08T14:04:02Z</time><course>27</course><type>18</type></trkpt>
      <trkpt lat="41.1797516" lon="-3.510365"><ele>2684</ele><speed>53</speed><time>2016-10-08T14:04:03Z</time><course>27</course><type>18</type></trkpt>
      <trkpt lat="41.1798716" lon="-3.5102717"><ele>2685</ele><speed>54</speed><time>2016-10-08T14:04:04Z</time><course>27</course><type>18</type></trkpt>
      <trkpt lat="41.1799883" lon="-3.5101884"><ele>2685</ele><speed>53</speed><time>2016-10-08T14:04:05Z</time><course>25</course><type>18</type></trkpt>
      <trkpt lat="41.1801116" lon="-3.5101267"><ele>2686</ele><speed>50</speed><time>2016-10-08T14:04:06Z</time><course>22</course><type>18</type></trkpt>
      <trkpt lat="41.1802133" lon="-3.5100634"><ele>2687</ele><speed>46</speed><time>2016-10-08T14:04:07Z</time><course>23</course><type>18</type></trkpt>
      <trkpt lat="41.1803333" lon="-3.51"><ele>2688</ele><speed>45</speed><time>2016-10-08T14:04:08Z</time><course>24</course><type>18</type></trkpt>
      <trkpt lat="41.1804483" lon="-3.5099351"><ele>2689</ele><speed>48</speed><time>2016-10-08T14:04:09Z</time><course>26</course><type>18</type></trkpt>
      <trkpt lat="41.1805633" lon="-3.5098634"><ele>2689</ele><speed>50</speed><time>2016-10-08T14:04:10Z</time><course>28</course><type>18</type></trkpt>
      <trkpt lat="41.180675" lon="-3.5097817"><ele>2689</ele><speed>50</speed><time>2016-10-08T14:04:11Z</time><course>28</course><type>18</type></trkpt>
      <trkpt lat="41.1807783" lon="-3.509695"><ele>2690</ele><speed>50</speed><time>2016-10-08T14:04:12Z</time><course>29</course><type>18</type></trkpt>
      <trkpt lat="41.1809" lon="-3.5096117"><ele>2690</ele><speed>59</speed><time>2016-10-08T14:04:13Z</time><course>27</course><type>18</type></trkpt>
      <trkpt lat="41.1810216" lon="-3.5095234"><ele>2691</ele><speed>55</speed><time>2016-10-08T14:04:14Z</time><course>26</course><type>18</type></trkpt>
      <trkpt lat="41.1811433" lon="-3.5094367"><ele>2691</ele><speed>54</speed><time>2016-10-08T14:04:15Z</time><course>27</course><type>18</type></trkpt>
      <trkpt lat="41.1812533" lon="-3.5093567"><ele>2692</ele><speed>53</speed><time>2016-10-08T14:04:16Z</time><course>27</course><type>18</type></trkpt>
      <trkpt lat="41.1813516" lon="-3.5092717"><ele>2693</ele><speed>51</speed><time>2016-10-08T14:04:17Z</time><course>28</course><type>18</type></trkpt>
      <trkpt lat="41.1814883" lon="-3.5091617"><ele>2694</ele><speed>44</speed><time>2016-10-08T14:04:19Z</time><course>32</course><type>18</type></trkpt>
      <trkpt lat="41.181575" lon="-3.5090767"><ele>2694</ele><speed>48</speed><time>2016-10-08T14:04:20Z</time><course>34</course><type>18</type></trkpt>
      <trkpt lat="41.1816683" lon="-3.5089967"><ele>2695</ele><speed>50</speed><time>2016-10-08T14:04:21Z</time><course>33</course><type>18</type></trkpt>
      <trkpt lat="41.1817733" lon="-3.5089084"><ele>2695</ele><speed>50</speed><time>2016-10-08T14:04:22Z</time><course>31</course><type>18</type></trkpt>
      <trkpt lat="41.1818966" lon="-3.5088284"><ele>2695</ele><speed>48</speed><time>2016-10-08T14:04:23Z</time><course>30</course><type>18</type></trkpt>
      <trkpt lat="41.181995" lon="-3.5087434"><ele>2695</ele><speed>48</speed><time>2016-10-08T14:04:24Z</time><course>29</course><type>18</type></trkpt>
      <trkpt lat="41.182095" lon="-3.5086684"><ele>2696</ele><speed>48</speed><time>2016-10-08T14:04:25Z</time><course>27</course><type>18</type></trkpt>
      <trkpt lat="41.1822033" lon="-3.5086034"><ele>2696</ele><speed>48</speed><time>2016-10-08T14:04:26Z</time><course>24</course><type>18</type></trkpt>
      <trkpt lat="41.1823066" lon="-3.5085467"><ele>2696</ele><speed>48</speed><time>2016-10-08T14:04:27Z</time><course>23</course><type>18</type></trkpt>
      <trkpt lat="41.18241" lon="-3.508485"><ele>2697</ele><speed>49</speed><time>2016-10-08T14:04:28Z</time><course>22</course><type>18</type></trkpt>
      <trkpt lat="41.1825133" lon="-3.5084284"><ele>2697</ele><speed>52</speed><time>2016-10-08T14:04:29Z</time><course>21</course><type>18</type></trkpt>
      <trkpt lat="41.1826416" lon="-3.5083701"><ele>2697</ele><speed>54</speed><time>2016-10-08T14:04:30Z</time><course>20</course><type>18</type></trkpt>
      <trkpt lat="41.1827616" lon="-3.5083167"><ele>2697</ele><speed>54</speed><time>2016-10-08T14:04:31Z</time><course>18</course><type>18</type></trkpt>
      <trkpt lat="41.1828816" lon="-3.5082584"><ele>2698</ele><speed>53</speed><time>2016-10-08T14:04:32Z</time><course>19</course><type>18</type></trkpt>
      <trkpt lat="41.18299" lon="-3.5082084"><ele>2698</ele><speed>51</speed><time>2016-10-08T14:04:33Z</time><course>19</course><type>18</type></trkpt>
      <trkpt lat="41.1830699" lon="-3.5081784"><ele>2699</ele><speed>45</speed><time>2016-10-08T14:04:34Z</time><course>17</course><type>18</type></trkpt>
      <trkpt lat="41.18321" lon="-3.5081284"><ele>2699</ele><speed>41</speed><time>2016-10-08T14:04:36Z</time><course>17</course><type>18</type></trkpt>
      <trkpt lat="41.1832816" lon="-3.5080517"><ele>2699</ele><speed>42</speed><time>2016-10-08T14:04:37Z</time><course>24</course><type>18</type></trkpt>
      <trkpt lat="41.18337" lon="-3.5079784"><ele>2699</ele><speed>43</speed><time>2016-10-08T14:04:38Z</time><course>25</course><type>18</type></trkpt>
      <trkpt lat="41.18346" lon="-3.507905"><ele>2699</ele><speed>44</speed><time>2016-10-08T14:04:39Z</time><course>26</course><type>18</type></trkpt>
      <trkpt lat="41.18355" lon="-3.507825"><ele>2699</ele><speed>46</speed><time>2016-10-08T14:04:40Z</time><course>29</course><type>18</type></trkpt>
      <trkpt lat="41.1836416" lon="-3.5077317"><ele>2699</ele><speed>49</speed><time>2016-10-08T14:04:41Z</time><course>31</course><type>18</type></trkpt>
      <trkpt lat="41.1837333" lon="-3.5076467"><ele>2699</ele><speed>49</speed><time>2016-10-08T14:04:42Z</time><course>30</course><type>18</type></trkpt>
      <trkpt lat="41.1838066" lon="-3.507555"><ele>2699</ele><speed>48</speed><time>2016-10-08T14:04:43Z</time><course>31</course><type>18</type></trkpt>
      <trkpt lat="41.1839" lon="-3.5074701"><ele>2699</ele><speed>46</speed><time>2016-10-08T14:04:44Z</time><course>29</course><type>18</type></trkpt>
      <trkpt lat="41.1839866" lon="-3.5073834"><ele>2699</ele><speed>44</speed><time>2016-10-08T14:04:45Z</time><course>31</course><type>18</type></trkpt>
      <trkpt lat="41.184085" lon="-3.507305"><ele>2699</ele><speed>46</speed><time>2016-10-08T14:04:46Z</time><course>30</course><type>18</type></trkpt>
      <trkpt lat="41.1841849" lon="-3.507225"><ele>2698</ele><speed>47</speed><time>2016-10-08T14:04:47Z</time><course>27</course><type>18</type></trkpt>
      <trkpt lat="41.1842783" lon="-3.50714"><ele>2698</ele><speed>49</speed><time>2016-10-08T14:04:48Z</time><course>28</course><type>18</type></trkpt>
      <trkpt lat="41.1843816" lon="-3.5070484"><ele>2698</ele><speed>48</speed><time>2016-10-08T14:04:49Z</time><course>29</course><type>18</type></trkpt>
      <trkpt lat="41.1844783" lon="-3.5069684"><ele>2698</ele><speed>47</speed><time>2016-10-08T14:04:50Z</time><course>30</course><type>18</type></trkpt>
      <trkpt lat="41.1845633" lon="-3.5068817"><ele>2698</ele><speed>45</speed><time>2016-10-08T14:04:51Z</time><course>32</course><type>18</type></trkpt>
      <trkpt lat="41.1846366" lon="-3.5067534"><ele>2697</ele><speed>38</speed><time>2016-10-08T14:04:52Z</time><course>42</course><type>18</type></trkpt>
      <trkpt lat="41.18475" lon="-3.5067017"><ele>2697</ele><speed>39</speed><time>2016-10-08T14:04:53Z</time><course>32</course><type>18</type></trkpt>
      <trkpt lat="41.1848566" lon="-3.5066617"><ele>2696</ele><speed>43</speed><time>2016-10-08T14:04:54Z</time><course>25</course><type>18</type></trkpt>
      <trkpt lat="41.1849533" lon="-3.5066084"><ele>2696</ele><speed>45</speed><time>2016-10-08T14:04:55Z</time><course>23</course><type>18</type></trkpt>
      <trkpt lat="41.185065" lon="-3.5065617"><ele>2695</ele><speed>48</speed><time>2016-10-08T14:04:56Z</time><course>21</course><type>18</type></trkpt>
      <trkpt lat="41.1851716" lon="-3.50652"><ele>2693</ele><speed>48</speed><time>2016-10-08T14:04:57Z</time><course>21</course><type>18</type></trkpt>
      <trkpt lat="41.1852666" lon="-3.506465"><ele>2692</ele><speed>45</speed><time>2016-10-08T14:04:58Z</time><course>23</course><type>18</type></trkpt>
      <trkpt lat="41.1853683" lon="-3.50641"><ele>2691</ele><speed>46</speed><time>2016-10-08T14:04:59Z</time><course>22</course><type>18</type></trkpt>
      <trkpt lat="41.1854766" lon="-3.5063534"><ele>2691</ele><speed>48</speed><time>2016-10-08T14:05:00Z</time><course>21</course><type>18</type></trkpt>
      <trkpt lat="41.18559" lon="-3.5062967"><ele>2690</ele><speed>50</speed><time>2016-10-08T14:05:01Z</time><course>19</course><type>18</type></trkpt>
      <trkpt lat="41.1857133" lon="-3.506245"><ele>2688</ele><speed>52</speed><time>2016-10-08T14:05:02Z</time><course>20</course><type>18</type></trkpt>
      <trkpt lat="41.185835" lon="-3.5061917"><ele>2687</ele><speed>56</speed><time>2016-10-08T14:05:03Z</time><course>19</course><type>18</type></trkpt>
      <trkpt lat="41.1859566" lon="-3.5061084"><ele>2686</ele><speed>62</speed><time>2016-10-08T14:05:04Z</time><course>26</course><type>18</type></trkpt>
      <trkpt lat="41.1860516" lon="-3.5060217"><ele>2685</ele><speed>50</speed><time>2016-10-08T14:05:05Z</time><course>24</course><type>18</type></trkpt>
      <trkpt lat="41.1861549" lon="-3.5059517"><ele>2684</ele><speed>49</speed><time>2016-10-08T14:05:06Z</time><course>25</course><type>18</type></trkpt>
      <trkpt lat="41.1862333" lon="-3.5058967"><ele>2682</ele><speed>46</speed><time>2016-10-08T14:05:07Z</time><course>25</course><type>18</type></trkpt>
      <trkpt lat="41.1863516" lon="-3.50585"><ele>2682</ele><speed>34</speed><time>2016-10-08T14:05:09Z</time><course>15</course><type>18</type></trkpt>
      <trkpt lat="41.1864716" lon="-3.5058217"><ele>2681</ele><speed>42</speed><time>2016-10-08T14:05:10Z</time><course>14</course><type>18</type></trkpt>
      <trkpt lat="41.1865666" lon="-3.5057484"><ele>2681</ele><speed>49</speed><time>2016-10-08T14:05:11Z</time><course>20</course><type>18</type></trkpt>
      <trkpt lat="41.1866816" lon="-3.5056867"><ele>2680</ele><speed>51</speed><time>2016-10-08T14:05:12Z</time><course>21</course><type>18</type></trkpt>
      <trkpt lat="41.1868066" lon="-3.5056134"><ele>2680</ele><speed>55</speed><time>2016-10-08T14:05:13Z</time><course>21</course><type>18</type></trkpt>
      <trkpt lat="41.1869266" lon="-3.5055534"><ele>2680</ele><speed>52</speed><time>2016-10-08T14:05:14Z</time><course>20</course><type>18</type></trkpt>
      <trkpt lat="41.1870433" lon="-3.50551"><ele>2680</ele><speed>51</speed><time>2016-10-08T14:05:15Z</time><course>16</course><type>18</type></trkpt>
      <trkpt lat="41.1871566" lon="-3.50548"><ele>2679</ele><speed>50</speed><time>2016-10-08T14:05:16Z</time><course>15</course><type>18</type></trkpt>
      <trkpt lat="41.1872516" lon="-3.505425"><ele>2679</ele><speed>50</speed><time>2016-10-08T14:05:17Z</time><course>18</course><type>18</type></trkpt>
      <trkpt lat="41.187365" lon="-3.5053717"><ele>2678</ele><speed>51</speed><time>2016-10-08T14:05:18Z</time><course>20</course><type>18</type></trkpt>
      <trkpt lat="41.1874866" lon="-3.5053267"><ele>2677</ele><speed>54</speed><time>2016-10-08T14:05:19Z</time><course>20</course><type>18</type></trkpt>
      <trkpt lat="41.1876183" lon="-3.5052734"><ele>2677</ele><speed>60</speed><time>2016-10-08T14:05:20Z</time><course>22</course><type>18</type></trkpt>
      <trkpt lat="41.1877633" lon="-3.5052"><ele>2676</ele><speed>65</speed><time>2016-10-08T14:05:21Z</time><course>24</course><type>18</type></trkpt>
      <trkpt lat="41.1878983" lon="-3.5051184"><ele>2675</ele><speed>60</speed><time>2016-10-08T14:05:22Z</time><course>23</course><type>18</type></trkpt>
      <trkpt lat="41.1880333" lon="-3.5050484"><ele>2674</ele><speed>59</speed><time>2016-10-08T14:05:23Z</time><course>22</course><type>18</type></trkpt>
      <trkpt lat="41.188145" lon="-3.5050134"><ele>2674</ele><speed>54</speed><time>2016-10-08T14:05:24Z</time><course>19</course><type>18</type></trkpt>
      <trkpt lat="41.1882416" lon="-3.5050117"><ele>2673</ele><speed>48</speed><time>2016-10-08T14:05:25Z</time><course>13</course><type>18</type></trkpt>
      <trkpt lat="41.1883266" lon="-3.5050284"><ele>2673</ele><speed>45</speed><time>2016-10-08T14:05:26Z</time><course>8</course><type>18</type></trkpt>
      <trkpt lat="41.1884466" lon="-3.50498"><ele>2673</ele><speed>47</speed><time>2016-10-08T14:05:27Z</time><course>12</course><type>18</type></trkpt>
      <trkpt lat="41.18855" lon="-3.5049434"><ele>2672</ele><speed>47</speed><time>2016-10-08T14:05:28Z</time><course>14</course><type>18</type></trkpt>
      <trkpt lat="41.1886683" lon="-3.504905"><ele>2671</ele><speed>49</speed><time>2016-10-08T14:05:29Z</time><course>15</course><type>18</type></trkpt>
      <trkpt lat="41.188795" lon="-3.5048617"><ele>2670</ele><speed>52</speed><time>2016-10-08T14:05:30Z</time><course>16</course><type>18</type></trkpt>
      <trkpt lat="41.1889266" lon="-3.50481"><ele>2669</ele><speed>54</speed><time>2016-10-08T14:05:31Z</time><course>17</course><type>18</type></trkpt>
      <trkpt lat="41.1890583" lon="-3.5047484"><ele>2668</ele><speed>57</speed><time>2016-10-08T14:05:32Z</time><course>17</course><type>18</type></trkpt>
      <trkpt lat="41.1891966" lon="-3.5046667"><ele>2668</ele><speed>62</speed><time>2016-10-08T14:05:33Z</time><course>20</course><type>18</type></trkpt>
      <trkpt lat="41.18932" lon="-3.50459"><ele>2666</ele><speed>61</speed><time>2016-10-08T14:05:34Z</time><course>20</course><type>18</type></trkpt>
      <trkpt lat="41.1894516" lon="-3.5045201"><ele>2664</ele><speed>60</speed><time>2016-10-08T14:05:35Z</time><course>21</course><type>18</type></trkpt>
      <trkpt lat="41.1895983" lon="-3.504455"><ele>2661</ele><speed>59</speed><time>2016-10-08T14:05:36Z</time><course>23</course><type>18</type></trkpt>
      <trkpt lat="41.1897466" lon="-3.5043817"><ele>2659</ele><speed>64</speed><time>2016-10-08T14:05:37Z</time><course>23</course><type>18</type></trkpt>
      <trkpt lat="41.18984" lon="-3.5042834"><ele>2657</ele><speed>64</speed><time>2016-10-08T14:05:38Z</time><course>30</course><type>18</type></trkpt>
      <trkpt lat="41.1899366" lon="-3.5042017"><ele>2657</ele><speed>60</speed><time>2016-10-08T14:05:39Z</time><course>27</course><type>18</type></trkpt>
      <trkpt lat="41.1899883" lon="-3.504105"><ele>2655</ele><speed>57</speed><time>2016-10-08T14:05:40Z</time><course>32</course><type>18</type></trkpt>
      <trkpt lat="41.1900116" lon="-3.5040067"><ele>2651</ele><speed>30</speed><time>2016-10-08T14:05:42Z</time><course>34</course><type>18</type></trkpt>
      <trkpt lat="41.1901233" lon="-3.50392"><ele>2650</ele><speed>34</speed><time>2016-10-08T14:05:44Z</time><course>35</course><type>18</type></trkpt>
      <trkpt lat="41.19015" lon="-3.5037617"><ele>2647</ele><speed>36</speed><time>2016-10-08T14:05:46Z</time><course>47</course><type>18</type></trkpt>
      <trkpt lat="41.190175" lon="-3.5036417"><ele>2645</ele><speed>41</speed><time>2016-10-08T14:05:47Z</time><course>55</course><type>18</type></trkpt>
      <trkpt lat="41.1902083" lon="-3.5035317"><ele>2645</ele><speed>37</speed><time>2016-10-08T14:05:48Z</time><course>60</course><type>18</type></trkpt>
      <trkpt lat="41.1901933" lon="-3.5034217"><ele>2644</ele><speed>32</speed><time>2016-10-08T14:05:49Z</time><course>78</course><type>18</type></trkpt>
      <trkpt lat="41.1901816" lon="-3.5033217"><ele>2643</ele><speed>29</speed><time>2016-10-08T14:05:50Z</time><course>80</course><type>18</type></trkpt>
      <trkpt lat="41.1901533" lon="-3.5032184"><ele>2642</ele><speed>30</speed><time>2016-10-08T14:05:51Z</time><course>80</course><type>18</type></trkpt>
      <trkpt lat="41.1901233" lon="-3.5031034"><ele>2640</ele><speed>32</speed><time>2016-10-08T14:05:52Z</time><course>83</course><type>18</type></trkpt>
      <trkpt lat="41.1900183" lon="-3.5029634"><ele>2636</ele><speed>34</speed><time>2016-10-08T14:05:53Z</time><course>95</course><type>18</type></trkpt>
      <trkpt lat="41.189965" lon="-3.5028484"><ele>2635</ele><speed>34</speed><time>2016-10-08T14:05:54Z</time><course>101</course><type>18</type></trkpt>
      <trkpt lat="41.189925" lon="-3.5027417"><ele>2634</ele><speed>33</speed><time>2016-10-08T14:05:55Z</time><course>107</course><type>18</type></trkpt>
      <trkpt lat="41.1898883" lon="-3.50264"><ele>2633</ele><speed>34</speed><time>2016-10-08T14:05:56Z</time><course>110</course><type>18</type></trkpt>
      <trkpt lat="41.18983" lon="-3.502565"><ele>2632</ele><speed>33</speed><time>2016-10-08T14:05:57Z</time><course>113</course><type>18</type></trkpt>
      <trkpt lat="41.18975" lon="-3.50248"><ele>2631</ele><speed>33</speed><time>2016-10-08T14:05:58Z</time><course>119</course><type>18</type></trkpt>
      <trkpt lat="41.1896999" lon="-3.502405"><ele>2630</ele><speed>30</speed><time>2016-10-08T14:05:59Z</time><course>119</course><type>18</type></trkpt>
      <trkpt lat="41.1896" lon="-3.502285"><ele>2628</ele><speed>26</speed><time>2016-10-08T14:06:01Z</time><course>114</course><type>18</type></trkpt>
      <trkpt lat="41.18968" lon="-3.5024134"><ele>2622</ele><speed>8</speed><time>2016-10-08T14:06:05Z</time><course>22</course><type>18</type></trkpt>
      <trkpt lat="41.1897149" lon="-3.50252"><ele>2621</ele><speed>14</speed><time>2016-10-08T14:06:06Z</time><course>335</course><type>18</type></trkpt>
      <trkpt lat="41.1897783" lon="-3.5026317"><ele>2620</ele><speed>16</speed><time>2016-10-08T14:06:08Z</time><course>338</course><type>18</type></trkpt>
      <trkpt lat="41.1898633" lon="-3.5027017"><ele>2618</ele><speed>18</speed><time>2016-10-08T14:06:10Z</time><course>353</course><type>18</type></trkpt>
      <trkpt lat="41.1899766" lon="-3.5027867"><ele>2617</ele><speed>27</speed><time>2016-10-08T14:06:12Z</time><course>333</course><type>18</type></trkpt>
      <trkpt lat="41.1901" lon="-3.5029034"><ele>2616</ele><speed>28</speed><time>2016-10-08T14:06:14Z</time><course>339</course><type>18</type></trkpt>
      <trkpt lat="41.1901933" lon="-3.503025"><ele>2615</ele><speed>27</speed><time>2016-10-08T14:06:16Z</time><course>343</course><type>18</type></trkpt>
      <trkpt lat="41.1903133" lon="-3.5031234"><ele>2614</ele><speed>28</speed><time>2016-10-08T14:06:18Z</time><course>351</course><type>18</type></trkpt>
      <trkpt lat="41.1903483" lon="-3.50293"><ele>2613</ele><speed>39</speed><time>2016-10-08T14:06:21Z</time><course>55</course><type>18</type></trkpt>
      <trkpt lat="41.190415" lon="-3.5028467"><ele>2612</ele><speed>38</speed><time>2016-10-08T14:06:22Z</time><course>57</course><type>18</type></trkpt>
      <trkpt lat="41.19044" lon="-3.5027067"><ele>2612</ele><speed>34</speed><time>2016-10-08T14:06:23Z</time><course>61</course><type>18</type></trkpt>
      <trkpt lat="41.1904566" lon="-3.502585"><ele>2611</ele><speed>32</speed><time>2016-10-08T14:06:24Z</time><course>67</course><type>18</type></trkpt>
      <trkpt lat="41.190445" lon="-3.5024601"><ele>2610</ele><speed>30</speed><time>2016-10-08T14:06:25Z</time><course>76</course><type>18</type></trkpt>
      <trkpt lat="41.1904116" lon="-3.5023334"><ele>2609</ele><speed>29</speed><time>2016-10-08T14:06:26Z</time><course>89</course><type>18</type></trkpt>
      <trkpt lat="41.19031" lon="-3.5021884"><ele>2609</ele><speed>32</speed><time>2016-10-08T14:06:27Z</time><course>115</course><type>18</type></trkpt>
      <trkpt lat="41.1902233" lon="-3.5020634"><ele>2608</ele><speed>33</speed><time>2016-10-08T14:06:28Z</time><course>116</course><type>18</type></trkpt>
      <trkpt lat="41.1901033" lon="-3.501935"><ele>2606</ele><speed>33</speed><time>2016-10-08T14:06:29Z</time><course>122</course><type>18</type></trkpt>
      <trkpt lat="41.1900466" lon="-3.5018301"><ele>2606</ele><speed>33</speed><time>2016-10-08T14:06:30Z</time><course>124</course><type>18</type></trkpt>
      <trkpt lat="41.1900216" lon="-3.5017267"><ele>2606</ele><speed>30</speed><time>2016-10-08T14:06:31Z</time><course>117</course><type>18</type></trkpt>
      <trkpt lat="41.18999" lon="-3.5016067"><ele>2606</ele><speed>32</speed><time>2016-10-08T14:06:32Z</time><course>112</course><type>18</type></trkpt>
      <trkpt lat="41.189955" lon="-3.5014767"><ele>2606</ele><speed>35</speed><time>2016-10-08T14:06:33Z</time><course>111</course><type>18</type></trkpt>
      <trkpt lat="41.1899583" lon="-3.5013684"><ele>2604</ele><speed>22</speed><time>2016-10-08T14:06:35Z</time><course>99</course><type>18</type></trkpt>
      <trkpt lat="41.1898333" lon="-3.5014"><ele>2603</ele><speed>17</speed><time>2016-10-08T14:06:37Z</time><course>150</course><type>18</type></trkpt>
      <trkpt lat="41.1897783" lon="-3.5015934"><ele>2601</ele><speed>10</speed><time>2016-10-08T14:06:39Z</time><course>205</course><type>18</type></trkpt>
      <trkpt lat="41.1897816" lon="-3.501725"><ele>2600</ele><speed>12</speed><time>2016-10-08T14:06:40Z</time><course>255</course><type>18</type></trkpt>
      <trkpt lat="41.1897983" lon="-3.5018867"><ele>2600</ele><speed>21</speed><time>2016-10-08T14:06:41Z</time><course>277</course><type>18</type></trkpt>
      <trkpt lat="41.1897983" lon="-3.50202"><ele>2599</ele><speed>26</speed><time>2016-10-08T14:06:42Z</time><course>281</course><type>18</type></trkpt>
      <trkpt lat="41.189815" lon="-3.50214"><ele>2598</ele><speed>28</speed><time>2016-10-08T14:06:43Z</time><course>289</course><type>18</type></trkpt>
      <trkpt lat="41.1898483" lon="-3.5022834"><ele>2597</ele><speed>35</speed><time>2016-10-08T14:06:44Z</time><course>299</course><type>18</type></trkpt>
      <trkpt lat="41.1898866" lon="-3.50241"><ele>2597</ele><speed>44</speed><time>2016-10-08T14:06:45Z</time><course>300</course><type>18</type></trkpt>
      <trkpt lat="41.18996" lon="-3.5025"><ele>2597</ele><speed>28</speed><time>2016-10-08T14:06:46Z</time><course>317</course><type>18</type></trkpt>
      <trkpt lat="41.1900083" lon="-3.5025817"><ele>2596</ele><speed>24</speed><time>2016-10-08T14:06:47Z</time><course>329</course><type>18</type></trkpt>
      <trkpt lat="41.1900716" lon="-3.5026517"><ele>2595</ele><speed>31</speed><time>2016-10-08T14:06:48Z</time><course>330</course><type>18</type></trkpt>
      <trkpt lat="41.1901433" lon="-3.5027234"><ele>2593</ele><speed>34</speed><time>2016-10-08T14:06:49Z</time><course>328</course><type>18</type></trkpt>
      <trkpt lat="41.1902183" lon="-3.5027984"><ele>2592</ele><speed>38</speed><time>2016-10-08T14:06:50Z</time><course>325</course><type>18</type></trkpt>
      <trkpt lat="41.19029" lon="-3.502895"><ele>2591</ele><speed>40</speed><time>2016-10-08T14:06:51Z</time><course>320</course><type>18</type></trkpt>
      <trkpt lat="41.1903533" lon="-3.5029984"><ele>2589</ele><speed>40</speed><time>2016-10-08T14:06:52Z</time><course>315</course><type>18</type></trkpt>
      <trkpt lat="41.1904133" lon="-3.5031084"><ele>2588</ele><speed>40</speed><time>2016-10-08T14:06:53Z</time><course>317</course><type>18</type></trkpt>
      <trkpt lat="41.1904799" lon="-3.503195"><ele>2586</ele><speed>37</speed><time>2016-10-08T14:06:54Z</time><course>319</course><type>18</type></trkpt>
      <trkpt lat="41.190555" lon="-3.503245"><ele>2585</ele><speed>35</speed><time>2016-10-08T14:06:55Z</time><course>326</course><type>18</type></trkpt>
      <trkpt lat="41.1906333" lon="-3.50328"><ele>2583</ele><speed>34</speed><time>2016-10-08T14:06:56Z</time><course>333</course><type>18</type></trkpt>
      <trkpt lat="41.1907166" lon="-3.503285"><ele>2581</ele><speed>32</speed><time>2016-10-08T14:06:57Z</time><course>342</course><type>18</type></trkpt>
      <trkpt lat="41.19081" lon="-3.5032817"><ele>2580</ele><speed>34</speed><time>2016-10-08T14:06:58Z</time><course>348</course><type>18</type></trkpt>
      <trkpt lat="41.1909033" lon="-3.5032834"><ele>2578</ele><speed>36</speed><time>2016-10-08T14:06:59Z</time><course>353</course><type>18</type></trkpt>
      <trkpt lat="41.190995" lon="-3.5032817"><ele>2577</ele><speed>37</speed><time>2016-10-08T14:07:00Z</time><course>356</course><type>18</type></trkpt>
      <trkpt lat="41.1910933" lon="-3.5032617"><ele>2576</ele><speed>38</speed><time>2016-10-08T14:07:01Z</time><course>1</course><type>18</type></trkpt>
      <trkpt lat="41.191185" lon="-3.5032767"><ele>2575</ele><speed>39</speed><time>2016-10-08T14:07:02Z</time><course>348</course><type>18</type></trkpt>
      <trkpt lat="41.1912783" lon="-3.5032884"><ele>2574</ele><speed>40</speed><time>2016-10-08T14:07:03Z</time><course>346</course><type>18</type></trkpt>
      <trkpt lat="41.1914033" lon="-3.50333"><ele>2573</ele><speed>47</speed><time>2016-10-08T14:07:04Z</time><course>346</course><type>18</type></trkpt>
      <trkpt lat="41.191545" lon="-3.50337"><ele>2572</ele><speed>56</speed><time>2016-10-08T14:07:05Z</time><course>345</course><type>18</type></trkpt>
      <trkpt lat="41.19168" lon="-3.50334"><ele>2571</ele><speed>54</speed><time>2016-10-08T14:07:06Z</time><course>350</course><type>18</type></trkpt>
      <trkpt lat="41.1918133" lon="-3.5032767"><ele>2569</ele><speed>51</speed><time>2016-10-08T14:07:07Z</time><course>358</course><type>18</type></trkpt>
      <trkpt lat="41.1919483" lon="-3.5032"><ele>2567</ele><speed>48</speed><time>2016-10-08T14:07:08Z</time><course>5</course><type>18</type></trkpt>
      <trkpt lat="41.19203" lon="-3.5031034"><ele>2566</ele><speed>44</speed><time>2016-10-08T14:07:09Z</time><course>16</course><type>18</type></trkpt>
      <trkpt lat="41.1920966" lon="-3.5029867"><ele>2565</ele><speed>42</speed><time>2016-10-08T14:07:10Z</time><course>25</course><type>18</type></trkpt>
      <trkpt lat="41.1921733" lon="-3.5029034"><ele>2564</ele><speed>40</speed><time>2016-10-08T14:07:11Z</time><course>27</course><type>18</type></trkpt>
      <trkpt lat="41.1922466" lon="-3.5028217"><ele>2563</ele><speed>40</speed><time>2016-10-08T14:07:12Z</time><course>25</course><type>18</type></trkpt>
      <trkpt lat="41.192315" lon="-3.5027417"><ele>2562</ele><speed>40</speed><time>2016-10-08T14:07:13Z</time><course>25</course><type>18</type></trkpt>
      <trkpt lat="41.1923616" lon="-3.5026717"><ele>2561</ele><speed>36</speed><time>2016-10-08T14:07:14Z</time><course>26</course><type>18</type></trkpt>
      <trkpt lat="41.1924266" lon="-3.5026034"><ele>2560</ele><speed>36</speed><time>2016-10-08T14:07:15Z</time><course>25</course><type>18</type></trkpt>
      <trkpt lat="41.1924966" lon="-3.5025367"><ele>2559</ele><speed>36</speed><time>2016-10-08T14:07:16Z</time><course>22</course><type>18</type></trkpt>
      <trkpt lat="41.1925683" lon="-3.5024784"><ele>2558</ele><speed>36</speed><time>2016-10-08T14:07:17Z</time><course>19</course><type>18</type></trkpt>
      <trkpt lat="41.1926416" lon="-3.5024267"><ele>2557</ele><speed>35</speed><time>2016-10-08T14:07:18Z</time><course>19</course><type>18</type></trkpt>
      <trkpt lat="41.1927283" lon="-3.5023934"><ele>2556</ele><speed>39</speed><time>2016-10-08T14:07:19Z</time><course>6</course><type>18</type></trkpt>
      <trkpt lat="41.1928183" lon="-3.5023534"><ele>2555</ele><speed>38</speed><time>2016-10-08T14:07:20Z</time><course>11</course><type>18</type></trkpt>
      <trkpt lat="41.1929083" lon="-3.5023167"><ele>2553</ele><speed>37</speed><time>2016-10-08T14:07:21Z</time><course>14</course><type>18</type></trkpt>
      <trkpt lat="41.19299" lon="-3.5022734"><ele>2552</ele><speed>36</speed><time>2016-10-08T14:07:22Z</time><course>15</course><type>18</type></trkpt>
      <trkpt lat="41.1930783" lon="-3.5022334"><ele>2551</ele><speed>36</speed><time>2016-10-08T14:07:23Z</time><course>16</course><type>18</type></trkpt>
      <trkpt lat="41.193165" lon="-3.50217"><ele>2550</ele><speed>37</speed><time>2016-10-08T14:07:24Z</time><course>20</course><type>18</type></trkpt>
      <trkpt lat="41.1933149" lon="-3.5021067"><ele>2549</ele><speed>46</speed><time>2016-10-08T14:07:25Z</time><course>17</course><type>18</type></trkpt>
      <trkpt lat="41.1933716" lon="-3.5020134"><ele>2548</ele><speed>40</speed><time>2016-10-08T14:07:26Z</time><course>24</course><type>18</type></trkpt>
      <trkpt lat="41.1933816" lon="-3.501895"><ele>2546</ele><speed>35</speed><time>2016-10-08T14:07:27Z</time><course>34</course><type>18</type></trkpt>
      <trkpt lat="41.1934416" lon="-3.5018084"><ele>2545</ele><speed>35</speed><time>2016-10-08T14:07:28Z</time><course>35</course><type>18</type></trkpt>
      <trkpt lat="41.1935" lon="-3.5017117"><ele>2544</ele><speed>35</speed><time>2016-10-08T14:07:29Z</time><course>33</course><type>18</type></trkpt>
      <trkpt lat="41.19358" lon="-3.5016334"><ele>2543</ele><speed>35</speed><time>2016-10-08T14:07:30Z</time><course>32</course><type>18</type></trkpt>
      <trkpt lat="41.1936566" lon="-3.5015617"><ele>2542</ele><speed>37</speed><time>2016-10-08T14:07:31Z</time><course>27</course><type>18</type></trkpt>
      <trkpt lat="41.19374" lon="-3.5015017"><ele>2542</ele><speed>37</speed><time>2016-10-08T14:07:32Z</time><course>25</course><type>18</type></trkpt>
      <trkpt lat="41.1938166" lon="-3.5014467"><ele>2541</ele><speed>36</speed><time>2016-10-08T14:07:33Z</time><course>25</course><type>18</type></trkpt>
      <trkpt lat="41.1938866" lon="-3.5013984"><ele>2540</ele><speed>32</speed><time>2016-10-08T14:07:34Z</time><course>26</course><type>18</type></trkpt>
      <trkpt lat="41.1939433" lon="-3.5013534"><ele>2540</ele><speed>29</speed><time>2016-10-08T14:07:35Z</time><course>27</course><type>18</type></trkpt>
      <trkpt lat="41.1940066" lon="-3.5013034"><ele>2539</ele><speed>30</speed><time>2016-10-08T14:07:36Z</time><course>29</course><type>18</type></trkpt>
      <trkpt lat="41.1940733" lon="-3.50126"><ele>2538</ele><speed>31</speed><time>2016-10-08T14:07:37Z</time><course>26</course><type>18</type></trkpt>
      <trkpt lat="41.19414" lon="-3.501215"><ele>2537</ele><speed>31</speed><time>2016-10-08T14:07:38Z</time><course>27</course><type>18</type></trkpt>
      <trkpt lat="41.1941983" lon="-3.50117"><ele>2537</ele><speed>29</speed><time>2016-10-08T14:07:39Z</time><course>28</course><type>18</type></trkpt>
      <trkpt lat="41.1942933" lon="-3.5010617"><ele>2535</ele><speed>25</speed><time>2016-10-08T14:07:41Z</time><course>38</course><type>18</type></trkpt>
      <trkpt lat="41.194385" lon="-3.5009617"><ele>2533</ele><speed>25</speed><time>2016-10-08T14:07:43Z</time><course>37</course><type>18</type></trkpt>
      <trkpt lat="41.1944633" lon="-3.5008984"><ele>2533</ele><speed>28</speed><time>2016-10-08T14:07:45Z</time><course>36</course><type>18</type></trkpt>
      <trkpt lat="41.1945083" lon="-3.5008367"><ele>2534</ele><speed>30</speed><time>2016-10-08T14:07:46Z</time><course>42</course><type>18</type></trkpt>
      <trkpt lat="41.1945783" lon="-3.5007617"><ele>2534</ele><speed>32</speed><time>2016-10-08T14:07:47Z</time><course>48</course><type>18</type></trkpt>
      <trkpt lat="41.1946216" lon="-3.5006134"><ele>2533</ele><speed>43</speed><time>2016-10-08T14:07:48Z</time><course>67</course><type>18</type></trkpt>
      <trkpt lat="41.1946583" lon="-3.50047"><ele>2532</ele><speed>44</speed><time>2016-10-08T14:07:49Z</time><course>74</course><type>18</type></trkpt>
      <trkpt lat="41.1946816" lon="-3.500325"><ele>2532</ele><speed>43</speed><time>2016-10-08T14:07:50Z</time><course>78</course><type>18</type></trkpt>
      <trkpt lat="41.1946866" lon="-3.5002"><ele>2532</ele><speed>35</speed><time>2016-10-08T14:07:51Z</time><course>85</course><type>18</type></trkpt>
      <trkpt lat="41.1946466" lon="-3.5000784"><ele>2532</ele><speed>33</speed><time>2016-10-08T14:07:52Z</time><course>104</course><type>18</type></trkpt>
      <trkpt lat="41.1946283" lon="-3.499965"><ele>2532</ele><speed>33</speed><time>2016-10-08T14:07:53Z</time><course>100</course><type>18</type></trkpt>
      <trkpt lat="41.1945933" lon="-3.499875"><ele>2532</ele><speed>28</speed><time>2016-10-08T14:07:54Z</time><course>105</course><type>18</type></trkpt>
      <trkpt lat="41.1945816" lon="-3.4997767"><ele>2531</ele><speed>30</speed><time>2016-10-08T14:07:55Z</time><course>103</course><type>18</type></trkpt>
      <trkpt lat="41.1945616" lon="-3.4996717"><ele>2531</ele><speed>30</speed><time>2016-10-08T14:07:56Z</time><course>100</course><type>18</type></trkpt>
      <trkpt lat="41.194515" lon="-3.4994967"><ele>2530</ele><speed>42</speed><time>2016-10-08T14:07:57Z</time><course>103</course><type>18</type></trkpt>
      <trkpt lat="41.19447" lon="-3.49937"><ele>2529</ele><speed>39</speed><time>2016-10-08T14:07:58Z</time><course>106</course><type>18</type></trkpt>
      <trkpt lat="41.1944283" lon="-3.4992667"><ele>2529</ele><speed>34</speed><time>2016-10-08T14:07:59Z</time><course>108</course><type>18</type></trkpt>
      <trkpt lat="41.1943499" lon="-3.4991384"><ele>2528</ele><speed>27</speed><time>2016-10-08T14:08:01Z</time><course>117</course><type>18</type></trkpt>
      <trkpt lat="41.1942633" lon="-3.4991417"><ele>2527</ele><speed>25</speed><time>2016-10-08T14:08:02Z</time><course>133</course><type>18</type></trkpt>
      <trkpt lat="41.1941716" lon="-3.499175"><ele>2526</ele><speed>15</speed><time>2016-10-08T14:08:04Z</time><course>139</course><type>18</type></trkpt>
      <trkpt lat="41.194175" lon="-3.4993667"><ele>2525</ele><speed>7</speed><time>2016-10-08T14:08:07Z</time><course>324</course><type>18</type></trkpt>
      <trkpt lat="41.1942666" lon="-3.49944"><ele>2525</ele><speed>13</speed><time>2016-10-08T14:08:09Z</time><course>355</course><type>18</type></trkpt>
      <trkpt lat="41.194365" lon="-3.49944"><ele>2524</ele><speed>12</speed><time>2016-10-08T14:08:12Z</time><course>11</course><type>18</type></trkpt>
      <trkpt lat="41.1944433" lon="-3.49946"><ele>2523</ele><speed>14</speed><time>2016-10-08T14:08:14Z</time><course>4</course><type>18</type></trkpt>
      <trkpt lat="41.1946" lon="-3.4995084"><ele>2522</ele><speed>28</speed><time>2016-10-08T14:08:16Z</time><course>2</course><type>18</type></trkpt>
      <trkpt lat="41.19467" lon="-3.4994684"><ele>2524</ele><speed>34</speed><time>2016-10-08T14:08:18Z</time><course>42</course><type>18</type></trkpt>
      <trkpt lat="41.1947383" lon="-3.4992634"><ele>2524</ele><speed>32</speed><time>2016-10-08T14:08:20Z</time><course>56</course><type>18</type></trkpt>
      <trkpt lat="41.19476" lon="-3.4991434"><ele>2524</ele><speed>31</speed><time>2016-10-08T14:08:21Z</time><course>65</course><type>18</type></trkpt>
      <trkpt lat="41.1947183" lon="-3.4989567"><ele>2524</ele><speed>35</speed><time>2016-10-08T14:08:22Z</time><course>92</course><type>18</type></trkpt>
      <trkpt lat="41.1946583" lon="-3.4988184"><ele>2525</ele><speed>40</speed><time>2016-10-08T14:08:23Z</time><course>118</course><type>18</type></trkpt>
      <trkpt lat="41.19459" lon="-3.4987484"><ele>2525</ele><speed>42</speed><time>2016-10-08T14:08:24Z</time><course>137</course><type>18</type></trkpt>
      <trkpt lat="41.1945133" lon="-3.498675"><ele>2525</ele><speed>42</speed><time>2016-10-08T14:08:25Z</time><course>141</course><type>18</type></trkpt>
      <trkpt lat="41.1944283" lon="-3.4985967"><ele>2525</ele><speed>42</speed><time>2016-10-08T14:08:26Z</time><course>145</course><type>18</type></trkpt>
      <trkpt lat="41.19434" lon="-3.498505"><ele>2525</ele><speed>46</speed><time>2016-10-08T14:08:27Z</time><course>143</course><type>18</type></trkpt>
      <trkpt lat="41.194255" lon="-3.49845"><ele>2525</ele><speed>44</speed><time>2016-10-08T14:08:28Z</time><course>145</course><type>18</type></trkpt>
      <trkpt lat="41.194175" lon="-3.4983884"><ele>2525</ele><speed>41</speed><time>2016-10-08T14:08:29Z</time><course>147</course><type>18</type></trkpt>
      <trkpt lat="41.1941" lon="-3.4983434"><ele>2525</ele><speed>39</speed><time>2016-10-08T14:08:30Z</time><course>148</course><type>18</type></trkpt>
      <trkpt lat="41.193985" lon="-3.498195"><ele>2525</ele><speed>41</speed><time>2016-10-08T14:08:31Z</time><course>149</course><type>18</type></trkpt>
      <trkpt lat="41.1938133" lon="-3.4979984"><ele>2527</ele><speed>46</speed><time>2016-10-08T14:08:32Z</time><course>156</course><type>18</type></trkpt>
      <trkpt lat="41.1937" lon="-3.4979267"><ele>2528</ele><speed>42</speed><time>2016-10-08T14:08:33Z</time><course>159</course><type>18</type></trkpt>
      <trkpt lat="41.193605" lon="-3.4979"><ele>2528</ele><speed>38</speed><time>2016-10-08T14:08:34Z</time><course>159</course><type>18</type></trkpt>
      <trkpt lat="41.19352" lon="-3.4979134"><ele>2528</ele><speed>33</speed><time>2016-10-08T14:08:35Z</time><course>165</course><type>18</type></trkpt>
      <trkpt lat="41.1934166" lon="-3.4978984"><ele>2528</ele><speed>25</speed><time>2016-10-08T14:08:37Z</time><course>157</course><type>18</type></trkpt>
      <trkpt lat="41.1935983" lon="-3.4979017"><ele>2528</ele><speed>8</speed><time>2016-10-08T14:08:39Z</time><course>106</course><type>18</type></trkpt>
      <trkpt lat="41.1937283" lon="-3.4978984"><ele>2529</ele><speed>11</speed><time>2016-10-08T14:08:40Z</time><course>70</course><type>18</type></trkpt>
      <trkpt lat="41.1939233" lon="-3.497785"><ele>2531</ele><speed>29</speed><time>2016-10-08T14:08:42Z</time><course>50</course><type>18</type></trkpt>
      <trkpt lat="41.1939916" lon="-3.4977084"><ele>2531</ele><speed>32</speed><time>2016-10-08T14:08:43Z</time><course>51</course><type>18</type></trkpt>
      <trkpt lat="41.19406" lon="-3.4976434"><ele>2532</ele><speed>38</speed><time>2016-10-08T14:08:44Z</time><course>48</course><type>18</type></trkpt>
      <trkpt lat="41.1941633" lon="-3.4975917"><ele>2532</ele><speed>32</speed><time>2016-10-08T14:08:45Z</time><course>47</course><type>18</type></trkpt>
      <trkpt lat="41.194235" lon="-3.4975134"><ele>2532</ele><speed>33</speed><time>2016-10-08T14:08:46Z</time><course>49</course><type>18</type></trkpt>
      <trkpt lat="41.1943116" lon="-3.4974317"><ele>2532</ele><speed>33</speed><time>2016-10-08T14:08:47Z</time><course>49</course><type>18</type></trkpt>
      <trkpt lat="41.1944133" lon="-3.4973284"><ele>2532</ele><speed>34</speed><time>2016-10-08T14:08:48Z</time><course>50</course><type>18</type></trkpt>
      <trkpt lat="41.1944966" lon="-3.4971217"><ele>2533</ele><speed>36</speed><time>2016-10-08T14:08:49Z</time><course>59</course><type>18</type></trkpt>
      <trkpt lat="41.1947633" lon="-3.49695"><ele>2534</ele><speed>43</speed><time>2016-10-08T14:08:50Z</time><course>59</course><type>18</type></trkpt>
      <trkpt lat="41.1949033" lon="-3.4967784"><ele>2535</ele><speed>45</speed><time>2016-10-08T14:08:51Z</time><course>59</course><type>18</type></trkpt>
      <trkpt lat="41.1949683" lon="-3.496575"><ele>2536</ele><speed>45</speed><time>2016-10-08T14:08:52Z</time><course>62</course><type>18</type></trkpt>
      <trkpt lat="41.194945" lon="-3.4963934"><ele>2536</ele><speed>40</speed><time>2016-10-08T14:08:53Z</time><course>64</course><type>18</type></trkpt>
      <trkpt lat="41.1948783" lon="-3.49632"><ele>2536</ele><speed>34</speed><time>2016-10-08T14:08:54Z</time><course>72</course><type>18</type></trkpt>
      <trkpt lat="41.19481" lon="-3.4962634"><ele>2536</ele><speed>30</speed><time>2016-10-08T14:08:55Z</time><course>84</course><type>18</type></trkpt>
      <trkpt lat="41.1947466" lon="-3.4961967"><ele>2536</ele><speed>29</speed><time>2016-10-08T14:08:56Z</time><course>93</course><type>18</type></trkpt>
      <trkpt lat="41.1946516" lon="-3.496135"><ele>2537</ele><speed>29</speed><time>2016-10-08T14:08:57Z</time><course>108</course><type>18</type></trkpt>
      <trkpt lat="41.1945666" lon="-3.496065"><ele>2537</ele><speed>30</speed><time>2016-10-08T14:08:58Z</time><course>116</course><type>18</type></trkpt>
      <trkpt lat="41.1944849" lon="-3.496025"><ele>2537</ele><speed>29</speed><time>2016-10-08T14:08:59Z</time><course>123</course><type>18</type></trkpt>
      <trkpt lat="41.1942833" lon="-3.4960617"><ele>2537</ele><speed>27</speed><time>2016-10-08T14:09:01Z</time><course>145</course><type>18</type></trkpt>
      <trkpt lat="41.19415" lon="-3.4961784"><ele>2537</ele><speed>22</speed><time>2016-10-08T14:09:03Z</time><course>173</course><type>18</type></trkpt>
      <trkpt lat="41.1940616" lon="-3.4963234"><ele>2537</ele><speed>24</speed><time>2016-10-08T14:09:04Z</time><course>189</course><type>18</type></trkpt>
      <trkpt lat="41.19377" lon="-3.4963934"><ele>2542</ele><speed>19</speed><time>2016-10-08T14:09:08Z</time><course>163</course><type>18</type></trkpt>
      <trkpt lat="41.193655" lon="-3.49642"><ele>2543</ele><speed>23</speed><time>2016-10-08T14:09:09Z</time><course>167</course><type>18</type></trkpt>
      <trkpt lat="41.193655" lon="-3.4962084"><ele>2546</ele><speed>28</speed><time>2016-10-08T14:09:12Z</time><course>129</course><type>18</type></trkpt>
      <trkpt lat="41.1936333" lon="-3.49604"><ele>2547</ele><speed>37</speed><time>2016-10-08T14:09:13Z</time><course>116</course><type>18</type></trkpt>
      <trkpt lat="41.19358" lon="-3.4959201"><ele>2548</ele><speed>36</speed><time>2016-10-08T14:09:14Z</time><course>123</course><type>18</type></trkpt>
      <trkpt lat="41.1935216" lon="-3.495805"><ele>2548</ele><speed>36</speed><time>2016-10-08T14:09:15Z</time><course>128</course><type>18</type></trkpt>
      <trkpt lat="41.19347" lon="-3.4957334"><ele>2549</ele><speed>28</speed><time>2016-10-08T14:09:16Z</time><course>141</course><type>18</type></trkpt>
      <trkpt lat="41.1934033" lon="-3.4956734"><ele>2549</ele><speed>31</speed><time>2016-10-08T14:09:17Z</time><course>150</course><type>18</type></trkpt>
      <trkpt lat="41.1933483" lon="-3.49561"><ele>2550</ele><speed>32</speed><time>2016-10-08T14:09:18Z</time><course>149</course><type>18</type></trkpt>
      <trkpt lat="41.193245" lon="-3.4955784"><ele>2551</ele><speed>26</speed><time>2016-10-08T14:09:20Z</time><course>164</course><type>18</type></trkpt>
      <trkpt lat="41.1931016" lon="-3.4956117"><ele>2553</ele><speed>27</speed><time>2016-10-08T14:09:22Z</time><course>194</course><type>18</type></trkpt>
      <trkpt lat="41.193025" lon="-3.4956384"><ele>2556</ele><speed>22</speed><time>2016-10-08T14:09:24Z</time><course>224</course><type>18</type></trkpt>
      <trkpt lat="41.1930666" lon="-3.49552"><ele>2560</ele><speed>24</speed><time>2016-10-08T14:09:30Z</time><course>71</course><type>18</type></trkpt>
      <trkpt lat="41.19308" lon="-3.4953334"><ele>2562</ele><speed>35</speed><time>2016-10-08T14:09:32Z</time><course>71</course><type>18</type></trkpt>
      <trkpt lat="41.1930899" lon="-3.4952167"><ele>2563</ele><speed>38</speed><time>2016-10-08T14:09:33Z</time><course>73</course><type>18</type></trkpt>
      <trkpt lat="41.1931116" lon="-3.4950967"><ele>2563</ele><speed>41</speed><time>2016-10-08T14:09:34Z</time><course>70</course><type>18</type></trkpt>
      <trkpt lat="41.1931116" lon="-3.4949634"><ele>2564</ele><speed>40</speed><time>2016-10-08T14:09:35Z</time><course>74</course><type>18</type></trkpt>
      <trkpt lat="41.19314" lon="-3.4948284"><ele>2564</ele><speed>40</speed><time>2016-10-08T14:09:36Z</time><course>77</course><type>18</type></trkpt>
      <trkpt lat="41.1931799" lon="-3.4946967"><ele>2565</ele><speed>40</speed><time>2016-10-08T14:09:37Z</time><course>76</course><type>18</type></trkpt>
      <trkpt lat="41.1932266" lon="-3.4945634"><ele>2565</ele><speed>40</speed><time>2016-10-08T14:09:38Z</time><course>75</course><type>18</type></trkpt>
      <trkpt lat="41.1932566" lon="-3.4944284"><ele>2565</ele><speed>40</speed><time>2016-10-08T14:09:39Z</time><course>75</course><type>18</type></trkpt>
      <trkpt lat="41.193295" lon="-3.4942917"><ele>2565</ele><speed>41</speed><time>2016-10-08T14:09:40Z</time><course>74</course><type>18</type></trkpt>
      <trkpt lat="41.19332" lon="-3.4941367"><ele>2565</ele><speed>42</speed><time>2016-10-08T14:09:41Z</time><course>75</course><type>18</type></trkpt>
      <trkpt lat="41.19335" lon="-3.4939917"><ele>2565</ele><speed>42</speed><time>2016-10-08T14:09:42Z</time><course>77</course><type>18</type></trkpt>
      <trkpt lat="41.19338" lon="-3.4938484"><ele>2566</ele><speed>41</speed><time>2016-10-08T14:09:43Z</time><course>78</course><type>18</type></trkpt>
      <trkpt lat="41.19339" lon="-3.4937084"><ele>2566</ele><speed>40</speed><time>2016-10-08T14:09:44Z</time><course>80</course><type>18</type></trkpt>
      <trkpt lat="41.1933916" lon="-3.4935717"><ele>2566</ele><speed>39</speed><time>2016-10-08T14:09:45Z</time><course>83</course><type>18</type></trkpt>
      <trkpt lat="41.1932766" lon="-3.4935134"><ele>2566</ele><speed>29</speed><time>2016-10-08T14:09:47Z</time><course>98</course><type>18</type></trkpt>
      <trkpt lat="41.193065" lon="-3.4937017"><ele>2566</ele><speed>22</speed><time>2016-10-08T14:09:48Z</time><course>123</course><type>18</type></trkpt>
      <trkpt lat="41.1929033" lon="-3.4938184"><ele>2566</ele><speed>20</speed><time>2016-10-08T14:09:49Z</time><course>144</course><type>18</type></trkpt>
      <trkpt lat="41.192755" lon="-3.4938884"><ele>2566</ele><speed>21</speed><time>2016-10-08T14:09:50Z</time><course>160</course><type>18</type></trkpt>
      <trkpt lat="41.1925833" lon="-3.4938784"><ele>2566</ele><speed>22</speed><time>2016-10-08T14:09:52Z</time><course>166</course><type>18</type></trkpt>
      <trkpt lat="41.192465" lon="-3.4939167"><ele>2567</ele><speed>18</speed><time>2016-10-08T14:09:54Z</time><course>179</course><type>18</type></trkpt>
      <trkpt lat="41.1922833" lon="-3.49397"><ele>2567</ele><speed>21</speed><time>2016-10-08T14:09:56Z</time><course>182</course><type>18</type></trkpt>
      <trkpt lat="41.1923116" lon="-3.4941284"><ele>2568</ele><speed>19</speed><time>2016-10-08T14:09:57Z</time><course>175</course><type>18</type></trkpt>
      <trkpt lat="41.1920099" lon="-3.4945484"><ele>2570</ele><speed>19</speed><time>2016-10-08T14:09:58Z</time><course>178</course><type>18</type></trkpt>
      <trkpt lat="41.1918933" lon="-3.4947384"><ele>2571</ele><speed>17</speed><time>2016-10-08T14:09:59Z</time><course>156</course><type>18</type></trkpt>
      <trkpt lat="41.1919933" lon="-3.494675"><ele>2573</ele><speed>15</speed><time>2016-10-08T14:10:02Z</time><course>100</course><type>18</type></trkpt>
      <trkpt lat="41.1920166" lon="-3.4945334"><ele>2574</ele><speed>24</speed><time>2016-10-08T14:10:03Z</time><course>92</course><type>18</type></trkpt>
      <trkpt lat="41.191985" lon="-3.494365"><ele>2575</ele><speed>27</speed><time>2016-10-08T14:10:05Z</time><course>104</course><type>18</type></trkpt>
      <trkpt lat="41.1919033" lon="-3.494205"><ele>2576</ele><speed>26</speed><time>2016-10-08T14:10:07Z</time><course>126</course><type>18</type></trkpt>
      <trkpt lat="41.1918266" lon="-3.4940717"><ele>2576</ele><speed>28</speed><time>2016-10-08T14:10:09Z</time><course>131</course><type>18</type></trkpt>
      <trkpt lat="41.1921333" lon="-3.4937017"><ele>2580</ele><speed>37</speed><time>2016-10-08T14:10:10Z</time><course>122</course><type>18</type></trkpt>
      <trkpt lat="41.19233" lon="-3.493515"><ele>2581</ele><speed>39</speed><time>2016-10-08T14:10:11Z</time><course>120</course><type>18</type></trkpt>
      <trkpt lat="41.1922283" lon="-3.4933"><ele>2581</ele><speed>38</speed><time>2016-10-08T14:10:13Z</time><course>121</course><type>18</type></trkpt>
      <trkpt lat="41.1921366" lon="-3.493175"><ele>2581</ele><speed>38</speed><time>2016-10-08T14:10:14Z</time><course>122</course><type>18</type></trkpt>
      <trkpt lat="41.19197" lon="-3.4930717"><ele>2581</ele><speed>38</speed><time>2016-10-08T14:10:15Z</time><course>142</course><type>18</type></trkpt>
      <trkpt lat="41.1918333" lon="-3.4928984"><ele>2581</ele><speed>39</speed><time>2016-10-08T14:10:16Z</time><course>142</course><type>18</type></trkpt>
      <trkpt lat="41.1916916" lon="-3.49281"><ele>2582</ele><speed>34</speed><time>2016-10-08T14:10:18Z</time><course>149</course><type>18</type></trkpt>
      <trkpt lat="41.1916183" lon="-3.4929234"><ele>2582</ele><speed>13</speed><time>2016-10-08T14:10:21Z</time><course>156</course><type>18</type></trkpt>
      <trkpt lat="41.19178" lon="-3.49295"><ele>2583</ele><speed>0</speed><time>2016-10-08T14:10:23Z</time><course>156</course><type>18</type></trkpt>
      <trkpt lat="41.1918883" lon="-3.49293"><ele>2583</ele><speed>0</speed><time>2016-10-08T14:10:24Z</time><course>22</course><type>18</type></trkpt>
      <trkpt lat="41.19202" lon="-3.4928817"><ele>2584</ele><speed>19</speed><time>2016-10-08T14:10:26Z</time><course>20</course><type>18</type></trkpt>
      <trkpt lat="41.19214" lon="-3.4928434"><ele>2584</ele><speed>20</speed><time>2016-10-08T14:10:28Z</time><course>18</course><type>18</type></trkpt>
      <trkpt lat="41.1922866" lon="-3.492825"><ele>2584</ele><speed>20</speed><time>2016-10-08T14:10:31Z</time><course>12</course><type>18</type></trkpt>
      <trkpt lat="41.1924583" lon="-3.4927667"><ele>2585</ele><speed>25</speed><time>2016-10-08T14:10:33Z</time><course>18</course><type>18</type></trkpt>
      <trkpt lat="41.19272" lon="-3.49276"><ele>2586</ele><speed>26</speed><time>2016-10-08T14:10:34Z</time><course>25</course><type>18</type></trkpt>
      <trkpt lat="41.1928083" lon="-3.4925367"><ele>2586</ele><speed>30</speed><time>2016-10-08T14:10:37Z</time><course>41</course><type>18</type></trkpt>
      <trkpt lat="41.1928266" lon="-3.4923384"><ele>2586</ele><speed>29</speed><time>2016-10-08T14:10:39Z</time><course>54</course><type>18</type></trkpt>
      <trkpt lat="41.1928233" lon="-3.4920934"><ele>2586</ele><speed>32</speed><time>2016-10-08T14:10:41Z</time><course>66</course><type>18</type></trkpt>
      <trkpt lat="41.1945733" lon="-3.4926284"><ele>2590</ele><speed>37</speed><time>2016-10-08T14:10:43Z</time><course>38</course><type>18</type></trkpt>
      <trkpt lat="41.1947233" lon="-3.4926634"><ele>2590</ele><speed>38</speed><time>2016-10-08T14:10:44Z</time><course>69</course><type>18</type></trkpt>
      <trkpt lat="41.1948066" lon="-3.492485"><ele>2591</ele><speed>58</speed><time>2016-10-08T14:10:45Z</time><course>79</course><type>18</type></trkpt>
      <trkpt lat="41.1948383" lon="-3.4920067"><ele>2591</ele><speed>60</speed><time>2016-10-08T14:10:46Z</time><course>82</course><type>18</type></trkpt>
      <trkpt lat="41.1948566" lon="-3.49184"><ele>2592</ele><speed>60</speed><time>2016-10-08T14:10:47Z</time><course>84</course><type>18</type></trkpt>
      <trkpt lat="41.1948883" lon="-3.4916284"><ele>2592</ele><speed>59</speed><time>2016-10-08T14:10:48Z</time><course>84</course><type>18</type></trkpt>
      <trkpt lat="41.1949216" lon="-3.4914384"><ele>2592</ele><speed>57</speed><time>2016-10-08T14:10:49Z</time><course>84</course><type>18</type></trkpt>
      <trkpt lat="41.1947099" lon="-3.4914784"><ele>2593</ele><speed>42</speed><time>2016-10-08T14:10:51Z</time><course>100</course><type>18</type></trkpt>
      <trkpt lat="41.1944733" lon="-3.4915867"><ele>2593</ele><speed>37</speed><time>2016-10-08T14:10:52Z</time><course>117</course><type>18</type></trkpt>
      <trkpt lat="41.1943216" lon="-3.49152"><ele>2594</ele><speed>36</speed><time>2016-10-08T14:10:53Z</time><course>129</course><type>18</type></trkpt>
      <trkpt lat="41.1942683" lon="-3.49142"><ele>2594</ele><speed>35</speed><time>2016-10-08T14:10:54Z</time><course>137</course><type>18</type></trkpt>
      <trkpt lat="41.1941249" lon="-3.491255"><ele>2595</ele><speed>32</speed><time>2016-10-08T14:10:56Z</time><course>141</course><type>18</type></trkpt>
      <trkpt lat="41.1938233" lon="-3.490675"><ele>2597</ele><speed>42</speed><time>2016-10-08T14:10:58Z</time><course>129</course><type>18</type></trkpt>
      <trkpt lat="41.193875" lon="-3.4907734"><ele>2601</ele><speed>20</speed><time>2016-10-08T14:11:01Z</time><course>258</course><type>18</type></trkpt>
      <trkpt lat="41.1938266" lon="-3.4908784"><ele>2602</ele><speed>13</speed><time>2016-10-08T14:11:02Z</time><course>236</course><type>18</type></trkpt>
      <trkpt lat="41.19376" lon="-3.4909934"><ele>2605</ele><speed>13</speed><time>2016-10-08T14:11:03Z</time><course>233</course><type>18</type></trkpt>
      <trkpt lat="41.1937266" lon="-3.4910784"><ele>2607</ele><speed>10</speed><time>2016-10-08T14:11:04Z</time><course>235</course><type>18</type></trkpt>
      <trkpt lat="41.1939133" lon="-3.4910884"><ele>2611</ele><speed>21</speed><time>2016-10-08T14:11:06Z</time><course>7</course><type>18</type></trkpt>
      <trkpt lat="41.1940166" lon="-3.4910534"><ele>2613</ele><speed>25</speed><time>2016-10-08T14:11:07Z</time><course>13</course><type>18</type></trkpt>
      <trkpt lat="41.193965" lon="-3.4911517"><ele>2620</ele><speed>17</speed><time>2016-10-08T14:11:08Z</time><course>15</course><type>18</type></trkpt>
      <trkpt lat="41.1940483" lon="-3.4910984"><ele>2629</ele><speed>43</speed><time>2016-10-08T14:11:10Z</time><course>51</course><type>18</type></trkpt>
      <trkpt lat="41.1940933" lon="-3.4910134"><ele>2634</ele><speed>43</speed><time>2016-10-08T14:11:11Z</time><course>53</course><type>18</type></trkpt>
      <trkpt lat="41.1941466" lon="-3.4909267"><ele>2638</ele><speed>42</speed><time>2016-10-08T14:11:12Z</time><course>50</course><type>18</type></trkpt>
      <trkpt lat="41.19421" lon="-3.4908434"><ele>2644</ele><speed>44</speed><time>2016-10-08T14:11:13Z</time><course>50</course><type>18</type></trkpt>
      <trkpt lat="41.1942883" lon="-3.4907584"><ele>2650</ele><speed>47</speed><time>2016-10-08T14:11:14Z</time><course>48</course><type>18</type></trkpt>
      <trkpt lat="41.194375" lon="-3.4906467"><ele>2654</ele><speed>49</speed><time>2016-10-08T14:11:15Z</time><course>49</course><type>18</type></trkpt>
      <trkpt lat="41.1944066" lon="-3.4904884"><ele>2657</ele><speed>56</speed><time>2016-10-08T14:11:16Z</time><course>65</course><type>18</type></trkpt>
      <trkpt lat="41.1944516" lon="-3.49035"><ele>2663</ele><speed>38</speed><time>2016-10-08T14:11:17Z</time><course>71</course><type>18</type></trkpt>
      <trkpt lat="41.1944966" lon="-3.4902517"><ele>2668</ele><speed>23</speed><time>2016-10-08T14:11:18Z</time><course>77</course><type>18</type></trkpt>
      <trkpt lat="41.1945233" lon="-3.49014"><ele>2670</ele><speed>32</speed><time>2016-10-08T14:11:19Z</time><course>78</course><type>18</type></trkpt>
      <trkpt lat="41.1945583" lon="-3.4900334"><ele>2673</ele><speed>34</speed><time>2016-10-08T14:11:20Z</time><course>79</course><type>18</type></trkpt>
      <trkpt lat="41.1945833" lon="-3.4899084"><ele>2675</ele><speed>38</speed><time>2016-10-08T14:11:21Z</time><course>83</course><type>18</type></trkpt>
      <trkpt lat="41.1946533" lon="-3.4897867"><ele>2682</ele><speed>41</speed><time>2016-10-08T14:11:22Z</time><course>86</course><type>18</type></trkpt>
      <trkpt lat="41.194745" lon="-3.4896617"><ele>2690</ele><speed>43</speed><time>2016-10-08T14:11:23Z</time><course>85</course><type>18</type></trkpt>
      <trkpt lat="41.1947783" lon="-3.489505"><ele>2695</ele><speed>44</speed><time>2016-10-08T14:11:24Z</time><course>88</course><type>18</type></trkpt>
      <trkpt lat="41.19478" lon="-3.4893684"><ele>2697</ele><speed>43</speed><time>2016-10-08T14:11:25Z</time><course>93</course><type>18</type></trkpt>
      <trkpt lat="41.1947616" lon="-3.4892551"><ele>2698</ele><speed>36</speed><time>2016-10-08T14:11:26Z</time><course>103</course><type>18</type></trkpt>
      <trkpt lat="41.1947583" lon="-3.4891167"><ele>2702</ele><speed>37</speed><time>2016-10-08T14:11:27Z</time><course>105</course><type>18</type></trkpt>
      <trkpt lat="41.1947283" lon="-3.489025"><ele>2703</ele><speed>37</speed><time>2016-10-08T14:11:28Z</time><course>107</course><type>18</type></trkpt>
      <trkpt lat="41.19464" lon="-3.488955"><ele>2705</ele><speed>36</speed><time>2016-10-08T14:11:29Z</time><course>127</course><type>18</type></trkpt>
      <trkpt lat="41.1945816" lon="-3.4888984"><ele>2707</ele><speed>33</speed><time>2016-10-08T14:11:30Z</time><course>133</course><type>18</type></trkpt>
      <trkpt lat="41.1944816" lon="-3.48898"><ele>2710</ele><speed>24</speed><time>2016-10-08T14:11:32Z</time><course>169</course><type>18</type></trkpt>
      <trkpt lat="41.1944716" lon="-3.48916"><ele>2711</ele><speed>16</speed><time>2016-10-08T14:11:34Z</time><course>205</course><type>18</type></trkpt>
      <trkpt lat="41.1944783" lon="-3.4892734"><ele>2712</ele><speed>17</speed><time>2016-10-08T14:11:35Z</time><course>230</course><type>18</type></trkpt>
      <trkpt lat="41.1945033" lon="-3.48942"><ele>2714</ele><speed>8</speed><time>2016-10-08T14:11:37Z</time><course>237</course><type>18</type></trkpt>
      <trkpt lat="41.1945716" lon="-3.4894684"><ele>2716</ele><speed>6</speed><time>2016-10-08T14:11:39Z</time><course>306</course><type>18</type></trkpt>
      <trkpt lat="41.19472" lon="-3.4894917"><ele>2717</ele><speed>16</speed><time>2016-10-08T14:11:41Z</time><course>347</course><type>18</type></trkpt>
      <trkpt lat="41.194805" lon="-3.48949"><ele>2718</ele><speed>21</speed><time>2016-10-08T14:11:42Z</time><course>354</course><type>18</type></trkpt>
      <trkpt lat="41.1949216" lon="-3.489475"><ele>2719</ele><speed>29</speed><time>2016-10-08T14:11:43Z</time><course>2</course><type>18</type></trkpt>
      <trkpt lat="41.1950249" lon="-3.4894517"><ele>2719</ele><speed>31</speed><time>2016-10-08T14:11:44Z</time><course>8</course><type>18</type></trkpt>
      <trkpt lat="41.1951333" lon="-3.4894134"><ele>2720</ele><speed>32</speed><time>2016-10-08T14:11:45Z</time><course>15</course><type>18</type></trkpt>
      <trkpt lat="41.195245" lon="-3.48935"><ele>2720</ele><speed>37</speed><time>2016-10-08T14:11:46Z</time><course>21</course><type>18</type></trkpt>
      <trkpt lat="41.1953633" lon="-3.489285"><ele>2720</ele><speed>40</speed><time>2016-10-08T14:11:47Z</time><course>23</course><type>18</type></trkpt>
      <trkpt lat="41.19547" lon="-3.4892267"><ele>2721</ele><speed>40</speed><time>2016-10-08T14:11:48Z</time><course>23</course><type>18</type></trkpt>
      <trkpt lat="41.195575" lon="-3.4891651"><ele>2722</ele><speed>42</speed><time>2016-10-08T14:11:49Z</time><course>24</course><type>18</type></trkpt>
      <trkpt lat="41.1957166" lon="-3.4890834"><ele>2722</ele><speed>55</speed><time>2016-10-08T14:11:50Z</time><course>24</course><type>18</type></trkpt>
      <trkpt lat="41.1958366" lon="-3.489"><ele>2723</ele><speed>53</speed><time>2016-10-08T14:11:51Z</time><course>26</course><type>18</type></trkpt>
      <trkpt lat="41.1959433" lon="-3.48893"><ele>2724</ele><speed>47</speed><time>2016-10-08T14:11:52Z</time><course>25</course><type>18</type></trkpt>
      <trkpt lat="41.1960466" lon="-3.4888634"><ele>2724</ele><speed>46</speed><time>2016-10-08T14:11:53Z</time><course>24</course><type>18</type></trkpt>
      <trkpt lat="41.1961433" lon="-3.4887817"><ele>2725</ele><speed>46</speed><time>2016-10-08T14:11:54Z</time><course>26</course><type>18</type></trkpt>
      <trkpt lat="41.1962066" lon="-3.4886484"><ele>2726</ele><speed>45</speed><time>2016-10-08T14:11:55Z</time><course>39</course><type>18</type></trkpt>
      <trkpt lat="41.196305" lon="-3.4885767"><ele>2727</ele><speed>44</speed><time>2016-10-08T14:11:56Z</time><course>34</course><type>18</type></trkpt>
      <trkpt lat="41.1964066" lon="-3.4885184"><ele>2727</ele><speed>42</speed><time>2016-10-08T14:11:57Z</time><course>28</course><type>18</type></trkpt>
      <trkpt lat="41.1965216" lon="-3.4884917"><ele>2728</ele><speed>42</speed><time>2016-10-08T14:11:58Z</time><course>18</course><type>18</type></trkpt>
      <trkpt lat="41.1966283" lon="-3.4884734"><ele>2728</ele><speed>41</speed><time>2016-10-08T14:11:59Z</time><course>11</course><type>18</type></trkpt>
      <trkpt lat="41.1967366" lon="-3.4884817"><ele>2729</ele><speed>40</speed><time>2016-10-08T14:12:00Z</time><course>9</course><type>18</type></trkpt>
      <trkpt lat="41.1968466" lon="-3.4884784"><ele>2729</ele><speed>41</speed><time>2016-10-08T14:12:01Z</time><course>13</course><type>18</type></trkpt>
      <trkpt lat="41.196955" lon="-3.48847"><ele>2730</ele><speed>40</speed><time>2016-10-08T14:12:02Z</time><course>15</course><type>18</type></trkpt>
      <trkpt lat="41.1970683" lon="-3.48844"><ele>2731</ele><speed>41</speed><time>2016-10-08T14:12:03Z</time><course>18</course><type>18</type></trkpt>
      <trkpt lat="41.1971733" lon="-3.488405"><ele>2731</ele><speed>41</speed><time>2016-10-08T14:12:04Z</time><course>17</course><type>18</type></trkpt>
      <trkpt lat="41.1972616" lon="-3.4884067"><ele>2732</ele><speed>44</speed><time>2016-10-08T14:12:05Z</time><course>17</course><type>18</type></trkpt>
      <trkpt lat="41.1973683" lon="-3.4883767"><ele>2732</ele><speed>46</speed><time>2016-10-08T14:12:06Z</time><course>14</course><type>18</type></trkpt>
      <trkpt lat="41.1974866" lon="-3.488375"><ele>2733</ele><speed>51</speed><time>2016-10-08T14:12:07Z</time><course>1</course><type>18</type></trkpt>
      <trkpt lat="41.1976083" lon="-3.4883334"><ele>2733</ele><speed>52</speed><time>2016-10-08T14:12:08Z</time><course>14</course><type>18</type></trkpt>
      <trkpt lat="41.1977133" lon="-3.488305"><ele>2734</ele><speed>45</speed><time>2016-10-08T14:12:09Z</time><course>13</course><type>18</type></trkpt>
      <trkpt lat="41.1977983" lon="-3.4882384"><ele>2734</ele><speed>39</speed><time>2016-10-08T14:12:10Z</time><course>36</course><type>18</type></trkpt>
      <trkpt lat="41.1978866" lon="-3.4881484"><ele>2735</ele><speed>45</speed><time>2016-10-08T14:12:11Z</time><course>39</course><type>18</type></trkpt>
      <trkpt lat="41.1979716" lon="-3.4880534"><ele>2735</ele><speed>47</speed><time>2016-10-08T14:12:12Z</time><course>39</course><type>18</type></trkpt>
      <trkpt lat="41.1980616" lon="-3.4879517"><ele>2735</ele><speed>50</speed><time>2016-10-08T14:12:13Z</time><course>40</course><type>18</type></trkpt>
      <trkpt lat="41.198165" lon="-3.4878784"><ele>2736</ele><speed>50</speed><time>2016-10-08T14:12:14Z</time><course>31</course><type>18</type></trkpt>
      <trkpt lat="41.19827" lon="-3.4877917"><ele>2736</ele><speed>50</speed><time>2016-10-08T14:12:15Z</time><course>28</course><type>18</type></trkpt>
      <trkpt lat="41.1983533" lon="-3.48771"><ele>2736</ele><speed>48</speed><time>2016-10-08T14:12:16Z</time><course>29</course><type>18</type></trkpt>
      <trkpt lat="41.1984383" lon="-3.487625"><ele>2737</ele><speed>46</speed><time>2016-10-08T14:12:17Z</time><course>28</course><type>18</type></trkpt>
      <trkpt lat="41.1985366" lon="-3.4875484"><ele>2737</ele><speed>47</speed><time>2016-10-08T14:12:18Z</time><course>27</course><type>18</type></trkpt>
      <trkpt lat="41.19863" lon="-3.4874717"><ele>2737</ele><speed>47</speed><time>2016-10-08T14:12:19Z</time><course>27</course><type>18</type></trkpt>
      <trkpt lat="41.1987316" lon="-3.4873967"><ele>2738</ele><speed>49</speed><time>2016-10-08T14:12:20Z</time><course>26</course><type>18</type></trkpt>
      <trkpt lat="41.1988266" lon="-3.4873167"><ele>2738</ele><speed>49</speed><time>2016-10-08T14:12:21Z</time><course>27</course><type>18</type></trkpt>
      <trkpt lat="41.198925" lon="-3.4872384"><ele>2738</ele><speed>49</speed><time>2016-10-08T14:12:22Z</time><course>28</course><type>18</type></trkpt>
      <trkpt lat="41.1990116" lon="-3.4871567"><ele>2738</ele><speed>49</speed><time>2016-10-08T14:12:23Z</time><course>29</course><type>18</type></trkpt>
      <trkpt lat="41.19911" lon="-3.4870667"><ele>2738</ele><speed>52</speed><time>2016-10-08T14:12:24Z</time><course>31</course><type>18</type></trkpt>
      <trkpt lat="41.1992033" lon="-3.4869967"><ele>2739</ele><speed>48</speed><time>2016-10-08T14:12:25Z</time><course>27</course><type>18</type></trkpt>
      <trkpt lat="41.1993" lon="-3.4869267"><ele>2739</ele><speed>47</speed><time>2016-10-08T14:12:26Z</time><course>27</course><type>18</type></trkpt>
      <trkpt lat="41.1993916" lon="-3.4868584"><ele>2739</ele><speed>45</speed><time>2016-10-08T14:12:27Z</time><course>27</course><type>18</type></trkpt>
      <trkpt lat="41.1994766" lon="-3.4868067"><ele>2739</ele><speed>42</speed><time>2016-10-08T14:12:28Z</time><course>27</course><type>18</type></trkpt>
      <trkpt lat="41.199555" lon="-3.4866551"><ele>2739</ele><speed>32</speed><time>2016-10-08T14:12:30Z</time><course>44</course><type>18</type></trkpt>
      <trkpt lat="41.1996366" lon="-3.4865767"><ele>2739</ele><speed>35</speed><time>2016-10-08T14:12:31Z</time><course>40</course><type>18</type></trkpt>
      <trkpt lat="41.1997316" lon="-3.4864967"><ele>2740</ele><speed>38</speed><time>2016-10-08T14:12:32Z</time><course>36</course><type>18</type></trkpt>
      <trkpt lat="41.1998333" lon="-3.4864267"><ele>2740</ele><speed>42</speed><time>2016-10-08T14:12:33Z</time><course>31</course><type>18</type></trkpt>
      <trkpt lat="41.1999416" lon="-3.4863617"><ele>2739</ele><speed>45</speed><time>2016-10-08T14:12:34Z</time><course>28</course><type>18</type></trkpt>
      <trkpt lat="41.20002" lon="-3.4862734"><ele>2739</ele><speed>45</speed><time>2016-10-08T14:12:35Z</time><course>29</course><type>18</type></trkpt>
      <trkpt lat="41.2000983" lon="-3.4862017"><ele>2739</ele><speed>45</speed><time>2016-10-08T14:12:36Z</time><course>29</course><type>18</type></trkpt>
      <trkpt lat="41.2001933" lon="-3.4861367"><ele>2738</ele><speed>45</speed><time>2016-10-08T14:12:37Z</time><course>29</course><type>18</type></trkpt>
      <trkpt lat="41.2002833" lon="-3.4860667"><ele>2737</ele><speed>44</speed><time>2016-10-08T14:12:38Z</time><course>28</course><type>18</type></trkpt>
      <trkpt lat="41.2003683" lon="-3.4860017"><ele>2736</ele><speed>43</speed><time>2016-10-08T14:12:39Z</time><course>30</course><type>18</type></trkpt>
      <trkpt lat="41.200455" lon="-3.48593"><ele>2736</ele><speed>44</speed><time>2016-10-08T14:12:40Z</time><course>30</course><type>18</type></trkpt>
      <trkpt lat="41.200565" lon="-3.4858684"><ele>2735</ele><speed>55</speed><time>2016-10-08T14:12:41Z</time><course>21</course><type>18</type></trkpt>
      <trkpt lat="41.2006483" lon="-3.4858"><ele>2734</ele><speed>40</speed><time>2016-10-08T14:12:42Z</time><course>28</course><type>18</type></trkpt>
      <trkpt lat="41.2007466" lon="-3.4857267"><ele>2733</ele><speed>42</speed><time>2016-10-08T14:12:43Z</time><course>31</course><type>18</type></trkpt>
      <trkpt lat="41.20083" lon="-3.485655"><ele>2733</ele><speed>41</speed><time>2016-10-08T14:12:44Z</time><course>30</course><type>18</type></trkpt>
      <trkpt lat="41.2009216" lon="-3.4855817"><ele>2732</ele><speed>43</speed><time>2016-10-08T14:12:45Z</time><course>28</course><type>18</type></trkpt>
      <trkpt lat="41.2010083" lon="-3.4855084"><ele>2732</ele><speed>46</speed><time>2016-10-08T14:12:46Z</time><course>29</course><type>18</type></trkpt>
      <trkpt lat="41.2011016" lon="-3.4854384"><ele>2731</ele><speed>46</speed><time>2016-10-08T14:12:47Z</time><course>26</course><type>18</type></trkpt>
      <trkpt lat="41.2011983" lon="-3.4853717"><ele>2731</ele><speed>48</speed><time>2016-10-08T14:12:48Z</time><course>23</course><type>18</type></trkpt>
      <trkpt lat="41.2012983" lon="-3.4853067"><ele>2731</ele><speed>49</speed><time>2016-10-08T14:12:49Z</time><course>21</course><type>18</type></trkpt>
      <trkpt lat="41.2013866" lon="-3.4852467"><ele>2731</ele><speed>45</speed><time>2016-10-08T14:12:50Z</time><course>22</course><type>18</type></trkpt>
      <trkpt lat="41.2014666" lon="-3.4852"><ele>2731</ele><speed>44</speed><time>2016-10-08T14:12:51Z</time><course>19</course><type>18</type></trkpt>
      <trkpt lat="41.2015683" lon="-3.4850817"><ele>2731</ele><speed>35</speed><time>2016-10-08T14:12:53Z</time><course>34</course><type>18</type></trkpt>
      <trkpt lat="41.2016283" lon="-3.484995"><ele>2731</ele><speed>40</speed><time>2016-10-08T14:12:54Z</time><course>40</course><type>18</type></trkpt>
      <trkpt lat="41.2016816" lon="-3.4848867"><ele>2730</ele><speed>42</speed><time>2016-10-08T14:12:55Z</time><course>49</course><type>18</type></trkpt>
      <trkpt lat="41.201725" lon="-3.4847517"><ele>2729</ele><speed>44</speed><time>2016-10-08T14:12:56Z</time><course>60</course><type>18</type></trkpt>
      <trkpt lat="41.2017566" lon="-3.484585"><ele>2729</ele><speed>47</speed><time>2016-10-08T14:12:57Z</time><course>68</course><type>18</type></trkpt>
      <trkpt lat="41.201785" lon="-3.484425"><ele>2729</ele><speed>44</speed><time>2016-10-08T14:12:58Z</time><course>72</course><type>18</type></trkpt>
      <trkpt lat="41.2017983" lon="-3.48426"><ele>2729</ele><speed>45</speed><time>2016-10-08T14:12:59Z</time><course>77</course><type>18</type></trkpt>
      <trkpt lat="41.201745" lon="-3.484045"><ele>2728</ele><speed>53</speed><time>2016-10-08T14:13:00Z</time><course>90</course><type>18</type></trkpt>
      <trkpt lat="41.2017016" lon="-3.4838484"><ele>2727</ele><speed>52</speed><time>2016-10-08T14:13:01Z</time><course>94</course><type>18</type></trkpt>
      <trkpt lat="41.201665" lon="-3.4836834"><ele>2727</ele><speed>46</speed><time>2016-10-08T14:13:02Z</time><course>97</course><type>18</type></trkpt>
      <trkpt lat="41.201615" lon="-3.4835267"><ele>2726</ele><speed>46</speed><time>2016-10-08T14:13:03Z</time><course>101</course><type>18</type></trkpt>
      <trkpt lat="41.2015583" lon="-3.4833934"><ele>2726</ele><speed>45</speed><time>2016-10-08T14:13:04Z</time><course>104</course><type>18</type></trkpt>
      <trkpt lat="41.201535" lon="-3.4835134"><ele>2721</ele><speed>6</speed><time>2016-10-08T14:13:08Z</time><course>87</course><type>18</type></trkpt>
      <trkpt lat="41.20157" lon="-3.4836717"><ele>2721</ele><speed>9</speed><time>2016-10-08T14:13:10Z</time><course>325</course><type>18</type></trkpt>
      <trkpt lat="41.2016083" lon="-3.4837584"><ele>2721</ele><speed>18</speed><time>2016-10-08T14:13:11Z</time><course>324</course><type>18</type></trkpt>
      <trkpt lat="41.2017033" lon="-3.4838884"><ele>2721</ele><speed>23</speed><time>2016-10-08T14:13:13Z</time><course>323</course><type>18</type></trkpt>
      <trkpt lat="41.2017966" lon="-3.4840467"><ele>2721</ele><speed>30</speed><time>2016-10-08T14:13:15Z</time><course>313</course><type>18</type></trkpt>
      <trkpt lat="41.2018699" lon="-3.484105"><ele>2721</ele><speed>29</speed><time>2016-10-08T14:13:16Z</time><course>323</course><type>18</type></trkpt>
      <trkpt lat="41.20193" lon="-3.48416"><ele>2721</ele><speed>29</speed><time>2016-10-08T14:13:17Z</time><course>328</course><type>18</type></trkpt>
      <trkpt lat="41.201995" lon="-3.4842034"><ele>2721</ele><speed>29</speed><time>2016-10-08T14:13:18Z</time><course>331</course><type>18</type></trkpt>
      <trkpt lat="41.2019883" lon="-3.4844601"><ele>2722</ele><speed>32</speed><time>2016-10-08T14:13:19Z</time><course>324</course><type>18</type></trkpt>
      <trkpt lat="41.20199" lon="-3.4845634"><ele>2723</ele><speed>27</speed><time>2016-10-08T14:13:20Z</time><course>318</course><type>18</type></trkpt>
      <trkpt lat="41.2020366" lon="-3.4844684"><ele>2724</ele><speed>10</speed><time>2016-10-08T14:13:22Z</time><course>352</course><type>18</type></trkpt>
      <trkpt lat="41.2020499" lon="-3.4842767"><ele>2725</ele><speed>14</speed><time>2016-10-08T14:13:24Z</time><course>66</course><type>18</type></trkpt>
      <trkpt lat="41.2020266" lon="-3.48413"><ele>2726</ele><speed>14</speed><time>2016-10-08T14:13:25Z</time><course>95</course><type>18</type></trkpt>
      <trkpt lat="41.2019466" lon="-3.4839484"><ele>2726</ele><speed>22</speed><time>2016-10-08T14:13:26Z</time><course>137</course><type>18</type></trkpt>
      <trkpt lat="41.2018266" lon="-3.48375"><ele>2727</ele><speed>33</speed><time>2016-10-08T14:13:27Z</time><course>147</course><type>18</type></trkpt>
      <trkpt lat="41.2017433" lon="-3.4836684"><ele>2727</ele><speed>35</speed><time>2016-10-08T14:13:28Z</time><course>150</course><type>18</type></trkpt>
      <trkpt lat="41.2016583" lon="-3.4836217"><ele>2727</ele><speed>34</speed><time>2016-10-08T14:13:29Z</time><course>157</course><type>18</type></trkpt>
      <trkpt lat="41.2015533" lon="-3.4835784"><ele>2727</ele><speed>35</speed><time>2016-10-08T14:13:30Z</time><course>164</course><type>18</type></trkpt>
      <trkpt lat="41.2014766" lon="-3.48355"><ele>2727</ele><speed>32</speed><time>2016-10-08T14:13:31Z</time><course>165</course><type>18</type></trkpt>
      <trkpt lat="41.20137" lon="-3.483485"><ele>2727</ele><speed>34</speed><time>2016-10-08T14:13:32Z</time><course>163</course><type>18</type></trkpt>
      <trkpt lat="41.20127" lon="-3.4834484"><ele>2727</ele><speed>34</speed><time>2016-10-08T14:13:33Z</time><course>167</course><type>18</type></trkpt>
      <trkpt lat="41.2011883" lon="-3.483465"><ele>2727</ele><speed>32</speed><time>2016-10-08T14:13:34Z</time><course>176</course><type>18</type></trkpt>
      <trkpt lat="41.2011016" lon="-3.4835317"><ele>2727</ele><speed>21</speed><time>2016-10-08T14:13:36Z</time><course>183</course><type>18</type></trkpt>
      <trkpt lat="41.2010366" lon="-3.4836184"><ele>2726</ele><speed>17</speed><time>2016-10-08T14:13:38Z</time><course>191</course><type>18</type></trkpt>
      <trkpt lat="41.2010616" lon="-3.4837217"><ele>2727</ele><speed>12</speed><time>2016-10-08T14:13:40Z</time><course>253</course><type>18</type></trkpt>
      <trkpt lat="41.2011533" lon="-3.4837684"><ele>2727</ele><speed>7</speed><time>2016-10-08T14:13:43Z</time><course>327</course><type>18</type></trkpt>
      <trkpt lat="41.2012683" lon="-3.4836684"><ele>2727</ele><speed>9</speed><time>2016-10-08T14:13:46Z</time><course>55</course><type>18</type></trkpt>
      <trkpt lat="41.2013183" lon="-3.4835934"><ele>2727</ele><speed>12</speed><time>2016-10-08T14:13:47Z</time><course>76</course><type>18</type></trkpt>
      <trkpt lat="41.2014283" lon="-3.4834384"><ele>2728</ele><speed>28</speed><time>2016-10-08T14:13:48Z</time><course>72</course><type>18</type></trkpt>
      <trkpt lat="41.2015116" lon="-3.4833134"><ele>2729</ele><speed>34</speed><time>2016-10-08T14:13:49Z</time><course>81</course><type>18</type></trkpt>
      <trkpt lat="41.201595" lon="-3.4831884"><ele>2731</ele><speed>36</speed><time>2016-10-08T14:13:50Z</time><course>85</course><type>18</type></trkpt>
      <trkpt lat="41.2016283" lon="-3.4830667"><ele>2733</ele><speed>33</speed><time>2016-10-08T14:13:51Z</time><course>94</course><type>18</type></trkpt>
      <trkpt lat="41.2016283" lon="-3.4829367"><ele>2733</ele><speed>35</speed><time>2016-10-08T14:13:52Z</time><course>94</course><type>18</type></trkpt>
      <trkpt lat="41.2016283" lon="-3.482825"><ele>2734</ele><speed>32</speed><time>2016-10-08T14:13:53Z</time><course>94</course><type>18</type></trkpt>
      <trkpt lat="41.2016033" lon="-3.482695"><ele>2734</ele><speed>35</speed><time>2016-10-08T14:13:54Z</time><course>98</course><type>18</type></trkpt>
      <trkpt lat="41.20157" lon="-3.4825667"><ele>2734</ele><speed>36</speed><time>2016-10-08T14:13:55Z</time><course>102</course><type>18</type></trkpt>
      <trkpt lat="41.20154" lon="-3.482475"><ele>2734</ele><speed>27</speed><time>2016-10-08T14:13:56Z</time><course>108</course><type>18</type></trkpt>
      <trkpt lat="41.2015083" lon="-3.4823834"><ele>2735</ele><speed>20</speed><time>2016-10-08T14:13:57Z</time><course>111</course><type>18</type></trkpt>
      <trkpt lat="41.20151" lon="-3.4822767"><ele>2735</ele><speed>13</speed><time>2016-10-08T14:13:59Z</time><course>103</course><type>18</type></trkpt>
      <trkpt lat="41.2016116" lon="-3.482335"><ele>2739</ele><speed>9</speed><time>2016-10-08T14:14:05Z</time><course>2</course><type>18</type></trkpt>
      <trkpt lat="41.2016966" lon="-3.4824001"><ele>2740</ele><speed>12</speed><time>2016-10-08T14:14:07Z</time><course>10</course><type>18</type></trkpt>
      <trkpt lat="41.2017933" lon="-3.482385"><ele>2740</ele><speed>15</speed><time>2016-10-08T14:14:09Z</time><course>25</course><type>18</type></trkpt>
      <trkpt lat="41.2019033" lon="-3.4823684"><ele>2741</ele><speed>18</speed><time>2016-10-08T14:14:10Z</time><course>24</course><type>18</type></trkpt>
      <trkpt lat="41.2021216" lon="-3.4823684"><ele>2742</ele><speed>20</speed><time>2016-10-08T14:14:12Z</time><course>17</course><type>18</type></trkpt>
      <trkpt lat="41.2022333" lon="-3.4823584"><ele>2743</ele><speed>22</speed><time>2016-10-08T14:14:13Z</time><course>14</course><type>18</type></trkpt>
      <trkpt lat="41.202355" lon="-3.4823684"><ele>2743</ele><speed>24</speed><time>2016-10-08T14:14:14Z</time><course>10</course><type>18</type></trkpt>
      <trkpt lat="41.2024" lon="-3.4824901"><ele>2744</ele><speed>24</speed><time>2016-10-08T14:14:15Z</time><course>5</course><type>18</type></trkpt>
      <trkpt lat="41.20243" lon="-3.4826717"><ele>2745</ele><speed>22</speed><time>2016-10-08T14:14:16Z</time><course>1</course><type>18</type></trkpt>
      <trkpt lat="41.2024466" lon="-3.4828217"><ele>2747</ele><speed>11</speed><time>2016-10-08T14:14:18Z</time><course>354</course><type>18</type></trkpt>
      <trkpt lat="41.202395" lon="-3.4826584"><ele>2749</ele><speed>0</speed><time>2016-10-08T14:14:21Z</time><course>5</course><type>18</type></trkpt>
      <trkpt lat="41.2022083" lon="-3.4826867"><ele>2749</ele><speed>21</speed><time>2016-10-08T14:14:22Z</time><course>176</course><type>18</type></trkpt>
      <trkpt lat="41.2020733" lon="-3.4826784"><ele>2749</ele><speed>17</speed><time>2016-10-08T14:14:24Z</time><course>184</course><type>18</type></trkpt>
      <trkpt lat="41.20195" lon="-3.482605"><ele>2750</ele><speed>15</speed><time>2016-10-08T14:14:26Z</time><course>184</course><type>18</type></trkpt>
      <trkpt lat="41.201785" lon="-3.48229"><ele>2752</ele><speed>17</speed><time>2016-10-08T14:14:27Z</time><course>153</course><type>18</type></trkpt>
      <trkpt lat="41.2017" lon="-3.48217"><ele>2753</ele><speed>18</speed><time>2016-10-08T14:14:28Z</time><course>152</course><type>18</type></trkpt>
      <trkpt lat="41.2016416" lon="-3.4822467"><ele>2757</ele><speed>11</speed><time>2016-10-08T14:14:31Z</time><course>224</course><type>18</type></trkpt>
      <trkpt lat="41.20179" lon="-3.4823167"><ele>2759</ele><speed>14</speed><time>2016-10-08T14:14:33Z</time><course>338</course><type>18</type></trkpt>
      <trkpt lat="41.2018666" lon="-3.48232"><ele>2760</ele><speed>18</speed><time>2016-10-08T14:14:34Z</time><course>358</course><type>18</type></trkpt>
      <trkpt lat="41.2019433" lon="-3.4823034"><ele>2766</ele><speed>15</speed><time>2016-10-08T14:14:38Z</time><course>29</course><type>18</type></trkpt>
      <trkpt lat="41.2020216" lon="-3.4821934"><ele>2769</ele><speed>32</speed><time>2016-10-08T14:14:39Z</time><course>43</course><type>18</type></trkpt>
      <trkpt lat="41.202085" lon="-3.4820851"><ele>2770</ele><speed>39</speed><time>2016-10-08T14:14:40Z</time><course>48</course><type>18</type></trkpt>
      <trkpt lat="41.202135" lon="-3.48196"><ele>2771</ele><speed>39</speed><time>2016-10-08T14:14:41Z</time><course>55</course><type>18</type></trkpt>
      <trkpt lat="41.2021866" lon="-3.481845"><ele>2772</ele><speed>39</speed><time>2016-10-08T14:14:42Z</time><course>60</course><type>18</type></trkpt>
      <trkpt lat="41.2022333" lon="-3.4817034"><ele>2774</ele><speed>47</speed><time>2016-10-08T14:14:43Z</time><course>62</course><type>18</type></trkpt>
      <trkpt lat="41.2022716" lon="-3.4815517"><ele>2774</ele><speed>47</speed><time>2016-10-08T14:14:44Z</time><course>67</course><type>18</type></trkpt>
      <trkpt lat="41.2023183" lon="-3.4814084"><ele>2775</ele><speed>46</speed><time>2016-10-08T14:14:45Z</time><course>67</course><type>18</type></trkpt>
      <trkpt lat="41.2023683" lon="-3.4813017"><ele>2776</ele><speed>43</speed><time>2016-10-08T14:14:46Z</time><course>68</course><type>18</type></trkpt>
      <trkpt lat="41.2024383" lon="-3.48127"><ele>2778</ele><speed>34</speed><time>2016-10-08T14:14:47Z</time><course>55</course><type>18</type></trkpt>
      <trkpt lat="41.2025033" lon="-3.48109"><ele>2780</ele><speed>34</speed><time>2016-10-08T14:14:49Z</time><course>59</course><type>18</type></trkpt>
      <trkpt lat="41.2025449" lon="-3.4809517"><ele>2781</ele><speed>41</speed><time>2016-10-08T14:14:50Z</time><course>52</course><type>18</type></trkpt>
      <trkpt lat="41.2026066" lon="-3.4807917"><ele>2782</ele><speed>46</speed><time>2016-10-08T14:14:51Z</time><course>50</course><type>18</type></trkpt>
      <trkpt lat="41.20269" lon="-3.4806567"><ele>2783</ele><speed>50</speed><time>2016-10-08T14:14:52Z</time><course>48</course><type>18</type></trkpt>
      <trkpt lat="41.2027733" lon="-3.4804684"><ele>2784</ele><speed>53</speed><time>2016-10-08T14:14:53Z</time><course>48</course><type>18</type></trkpt>
      <trkpt lat="41.2028583" lon="-3.4803184"><ele>2785</ele><speed>53</speed><time>2016-10-08T14:14:54Z</time><course>47</course><type>18</type></trkpt>
      <trkpt lat="41.2029433" lon="-3.480195"><ele>2786</ele><speed>52</speed><time>2016-10-08T14:14:55Z</time><course>46</course><type>18</type></trkpt>
      <trkpt lat="41.203035" lon="-3.48011"><ele>2787</ele><speed>50</speed><time>2016-10-08T14:14:56Z</time><course>43</course><type>18</type></trkpt>
      <trkpt lat="41.2031316" lon="-3.4800317"><ele>2787</ele><speed>50</speed><time>2016-10-08T14:14:57Z</time><course>39</course><type>18</type></trkpt>
      <trkpt lat="41.2032233" lon="-3.4799684"><ele>2788</ele><speed>49</speed><time>2016-10-08T14:14:58Z</time><course>37</course><type>18</type></trkpt>
      <trkpt lat="41.2033133" lon="-3.47989"><ele>2788</ele><speed>50</speed><time>2016-10-08T14:14:59Z</time><course>39</course><type>18</type></trkpt>
      <trkpt lat="41.2034333" lon="-3.479825"><ele>2789</ele><speed>50</speed><time>2016-10-08T14:15:00Z</time><course>36</course><type>18</type></trkpt>
      <trkpt lat="41.2035716" lon="-3.4797567"><ele>2790</ele><speed>59</speed><time>2016-10-08T14:15:01Z</time><course>34</course><type>18</type></trkpt>
      <trkpt lat="41.20371" lon="-3.4797017"><ele>2791</ele><speed>57</speed><time>2016-10-08T14:15:02Z</time><course>28</course><type>18</type></trkpt>
      <trkpt lat="41.203855" lon="-3.4795717"><ele>2791</ele><speed>61</speed><time>2016-10-08T14:15:03Z</time><course>36</course><type>18</type></trkpt>
      <trkpt lat="41.2040083" lon="-3.47954"><ele>2792</ele><speed>57</speed><time>2016-10-08T14:15:04Z</time><course>26</course><type>18</type></trkpt>
      <trkpt lat="41.2041266" lon="-3.4795084"><ele>2792</ele><speed>53</speed><time>2016-10-08T14:15:05Z</time><course>23</course><type>18</type></trkpt>
      <trkpt lat="41.2042383" lon="-3.479445"><ele>2793</ele><speed>54</speed><time>2016-10-08T14:15:06Z</time><course>22</course><type>18</type></trkpt>
      <trkpt lat="41.2043533" lon="-3.4793917"><ele>2793</ele><speed>56</speed><time>2016-10-08T14:15:07Z</time><course>20</course><type>18</type></trkpt>
      <trkpt lat="41.2044516" lon="-3.479355"><ele>2794</ele><speed>54</speed><time>2016-10-08T14:15:08Z</time><course>19</course><type>18</type></trkpt>
      <trkpt lat="41.2045583" lon="-3.4793167"><ele>2794</ele><speed>53</speed><time>2016-10-08T14:15:09Z</time><course>18</course><type>18</type></trkpt>
      <trkpt lat="41.2046566" lon="-3.4792767"><ele>2795</ele><speed>52</speed><time>2016-10-08T14:15:10Z</time><course>18</course><type>18</type></trkpt>
      <trkpt lat="41.20477" lon="-3.4792284"><ele>2796</ele><speed>53</speed><time>2016-10-08T14:15:11Z</time><course>19</course><type>18</type></trkpt>
      <trkpt lat="41.20488" lon="-3.479175"><ele>2796</ele><speed>54</speed><time>2016-10-08T14:15:12Z</time><course>20</course><type>18</type></trkpt>
      <trkpt lat="41.204995" lon="-3.4791117"><ele>2797</ele><speed>56</speed><time>2016-10-08T14:15:13Z</time><course>21</course><type>18</type></trkpt>
      <trkpt lat="41.20512" lon="-3.4790534"><ele>2797</ele><speed>58</speed><time>2016-10-08T14:15:14Z</time><course>19</course><type>18</type></trkpt>
      <trkpt lat="41.2052499" lon="-3.4790001"><ele>2798</ele><speed>57</speed><time>2016-10-08T14:15:15Z</time><course>17</course><type>18</type></trkpt>
      <trkpt lat="41.20538" lon="-3.4789467"><ele>2798</ele><speed>58</speed><time>2016-10-08T14:15:16Z</time><course>16</course><type>18</type></trkpt>
      <trkpt lat="41.2055383" lon="-3.478885"><ele>2799</ele><speed>66</speed><time>2016-10-08T14:15:17Z</time><course>18</course><type>18</type></trkpt>
      <trkpt lat="41.2056783" lon="-3.4788317"><ele>2800</ele><speed>65</speed><time>2016-10-08T14:15:18Z</time><course>17</course><type>18</type></trkpt>
      <trkpt lat="41.2058133" lon="-3.4787717"><ele>2800</ele><speed>62</speed><time>2016-10-08T14:15:19Z</time><course>17</course><type>18</type></trkpt>
      <trkpt lat="41.2059583" lon="-3.4787184"><ele>2800</ele><speed>63</speed><time>2016-10-08T14:15:20Z</time><course>16</course><type>18</type></trkpt>
      <trkpt lat="41.2060983" lon="-3.478665"><ele>2801</ele><speed>64</speed><time>2016-10-08T14:15:21Z</time><course>14</course><type>18</type></trkpt>
      <trkpt lat="41.20617" lon="-3.4785467"><ele>2801</ele><speed>58</speed><time>2016-10-08T14:15:22Z</time><course>26</course><type>18</type></trkpt>
      <trkpt lat="41.2062416" lon="-3.4785384"><ele>2801</ele><speed>49</speed><time>2016-10-08T14:15:23Z</time><course>20</course><type>18</type></trkpt>
      <trkpt lat="41.206355" lon="-3.478515"><ele>2799</ele><speed>44</speed><time>2016-10-08T14:15:25Z</time><course>12</course><type>18</type></trkpt>
      <trkpt lat="41.2064216" lon="-3.4784967"><ele>2798</ele><speed>45</speed><time>2016-10-08T14:15:26Z</time><course>11</course><type>18</type></trkpt>
      <trkpt lat="41.2065183" lon="-3.4784717"><ele>2798</ele><speed>45</speed><time>2016-10-08T14:15:27Z</time><course>11</course><type>18</type></trkpt>
      <trkpt lat="41.2066183" lon="-3.4784384"><ele>2798</ele><speed>44</speed><time>2016-10-08T14:15:28Z</time><course>12</course><type>18</type></trkpt>
      <trkpt lat="41.2067116" lon="-3.4784117"><ele>2797</ele><speed>42</speed><time>2016-10-08T14:15:29Z</time><course>13</course><type>18</type></trkpt>
      <trkpt lat="41.206805" lon="-3.4783767"><ele>2796</ele><speed>42</speed><time>2016-10-08T14:15:30Z</time><course>15</course><type>18</type></trkpt>
      <trkpt lat="41.2068699" lon="-3.47834"><ele>2795</ele><speed>42</speed><time>2016-10-08T14:15:31Z</time><course>12</course><type>18</type></trkpt>
      <trkpt lat="41.2069616" lon="-3.4783084"><ele>2795</ele><speed>43</speed><time>2016-10-08T14:15:32Z</time><course>10</course><type>18</type></trkpt>
      <trkpt lat="41.2070616" lon="-3.4782817"><ele>2794</ele><speed>45</speed><time>2016-10-08T14:15:33Z</time><course>6</course><type>18</type></trkpt>
      <trkpt lat="41.2071716" lon="-3.4782667"><ele>2794</ele><speed>46</speed><time>2016-10-08T14:15:34Z</time><course>4</course><type>18</type></trkpt>
      <trkpt lat="41.20728" lon="-3.4782617"><ele>2794</ele><speed>47</speed><time>2016-10-08T14:15:35Z</time><course>1</course><type>18</type></trkpt>
      <trkpt lat="41.20739" lon="-3.4782634"><ele>2794</ele><speed>46</speed><time>2016-10-08T14:15:36Z</time><course>1</course><type>18</type></trkpt>
      <trkpt lat="41.2074666" lon="-3.47826"><ele>2793</ele><speed>43</speed><time>2016-10-08T14:15:37Z</time><course>0</course><type>18</type></trkpt>
      <trkpt lat="41.2076216" lon="-3.4782284"><ele>2792</ele><speed>38</speed><time>2016-10-08T14:15:39Z</time><course>4</course><type>18</type></trkpt>
      <trkpt lat="41.2077183" lon="-3.47815"><ele>2791</ele><speed>39</speed><time>2016-10-08T14:15:40Z</time><course>17</course><type>18</type></trkpt>
      <trkpt lat="41.2078283" lon="-3.4780934"><ele>2790</ele><speed>43</speed><time>2016-10-08T14:15:41Z</time><course>17</course><type>18</type></trkpt>
      <trkpt lat="41.2079316" lon="-3.47803"><ele>2789</ele><speed>45</speed><time>2016-10-08T14:15:42Z</time><course>17</course><type>18</type></trkpt>
      <trkpt lat="41.2080466" lon="-3.4779617"><ele>2788</ele><speed>47</speed><time>2016-10-08T14:15:43Z</time><course>18</course><type>18</type></trkpt>
      <trkpt lat="41.2081633" lon="-3.4778967"><ele>2787</ele><speed>49</speed><time>2016-10-08T14:15:44Z</time><course>18</course><type>18</type></trkpt>
      <trkpt lat="41.208275" lon="-3.4778484"><ele>2785</ele><speed>50</speed><time>2016-10-08T14:15:45Z</time><course>18</course><type>18</type></trkpt>
      <trkpt lat="41.2083716" lon="-3.47779"><ele>2783</ele><speed>50</speed><time>2016-10-08T14:15:46Z</time><course>17</course><type>18</type></trkpt>
      <trkpt lat="41.2084833" lon="-3.4777417"><ele>2781</ele><speed>49</speed><time>2016-10-08T14:15:47Z</time><course>17</course><type>18</type></trkpt>
      <trkpt lat="41.2086166" lon="-3.4776784"><ele>2779</ele><speed>51</speed><time>2016-10-08T14:15:48Z</time><course>18</course><type>18</type></trkpt>
      <trkpt lat="41.208755" lon="-3.4776184"><ele>2778</ele><speed>55</speed><time>2016-10-08T14:15:49Z</time><course>18</course><type>18</type></trkpt>
      <trkpt lat="41.2088716" lon="-3.4775517"><ele>2776</ele><speed>55</speed><time>2016-10-08T14:15:50Z</time><course>19</course><type>18</type></trkpt>
      <trkpt lat="41.20901" lon="-3.4774784"><ele>2774</ele><speed>58</speed><time>2016-10-08T14:15:51Z</time><course>20</course><type>18</type></trkpt>
      <trkpt lat="41.2091533" lon="-3.4773967"><ele>2773</ele><speed>63</speed><time>2016-10-08T14:15:52Z</time><course>22</course><type>18</type></trkpt>
      <trkpt lat="41.2092533" lon="-3.4772867"><ele>2772</ele><speed>56</speed><time>2016-10-08T14:15:53Z</time><course>27</course><type>18</type></trkpt>
      <trkpt lat="41.20936" lon="-3.4772184"><ele>2771</ele><speed>39</speed><time>2016-10-08T14:15:54Z</time><course>22</course><type>18</type></trkpt>
      <trkpt lat="41.2094933" lon="-3.477125"><ele>2769</ele><speed>50</speed><time>2016-10-08T14:15:55Z</time><course>30</course><type>18</type></trkpt>
      <trkpt lat="41.2095683" lon="-3.477015"><ele>2766</ele><speed>55</speed><time>2016-10-08T14:15:56Z</time><course>35</course><type>18</type></trkpt>
      <trkpt lat="41.209625" lon="-3.4768934"><ele>2761</ele><speed>56</speed><time>2016-10-08T14:15:57Z</time><course>38</course><type>18</type></trkpt>
      <trkpt lat="41.2097266" lon="-3.4767767"><ele>2758</ele><speed>58</speed><time>2016-10-08T14:15:58Z</time><course>39</course><type>18</type></trkpt>
      <trkpt lat="41.2098283" lon="-3.4766617"><ele>2755</ele><speed>60</speed><time>2016-10-08T14:15:59Z</time><course>38</course><type>18</type></trkpt>
      <trkpt lat="41.2099216" lon="-3.4765517"><ele>2753</ele><speed>59</speed><time>2016-10-08T14:16:00Z</time><course>37</course><type>18</type></trkpt>
      <trkpt lat="41.2100283" lon="-3.47645"><ele>2752</ele><speed>58</speed><time>2016-10-08T14:16:01Z</time><course>35</course><type>18</type></trkpt>
      <trkpt lat="41.2101283" lon="-3.4763617"><ele>2751</ele><speed>56</speed><time>2016-10-08T14:16:02Z</time><course>33</course><type>18</type></trkpt>
      <trkpt lat="41.21021" lon="-3.4763317"><ele>2749</ele><speed>51</speed><time>2016-10-08T14:16:03Z</time><course>31</course><type>18</type></trkpt>
      <trkpt lat="41.210295" lon="-3.476275"><ele>2747</ele><speed>49</speed><time>2016-10-08T14:16:04Z</time><course>28</course><type>18</type></trkpt>
      <trkpt lat="41.2103933" lon="-3.47623"><ele>2745</ele><speed>49</speed><time>2016-10-08T14:16:05Z</time><course>26</course><type>18</type></trkpt>
      <trkpt lat="41.2104766" lon="-3.47619"><ele>2743</ele><speed>47</speed><time>2016-10-08T14:16:06Z</time><course>22</course><type>18</type></trkpt>
      <trkpt lat="41.21058" lon="-3.4761634"><ele>2741</ele><speed>46</speed><time>2016-10-08T14:16:07Z</time><course>17</course><type>18</type></trkpt>
      <trkpt lat="41.2107483" lon="-3.4761534"><ele>2740</ele><speed>60</speed><time>2016-10-08T14:16:08Z</time><course>7</course><type>18</type></trkpt>
      <trkpt lat="41.2108766" lon="-3.47611"><ele>2738</ele><speed>53</speed><time>2016-10-08T14:16:09Z</time><course>10</course><type>18</type></trkpt>
      <trkpt lat="41.2110033" lon="-3.4760534"><ele>2737</ele><speed>40</speed><time>2016-10-08T14:16:10Z</time><course>12</course><type>18</type></trkpt>
      <trkpt lat="41.2111216" lon="-3.4760084"><ele>2736</ele><speed>46</speed><time>2016-10-08T14:16:11Z</time><course>18</course><type>18</type></trkpt>
      <trkpt lat="41.2112483" lon="-3.4759767"><ele>2734</ele><speed>50</speed><time>2016-10-08T14:16:12Z</time><course>15</course><type>18</type></trkpt>
      <trkpt lat="41.2113716" lon="-3.4759434"><ele>2733</ele><speed>51</speed><time>2016-10-08T14:16:13Z</time><course>13</course><type>18</type></trkpt>
      <trkpt lat="41.2115" lon="-3.4759167"><ele>2732</ele><speed>52</speed><time>2016-10-08T14:16:14Z</time><course>11</course><type>18</type></trkpt>
      <trkpt lat="41.2116283" lon="-3.47588"><ele>2730</ele><speed>53</speed><time>2016-10-08T14:16:15Z</time><course>12</course><type>18</type></trkpt>
      <trkpt lat="41.2117583" lon="-3.4758384"><ele>2729</ele><speed>56</speed><time>2016-10-08T14:16:16Z</time><course>14</course><type>18</type></trkpt>
      <trkpt lat="41.2118899" lon="-3.47579"><ele>2727</ele><speed>59</speed><time>2016-10-08T14:16:17Z</time><course>16</course><type>18</type></trkpt>
      <trkpt lat="41.2120266" lon="-3.4757417"><ele>2726</ele><speed>59</speed><time>2016-10-08T14:16:18Z</time><course>15</course><type>18</type></trkpt>
      <trkpt lat="41.2121616" lon="-3.4756917"><ele>2725</ele><speed>58</speed><time>2016-10-08T14:16:19Z</time><course>15</course><type>18</type></trkpt>
      <trkpt lat="41.2122949" lon="-3.47564"><ele>2723</ele><speed>58</speed><time>2016-10-08T14:16:20Z</time><course>15</course><type>18</type></trkpt>
      <trkpt lat="41.212415" lon="-3.4755917"><ele>2722</ele><speed>56</speed><time>2016-10-08T14:16:21Z</time><course>15</course><type>18</type></trkpt>
      <trkpt lat="41.2125416" lon="-3.4755917"><ele>2720</ele><speed>56</speed><time>2016-10-08T14:16:22Z</time><course>10</course><type>18</type></trkpt>
      <trkpt lat="41.2126616" lon="-3.4755567"><ele>2719</ele><speed>55</speed><time>2016-10-08T14:16:23Z</time><course>13</course><type>18</type></trkpt>
      <trkpt lat="41.2127866" lon="-3.47552"><ele>2717</ele><speed>57</speed><time>2016-10-08T14:16:24Z</time><course>14</course><type>18</type></trkpt>
      <trkpt lat="41.2129216" lon="-3.4754767"><ele>2716</ele><speed>57</speed><time>2016-10-08T14:16:25Z</time><course>13</course><type>18</type></trkpt>
      <trkpt lat="41.212985" lon="-3.4753917"><ele>2713</ele><speed>61</speed><time>2016-10-08T14:16:26Z</time><course>17</course><type>18</type></trkpt>
      <trkpt lat="41.2130683" lon="-3.4753217"><ele>2710</ele><speed>58</speed><time>2016-10-08T14:16:27Z</time><course>16</course><type>18</type></trkpt>
      <trkpt lat="41.213175" lon="-3.4752717"><ele>2708</ele><speed>58</speed><time>2016-10-08T14:16:28Z</time><course>14</course><type>18</type></trkpt>
      <trkpt lat="41.2133216" lon="-3.475235"><ele>2707</ele><speed>58</speed><time>2016-10-08T14:16:29Z</time><course>12</course><type>18</type></trkpt>
      <trkpt lat="41.2134533" lon="-3.4752067"><ele>2705</ele><speed>56</speed><time>2016-10-08T14:16:30Z</time><course>11</course><type>18</type></trkpt>
      <trkpt lat="41.2135366" lon="-3.4752067"><ele>2704</ele><speed>47</speed><time>2016-10-08T14:16:31Z</time><course>6</course><type>18</type></trkpt>
      <trkpt lat="41.2136483" lon="-3.47519"><ele>2703</ele><speed>45</speed><time>2016-10-08T14:16:32Z</time><course>5</course><type>18</type></trkpt>
      <trkpt lat="41.21372" lon="-3.4750867"><ele>2701</ele><speed>44</speed><time>2016-10-08T14:16:33Z</time><course>13</course><type>18</type></trkpt>
      <trkpt lat="41.2138466" lon="-3.475055"><ele>2699</ele><speed>45</speed><time>2016-10-08T14:16:34Z</time><course>12</course><type>18</type></trkpt>
      <trkpt lat="41.2139599" lon="-3.475025"><ele>2698</ele><speed>45</speed><time>2016-10-08T14:16:35Z</time><course>12</course><type>18</type></trkpt>
      <trkpt lat="41.2140683" lon="-3.4749884"><ele>2696</ele><speed>44</speed><time>2016-10-08T14:16:36Z</time><course>13</course><type>18</type></trkpt>
      <trkpt lat="41.2141666" lon="-3.474945"><ele>2695</ele><speed>43</speed><time>2016-10-08T14:16:37Z</time><course>14</course><type>18</type></trkpt>
      <trkpt lat="41.2142616" lon="-3.4748684"><ele>2693</ele><speed>46</speed><time>2016-10-08T14:16:38Z</time><course>15</course><type>18</type></trkpt>
      <trkpt lat="41.214385" lon="-3.4747484"><ele>2688</ele><speed>49</speed><time>2016-10-08T14:16:40Z</time><course>15</course><type>18</type></trkpt>
      <trkpt lat="41.2144983" lon="-3.4747134"><ele>2686</ele><speed>50</speed><time>2016-10-08T14:16:41Z</time><course>16</course><type>18</type></trkpt>
      <trkpt lat="41.214595" lon="-3.474645"><ele>2683</ele><speed>59</speed><time>2016-10-08T14:16:42Z</time><course>23</course><type>18</type></trkpt>
      <trkpt lat="41.2146866" lon="-3.4745617"><ele>2680</ele><speed>54</speed><time>2016-10-08T14:16:43Z</time><course>25</course><type>18</type></trkpt>
      <trkpt lat="41.21478" lon="-3.4744867"><ele>2678</ele><speed>52</speed><time>2016-10-08T14:16:44Z</time><course>26</course><type>18</type></trkpt>
      <trkpt lat="41.21487" lon="-3.4744384"><ele>2675</ele><speed>49</speed><time>2016-10-08T14:16:45Z</time><course>25</course><type>18</type></trkpt>
      <trkpt lat="41.2149583" lon="-3.4744301"><ele>2672</ele><speed>43</speed><time>2016-10-08T14:16:46Z</time><course>20</course><type>18</type></trkpt>
      <trkpt lat="41.2150299" lon="-3.474465"><ele>2670</ele><speed>34</speed><time>2016-10-08T14:16:47Z</time><course>10</course><type>18</type></trkpt>
      <trkpt lat="41.2151583" lon="-3.47447"><ele>2667</ele><speed>40</speed><time>2016-10-08T14:16:48Z</time><course>8</course><type>18</type></trkpt>
      <trkpt lat="41.2152616" lon="-3.4744334"><ele>2665</ele><speed>43</speed><time>2016-10-08T14:16:49Z</time><course>12</course><type>18</type></trkpt>
      <trkpt lat="41.2153716" lon="-3.474415"><ele>2662</ele><speed>44</speed><time>2016-10-08T14:16:50Z</time><course>14</course><type>18</type></trkpt>
      <trkpt lat="41.2154799" lon="-3.4743884"><ele>2661</ele><speed>44</speed><time>2016-10-08T14:16:51Z</time><course>13</course><type>18</type></trkpt>
      <trkpt lat="41.2155633" lon="-3.4743584"><ele>2657</ele><speed>44</speed><time>2016-10-08T14:16:52Z</time><course>13</course><type>18</type></trkpt>
      <trkpt lat="41.2156716" lon="-3.4743317"><ele>2655</ele><speed>43</speed><time>2016-10-08T14:16:53Z</time><course>13</course><type>18</type></trkpt>
      <trkpt lat="41.215775" lon="-3.4743017"><ele>2653</ele><speed>43</speed><time>2016-10-08T14:16:54Z</time><course>12</course><type>18</type></trkpt>
      <trkpt lat="41.2158583" lon="-3.474265"><ele>2650</ele><speed>44</speed><time>2016-10-08T14:16:55Z</time><course>13</course><type>18</type></trkpt>
      <trkpt lat="41.215965" lon="-3.47424"><ele>2649</ele><speed>44</speed><time>2016-10-08T14:16:56Z</time><course>11</course><type>18</type></trkpt>
      <trkpt lat="41.2160649" lon="-3.4742134"><ele>2647</ele><speed>42</speed><time>2016-10-08T14:16:57Z</time><course>9</course><type>18</type></trkpt>
      <trkpt lat="41.2161549" lon="-3.4742"><ele>2645</ele><speed>41</speed><time>2016-10-08T14:16:58Z</time><course>8</course><type>18</type></trkpt>
      <trkpt lat="41.21627" lon="-3.4741934"><ele>2644</ele><speed>50</speed><time>2016-10-08T14:16:59Z</time><course>9</course><type>18</type></trkpt>
      <trkpt lat="41.2163683" lon="-3.4741717"><ele>2642</ele><speed>41</speed><time>2016-10-08T14:17:00Z</time><course>5</course><type>18</type></trkpt>
      <trkpt lat="41.2164866" lon="-3.47415"><ele>2642</ele><speed>38</speed><time>2016-10-08T14:17:01Z</time><course>16</course><type>18</type></trkpt>
      <trkpt lat="41.2165483" lon="-3.47413"><ele>2639</ele><speed>36</speed><time>2016-10-08T14:17:02Z</time><course>7</course><type>18</type></trkpt>
      <trkpt lat="41.2166733" lon="-3.47412"><ele>2634</ele><speed>32</speed><time>2016-10-08T14:17:04Z</time><course>358</course><type>18</type></trkpt>
      <trkpt lat="41.2167416" lon="-3.4741184"><ele>2631</ele><speed>31</speed><time>2016-10-08T14:17:05Z</time><course>357</course><type>18</type></trkpt>
      <trkpt lat="41.2168166" lon="-3.4741184"><ele>2629</ele><speed>30</speed><time>2016-10-08T14:17:06Z</time><course>357</course><type>18</type></trkpt>
      <trkpt lat="41.2168833" lon="-3.4741217"><ele>2627</ele><speed>29</speed><time>2016-10-08T14:17:07Z</time><course>358</course><type>18</type></trkpt>
      <trkpt lat="41.2169516" lon="-3.4741334"><ele>2624</ele><speed>30</speed><time>2016-10-08T14:17:08Z</time><course>356</course><type>18</type></trkpt>
      <trkpt lat="41.2170216" lon="-3.4741534"><ele>2622</ele><speed>31</speed><time>2016-10-08T14:17:09Z</time><course>354</course><type>18</type></trkpt>
      <trkpt lat="41.2170883" lon="-3.4741767"><ele>2619</ele><speed>32</speed><time>2016-10-08T14:17:10Z</time><course>354</course><type>18</type></trkpt>
      <trkpt lat="41.2171666" lon="-3.4741917"><ele>2616</ele><speed>34</speed><time>2016-10-08T14:17:11Z</time><course>359</course><type>18</type></trkpt>
      <trkpt lat="41.2172366" lon="-3.4742"><ele>2613</ele><speed>34</speed><time>2016-10-08T14:17:12Z</time><course>0</course><type>18</type></trkpt>
      <trkpt lat="41.2173183" lon="-3.4742051"><ele>2614</ele><speed>33</speed><time>2016-10-08T14:17:13Z</time><course>1</course><type>18</type></trkpt>
      <trkpt lat="41.21739" lon="-3.4742051"><ele>2613</ele><speed>31</speed><time>2016-10-08T14:17:14Z</time><course>3</course><type>18</type></trkpt>
      <trkpt lat="41.2174633" lon="-3.4742084"><ele>2611</ele><speed>31</speed><time>2016-10-08T14:17:15Z</time><course>2</course><type>18</type></trkpt>
      <trkpt lat="41.2175433" lon="-3.4742134"><ele>2610</ele><speed>32</speed><time>2016-10-08T14:17:16Z</time><course>0</course><type>18</type></trkpt>
      <trkpt lat="41.2176633" lon="-3.4742267"><ele>2608</ele><speed>26</speed><time>2016-10-08T14:17:18Z</time><course>357</course><type>18</type></trkpt>
      <trkpt lat="41.217785" lon="-3.474265"><ele>2605</ele><speed>24</speed><time>2016-10-08T14:17:20Z</time><course>346</course><type>18</type></trkpt>
      <trkpt lat="41.2178783" lon="-3.474335"><ele>2604</ele><speed>30</speed><time>2016-10-08T14:17:21Z</time><course>334</course><type>18</type></trkpt>
      <trkpt lat="41.2179566" lon="-3.4743434"><ele>2603</ele><speed>31</speed><time>2016-10-08T14:17:22Z</time><course>341</course><type>18</type></trkpt>
      <trkpt lat="41.2180383" lon="-3.4743284"><ele>2602</ele><speed>30</speed><time>2016-10-08T14:17:23Z</time><course>347</course><type>18</type></trkpt>
      <trkpt lat="41.2181166" lon="-3.47431"><ele>2600</ele><speed>29</speed><time>2016-10-08T14:17:24Z</time><course>355</course><type>18</type></trkpt>
      <trkpt lat="41.21825" lon="-3.4742367"><ele>2599</ele><speed>30</speed><time>2016-10-08T14:17:26Z</time><course>19</course><type>18</type></trkpt>
      <trkpt lat="41.21833" lon="-3.4741334"><ele>2598</ele><speed>40</speed><time>2016-10-08T14:17:27Z</time><course>45</course><type>18</type></trkpt>
      <trkpt lat="41.218385" lon="-3.47398"><ele>2597</ele><speed>51</speed><time>2016-10-08T14:17:28Z</time><course>71</course><type>18</type></trkpt>
      <trkpt lat="41.218405" lon="-3.4738034"><ele>2597</ele><speed>52</speed><time>2016-10-08T14:17:29Z</time><course>94</course><type>18</type></trkpt>
      <trkpt lat="41.2183566" lon="-3.4736267"><ele>2595</ele><speed>52</speed><time>2016-10-08T14:17:30Z</time><course>116</course><type>18</type></trkpt>
      <trkpt lat="41.2182766" lon="-3.4734834"><ele>2594</ele><speed>51</speed><time>2016-10-08T14:17:31Z</time><course>133</course><type>18</type></trkpt>
      <trkpt lat="41.21818" lon="-3.4733617"><ele>2594</ele><speed>52</speed><time>2016-10-08T14:17:32Z</time><course>140</course><type>18</type></trkpt>
      <trkpt lat="41.218075" lon="-3.4733"><ele>2594</ele><speed>48</speed><time>2016-10-08T14:17:33Z</time><course>167</course><type>18</type></trkpt>
      <trkpt lat="41.2179633" lon="-3.473285"><ele>2595</ele><speed>37</speed><time>2016-10-08T14:17:34Z</time><course>180</course><type>18</type></trkpt>
      <trkpt lat="41.21789" lon="-3.4733167"><ele>2594</ele><speed>26</speed><time>2016-10-08T14:17:35Z</time><course>212</course><type>18</type></trkpt>
      <trkpt lat="41.2178433" lon="-3.4733767"><ele>2595</ele><speed>26</speed><time>2016-10-08T14:17:36Z</time><course>236</course><type>18</type></trkpt>
      <trkpt lat="41.2178433" lon="-3.4734534"><ele>2595</ele><speed>29</speed><time>2016-10-08T14:17:37Z</time><course>271</course><type>18</type></trkpt>
      <trkpt lat="41.2178833" lon="-3.4735134"><ele>2595</ele><speed>29</speed><time>2016-10-08T14:17:38Z</time><course>306</course><type>18</type></trkpt>
      <trkpt lat="41.2179533" lon="-3.4735384"><ele>2594</ele><speed>30</speed><time>2016-10-08T14:17:39Z</time><course>345</course><type>18</type></trkpt>
      <trkpt lat="41.2180133" lon="-3.4735017"><ele>2595</ele><speed>28</speed><time>2016-10-08T14:17:40Z</time><course>24</course><type>18</type></trkpt>
      <trkpt lat="41.2180783" lon="-3.4733934"><ele>2596</ele><speed>43</speed><time>2016-10-08T14:17:41Z</time><course>55</course><type>18</type></trkpt>
      <trkpt lat="41.2181216" lon="-3.4732701"><ele>2597</ele><speed>42</speed><time>2016-10-08T14:17:42Z</time><course>63</course><type>18</type></trkpt>
      <trkpt lat="41.2181666" lon="-3.4731467"><ele>2598</ele><speed>40</speed><time>2016-10-08T14:17:43Z</time><course>63</course><type>18</type></trkpt>
      <trkpt lat="41.2182083" lon="-3.4730417"><ele>2599</ele><speed>35</speed><time>2016-10-08T14:17:44Z</time><course>62</course><type>18</type></trkpt>
      <trkpt lat="41.21825" lon="-3.4729484"><ele>2600</ele><speed>32</speed><time>2016-10-08T14:17:45Z</time><course>59</course><type>18</type></trkpt>
      <trkpt lat="41.2182916" lon="-3.4728517"><ele>2600</ele><speed>32</speed><time>2016-10-08T14:17:46Z</time><course>60</course><type>18</type></trkpt>
      <trkpt lat="41.218335" lon="-3.472735"><ele>2601</ele><speed>37</speed><time>2016-10-08T14:17:47Z</time><course>63</course><type>18</type></trkpt>
      <trkpt lat="41.2183733" lon="-3.47261"><ele>2602</ele><speed>39</speed><time>2016-10-08T14:17:48Z</time><course>69</course><type>18</type></trkpt>
      <trkpt lat="41.2184033" lon="-3.4724834"><ele>2603</ele><speed>40</speed><time>2016-10-08T14:17:49Z</time><course>70</course><type>18</type></trkpt>
      <trkpt lat="41.2184316" lon="-3.4723517"><ele>2604</ele><speed>41</speed><time>2016-10-08T14:17:50Z</time><course>69</course><type>18</type></trkpt>
      <trkpt lat="41.218405" lon="-3.4721917"><ele>2604</ele><speed>44</speed><time>2016-10-08T14:17:51Z</time><course>85</course><type>18</type></trkpt>
      <trkpt lat="41.2184283" lon="-3.4720417"><ele>2605</ele><speed>44</speed><time>2016-10-08T14:17:52Z</time><course>78</course><type>18</type></trkpt>
      <trkpt lat="41.218445" lon="-3.4718984"><ele>2606</ele><speed>43</speed><time>2016-10-08T14:17:53Z</time><course>76</course><type>18</type></trkpt>
      <trkpt lat="41.2184166" lon="-3.47178"><ele>2607</ele><speed>40</speed><time>2016-10-08T14:17:54Z</time><course>86</course><type>18</type></trkpt>
      <trkpt lat="41.2183083" lon="-3.4716967"><ele>2608</ele><speed>39</speed><time>2016-10-08T14:17:55Z</time><course>112</course><type>18</type></trkpt>
      <trkpt lat="41.21824" lon="-3.4715934"><ele>2608</ele><speed>37</speed><time>2016-10-08T14:17:56Z</time><course>117</course><type>18</type></trkpt>
      <trkpt lat="41.218175" lon="-3.4715217"><ele>2608</ele><speed>30</speed><time>2016-10-08T14:17:57Z</time><course>127</course><type>18</type></trkpt>
      <trkpt lat="41.21812" lon="-3.4714617"><ele>2609</ele><speed>26</speed><time>2016-10-08T14:17:58Z</time><course>128</course><type>18</type></trkpt>
      <trkpt lat="41.2179816" lon="-3.47138"><ele>2611</ele><speed>24</speed><time>2016-10-08T14:18:00Z</time><course>142</course><type>18</type></trkpt>
      <trkpt lat="41.217905" lon="-3.471375"><ele>2612</ele><speed>23</speed><time>2016-10-08T14:18:01Z</time><course>150</course><type>18</type></trkpt>
      <trkpt lat="41.2177766" lon="-3.4714517"><ele>2613</ele><speed>19</speed><time>2016-10-08T14:18:03Z</time><course>173</course><type>18</type></trkpt>
      <trkpt lat="41.2177283" lon="-3.4715384"><ele>2614</ele><speed>16</speed><time>2016-10-08T14:18:04Z</time><course>194</course><type>18</type></trkpt>
      <trkpt lat="41.2176866" lon="-3.4716567"><ele>2615</ele><speed>15</speed><time>2016-10-08T14:18:05Z</time><course>222</course><type>18</type></trkpt>
      <trkpt lat="41.2176416" lon="-3.471865"><ele>2616</ele><speed>16</speed><time>2016-10-08T14:18:07Z</time><course>256</course><type>18</type></trkpt>
      <trkpt lat="41.2176266" lon="-3.4720434"><ele>2618</ele><speed>18</speed><time>2016-10-08T14:18:09Z</time><course>265</course><type>18</type></trkpt>
      <trkpt lat="41.2175833" lon="-3.4721834"><ele>2618</ele><speed>27</speed><time>2016-10-08T14:18:10Z</time><course>250</course><type>18</type></trkpt>
      <trkpt lat="41.217545" lon="-3.47233"><ele>2620</ele><speed>20</speed><time>2016-10-08T14:18:12Z</time><course>255</course><type>18</type></trkpt>
      <trkpt lat="41.2176433" lon="-3.4723917"><ele>2621</ele><speed>11</speed><time>2016-10-08T14:18:14Z</time><course>315</course><type>18</type></trkpt>
      <trkpt lat="41.217735" lon="-3.472365"><ele>2621</ele><speed>14</speed><time>2016-10-08T14:18:15Z</time><course>358</course><type>18</type></trkpt>
      <trkpt lat="41.217885" lon="-3.4722884"><ele>2623</ele><speed>29</speed><time>2016-10-08T14:18:16Z</time><course>25</course><type>18</type></trkpt>
      <trkpt lat="41.2179683" lon="-3.4721784"><ele>2624</ele><speed>36</speed><time>2016-10-08T14:18:17Z</time><course>43</course><type>18</type></trkpt>
      <trkpt lat="41.2180516" lon="-3.4720717"><ele>2624</ele><speed>40</speed><time>2016-10-08T14:18:18Z</time><course>50</course><type>18</type></trkpt>
      <trkpt lat="41.2181133" lon="-3.4719534"><ele>2625</ele><speed>39</speed><time>2016-10-08T14:18:19Z</time><course>59</course><type>18</type></trkpt>
      <trkpt lat="41.2181533" lon="-3.47183"><ele>2626</ele><speed>37</speed><time>2016-10-08T14:18:20Z</time><course>72</course><type>18</type></trkpt>
      <trkpt lat="41.2181633" lon="-3.4716784"><ele>2627</ele><speed>41</speed><time>2016-10-08T14:18:21Z</time><course>84</course><type>18</type></trkpt>
      <trkpt lat="41.2181683" lon="-3.4715334"><ele>2628</ele><speed>42</speed><time>2016-10-08T14:18:22Z</time><course>91</course><type>18</type></trkpt>
      <trkpt lat="41.2181683" lon="-3.4713934"><ele>2630</ele><speed>43</speed><time>2016-10-08T14:18:23Z</time><course>94</course><type>18</type></trkpt>
      <trkpt lat="41.2181583" lon="-3.4712534"><ele>2631</ele><speed>43</speed><time>2016-10-08T14:18:24Z</time><course>96</course><type>18</type></trkpt>
      <trkpt lat="41.218135" lon="-3.4711084"><ele>2632</ele><speed>43</speed><time>2016-10-08T14:18:25Z</time><course>99</course><type>18</type></trkpt>
      <trkpt lat="41.2181316" lon="-3.4709717"><ele>2632</ele><speed>41</speed><time>2016-10-08T14:18:26Z</time><course>94</course><type>18</type></trkpt>
      <trkpt lat="41.2181133" lon="-3.4707834"><ele>2633</ele><speed>46</speed><time>2016-10-08T14:18:27Z</time><course>96</course><type>18</type></trkpt>
      <trkpt lat="41.2180483" lon="-3.4706417"><ele>2634</ele><speed>44</speed><time>2016-10-08T14:18:28Z</time><course>110</course><type>18</type></trkpt>
      <trkpt lat="41.2179916" lon="-3.4705167"><ele>2635</ele><speed>42</speed><time>2016-10-08T14:18:29Z</time><course>116</course><type>18</type></trkpt>
      <trkpt lat="41.2179566" lon="-3.4704184"><ele>2636</ele><speed>32</speed><time>2016-10-08T14:18:30Z</time><course>117</course><type>18</type></trkpt>
      <trkpt lat="41.2179166" lon="-3.4703367"><ele>2637</ele><speed>28</speed><time>2016-10-08T14:18:31Z</time><course>119</course><type>18</type></trkpt>
      <trkpt lat="41.2178383" lon="-3.47028"><ele>2639</ele><speed>17</speed><time>2016-10-08T14:18:33Z</time><course>133</course><type>18</type></trkpt>
      <trkpt lat="41.217775" lon="-3.4704017"><ele>2642</ele><speed>7</speed><time>2016-10-08T14:18:35Z</time><course>224</course><type>18</type></trkpt>
      <trkpt lat="41.217755" lon="-3.4705967"><ele>2647</ele><speed>16</speed><time>2016-10-08T14:18:37Z</time><course>293</course><type>18</type></trkpt>
      <trkpt lat="41.2177583" lon="-3.4707234"><ele>2649</ele><speed>21</speed><time>2016-10-08T14:18:38Z</time><course>299</course><type>18</type></trkpt>
      <trkpt lat="41.2178216" lon="-3.4708884"><ele>2652</ele><speed>33</speed><time>2016-10-08T14:18:40Z</time><course>305</course><type>18</type></trkpt>
      <trkpt lat="41.217875" lon="-3.4709851"><ele>2653</ele><speed>39</speed><time>2016-10-08T14:18:41Z</time><course>305</course><type>18</type></trkpt>
      <trkpt lat="41.2179783" lon="-3.4711784"><ele>2654</ele><speed>35</speed><time>2016-10-08T14:18:43Z</time><course>307</course><type>18</type></trkpt>
      <trkpt lat="41.2180266" lon="-3.4712917"><ele>2655</ele><speed>35</speed><time>2016-10-08T14:18:44Z</time><course>307</course><type>18</type></trkpt>
      <trkpt lat="41.218115" lon="-3.471415"><ele>2656</ele><speed>39</speed><time>2016-10-08T14:18:45Z</time><course>314</course><type>18</type></trkpt>
      <trkpt lat="41.2181833" lon="-3.4715334"><ele>2657</ele><speed>39</speed><time>2016-10-08T14:18:46Z</time><course>316</course><type>18</type></trkpt>
      <trkpt lat="41.21824" lon="-3.4716467"><ele>2658</ele><speed>38</speed><time>2016-10-08T14:18:47Z</time><course>317</course><type>18</type></trkpt>
      <trkpt lat="41.2182733" lon="-3.4715267"><ele>2659</ele><speed>20</speed><time>2016-10-08T14:18:49Z</time><course>346</course><type>18</type></trkpt>
      <trkpt lat="41.21832" lon="-3.471415"><ele>2661</ele><speed>22</speed><time>2016-10-08T14:18:50Z</time><course>15</course><type>18</type></trkpt>
      <trkpt lat="41.2183833" lon="-3.471315"><ele>2662</ele><speed>25</speed><time>2016-10-08T14:18:51Z</time><course>29</course><type>18</type></trkpt>
      <trkpt lat="41.2184316" lon="-3.471195"><ele>2663</ele><speed>26</speed><time>2016-10-08T14:18:52Z</time><course>45</course><type>18</type></trkpt>
      <trkpt lat="41.21845" lon="-3.471015"><ele>2664</ele><speed>32</speed><time>2016-10-08T14:18:53Z</time><course>63</course><type>18</type></trkpt>
      <trkpt lat="41.2183983" lon="-3.4707717"><ele>2665</ele><speed>38</speed><time>2016-10-08T14:18:54Z</time><course>91</course><type>18</type></trkpt>
      <trkpt lat="41.2183166" lon="-3.47055"><ele>2667</ele><speed>44</speed><time>2016-10-08T14:18:55Z</time><course>115</course><type>18</type></trkpt>
      <trkpt lat="41.218265" lon="-3.4703584"><ele>2668</ele><speed>45</speed><time>2016-10-08T14:18:56Z</time><course>119</course><type>18</type></trkpt>
      <trkpt lat="41.2182033" lon="-3.4702034"><ele>2670</ele><speed>44</speed><time>2016-10-08T14:18:57Z</time><course>123</course><type>18</type></trkpt>
      <trkpt lat="41.218135" lon="-3.4700434"><ele>2672</ele><speed>44</speed><time>2016-10-08T14:18:58Z</time><course>127</course><type>18</type></trkpt>
      <trkpt lat="41.2180633" lon="-3.4699334"><ele>2673</ele><speed>43</speed><time>2016-10-08T14:18:59Z</time><course>130</course><type>18</type></trkpt>
      <trkpt lat="41.217985" lon="-3.4698034"><ele>2674</ele><speed>46</speed><time>2016-10-08T14:19:00Z</time><course>128</course><type>18</type></trkpt>
      <trkpt lat="41.2179183" lon="-3.4696917"><ele>2675</ele><speed>44</speed><time>2016-10-08T14:19:01Z</time><course>128</course><type>18</type></trkpt>
      <trkpt lat="41.21787" lon="-3.4696034"><ele>2676</ele><speed>35</speed><time>2016-10-08T14:19:02Z</time><course>131</course><type>18</type></trkpt>
      <trkpt lat="41.21783" lon="-3.4695167"><ele>2677</ele><speed>27</speed><time>2016-10-08T14:19:03Z</time><course>130</course><type>18</type></trkpt>
      <trkpt lat="41.217775" lon="-3.469395"><ele>2679</ele><speed>20</speed><time>2016-10-08T14:19:05Z</time><course>128</course><type>18</type></trkpt>
      <trkpt lat="41.2178633" lon="-3.469305"><ele>2684</ele><speed>8</speed><time>2016-10-08T14:19:09Z</time><course>29</course><type>18</type></trkpt>
      <trkpt lat="41.2179916" lon="-3.4693684"><ele>2686</ele><speed>13</speed><time>2016-10-08T14:19:11Z</time><course>11</course><type>18</type></trkpt>
      <trkpt lat="41.218095" lon="-3.4693917"><ele>2688</ele><speed>16</speed><time>2016-10-08T14:19:13Z</time><course>8</course><type>18</type></trkpt>
      <trkpt lat="41.218225" lon="-3.4694651"><ele>2690</ele><speed>20</speed><time>2016-10-08T14:19:15Z</time><course>357</course><type>18</type></trkpt>
      <trkpt lat="41.2182933" lon="-3.46963"><ele>2691</ele><speed>22</speed><time>2016-10-08T14:19:16Z</time><course>353</course><type>18</type></trkpt>
      <trkpt lat="41.2184033" lon="-3.469835"><ele>2691</ele><speed>27</speed><time>2016-10-08T14:19:17Z</time><course>354</course><type>18</type></trkpt>
      <trkpt lat="41.2185733" lon="-3.4699"><ele>2692</ele><speed>40</speed><time>2016-10-08T14:19:18Z</time><course>357</course><type>18</type></trkpt>
      <trkpt lat="41.2186533" lon="-3.4699517"><ele>2693</ele><speed>38</speed><time>2016-10-08T14:19:19Z</time><course>0</course><type>18</type></trkpt>
      <trkpt lat="41.2187466" lon="-3.4698917"><ele>2693</ele><speed>25</speed><time>2016-10-08T14:19:21Z</time><course>14</course><type>18</type></trkpt>
      <trkpt lat="41.2187216" lon="-3.469785"><ele>2694</ele><speed>19</speed><time>2016-10-08T14:19:23Z</time><course>35</course><type>18</type></trkpt>
      <trkpt lat="41.2186466" lon="-3.46971"><ele>2696</ele><speed>8</speed><time>2016-10-08T14:19:25Z</time><course>143</course><type>18</type></trkpt>
      <trkpt lat="41.2184816" lon="-3.4696034"><ele>2698</ele><speed>19</speed><time>2016-10-08T14:19:27Z</time><course>173</course><type>18</type></trkpt>
      <trkpt lat="41.2183866" lon="-3.4695817"><ele>2699</ele><speed>21</speed><time>2016-10-08T14:19:28Z</time><course>179</course><type>18</type></trkpt>
      <trkpt lat="41.2182716" lon="-3.4695967"><ele>2700</ele><speed>23</speed><time>2016-10-08T14:19:29Z</time><course>188</course><type>18</type></trkpt>
      <trkpt lat="41.2181183" lon="-3.4696217"><ele>2702</ele><speed>22</speed><time>2016-10-08T14:19:31Z</time><course>192</course><type>18</type></trkpt>
      <trkpt lat="41.2180133" lon="-3.4695917"><ele>2703</ele><speed>24</speed><time>2016-10-08T14:19:32Z</time><course>186</course><type>18</type></trkpt>
      <trkpt lat="41.2178683" lon="-3.469565"><ele>2705</ele><speed>23</speed><time>2016-10-08T14:19:34Z</time><course>185</course><type>18</type></trkpt>
      <trkpt lat="41.2177333" lon="-3.4695084"><ele>2707</ele><speed>23</speed><time>2016-10-08T14:19:36Z</time><course>181</course><type>18</type></trkpt>
      <trkpt lat="41.217635" lon="-3.469505"><ele>2708</ele><speed>22</speed><time>2016-10-08T14:19:37Z</time><course>196</course><type>18</type></trkpt>
      <trkpt lat="41.2174883" lon="-3.4695534"><ele>2711</ele><speed>19</speed><time>2016-10-08T14:19:39Z</time><course>213</course><type>18</type></trkpt>
      <trkpt lat="41.217375" lon="-3.4696267"><ele>2714</ele><speed>4</speed><time>2016-10-08T14:19:41Z</time><course>230</course><type>18</type></trkpt>
      <trkpt lat="41.2174683" lon="-3.4695984"><ele>2716</ele><speed>14</speed><time>2016-10-08T14:19:44Z</time><course>40</course><type>18</type></trkpt>
      <trkpt lat="41.2176883" lon="-3.4694884"><ele>2720</ele><speed>35</speed><time>2016-10-08T14:19:46Z</time><course>45</course><type>18</type></trkpt>
      <trkpt lat="41.2177566" lon="-3.4694017"><ele>2720</ele><speed>40</speed><time>2016-10-08T14:19:47Z</time><course>48</course><type>18</type></trkpt>
      <trkpt lat="41.2177733" lon="-3.4692784"><ele>2721</ele><speed>47</speed><time>2016-10-08T14:19:48Z</time><course>63</course><type>18</type></trkpt>
      <trkpt lat="41.2177933" lon="-3.4691"><ele>2723</ele><speed>42</speed><time>2016-10-08T14:19:49Z</time><course>79</course><type>18</type></trkpt>
      <trkpt lat="41.2178" lon="-3.46894"><ele>2724</ele><speed>42</speed><time>2016-10-08T14:19:50Z</time><course>94</course><type>18</type></trkpt>
      <trkpt lat="41.2177883" lon="-3.468785"><ele>2724</ele><speed>46</speed><time>2016-10-08T14:19:51Z</time><course>102</course><type>18</type></trkpt>
      <trkpt lat="41.2177566" lon="-3.4686384"><ele>2723</ele><speed>46</speed><time>2016-10-08T14:19:52Z</time><course>106</course><type>18</type></trkpt>
      <trkpt lat="41.2177233" lon="-3.4685017"><ele>2722</ele><speed>45</speed><time>2016-10-08T14:19:53Z</time><course>109</course><type>18</type></trkpt>
      <trkpt lat="41.2176833" lon="-3.4683584"><ele>2722</ele><speed>45</speed><time>2016-10-08T14:19:54Z</time><course>115</course><type>18</type></trkpt>
      <trkpt lat="41.217635" lon="-3.4682234"><ele>2722</ele><speed>45</speed><time>2016-10-08T14:19:55Z</time><course>118</course><type>18</type></trkpt>
      <trkpt lat="41.21761" lon="-3.4681017"><ele>2721</ele><speed>45</speed><time>2016-10-08T14:19:56Z</time><course>121</course><type>18</type></trkpt>
      <trkpt lat="41.2175733" lon="-3.46801"><ele>2721</ele><speed>42</speed><time>2016-10-08T14:19:57Z</time><course>123</course><type>18</type></trkpt>
      <trkpt lat="41.217485" lon="-3.46803"><ele>2720</ele><speed>22</speed><time>2016-10-08T14:20:01Z</time><course>162</course><type>18</type></trkpt>
      <trkpt lat="41.217465" lon="-3.4681617"><ele>2720</ele><speed>20</speed><time>2016-10-08T14:20:02Z</time><course>184</course><type>18</type></trkpt>
      <trkpt lat="41.21744" lon="-3.4683184"><ele>2719</ele><speed>16</speed><time>2016-10-08T14:20:04Z</time><course>218</course><type>18</type></trkpt>
      <trkpt lat="41.2174916" lon="-3.468505"><ele>2719</ele><speed>21</speed><time>2016-10-08T14:20:06Z</time><course>265</course><type>18</type></trkpt>
      <trkpt lat="41.2174883" lon="-3.4686484"><ele>2718</ele><speed>21</speed><time>2016-10-08T14:20:08Z</time><course>258</course><type>18</type></trkpt>
      <trkpt lat="41.2175133" lon="-3.4687484"><ele>2718</ele><speed>5</speed><time>2016-10-08T14:20:13Z</time><course>328</course><type>18</type></trkpt>
      <trkpt lat="41.2176033" lon="-3.46875"><ele>2718</ele><speed>11</speed><time>2016-10-08T14:20:14Z</time><course>358</course><type>18</type></trkpt>
      <trkpt lat="41.2177616" lon="-3.4687317"><ele>2718</ele><speed>25</speed><time>2016-10-08T14:20:15Z</time><course>10</course><type>18</type></trkpt>
      <trkpt lat="41.2178683" lon="-3.4686867"><ele>2718</ele><speed>36</speed><time>2016-10-08T14:20:16Z</time><course>24</course><type>18</type></trkpt>
      <trkpt lat="41.2179583" lon="-3.4686367"><ele>2719</ele><speed>41</speed><time>2016-10-08T14:20:17Z</time><course>35</course><type>18</type></trkpt>
      <trkpt lat="41.2180316" lon="-3.4685534"><ele>2719</ele><speed>43</speed><time>2016-10-08T14:20:18Z</time><course>43</course><type>18</type></trkpt>
      <trkpt lat="41.2181016" lon="-3.4684467"><ele>2720</ele><speed>42</speed><time>2016-10-08T14:20:19Z</time><course>49</course><type>18</type></trkpt>
      <trkpt lat="41.2181616" lon="-3.468325"><ele>2720</ele><speed>41</speed><time>2016-10-08T14:20:20Z</time><course>57</course><type>18</type></trkpt>
      <trkpt lat="41.21822" lon="-3.4681717"><ele>2721</ele><speed>46</speed><time>2016-10-08T14:20:21Z</time><course>76</course><type>18</type></trkpt>
      <trkpt lat="41.2182983" lon="-3.468025"><ele>2724</ele><speed>54</speed><time>2016-10-08T14:20:22Z</time><course>96</course><type>18</type></trkpt>
      <trkpt lat="41.2183283" lon="-3.4678917"><ele>2727</ele><speed>41</speed><time>2016-10-08T14:20:23Z</time><course>108</course><type>18</type></trkpt>
      <trkpt lat="41.218335" lon="-3.46776"><ele>2729</ele><speed>36</speed><time>2016-10-08T14:20:24Z</time><course>110</course><type>18</type></trkpt>
      <trkpt lat="41.2183383" lon="-3.4676484"><ele>2731</ele><speed>39</speed><time>2016-10-08T14:20:25Z</time><course>117</course><type>18</type></trkpt>
      <trkpt lat="41.2183166" lon="-3.4675334"><ele>2733</ele><speed>42</speed><time>2016-10-08T14:20:26Z</time><course>121</course><type>18</type></trkpt>
      <trkpt lat="41.2182833" lon="-3.4674184"><ele>2734</ele><speed>42</speed><time>2016-10-08T14:20:27Z</time><course>123</course><type>18</type></trkpt>
      <trkpt lat="41.2182233" lon="-3.4673017"><ele>2736</ele><speed>44</speed><time>2016-10-08T14:20:28Z</time><course>126</course><type>18</type></trkpt>
      <trkpt lat="41.218145" lon="-3.4672167"><ele>2736</ele><speed>44</speed><time>2016-10-08T14:20:29Z</time><course>141</course><type>18</type></trkpt>
      <trkpt lat="41.2180616" lon="-3.4671217"><ele>2737</ele><speed>43</speed><time>2016-10-08T14:20:30Z</time><course>145</course><type>18</type></trkpt>
      <trkpt lat="41.21797" lon="-3.4670517"><ele>2737</ele><speed>43</speed><time>2016-10-08T14:20:31Z</time><course>150</course><type>18</type></trkpt>
      <trkpt lat="41.21786" lon="-3.4670184"><ele>2738</ele><speed>46</speed><time>2016-10-08T14:20:32Z</time><course>162</course><type>18</type></trkpt>
      <trkpt lat="41.2177566" lon="-3.4669984"><ele>2738</ele><speed>45</speed><time>2016-10-08T14:20:33Z</time><course>168</course><type>18</type></trkpt>
      <trkpt lat="41.2176733" lon="-3.46699"><ele>2738</ele><speed>40</speed><time>2016-10-08T14:20:34Z</time><course>169</course><type>18</type></trkpt>
      <trkpt lat="41.2175966" lon="-3.4670001"><ele>2739</ele><speed>38</speed><time>2016-10-08T14:20:35Z</time><course>171</course><type>18</type></trkpt>
      <trkpt lat="41.2175483" lon="-3.4670417"><ele>2739</ele><speed>32</speed><time>2016-10-08T14:20:36Z</time><course>176</course><type>18</type></trkpt>
      <trkpt lat="41.21748" lon="-3.4671334"><ele>2740</ele><speed>23</speed><time>2016-10-08T14:20:38Z</time><course>191</course><type>18</type></trkpt>
      <trkpt lat="41.2174266" lon="-3.4672317"><ele>2741</ele><speed>19</speed><time>2016-10-08T14:20:40Z</time><course>200</course><type>18</type></trkpt>
      <trkpt lat="41.217335" lon="-3.467235"><ele>2741</ele><speed>17</speed><time>2016-10-08T14:20:43Z</time><course>154</course><type>18</type></trkpt>
      <trkpt lat="41.2171866" lon="-3.4672534"><ele>2741</ele><speed>23</speed><time>2016-10-08T14:20:45Z</time><course>176</course><type>18</type></trkpt>
      <trkpt lat="41.2170933" lon="-3.4673151"><ele>2742</ele><speed>18</speed><time>2016-10-08T14:20:47Z</time><course>183</course><type>18</type></trkpt>
      <trkpt lat="41.2172033" lon="-3.4674884"><ele>2743</ele><speed>7</speed><time>2016-10-08T14:20:50Z</time><course>346</course><type>18</type></trkpt>
      <trkpt lat="41.21731" lon="-3.4675517"><ele>2745</ele><speed>14</speed><time>2016-10-08T14:20:52Z</time><course>0</course><type>18</type></trkpt>
      <trkpt lat="41.2174433" lon="-3.4676017"><ele>2747</ele><speed>22</speed><time>2016-10-08T14:20:54Z</time><course>7</course><type>18</type></trkpt>
      <trkpt lat="41.2176083" lon="-3.4676084"><ele>2748</ele><speed>25</speed><time>2016-10-08T14:20:56Z</time><course>6</course><type>18</type></trkpt>
      <trkpt lat="41.2177616" lon="-3.4675667"><ele>2748</ele><speed>27</speed><time>2016-10-08T14:20:58Z</time><course>12</course><type>18</type></trkpt>
      <trkpt lat="41.2179383" lon="-3.4675417"><ele>2749</ele><speed>29</speed><time>2016-10-08T14:21:00Z</time><course>8</course><type>18</type></trkpt>
      <trkpt lat="41.2180266" lon="-3.4675834"><ele>2749</ele><speed>27</speed><time>2016-10-08T14:21:01Z</time><course>354</course><type>18</type></trkpt>
      <trkpt lat="41.218155" lon="-3.4675967"><ele>2749</ele><speed>33</speed><time>2016-10-08T14:21:02Z</time><course>1</course><type>18</type></trkpt>
      <trkpt lat="41.21834" lon="-3.467565"><ele>2750</ele><speed>40</speed><time>2016-10-08T14:21:04Z</time><course>12</course><type>18</type></trkpt>
      <trkpt lat="41.2184366" lon="-3.4675267"><ele>2751</ele><speed>40</speed><time>2016-10-08T14:21:05Z</time><course>13</course><type>18</type></trkpt>
      <trkpt lat="41.218515" lon="-3.4674617"><ele>2751</ele><speed>38</speed><time>2016-10-08T14:21:06Z</time><course>15</course><type>18</type></trkpt>
      <trkpt lat="41.2186" lon="-3.4674051"><ele>2751</ele><speed>37</speed><time>2016-10-08T14:21:07Z</time><course>16</course><type>18</type></trkpt>
      <trkpt lat="41.2187016" lon="-3.467365"><ele>2751</ele><speed>38</speed><time>2016-10-08T14:21:08Z</time><course>14</course><type>18</type></trkpt>
      <trkpt lat="41.21886" lon="-3.46729"><ele>2752</ele><speed>38</speed><time>2016-10-08T14:21:10Z</time><course>12</course><type>18</type></trkpt>
      <trkpt lat="41.2189616" lon="-3.4672417"><ele>2752</ele><speed>42</speed><time>2016-10-08T14:21:11Z</time><course>15</course><type>18</type></trkpt>
      <trkpt lat="41.2190716" lon="-3.46712"><ele>2752</ele><speed>51</speed><time>2016-10-08T14:21:12Z</time><course>21</course><type>18</type></trkpt>
      <trkpt lat="41.219165" lon="-3.4670134"><ele>2753</ele><speed>49</speed><time>2016-10-08T14:21:13Z</time><course>21</course><type>18</type></trkpt>
      <trkpt lat="41.21926" lon="-3.466905"><ele>2753</ele><speed>48</speed><time>2016-10-08T14:21:14Z</time><course>23</course><type>18</type></trkpt>
      <trkpt lat="41.2193266" lon="-3.466785"><ele>2753</ele><speed>47</speed><time>2016-10-08T14:21:15Z</time><course>27</course><type>18</type></trkpt>
      <trkpt lat="41.2193983" lon="-3.4666217"><ele>2753</ele><speed>48</speed><time>2016-10-08T14:21:16Z</time><course>37</course><type>18</type></trkpt>
      <trkpt lat="41.2194866" lon="-3.46653"><ele>2753</ele><speed>47</speed><time>2016-10-08T14:21:17Z</time><course>32</course><type>18</type></trkpt>
      <trkpt lat="41.2195966" lon="-3.4664584"><ele>2753</ele><speed>45</speed><time>2016-10-08T14:21:18Z</time><course>28</course><type>18</type></trkpt>
      <trkpt lat="41.2197483" lon="-3.46643"><ele>2754</ele><speed>44</speed><time>2016-10-08T14:21:19Z</time><course>22</course><type>18</type></trkpt>
      <trkpt lat="41.2198816" lon="-3.4664067"><ele>2754</ele><speed>42</speed><time>2016-10-08T14:21:20Z</time><course>18</course><type>18</type></trkpt>
      <trkpt lat="41.21999" lon="-3.466375"><ele>2754</ele><speed>40</speed><time>2016-10-08T14:21:21Z</time><course>16</course><type>18</type></trkpt>
      <trkpt lat="41.2200883" lon="-3.4663484"><ele>2755</ele><speed>38</speed><time>2016-10-08T14:21:22Z</time><course>12</course><type>18</type></trkpt>
      <trkpt lat="41.2201883" lon="-3.4663334"><ele>2755</ele><speed>38</speed><time>2016-10-08T14:21:23Z</time><course>8</course><type>18</type></trkpt>
      <trkpt lat="41.2202866" lon="-3.466315"><ele>2755</ele><speed>37</speed><time>2016-10-08T14:21:24Z</time><course>7</course><type>18</type></trkpt>
      <trkpt lat="41.2203866" lon="-3.466305"><ele>2756</ele><speed>37</speed><time>2016-10-08T14:21:25Z</time><course>5</course><type>18</type></trkpt>
      <trkpt lat="41.2204983" lon="-3.4662884"><ele>2756</ele><speed>38</speed><time>2016-10-08T14:21:26Z</time><course>7</course><type>18</type></trkpt>
      <trkpt lat="41.2205916" lon="-3.4662917"><ele>2756</ele><speed>39</speed><time>2016-10-08T14:21:27Z</time><course>9</course><type>18</type></trkpt>
      <trkpt lat="41.2206949" lon="-3.4662834"><ele>2757</ele><speed>40</speed><time>2016-10-08T14:21:28Z</time><course>8</course><type>18</type></trkpt>
      <trkpt lat="41.2208683" lon="-3.4662967"><ele>2757</ele><speed>38</speed><time>2016-10-08T14:21:30Z</time><course>3</course><type>18</type></trkpt>
      <trkpt lat="41.2209766" lon="-3.466275"><ele>2758</ele><speed>39</speed><time>2016-10-08T14:21:31Z</time><course>5</course><type>18</type></trkpt>
      <trkpt lat="41.22108" lon="-3.4662384"><ele>2758</ele><speed>40</speed><time>2016-10-08T14:21:32Z</time><course>8</course><type>18</type></trkpt>
      <trkpt lat="41.22118" lon="-3.4662234"><ele>2758</ele><speed>39</speed><time>2016-10-08T14:21:33Z</time><course>7</course><type>18</type></trkpt>
      <trkpt lat="41.221435" lon="-3.4662317"><ele>2759</ele><speed>42</speed><time>2016-10-08T14:21:35Z</time><course>4</course><type>18</type></trkpt>
      <trkpt lat="41.2215183" lon="-3.466165"><ele>2759</ele><speed>40</speed><time>2016-10-08T14:21:36Z</time><course>11</course><type>18</type></trkpt>
      <trkpt lat="41.2216933" lon="-3.4661084"><ele>2759</ele><speed>39</speed><time>2016-10-08T14:21:38Z</time><course>10</course><type>18</type></trkpt>
      <trkpt lat="41.2217933" lon="-3.4660834"><ele>2759</ele><speed>38</speed><time>2016-10-08T14:21:39Z</time><course>10</course><type>18</type></trkpt>
      <trkpt lat="41.2218983" lon="-3.466045"><ele>2760</ele><speed>39</speed><time>2016-10-08T14:21:40Z</time><course>11</course><type>18</type></trkpt>
      <trkpt lat="41.2220233" lon="-3.4659984"><ele>2760</ele><speed>42</speed><time>2016-10-08T14:21:41Z</time><course>13</course><type>18</type></trkpt>
      <trkpt lat="41.2221366" lon="-3.4659467"><ele>2760</ele><speed>43</speed><time>2016-10-08T14:21:42Z</time><course>15</course><type>18</type></trkpt>
      <trkpt lat="41.2222583" lon="-3.4659067"><ele>2760</ele><speed>44</speed><time>2016-10-08T14:21:43Z</time><course>15</course><type>18</type></trkpt>
      <trkpt lat="41.2223683" lon="-3.4658867"><ele>2761</ele><speed>46</speed><time>2016-10-08T14:21:44Z</time><course>16</course><type>18</type></trkpt>
      <trkpt lat="41.2224933" lon="-3.4658517"><ele>2761</ele><speed>49</speed><time>2016-10-08T14:21:45Z</time><course>16</course><type>18</type></trkpt>
      <trkpt lat="41.22265" lon="-3.46581"><ele>2762</ele><speed>55</speed><time>2016-10-08T14:21:46Z</time><course>16</course><type>18</type></trkpt>
      <trkpt lat="41.22278" lon="-3.4657501"><ele>2763</ele><speed>52</speed><time>2016-10-08T14:21:47Z</time><course>19</course><type>18</type></trkpt>
      <trkpt lat="41.2228999" lon="-3.4656884"><ele>2763</ele><speed>52</speed><time>2016-10-08T14:21:48Z</time><course>19</course><type>18</type></trkpt>
      <trkpt lat="41.2230066" lon="-3.4656234"><ele>2763</ele><speed>51</speed><time>2016-10-08T14:21:49Z</time><course>20</course><type>18</type></trkpt>
      <trkpt lat="41.223105" lon="-3.4655484"><ele>2763</ele><speed>51</speed><time>2016-10-08T14:21:50Z</time><course>22</course><type>18</type></trkpt>
      <trkpt lat="41.2232083" lon="-3.465415"><ele>2763</ele><speed>52</speed><time>2016-10-08T14:21:51Z</time><course>34</course><type>18</type></trkpt>
      <trkpt lat="41.2233283" lon="-3.4653034"><ele>2764</ele><speed>52</speed><time>2016-10-08T14:21:52Z</time><course>31</course><type>18</type></trkpt>
      <trkpt lat="41.2234583" lon="-3.4652334"><ele>2764</ele><speed>51</speed><time>2016-10-08T14:21:53Z</time><course>27</course><type>18</type></trkpt>
      <trkpt lat="41.2235766" lon="-3.4651767"><ele>2764</ele><speed>47</speed><time>2016-10-08T14:21:54Z</time><course>23</course><type>18</type></trkpt>
      <trkpt lat="41.2236883" lon="-3.4651417"><ele>2765</ele><speed>44</speed><time>2016-10-08T14:21:55Z</time><course>20</course><type>18</type></trkpt>
      <trkpt lat="41.2237816" lon="-3.4651067"><ele>2765</ele><speed>42</speed><time>2016-10-08T14:21:56Z</time><course>18</course><type>18</type></trkpt>
      <trkpt lat="41.22388" lon="-3.46507"><ele>2765</ele><speed>40</speed><time>2016-10-08T14:21:57Z</time><course>17</course><type>18</type></trkpt>
      <trkpt lat="41.2239733" lon="-3.4650334"><ele>2766</ele><speed>40</speed><time>2016-10-08T14:21:58Z</time><course>15</course><type>18</type></trkpt>
      <trkpt lat="41.2240716" lon="-3.4650017"><ele>2766</ele><speed>40</speed><time>2016-10-08T14:21:59Z</time><course>15</course><type>18</type></trkpt>
      <trkpt lat="41.2241533" lon="-3.4649784"><ele>2767</ele><speed>41</speed><time>2016-10-08T14:22:00Z</time><course>12</course><type>18</type></trkpt>
      <trkpt lat="41.2242433" lon="-3.464965"><ele>2767</ele><speed>42</speed><time>2016-10-08T14:22:01Z</time><course>11</course><type>18</type></trkpt>
      <trkpt lat="41.2243316" lon="-3.4649584"><ele>2767</ele><speed>43</speed><time>2016-10-08T14:22:02Z</time><course>14</course><type>18</type></trkpt>
      <trkpt lat="41.2244033" lon="-3.46497"><ele>2768</ele><speed>42</speed><time>2016-10-08T14:22:03Z</time><course>13</course><type>18</type></trkpt>
      <trkpt lat="41.2245133" lon="-3.4649467"><ele>2768</ele><speed>45</speed><time>2016-10-08T14:22:04Z</time><course>12</course><type>18</type></trkpt>
      <trkpt lat="41.2246099" lon="-3.4649117"><ele>2769</ele><speed>43</speed><time>2016-10-08T14:22:05Z</time><course>14</course><type>18</type></trkpt>
      <trkpt lat="41.224705" lon="-3.4648434"><ele>2769</ele><speed>44</speed><time>2016-10-08T14:22:06Z</time><course>17</course><type>18</type></trkpt>
      <trkpt lat="41.2248066" lon="-3.4647067"><ele>2770</ele><speed>47</speed><time>2016-10-08T14:22:07Z</time><course>33</course><type>18</type></trkpt>
      <trkpt lat="41.2249433" lon="-3.4646117"><ele>2770</ele><speed>51</speed><time>2016-10-08T14:22:08Z</time><course>28</course><type>18</type></trkpt>
      <trkpt lat="41.2250733" lon="-3.4646234"><ele>2770</ele><speed>50</speed><time>2016-10-08T14:22:09Z</time><course>15</course><type>18</type></trkpt>
      <trkpt lat="41.2251833" lon="-3.4646134"><ele>2770</ele><speed>49</speed><time>2016-10-08T14:22:10Z</time><course>11</course><type>18</type></trkpt>
      <trkpt lat="41.2252849" lon="-3.4646117"><ele>2770</ele><speed>47</speed><time>2016-10-08T14:22:11Z</time><course>7</course><type>18</type></trkpt>
      <trkpt lat="41.225395" lon="-3.4646017"><ele>2771</ele><speed>46</speed><time>2016-10-08T14:22:12Z</time><course>7</course><type>18</type></trkpt>
      <trkpt lat="41.2255016" lon="-3.4646017"><ele>2771</ele><speed>45</speed><time>2016-10-08T14:22:13Z</time><course>7</course><type>18</type></trkpt>
      <trkpt lat="41.2256066" lon="-3.464595"><ele>2771</ele><speed>45</speed><time>2016-10-08T14:22:14Z</time><course>7</course><type>18</type></trkpt>
      <trkpt lat="41.2257116" lon="-3.4645917"><ele>2771</ele><speed>45</speed><time>2016-10-08T14:22:15Z</time><course>6</course><type>18</type></trkpt>
      <trkpt lat="41.2258166" lon="-3.46461"><ele>2772</ele><speed>49</speed><time>2016-10-08T14:22:16Z</time><course>6</course><type>18</type></trkpt>
      <trkpt lat="41.2258916" lon="-3.464665"><ele>2772</ele><speed>50</speed><time>2016-10-08T14:22:17Z</time><course>7</course><type>18</type></trkpt>
      <trkpt lat="41.2260033" lon="-3.4646584"><ele>2772</ele><speed>52</speed><time>2016-10-08T14:22:18Z</time><course>10</course><type>18</type></trkpt>
      <trkpt lat="41.2261216" lon="-3.4646567"><ele>2773</ele><speed>54</speed><time>2016-10-08T14:22:19Z</time><course>359</course><type>18</type></trkpt>
      <trkpt lat="41.2262466" lon="-3.4646617"><ele>2773</ele><speed>53</speed><time>2016-10-08T14:22:20Z</time><course>359</course><type>18</type></trkpt>
      <trkpt lat="41.2263766" lon="-3.464655"><ele>2773</ele><speed>53</speed><time>2016-10-08T14:22:21Z</time><course>1</course><type>18</type></trkpt>
      <trkpt lat="41.2264916" lon="-3.4646484"><ele>2773</ele><speed>52</speed><time>2016-10-08T14:22:22Z</time><course>1</course><type>18</type></trkpt>
      <trkpt lat="41.2266066" lon="-3.46463"><ele>2774</ele><speed>50</speed><time>2016-10-08T14:22:23Z</time><course>3</course><type>18</type></trkpt>
      <trkpt lat="41.2267183" lon="-3.4646167"><ele>2774</ele><speed>49</speed><time>2016-10-08T14:22:24Z</time><course>4</course><type>18</type></trkpt>
      <trkpt lat="41.2268566" lon="-3.4646417"><ele>2774</ele><speed>49</speed><time>2016-10-08T14:22:25Z</time><course>0</course><type>18</type></trkpt>
      <trkpt lat="41.2269466" lon="-3.4645617"><ele>2774</ele><speed>48</speed><time>2016-10-08T14:22:26Z</time><course>10</course><type>18</type></trkpt>
      <trkpt lat="41.2270483" lon="-3.4644867"><ele>2774</ele><speed>50</speed><time>2016-10-08T14:22:27Z</time><course>14</course><type>18</type></trkpt>
      <trkpt lat="41.2271416" lon="-3.4644234"><ele>2773</ele><speed>51</speed><time>2016-10-08T14:22:28Z</time><course>13</course><type>18</type></trkpt>
      <trkpt lat="41.2272566" lon="-3.4643567"><ele>2773</ele><speed>54</speed><time>2016-10-08T14:22:29Z</time><course>12</course><type>18</type></trkpt>
      <trkpt lat="41.2273883" lon="-3.4643084"><ele>2772</ele><speed>56</speed><time>2016-10-08T14:22:30Z</time><course>12</course><type>18</type></trkpt>
      <trkpt lat="41.2275166" lon="-3.46426"><ele>2772</ele><speed>58</speed><time>2016-10-08T14:22:31Z</time><course>14</course><type>18</type></trkpt>
      <trkpt lat="41.2276433" lon="-3.4642"><ele>2771</ele><speed>58</speed><time>2016-10-08T14:22:32Z</time><course>15</course><type>18</type></trkpt>
      <trkpt lat="41.2277583" lon="-3.4641434"><ele>2770</ele><speed>55</speed><time>2016-10-08T14:22:33Z</time><course>16</course><type>18</type></trkpt>
      <trkpt lat="41.2278749" lon="-3.46409"><ele>2770</ele><speed>52</speed><time>2016-10-08T14:22:34Z</time><course>16</course><type>18</type></trkpt>
      <trkpt lat="41.22799" lon="-3.4640384"><ele>2769</ele><speed>51</speed><time>2016-10-08T14:22:35Z</time><course>15</course><type>18</type></trkpt>
      <trkpt lat="41.22811" lon="-3.4639984"><ele>2769</ele><speed>52</speed><time>2016-10-08T14:22:36Z</time><course>11</course><type>18</type></trkpt>
      <trkpt lat="41.2282283" lon="-3.4639684"><ele>2768</ele><speed>53</speed><time>2016-10-08T14:22:37Z</time><course>7</course><type>18</type></trkpt>
      <trkpt lat="41.2283383" lon="-3.463945"><ele>2768</ele><speed>50</speed><time>2016-10-08T14:22:38Z</time><course>7</course><type>18</type></trkpt>
      <trkpt lat="41.2284466" lon="-3.46392"><ele>2767</ele><speed>47</speed><time>2016-10-08T14:22:39Z</time><course>7</course><type>18</type></trkpt>
      <trkpt lat="41.2285166" lon="-3.463915"><ele>2767</ele><speed>38</speed><time>2016-10-08T14:22:40Z</time><course>359</course><type>18</type></trkpt>
      <trkpt lat="41.2285983" lon="-3.4638734"><ele>2767</ele><speed>37</speed><time>2016-10-08T14:22:41Z</time><course>4</course><type>18</type></trkpt>
      <trkpt lat="41.228655" lon="-3.46377"><ele>2767</ele><speed>35</speed><time>2016-10-08T14:22:42Z</time><course>19</course><type>18</type></trkpt>
      <trkpt lat="41.22877" lon="-3.46372"><ele>2766</ele><speed>40</speed><time>2016-10-08T14:22:43Z</time><course>16</course><type>18</type></trkpt>
      <trkpt lat="41.2289" lon="-3.463675"><ele>2766</ele><speed>45</speed><time>2016-10-08T14:22:44Z</time><course>14</course><type>18</type></trkpt>
      <trkpt lat="41.229015" lon="-3.46363"><ele>2766</ele><speed>47</speed><time>2016-10-08T14:22:45Z</time><course>15</course><type>18</type></trkpt>
      <trkpt lat="41.2291433" lon="-3.4635784"><ele>2765</ele><speed>50</speed><time>2016-10-08T14:22:46Z</time><course>15</course><type>18</type></trkpt>
      <trkpt lat="41.2292816" lon="-3.46352"><ele>2765</ele><speed>52</speed><time>2016-10-08T14:22:47Z</time><course>12</course><type>18</type></trkpt>
      <trkpt lat="41.229415" lon="-3.4634684"><ele>2764</ele><speed>51</speed><time>2016-10-08T14:22:48Z</time><course>12</course><type>18</type></trkpt>
      <trkpt lat="41.2295633" lon="-3.4634334"><ele>2764</ele><speed>50</speed><time>2016-10-08T14:22:49Z</time><course>11</course><type>18</type></trkpt>
      <trkpt lat="41.2297033" lon="-3.4633751"><ele>2764</ele><speed>51</speed><time>2016-10-08T14:22:50Z</time><course>12</course><type>18</type></trkpt>
      <trkpt lat="41.2298549" lon="-3.4632967"><ele>2763</ele><speed>55</speed><time>2016-10-08T14:22:51Z</time><course>16</course><type>18</type></trkpt>
      <trkpt lat="41.2299983" lon="-3.4632467"><ele>2763</ele><speed>55</speed><time>2016-10-08T14:22:52Z</time><course>14</course><type>18</type></trkpt>
      <trkpt lat="41.2301283" lon="-3.463205"><ele>2763</ele><speed>53</speed><time>2016-10-08T14:22:53Z</time><course>9</course><type>18</type></trkpt>
      <trkpt lat="41.2302566" lon="-3.4631784"><ele>2762</ele><speed>55</speed><time>2016-10-08T14:22:54Z</time><course>10</course><type>18</type></trkpt>
      <trkpt lat="41.2303783" lon="-3.4631384"><ele>2762</ele><speed>52</speed><time>2016-10-08T14:22:55Z</time><course>12</course><type>18</type></trkpt>
      <trkpt lat="41.2304983" lon="-3.46308"><ele>2762</ele><speed>53</speed><time>2016-10-08T14:22:56Z</time><course>15</course><type>18</type></trkpt>
      <trkpt lat="41.2306233" lon="-3.46303"><ele>2761</ele><speed>52</speed><time>2016-10-08T14:22:57Z</time><course>15</course><type>18</type></trkpt>
      <trkpt lat="41.2307466" lon="-3.4629784"><ele>2761</ele><speed>52</speed><time>2016-10-08T14:22:58Z</time><course>16</course><type>18</type></trkpt>
      <trkpt lat="41.2308833" lon="-3.4628817"><ele>2761</ele><speed>56</speed><time>2016-10-08T14:22:59Z</time><course>21</course><type>18</type></trkpt>
      <trkpt lat="41.2310033" lon="-3.4628234"><ele>2761</ele><speed>56</speed><time>2016-10-08T14:23:00Z</time><course>19</course><type>18</type></trkpt>
      <trkpt lat="41.2311266" lon="-3.4627817"><ele>2761</ele><speed>55</speed><time>2016-10-08T14:23:01Z</time><course>15</course><type>18</type></trkpt>
      <trkpt lat="41.2312433" lon="-3.4627634"><ele>2761</ele><speed>52</speed><time>2016-10-08T14:23:02Z</time><course>11</course><type>18</type></trkpt>
      <trkpt lat="41.2313816" lon="-3.462735"><ele>2760</ele><speed>53</speed><time>2016-10-08T14:23:03Z</time><course>8</course><type>18</type></trkpt>
      <trkpt lat="41.2315133" lon="-3.4627034"><ele>2760</ele><speed>53</speed><time>2016-10-08T14:23:04Z</time><course>8</course><type>18</type></trkpt>
      <trkpt lat="41.2316483" lon="-3.462675"><ele>2760</ele><speed>55</speed><time>2016-10-08T14:23:05Z</time><course>9</course><type>18</type></trkpt>
      <trkpt lat="41.231785" lon="-3.4626484"><ele>2759</ele><speed>57</speed><time>2016-10-08T14:23:06Z</time><course>10</course><type>18</type></trkpt>
      <trkpt lat="41.2319183" lon="-3.462615"><ele>2759</ele><speed>57</speed><time>2016-10-08T14:23:07Z</time><course>10</course><type>18</type></trkpt>
      <trkpt lat="41.2320466" lon="-3.4625884"><ele>2759</ele><speed>55</speed><time>2016-10-08T14:23:08Z</time><course>7</course><type>18</type></trkpt>
      <trkpt lat="41.23217" lon="-3.4625584"><ele>2758</ele><speed>54</speed><time>2016-10-08T14:23:09Z</time><course>7</course><type>18</type></trkpt>
      <trkpt lat="41.23231" lon="-3.4625384"><ele>2758</ele><speed>59</speed><time>2016-10-08T14:23:10Z</time><course>7</course><type>18</type></trkpt>
      <trkpt lat="41.23245" lon="-3.4625234"><ele>2757</ele><speed>59</speed><time>2016-10-08T14:23:11Z</time><course>4</course><type>18</type></trkpt>
      <trkpt lat="41.2325916" lon="-3.4624934"><ele>2757</ele><speed>59</speed><time>2016-10-08T14:23:12Z</time><course>8</course><type>18</type></trkpt>
      <trkpt lat="41.2327333" lon="-3.4624434"><ele>2757</ele><speed>60</speed><time>2016-10-08T14:23:13Z</time><course>11</course><type>18</type></trkpt>
      <trkpt lat="41.232875" lon="-3.462365"><ele>2757</ele><speed>62</speed><time>2016-10-08T14:23:14Z</time><course>13</course><type>18</type></trkpt>
      <trkpt lat="41.23301" lon="-3.4622484"><ele>2756</ele><speed>63</speed><time>2016-10-08T14:23:15Z</time><course>18</course><type>18</type></trkpt>
      <trkpt lat="41.2331416" lon="-3.46215"><ele>2756</ele><speed>62</speed><time>2016-10-08T14:23:16Z</time><course>21</course><type>18</type></trkpt>
      <trkpt lat="41.233275" lon="-3.4620834"><ele>2756</ele><speed>60</speed><time>2016-10-08T14:23:17Z</time><course>19</course><type>18</type></trkpt>
      <trkpt lat="41.2333983" lon="-3.46203"><ele>2755</ele><speed>57</speed><time>2016-10-08T14:23:18Z</time><course>17</course><type>18</type></trkpt>
      <trkpt lat="41.233515" lon="-3.462"><ele>2755</ele><speed>54</speed><time>2016-10-08T14:23:19Z</time><course>13</course><type>18</type></trkpt>
      <trkpt lat="41.2336183" lon="-3.4619734"><ele>2755</ele><speed>51</speed><time>2016-10-08T14:23:20Z</time><course>9</course><type>18</type></trkpt>
      <trkpt lat="41.23372" lon="-3.4619684"><ele>2754</ele><speed>49</speed><time>2016-10-08T14:23:21Z</time><course>6</course><type>18</type></trkpt>
      <trkpt lat="41.2338283" lon="-3.4619684"><ele>2754</ele><speed>49</speed><time>2016-10-08T14:23:22Z</time><course>3</course><type>18</type></trkpt>
      <trkpt lat="41.233945" lon="-3.4619784"><ele>2753</ele><speed>49</speed><time>2016-10-08T14:23:23Z</time><course>1</course><type>18</type></trkpt>
      <trkpt lat="41.23407" lon="-3.4619717"><ele>2753</ele><speed>50</speed><time>2016-10-08T14:23:24Z</time><course>2</course><type>18</type></trkpt>
      <trkpt lat="41.2341916" lon="-3.46197"><ele>2753</ele><speed>50</speed><time>2016-10-08T14:23:25Z</time><course>2</course><type>18</type></trkpt>
      <trkpt lat="41.2343066" lon="-3.4619767"><ele>2752</ele><speed>50</speed><time>2016-10-08T14:23:26Z</time><course>3</course><type>18</type></trkpt>
      <trkpt lat="41.2344233" lon="-3.4619901"><ele>2752</ele><speed>50</speed><time>2016-10-08T14:23:27Z</time><course>1</course><type>18</type></trkpt>
      <trkpt lat="41.2345433" lon="-3.46201"><ele>2752</ele><speed>50</speed><time>2016-10-08T14:23:28Z</time><course>359</course><type>18</type></trkpt>
      <trkpt lat="41.23466" lon="-3.4620067"><ele>2751</ele><speed>49</speed><time>2016-10-08T14:23:29Z</time><course>0</course><type>18</type></trkpt>
      <trkpt lat="41.2347766" lon="-3.4620234"><ele>2751</ele><speed>49</speed><time>2016-10-08T14:23:30Z</time><course>358</course><type>18</type></trkpt>
      <trkpt lat="41.2348966" lon="-3.4620234"><ele>2751</ele><speed>49</speed><time>2016-10-08T14:23:31Z</time><course>359</course><type>18</type></trkpt>
      <trkpt lat="41.235015" lon="-3.46203"><ele>2750</ele><speed>48</speed><time>2016-10-08T14:23:32Z</time><course>358</course><type>18</type></trkpt>
      <trkpt lat="41.235135" lon="-3.4619767"><ele>2750</ele><speed>49</speed><time>2016-10-08T14:23:33Z</time><course>3</course><type>18</type></trkpt>
      <trkpt lat="41.23527" lon="-3.46192"><ele>2749</ele><speed>52</speed><time>2016-10-08T14:23:34Z</time><course>8</course><type>18</type></trkpt>
      <trkpt lat="41.2354166" lon="-3.4618834"><ele>2749</ele><speed>54</speed><time>2016-10-08T14:23:35Z</time><course>10</course><type>18</type></trkpt>
      <trkpt lat="41.2355533" lon="-3.46183"><ele>2749</ele><speed>56</speed><time>2016-10-08T14:23:36Z</time><course>12</course><type>18</type></trkpt>
      <trkpt lat="41.2356716" lon="-3.46178"><ele>2748</ele><speed>55</speed><time>2016-10-08T14:23:37Z</time><course>11</course><type>18</type></trkpt>
      <trkpt lat="41.23579" lon="-3.4617417"><ele>2748</ele><speed>53</speed><time>2016-10-08T14:23:38Z</time><course>9</course><type>18</type></trkpt>
      <trkpt lat="41.2359066" lon="-3.4617084"><ele>2747</ele><speed>52</speed><time>2016-10-08T14:23:39Z</time><course>6</course><type>18</type></trkpt>
      <trkpt lat="41.236025" lon="-3.4616834"><ele>2746</ele><speed>51</speed><time>2016-10-08T14:23:40Z</time><course>6</course><type>18</type></trkpt>
      <trkpt lat="41.236145" lon="-3.4616534"><ele>2746</ele><speed>52</speed><time>2016-10-08T14:23:41Z</time><course>8</course><type>18</type></trkpt>
      <trkpt lat="41.2362116" lon="-3.4617184"><ele>2745</ele><speed>53</speed><time>2016-10-08T14:23:42Z</time><course>10</course><type>18</type></trkpt>
      <trkpt lat="41.2363283" lon="-3.4617117"><ele>2744</ele><speed>54</speed><time>2016-10-08T14:23:43Z</time><course>9</course><type>18</type></trkpt>
      <trkpt lat="41.2364549" lon="-3.4616967"><ele>2743</ele><speed>63</speed><time>2016-10-08T14:23:44Z</time><course>8</course><type>18</type></trkpt>
      <trkpt lat="41.236605" lon="-3.4616817"><ele>2742</ele><speed>63</speed><time>2016-10-08T14:23:45Z</time><course>4</course><type>18</type></trkpt>
      <trkpt lat="41.236775" lon="-3.46167"><ele>2742</ele><speed>64</speed><time>2016-10-08T14:23:46Z</time><course>6</course><type>18</type></trkpt>
      <trkpt lat="41.2369316" lon="-3.4616667"><ele>2742</ele><speed>64</speed><time>2016-10-08T14:23:47Z</time><course>6</course><type>18</type></trkpt>
      <trkpt lat="41.2371016" lon="-3.4616317"><ele>2741</ele><speed>63</speed><time>2016-10-08T14:23:48Z</time><course>7</course><type>18</type></trkpt>
      <trkpt lat="41.2372616" lon="-3.461575"><ele>2741</ele><speed>63</speed><time>2016-10-08T14:23:49Z</time><course>9</course><type>18</type></trkpt>
      <trkpt lat="41.2374166" lon="-3.4614884"><ele>2741</ele><speed>63</speed><time>2016-10-08T14:23:50Z</time><course>13</course><type>18</type></trkpt>
      <trkpt lat="41.237555" lon="-3.4613567"><ele>2741</ele><speed>62</speed><time>2016-10-08T14:23:51Z</time><course>21</course><type>18</type></trkpt>
      <trkpt lat="41.2377266" lon="-3.4612817"><ele>2740</ele><speed>63</speed><time>2016-10-08T14:23:52Z</time><course>18</course><type>18</type></trkpt>
      <trkpt lat="41.2378816" lon="-3.4612267"><ele>2740</ele><speed>61</speed><time>2016-10-08T14:23:53Z</time><course>15</course><type>18</type></trkpt>
      <trkpt lat="41.2380299" lon="-3.46119"><ele>2740</ele><speed>59</speed><time>2016-10-08T14:23:54Z</time><course>13</course><type>18</type></trkpt>
      <trkpt lat="41.2381683" lon="-3.4611584"><ele>2740</ele><speed>55</speed><time>2016-10-08T14:23:55Z</time><course>12</course><type>18</type></trkpt>
      <trkpt lat="41.2382583" lon="-3.4611134"><ele>2738</ele><speed>53</speed><time>2016-10-08T14:23:56Z</time><course>12</course><type>18</type></trkpt>
      <trkpt lat="41.238365" lon="-3.4610684"><ele>2737</ele><speed>55</speed><time>2016-10-08T14:23:57Z</time><course>10</course><type>18</type></trkpt>
      <trkpt lat="41.23849" lon="-3.4610134"><ele>2736</ele><speed>56</speed><time>2016-10-08T14:23:58Z</time><course>8</course><type>18</type></trkpt>
      <trkpt lat="41.2386366" lon="-3.4609934"><ele>2735</ele><speed>56</speed><time>2016-10-08T14:23:59Z</time><course>7</course><type>18</type></trkpt>
      <trkpt lat="41.2387983" lon="-3.4609584"><ele>2735</ele><speed>56</speed><time>2016-10-08T14:24:00Z</time><course>6</course><type>18</type></trkpt>
      <trkpt lat="41.2389283" lon="-3.4609634"><ele>2734</ele><speed>55</speed><time>2016-10-08T14:24:01Z</time><course>353</course><type>18</type></trkpt>
      <trkpt lat="41.239075" lon="-3.460975"><ele>2733</ele><speed>43</speed><time>2016-10-08T14:24:03Z</time><course>355</course><type>18</type></trkpt>
      <trkpt lat="41.23919" lon="-3.4609551"><ele>2732</ele><speed>48</speed><time>2016-10-08T14:24:04Z</time><course>10</course><type>18</type></trkpt>
      <trkpt lat="41.2392766" lon="-3.4609667"><ele>2731</ele><speed>47</speed><time>2016-10-08T14:24:05Z</time><course>5</course><type>18</type></trkpt>
      <trkpt lat="41.239365" lon="-3.4609634"><ele>2731</ele><speed>46</speed><time>2016-10-08T14:24:06Z</time><course>2</course><type>18</type></trkpt>
      <trkpt lat="41.2394666" lon="-3.4609034"><ele>2727</ele><speed>38</speed><time>2016-10-08T14:24:08Z</time><course>359</course><type>18</type></trkpt>
      <trkpt lat="41.2395983" lon="-3.4608984"><ele>2725</ele><speed>36</speed><time>2016-10-08T14:24:10Z</time><course>353</course><type>18</type></trkpt>
      <trkpt lat="41.2396933" lon="-3.4608934"><ele>2724</ele><speed>38</speed><time>2016-10-08T14:24:11Z</time><course>355</course><type>18</type></trkpt>
      <trkpt lat="41.2397849" lon="-3.4608867"><ele>2724</ele><speed>38</speed><time>2016-10-08T14:24:12Z</time><course>357</course><type>18</type></trkpt>
      <trkpt lat="41.23987" lon="-3.46087"><ele>2722</ele><speed>38</speed><time>2016-10-08T14:24:13Z</time><course>357</course><type>18</type></trkpt>
      <trkpt lat="41.2399416" lon="-3.46083"><ele>2720</ele><speed>38</speed><time>2016-10-08T14:24:14Z</time><course>0</course><type>18</type></trkpt>
      <trkpt lat="41.2400133" lon="-3.46081"><ele>2718</ele><speed>37</speed><time>2016-10-08T14:24:15Z</time><course>359</course><type>18</type></trkpt>
      <trkpt lat="41.2400866" lon="-3.46081"><ele>2717</ele><speed>36</speed><time>2016-10-08T14:24:16Z</time><course>358</course><type>18</type></trkpt>
      <trkpt lat="41.2401716" lon="-3.460795"><ele>2716</ele><speed>36</speed><time>2016-10-08T14:24:17Z</time><course>0</course><type>18</type></trkpt>
      <trkpt lat="41.2402683" lon="-3.4607984"><ele>2715</ele><speed>40</speed><time>2016-10-08T14:24:18Z</time><course>350</course><type>18</type></trkpt>
      <trkpt lat="41.2403533" lon="-3.4608284"><ele>2713</ele><speed>41</speed><time>2016-10-08T14:24:19Z</time><course>341</course><type>18</type></trkpt>
      <trkpt lat="41.2404516" lon="-3.4608634"><ele>2713</ele><speed>41</speed><time>2016-10-08T14:24:20Z</time><course>342</course><type>18</type></trkpt>
      <trkpt lat="41.2405466" lon="-3.4608834"><ele>2712</ele><speed>41</speed><time>2016-10-08T14:24:21Z</time><course>345</course><type>18</type></trkpt>
      <trkpt lat="41.2406616" lon="-3.4608584"><ele>2711</ele><speed>41</speed><time>2016-10-08T14:24:22Z</time><course>350</course><type>18</type></trkpt>
      <trkpt lat="41.2407716" lon="-3.4608334"><ele>2709</ele><speed>40</speed><time>2016-10-08T14:24:23Z</time><course>355</course><type>18</type></trkpt>
      <trkpt lat="41.2408983" lon="-3.460785"><ele>2708</ele><speed>43</speed><time>2016-10-08T14:24:24Z</time><course>1</course><type>18</type></trkpt>
      <trkpt lat="41.2409833" lon="-3.4607234"><ele>2708</ele><speed>40</speed><time>2016-10-08T14:24:25Z</time><course>6</course><type>18</type></trkpt>
      <trkpt lat="41.24116" lon="-3.4606317"><ele>2705</ele><speed>40</speed><time>2016-10-08T14:24:27Z</time><course>0</course><type>18</type></trkpt>
      <trkpt lat="41.2412616" lon="-3.46059"><ele>2704</ele><speed>40</speed><time>2016-10-08T14:24:28Z</time><course>356</course><type>18</type></trkpt>
      <trkpt lat="41.2413516" lon="-3.460575"><ele>2703</ele><speed>39</speed><time>2016-10-08T14:24:29Z</time><course>357</course><type>18</type></trkpt>
      <trkpt lat="41.2414383" lon="-3.460565"><ele>2702</ele><speed>37</speed><time>2016-10-08T14:24:30Z</time><course>0</course><type>18</type></trkpt>
      <trkpt lat="41.2415266" lon="-3.4605484"><ele>2702</ele><speed>37</speed><time>2016-10-08T14:24:31Z</time><course>2</course><type>18</type></trkpt>
      <trkpt lat="41.2416033" lon="-3.4605334"><ele>2701</ele><speed>36</speed><time>2016-10-08T14:24:32Z</time><course>4</course><type>18</type></trkpt>
      <trkpt lat="41.24169" lon="-3.4605134"><ele>2700</ele><speed>37</speed><time>2016-10-08T14:24:33Z</time><course>4</course><type>18</type></trkpt>
      <trkpt lat="41.2417783" lon="-3.4604984"><ele>2699</ele><speed>37</speed><time>2016-10-08T14:24:34Z</time><course>1</course><type>18</type></trkpt>
      <trkpt lat="41.2418666" lon="-3.46049"><ele>2699</ele><speed>36</speed><time>2016-10-08T14:24:35Z</time><course>0</course><type>18</type></trkpt>
      <trkpt lat="41.241955" lon="-3.4604884"><ele>2698</ele><speed>36</speed><time>2016-10-08T14:24:36Z</time><course>359</course><type>18</type></trkpt>
      <trkpt lat="41.2420349" lon="-3.4604917"><ele>2698</ele><speed>35</speed><time>2016-10-08T14:24:37Z</time><course>358</course><type>18</type></trkpt>
      <trkpt lat="41.24219" lon="-3.4604967"><ele>2697</ele><speed>33</speed><time>2016-10-08T14:24:39Z</time><course>357</course><type>18</type></trkpt>
      <trkpt lat="41.2423483" lon="-3.46048"><ele>2696</ele><speed>32</speed><time>2016-10-08T14:24:41Z</time><course>0</course><type>18</type></trkpt>
      <trkpt lat="41.2424883" lon="-3.4603517"><ele>2695</ele><speed>33</speed><time>2016-10-08T14:24:43Z</time><course>14</course><type>18</type></trkpt>
      <trkpt lat="41.242615" lon="-3.4603184"><ele>2695</ele><speed>37</speed><time>2016-10-08T14:24:44Z</time><course>11</course><type>18</type></trkpt>
      <trkpt lat="41.2427416" lon="-3.4602717"><ele>2694</ele><speed>38</speed><time>2016-10-08T14:24:45Z</time><course>10</course><type>18</type></trkpt>
      <trkpt lat="41.2428483" lon="-3.4602484"><ele>2693</ele><speed>38</speed><time>2016-10-08T14:24:46Z</time><course>8</course><type>18</type></trkpt>
      <trkpt lat="41.24294" lon="-3.460215"><ele>2692</ele><speed>38</speed><time>2016-10-08T14:24:47Z</time><course>7</course><type>18</type></trkpt>
      <trkpt lat="41.243065" lon="-3.4601834"><ele>2691</ele><speed>39</speed><time>2016-10-08T14:24:48Z</time><course>5</course><type>18</type></trkpt>
      <trkpt lat="41.2431783" lon="-3.4601417"><ele>2690</ele><speed>40</speed><time>2016-10-08T14:24:49Z</time><course>4</course><type>18</type></trkpt>
      <trkpt lat="41.2432783" lon="-3.460105"><ele>2689</ele><speed>39</speed><time>2016-10-08T14:24:50Z</time><course>5</course><type>18</type></trkpt>
      <trkpt lat="41.243385" lon="-3.4600517"><ele>2688</ele><speed>38</speed><time>2016-10-08T14:24:51Z</time><course>8</course><type>18</type></trkpt>
      <trkpt lat="41.2434999" lon="-3.46002"><ele>2687</ele><speed>40</speed><time>2016-10-08T14:24:52Z</time><course>6</course><type>18</type></trkpt>
      <trkpt lat="41.2436083" lon="-3.4600334"><ele>2686</ele><speed>43</speed><time>2016-10-08T14:24:53Z</time><course>350</course><type>18</type></trkpt>
      <trkpt lat="41.2437016" lon="-3.46004"><ele>2686</ele><speed>42</speed><time>2016-10-08T14:24:54Z</time><course>352</course><type>18</type></trkpt>
      <trkpt lat="41.2438016" lon="-3.4600517"><ele>2685</ele><speed>40</speed><time>2016-10-08T14:24:55Z</time><course>353</course><type>18</type></trkpt>
      <trkpt lat="41.243985" lon="-3.4600717"><ele>2685</ele><speed>39</speed><time>2016-10-08T14:24:57Z</time><course>352</course><type>18</type></trkpt>
      <trkpt lat="41.24417" lon="-3.4600867"><ele>2684</ele><speed>38</speed><time>2016-10-08T14:24:59Z</time><course>353</course><type>18</type></trkpt>
      <trkpt lat="41.244345" lon="-3.460055"><ele>2684</ele><speed>36</speed><time>2016-10-08T14:25:01Z</time><course>358</course><type>18</type></trkpt>
      <trkpt lat="41.2444966" lon="-3.4599584"><ele>2684</ele><speed>36</speed><time>2016-10-08T14:25:03Z</time><course>7</course><type>18</type></trkpt>
      <trkpt lat="41.2446116" lon="-3.4599334"><ele>2683</ele><speed>38</speed><time>2016-10-08T14:25:04Z</time><course>8</course><type>18</type></trkpt>
      <trkpt lat="41.24474" lon="-3.4599034"><ele>2682</ele><speed>40</speed><time>2016-10-08T14:25:05Z</time><course>7</course><type>18</type></trkpt>
      <trkpt lat="41.2448466" lon="-3.45987"><ele>2682</ele><speed>40</speed><time>2016-10-08T14:25:06Z</time><course>7</course><type>18</type></trkpt>
      <trkpt lat="41.2449633" lon="-3.4598317"><ele>2681</ele><speed>41</speed><time>2016-10-08T14:25:07Z</time><course>8</course><type>18</type></trkpt>
      <trkpt lat="41.2450766" lon="-3.4597867"><ele>2681</ele><speed>40</speed><time>2016-10-08T14:25:08Z</time><course>11</course><type>18</type></trkpt>
      <trkpt lat="41.2452916" lon="-3.4597267"><ele>2680</ele><speed>39</speed><time>2016-10-08T14:25:10Z</time><course>11</course><type>18</type></trkpt>
      <trkpt lat="41.2453966" lon="-3.45969"><ele>2679</ele><speed>39</speed><time>2016-10-08T14:25:11Z</time><course>12</course><type>18</type></trkpt>
      <trkpt lat="41.2455966" lon="-3.4596067"><ele>2678</ele><speed>40</speed><time>2016-10-08T14:25:13Z</time><course>17</course><type>18</type></trkpt>
      <trkpt lat="41.2456983" lon="-3.4595534"><ele>2678</ele><speed>40</speed><time>2016-10-08T14:25:14Z</time><course>19</course><type>18</type></trkpt>
      <trkpt lat="41.2458766" lon="-3.4594351"><ele>2678</ele><speed>39</speed><time>2016-10-08T14:25:16Z</time><course>26</course><type>18</type></trkpt>
      <trkpt lat="41.2459816" lon="-3.4593884"><ele>2678</ele><speed>40</speed><time>2016-10-08T14:25:17Z</time><course>25</course><type>18</type></trkpt>
      <trkpt lat="41.2461966" lon="-3.4592967"><ele>2677</ele><speed>40</speed><time>2016-10-08T14:25:19Z</time><course>19</course><type>18</type></trkpt>
      <trkpt lat="41.2463116" lon="-3.45926"><ele>2677</ele><speed>40</speed><time>2016-10-08T14:25:20Z</time><course>14</course><type>18</type></trkpt>
      <trkpt lat="41.2464283" lon="-3.4592217"><ele>2676</ele><speed>40</speed><time>2016-10-08T14:25:21Z</time><course>11</course><type>18</type></trkpt>
      <trkpt lat="41.2465416" lon="-3.45917"><ele>2676</ele><speed>38</speed><time>2016-10-08T14:25:22Z</time><course>12</course><type>18</type></trkpt>
      <trkpt lat="41.2466533" lon="-3.4591267"><ele>2675</ele><speed>37</speed><time>2016-10-08T14:25:23Z</time><course>12</course><type>18</type></trkpt>
      <trkpt lat="41.24676" lon="-3.45908"><ele>2675</ele><speed>36</speed><time>2016-10-08T14:25:24Z</time><course>12</course><type>18</type></trkpt>
      <trkpt lat="41.2468616" lon="-3.4590534"><ele>2674</ele><speed>35</speed><time>2016-10-08T14:25:25Z</time><course>9</course><type>18</type></trkpt>
      <trkpt lat="41.2469616" lon="-3.4590334"><ele>2674</ele><speed>37</speed><time>2016-10-08T14:25:26Z</time><course>4</course><type>18</type></trkpt>
      <trkpt lat="41.2470583" lon="-3.4590184"><ele>2673</ele><speed>37</speed><time>2016-10-08T14:25:27Z</time><course>4</course><type>18</type></trkpt>
      <trkpt lat="41.2471516" lon="-3.4590134"><ele>2673</ele><speed>37</speed><time>2016-10-08T14:25:28Z</time><course>3</course><type>18</type></trkpt>
      <trkpt lat="41.2473216" lon="-3.4589934"><ele>2672</ele><speed>35</speed><time>2016-10-08T14:25:30Z</time><course>5</course><type>18</type></trkpt>
      <trkpt lat="41.2474966" lon="-3.4589434"><ele>2671</ele><speed>35</speed><time>2016-10-08T14:25:32Z</time><course>8</course><type>18</type></trkpt>
      <trkpt lat="41.2476316" lon="-3.4588667"><ele>2670</ele><speed>32</speed><time>2016-10-08T14:25:34Z</time><course>15</course><type>18</type></trkpt>
      <trkpt lat="41.2477316" lon="-3.4588117"><ele>2670</ele><speed>34</speed><time>2016-10-08T14:25:35Z</time><course>17</course><type>18</type></trkpt>
      <trkpt lat="41.2478549" lon="-3.458765"><ele>2670</ele><speed>38</speed><time>2016-10-08T14:25:36Z</time><course>15</course><type>18</type></trkpt>
      <trkpt lat="41.247985" lon="-3.4586767"><ele>2669</ele><speed>39</speed><time>2016-10-08T14:25:37Z</time><course>16</course><type>18</type></trkpt>
      <trkpt lat="41.2481116" lon="-3.4586034"><ele>2669</ele><speed>36</speed><time>2016-10-08T14:25:38Z</time><course>15</course><type>18</type></trkpt>
      <trkpt lat="41.2482183" lon="-3.458555"><ele>2668</ele><speed>36</speed><time>2016-10-08T14:25:39Z</time><course>13</course><type>18</type></trkpt>
      <trkpt lat="41.2483266" lon="-3.4585084"><ele>2668</ele><speed>35</speed><time>2016-10-08T14:25:40Z</time><course>12</course><type>18</type></trkpt>
      <trkpt lat="41.248505" lon="-3.4584434"><ele>2667</ele><speed>30</speed><time>2016-10-08T14:25:42Z</time><course>12</course><type>18</type></trkpt>
      <trkpt lat="41.24865" lon="-3.458395"><ele>2666</ele><speed>28</speed><time>2016-10-08T14:25:44Z</time><course>13</course><type>18</type></trkpt>
      <trkpt lat="41.2487933" lon="-3.458355"><ele>2666</ele><speed>28</speed><time>2016-10-08T14:25:46Z</time><course>13</course><type>18</type></trkpt>
      <trkpt lat="41.24894" lon="-3.4583134"><ele>2665</ele><speed>29</speed><time>2016-10-08T14:25:48Z</time><course>12</course><type>18</type></trkpt>
      <trkpt lat="41.2490683" lon="-3.4582117"><ele>2665</ele><speed>29</speed><time>2016-10-08T14:25:50Z</time><course>20</course><type>18</type></trkpt>
      <trkpt lat="41.2492283" lon="-3.4581284"><ele>2664</ele><speed>30</speed><time>2016-10-08T14:25:52Z</time><course>21</course><type>18</type></trkpt>
      <trkpt lat="41.2493466" lon="-3.4580634"><ele>2664</ele><speed>31</speed><time>2016-10-08T14:25:53Z</time><course>17</course><type>18</type></trkpt>
      <trkpt lat="41.2495383" lon="-3.45801"><ele>2663</ele><speed>31</speed><time>2016-10-08T14:25:55Z</time><course>10</course><type>18</type></trkpt>
      <trkpt lat="41.2497066" lon="-3.4579467"><ele>2662</ele><speed>31</speed><time>2016-10-08T14:25:57Z</time><course>13</course><type>18</type></trkpt>
      <trkpt lat="41.2498699" lon="-3.4578784"><ele>2661</ele><speed>30</speed><time>2016-10-08T14:25:59Z</time><course>14</course><type>18</type></trkpt>
      <trkpt lat="41.2500233" lon="-3.4578217"><ele>2660</ele><speed>29</speed><time>2016-10-08T14:26:01Z</time><course>13</course><type>18</type></trkpt>
      <trkpt lat="41.2501683" lon="-3.45781"><ele>2660</ele><speed>29</speed><time>2016-10-08T14:26:03Z</time><course>12</course><type>18</type></trkpt>
      <trkpt lat="41.2503083" lon="-3.4577867"><ele>2659</ele><speed>29</speed><time>2016-10-08T14:26:05Z</time><course>13</course><type>18</type></trkpt>
      <trkpt lat="41.2504383" lon="-3.4576884"><ele>2659</ele><speed>29</speed><time>2016-10-08T14:26:07Z</time><course>23</course><type>18</type></trkpt>
      <trkpt lat="41.25061" lon="-3.4575334"><ele>2658</ele><speed>35</speed><time>2016-10-08T14:26:09Z</time><course>26</course><type>18</type></trkpt>
      <trkpt lat="41.250405" lon="-3.4582534"><ele>2657</ele><speed>34</speed><time>2016-10-08T14:26:10Z</time><course>18</course><type>18</type></trkpt>
      <trkpt lat="41.2505016" lon="-3.4582117"><ele>2657</ele><speed>36</speed><time>2016-10-08T14:26:11Z</time><course>16</course><type>18</type></trkpt>
      <trkpt lat="41.2503366" lon="-3.4588634"><ele>2653</ele><speed>37</speed><time>2016-10-08T14:26:12Z</time><course>12</course><type>18</type></trkpt>
      <trkpt lat="41.2500616" lon="-3.460025"><ele>2650</ele><speed>34</speed><time>2016-10-08T14:26:13Z</time><course>8</course><type>18</type></trkpt>
      <trkpt lat="41.2522033" lon="-3.460195"><ele>2632</ele><speed>37</speed><time>2016-10-08T14:26:17Z</time><course>14</course><type>18</type></trkpt>
      <trkpt lat="41.2526083" lon="-3.4603984"><ele>2630</ele><speed>39</speed><time>2016-10-08T14:26:18Z</time><course>13</course><type>18</type></trkpt>
      <trkpt lat="41.2528283" lon="-3.46035"><ele>2630</ele><speed>48</speed><time>2016-10-08T14:26:19Z</time><course>19</course><type>18</type></trkpt>
      <trkpt lat="41.2529349" lon="-3.46018"><ele>2629</ele><speed>38</speed><time>2016-10-08T14:26:20Z</time><course>43</course><type>18</type></trkpt>
      <trkpt lat="41.2530583" lon="-3.460095"><ele>2629</ele><speed>40</speed><time>2016-10-08T14:26:21Z</time><course>44</course><type>18</type></trkpt>
      <trkpt lat="41.252865" lon="-3.459675"><ele>2627</ele><speed>38</speed><time>2016-10-08T14:26:22Z</time><course>44</course><type>18</type></trkpt>
      <trkpt lat="41.2528333" lon="-3.4594284"><ele>2626</ele><speed>40</speed><time>2016-10-08T14:26:23Z</time><course>43</course><type>18</type></trkpt>
      <trkpt lat="41.2528133" lon="-3.4592"><ele>2625</ele><speed>43</speed><time>2016-10-08T14:26:24Z</time><course>40</course><type>18</type></trkpt>
      <trkpt lat="41.2530233" lon="-3.459015"><ele>2623</ele><speed>45</speed><time>2016-10-08T14:26:26Z</time><course>38</course><type>18</type></trkpt>
      <trkpt lat="41.253145" lon="-3.4588984"><ele>2623</ele><speed>56</speed><time>2016-10-08T14:26:27Z</time><course>38</course><type>18</type></trkpt>
      <trkpt lat="41.2532633" lon="-3.4587151"><ele>2620</ele><speed>49</speed><time>2016-10-08T14:26:29Z</time><course>39</course><type>18</type></trkpt>
      <trkpt lat="41.2534516" lon="-3.4585184"><ele>2619</ele><speed>43</speed><time>2016-10-08T14:26:31Z</time><course>39</course><type>18</type></trkpt>
      <trkpt lat="41.25338" lon="-3.4581917"><ele>2617</ele><speed>45</speed><time>2016-10-08T14:26:32Z</time><course>37</course><type>18</type></trkpt>
      <trkpt lat="41.2535166" lon="-3.458105"><ele>2617</ele><speed>51</speed><time>2016-10-08T14:26:33Z</time><course>35</course><type>18</type></trkpt>
      <trkpt lat="41.253625" lon="-3.4579684"><ele>2616</ele><speed>51</speed><time>2016-10-08T14:26:34Z</time><course>36</course><type>18</type></trkpt>
      <trkpt lat="41.2537383" lon="-3.4578184"><ele>2615</ele><speed>53</speed><time>2016-10-08T14:26:35Z</time><course>36</course><type>18</type></trkpt>
      <trkpt lat="41.2536083" lon="-3.4575967"><ele>2612</ele><speed>44</speed><time>2016-10-08T14:26:36Z</time><course>39</course><type>18</type></trkpt>
      <trkpt lat="41.253415" lon="-3.4572667"><ele>2610</ele><speed>32</speed><time>2016-10-08T14:26:37Z</time><course>28</course><type>18</type></trkpt>
      <trkpt lat="41.2534" lon="-3.457115"><ele>2608</ele><speed>35</speed><time>2016-10-08T14:26:38Z</time><course>26</course><type>18</type></trkpt>
      <trkpt lat="41.25339" lon="-3.4569634"><ele>2606</ele><speed>41</speed><time>2016-10-08T14:26:39Z</time><course>36</course><type>18</type></trkpt>
      <trkpt lat="41.253365" lon="-3.4567717"><ele>2604</ele><speed>43</speed><time>2016-10-08T14:26:40Z</time><course>44</course><type>18</type></trkpt>
      <trkpt lat="41.2533783" lon="-3.4566101"><ele>2602</ele><speed>45</speed><time>2016-10-08T14:26:41Z</time><course>47</course><type>18</type></trkpt>
      <trkpt lat="41.2534183" lon="-3.4564267"><ele>2601</ele><speed>46</speed><time>2016-10-08T14:26:42Z</time><course>51</course><type>18</type></trkpt>
      <trkpt lat="41.253465" lon="-3.4562517"><ele>2600</ele><speed>46</speed><time>2016-10-08T14:26:43Z</time><course>53</course><type>18</type></trkpt>
      <trkpt lat="41.2535266" lon="-3.4560967"><ele>2598</ele><speed>48</speed><time>2016-10-08T14:26:44Z</time><course>55</course><type>18</type></trkpt>
      <trkpt lat="41.25358" lon="-3.455955"><ele>2597</ele><speed>48</speed><time>2016-10-08T14:26:45Z</time><course>56</course><type>18</type></trkpt>
      <trkpt lat="41.2536416" lon="-3.4558034"><ele>2595</ele><speed>57</speed><time>2016-10-08T14:26:46Z</time><course>56</course><type>18</type></trkpt>
      <trkpt lat="41.25371" lon="-3.455605"><ele>2594</ele><speed>58</speed><time>2016-10-08T14:26:47Z</time><course>57</course><type>18</type></trkpt>
      <trkpt lat="41.2537483" lon="-3.4554017"><ele>2593</ele><speed>55</speed><time>2016-10-08T14:26:48Z</time><course>63</course><type>18</type></trkpt>
      <trkpt lat="41.25386" lon="-3.4553584"><ele>2587</ele><speed>48</speed><time>2016-10-08T14:26:49Z</time><course>60</course><type>18</type></trkpt>
      <trkpt lat="41.25395" lon="-3.4552767"><ele>2584</ele><speed>44</speed><time>2016-10-08T14:26:50Z</time><course>57</course><type>18</type></trkpt>
      <trkpt lat="41.2540183" lon="-3.4551534"><ele>2579</ele><speed>53</speed><time>2016-10-08T14:26:51Z</time><course>57</course><type>18</type></trkpt>
      <trkpt lat="41.2540599" lon="-3.4550367"><ele>2575</ele><speed>54</speed><time>2016-10-08T14:26:52Z</time><course>60</course><type>18</type></trkpt>
      <trkpt lat="41.2540583" lon="-3.454885"><ele>2572</ele><speed>50</speed><time>2016-10-08T14:26:53Z</time><course>60</course><type>18</type></trkpt>
      <trkpt lat="41.2541366" lon="-3.4547884"><ele>2569</ele><speed>50</speed><time>2016-10-08T14:26:54Z</time><course>58</course><type>18</type></trkpt>
      <trkpt lat="41.2542466" lon="-3.45468"><ele>2566</ele><speed>51</speed><time>2016-10-08T14:26:55Z</time><course>57</course><type>18</type></trkpt>
      <trkpt lat="41.2544916" lon="-3.45469"><ele>2564</ele><speed>51</speed><time>2016-10-08T14:26:56Z</time><course>34</course><type>18</type></trkpt>
      <trkpt lat="41.2545766" lon="-3.4546634"><ele>2562</ele><speed>45</speed><time>2016-10-08T14:26:57Z</time><course>34</course><type>18</type></trkpt>
      <trkpt lat="41.2546466" lon="-3.4546367"><ele>2557</ele><speed>38</speed><time>2016-10-08T14:26:58Z</time><course>38</course><type>18</type></trkpt>
      <trkpt lat="41.25474" lon="-3.4545367"><ele>2533</ele><speed>33</speed><time>2016-10-08T14:27:03Z</time><course>49</course><type>18</type></trkpt>
      <trkpt lat="41.25471" lon="-3.4544484"><ele>2526</ele><speed>35</speed><time>2016-10-08T14:27:04Z</time><course>61</course><type>18</type></trkpt>
      <trkpt lat="41.2547" lon="-3.4543167"><ele>2523</ele><speed>37</speed><time>2016-10-08T14:27:05Z</time><course>80</course><type>18</type></trkpt>
      <trkpt lat="41.2546933" lon="-3.454185"><ele>2520</ele><speed>38</speed><time>2016-10-08T14:27:06Z</time><course>86</course><type>18</type></trkpt>
      <trkpt lat="41.2546083" lon="-3.4540517"><ele>2515</ele><speed>38</speed><time>2016-10-08T14:27:07Z</time><course>94</course><type>18</type></trkpt>
      <trkpt lat="41.25453" lon="-3.4539134"><ele>2510</ele><speed>38</speed><time>2016-10-08T14:27:08Z</time><course>100</course><type>18</type></trkpt>
      <trkpt lat="41.254415" lon="-3.4537684"><ele>2505</ele><speed>39</speed><time>2016-10-08T14:27:09Z</time><course>108</course><type>18</type></trkpt>
      <trkpt lat="41.2543066" lon="-3.4536151"><ele>2501</ele><speed>42</speed><time>2016-10-08T14:27:10Z</time><course>112</course><type>18</type></trkpt>
      <trkpt lat="41.2542183" lon="-3.4534817"><ele>2498</ele><speed>48</speed><time>2016-10-08T14:27:11Z</time><course>115</course><type>18</type></trkpt>
      <trkpt lat="41.2541133" lon="-3.45333"><ele>2495</ele><speed>45</speed><time>2016-10-08T14:27:12Z</time><course>115</course><type>18</type></trkpt>
      <trkpt lat="41.2540116" lon="-3.4531767"><ele>2492</ele><speed>45</speed><time>2016-10-08T14:27:13Z</time><course>116</course><type>18</type></trkpt>
      <trkpt lat="41.2539183" lon="-3.4530301"><ele>2489</ele><speed>45</speed><time>2016-10-08T14:27:14Z</time><course>117</course><type>18</type></trkpt>
      <trkpt lat="41.253795" lon="-3.4528567"><ele>2487</ele><speed>47</speed><time>2016-10-08T14:27:15Z</time><course>118</course><type>18</type></trkpt>
      <trkpt lat="41.2536633" lon="-3.452785"><ele>2483</ele><speed>45</speed><time>2016-10-08T14:27:16Z</time><course>121</course><type>18</type></trkpt>
      <trkpt lat="41.2535166" lon="-3.4528434"><ele>2478</ele><speed>37</speed><time>2016-10-08T14:27:17Z</time><course>129</course><type>18</type></trkpt>
      <trkpt lat="41.2533633" lon="-3.45309"><ele>2472</ele><speed>28</speed><time>2016-10-08T14:27:18Z</time><course>156</course><type>18</type></trkpt>
      <trkpt lat="41.2533766" lon="-3.4533384"><ele>2468</ele><speed>16</speed><time>2016-10-08T14:27:19Z</time><course>192</course><type>18</type></trkpt>
      <trkpt lat="41.2533666" lon="-3.4536167"><ele>2462</ele><speed>14</speed><time>2016-10-08T14:27:20Z</time><course>244</course><type>18</type></trkpt>
      <trkpt lat="41.253345" lon="-3.4538617"><ele>2457</ele><speed>17</speed><time>2016-10-08T14:27:21Z</time><course>275</course><type>18</type></trkpt>
      <trkpt lat="41.2533516" lon="-3.4540967"><ele>2453</ele><speed>23</speed><time>2016-10-08T14:27:22Z</time><course>294</course><type>18</type></trkpt>
      <trkpt lat="41.253365" lon="-3.454235"><ele>2450</ele><speed>24</speed><time>2016-10-08T14:27:23Z</time><course>299</course><type>18</type></trkpt>
      <trkpt lat="41.25338" lon="-3.454365"><ele>2448</ele><speed>24</speed><time>2016-10-08T14:27:24Z</time><course>299</course><type>18</type></trkpt>
      <trkpt lat="41.253405" lon="-3.4544784"><ele>2446</ele><speed>26</speed><time>2016-10-08T14:27:25Z</time><course>297</course><type>18</type></trkpt>
      <trkpt lat="41.253395" lon="-3.4545817"><ele>2444</ele><speed>23</speed><time>2016-10-08T14:27:26Z</time><course>285</course><type>18</type></trkpt>
      <trkpt lat="41.2534166" lon="-3.4546734"><ele>2443</ele><speed>25</speed><time>2016-10-08T14:27:27Z</time><course>291</course><type>18</type></trkpt>
      <trkpt lat="41.2534066" lon="-3.4548217"><ele>2441</ele><speed>27</speed><time>2016-10-08T14:27:28Z</time><course>285</course><type>18</type></trkpt>
      <trkpt lat="41.2534533" lon="-3.4550034"><ele>2438</ele><speed>30</speed><time>2016-10-08T14:27:29Z</time><course>286</course><type>18</type></trkpt>
      <trkpt lat="41.2535333" lon="-3.45514"><ele>2436</ele><speed>35</speed><time>2016-10-08T14:27:30Z</time><course>302</course><type>18</type></trkpt>
      <trkpt lat="41.2536416" lon="-3.455195"><ele>2434</ele><speed>34</speed><time>2016-10-08T14:27:31Z</time><course>317</course><type>18</type></trkpt>
      <trkpt lat="41.2538083" lon="-3.4552034"><ele>2430</ele><speed>35</speed><time>2016-10-08T14:27:32Z</time><course>327</course><type>18</type></trkpt>
      <trkpt lat="41.2539466" lon="-3.4551517"><ele>2427</ele><speed>34</speed><time>2016-10-08T14:27:33Z</time><course>338</course><type>18</type></trkpt>
      <trkpt lat="41.2540733" lon="-3.4551"><ele>2424</ele><speed>32</speed><time>2016-10-08T14:27:34Z</time><course>349</course><type>18</type></trkpt>
      <trkpt lat="41.2541816" lon="-3.4550001"><ele>2420</ele><speed>34</speed><time>2016-10-08T14:27:35Z</time><course>6</course><type>18</type></trkpt>
      <trkpt lat="41.2543316" lon="-3.45493"><ele>2416</ele><speed>40</speed><time>2016-10-08T14:27:36Z</time><course>17</course><type>18</type></trkpt>
      <trkpt lat="41.2543783" lon="-3.45479"><ele>2412</ele><speed>38</speed><time>2016-10-08T14:27:37Z</time><course>25</course><type>18</type></trkpt>
      <trkpt lat="41.2543816" lon="-3.4546067"><ele>2408</ele><speed>35</speed><time>2016-10-08T14:27:38Z</time><course>41</course><type>18</type></trkpt>
      <trkpt lat="41.2544199" lon="-3.4544484"><ele>2405</ele><speed>35</speed><time>2016-10-08T14:27:39Z</time><course>50</course><type>18</type></trkpt>
      <trkpt lat="41.2544516" lon="-3.4543184"><ele>2402</ele><speed>35</speed><time>2016-10-08T14:27:40Z</time><course>56</course><type>18</type></trkpt>
      <trkpt lat="41.2544649" lon="-3.4541667"><ele>2400</ele><speed>37</speed><time>2016-10-08T14:27:41Z</time><course>61</course><type>18</type></trkpt>
      <trkpt lat="41.2544933" lon="-3.4540167"><ele>2398</ele><speed>40</speed><time>2016-10-08T14:27:42Z</time><course>62</course><type>18</type></trkpt>
      <trkpt lat="41.254475" lon="-3.4538017"><ele>2396</ele><speed>42</speed><time>2016-10-08T14:27:43Z</time><course>63</course><type>18</type></trkpt>
      <trkpt lat="41.25452" lon="-3.4536584"><ele>2395</ele><speed>41</speed><time>2016-10-08T14:27:44Z</time><course>55</course><type>18</type></trkpt>
      <trkpt lat="41.2544383" lon="-3.4534351"><ele>2391</ele><speed>34</speed><time>2016-10-08T14:27:45Z</time><course>48</course><type>18</type></trkpt>
      <trkpt lat="41.2543683" lon="-3.4532484"><ele>2387</ele><speed>33</speed><time>2016-10-08T14:27:46Z</time><course>52</course><type>18</type></trkpt>
      <trkpt lat="41.2543" lon="-3.4531134"><ele>2384</ele><speed>29</speed><time>2016-10-08T14:27:47Z</time><course>59</course><type>18</type></trkpt>
      <trkpt lat="41.25423" lon="-3.4529584"><ele>2380</ele><speed>26</speed><time>2016-10-08T14:27:49Z</time><course>77</course><type>18</type></trkpt>
      <trkpt lat="41.2541216" lon="-3.4528984"><ele>2378</ele><speed>24</speed><time>2016-10-08T14:27:50Z</time><course>102</course><type>18</type></trkpt>
      <trkpt lat="41.2540216" lon="-3.452885"><ele>2376</ele><speed>18</speed><time>2016-10-08T14:27:51Z</time><course>130</course><type>18</type></trkpt>
      <trkpt lat="41.2538916" lon="-3.452875"><ele>2374</ele><speed>20</speed><time>2016-10-08T14:27:52Z</time><course>154</course><type>18</type></trkpt>
      <trkpt lat="41.2537833" lon="-3.4529084"><ele>2372</ele><speed>17</speed><time>2016-10-08T14:27:53Z</time><course>191</course><type>18</type></trkpt>
      <trkpt lat="41.2536516" lon="-3.452995"><ele>2370</ele><speed>22</speed><time>2016-10-08T14:27:54Z</time><course>216</course><type>18</type></trkpt>
      <trkpt lat="41.2535816" lon="-3.4530917"><ele>2367</ele><speed>24</speed><time>2016-10-08T14:27:55Z</time><course>225</course><type>18</type></trkpt>
      <trkpt lat="41.2535233" lon="-3.45322"><ele>2365</ele><speed>24</speed><time>2016-10-08T14:27:56Z</time><course>238</course><type>18</type></trkpt>
      <trkpt lat="41.2534983" lon="-3.4533584"><ele>2362</ele><speed>24</speed><time>2016-10-08T14:27:57Z</time><course>252</course><type>18</type></trkpt>
      <trkpt lat="41.253505" lon="-3.453505"><ele>2360</ele><speed>26</speed><time>2016-10-08T14:27:58Z</time><course>277</course><type>18</type></trkpt>
      <trkpt lat="41.2535116" lon="-3.4536184"><ele>2358</ele><speed>26</speed><time>2016-10-08T14:27:59Z</time><course>278</course><type>18</type></trkpt>
      <trkpt lat="41.2535283" lon="-3.4537467"><ele>2356</ele><speed>30</speed><time>2016-10-08T14:28:00Z</time><course>283</course><type>18</type></trkpt>
      <trkpt lat="41.2535633" lon="-3.453845"><ele>2354</ele><speed>29</speed><time>2016-10-08T14:28:01Z</time><course>289</course><type>18</type></trkpt>
      <trkpt lat="41.253585" lon="-3.4539534"><ele>2353</ele><speed>30</speed><time>2016-10-08T14:28:02Z</time><course>287</course><type>18</type></trkpt>
      <trkpt lat="41.2536383" lon="-3.4540367"><ele>2351</ele><speed>31</speed><time>2016-10-08T14:28:03Z</time><course>290</course><type>18</type></trkpt>
      <trkpt lat="41.25369" lon="-3.45412"><ele>2349</ele><speed>31</speed><time>2016-10-08T14:28:04Z</time><course>292</course><type>18</type></trkpt>
      <trkpt lat="41.2537933" lon="-3.4541534"><ele>2346</ele><speed>29</speed><time>2016-10-08T14:28:05Z</time><course>304</course><type>18</type></trkpt>
      <trkpt lat="41.2538733" lon="-3.4542284"><ele>2345</ele><speed>31</speed><time>2016-10-08T14:28:06Z</time><course>310</course><type>18</type></trkpt>
      <trkpt lat="41.2539983" lon="-3.4542617"><ele>2342</ele><speed>32</speed><time>2016-10-08T14:28:07Z</time><course>316</course><type>18</type></trkpt>
      <trkpt lat="41.2541766" lon="-3.4542767"><ele>2340</ele><speed>37</speed><time>2016-10-08T14:28:08Z</time><course>337</course><type>18</type></trkpt>
      <trkpt lat="41.254305" lon="-3.45427"><ele>2338</ele><speed>39</speed><time>2016-10-08T14:28:09Z</time><course>344</course><type>18</type></trkpt>
      <trkpt lat="41.2544" lon="-3.454225"><ele>2337</ele><speed>36</speed><time>2016-10-08T14:28:10Z</time><course>350</course><type>18</type></trkpt>
      <trkpt lat="41.2545033" lon="-3.4541784"><ele>2336</ele><speed>36</speed><time>2016-10-08T14:28:11Z</time><course>355</course><type>18</type></trkpt>
      <trkpt lat="41.25461" lon="-3.4541567"><ele>2335</ele><speed>36</speed><time>2016-10-08T14:28:12Z</time><course>358</course><type>18</type></trkpt>
      <trkpt lat="41.2547133" lon="-3.4541217"><ele>2334</ele><speed>35</speed><time>2016-10-08T14:28:13Z</time><course>3</course><type>18</type></trkpt>
      <trkpt lat="41.2548249" lon="-3.4540767"><ele>2332</ele><speed>37</speed><time>2016-10-08T14:28:14Z</time><course>8</course><type>18</type></trkpt>
      <trkpt lat="41.2549366" lon="-3.4540167"><ele>2331</ele><speed>39</speed><time>2016-10-08T14:28:15Z</time><course>13</course><type>18</type></trkpt>
      <trkpt lat="41.2550433" lon="-3.4539667"><ele>2330</ele><speed>41</speed><time>2016-10-08T14:28:16Z</time><course>15</course><type>18</type></trkpt>
      <trkpt lat="41.2551816" lon="-3.45387"><ele>2328</ele><speed>44</speed><time>2016-10-08T14:28:17Z</time><course>19</course><type>18</type></trkpt>
      <trkpt lat="41.2552883" lon="-3.4537951"><ele>2326</ele><speed>43</speed><time>2016-10-08T14:28:18Z</time><course>19</course><type>18</type></trkpt>
      <trkpt lat="41.2554216" lon="-3.453735"><ele>2325</ele><speed>43</speed><time>2016-10-08T14:28:19Z</time><course>19</course><type>18</type></trkpt>
      <trkpt lat="41.255555" lon="-3.4537084"><ele>2322</ele><speed>43</speed><time>2016-10-08T14:28:20Z</time><course>16</course><type>18</type></trkpt>
      <trkpt lat="41.2557133" lon="-3.4536467"><ele>2318</ele><speed>40</speed><time>2016-10-08T14:28:22Z</time><course>14</course><type>18</type></trkpt>
      <trkpt lat="41.2557616" lon="-3.45354"><ele>2316</ele><speed>37</speed><time>2016-10-08T14:28:23Z</time><course>32</course><type>18</type></trkpt>
      <trkpt lat="41.2558183" lon="-3.4534351"><ele>2313</ele><speed>35</speed><time>2016-10-08T14:28:24Z</time><course>43</course><type>18</type></trkpt>
      <trkpt lat="41.25593" lon="-3.4532417"><ele>2310</ele><speed>32</speed><time>2016-10-08T14:28:26Z</time><course>52</course><type>18</type></trkpt>
      <trkpt lat="41.2559766" lon="-3.4531334"><ele>2308</ele><speed>34</speed><time>2016-10-08T14:28:27Z</time><course>54</course><type>18</type></trkpt>
      <trkpt lat="41.256015" lon="-3.453005"><ele>2307</ele><speed>35</speed><time>2016-10-08T14:28:28Z</time><course>57</course><type>18</type></trkpt>
      <trkpt lat="41.2560266" lon="-3.45286"><ele>2306</ele><speed>34</speed><time>2016-10-08T14:28:29Z</time><course>65</course><type>18</type></trkpt>
      <trkpt lat="41.255965" lon="-3.4526584"><ele>2303</ele><speed>32</speed><time>2016-10-08T14:28:30Z</time><course>89</course><type>18</type></trkpt>
      <trkpt lat="41.2558833" lon="-3.4524684"><ele>2299</ele><speed>29</speed><time>2016-10-08T14:28:31Z</time><course>106</course><type>18</type></trkpt>
      <trkpt lat="41.2557716" lon="-3.4522817"><ele>2296</ele><speed>35</speed><time>2016-10-08T14:28:32Z</time><course>123</course><type>18</type></trkpt>
      <trkpt lat="41.2556566" lon="-3.4521"><ele>2294</ele><speed>40</speed><time>2016-10-08T14:28:33Z</time><course>128</course><type>18</type></trkpt>
      <trkpt lat="41.25555" lon="-3.4519534"><ele>2292</ele><speed>39</speed><time>2016-10-08T14:28:34Z</time><course>134</course><type>18</type></trkpt>
      <trkpt lat="41.255465" lon="-3.451855"><ele>2291</ele><speed>38</speed><time>2016-10-08T14:28:35Z</time><course>137</course><type>18</type></trkpt>
      <trkpt lat="41.2553933" lon="-3.4517834"><ele>2290</ele><speed>37</speed><time>2016-10-08T14:28:36Z</time><course>140</course><type>18</type></trkpt>
      <trkpt lat="41.2553199" lon="-3.4517417"><ele>2289</ele><speed>34</speed><time>2016-10-08T14:28:37Z</time><course>146</course><type>18</type></trkpt>
      <trkpt lat="41.2552266" lon="-3.4517034"><ele>2286</ele><speed>28</speed><time>2016-10-08T14:28:39Z</time><course>151</course><type>18</type></trkpt>
      <trkpt lat="41.2554566" lon="-3.4518084"><ele>2281</ele><speed>11</speed><time>2016-10-08T14:28:44Z</time><course>7</course><type>18</type></trkpt>
      <trkpt lat="41.2555833" lon="-3.4518167"><ele>2280</ele><speed>16</speed><time>2016-10-08T14:28:45Z</time><course>8</course><type>18</type></trkpt>
      <trkpt lat="41.2557166" lon="-3.4518"><ele>2279</ele><speed>25</speed><time>2016-10-08T14:28:46Z</time><course>20</course><type>18</type></trkpt>
      <trkpt lat="41.2557966" lon="-3.45177"><ele>2278</ele><speed>24</speed><time>2016-10-08T14:28:47Z</time><course>27</course><type>18</type></trkpt>
      <trkpt lat="41.2558599" lon="-3.451715"><ele>2277</ele><speed>25</speed><time>2016-10-08T14:28:48Z</time><course>37</course><type>18</type></trkpt>
      <trkpt lat="41.255925" lon="-3.4516334"><ele>2276</ele><speed>28</speed><time>2016-10-08T14:28:49Z</time><course>50</course><type>18</type></trkpt>
      <trkpt lat="41.256015" lon="-3.4515934"><ele>2273</ele><speed>24</speed><time>2016-10-08T14:28:51Z</time><course>46</course><type>18</type></trkpt>
      <trkpt lat="41.256065" lon="-3.4514867"><ele>2271</ele><speed>33</speed><time>2016-10-08T14:28:52Z</time><course>62</course><type>18</type></trkpt>
      <trkpt lat="41.2560583" lon="-3.451385"><ele>2270</ele><speed>37</speed><time>2016-10-08T14:28:53Z</time><course>81</course><type>18</type></trkpt>
      <trkpt lat="41.25606" lon="-3.451265"><ele>2268</ele><speed>35</speed><time>2016-10-08T14:28:54Z</time><course>85</course><type>18</type></trkpt>
      <trkpt lat="41.2560399" lon="-3.45117"><ele>2266</ele><speed>29</speed><time>2016-10-08T14:28:55Z</time><course>96</course><type>18</type></trkpt>
      <trkpt lat="41.2559516" lon="-3.451045"><ele>2263</ele><speed>21</speed><time>2016-10-08T14:28:57Z</time><course>109</course><type>18</type></trkpt>
      <trkpt lat="41.2558816" lon="-3.45102"><ele>2261</ele><speed>17</speed><time>2016-10-08T14:28:58Z</time><course>124</course><type>18</type></trkpt>
      <trkpt lat="41.25581" lon="-3.4510284"><ele>2260</ele><speed>13</speed><time>2016-10-08T14:28:59Z</time><course>143</course><type>18</type></trkpt>
      <trkpt lat="41.255685" lon="-3.4512234"><ele>2257</ele><speed>19</speed><time>2016-10-08T14:29:01Z</time><course>244</course><type>18</type></trkpt>
      <trkpt lat="41.2556233" lon="-3.4514"><ele>2254</ele><speed>20</speed><time>2016-10-08T14:29:03Z</time><course>268</course><type>18</type></trkpt>
      <trkpt lat="41.255605" lon="-3.4515084"><ele>2252</ele><speed>21</speed><time>2016-10-08T14:29:04Z</time><course>293</course><type>18</type></trkpt>
      <trkpt lat="41.2556033" lon="-3.4516217"><ele>2251</ele><speed>24</speed><time>2016-10-08T14:29:05Z</time><course>301</course><type>18</type></trkpt>
      <trkpt lat="41.2556383" lon="-3.4516984"><ele>2250</ele><speed>27</speed><time>2016-10-08T14:29:06Z</time><course>307</course><type>18</type></trkpt>
      <trkpt lat="41.2556883" lon="-3.4517884"><ele>2249</ele><speed>35</speed><time>2016-10-08T14:29:07Z</time><course>308</course><type>18</type></trkpt>
      <trkpt lat="41.2557483" lon="-3.451845"><ele>2248</ele><speed>32</speed><time>2016-10-08T14:29:08Z</time><course>317</course><type>18</type></trkpt>
      <trkpt lat="41.255795" lon="-3.4519167"><ele>2247</ele><speed>29</speed><time>2016-10-08T14:29:09Z</time><course>315</course><type>18</type></trkpt>
      <trkpt lat="41.2558366" lon="-3.4519934"><ele>2246</ele><speed>28</speed><time>2016-10-08T14:29:10Z</time><course>313</course><type>18</type></trkpt>
      <trkpt lat="41.2558983" lon="-3.452065"><ele>2245</ele><speed>30</speed><time>2016-10-08T14:29:11Z</time><course>319</course><type>18</type></trkpt>
      <trkpt lat="41.2559983" lon="-3.4521017"><ele>2244</ele><speed>34</speed><time>2016-10-08T14:29:12Z</time><course>338</course><type>18</type></trkpt>
      <trkpt lat="41.2560783" lon="-3.4521167"><ele>2243</ele><speed>33</speed><time>2016-10-08T14:29:13Z</time><course>349</course><type>18</type></trkpt>
      <trkpt lat="41.2561733" lon="-3.452105"><ele>2242</ele><speed>34</speed><time>2016-10-08T14:29:14Z</time><course>355</course><type>18</type></trkpt>
      <trkpt lat="41.2562633" lon="-3.4520617"><ele>2241</ele><speed>36</speed><time>2016-10-08T14:29:15Z</time><course>6</course><type>18</type></trkpt>
      <trkpt lat="41.256365" lon="-3.45201"><ele>2239</ele><speed>41</speed><time>2016-10-08T14:29:16Z</time><course>12</course><type>18</type></trkpt>
      <trkpt lat="41.2564666" lon="-3.4519284"><ele>2238</ele><speed>42</speed><time>2016-10-08T14:29:17Z</time><course>22</course><type>18</type></trkpt>
      <trkpt lat="41.2565316" lon="-3.45179"><ele>2237</ele><speed>41</speed><time>2016-10-08T14:29:18Z</time><course>36</course><type>18</type></trkpt>
      <trkpt lat="41.256575" lon="-3.4516434"><ele>2235</ele><speed>36</speed><time>2016-10-08T14:29:19Z</time><course>49</course><type>18</type></trkpt>
      <trkpt lat="41.2566316" lon="-3.4515384"><ele>2234</ele><speed>32</speed><time>2016-10-08T14:29:20Z</time><course>52</course><type>18</type></trkpt>
      <trkpt lat="41.2566833" lon="-3.4514384"><ele>2233</ele><speed>32</speed><time>2016-10-08T14:29:21Z</time><course>52</course><type>18</type></trkpt>
      <trkpt lat="41.2567316" lon="-3.4513217"><ele>2231</ele><speed>33</speed><time>2016-10-08T14:29:22Z</time><course>54</course><type>18</type></trkpt>
      <trkpt lat="41.2567716" lon="-3.451205"><ele>2230</ele><speed>34</speed><time>2016-10-08T14:29:23Z</time><course>60</course><type>18</type></trkpt>
      <trkpt lat="41.2568216" lon="-3.4510634"><ele>2229</ele><speed>37</speed><time>2016-10-08T14:29:24Z</time><course>63</course><type>18</type></trkpt>
      <trkpt lat="41.2568833" lon="-3.4509067"><ele>2228</ele><speed>44</speed><time>2016-10-08T14:29:25Z</time><course>61</course><type>18</type></trkpt>
      <trkpt lat="41.2569316" lon="-3.4507667"><ele>2227</ele><speed>44</speed><time>2016-10-08T14:29:26Z</time><course>63</course><type>18</type></trkpt>
      <trkpt lat="41.2569783" lon="-3.450625"><ele>2226</ele><speed>44</speed><time>2016-10-08T14:29:27Z</time><course>64</course><type>18</type></trkpt>
      <trkpt lat="41.2570216" lon="-3.450495"><ele>2225</ele><speed>43</speed><time>2016-10-08T14:29:28Z</time><course>64</course><type>18</type></trkpt>
      <trkpt lat="41.2571" lon="-3.45027"><ele>2223</ele><speed>40</speed><time>2016-10-08T14:29:30Z</time><course>64</course><type>18</type></trkpt>
      <trkpt lat="41.257115" lon="-3.450095"><ele>2222</ele><speed>40</speed><time>2016-10-08T14:29:31Z</time><course>66</course><type>18</type></trkpt>
      <trkpt lat="41.2571016" lon="-3.44986"><ele>2222</ele><speed>40</speed><time>2016-10-08T14:29:32Z</time><course>69</course><type>18</type></trkpt>
      <trkpt lat="41.2571683" lon="-3.4496367"><ele>2220</ele><speed>37</speed><time>2016-10-08T14:29:34Z</time><course>67</course><type>18</type></trkpt>
      <trkpt lat="41.2572633" lon="-3.449545"><ele>2218</ele><speed>32</speed><time>2016-10-08T14:29:36Z</time><course>61</course><type>18</type></trkpt>
      <trkpt lat="41.2573866" lon="-3.4495517"><ele>2216</ele><speed>29</speed><time>2016-10-08T14:29:38Z</time><course>47</course><type>18</type></trkpt>
      <trkpt lat="41.2574816" lon="-3.44955"><ele>2215</ele><speed>29</speed><time>2016-10-08T14:29:39Z</time><course>38</course><type>18</type></trkpt>
      <trkpt lat="41.2575816" lon="-3.4495517"><ele>2214</ele><speed>31</speed><time>2016-10-08T14:29:40Z</time><course>34</course><type>18</type></trkpt>
      <trkpt lat="41.2578" lon="-3.4497167"><ele>2212</ele><speed>33</speed><time>2016-10-08T14:29:41Z</time><course>16</course><type>18</type></trkpt>
      <trkpt lat="41.2579516" lon="-3.4497617"><ele>2211</ele><speed>37</speed><time>2016-10-08T14:29:42Z</time><course>9</course><type>18</type></trkpt>
      <trkpt lat="41.2580466" lon="-3.4497667"><ele>2210</ele><speed>35</speed><time>2016-10-08T14:29:43Z</time><course>7</course><type>18</type></trkpt>
      <trkpt lat="41.25815" lon="-3.449755"><ele>2209</ele><speed>35</speed><time>2016-10-08T14:29:44Z</time><course>7</course><type>18</type></trkpt>
      <trkpt lat="41.25832" lon="-3.4497767"><ele>2206</ele><speed>29</speed><time>2016-10-08T14:29:46Z</time><course>358</course><type>18</type></trkpt>
      <trkpt lat="41.2584066" lon="-3.4497217"><ele>2205</ele><speed>29</speed><time>2016-10-08T14:29:47Z</time><course>19</course><type>18</type></trkpt>
      <trkpt lat="41.2585516" lon="-3.4497067"><ele>2204</ele><speed>35</speed><time>2016-10-08T14:29:48Z</time><course>12</course><type>18</type></trkpt>
      <trkpt lat="41.25866" lon="-3.4496884"><ele>2203</ele><speed>36</speed><time>2016-10-08T14:29:49Z</time><course>10</course><type>18</type></trkpt>
      <trkpt lat="41.2587783" lon="-3.44969"><ele>2201</ele><speed>39</speed><time>2016-10-08T14:29:50Z</time><course>2</course><type>18</type></trkpt>
      <trkpt lat="41.258885" lon="-3.4496884"><ele>2200</ele><speed>39</speed><time>2016-10-08T14:29:51Z</time><course>0</course><type>18</type></trkpt>
      <trkpt lat="41.2589899" lon="-3.449695"><ele>2199</ele><speed>39</speed><time>2016-10-08T14:29:52Z</time><course>358</course><type>18</type></trkpt>
      <trkpt lat="41.2590733" lon="-3.4496967"><ele>2198</ele><speed>36</speed><time>2016-10-08T14:29:53Z</time><course>358</course><type>18</type></trkpt>
      <trkpt lat="41.259175" lon="-3.4497117"><ele>2197</ele><speed>35</speed><time>2016-10-08T14:29:54Z</time><course>358</course><type>18</type></trkpt>
      <trkpt lat="41.259275" lon="-3.4497217"><ele>2196</ele><speed>35</speed><time>2016-10-08T14:29:55Z</time><course>0</course><type>18</type></trkpt>
      <trkpt lat="41.259375" lon="-3.4497267"><ele>2194</ele><speed>34</speed><time>2016-10-08T14:29:56Z</time><course>1</course><type>18</type></trkpt>
      <trkpt lat="41.259465" lon="-3.4497317"><ele>2193</ele><speed>34</speed><time>2016-10-08T14:29:57Z</time><course>358</course><type>18</type></trkpt>
      <trkpt lat="41.2595783" lon="-3.4497634"><ele>2192</ele><speed>42</speed><time>2016-10-08T14:29:58Z</time><course>346</course><type>18</type></trkpt>
      <trkpt lat="41.259655" lon="-3.4497651"><ele>2191</ele><speed>35</speed><time>2016-10-08T14:29:59Z</time><course>358</course><type>18</type></trkpt>
      <trkpt lat="41.2597416" lon="-3.4497734"><ele>2190</ele><speed>35</speed><time>2016-10-08T14:30:00Z</time><course>357</course><type>18</type></trkpt>
      <trkpt lat="41.2598899" lon="-3.4497517"><ele>2188</ele><speed>31</speed><time>2016-10-08T14:30:02Z</time><course>358</course><type>18</type></trkpt>
      <trkpt lat="41.2600366" lon="-3.44965"><ele>2186</ele><speed>29</speed><time>2016-10-08T14:30:04Z</time><course>13</course><type>18</type></trkpt>
      <trkpt lat="41.260135" lon="-3.4496334"><ele>2185</ele><speed>32</speed><time>2016-10-08T14:30:05Z</time><course>5</course><type>18</type></trkpt>
      <trkpt lat="41.2602366" lon="-3.4496217"><ele>2185</ele><speed>34</speed><time>2016-10-08T14:30:06Z</time><course>1</course><type>18</type></trkpt>
      <trkpt lat="41.2603333" lon="-3.4496117"><ele>2184</ele><speed>36</speed><time>2016-10-08T14:30:07Z</time><course>359</course><type>18</type></trkpt>
      <trkpt lat="41.2604316" lon="-3.44961"><ele>2183</ele><speed>35</speed><time>2016-10-08T14:30:08Z</time><course>359</course><type>18</type></trkpt>
      <trkpt lat="41.2605199" lon="-3.449605"><ele>2182</ele><speed>34</speed><time>2016-10-08T14:30:09Z</time><course>1</course><type>18</type></trkpt>
      <trkpt lat="41.2606066" lon="-3.4495984"><ele>2181</ele><speed>33</speed><time>2016-10-08T14:30:10Z</time><course>2</course><type>18</type></trkpt>
      <trkpt lat="41.2606999" lon="-3.4495934"><ele>2180</ele><speed>34</speed><time>2016-10-08T14:30:11Z</time><course>2</course><type>18</type></trkpt>
      <trkpt lat="41.260795" lon="-3.4495884"><ele>2179</ele><speed>35</speed><time>2016-10-08T14:30:12Z</time><course>2</course><type>18</type></trkpt>
      <trkpt lat="41.260895" lon="-3.44958"><ele>2178</ele><speed>37</speed><time>2016-10-08T14:30:13Z</time><course>0</course><type>18</type></trkpt>
      <trkpt lat="41.2609833" lon="-3.4495734"><ele>2177</ele><speed>35</speed><time>2016-10-08T14:30:14Z</time><course>356</course><type>18</type></trkpt>
      <trkpt lat="41.2610833" lon="-3.4496034"><ele>2177</ele><speed>41</speed><time>2016-10-08T14:30:15Z</time><course>340</course><type>18</type></trkpt>
      <trkpt lat="41.2611683" lon="-3.4496234"><ele>2176</ele><speed>34</speed><time>2016-10-08T14:30:16Z</time><course>348</course><type>18</type></trkpt>
      <trkpt lat="41.261265" lon="-3.44962"><ele>2175</ele><speed>36</speed><time>2016-10-08T14:30:17Z</time><course>356</course><type>18</type></trkpt>
      <trkpt lat="41.26136" lon="-3.4496084"><ele>2174</ele><speed>37</speed><time>2016-10-08T14:30:18Z</time><course>358</course><type>18</type></trkpt>
      <trkpt lat="41.2614516" lon="-3.4495867"><ele>2173</ele><speed>37</speed><time>2016-10-08T14:30:19Z</time><course>1</course><type>18</type></trkpt>
      <trkpt lat="41.26156" lon="-3.4495634"><ele>2173</ele><speed>38</speed><time>2016-10-08T14:30:20Z</time><course>5</course><type>18</type></trkpt>
      <trkpt lat="41.261655" lon="-3.4495067"><ele>2172</ele><speed>39</speed><time>2016-10-08T14:30:21Z</time><course>12</course><type>18</type></trkpt>
      <trkpt lat="41.26175" lon="-3.4494784"><ele>2171</ele><speed>39</speed><time>2016-10-08T14:30:22Z</time><course>7</course><type>18</type></trkpt>
      <trkpt lat="41.2618383" lon="-3.4494684"><ele>2170</ele><speed>37</speed><time>2016-10-08T14:30:23Z</time><course>4</course><type>18</type></trkpt>
      <trkpt lat="41.261925" lon="-3.4494534"><ele>2169</ele><speed>36</speed><time>2016-10-08T14:30:24Z</time><course>2</course><type>18</type></trkpt>
      <trkpt lat="41.2620116" lon="-3.4494567"><ele>2168</ele><speed>35</speed><time>2016-10-08T14:30:25Z</time><course>0</course><type>18</type></trkpt>
      <trkpt lat="41.2620933" lon="-3.4494584"><ele>2167</ele><speed>35</speed><time>2016-10-08T14:30:26Z</time><course>359</course><type>18</type></trkpt>
      <trkpt lat="41.2621783" lon="-3.4494634"><ele>2167</ele><speed>35</speed><time>2016-10-08T14:30:27Z</time><course>0</course><type>18</type></trkpt>
      <trkpt lat="41.2622649" lon="-3.4494667"><ele>2166</ele><speed>35</speed><time>2016-10-08T14:30:28Z</time><course>359</course><type>18</type></trkpt>
      <trkpt lat="41.2623549" lon="-3.4494634"><ele>2165</ele><speed>36</speed><time>2016-10-08T14:30:29Z</time><course>0</course><type>18</type></trkpt>
      <trkpt lat="41.26244" lon="-3.4494567"><ele>2164</ele><speed>36</speed><time>2016-10-08T14:30:30Z</time><course>0</course><type>18</type></trkpt>
      <trkpt lat="41.2625183" lon="-3.4494501"><ele>2163</ele><speed>33</speed><time>2016-10-08T14:30:31Z</time><course>356</course><type>18</type></trkpt>
      <trkpt lat="41.262605" lon="-3.449485"><ele>2163</ele><speed>37</speed><time>2016-10-08T14:30:32Z</time><course>339</course><type>18</type></trkpt>
      <trkpt lat="41.262685" lon="-3.4495017"><ele>2162</ele><speed>33</speed><time>2016-10-08T14:30:33Z</time><course>348</course><type>18</type></trkpt>
      <trkpt lat="41.2627766" lon="-3.4495184"><ele>2161</ele><speed>34</speed><time>2016-10-08T14:30:34Z</time><course>349</course><type>18</type></trkpt>
      <trkpt lat="41.2628716" lon="-3.4495267"><ele>2161</ele><speed>35</speed><time>2016-10-08T14:30:35Z</time><course>352</course><type>18</type></trkpt>
      <trkpt lat="41.26296" lon="-3.449535"><ele>2160</ele><speed>35</speed><time>2016-10-08T14:30:36Z</time><course>353</course><type>18</type></trkpt>
      <trkpt lat="41.2631199" lon="-3.4496134"><ele>2159</ele><speed>46</speed><time>2016-10-08T14:30:37Z</time><course>347</course><type>18</type></trkpt>
      <trkpt lat="41.2632099" lon="-3.4495617"><ele>2158</ele><speed>44</speed><time>2016-10-08T14:30:38Z</time><course>355</course><type>18</type></trkpt>
      <trkpt lat="41.26326" lon="-3.4494517"><ele>2157</ele><speed>38</speed><time>2016-10-08T14:30:39Z</time><course>6</course><type>18</type></trkpt>
      <trkpt lat="41.2634033" lon="-3.4493767"><ele>2156</ele><speed>36</speed><time>2016-10-08T14:30:41Z</time><course>0</course><type>18</type></trkpt>
      <trkpt lat="41.2635783" lon="-3.4493184"><ele>2154</ele><speed>36</speed><time>2016-10-08T14:30:43Z</time><course>359</course><type>18</type></trkpt>
      <trkpt lat="41.2636716" lon="-3.4493017"><ele>2153</ele><speed>36</speed><time>2016-10-08T14:30:44Z</time><course>359</course><type>18</type></trkpt>
      <trkpt lat="41.26382" lon="-3.4492934"><ele>2151</ele><speed>31</speed><time>2016-10-08T14:30:46Z</time><course>0</course><type>18</type></trkpt>
      <trkpt lat="41.2639566" lon="-3.4493017"><ele>2150</ele><speed>31</speed><time>2016-10-08T14:30:48Z</time><course>354</course><type>18</type></trkpt>
      <trkpt lat="41.2640916" lon="-3.4493217"><ele>2148</ele><speed>29</speed><time>2016-10-08T14:30:50Z</time><course>350</course><type>18</type></trkpt>
      <trkpt lat="41.26417" lon="-3.4493417"><ele>2148</ele><speed>31</speed><time>2016-10-08T14:30:51Z</time><course>348</course><type>18</type></trkpt>
      <trkpt lat="41.2642416" lon="-3.4493634"><ele>2147</ele><speed>30</speed><time>2016-10-08T14:30:52Z</time><course>348</course><type>18</type></trkpt>
      <trkpt lat="41.2643233" lon="-3.4493834"><ele>2147</ele><speed>30</speed><time>2016-10-08T14:30:53Z</time><course>348</course><type>18</type></trkpt>
      <trkpt lat="41.26457" lon="-3.4494167"><ele>2146</ele><speed>42</speed><time>2016-10-08T14:30:55Z</time><course>353</course><type>18</type></trkpt>
      <trkpt lat="41.264695" lon="-3.449335"><ele>2144</ele><speed>33</speed><time>2016-10-08T14:30:58Z</time><course>6</course><type>18</type></trkpt>
      <trkpt lat="41.2648316" lon="-3.4492701"><ele>2143</ele><speed>32</speed><time>2016-10-08T14:31:00Z</time><course>15</course><type>18</type></trkpt>
      <trkpt lat="41.2648083" lon="-3.44911"><ele>2143</ele><speed>30</speed><time>2016-10-08T14:31:01Z</time><course>31</course><type>18</type></trkpt>
      <trkpt lat="41.2648283" lon="-3.4489567"><ele>2142</ele><speed>32</speed><time>2016-10-08T14:31:03Z</time><course>44</course><type>18</type></trkpt>
      <trkpt lat="41.2648466" lon="-3.4487717"><ele>2141</ele><speed>34</speed><time>2016-10-08T14:31:05Z</time><course>46</course><type>18</type></trkpt>
      <trkpt lat="41.26487" lon="-3.448675"><ele>2141</ele><speed>34</speed><time>2016-10-08T14:31:06Z</time><course>49</course><type>18</type></trkpt>
      <trkpt lat="41.264925" lon="-3.4485884"><ele>2141</ele><speed>37</speed><time>2016-10-08T14:31:07Z</time><course>49</course><type>18</type></trkpt>
      <trkpt lat="41.2649883" lon="-3.4485267"><ele>2140</ele><speed>35</speed><time>2016-10-08T14:31:08Z</time><course>48</course><type>18</type></trkpt>
      <trkpt lat="41.2650583" lon="-3.448475"><ele>2140</ele><speed>34</speed><time>2016-10-08T14:31:09Z</time><course>46</course><type>18</type></trkpt>
      <trkpt lat="41.2651116" lon="-3.44837"><ele>2139</ele><speed>37</speed><time>2016-10-08T14:31:10Z</time><course>53</course><type>18</type></trkpt>
      <trkpt lat="41.26517" lon="-3.448275"><ele>2139</ele><speed>37</speed><time>2016-10-08T14:31:11Z</time><course>54</course><type>18</type></trkpt>
      <trkpt lat="41.2653133" lon="-3.4481834"><ele>2138</ele><speed>31</speed><time>2016-10-08T14:31:13Z</time><course>33</course><type>18</type></trkpt>
      <trkpt lat="41.2654033" lon="-3.4481517"><ele>2137</ele><speed>32</speed><time>2016-10-08T14:31:14Z</time><course>31</course><type>18</type></trkpt>
      <trkpt lat="41.2655766" lon="-3.4480734"><ele>2136</ele><speed>35</speed><time>2016-10-08T14:31:16Z</time><course>32</course><type>18</type></trkpt>
      <trkpt lat="41.2656583" lon="-3.4480234"><ele>2136</ele><speed>34</speed><time>2016-10-08T14:31:17Z</time><course>31</course><type>18</type></trkpt>
      <trkpt lat="41.2657916" lon="-3.4479717"><ele>2135</ele><speed>32</speed><time>2016-10-08T14:31:19Z</time><course>32</course><type>18</type></trkpt>
      <trkpt lat="41.265915" lon="-3.4478317"><ele>2134</ele><speed>36</speed><time>2016-10-08T14:31:21Z</time><course>54</course><type>18</type></trkpt>
      <trkpt lat="41.2659816" lon="-3.4477467"><ele>2133</ele><speed>38</speed><time>2016-10-08T14:31:22Z</time><course>58</course><type>18</type></trkpt>
      <trkpt lat="41.2660266" lon="-3.4476467"><ele>2133</ele><speed>38</speed><time>2016-10-08T14:31:23Z</time><course>60</course><type>18</type></trkpt>
      <trkpt lat="41.266055" lon="-3.4475517"><ele>2132</ele><speed>39</speed><time>2016-10-08T14:31:24Z</time><course>62</course><type>18</type></trkpt>
      <trkpt lat="41.2660933" lon="-3.4473784"><ele>2131</ele><speed>50</speed><time>2016-10-08T14:31:25Z</time><course>68</course><type>18</type></trkpt>
      <trkpt lat="41.26611" lon="-3.4472217"><ele>2131</ele><speed>51</speed><time>2016-10-08T14:31:26Z</time><course>70</course><type>18</type></trkpt>
      <trkpt lat="41.266095" lon="-3.4470484"><ele>2130</ele><speed>51</speed><time>2016-10-08T14:31:27Z</time><course>75</course><type>18</type></trkpt>
      <trkpt lat="41.2661016" lon="-3.4469034"><ele>2129</ele><speed>49</speed><time>2016-10-08T14:31:28Z</time><course>75</course><type>18</type></trkpt>
      <trkpt lat="41.2661133" lon="-3.4467684"><ele>2129</ele><speed>46</speed><time>2016-10-08T14:31:29Z</time><course>74</course><type>18</type></trkpt>
      <trkpt lat="41.266105" lon="-3.4465617"><ele>2128</ele><speed>40</speed><time>2016-10-08T14:31:31Z</time><course>72</course><type>18</type></trkpt>
      <trkpt lat="41.2659666" lon="-3.44658"><ele>2126</ele><speed>24</speed><time>2016-10-08T14:31:33Z</time><course>76</course><type>18</type></trkpt>
      <trkpt lat="41.2658666" lon="-3.44668"><ele>2126</ele><speed>15</speed><time>2016-10-08T14:31:34Z</time><course>89</course><type>18</type></trkpt>
      <trkpt lat="41.2657633" lon="-3.4468584"><ele>2126</ele><speed>6</speed><time>2016-10-08T14:31:35Z</time><course>138</course><type>18</type></trkpt>
      <trkpt lat="41.2657" lon="-3.4469684"><ele>2126</ele><speed>7</speed><time>2016-10-08T14:31:36Z</time><course>188</course><type>18</type></trkpt>
      <trkpt lat="41.2656533" lon="-3.447125"><ele>2125</ele><speed>14</speed><time>2016-10-08T14:31:37Z</time><course>241</course><type>18</type></trkpt>
      <trkpt lat="41.2656466" lon="-3.447295"><ele>2124</ele><speed>17</speed><time>2016-10-08T14:31:39Z</time><course>268</course><type>18</type></trkpt>
      <trkpt lat="41.2656" lon="-3.4475167"><ele>2124</ele><speed>24</speed><time>2016-10-08T14:31:41Z</time><course>263</course><type>18</type></trkpt>
      <trkpt lat="41.2655883" lon="-3.4476667"><ele>2123</ele><speed>21</speed><time>2016-10-08T14:31:43Z</time><course>266</course><type>18</type></trkpt>
      <trkpt lat="41.26548" lon="-3.4478167"><ele>2122</ele><speed>16</speed><time>2016-10-08T14:31:46Z</time><course>240</course><type>18</type></trkpt>
      <trkpt lat="41.2654683" lon="-3.4479734"><ele>2120</ele><speed>11</speed><time>2016-10-08T14:31:48Z</time><course>284</course><type>18</type></trkpt>
      <trkpt lat="41.26557" lon="-3.4480667"><ele>2119</ele><speed>10</speed><time>2016-10-08T14:31:50Z</time><course>349</course><type>18</type></trkpt>
      <trkpt lat="41.2656466" lon="-3.4480434"><ele>2118</ele><speed>8</speed><time>2016-10-08T14:31:52Z</time><course>48</course><type>18</type></trkpt>
      <trkpt lat="41.2657" lon="-3.4479734"><ele>2117</ele><speed>12</speed><time>2016-10-08T14:31:53Z</time><course>63</course><type>18</type></trkpt>
      <trkpt lat="41.265775" lon="-3.44787"><ele>2118</ele><speed>19</speed><time>2016-10-08T14:31:54Z</time><course>69</course><type>18</type></trkpt>
      <trkpt lat="41.2658099" lon="-3.4477501"><ele>2117</ele><speed>23</speed><time>2016-10-08T14:31:55Z</time><course>77</course><type>18</type></trkpt>
      <trkpt lat="41.2658" lon="-3.4476167"><ele>2117</ele><speed>24</speed><time>2016-10-08T14:31:56Z</time><course>101</course><type>18</type></trkpt>
      <trkpt lat="41.2658033" lon="-3.44752"><ele>2117</ele><speed>24</speed><time>2016-10-08T14:31:57Z</time><course>96</course><type>18</type></trkpt>
      <trkpt lat="41.2657733" lon="-3.4474184"><ele>2117</ele><speed>23</speed><time>2016-10-08T14:31:58Z</time><course>111</course><type>18</type></trkpt>
      <trkpt lat="41.26575" lon="-3.4473267"><ele>2117</ele><speed>24</speed><time>2016-10-08T14:31:59Z</time><course>112</course><type>18</type></trkpt>
      <trkpt lat="41.26571" lon="-3.4471367"><ele>2116</ele><speed>21</speed><time>2016-10-08T14:32:01Z</time><course>109</course><type>18</type></trkpt>
      <trkpt lat="41.2656583" lon="-3.4470301"><ele>2116</ele><speed>22</speed><time>2016-10-08T14:32:02Z</time><course>115</course><type>18</type></trkpt>
      <trkpt lat="41.26559" lon="-3.4469234"><ele>2116</ele><speed>23</speed><time>2016-10-08T14:32:03Z</time><course>122</course><type>18</type></trkpt>
      <trkpt lat="41.2655116" lon="-3.4468117"><ele>2116</ele><speed>25</speed><time>2016-10-08T14:32:04Z</time><course>126</course><type>18</type></trkpt>
      <trkpt lat="41.2654233" lon="-3.4467117"><ele>2116</ele><speed>28</speed><time>2016-10-08T14:32:05Z</time><course>135</course><type>18</type></trkpt>
      <trkpt lat="41.265325" lon="-3.446635"><ele>2116</ele><speed>30</speed><time>2016-10-08T14:32:06Z</time><course>146</course><type>18</type></trkpt>
      <trkpt lat="41.26525" lon="-3.44659"><ele>2116</ele><speed>29</speed><time>2016-10-08T14:32:07Z</time><course>153</course><type>18</type></trkpt>
      <trkpt lat="41.265165" lon="-3.44658"><ele>2115</ele><speed>27</speed><time>2016-10-08T14:32:08Z</time><course>163</course><type>18</type></trkpt>
      <trkpt lat="41.2650883" lon="-3.4465584"><ele>2115</ele><speed>25</speed><time>2016-10-08T14:32:09Z</time><course>169</course><type>18</type></trkpt>
      <trkpt lat="41.2650183" lon="-3.4465317"><ele>2114</ele><speed>23</speed><time>2016-10-08T14:32:10Z</time><course>169</course><type>18</type></trkpt>
      <trkpt lat="41.2649066" lon="-3.4465001"><ele>2114</ele><speed>19</speed><time>2016-10-08T14:32:12Z</time><course>161</course><type>18</type></trkpt>
      <trkpt lat="41.2647966" lon="-3.4466"><ele>2113</ele><speed>21</speed><time>2016-10-08T14:32:14Z</time><course>188</course><type>18</type></trkpt>
      <trkpt lat="41.264765" lon="-3.4467467"><ele>2112</ele><speed>18</speed><time>2016-10-08T14:32:16Z</time><course>215</course><type>18</type></trkpt>
      <trkpt lat="41.2647316" lon="-3.446855"><ele>2112</ele><speed>10</speed><time>2016-10-08T14:32:19Z</time><course>234</course><type>18</type></trkpt>
      <trkpt lat="41.2648383" lon="-3.44692"><ele>2111</ele><speed>11</speed><time>2016-10-08T14:32:22Z</time><course>1</course><type>18</type></trkpt>
      <trkpt lat="41.2649116" lon="-3.4469034"><ele>2111</ele><speed>15</speed><time>2016-10-08T14:32:24Z</time><course>29</course><type>18</type></trkpt>
      <trkpt lat="41.2649816" lon="-3.4467984"><ele>2111</ele><speed>18</speed><time>2016-10-08T14:32:26Z</time><course>64</course><type>18</type></trkpt>
      <trkpt lat="41.26503" lon="-3.4467067"><ele>2111</ele><speed>23</speed><time>2016-10-08T14:32:27Z</time><course>68</course><type>18</type></trkpt>
      <trkpt lat="41.2650933" lon="-3.44658"><ele>2111</ele><speed>30</speed><time>2016-10-08T14:32:28Z</time><course>69</course><type>18</type></trkpt>
      <trkpt lat="41.2651533" lon="-3.4464217"><ele>2111</ele><speed>38</speed><time>2016-10-08T14:32:29Z</time><course>69</course><type>18</type></trkpt>
      <trkpt lat="41.2652066" lon="-3.44628"><ele>2112</ele><speed>41</speed><time>2016-10-08T14:32:30Z</time><course>70</course><type>18</type></trkpt>
      <trkpt lat="41.2652266" lon="-3.4461267"><ele>2112</ele><speed>43</speed><time>2016-10-08T14:32:31Z</time><course>81</course><type>18</type></trkpt>
      <trkpt lat="41.26526" lon="-3.4459917"><ele>2112</ele><speed>42</speed><time>2016-10-08T14:32:32Z</time><course>79</course><type>18</type></trkpt>
      <trkpt lat="41.2653116" lon="-3.4458667"><ele>2112</ele><speed>42</speed><time>2016-10-08T14:32:33Z</time><course>78</course><type>18</type></trkpt>
      <trkpt lat="41.2653666" lon="-3.4457517"><ele>2113</ele><speed>41</speed><time>2016-10-08T14:32:34Z</time><course>75</course><type>18</type></trkpt>
      <trkpt lat="41.265435" lon="-3.4456517"><ele>2113</ele><speed>40</speed><time>2016-10-08T14:32:35Z</time><course>70</course><type>18</type></trkpt>
      <trkpt lat="41.265515" lon="-3.445525"><ele>2113</ele><speed>41</speed><time>2016-10-08T14:32:36Z</time><course>62</course><type>18</type></trkpt>
      <trkpt lat="41.26566" lon="-3.44536"><ele>2115</ele><speed>48</speed><time>2016-10-08T14:32:37Z</time><course>64</course><type>18</type></trkpt>
      <trkpt lat="41.2657483" lon="-3.4452034"><ele>2115</ele><speed>50</speed><time>2016-10-08T14:32:38Z</time><course>65</course><type>18</type></trkpt>
      <trkpt lat="41.26573" lon="-3.4450534"><ele>2116</ele><speed>48</speed><time>2016-10-08T14:32:39Z</time><course>85</course><type>18</type></trkpt>
      <trkpt lat="41.265755" lon="-3.4448717"><ele>2116</ele><speed>47</speed><time>2016-10-08T14:32:40Z</time><course>84</course><type>18</type></trkpt>
      <trkpt lat="41.265695" lon="-3.4447734"><ele>2116</ele><speed>39</speed><time>2016-10-08T14:32:41Z</time><course>96</course><type>18</type></trkpt>
      <trkpt lat="41.2656166" lon="-3.4446884"><ele>2115</ele><speed>35</speed><time>2016-10-08T14:32:42Z</time><course>107</course><type>18</type></trkpt>
      <trkpt lat="41.2655683" lon="-3.44458"><ele>2115</ele><speed>35</speed><time>2016-10-08T14:32:43Z</time><course>112</course><type>18</type></trkpt>
      <trkpt lat="41.265525" lon="-3.444465"><ele>2115</ele><speed>35</speed><time>2016-10-08T14:32:44Z</time><course>116</course><type>18</type></trkpt>
      <trkpt lat="41.2654166" lon="-3.4444034"><ele>2115</ele><speed>37</speed><time>2016-10-08T14:32:45Z</time><course>141</course><type>18</type></trkpt>
      <trkpt lat="41.2653283" lon="-3.4443584"><ele>2114</ele><speed>36</speed><time>2016-10-08T14:32:46Z</time><course>149</course><type>18</type></trkpt>
      <trkpt lat="41.265165" lon="-3.4442417"><ele>2114</ele><speed>34</speed><time>2016-10-08T14:32:48Z</time><course>153</course><type>18</type></trkpt>
      <trkpt lat="41.2650016" lon="-3.44417"><ele>2114</ele><speed>31</speed><time>2016-10-08T14:32:50Z</time><course>159</course><type>18</type></trkpt>
      <trkpt lat="41.2649116" lon="-3.444135"><ele>2113</ele><speed>31</speed><time>2016-10-08T14:32:51Z</time><course>161</course><type>18</type></trkpt>
      <trkpt lat="41.2648233" lon="-3.4440767"><ele>2113</ele><speed>28</speed><time>2016-10-08T14:32:52Z</time><course>164</course><type>18</type></trkpt>
      <trkpt lat="41.2647316" lon="-3.4440534"><ele>2113</ele><speed>29</speed><time>2016-10-08T14:32:53Z</time><course>169</course><type>18</type></trkpt>
      <trkpt lat="41.2646233" lon="-3.44411"><ele>2113</ele><speed>23</speed><time>2016-10-08T14:32:55Z</time><course>200</course><type>18</type></trkpt>
      <trkpt lat="41.2645366" lon="-3.4441917"><ele>2113</ele><speed>29</speed><time>2016-10-08T14:32:56Z</time><course>219</course><type>18</type></trkpt>
      <trkpt lat="41.264495" lon="-3.44435"><ele>2112</ele><speed>28</speed><time>2016-10-08T14:32:58Z</time><course>247</course><type>18</type></trkpt>
      <trkpt lat="41.2644516" lon="-3.444525"><ele>2112</ele><speed>26</speed><time>2016-10-08T14:33:00Z</time><course>253</course><type>18</type></trkpt>
      <trkpt lat="41.2643033" lon="-3.444785"><ele>2112</ele><speed>27</speed><time>2016-10-08T14:33:02Z</time><course>262</course><type>18</type></trkpt>
      <trkpt lat="41.26427" lon="-3.4449"><ele>2113</ele><speed>27</speed><time>2016-10-08T14:33:03Z</time><course>280</course><type>18</type></trkpt>
      <trkpt lat="41.2643133" lon="-3.4449834"><ele>2113</ele><speed>33</speed><time>2016-10-08T14:33:04Z</time><course>294</course><type>18</type></trkpt>
      <trkpt lat="41.26436" lon="-3.4451517"><ele>2114</ele><speed>31</speed><time>2016-10-08T14:33:06Z</time><course>297</course><type>18</type></trkpt>
      <trkpt lat="41.264385" lon="-3.445245"><ele>2114</ele><speed>30</speed><time>2016-10-08T14:33:07Z</time><course>298</course><type>18</type></trkpt>
      <trkpt lat="41.2644866" lon="-3.4454067"><ele>2114</ele><speed>27</speed><time>2016-10-08T14:33:09Z</time><course>303</course><type>18</type></trkpt>
      <trkpt lat="41.2646133" lon="-3.4454384"><ele>2115</ele><speed>30</speed><time>2016-10-08T14:33:10Z</time><course>324</course><type>18</type></trkpt>
      <trkpt lat="41.2647133" lon="-3.4454784"><ele>2115</ele><speed>31</speed><time>2016-10-08T14:33:11Z</time><course>329</course><type>18</type></trkpt>
      <trkpt lat="41.2648" lon="-3.4455101"><ele>2114</ele><speed>30</speed><time>2016-10-08T14:33:12Z</time><course>334</course><type>18</type></trkpt>
      <trkpt lat="41.2648933" lon="-3.4454917"><ele>2114</ele><speed>28</speed><time>2016-10-08T14:33:13Z</time><course>351</course><type>18</type></trkpt>
      <trkpt lat="41.2649516" lon="-3.4453834"><ele>2114</ele><speed>14</speed><time>2016-10-08T14:33:15Z</time><course>7</course><type>18</type></trkpt>
      <trkpt lat="41.2649216" lon="-3.4452484"><ele>2115</ele><speed>6</speed><time>2016-10-08T14:33:17Z</time><course>170</course><type>18</type></trkpt>
      <trkpt lat="41.2648633" lon="-3.44514"><ele>2116</ele><speed>14</speed><time>2016-10-08T14:33:18Z</time><course>159</course><type>18</type></trkpt>
      <trkpt lat="41.2647816" lon="-3.4450234"><ele>2117</ele><speed>22</speed><time>2016-10-08T14:33:19Z</time><course>154</course><type>18</type></trkpt>
      <trkpt lat="41.26469" lon="-3.4448801"><ele>2117</ele><speed>29</speed><time>2016-10-08T14:33:20Z</time><course>148</course><type>18</type></trkpt>
      <trkpt lat="41.2646133" lon="-3.444815"><ele>2117</ele><speed>31</speed><time>2016-10-08T14:33:21Z</time><course>149</course><type>18</type></trkpt>
      <trkpt lat="41.2645416" lon="-3.4447634"><ele>2117</ele><speed>32</speed><time>2016-10-08T14:33:22Z</time><course>149</course><type>18</type></trkpt>
      <trkpt lat="41.2644683" lon="-3.4446984"><ele>2117</ele><speed>32</speed><time>2016-10-08T14:33:23Z</time><course>149</course><type>18</type></trkpt>
      <trkpt lat="41.2644" lon="-3.4446517"><ele>2117</ele><speed>30</speed><time>2016-10-08T14:33:24Z</time><course>151</course><type>18</type></trkpt>
      <trkpt lat="41.2643283" lon="-3.4446"><ele>2117</ele><speed>31</speed><time>2016-10-08T14:33:25Z</time><course>152</course><type>18</type></trkpt>
      <trkpt lat="41.2641783" lon="-3.444475"><ele>2117</ele><speed>33</speed><time>2016-10-08T14:33:27Z</time><course>150</course><type>18</type></trkpt>
      <trkpt lat="41.2640416" lon="-3.4443617"><ele>2117</ele><speed>32</speed><time>2016-10-08T14:33:29Z</time><course>149</course><type>18</type></trkpt>
      <trkpt lat="41.2639133" lon="-3.4442667"><ele>2116</ele><speed>30</speed><time>2016-10-08T14:33:31Z</time><course>151</course><type>18</type></trkpt>
      <trkpt lat="41.2637883" lon="-3.4441934"><ele>2116</ele><speed>28</speed><time>2016-10-08T14:33:33Z</time><course>153</course><type>18</type></trkpt>
      <trkpt lat="41.2636483" lon="-3.444175"><ele>2116</ele><speed>28</speed><time>2016-10-08T14:33:35Z</time><course>161</course><type>18</type></trkpt>
      <trkpt lat="41.2638666" lon="-3.4443084"><ele>2116</ele><speed>13</speed><time>2016-10-08T14:33:36Z</time><course>163</course><type>18</type></trkpt>
      <trkpt lat="41.2641216" lon="-3.444505"><ele>2115</ele><speed>3</speed><time>2016-10-08T14:33:37Z</time><course>163</course><type>18</type></trkpt>
      <trkpt lat="41.2643133" lon="-3.4447084"><ele>2115</ele><speed>0</speed><time>2016-10-08T14:33:39Z</time><course>163</course><type>18</type></trkpt>
      <trkpt lat="41.2644966" lon="-3.4448484"><ele>2114</ele><speed>6</speed><time>2016-10-08T14:33:44Z</time><course>274</course><type>18</type></trkpt>
      <trkpt lat="41.26488" lon="-3.4447117"><ele>2114</ele><speed>9</speed><time>2016-10-08T14:33:46Z</time><course>342</course><type>18</type></trkpt>
      <trkpt lat="41.265105" lon="-3.4447084"><ele>2113</ele><speed>16</speed><time>2016-10-08T14:33:48Z</time><course>358</course><type>18</type></trkpt>
      <trkpt lat="41.2652533" lon="-3.4447334"><ele>2113</ele><speed>18</speed><time>2016-10-08T14:33:50Z</time><course>3</course><type>18</type></trkpt>
      <trkpt lat="41.2654133" lon="-3.44471"><ele>2113</ele><speed>21</speed><time>2016-10-08T14:33:52Z</time><course>11</course><type>18</type></trkpt>
      <trkpt lat="41.2656266" lon="-3.4446434"><ele>2113</ele><speed>24</speed><time>2016-10-08T14:33:54Z</time><course>21</course><type>18</type></trkpt>
      <trkpt lat="41.2658016" lon="-3.4446"><ele>2112</ele><speed>26</speed><time>2016-10-08T14:33:56Z</time><course>17</course><type>18</type></trkpt>
      <trkpt lat="41.2659683" lon="-3.4446134"><ele>2112</ele><speed>31</speed><time>2016-10-08T14:33:58Z</time><course>14</course><type>18</type></trkpt>
      <trkpt lat="41.2658383" lon="-3.4447017"><ele>2112</ele><speed>33</speed><time>2016-10-08T14:33:59Z</time><course>37</course><type>18</type></trkpt>
      <trkpt lat="41.2658833" lon="-3.4444934"><ele>2111</ele><speed>37</speed><time>2016-10-08T14:34:01Z</time><course>52</course><type>18</type></trkpt>
      <trkpt lat="41.2658866" lon="-3.4443284"><ele>2111</ele><speed>36</speed><time>2016-10-08T14:34:02Z</time><course>58</course><type>18</type></trkpt>
      <trkpt lat="41.26588" lon="-3.4441534"><ele>2111</ele><speed>36</speed><time>2016-10-08T14:34:03Z</time><course>69</course><type>18</type></trkpt>
      <trkpt lat="41.265815" lon="-3.4439267"><ele>2110</ele><speed>37</speed><time>2016-10-08T14:34:04Z</time><course>80</course><type>18</type></trkpt>
      <trkpt lat="41.2657816" lon="-3.44371"><ele>2111</ele><speed>48</speed><time>2016-10-08T14:34:05Z</time><course>96</course><type>18</type></trkpt>
      <trkpt lat="41.2657466" lon="-3.4436067"><ele>2110</ele><speed>45</speed><time>2016-10-08T14:34:06Z</time><course>106</course><type>18</type></trkpt>
      <trkpt lat="41.2656483" lon="-3.4434767"><ele>2110</ele><speed>48</speed><time>2016-10-08T14:34:07Z</time><course>123</course><type>18</type></trkpt>
      <trkpt lat="41.2655849" lon="-3.44335"><ele>2110</ele><speed>46</speed><time>2016-10-08T14:34:08Z</time><course>123</course><type>18</type></trkpt>
      <trkpt lat="41.265505" lon="-3.4430967"><ele>2111</ele><speed>48</speed><time>2016-10-08T14:34:09Z</time><course>121</course><type>18</type></trkpt>
      <trkpt lat="41.2654416" lon="-3.44295"><ele>2111</ele><speed>48</speed><time>2016-10-08T14:34:10Z</time><course>121</course><type>18</type></trkpt>
      <trkpt lat="41.2653816" lon="-3.4427767"><ele>2111</ele><speed>48</speed><time>2016-10-08T14:34:11Z</time><course>119</course><type>18</type></trkpt>
      <trkpt lat="41.2653283" lon="-3.44263"><ele>2110</ele><speed>47</speed><time>2016-10-08T14:34:12Z</time><course>119</course><type>18</type></trkpt>
      <trkpt lat="41.2651383" lon="-3.4422684"><ele>2112</ele><speed>52</speed><time>2016-10-08T14:34:13Z</time><course>122</course><type>18</type></trkpt>
      <trkpt lat="41.26486" lon="-3.4417684"><ele>2115</ele><speed>63</speed><time>2016-10-08T14:34:14Z</time><course>125</course><type>18</type></trkpt>
      <trkpt lat="41.2646733" lon="-3.441415"><ele>2115</ele><speed>67</speed><time>2016-10-08T14:34:15Z</time><course>127</course><type>18</type></trkpt>
      <trkpt lat="41.2645483" lon="-3.44119"><ele>2116</ele><speed>68</speed><time>2016-10-08T14:34:16Z</time><course>128</course><type>18</type></trkpt>
      <trkpt lat="41.2644333" lon="-3.44108"><ele>2116</ele><speed>65</speed><time>2016-10-08T14:34:17Z</time><course>130</course><type>18</type></trkpt>
      <trkpt lat="41.2643166" lon="-3.4410384"><ele>2116</ele><speed>60</speed><time>2016-10-08T14:34:18Z</time><course>133</course><type>18</type></trkpt>
      <trkpt lat="41.2641899" lon="-3.4410667"><ele>2116</ele><speed>45</speed><time>2016-10-08T14:34:20Z</time><course>139</course><type>18</type></trkpt>
      <trkpt lat="41.2641449" lon="-3.4411867"><ele>2117</ele><speed>24</speed><time>2016-10-08T14:34:22Z</time><course>147</course><type>18</type></trkpt>
      <trkpt lat="41.264165" lon="-3.4414117"><ele>2118</ele><speed>8</speed><time>2016-10-08T14:34:24Z</time><course>179</course><type>18</type></trkpt>
      <trkpt lat="41.2641283" lon="-3.4415534"><ele>2117</ele><speed>7</speed><time>2016-10-08T14:34:27Z</time><course>218</course><type>18</type></trkpt>
      <trkpt lat="41.264015" lon="-3.4415084"><ele>2117</ele><speed>17</speed><time>2016-10-08T14:34:28Z</time><course>167</course><type>18</type></trkpt>
      <trkpt lat="41.2639233" lon="-3.4415867"><ele>2117</ele><speed>15</speed><time>2016-10-08T14:34:30Z</time><course>191</course><type>18</type></trkpt>
      <trkpt lat="41.2639533" lon="-3.4417284"><ele>2116</ele><speed>12</speed><time>2016-10-08T14:34:33Z</time><course>266</course><type>18</type></trkpt>
      <trkpt lat="41.26407" lon="-3.44183"><ele>2116</ele><speed>10</speed><time>2016-10-08T14:34:36Z</time><course>308</course><type>18</type></trkpt>
      <trkpt lat="41.264135" lon="-3.441965"><ele>2115</ele><speed>11</speed><time>2016-10-08T14:34:38Z</time><course>337</course><type>18</type></trkpt>
      <trkpt lat="41.2642383" lon="-3.442025"><ele>2115</ele><speed>18</speed><time>2016-10-08T14:34:40Z</time><course>327</course><type>18</type></trkpt>
      <trkpt lat="41.2642816" lon="-3.44192"><ele>2115</ele><speed>19</speed><time>2016-10-08T14:34:41Z</time><course>53</course><type>18</type></trkpt>
      <trkpt lat="41.26431" lon="-3.4416884"><ele>2115</ele><speed>52</speed><time>2016-10-08T14:34:44Z</time><course>90</course><type>18</type></trkpt>
      <trkpt lat="41.2643133" lon="-3.4415117"><ele>2114</ele><speed>53</speed><time>2016-10-08T14:34:45Z</time><course>92</course><type>18</type></trkpt>
      <trkpt lat="41.2643066" lon="-3.4413467"><ele>2114</ele><speed>51</speed><time>2016-10-08T14:34:46Z</time><course>94</course><type>18</type></trkpt>
      <trkpt lat="41.2642983" lon="-3.44119"><ele>2113</ele><speed>48</speed><time>2016-10-08T14:34:47Z</time><course>96</course><type>18</type></trkpt>
      <trkpt lat="41.2643366" lon="-3.441015"><ele>2113</ele><speed>48</speed><time>2016-10-08T14:34:48Z</time><course>97</course><type>18</type></trkpt>
      <trkpt lat="41.2643316" lon="-3.440865"><ele>2112</ele><speed>47</speed><time>2016-10-08T14:34:49Z</time><course>98</course><type>18</type></trkpt>
      <trkpt lat="41.2643016" lon="-3.4407217"><ele>2112</ele><speed>46</speed><time>2016-10-08T14:34:50Z</time><course>101</course><type>18</type></trkpt>
      <trkpt lat="41.2641433" lon="-3.4408334"><ele>2111</ele><speed>36</speed><time>2016-10-08T14:34:51Z</time><course>155</course><type>18</type></trkpt>
      <trkpt lat="41.2640566" lon="-3.4408734"><ele>2110</ele><speed>26</speed><time>2016-10-08T14:34:54Z</time><course>195</course><type>18</type></trkpt>
      <trkpt lat="41.26399" lon="-3.4409417"><ele>2109</ele><speed>22</speed><time>2016-10-08T14:34:56Z</time><course>210</course><type>18</type></trkpt>
      <trkpt lat="41.263955" lon="-3.44104"><ele>2108</ele><speed>20</speed><time>2016-10-08T14:34:58Z</time><course>222</course><type>18</type></trkpt>
      <trkpt lat="41.2638666" lon="-3.4411584"><ele>2108</ele><speed>23</speed><time>2016-10-08T14:35:00Z</time><course>199</course><type>18</type></trkpt>
      <trkpt lat="41.2638066" lon="-3.441215"><ele>2108</ele><speed>24</speed><time>2016-10-08T14:35:01Z</time><course>199</course><type>18</type></trkpt>
      <trkpt lat="41.2637383" lon="-3.4412817"><ele>2108</ele><speed>25</speed><time>2016-10-08T14:35:02Z</time><course>203</course><type>18</type></trkpt>
      <trkpt lat="41.263675" lon="-3.4413417"><ele>2108</ele><speed>25</speed><time>2016-10-08T14:35:03Z</time><course>205</course><type>18</type></trkpt>
      <trkpt lat="41.2636483" lon="-3.4414417"><ele>2107</ele><speed>14</speed><time>2016-10-08T14:35:05Z</time><course>240</course><type>18</type></trkpt>
      <trkpt lat="41.263675" lon="-3.4415434"><ele>2107</ele><speed>13</speed><time>2016-10-08T14:35:07Z</time><course>291</course><type>18</type></trkpt>
      <trkpt lat="41.2637483" lon="-3.4416017"><ele>2107</ele><speed>13</speed><time>2016-10-08T14:35:09Z</time><course>317</course><type>18</type></trkpt>
      <trkpt lat="41.2638566" lon="-3.4416067"><ele>2107</ele><speed>16</speed><time>2016-10-08T14:35:11Z</time><course>349</course><type>18</type></trkpt>
      <trkpt lat="41.2639766" lon="-3.4415917"><ele>2106</ele><speed>18</speed><time>2016-10-08T14:35:13Z</time><course>11</course><type>18</type></trkpt>
      <trkpt lat="41.2640616" lon="-3.4415934"><ele>2106</ele><speed>19</speed><time>2016-10-08T14:35:14Z</time><course>8</course><type>18</type></trkpt>
      <trkpt lat="41.2642183" lon="-3.44159"><ele>2107</ele><speed>35</speed><time>2016-10-08T14:35:16Z</time><course>9</course><type>18</type></trkpt>
      <trkpt lat="41.2643016" lon="-3.441565"><ele>2107</ele><speed>34</speed><time>2016-10-08T14:35:17Z</time><course>9</course><type>18</type></trkpt>
      <trkpt lat="41.2643883" lon="-3.441495"><ele>2107</ele><speed>40</speed><time>2016-10-08T14:35:18Z</time><course>23</course><type>18</type></trkpt>
      <trkpt lat="41.2644483" lon="-3.4413834"><ele>2107</ele><speed>40</speed><time>2016-10-08T14:35:19Z</time><course>41</course><type>18</type></trkpt>
      <trkpt lat="41.2644983" lon="-3.44129"><ele>2107</ele><speed>34</speed><time>2016-10-08T14:35:20Z</time><course>52</course><type>18</type></trkpt>
      <trkpt lat="41.2645183" lon="-3.4411767"><ele>2107</ele><speed>30</speed><time>2016-10-08T14:35:21Z</time><course>68</course><type>18</type></trkpt>
      <trkpt lat="41.2645166" lon="-3.4410567"><ele>2107</ele><speed>29</speed><time>2016-10-08T14:35:22Z</time><course>85</course><type>18</type></trkpt>
      <trkpt lat="41.2645016" lon="-3.440945"><ele>2107</ele><speed>28</speed><time>2016-10-08T14:35:23Z</time><course>99</course><type>18</type></trkpt>
      <trkpt lat="41.2644683" lon="-3.440845"><ele>2107</ele><speed>31</speed><time>2016-10-08T14:35:24Z</time><course>113</course><type>18</type></trkpt>
      <trkpt lat="41.2644133" lon="-3.4407284"><ele>2107</ele><speed>34</speed><time>2016-10-08T14:35:25Z</time><course>121</course><type>18</type></trkpt>
      <trkpt lat="41.2642983" lon="-3.4405117"><ele>2107</ele><speed>46</speed><time>2016-10-08T14:35:26Z</time><course>125</course><type>18</type></trkpt>
      <trkpt lat="41.2642333" lon="-3.4403917"><ele>2107</ele><speed>45</speed><time>2016-10-08T14:35:27Z</time><course>126</course><type>18</type></trkpt>
      <trkpt lat="41.264175" lon="-3.4402867"><ele>2107</ele><speed>42</speed><time>2016-10-08T14:35:28Z</time><course>127</course><type>18</type></trkpt>
      <trkpt lat="41.264105" lon="-3.4401717"><ele>2107</ele><speed>40</speed><time>2016-10-08T14:35:29Z</time><course>126</course><type>18</type></trkpt>
      <trkpt lat="41.26404" lon="-3.4400584"><ele>2107</ele><speed>37</speed><time>2016-10-08T14:35:30Z</time><course>126</course><type>18</type></trkpt>
      <trkpt lat="41.2639783" lon="-3.4399467"><ele>2107</ele><speed>38</speed><time>2016-10-08T14:35:31Z</time><course>127</course><type>18</type></trkpt>
      <trkpt lat="41.2639133" lon="-3.4398384"><ele>2107</ele><speed>38</speed><time>2016-10-08T14:35:32Z</time><course>129</course><type>18</type></trkpt>
      <trkpt lat="41.2638466" lon="-3.4397284"><ele>2107</ele><speed>39</speed><time>2016-10-08T14:35:33Z</time><course>130</course><type>18</type></trkpt>
      <trkpt lat="41.2637883" lon="-3.439625"><ele>2107</ele><speed>39</speed><time>2016-10-08T14:35:34Z</time><course>129</course><type>18</type></trkpt>
      <trkpt lat="41.2637283" lon="-3.4395134"><ele>2107</ele><speed>40</speed><time>2016-10-08T14:35:35Z</time><course>128</course><type>18</type></trkpt>
      <trkpt lat="41.2636583" lon="-3.4393784"><ele>2107</ele><speed>42</speed><time>2016-10-08T14:35:36Z</time><course>127</course><type>18</type></trkpt>
      <trkpt lat="41.2636" lon="-3.4392584"><ele>2107</ele><speed>41</speed><time>2016-10-08T14:35:37Z</time><course>125</course><type>18</type></trkpt>
      <trkpt lat="41.2635383" lon="-3.43914"><ele>2106</ele><speed>40</speed><time>2016-10-08T14:35:38Z</time><course>125</course><type>18</type></trkpt>
      <trkpt lat="41.2634799" lon="-3.4390234"><ele>2106</ele><speed>39</speed><time>2016-10-08T14:35:39Z</time><course>125</course><type>18</type></trkpt>
      <trkpt lat="41.2633333" lon="-3.4387634"><ele>2106</ele><speed>41</speed><time>2016-10-08T14:35:40Z</time><course>126</course><type>18</type></trkpt>
      <trkpt lat="41.2631733" lon="-3.438625"><ele>2106</ele><speed>43</speed><time>2016-10-08T14:35:41Z</time><course>130</course><type>18</type></trkpt>
      <trkpt lat="41.2632183" lon="-3.4384484"><ele>2105</ele><speed>13</speed><time>2016-10-08T14:35:45Z</time><course>90</course><type>18</type></trkpt>
      <trkpt lat="41.263365" lon="-3.4384984"><ele>2105</ele><speed>19</speed><time>2016-10-08T14:35:48Z</time><course>344</course><type>18</type></trkpt>
      <trkpt lat="41.2634816" lon="-3.4385484"><ele>2104</ele><speed>18</speed><time>2016-10-08T14:35:50Z</time><course>351</course><type>18</type></trkpt>
      <trkpt lat="41.2636083" lon="-3.4385967"><ele>2104</ele><speed>17</speed><time>2016-10-08T14:35:53Z</time><course>347</course><type>18</type></trkpt>
      <trkpt lat="41.263735" lon="-3.4387067"><ele>2103</ele><speed>18</speed><time>2016-10-08T14:35:56Z</time><course>337</course><type>18</type></trkpt>
      <trkpt lat="41.2639166" lon="-3.438725"><ele>2103</ele><speed>18</speed><time>2016-10-08T14:35:59Z</time><course>345</course><type>18</type></trkpt>
      <trkpt lat="41.26407" lon="-3.4386684"><ele>2102</ele><speed>19</speed><time>2016-10-08T14:36:01Z</time><course>358</course><type>18</type></trkpt>
      <trkpt lat="41.264275" lon="-3.4386017"><ele>2102</ele><speed>23</speed><time>2016-10-08T14:36:04Z</time><course>8</course><type>18</type></trkpt>
      <trkpt lat="41.2655716" lon="-3.4399834"><ele>2103</ele><speed>40</speed><time>2016-10-08T14:36:08Z</time><course>344</course><type>18</type></trkpt>
      <trkpt lat="41.265845" lon="-3.4403784"><ele>2103</ele><speed>41</speed><time>2016-10-08T14:36:09Z</time><course>342</course><type>18</type></trkpt>
      <trkpt lat="41.2660083" lon="-3.4406084"><ele>2103</ele><speed>42</speed><time>2016-10-08T14:36:10Z</time><course>341</course><type>18</type></trkpt>
      <trkpt lat="41.266295" lon="-3.4406634"><ele>2103</ele><speed>44</speed><time>2016-10-08T14:36:11Z</time><course>336</course><type>18</type></trkpt>
      <trkpt lat="41.2664183" lon="-3.440715"><ele>2103</ele><speed>45</speed><time>2016-10-08T14:36:12Z</time><course>337</course><type>18</type></trkpt>
      <trkpt lat="41.2665516" lon="-3.4405834"><ele>2103</ele><speed>40</speed><time>2016-10-08T14:36:14Z</time><course>342</course><type>18</type></trkpt>
      <trkpt lat="41.26622" lon="-3.4385917"><ele>2103</ele><speed>21</speed><time>2016-10-08T14:36:16Z</time><course>75</course><type>18</type></trkpt>
      <trkpt lat="41.2661016" lon="-3.4384217"><ele>2102</ele><speed>16</speed><time>2016-10-08T14:36:20Z</time><course>89</course><type>18</type></trkpt>
      <trkpt lat="41.2659433" lon="-3.438405"><ele>2102</ele><speed>15</speed><time>2016-10-08T14:36:21Z</time><course>106</course><type>18</type></trkpt>
      <trkpt lat="41.2658216" lon="-3.438435"><ele>2102</ele><speed>9</speed><time>2016-10-08T14:36:23Z</time><course>137</course><type>18</type></trkpt>
      <trkpt lat="41.26571" lon="-3.43829"><ele>2101</ele><speed>12</speed><time>2016-10-08T14:36:27Z</time><course>154</course><type>18</type></trkpt>
      <trkpt lat="41.2653916" lon="-3.43794"><ele>2103</ele><speed>16</speed><time>2016-10-08T14:36:28Z</time><course>168</course><type>18</type></trkpt>
      <trkpt lat="41.2649033" lon="-3.4372984"><ele>2103</ele><speed>20</speed><time>2016-10-08T14:36:29Z</time><course>175</course><type>18</type></trkpt>
      <trkpt lat="41.2645949" lon="-3.4369217"><ele>2104</ele><speed>21</speed><time>2016-10-08T14:36:30Z</time><course>179</course><type>18</type></trkpt>
      <trkpt lat="41.264275" lon="-3.436545"><ele>2104</ele><speed>23</speed><time>2016-10-08T14:36:31Z</time><course>184</course><type>18</type></trkpt>
      <trkpt lat="41.2641066" lon="-3.4366284"><ele>2103</ele><speed>8</speed><time>2016-10-08T14:36:33Z</time><course>252</course><type>18</type></trkpt>
      <trkpt lat="41.264045" lon="-3.436795"><ele>2103</ele><speed>8</speed><time>2016-10-08T14:36:36Z</time><course>221</course><type>18</type></trkpt>
      <trkpt lat="41.2641516" lon="-3.4369"><ele>2101</ele><speed>7</speed><time>2016-10-08T14:36:41Z</time><course>309</course><type>18</type></trkpt>
      <trkpt lat="41.2642783" lon="-3.43679"><ele>2099</ele><speed>8</speed><time>2016-10-08T14:36:50Z</time><course>57</course><type>18</type></trkpt>
      <trkpt lat="41.2643033" lon="-3.4365967"><ele>2098</ele><speed>9</speed><time>2016-10-08T14:36:54Z</time><course>55</course><type>18</type></trkpt>
      <trkpt lat="41.264905" lon="-3.4366"><ele>2098</ele><speed>18</speed><time>2016-10-08T14:36:56Z</time><course>22</course><type>18</type></trkpt>
      <trkpt lat="41.2654183" lon="-3.4366117"><ele>2098</ele><speed>24</speed><time>2016-10-08T14:36:57Z</time><course>21</course><type>18</type></trkpt>
      <trkpt lat="41.2655683" lon="-3.4367334"><ele>2098</ele><speed>9</speed><time>2016-10-08T14:36:59Z</time><course>349</course><type>18</type></trkpt>
      <trkpt lat="41.2656333" lon="-3.4368667"><ele>2097</ele><speed>13</speed><time>2016-10-08T14:37:01Z</time><course>292</course><type>18</type></trkpt>
      <trkpt lat="41.2656816" lon="-3.4369884"><ele>2097</ele><speed>17</speed><time>2016-10-08T14:37:03Z</time><course>274</course><type>18</type></trkpt>
      <trkpt lat="41.26574" lon="-3.4371667"><ele>2097</ele><speed>29</speed><time>2016-10-08T14:37:05Z</time><course>264</course><type>18</type></trkpt>
      <trkpt lat="41.2657283" lon="-3.4373384"><ele>2097</ele><speed>28</speed><time>2016-10-08T14:37:07Z</time><course>244</course><type>18</type></trkpt>
      <trkpt lat="41.2657116" lon="-3.4374867"><ele>2097</ele><speed>25</speed><time>2016-10-08T14:37:09Z</time><course>237</course><type>18</type></trkpt>
      <trkpt lat="41.265745" lon="-3.4376884"><ele>2099</ele><speed>25</speed><time>2016-10-08T14:37:11Z</time><course>230</course><type>18</type></trkpt>
      <trkpt lat="41.2657283" lon="-3.4378467"><ele>2100</ele><speed>24</speed><time>2016-10-08T14:37:13Z</time><course>227</course><type>18</type></trkpt>
      <trkpt lat="41.265645" lon="-3.437985"><ele>2101</ele><speed>20</speed><time>2016-10-08T14:37:16Z</time><course>234</course><type>18</type></trkpt>
      <trkpt lat="41.2655566" lon="-3.4380884"><ele>2101</ele><speed>21</speed><time>2016-10-08T14:37:18Z</time><course>225</course><type>18</type></trkpt>
      <trkpt lat="41.2654266" lon="-3.43819"><ele>2101</ele><speed>23</speed><time>2016-10-08T14:37:20Z</time><course>218</course><type>18</type></trkpt>
      <trkpt lat="41.2653166" lon="-3.4382484"><ele>2101</ele><speed>22</speed><time>2016-10-08T14:37:22Z</time><course>210</course><type>18</type></trkpt>
      <trkpt lat="41.2651866" lon="-3.4382984"><ele>2102</ele><speed>20</speed><time>2016-10-08T14:37:25Z</time><course>198</course><type>18</type></trkpt>
      <trkpt lat="41.2650933" lon="-3.4383834"><ele>2102</ele><speed>19</speed><time>2016-10-08T14:37:27Z</time><course>197</course><type>18</type></trkpt>
      <trkpt lat="41.2650266" lon="-3.43856"><ele>2102</ele><speed>22</speed><time>2016-10-08T14:37:28Z</time><course>208</course><type>18</type></trkpt>
      <trkpt lat="41.2651616" lon="-3.4387884"><ele>2103</ele><speed>15</speed><time>2016-10-08T14:37:30Z</time><course>229</course><type>18</type></trkpt>
      <trkpt lat="41.265265" lon="-3.4386217"><ele>2103</ele><speed>5</speed><time>2016-10-08T14:37:32Z</time><course>95</course><type>18</type></trkpt>
      <trkpt lat="41.2645466" lon="-3.4367334"><ele>2107</ele><speed>50</speed><time>2016-10-08T14:37:35Z</time><course>116</course><type>18</type></trkpt>
      <trkpt lat="41.2642083" lon="-3.436295"><ele>2108</ele><speed>52</speed><time>2016-10-08T14:37:36Z</time><course>116</course><type>18</type></trkpt>
      <trkpt lat="41.2640366" lon="-3.436135"><ele>2108</ele><speed>52</speed><time>2016-10-08T14:37:37Z</time><course>117</course><type>18</type></trkpt>
      <trkpt lat="41.2640133" lon="-3.4359434"><ele>2108</ele><speed>37</speed><time>2016-10-08T14:37:40Z</time><course>120</course><type>18</type></trkpt>
      <trkpt lat="41.263925" lon="-3.43604"><ele>2109</ele><speed>14</speed><time>2016-10-08T14:37:46Z</time><course>180</course><type>18</type></trkpt>
      <trkpt lat="41.2637166" lon="-3.4359767"><ele>2109</ele><speed>22</speed><time>2016-10-08T14:37:48Z</time><course>183</course><type>18</type></trkpt>
      <trkpt lat="41.2635716" lon="-3.4360034"><ele>2110</ele><speed>22</speed><time>2016-10-08T14:37:50Z</time><course>185</course><type>18</type></trkpt>
      <trkpt lat="41.2634366" lon="-3.4360317"><ele>2110</ele><speed>23</speed><time>2016-10-08T14:37:52Z</time><course>184</course><type>18</type></trkpt>
      <trkpt lat="41.2632783" lon="-3.4360267"><ele>2110</ele><speed>29</speed><time>2016-10-08T14:37:54Z</time><course>182</course><type>18</type></trkpt>
      <trkpt lat="41.2631766" lon="-3.4360434"><ele>2110</ele><speed>31</speed><time>2016-10-08T14:37:55Z</time><course>181</course><type>18</type></trkpt>
      <trkpt lat="41.2630766" lon="-3.43606"><ele>2110</ele><speed>33</speed><time>2016-10-08T14:37:56Z</time><course>179</course><type>18</type></trkpt>
      <trkpt lat="41.2629816" lon="-3.4360667"><ele>2110</ele><speed>33</speed><time>2016-10-08T14:37:57Z</time><course>177</course><type>18</type></trkpt>
      <trkpt lat="41.262885" lon="-3.4361"><ele>2111</ele><speed>34</speed><time>2016-10-08T14:37:58Z</time><course>179</course><type>18</type></trkpt>
      <trkpt lat="41.2627866" lon="-3.4361234"><ele>2111</ele><speed>34</speed><time>2016-10-08T14:37:59Z</time><course>181</course><type>18</type></trkpt>
      <trkpt lat="41.2626166" lon="-3.4361567"><ele>2111</ele><speed>31</speed><time>2016-10-08T14:38:01Z</time><course>186</course><type>18</type></trkpt>
      <trkpt lat="41.2625133" lon="-3.4360684"><ele>2112</ele><speed>25</speed><time>2016-10-08T14:38:03Z</time><course>173</course><type>18</type></trkpt>
      <trkpt lat="41.2623966" lon="-3.43624"><ele>2114</ele><speed>20</speed><time>2016-10-08T14:38:06Z</time><course>196</course><type>18</type></trkpt>
      <trkpt lat="41.2622466" lon="-3.4362934"><ele>2121</ele><speed>31</speed><time>2016-10-08T14:38:10Z</time><course>161</course><type>18</type></trkpt>
      <trkpt lat="41.2621416" lon="-3.4363134"><ele>2122</ele><speed>30</speed><time>2016-10-08T14:38:12Z</time><course>214</course><type>18</type></trkpt>
      <trkpt lat="41.2622566" lon="-3.436295"><ele>2124</ele><speed>33</speed><time>2016-10-08T14:38:13Z</time><course>247</course><type>18</type></trkpt>
      <trkpt lat="41.2623233" lon="-3.436215"><ele>2127</ele><speed>21</speed><time>2016-10-08T14:38:14Z</time><course>289</course><type>18</type></trkpt>
      <trkpt lat="41.2624616" lon="-3.4362084"><ele>2131</ele><speed>14</speed><time>2016-10-08T14:38:15Z</time><course>291</course><type>18</type></trkpt>
      <trkpt lat="41.26255" lon="-3.4361867"><ele>2141</ele><speed>9</speed><time>2016-10-08T14:38:18Z</time><course>306</course><type>18</type></trkpt>
      <trkpt lat="41.2626783" lon="-3.4361234"><ele>2147</ele><speed>15</speed><time>2016-10-08T14:38:21Z</time><course>328</course><type>18</type></trkpt>
      <trkpt lat="41.2627616" lon="-3.43612"><ele>2149</ele><speed>18</speed><time>2016-10-08T14:38:22Z</time><course>342</course><type>18</type></trkpt>
      <trkpt lat="41.2627283" lon="-3.4362234"><ele>2152</ele><speed>20</speed><time>2016-10-08T14:38:23Z</time><course>338</course><type>18</type></trkpt>
      <trkpt lat="41.262665" lon="-3.4363534"><ele>2157</ele><speed>24</speed><time>2016-10-08T14:38:24Z</time><course>340</course><type>18</type></trkpt>
      <trkpt lat="41.26275" lon="-3.4364417"><ele>2162</ele><speed>29</speed><time>2016-10-08T14:38:25Z</time><course>0</course><type>18</type></trkpt>
      <trkpt lat="41.2628383" lon="-3.4364617"><ele>2166</ele><speed>30</speed><time>2016-10-08T14:38:26Z</time><course>12</course><type>18</type></trkpt>
      <trkpt lat="41.2631466" lon="-3.4364167"><ele>2174</ele><speed>31</speed><time>2016-10-08T14:38:27Z</time><course>29</course><type>18</type></trkpt>
      <trkpt lat="41.2634866" lon="-3.4365034"><ele>2182</ele><speed>27</speed><time>2016-10-08T14:38:28Z</time><course>22</course><type>18</type></trkpt>
      <trkpt lat="41.263595" lon="-3.43643"><ele>2189</ele><speed>18</speed><time>2016-10-08T14:38:30Z</time><course>25</course><type>18</type></trkpt>
      <trkpt lat="41.2635983" lon="-3.4362917"><ele>2191</ele><speed>12</speed><time>2016-10-08T14:38:31Z</time><course>44</course><type>18</type></trkpt>
      <trkpt lat="41.263685" lon="-3.43623"><ele>2195</ele><speed>10</speed><time>2016-10-08T14:38:33Z</time><course>53</course><type>18</type></trkpt>
      <trkpt lat="41.2637466" lon="-3.4361551"><ele>2198</ele><speed>12</speed><time>2016-10-08T14:38:34Z</time><course>63</course><type>18</type></trkpt>
      <trkpt lat="41.2638366" lon="-3.436045"><ele>2202</ele><speed>14</speed><time>2016-10-08T14:38:35Z</time><course>43</course><type>18</type></trkpt>
      <trkpt lat="41.2635516" lon="-3.4359767"><ele>2217</ele><speed>16</speed><time>2016-10-08T14:38:42Z</time><course>191</course><type>18</type></trkpt>
      <trkpt lat="41.263275" lon="-3.4358017"><ele>2220</ele><speed>15</speed><time>2016-10-08T14:38:43Z</time><course>207</course><type>18</type></trkpt>
      <trkpt lat="41.2631133" lon="-3.4357634"><ele>2222</ele><speed>18</speed><time>2016-10-08T14:38:44Z</time><course>233</course><type>18</type></trkpt>
      <trkpt lat="41.2630083" lon="-3.435695"><ele>2224</ele><speed>14</speed><time>2016-10-08T14:38:45Z</time><course>240</course><type>18</type></trkpt>
      <trkpt lat="41.2629183" lon="-3.4357051"><ele>2228</ele><speed>9</speed><time>2016-10-08T14:38:47Z</time><course>295</course><type>18</type></trkpt>
      <trkpt lat="41.2627683" lon="-3.4358284"><ele>2236</ele><speed>10</speed><time>2016-10-08T14:38:50Z</time><course>25</course><type>18</type></trkpt>
      <trkpt lat="41.2626433" lon="-3.4358634"><ele>2239</ele><speed>4</speed><time>2016-10-08T14:38:51Z</time><course>25</course><type>18</type></trkpt>
      <trkpt lat="41.2626533" lon="-3.43573"><ele>2248</ele><speed>16</speed><time>2016-10-08T14:38:54Z</time><course>107</course><type>18</type></trkpt>
      <trkpt lat="41.2627599" lon="-3.435665"><ele>2252</ele><speed>21</speed><time>2016-10-08T14:38:55Z</time><course>104</course><type>18</type></trkpt>
      <trkpt lat="41.2627933" lon="-3.4354801"><ele>2254</ele><speed>33</speed><time>2016-10-08T14:38:56Z</time><course>99</course><type>18</type></trkpt>
      <trkpt lat="41.2628333" lon="-3.4353467"><ele>2256</ele><speed>29</speed><time>2016-10-08T14:38:57Z</time><course>87</course><type>18</type></trkpt>
      <trkpt lat="41.26282" lon="-3.4351417"><ele>2259</ele><speed>38</speed><time>2016-10-08T14:38:58Z</time><course>101</course><type>18</type></trkpt>
      <trkpt lat="41.262855" lon="-3.4349767"><ele>2261</ele><speed>38</speed><time>2016-10-08T14:38:59Z</time><course>99</course><type>18</type></trkpt>
      <trkpt lat="41.2628666" lon="-3.4348417"><ele>2262</ele><speed>37</speed><time>2016-10-08T14:39:00Z</time><course>100</course><type>18</type></trkpt>
      <trkpt lat="41.2628983" lon="-3.43467"><ele>2264</ele><speed>38</speed><time>2016-10-08T14:39:01Z</time><course>98</course><type>18</type></trkpt>
      <trkpt lat="41.262905" lon="-3.4345451"><ele>2266</ele><speed>36</speed><time>2016-10-08T14:39:02Z</time><course>97</course><type>18</type></trkpt>
      <trkpt lat="41.2628816" lon="-3.4347467"><ele>2275</ele><speed>17</speed><time>2016-10-08T14:39:04Z</time><course>149</course><type>18</type></trkpt>
      <trkpt lat="41.2630749" lon="-3.4347334"><ele>2281</ele><speed>7</speed><time>2016-10-08T14:39:05Z</time><course>154</course><type>18</type></trkpt>
      <trkpt lat="41.2632883" lon="-3.4347784"><ele>2285</ele><speed>6</speed><time>2016-10-08T14:39:06Z</time><course>158</course><type>18</type></trkpt>
      <trkpt lat="41.2630716" lon="-3.434885"><ele>2291</ele><speed>13</speed><time>2016-10-08T14:39:08Z</time><course>191</course><type>18</type></trkpt>
      <trkpt lat="41.262975" lon="-3.4350234"><ele>2294</ele><speed>17</speed><time>2016-10-08T14:39:09Z</time><course>211</course><type>18</type></trkpt>
      <trkpt lat="41.2628966" lon="-3.4352267"><ele>2303</ele><speed>20</speed><time>2016-10-08T14:39:12Z</time><course>239</course><type>18</type></trkpt>
      <trkpt lat="41.2628683" lon="-3.4353784"><ele>2305</ele><speed>22</speed><time>2016-10-08T14:39:14Z</time><course>248</course><type>18</type></trkpt>
      <trkpt lat="41.2629849" lon="-3.4355251"><ele>2311</ele><speed>17</speed><time>2016-10-08T14:39:17Z</time><course>270</course><type>18</type></trkpt>
      <trkpt lat="41.2630833" lon="-3.4356867"><ele>2318</ele><speed>16</speed><time>2016-10-08T14:39:19Z</time><course>283</course><type>18</type></trkpt>
      <trkpt lat="41.2633866" lon="-3.4355867"><ele>2324</ele><speed>14</speed><time>2016-10-08T14:39:21Z</time><course>351</course><type>18</type></trkpt>
      <trkpt lat="41.263555" lon="-3.4356184"><ele>2334</ele><speed>4</speed><time>2016-10-08T14:39:23Z</time><course>313</course><type>18</type></trkpt>
      <trkpt lat="41.263575" lon="-3.4354584"><ele>2340</ele><speed>6</speed><time>2016-10-08T14:39:24Z</time><course>119</course><type>18</type></trkpt>
      <trkpt lat="41.2635283" lon="-3.4352934"><ele>2343</ele><speed>20</speed><time>2016-10-08T14:39:25Z</time><course>164</course><type>18</type></trkpt>
      <trkpt lat="41.2635" lon="-3.4351984"><ele>2357</ele><speed>17</speed><time>2016-10-08T14:39:29Z</time><course>213</course><type>18</type></trkpt>
      <trkpt lat="41.2634183" lon="-3.4350734"><ele>2363</ele><speed>16</speed><time>2016-10-08T14:39:31Z</time><course>216</course><type>18</type></trkpt>
      <trkpt lat="41.2632716" lon="-3.4347817"><ele>2367</ele><speed>17</speed><time>2016-10-08T14:39:32Z</time><course>177</course><type>18</type></trkpt>
      <trkpt lat="41.2631733" lon="-3.4346467"><ele>2370</ele><speed>15</speed><time>2016-10-08T14:39:33Z</time><course>185</course><type>18</type></trkpt>
      <trkpt lat="41.263085" lon="-3.43465"><ele>2376</ele><speed>20</speed><time>2016-10-08T14:39:35Z</time><course>215</course><type>18</type></trkpt>
      <trkpt lat="41.26301" lon="-3.434675"><ele>2379</ele><speed>16</speed><time>2016-10-08T14:39:37Z</time><course>215</course><type>18</type></trkpt>
      <trkpt lat="41.2628716" lon="-3.4346234"><ele>2386</ele><speed>14</speed><time>2016-10-08T14:39:39Z</time><course>196</course><type>18</type></trkpt>
      <trkpt lat="41.2627866" lon="-3.4345967"><ele>2389</ele><speed>14</speed><time>2016-10-08T14:39:40Z</time><course>189</course><type>18</type></trkpt>
      <trkpt lat="41.262795" lon="-3.4344117"><ele>2395</ele><speed>14</speed><time>2016-10-08T14:39:42Z</time><course>131</course><type>18</type></trkpt>
      <trkpt lat="41.26286" lon="-3.4342784"><ele>2397</ele><speed>19</speed><time>2016-10-08T14:39:43Z</time><course>109</course><type>18</type></trkpt>
      <trkpt lat="41.2630533" lon="-3.4341517"><ele>2401</ele><speed>29</speed><time>2016-10-08T14:39:44Z</time><course>87</course><type>18</type></trkpt>
      <trkpt lat="41.2631483" lon="-3.4340167"><ele>2404</ele><speed>32</speed><time>2016-10-08T14:39:45Z</time><course>75</course><type>18</type></trkpt>
      <trkpt lat="41.2631983" lon="-3.4338701"><ele>2406</ele><speed>32</speed><time>2016-10-08T14:39:46Z</time><course>77</course><type>18</type></trkpt>
      <trkpt lat="41.263245" lon="-3.4337667"><ele>2408</ele><speed>30</speed><time>2016-10-08T14:39:47Z</time><course>82</course><type>18</type></trkpt>
      <trkpt lat="41.2633366" lon="-3.4336667"><ele>2410</ele><speed>31</speed><time>2016-10-08T14:39:48Z</time><course>74</course><type>18</type></trkpt>
      <trkpt lat="41.263375" lon="-3.4334867"><ele>2411</ele><speed>38</speed><time>2016-10-08T14:39:49Z</time><course>75</course><type>18</type></trkpt>
      <trkpt lat="41.2634883" lon="-3.43336"><ele>2415</ele><speed>33</speed><time>2016-10-08T14:39:50Z</time><course>82</course><type>18</type></trkpt>
      <trkpt lat="41.2636016" lon="-3.4333084"><ele>2418</ele><speed>26</speed><time>2016-10-08T14:39:51Z</time><course>74</course><type>18</type></trkpt>
      <trkpt lat="41.2637233" lon="-3.433265"><ele>2421</ele><speed>24</speed><time>2016-10-08T14:39:52Z</time><course>62</course><type>18</type></trkpt>
      <trkpt lat="41.2637883" lon="-3.4332217"><ele>2423</ele><speed>22</speed><time>2016-10-08T14:39:53Z</time><course>55</course><type>18</type></trkpt>
      <trkpt lat="41.2638966" lon="-3.433105"><ele>2426</ele><speed>29</speed><time>2016-10-08T14:39:54Z</time><course>46</course><type>18</type></trkpt>
      <trkpt lat="41.2639933" lon="-3.433075"><ele>2434</ele><speed>20</speed><time>2016-10-08T14:39:57Z</time><course>13</course><type>18</type></trkpt>
      <trkpt lat="41.2639166" lon="-3.4331884"><ele>2438</ele><speed>21</speed><time>2016-10-08T14:39:59Z</time><course>328</course><type>18</type></trkpt>
      <trkpt lat="41.2639966" lon="-3.433225"><ele>2448</ele><speed>22</speed><time>2016-10-08T14:40:03Z</time><course>328</course><type>18</type></trkpt>
      <trkpt lat="41.2640999" lon="-3.4333017"><ele>2451</ele><speed>24</speed><time>2016-10-08T14:40:05Z</time><course>337</course><type>18</type></trkpt>
      <trkpt lat="41.2638516" lon="-3.433725"><ele>2454</ele><speed>24</speed><time>2016-10-08T14:40:06Z</time><course>329</course><type>18</type></trkpt>
      <trkpt lat="41.2638083" lon="-3.433905"><ele>2460</ele><speed>35</speed><time>2016-10-08T14:40:08Z</time><course>12</course><type>18</type></trkpt>
      <trkpt lat="41.26392" lon="-3.4339034"><ele>2463</ele><speed>33</speed><time>2016-10-08T14:40:09Z</time><course>12</course><type>18</type></trkpt>
      <trkpt lat="41.2640016" lon="-3.4338284"><ele>2468</ele><speed>26</speed><time>2016-10-08T14:40:10Z</time><course>38</course><type>18</type></trkpt>
      <trkpt lat="41.264075" lon="-3.43379"><ele>2471</ele><speed>22</speed><time>2016-10-08T14:40:11Z</time><course>47</course><type>18</type></trkpt>
      <trkpt lat="41.2641083" lon="-3.43364"><ele>2479</ele><speed>17</speed><time>2016-10-08T14:40:13Z</time><course>81</course><type>18</type></trkpt>
      <trkpt lat="41.2640766" lon="-3.4334884"><ele>2482</ele><speed>21</speed><time>2016-10-08T14:40:14Z</time><course>98</course><type>18</type></trkpt>
      <trkpt lat="41.2639633" lon="-3.4332317"><ele>2485</ele><speed>31</speed><time>2016-10-08T14:40:15Z</time><course>118</course><type>18</type></trkpt>
      <trkpt lat="41.2638883" lon="-3.433055"><ele>2488</ele><speed>33</speed><time>2016-10-08T14:40:16Z</time><course>130</course><type>18</type></trkpt>
      <trkpt lat="41.26383" lon="-3.432955"><ele>2490</ele><speed>32</speed><time>2016-10-08T14:40:17Z</time><course>136</course><type>18</type></trkpt>
      <trkpt lat="41.26376" lon="-3.4328817"><ele>2491</ele><speed>32</speed><time>2016-10-08T14:40:18Z</time><course>142</course><type>18</type></trkpt>
      <trkpt lat="41.2637066" lon="-3.4328067"><ele>2493</ele><speed>32</speed><time>2016-10-08T14:40:19Z</time><course>146</course><type>18</type></trkpt>
      <trkpt lat="41.2636383" lon="-3.4326884"><ele>2495</ele><speed>34</speed><time>2016-10-08T14:40:20Z</time><course>147</course><type>18</type></trkpt>
      <trkpt lat="41.263515" lon="-3.4325917"><ele>2497</ele><speed>30</speed><time>2016-10-08T14:40:22Z</time><course>155</course><type>18</type></trkpt>
      <trkpt lat="41.2634066" lon="-3.4324234"><ele>2499</ele><speed>25</speed><time>2016-10-08T14:40:23Z</time><course>150</course><type>18</type></trkpt>
      <trkpt lat="41.263355" lon="-3.432265"><ele>2500</ele><speed>21</speed><time>2016-10-08T14:40:24Z</time><course>134</course><type>18</type></trkpt>
      <trkpt lat="41.263285" lon="-3.4320984"><ele>2502</ele><speed>17</speed><time>2016-10-08T14:40:25Z</time><course>116</course><type>18</type></trkpt>
      <trkpt lat="41.263245" lon="-3.4319867"><ele>2503</ele><speed>15</speed><time>2016-10-08T14:40:26Z</time><course>98</course><type>18</type></trkpt>
      <trkpt lat="41.263265" lon="-3.4321167"><ele>2508</ele><speed>14</speed><time>2016-10-08T14:40:29Z</time><course>356</course><type>18</type></trkpt>
      <trkpt lat="41.26334" lon="-3.432145"><ele>2511</ele><speed>21</speed><time>2016-10-08T14:40:31Z</time><course>15</course><type>18</type></trkpt>
      <trkpt lat="41.2633233" lon="-3.43205"><ele>2518</ele><speed>38</speed><time>2016-10-08T14:40:34Z</time><course>45</course><type>18</type></trkpt>
      <trkpt lat="41.2633899" lon="-3.431865"><ele>2523</ele><speed>54</speed><time>2016-10-08T14:40:36Z</time><course>52</course><type>18</type></trkpt>
      <trkpt lat="41.2635333" lon="-3.4317967"><ele>2527</ele><speed>47</speed><time>2016-10-08T14:40:37Z</time><course>66</course><type>18</type></trkpt>
      <trkpt lat="41.263655" lon="-3.4316817"><ele>2530</ele><speed>48</speed><time>2016-10-08T14:40:38Z</time><course>64</course><type>18</type></trkpt>
      <trkpt lat="41.263755" lon="-3.43155"><ele>2533</ele><speed>47</speed><time>2016-10-08T14:40:39Z</time><course>61</course><type>18</type></trkpt>
      <trkpt lat="41.26385" lon="-3.4314334"><ele>2536</ele><speed>44</speed><time>2016-10-08T14:40:40Z</time><course>65</course><type>18</type></trkpt>
      <trkpt lat="41.263855" lon="-3.4312267"><ele>2537</ele><speed>46</speed><time>2016-10-08T14:40:41Z</time><course>78</course><type>18</type></trkpt>
      <trkpt lat="41.2640649" lon="-3.4311367"><ele>2546</ele><speed>44</speed><time>2016-10-08T14:40:42Z</time><course>87</course><type>18</type></trkpt>
      <trkpt lat="41.2643083" lon="-3.431075"><ele>2553</ele><speed>35</speed><time>2016-10-08T14:40:43Z</time><course>97</course><type>18</type></trkpt>
      <trkpt lat="41.2643233" lon="-3.4309617"><ele>2555</ele><speed>28</speed><time>2016-10-08T14:40:44Z</time><course>113</course><type>18</type></trkpt>
      <trkpt lat="41.264405" lon="-3.4308884"><ele>2561</ele><speed>14</speed><time>2016-10-08T14:40:46Z</time><course>137</course><type>18</type></trkpt>
      <trkpt lat="41.2642983" lon="-3.4308717"><ele>2571</ele><speed>13</speed><time>2016-10-08T14:40:50Z</time><course>160</course><type>18</type></trkpt>
      <trkpt lat="41.2641716" lon="-3.4308767"><ele>2574</ele><speed>17</speed><time>2016-10-08T14:40:51Z</time><course>160</course><type>18</type></trkpt>
      <trkpt lat="41.264055" lon="-3.4307867"><ele>2581</ele><speed>21</speed><time>2016-10-08T14:40:53Z</time><course>145</course><type>18</type></trkpt>
      <trkpt lat="41.263955" lon="-3.43086"><ele>2582</ele><speed>20</speed><time>2016-10-08T14:40:54Z</time><course>154</course><type>18</type></trkpt>
      <trkpt lat="41.2638333" lon="-3.430985"><ele>2583</ele><speed>20</speed><time>2016-10-08T14:40:55Z</time><course>172</course><type>18</type></trkpt>
      <trkpt lat="41.2636716" lon="-3.43116"><ele>2585</ele><speed>24</speed><time>2016-10-08T14:40:56Z</time><course>191</course><type>18</type></trkpt>
      <trkpt lat="41.263585" lon="-3.43122"><ele>2586</ele><speed>22</speed><time>2016-10-08T14:40:57Z</time><course>187</course><type>18</type></trkpt>
      <trkpt lat="41.2634916" lon="-3.431345"><ele>2588</ele><speed>21</speed><time>2016-10-08T14:40:58Z</time><course>196</course><type>18</type></trkpt>
      <trkpt lat="41.2633783" lon="-3.4313667"><ele>2595</ele><speed>16</speed><time>2016-10-08T14:41:00Z</time><course>208</course><type>18</type></trkpt>
      <trkpt lat="41.2634116" lon="-3.431255"><ele>2602</ele><speed>9</speed><time>2016-10-08T14:41:02Z</time><course>144</course><type>18</type></trkpt>
      <trkpt lat="41.2635433" lon="-3.431275"><ele>2608</ele><speed>9</speed><time>2016-10-08T14:41:03Z</time><course>104</course><type>18</type></trkpt>
      <trkpt lat="41.2637266" lon="-3.4312417"><ele>2613</ele><speed>14</speed><time>2016-10-08T14:41:04Z</time><course>74</course><type>18</type></trkpt>
      <trkpt lat="41.2638916" lon="-3.4311184"><ele>2616</ele><speed>23</speed><time>2016-10-08T14:41:05Z</time><course>60</course><type>18</type></trkpt>
      <trkpt lat="41.26396" lon="-3.431015"><ele>2619</ele><speed>23</speed><time>2016-10-08T14:41:06Z</time><course>69</course><type>18</type></trkpt>
      <trkpt lat="41.26415" lon="-3.4310717"><ele>2625</ele><speed>17</speed><time>2016-10-08T14:41:07Z</time><course>58</course><type>18</type></trkpt>
      <trkpt lat="41.264255" lon="-3.4309967"><ele>2630</ele><speed>15</speed><time>2016-10-08T14:41:08Z</time><course>66</course><type>18</type></trkpt>
      <trkpt lat="41.2643366" lon="-3.4309534"><ele>2635</ele><speed>12</speed><time>2016-10-08T14:41:09Z</time><course>80</course><type>18</type></trkpt>
      <trkpt lat="41.2643566" lon="-3.4307867"><ele>2641</ele><speed>12</speed><time>2016-10-08T14:41:11Z</time><course>113</course><type>18</type></trkpt>
      <trkpt lat="41.26431" lon="-3.43068"><ele>2644</ele><speed>15</speed><time>2016-10-08T14:41:12Z</time><course>120</course><type>18</type></trkpt>
      <trkpt lat="41.2642683" lon="-3.430575"><ele>2646</ele><speed>17</speed><time>2016-10-08T14:41:13Z</time><course>122</course><type>18</type></trkpt>
      <trkpt lat="41.2641783" lon="-3.43042"><ele>2648</ele><speed>22</speed><time>2016-10-08T14:41:14Z</time><course>124</course><type>18</type></trkpt>
      <trkpt lat="41.26404" lon="-3.4301934"><ele>2650</ele><speed>31</speed><time>2016-10-08T14:41:15Z</time><course>125</course><type>18</type></trkpt>
      <trkpt lat="41.26396" lon="-3.43005"><ele>2651</ele><speed>31</speed><time>2016-10-08T14:41:16Z</time><course>125</course><type>18</type></trkpt>
      <trkpt lat="41.2638283" lon="-3.4298684"><ele>2653</ele><speed>33</speed><time>2016-10-08T14:41:17Z</time><course>129</course><type>18</type></trkpt>
      <trkpt lat="41.263605" lon="-3.4296317"><ele>2655</ele><speed>40</speed><time>2016-10-08T14:41:18Z</time><course>135</course><type>18</type></trkpt>
      <trkpt lat="41.2635066" lon="-3.429505"><ele>2656</ele><speed>40</speed><time>2016-10-08T14:41:19Z</time><course>137</course><type>18</type></trkpt>
      <trkpt lat="41.2634016" lon="-3.429555"><ele>2657</ele><speed>38</speed><time>2016-10-08T14:41:20Z</time><course>153</course><type>18</type></trkpt>
      <trkpt lat="41.2633266" lon="-3.4294784"><ele>2662</ele><speed>27</speed><time>2016-10-08T14:41:23Z</time><course>129</course><type>18</type></trkpt>
      <trkpt lat="41.2634616" lon="-3.4294934"><ele>2664</ele><speed>21</speed><time>2016-10-08T14:41:24Z</time><course>102</course><type>18</type></trkpt>
      <trkpt lat="41.263635" lon="-3.42952"><ele>2667</ele><speed>23</speed><time>2016-10-08T14:41:25Z</time><course>54</course><type>18</type></trkpt>
      <trkpt lat="41.2637566" lon="-3.4293984"><ele>2677</ele><speed>33</speed><time>2016-10-08T14:41:31Z</time><course>38</course><type>18</type></trkpt>
      <trkpt lat="41.2638933" lon="-3.4293867"><ele>2679</ele><speed>34</speed><time>2016-10-08T14:41:32Z</time><course>38</course><type>18</type></trkpt>
      <trkpt lat="41.2640016" lon="-3.4293234"><ele>2681</ele><speed>34</speed><time>2016-10-08T14:41:33Z</time><course>51</course><type>18</type></trkpt>
      <trkpt lat="41.2642783" lon="-3.42946"><ele>2686</ele><speed>30</speed><time>2016-10-08T14:41:34Z</time><course>44</course><type>18</type></trkpt>
      <trkpt lat="41.2645383" lon="-3.42947"><ele>2692</ele><speed>33</speed><time>2016-10-08T14:41:35Z</time><course>39</course><type>18</type></trkpt>
      <trkpt lat="41.26487" lon="-3.4296317"><ele>2699</ele><speed>31</speed><time>2016-10-08T14:41:36Z</time><course>26</course><type>18</type></trkpt>
      <trkpt lat="41.264995" lon="-3.429665"><ele>2702</ele><speed>27</speed><time>2016-10-08T14:41:37Z</time><course>24</course><type>18</type></trkpt>
      <trkpt lat="41.265155" lon="-3.4295767"><ele>2705</ele><speed>26</speed><time>2016-10-08T14:41:39Z</time><course>29</course><type>18</type></trkpt>
      <trkpt lat="41.26528" lon="-3.429505"><ele>2708</ele><speed>24</speed><time>2016-10-08T14:41:41Z</time><course>35</course><type>18</type></trkpt>
      <trkpt lat="41.265165" lon="-3.4293084"><ele>2714</ele><speed>9</speed><time>2016-10-08T14:41:45Z</time><course>53</course><type>18</type></trkpt>
      <trkpt lat="41.265065" lon="-3.429365"><ele>2716</ele><speed>0</speed><time>2016-10-08T14:41:47Z</time><course>54</course><type>18</type></trkpt>
      <trkpt lat="41.264995" lon="-3.4294417"><ele>2718</ele><speed>0</speed><time>2016-10-08T14:41:48Z</time><course>54</course><type>18</type></trkpt>
      <trkpt lat="41.2649066" lon="-3.429555"><ele>2720</ele><speed>8</speed><time>2016-10-08T14:41:50Z</time><course>224</course><type>18</type></trkpt>
      <trkpt lat="41.2650483" lon="-3.429495"><ele>2727</ele><speed>36</speed><time>2016-10-08T14:41:56Z</time><course>52</course><type>18</type></trkpt>
      <trkpt lat="41.2651183" lon="-3.4292917"><ele>2729</ele><speed>39</speed><time>2016-10-08T14:41:58Z</time><course>59</course><type>18</type></trkpt>
      <trkpt lat="41.2651583" lon="-3.4290434"><ele>2732</ele><speed>41</speed><time>2016-10-08T14:42:00Z</time><course>68</course><type>18</type></trkpt>
      <trkpt lat="41.2654183" lon="-3.429055"><ele>2734</ele><speed>41</speed><time>2016-10-08T14:42:01Z</time><course>58</course><type>18</type></trkpt>
      <trkpt lat="41.265525" lon="-3.42897"><ele>2736</ele><speed>41</speed><time>2016-10-08T14:42:02Z</time><course>57</course><type>18</type></trkpt>
      <trkpt lat="41.2655833" lon="-3.4288467"><ele>2737</ele><speed>42</speed><time>2016-10-08T14:42:03Z</time><course>58</course><type>18</type></trkpt>
      <trkpt lat="41.2656416" lon="-3.4287284"><ele>2738</ele><speed>42</speed><time>2016-10-08T14:42:04Z</time><course>58</course><type>18</type></trkpt>
      <trkpt lat="41.2657016" lon="-3.42861"><ele>2739</ele><speed>42</speed><time>2016-10-08T14:42:05Z</time><course>59</course><type>18</type></trkpt>
      <trkpt lat="41.2657733" lon="-3.428505"><ele>2740</ele><speed>42</speed><time>2016-10-08T14:42:06Z</time><course>72</course><type>18</type></trkpt>
      <trkpt lat="41.2658433" lon="-3.4284101"><ele>2742</ele><speed>41</speed><time>2016-10-08T14:42:07Z</time><course>72</course><type>18</type></trkpt>
      <trkpt lat="41.2659066" lon="-3.4283067"><ele>2743</ele><speed>40</speed><time>2016-10-08T14:42:08Z</time><course>70</course><type>18</type></trkpt>
      <trkpt lat="41.2660016" lon="-3.4281267"><ele>2745</ele><speed>37</speed><time>2016-10-08T14:42:10Z</time><course>67</course><type>18</type></trkpt>
      <trkpt lat="41.26606" lon="-3.4282984"><ele>2755</ele><speed>13</speed><time>2016-10-08T14:42:18Z</time><course>357</course><type>18</type></trkpt>
      <trkpt lat="41.2653633" lon="-3.428925"><ele>2761</ele><speed>23</speed><time>2016-10-08T14:42:21Z</time><course>247</course><type>18</type></trkpt>
      <trkpt lat="41.264655" lon="-3.4294434"><ele>2763</ele><speed>30</speed><time>2016-10-08T14:42:22Z</time><course>240</course><type>18</type></trkpt>
      <trkpt lat="41.26448" lon="-3.4295867"><ele>2764</ele><speed>32</speed><time>2016-10-08T14:42:23Z</time><course>242</course><type>18</type></trkpt>
      <trkpt lat="41.2642983" lon="-3.4297734"><ele>2766</ele><speed>29</speed><time>2016-10-08T14:42:25Z</time><course>240</course><type>18</type></trkpt>
      <trkpt lat="41.264385" lon="-3.42988"><ele>2770</ele><speed>11</speed><time>2016-10-08T14:42:28Z</time><course>242</course><type>18</type></trkpt>
      <trkpt lat="41.2644116" lon="-3.4296467"><ele>2773</ele><speed>5</speed><time>2016-10-08T14:42:30Z</time><course>59</course><type>18</type></trkpt>
      <trkpt lat="41.2644666" lon="-3.4294667"><ele>2774</ele><speed>15</speed><time>2016-10-08T14:42:31Z</time><course>58</course><type>18</type></trkpt>
      <trkpt lat="41.2645516" lon="-3.429325"><ele>2776</ele><speed>19</speed><time>2016-10-08T14:42:33Z</time><course>66</course><type>18</type></trkpt>
      <trkpt lat="41.2645483" lon="-3.4291034"><ele>2778</ele><speed>22</speed><time>2016-10-08T14:42:34Z</time><course>71</course><type>18</type></trkpt>
      <trkpt lat="41.2645666" lon="-3.4289167"><ele>2781</ele><speed>20</speed><time>2016-10-08T14:42:36Z</time><course>76</course><type>18</type></trkpt>
      <trkpt lat="41.2646866" lon="-3.4289084"><ele>2783</ele><speed>21</speed><time>2016-10-08T14:42:38Z</time><course>72</course><type>18</type></trkpt>
      <trkpt lat="41.264875" lon="-3.4288734"><ele>2784</ele><speed>23</speed><time>2016-10-08T14:42:40Z</time><course>58</course><type>18</type></trkpt>
      <trkpt lat="41.2650866" lon="-3.42881"><ele>2784</ele><speed>26</speed><time>2016-10-08T14:42:42Z</time><course>47</course><type>18</type></trkpt>
      <trkpt lat="41.2652233" lon="-3.42879"><ele>2784</ele><speed>18</speed><time>2016-10-08T14:42:48Z</time><course>24</course><type>18</type></trkpt>
      <trkpt lat="41.2654016" lon="-3.4287134"><ele>2785</ele><speed>21</speed><time>2016-10-08T14:42:52Z</time><course>29</course><type>18</type></trkpt>
      <trkpt lat="41.26612" lon="-3.4286017"><ele>2785</ele><speed>37</speed><time>2016-10-08T14:42:54Z</time><course>15</course><type>18</type></trkpt>
      <trkpt lat="41.2664883" lon="-3.4285584"><ele>2786</ele><speed>44</speed><time>2016-10-08T14:42:55Z</time><course>11</course><type>18</type></trkpt>
      <trkpt lat="41.26668" lon="-3.4286034"><ele>2786</ele><speed>46</speed><time>2016-10-08T14:42:56Z</time><course>10</course><type>18</type></trkpt>
      <trkpt lat="41.266835" lon="-3.4286767"><ele>2786</ele><speed>47</speed><time>2016-10-08T14:42:57Z</time><course>9</course><type>18</type></trkpt>
      <trkpt lat="41.2670116" lon="-3.4287584"><ele>2787</ele><speed>44</speed><time>2016-10-08T14:42:59Z</time><course>8</course><type>18</type></trkpt>
      <trkpt lat="41.2668016" lon="-3.4285067"><ele>2791</ele><speed>16</speed><time>2016-10-08T14:43:04Z</time><course>35</course><type>18</type></trkpt>
      <trkpt lat="41.2666883" lon="-3.428405"><ele>2792</ele><speed>12</speed><time>2016-10-08T14:43:05Z</time><course>51</course><type>18</type></trkpt>
      <trkpt lat="41.266515" lon="-3.42837"><ele>2793</ele><speed>6</speed><time>2016-10-08T14:43:06Z</time><course>74</course><type>18</type></trkpt>
      <trkpt lat="41.2663966" lon="-3.4283967"><ele>2794</ele><speed>0</speed><time>2016-10-08T14:43:08Z</time><course>74</course><type>18</type></trkpt>
      <trkpt lat="41.2663066" lon="-3.4285034"><ele>2797</ele><speed>0</speed><time>2016-10-08T14:43:13Z</time><course>74</course><type>18</type></trkpt>
      <trkpt lat="41.266215" lon="-3.4286467"><ele>2797</ele><speed>11</speed><time>2016-10-08T14:43:16Z</time><course>232</course><type>18</type></trkpt>
      <trkpt lat="41.2657916" lon="-3.42794"><ele>2803</ele><speed>0</speed><time>2016-10-08T14:43:17Z</time><course>232</course><type>18</type></trkpt>
      <trkpt lat="41.26523" lon="-3.427275"><ele>2805</ele><speed>16</speed><time>2016-10-08T14:43:18Z</time><course>197</course><type>18</type></trkpt>
      <trkpt lat="41.2648666" lon="-3.4269351"><ele>2807</ele><speed>19</speed><time>2016-10-08T14:43:19Z</time><course>187</course><type>18</type></trkpt>
      <trkpt lat="41.2647516" lon="-3.42685"><ele>2808</ele><speed>19</speed><time>2016-10-08T14:43:20Z</time><course>187</course><type>18</type></trkpt>
      <trkpt lat="41.26467" lon="-3.4267267"><ele>2811</ele><speed>14</speed><time>2016-10-08T14:43:23Z</time><course>194</course><type>18</type></trkpt>
      <trkpt lat="41.2649533" lon="-3.426645"><ele>2814</ele><speed>0</speed><time>2016-10-08T14:43:25Z</time><course>207</course><type>18</type></trkpt>
      <trkpt lat="41.265075" lon="-3.426675"><ele>2817</ele><speed>10</speed><time>2016-10-08T14:43:28Z</time><course>348</course><type>18</type></trkpt>
      <trkpt lat="41.26523" lon="-3.426645"><ele>2818</ele><speed>17</speed><time>2016-10-08T14:43:30Z</time><course>10</course><type>18</type></trkpt>
      <trkpt lat="41.265365" lon="-3.426605"><ele>2820</ele><speed>20</speed><time>2016-10-08T14:43:32Z</time><course>12</course><type>18</type></trkpt>
      <trkpt lat="41.2655466" lon="-3.42648"><ele>2822</ele><speed>26</speed><time>2016-10-08T14:43:34Z</time><course>18</course><type>18</type></trkpt>
      <trkpt lat="41.2656416" lon="-3.42642"><ele>2823</ele><speed>30</speed><time>2016-10-08T14:43:35Z</time><course>21</course><type>18</type></trkpt>
      <trkpt lat="41.2657533" lon="-3.42636"><ele>2824</ele><speed>34</speed><time>2016-10-08T14:43:36Z</time><course>23</course><type>18</type></trkpt>
      <trkpt lat="41.2658816" lon="-3.4263"><ele>2825</ele><speed>39</speed><time>2016-10-08T14:43:37Z</time><course>22</course><type>18</type></trkpt>
      <trkpt lat="41.2660166" lon="-3.4262367"><ele>2826</ele><speed>43</speed><time>2016-10-08T14:43:38Z</time><course>19</course><type>18</type></trkpt>
      <trkpt lat="41.266145" lon="-3.42619"><ele>2827</ele><speed>46</speed><time>2016-10-08T14:43:39Z</time><course>17</course><type>18</type></trkpt>
      <trkpt lat="41.2662933" lon="-3.4261634"><ele>2828</ele><speed>48</speed><time>2016-10-08T14:43:40Z</time><course>13</course><type>18</type></trkpt>
      <trkpt lat="41.266425" lon="-3.426135"><ele>2829</ele><speed>49</speed><time>2016-10-08T14:43:41Z</time><course>11</course><type>18</type></trkpt>
      <trkpt lat="41.26657" lon="-3.4261017"><ele>2829</ele><speed>50</speed><time>2016-10-08T14:43:42Z</time><course>11</course><type>18</type></trkpt>
      <trkpt lat="41.26675" lon="-3.4260667"><ele>2830</ele><speed>53</speed><time>2016-10-08T14:43:43Z</time><course>11</course><type>18</type></trkpt>
      <trkpt lat="41.26689" lon="-3.4260134"><ele>2831</ele><speed>52</speed><time>2016-10-08T14:43:44Z</time><course>14</course><type>18</type></trkpt>
      <trkpt lat="41.267025" lon="-3.4259667"><ele>2832</ele><speed>52</speed><time>2016-10-08T14:43:45Z</time><course>14</course><type>18</type></trkpt>
      <trkpt lat="41.2671616" lon="-3.4259184"><ele>2833</ele><speed>52</speed><time>2016-10-08T14:43:46Z</time><course>14</course><type>18</type></trkpt>
      <trkpt lat="41.2672666" lon="-3.42586"><ele>2834</ele><speed>51</speed><time>2016-10-08T14:43:47Z</time><course>15</course><type>18</type></trkpt>
      <trkpt lat="41.2674416" lon="-3.42582"><ele>2835</ele><speed>44</speed><time>2016-10-08T14:43:49Z</time><course>13</course><type>18</type></trkpt>
      <trkpt lat="41.2675566" lon="-3.425805"><ele>2836</ele><speed>45</speed><time>2016-10-08T14:43:50Z</time><course>10</course><type>18</type></trkpt>
      <trkpt lat="41.26767" lon="-3.4257784"><ele>2837</ele><speed>45</speed><time>2016-10-08T14:43:51Z</time><course>9</course><type>18</type></trkpt>
      <trkpt lat="41.2677933" lon="-3.4257667"><ele>2838</ele><speed>47</speed><time>2016-10-08T14:43:52Z</time><course>7</course><type>18</type></trkpt>
      <trkpt lat="41.2679149" lon="-3.4257517"><ele>2839</ele><speed>49</speed><time>2016-10-08T14:43:53Z</time><course>7</course><type>18</type></trkpt>
      <trkpt lat="41.268045" lon="-3.4257417"><ele>2840</ele><speed>50</speed><time>2016-10-08T14:43:54Z</time><course>8</course><type>18</type></trkpt>
      <trkpt lat="41.2681816" lon="-3.4257167"><ele>2841</ele><speed>51</speed><time>2016-10-08T14:43:55Z</time><course>9</course><type>18</type></trkpt>
      <trkpt lat="41.2683366" lon="-3.4256667"><ele>2842</ele><speed>59</speed><time>2016-10-08T14:43:56Z</time><course>12</course><type>18</type></trkpt>
      <trkpt lat="41.2684683" lon="-3.4256084"><ele>2843</ele><speed>57</speed><time>2016-10-08T14:43:57Z</time><course>12</course><type>18</type></trkpt>
      <trkpt lat="41.2686033" lon="-3.4255634"><ele>2844</ele><speed>54</speed><time>2016-10-08T14:43:58Z</time><course>11</course><type>18</type></trkpt>
      <trkpt lat="41.2687583" lon="-3.4255184"><ele>2845</ele><speed>55</speed><time>2016-10-08T14:43:59Z</time><course>12</course><type>18</type></trkpt>
      <trkpt lat="41.2689083" lon="-3.425475"><ele>2846</ele><speed>55</speed><time>2016-10-08T14:44:00Z</time><course>12</course><type>18</type></trkpt>
      <trkpt lat="41.26905" lon="-3.4254267"><ele>2847</ele><speed>54</speed><time>2016-10-08T14:44:01Z</time><course>14</course><type>18</type></trkpt>
      <trkpt lat="41.2692016" lon="-3.42539"><ele>2848</ele><speed>53</speed><time>2016-10-08T14:44:02Z</time><course>13</course><type>18</type></trkpt>
      <trkpt lat="41.2693416" lon="-3.4253534"><ele>2849</ele><speed>53</speed><time>2016-10-08T14:44:03Z</time><course>12</course><type>18</type></trkpt>
      <trkpt lat="41.269455" lon="-3.425325"><ele>2850</ele><speed>51</speed><time>2016-10-08T14:44:04Z</time><course>12</course><type>18</type></trkpt>
      <trkpt lat="41.269565" lon="-3.4253084"><ele>2851</ele><speed>49</speed><time>2016-10-08T14:44:05Z</time><course>11</course><type>18</type></trkpt>
      <trkpt lat="41.2696816" lon="-3.4252934"><ele>2851</ele><speed>48</speed><time>2016-10-08T14:44:06Z</time><course>10</course><type>18</type></trkpt>
      <trkpt lat="41.2698266" lon="-3.4253734"><ele>2852</ele><speed>49</speed><time>2016-10-08T14:44:07Z</time><course>359</course><type>18</type></trkpt>
      <trkpt lat="41.2699416" lon="-3.4253017"><ele>2853</ele><speed>51</speed><time>2016-10-08T14:44:08Z</time><course>8</course><type>18</type></trkpt>
      <trkpt lat="41.27007" lon="-3.4252717"><ele>2854</ele><speed>54</speed><time>2016-10-08T14:44:09Z</time><course>8</course><type>18</type></trkpt>
      <trkpt lat="41.2702033" lon="-3.4252134"><ele>2855</ele><speed>60</speed><time>2016-10-08T14:44:10Z</time><course>13</course><type>18</type></trkpt>
      <trkpt lat="41.27035" lon="-3.425155"><ele>2855</ele><speed>63</speed><time>2016-10-08T14:44:11Z</time><course>15</course><type>18</type></trkpt>
      <trkpt lat="41.2705" lon="-3.4250917"><ele>2856</ele><speed>63</speed><time>2016-10-08T14:44:12Z</time><course>16</course><type>18</type></trkpt>
      <trkpt lat="41.270655" lon="-3.4250217"><ele>2857</ele><speed>63</speed><time>2016-10-08T14:44:13Z</time><course>16</course><type>18</type></trkpt>
      <trkpt lat="41.270775" lon="-3.424935"><ele>2858</ele><speed>62</speed><time>2016-10-08T14:44:14Z</time><course>11</course><type>18</type></trkpt>
      <trkpt lat="41.2709316" lon="-3.4248817"><ele>2859</ele><speed>62</speed><time>2016-10-08T14:44:15Z</time><course>11</course><type>18</type></trkpt>
      <trkpt lat="41.271085" lon="-3.4248317"><ele>2860</ele><speed>63</speed><time>2016-10-08T14:44:16Z</time><course>12</course><type>18</type></trkpt>
      <trkpt lat="41.2713" lon="-3.424785"><ele>2861</ele><speed>66</speed><time>2016-10-08T14:44:17Z</time><course>11</course><type>18</type></trkpt>
      <trkpt lat="41.2714716" lon="-3.42473"><ele>2862</ele><speed>67</speed><time>2016-10-08T14:44:18Z</time><course>12</course><type>18</type></trkpt>
      <trkpt lat="41.271655" lon="-3.4246767"><ele>2863</ele><speed>67</speed><time>2016-10-08T14:44:19Z</time><course>12</course><type>18</type></trkpt>
      <trkpt lat="41.271835" lon="-3.42462"><ele>2865</ele><speed>69</speed><time>2016-10-08T14:44:20Z</time><course>12</course><type>18</type></trkpt>
      <trkpt lat="41.2721266" lon="-3.4245834"><ele>2867</ele><speed>74</speed><time>2016-10-08T14:44:21Z</time><course>11</course><type>18</type></trkpt>
      <trkpt lat="41.2723266" lon="-3.4245284"><ele>2868</ele><speed>76</speed><time>2016-10-08T14:44:22Z</time><course>12</course><type>18</type></trkpt>
      <trkpt lat="41.272485" lon="-3.4244884"><ele>2869</ele><speed>74</speed><time>2016-10-08T14:44:23Z</time><course>11</course><type>18</type></trkpt>
      <trkpt lat="41.27263" lon="-3.42446"><ele>2870</ele><speed>73</speed><time>2016-10-08T14:44:24Z</time><course>11</course><type>18</type></trkpt>
      <trkpt lat="41.2727733" lon="-3.4244184"><ele>2871</ele><speed>72</speed><time>2016-10-08T14:44:25Z</time><course>12</course><type>18</type></trkpt>
      <trkpt lat="41.2729416" lon="-3.4243884"><ele>2872</ele><speed>71</speed><time>2016-10-08T14:44:26Z</time><course>10</course><type>18</type></trkpt>
      <trkpt lat="41.27312" lon="-3.4243434"><ele>2873</ele><speed>72</speed><time>2016-10-08T14:44:27Z</time><course>11</course><type>18</type></trkpt>
      <trkpt lat="41.2732783" lon="-3.42428"><ele>2874</ele><speed>71</speed><time>2016-10-08T14:44:28Z</time><course>12</course><type>18</type></trkpt>
      <trkpt lat="41.2734916" lon="-3.42425"><ele>2875</ele><speed>72</speed><time>2016-10-08T14:44:29Z</time><course>11</course><type>18</type></trkpt>
      <trkpt lat="41.2736833" lon="-3.4242084"><ele>2876</ele><speed>72</speed><time>2016-10-08T14:44:30Z</time><course>11</course><type>18</type></trkpt>
      <trkpt lat="41.2738783" lon="-3.4241784"><ele>2876</ele><speed>72</speed><time>2016-10-08T14:44:31Z</time><course>10</course><type>18</type></trkpt>
      <trkpt lat="41.2740483" lon="-3.4241767"><ele>2877</ele><speed>70</speed><time>2016-10-08T14:44:32Z</time><course>8</course><type>18</type></trkpt>
      <trkpt lat="41.2742116" lon="-3.4241334"><ele>2878</ele><speed>68</speed><time>2016-10-08T14:44:33Z</time><course>9</course><type>18</type></trkpt>
      <trkpt lat="41.2743366" lon="-3.424075"><ele>2879</ele><speed>64</speed><time>2016-10-08T14:44:34Z</time><course>10</course><type>18</type></trkpt>
      <trkpt lat="41.2744716" lon="-3.4240317"><ele>2879</ele><speed>61</speed><time>2016-10-08T14:44:35Z</time><course>13</course><type>18</type></trkpt>
      <trkpt lat="41.2746233" lon="-3.4239584"><ele>2880</ele><speed>62</speed><time>2016-10-08T14:44:36Z</time><course>15</course><type>18</type></trkpt>
      <trkpt lat="41.2747816" lon="-3.4238834"><ele>2881</ele><speed>63</speed><time>2016-10-08T14:44:37Z</time><course>16</course><type>18</type></trkpt>
      <trkpt lat="41.2749166" lon="-3.4238167"><ele>2882</ele><speed>62</speed><time>2016-10-08T14:44:38Z</time><course>18</course><type>18</type></trkpt>
      <trkpt lat="41.2750566" lon="-3.4237467"><ele>2883</ele><speed>61</speed><time>2016-10-08T14:44:39Z</time><course>18</course><type>18</type></trkpt>
      <trkpt lat="41.2751883" lon="-3.423675"><ele>2884</ele><speed>62</speed><time>2016-10-08T14:44:40Z</time><course>19</course><type>18</type></trkpt>
      <trkpt lat="41.2753233" lon="-3.4235917"><ele>2885</ele><speed>62</speed><time>2016-10-08T14:44:41Z</time><course>19</course><type>18</type></trkpt>
      <trkpt lat="41.275455" lon="-3.4235017"><ele>2886</ele><speed>62</speed><time>2016-10-08T14:44:42Z</time><course>19</course><type>18</type></trkpt>
      <trkpt lat="41.27558" lon="-3.4234234"><ele>2887</ele><speed>60</speed><time>2016-10-08T14:44:43Z</time><course>19</course><type>18</type></trkpt>
      <trkpt lat="41.27571" lon="-3.4233484"><ele>2888</ele><speed>60</speed><time>2016-10-08T14:44:44Z</time><course>20</course><type>18</type></trkpt>
      <trkpt lat="41.275855" lon="-3.42327"><ele>2889</ele><speed>60</speed><time>2016-10-08T14:44:45Z</time><course>20</course><type>18</type></trkpt>
      <trkpt lat="41.276" lon="-3.423175"><ele>2890</ele><speed>61</speed><time>2016-10-08T14:44:46Z</time><course>21</course><type>18</type></trkpt>
      <trkpt lat="41.2761416" lon="-3.4230517"><ele>2891</ele><speed>63</speed><time>2016-10-08T14:44:47Z</time><course>23</course><type>18</type></trkpt>
      <trkpt lat="41.276265" lon="-3.4229734"><ele>2892</ele><speed>61</speed><time>2016-10-08T14:44:48Z</time><course>22</course><type>18</type></trkpt>
      <trkpt lat="41.2763866" lon="-3.4228984"><ele>2893</ele><speed>58</speed><time>2016-10-08T14:44:49Z</time><course>21</course><type>18</type></trkpt>
      <trkpt lat="41.2764966" lon="-3.4228267"><ele>2894</ele><speed>56</speed><time>2016-10-08T14:44:50Z</time><course>21</course><type>18</type></trkpt>
      <trkpt lat="41.2766233" lon="-3.422785"><ele>2894</ele><speed>57</speed><time>2016-10-08T14:44:51Z</time><course>18</course><type>18</type></trkpt>
      <trkpt lat="41.2767416" lon="-3.42273"><ele>2895</ele><speed>56</speed><time>2016-10-08T14:44:52Z</time><course>17</course><type>18</type></trkpt>
      <trkpt lat="41.2768583" lon="-3.42269"><ele>2896</ele><speed>56</speed><time>2016-10-08T14:44:53Z</time><course>17</course><type>18</type></trkpt>
      <trkpt lat="41.2769816" lon="-3.4226434"><ele>2897</ele><speed>59</speed><time>2016-10-08T14:44:54Z</time><course>21</course><type>18</type></trkpt>
      <trkpt lat="41.2771066" lon="-3.4225984"><ele>2898</ele><speed>60</speed><time>2016-10-08T14:44:55Z</time><course>22</course><type>18</type></trkpt>
      <trkpt lat="41.27723" lon="-3.4225317"><ele>2899</ele><speed>59</speed><time>2016-10-08T14:44:56Z</time><course>22</course><type>18</type></trkpt>
      <trkpt lat="41.2773733" lon="-3.422375"><ele>2903</ele><speed>59</speed><time>2016-10-08T14:44:58Z</time><course>23</course><type>18</type></trkpt>
      <trkpt lat="41.2775333" lon="-3.42225"><ele>2904</ele><speed>71</speed><time>2016-10-08T14:44:59Z</time><course>27</course><type>18</type></trkpt>
      <trkpt lat="41.2776766" lon="-3.4221401"><ele>2905</ele><speed>71</speed><time>2016-10-08T14:45:00Z</time><course>27</course><type>18</type></trkpt>
      <trkpt lat="41.2778033" lon="-3.4220467"><ele>2905</ele><speed>69</speed><time>2016-10-08T14:45:01Z</time><course>26</course><type>18</type></trkpt>
      <trkpt lat="41.2779266" lon="-3.4219684"><ele>2906</ele><speed>65</speed><time>2016-10-08T14:45:02Z</time><course>25</course><type>18</type></trkpt>
      <trkpt lat="41.2780516" lon="-3.421895"><ele>2906</ele><speed>59</speed><time>2016-10-08T14:45:03Z</time><course>21</course><type>18</type></trkpt>
      <trkpt lat="41.2781983" lon="-3.4218034"><ele>2907</ele><speed>65</speed><time>2016-10-08T14:45:04Z</time><course>22</course><type>18</type></trkpt>
      <trkpt lat="41.2783333" lon="-3.4216934"><ele>2908</ele><speed>67</speed><time>2016-10-08T14:45:05Z</time><course>24</course><type>18</type></trkpt>
      <trkpt lat="41.27851" lon="-3.4216034"><ele>2908</ele><speed>75</speed><time>2016-10-08T14:45:06Z</time><course>22</course><type>18</type></trkpt>
      <trkpt lat="41.2786633" lon="-3.4214867"><ele>2908</ele><speed>74</speed><time>2016-10-08T14:45:07Z</time><course>23</course><type>18</type></trkpt>
      <trkpt lat="41.278805" lon="-3.4213834"><ele>2908</ele><speed>69</speed><time>2016-10-08T14:45:08Z</time><course>23</course><type>18</type></trkpt>
      <trkpt lat="41.2789333" lon="-3.4212934"><ele>2908</ele><speed>65</speed><time>2016-10-08T14:45:09Z</time><course>22</course><type>18</type></trkpt>
      <trkpt lat="41.2790733" lon="-3.421205"><ele>2909</ele><speed>64</speed><time>2016-10-08T14:45:10Z</time><course>21</course><type>18</type></trkpt>
      <trkpt lat="41.279215" lon="-3.4211217"><ele>2910</ele><speed>65</speed><time>2016-10-08T14:45:11Z</time><course>23</course><type>18</type></trkpt>
      <trkpt lat="41.2793533" lon="-3.4210417"><ele>2910</ele><speed>65</speed><time>2016-10-08T14:45:12Z</time><course>23</course><type>18</type></trkpt>
      <trkpt lat="41.2794733" lon="-3.4209467"><ele>2910</ele><speed>62</speed><time>2016-10-08T14:45:13Z</time><course>21</course><type>18</type></trkpt>
      <trkpt lat="41.2796016" lon="-3.420865"><ele>2910</ele><speed>64</speed><time>2016-10-08T14:45:14Z</time><course>15</course><type>18</type></trkpt>
      <trkpt lat="41.2797266" lon="-3.4207934"><ele>2910</ele><speed>63</speed><time>2016-10-08T14:45:15Z</time><course>12</course><type>18</type></trkpt>
      <trkpt lat="41.2798716" lon="-3.4207434"><ele>2911</ele><speed>62</speed><time>2016-10-08T14:45:16Z</time><course>12</course><type>18</type></trkpt>
      <trkpt lat="41.2800166" lon="-3.4206984"><ele>2912</ele><speed>61</speed><time>2016-10-08T14:45:17Z</time><course>12</course><type>18</type></trkpt>
      <trkpt lat="41.2801666" lon="-3.4206517"><ele>2913</ele><speed>61</speed><time>2016-10-08T14:45:18Z</time><course>12</course><type>18</type></trkpt>
      <trkpt lat="41.280315" lon="-3.4206067"><ele>2914</ele><speed>61</speed><time>2016-10-08T14:45:19Z</time><course>12</course><type>18</type></trkpt>
      <trkpt lat="41.280465" lon="-3.42056"><ele>2915</ele><speed>61</speed><time>2016-10-08T14:45:20Z</time><course>13</course><type>18</type></trkpt>
      <trkpt lat="41.2806133" lon="-3.420515"><ele>2916</ele><speed>61</speed><time>2016-10-08T14:45:21Z</time><course>12</course><type>18</type></trkpt>
      <trkpt lat="41.2807683" lon="-3.4204717"><ele>2917</ele><speed>61</speed><time>2016-10-08T14:45:22Z</time><course>12</course><type>18</type></trkpt>
      <trkpt lat="41.2809316" lon="-3.42042"><ele>2918</ele><speed>63</speed><time>2016-10-08T14:45:23Z</time><course>12</course><type>18</type></trkpt>
      <trkpt lat="41.2810683" lon="-3.4203367"><ele>2918</ele><speed>63</speed><time>2016-10-08T14:45:24Z</time><course>14</course><type>18</type></trkpt>
      <trkpt lat="41.2812416" lon="-3.420265"><ele>2920</ele><speed>64</speed><time>2016-10-08T14:45:25Z</time><course>15</course><type>18</type></trkpt>
      <trkpt lat="41.2813983" lon="-3.4202484"><ele>2921</ele><speed>63</speed><time>2016-10-08T14:45:26Z</time><course>14</course><type>18</type></trkpt>
      <trkpt lat="41.281565" lon="-3.4201834"><ele>2921</ele><speed>64</speed><time>2016-10-08T14:45:27Z</time><course>14</course><type>18</type></trkpt>
      <trkpt lat="41.2817283" lon="-3.4201484"><ele>2922</ele><speed>63</speed><time>2016-10-08T14:45:28Z</time><course>13</course><type>18</type></trkpt>
      <trkpt lat="41.281895" lon="-3.4201267"><ele>2923</ele><speed>63</speed><time>2016-10-08T14:45:29Z</time><course>12</course><type>18</type></trkpt>
      <trkpt lat="41.2820666" lon="-3.42012"><ele>2924</ele><speed>63</speed><time>2016-10-08T14:45:30Z</time><course>10</course><type>18</type></trkpt>
      <trkpt lat="41.2822866" lon="-3.42006"><ele>2925</ele><speed>66</speed><time>2016-10-08T14:45:31Z</time><course>11</course><type>18</type></trkpt>
      <trkpt lat="41.2824583" lon="-3.419975"><ele>2926</ele><speed>66</speed><time>2016-10-08T14:45:32Z</time><course>12</course><type>18</type></trkpt>
      <trkpt lat="41.28268" lon="-3.419935"><ele>2926</ele><speed>69</speed><time>2016-10-08T14:45:33Z</time><course>12</course><type>18</type></trkpt>
      <trkpt lat="41.282895" lon="-3.4198884"><ele>2927</ele><speed>70</speed><time>2016-10-08T14:45:34Z</time><course>12</course><type>18</type></trkpt>
      <trkpt lat="41.2830933" lon="-3.41983"><ele>2928</ele><speed>71</speed><time>2016-10-08T14:45:35Z</time><course>12</course><type>18</type></trkpt>
      <trkpt lat="41.2832583" lon="-3.4197784"><ele>2929</ele><speed>70</speed><time>2016-10-08T14:45:36Z</time><course>11</course><type>18</type></trkpt>
      <trkpt lat="41.2834183" lon="-3.419735"><ele>2929</ele><speed>69</speed><time>2016-10-08T14:45:37Z</time><course>11</course><type>18</type></trkpt>
      <trkpt lat="41.2836116" lon="-3.4196917"><ele>2930</ele><speed>69</speed><time>2016-10-08T14:45:38Z</time><course>10</course><type>18</type></trkpt>
      <trkpt lat="41.2837383" lon="-3.4195534"><ele>2931</ele><speed>68</speed><time>2016-10-08T14:45:39Z</time><course>11</course><type>18</type></trkpt>
      <trkpt lat="41.2838583" lon="-3.4194084"><ele>2931</ele><speed>67</speed><time>2016-10-08T14:45:40Z</time><course>12</course><type>18</type></trkpt>
      <trkpt lat="41.2839833" lon="-3.4190784"><ele>2932</ele><speed>61</speed><time>2016-10-08T14:45:42Z</time><course>14</course><type>18</type></trkpt>
      <trkpt lat="41.2838466" lon="-3.4184917"><ele>2933</ele><speed>62</speed><time>2016-10-08T14:45:43Z</time><course>23</course><type>18</type></trkpt>
      <trkpt lat="41.2836466" lon="-3.4176967"><ele>2934</ele><speed>66</speed><time>2016-10-08T14:45:44Z</time><course>31</course><type>18</type></trkpt>
      <trkpt lat="41.283785" lon="-3.4175484"><ele>2934</ele><speed>67</speed><time>2016-10-08T14:45:45Z</time><course>31</course><type>18</type></trkpt>
      <trkpt lat="41.2839233" lon="-3.4174"><ele>2935</ele><speed>68</speed><time>2016-10-08T14:45:46Z</time><course>31</course><type>18</type></trkpt>
      <trkpt lat="41.2840316" lon="-3.4171884"><ele>2935</ele><speed>69</speed><time>2016-10-08T14:45:47Z</time><course>30</course><type>18</type></trkpt>
      <trkpt lat="41.2841266" lon="-3.41697"><ele>2936</ele><speed>82</speed><time>2016-10-08T14:45:48Z</time><course>38</course><type>18</type></trkpt>
      <trkpt lat="41.284295" lon="-3.4168267"><ele>2937</ele><speed>67</speed><time>2016-10-08T14:45:49Z</time><course>35</course><type>18</type></trkpt>
      <trkpt lat="41.2844716" lon="-3.4167434"><ele>2938</ele><speed>56</speed><time>2016-10-08T14:45:50Z</time><course>23</course><type>18</type></trkpt>
      <trkpt lat="41.28463" lon="-3.41664"><ele>2938</ele><speed>63</speed><time>2016-10-08T14:45:51Z</time><course>27</course><type>18</type></trkpt>
      <trkpt lat="41.284765" lon="-3.4165017"><ele>2939</ele><speed>65</speed><time>2016-10-08T14:45:52Z</time><course>30</course><type>18</type></trkpt>
      <trkpt lat="41.2849" lon="-3.41639"><ele>2939</ele><speed>65</speed><time>2016-10-08T14:45:53Z</time><course>29</course><type>18</type></trkpt>
      <trkpt lat="41.2850366" lon="-3.4162817"><ele>2939</ele><speed>65</speed><time>2016-10-08T14:45:54Z</time><course>27</course><type>18</type></trkpt>
      <trkpt lat="41.2851533" lon="-3.4161767"><ele>2940</ele><speed>65</speed><time>2016-10-08T14:45:55Z</time><course>26</course><type>18</type></trkpt>
      <trkpt lat="41.2852666" lon="-3.416065"><ele>2940</ele><speed>65</speed><time>2016-10-08T14:45:56Z</time><course>26</course><type>18</type></trkpt>
      <trkpt lat="41.2853883" lon="-3.4159601"><ele>2941</ele><speed>65</speed><time>2016-10-08T14:45:57Z</time><course>26</course><type>18</type></trkpt>
      <trkpt lat="41.2855083" lon="-3.4158534"><ele>2941</ele><speed>65</speed><time>2016-10-08T14:45:58Z</time><course>26</course><type>18</type></trkpt>
      <trkpt lat="41.2856183" lon="-3.415745"><ele>2942</ele><speed>64</speed><time>2016-10-08T14:45:59Z</time><course>26</course><type>18</type></trkpt>
      <trkpt lat="41.2857766" lon="-3.4156667"><ele>2942</ele><speed>65</speed><time>2016-10-08T14:46:00Z</time><course>25</course><type>18</type></trkpt>
      <trkpt lat="41.2859283" lon="-3.4155634"><ele>2942</ele><speed>66</speed><time>2016-10-08T14:46:01Z</time><course>25</course><type>18</type></trkpt>
      <trkpt lat="41.2860816" lon="-3.4154584"><ele>2943</ele><speed>67</speed><time>2016-10-08T14:46:02Z</time><course>25</course><type>18</type></trkpt>
      <trkpt lat="41.2862383" lon="-3.41535"><ele>2943</ele><speed>68</speed><time>2016-10-08T14:46:03Z</time><course>24</course><type>18</type></trkpt>
      <trkpt lat="41.2864" lon="-3.4152517"><ele>2944</ele><speed>69</speed><time>2016-10-08T14:46:04Z</time><course>23</course><type>18</type></trkpt>
      <trkpt lat="41.286555" lon="-3.4151467"><ele>2944</ele><speed>69</speed><time>2016-10-08T14:46:05Z</time><course>24</course><type>18</type></trkpt>
      <trkpt lat="41.2867133" lon="-3.41503"><ele>2945</ele><speed>70</speed><time>2016-10-08T14:46:06Z</time><course>24</course><type>18</type></trkpt>
      <trkpt lat="41.2867516" lon="-3.41479"><ele>2945</ele><speed>59</speed><time>2016-10-08T14:46:08Z</time><course>25</course><type>18</type></trkpt>
      <trkpt lat="41.2869266" lon="-3.4145734"><ele>2946</ele><speed>57</speed><time>2016-10-08T14:46:10Z</time><course>30</course><type>18</type></trkpt>
      <trkpt lat="41.2870333" lon="-3.4144134"><ele>2947</ele><speed>56</speed><time>2016-10-08T14:46:12Z</time><course>28</course><type>18</type></trkpt>
      <trkpt lat="41.2872466" lon="-3.414255"><ele>2949</ele><speed>55</speed><time>2016-10-08T14:46:15Z</time><course>22</course><type>18</type></trkpt>
      <trkpt lat="41.2873833" lon="-3.4141667"><ele>2950</ele><speed>56</speed><time>2016-10-08T14:46:16Z</time><course>23</course><type>18</type></trkpt>
      <trkpt lat="41.2875233" lon="-3.4140684"><ele>2951</ele><speed>57</speed><time>2016-10-08T14:46:17Z</time><course>24</course><type>18</type></trkpt>
      <trkpt lat="41.287675" lon="-3.4139817"><ele>2952</ele><speed>58</speed><time>2016-10-08T14:46:18Z</time><course>23</course><type>18</type></trkpt>
      <trkpt lat="41.287835" lon="-3.413895"><ele>2953</ele><speed>59</speed><time>2016-10-08T14:46:19Z</time><course>21</course><type>18</type></trkpt>
      <trkpt lat="41.2880283" lon="-3.4137584"><ele>2954</ele><speed>71</speed><time>2016-10-08T14:46:20Z</time><course>24</course><type>18</type></trkpt>
      <trkpt lat="41.288155" lon="-3.4136267"><ele>2955</ele><speed>73</speed><time>2016-10-08T14:46:21Z</time><course>24</course><type>18</type></trkpt>
      <trkpt lat="41.2883416" lon="-3.413515"><ele>2955</ele><speed>84</speed><time>2016-10-08T14:46:22Z</time><course>26</course><type>18</type></trkpt>
      <trkpt lat="41.2884916" lon="-3.4133867"><ele>2956</ele><speed>75</speed><time>2016-10-08T14:46:23Z</time><course>27</course><type>18</type></trkpt>
      <trkpt lat="41.2885883" lon="-3.4132734"><ele>2957</ele><speed>50</speed><time>2016-10-08T14:46:24Z</time><course>27</course><type>18</type></trkpt>
      <trkpt lat="41.28875" lon="-3.413205"><ele>2958</ele><speed>55</speed><time>2016-10-08T14:46:25Z</time><course>24</course><type>18</type></trkpt>
      <trkpt lat="41.2888916" lon="-3.4131534"><ele>2959</ele><speed>60</speed><time>2016-10-08T14:46:26Z</time><course>22</course><type>18</type></trkpt>
      <trkpt lat="41.2890466" lon="-3.4131"><ele>2960</ele><speed>63</speed><time>2016-10-08T14:46:27Z</time><course>21</course><type>18</type></trkpt>
      <trkpt lat="41.2891799" lon="-3.4130434"><ele>2961</ele><speed>62</speed><time>2016-10-08T14:46:28Z</time><course>20</course><type>18</type></trkpt>
      <trkpt lat="41.2893133" lon="-3.4129834"><ele>2962</ele><speed>61</speed><time>2016-10-08T14:46:29Z</time><course>21</course><type>18</type></trkpt>
      <trkpt lat="41.2894383" lon="-3.4129117"><ele>2962</ele><speed>61</speed><time>2016-10-08T14:46:30Z</time><course>22</course><type>18</type></trkpt>
      <trkpt lat="41.2895116" lon="-3.4127867"><ele>2963</ele><speed>61</speed><time>2016-10-08T14:46:31Z</time><course>22</course><type>18</type></trkpt>
      <trkpt lat="41.2896133" lon="-3.41269"><ele>2964</ele><speed>62</speed><time>2016-10-08T14:46:32Z</time><course>21</course><type>18</type></trkpt>
      <trkpt lat="41.2897266" lon="-3.4125934"><ele>2964</ele><speed>62</speed><time>2016-10-08T14:46:33Z</time><course>22</course><type>18</type></trkpt>
      <trkpt lat="41.289875" lon="-3.4125317"><ele>2965</ele><speed>62</speed><time>2016-10-08T14:46:34Z</time><course>21</course><type>18</type></trkpt>
      <trkpt lat="41.29001" lon="-3.4124534"><ele>2966</ele><speed>61</speed><time>2016-10-08T14:46:35Z</time><course>23</course><type>18</type></trkpt>
      <trkpt lat="41.290145" lon="-3.4123784"><ele>2967</ele><speed>60</speed><time>2016-10-08T14:46:36Z</time><course>24</course><type>18</type></trkpt>
      <trkpt lat="41.2902766" lon="-3.412305"><ele>2967</ele><speed>58</speed><time>2016-10-08T14:46:37Z</time><course>24</course><type>18</type></trkpt>
      <trkpt lat="41.2904083" lon="-3.4122334"><ele>2968</ele><speed>59</speed><time>2016-10-08T14:46:38Z</time><course>25</course><type>18</type></trkpt>
      <trkpt lat="41.29053" lon="-3.4121434"><ele>2968</ele><speed>60</speed><time>2016-10-08T14:46:39Z</time><course>29</course><type>18</type></trkpt>
      <trkpt lat="41.2906516" lon="-3.4120417"><ele>2969</ele><speed>57</speed><time>2016-10-08T14:46:40Z</time><course>29</course><type>18</type></trkpt>
      <trkpt lat="41.2907933" lon="-3.41196"><ele>2970</ele><speed>61</speed><time>2016-10-08T14:46:41Z</time><course>26</course><type>18</type></trkpt>
      <trkpt lat="41.2909166" lon="-3.4118817"><ele>2971</ele><speed>55</speed><time>2016-10-08T14:46:42Z</time><course>19</course><type>18</type></trkpt>
      <trkpt lat="41.29102" lon="-3.4117951"><ele>2970</ele><speed>54</speed><time>2016-10-08T14:46:43Z</time><course>22</course><type>18</type></trkpt>
      <trkpt lat="41.29113" lon="-3.411715"><ele>2968</ele><speed>54</speed><time>2016-10-08T14:46:44Z</time><course>24</course><type>18</type></trkpt>
      <trkpt lat="41.291245" lon="-3.41163"><ele>2967</ele><speed>55</speed><time>2016-10-08T14:46:45Z</time><course>25</course><type>18</type></trkpt>
      <trkpt lat="41.29136" lon="-3.4115384"><ele>2966</ele><speed>57</speed><time>2016-10-08T14:46:46Z</time><course>26</course><type>18</type></trkpt>
      <trkpt lat="41.29147" lon="-3.4114284"><ele>2965</ele><speed>59</speed><time>2016-10-08T14:46:47Z</time><course>28</course><type>18</type></trkpt>
      <trkpt lat="41.2915916" lon="-3.4113234"><ele>2964</ele><speed>61</speed><time>2016-10-08T14:46:48Z</time><course>29</course><type>18</type></trkpt>
      <trkpt lat="41.2917183" lon="-3.4112234"><ele>2963</ele><speed>61</speed><time>2016-10-08T14:46:49Z</time><course>29</course><type>18</type></trkpt>
      <trkpt lat="41.291845" lon="-3.411125"><ele>2962</ele><speed>60</speed><time>2016-10-08T14:46:50Z</time><course>29</course><type>18</type></trkpt>
      <trkpt lat="41.2919733" lon="-3.4110267"><ele>2961</ele><speed>60</speed><time>2016-10-08T14:46:51Z</time><course>29</course><type>18</type></trkpt>
      <trkpt lat="41.2921066" lon="-3.41093"><ele>2960</ele><speed>62</speed><time>2016-10-08T14:46:52Z</time><course>29</course><type>18</type></trkpt>
      <trkpt lat="41.2922333" lon="-3.41081"><ele>2959</ele><speed>66</speed><time>2016-10-08T14:46:53Z</time><course>30</course><type>18</type></trkpt>
      <trkpt lat="41.2923633" lon="-3.4106834"><ele>2958</ele><speed>68</speed><time>2016-10-08T14:46:54Z</time><course>32</course><type>18</type></trkpt>
      <trkpt lat="41.2925033" lon="-3.41055"><ele>2957</ele><speed>74</speed><time>2016-10-08T14:46:55Z</time><course>33</course><type>18</type></trkpt>
      <trkpt lat="41.2926666" lon="-3.410405"><ele>2956</ele><speed>83</speed><time>2016-10-08T14:46:56Z</time><course>33</course><type>18</type></trkpt>
      <trkpt lat="41.292835" lon="-3.41026"><ele>2955</ele><speed>82</speed><time>2016-10-08T14:46:57Z</time><course>33</course><type>18</type></trkpt>
      <trkpt lat="41.2929933" lon="-3.410125"><ele>2954</ele><speed>80</speed><time>2016-10-08T14:46:58Z</time><course>33</course><type>18</type></trkpt>
      <trkpt lat="41.293115" lon="-3.4100017"><ele>2953</ele><speed>74</speed><time>2016-10-08T14:46:59Z</time><course>33</course><type>18</type></trkpt>
      <trkpt lat="41.2932616" lon="-3.4098734"><ele>2952</ele><speed>73</speed><time>2016-10-08T14:47:00Z</time><course>33</course><type>18</type></trkpt>
      <trkpt lat="41.293375" lon="-3.4097084"><ele>2951</ele><speed>71</speed><time>2016-10-08T14:47:01Z</time><course>36</course><type>18</type></trkpt>
      <trkpt lat="41.2934866" lon="-3.4095984"><ele>2950</ele><speed>67</speed><time>2016-10-08T14:47:02Z</time><course>36</course><type>18</type></trkpt>
      <trkpt lat="41.293565" lon="-3.4094717"><ele>2949</ele><speed>62</speed><time>2016-10-08T14:47:03Z</time><course>37</course><type>18</type></trkpt>
      <trkpt lat="41.29366" lon="-3.4093967"><ele>2948</ele><speed>57</speed><time>2016-10-08T14:47:04Z</time><course>35</course><type>18</type></trkpt>
      <trkpt lat="41.2937433" lon="-3.4093034"><ele>2947</ele><speed>53</speed><time>2016-10-08T14:47:05Z</time><course>36</course><type>18</type></trkpt>
      <trkpt lat="41.2938033" lon="-3.4091917"><ele>2946</ele><speed>50</speed><time>2016-10-08T14:47:06Z</time><course>36</course><type>18</type></trkpt>
      <trkpt lat="41.2938783" lon="-3.4091134"><ele>2945</ele><speed>46</speed><time>2016-10-08T14:47:07Z</time><course>36</course><type>18</type></trkpt>
      <trkpt lat="41.2939649" lon="-3.4090517"><ele>2944</ele><speed>45</speed><time>2016-10-08T14:47:08Z</time><course>32</course><type>18</type></trkpt>
      <trkpt lat="41.2940066" lon="-3.4089634"><ele>2943</ele><speed>43</speed><time>2016-10-08T14:47:09Z</time><course>29</course><type>18</type></trkpt>
      <trkpt lat="41.2941083" lon="-3.40889"><ele>2941</ele><speed>49</speed><time>2016-10-08T14:47:11Z</time><course>26</course><type>18</type></trkpt>
      <trkpt lat="41.2942" lon="-3.4088534"><ele>2940</ele><speed>47</speed><time>2016-10-08T14:47:12Z</time><course>24</course><type>18</type></trkpt>
      <trkpt lat="41.2942866" lon="-3.4088084"><ele>2939</ele><speed>43</speed><time>2016-10-08T14:47:13Z</time><course>23</course><type>18</type></trkpt>
      <trkpt lat="41.29438" lon="-3.4087534"><ele>2938</ele><speed>43</speed><time>2016-10-08T14:47:14Z</time><course>25</course><type>18</type></trkpt>
      <trkpt lat="41.2945316" lon="-3.4088667"><ele>2934</ele><speed>34</speed><time>2016-10-08T14:47:16Z</time><course>342</course><type>18</type></trkpt>
      <trkpt lat="41.2947116" lon="-3.4090117"><ele>2930</ele><speed>44</speed><time>2016-10-08T14:47:17Z</time><course>350</course><type>18</type></trkpt>
      <trkpt lat="41.294715" lon="-3.4086484"><ele>2929</ele><speed>40</speed><time>2016-10-08T14:47:18Z</time><course>1</course><type>18</type></trkpt>
      <trkpt lat="41.29483" lon="-3.4085301"><ele>2928</ele><speed>47</speed><time>2016-10-08T14:47:19Z</time><course>6</course><type>18</type></trkpt>
      <trkpt lat="41.2949183" lon="-3.40845"><ele>2927</ele><speed>45</speed><time>2016-10-08T14:47:20Z</time><course>12</course><type>18</type></trkpt>
      <trkpt lat="41.295015" lon="-3.4083834"><ele>2926</ele><speed>45</speed><time>2016-10-08T14:47:21Z</time><course>9</course><type>18</type></trkpt>
      <trkpt lat="41.2951233" lon="-3.4083417"><ele>2925</ele><speed>46</speed><time>2016-10-08T14:47:22Z</time><course>9</course><type>18</type></trkpt>
      <trkpt lat="41.2952366" lon="-3.4083051"><ele>2924</ele><speed>47</speed><time>2016-10-08T14:47:23Z</time><course>9</course><type>18</type></trkpt>
      <trkpt lat="41.295355" lon="-3.4082734"><ele>2923</ele><speed>47</speed><time>2016-10-08T14:47:24Z</time><course>8</course><type>18</type></trkpt>
      <trkpt lat="41.2954716" lon="-3.4082484"><ele>2922</ele><speed>47</speed><time>2016-10-08T14:47:25Z</time><course>6</course><type>18</type></trkpt>
      <trkpt lat="41.2955883" lon="-3.4082334"><ele>2921</ele><speed>46</speed><time>2016-10-08T14:47:26Z</time><course>4</course><type>18</type></trkpt>
      <trkpt lat="41.2957033" lon="-3.4082167"><ele>2921</ele><speed>48</speed><time>2016-10-08T14:47:27Z</time><course>2</course><type>18</type></trkpt>
      <trkpt lat="41.295825" lon="-3.4082034"><ele>2920</ele><speed>50</speed><time>2016-10-08T14:47:28Z</time><course>5</course><type>18</type></trkpt>
      <trkpt lat="41.2959516" lon="-3.4081867"><ele>2919</ele><speed>52</speed><time>2016-10-08T14:47:29Z</time><course>5</course><type>18</type></trkpt>
      <trkpt lat="41.2960866" lon="-3.4081767"><ele>2918</ele><speed>52</speed><time>2016-10-08T14:47:30Z</time><course>4</course><type>18</type></trkpt>
      <trkpt lat="41.2962033" lon="-3.4081734"><ele>2917</ele><speed>48</speed><time>2016-10-08T14:47:31Z</time><course>2</course><type>18</type></trkpt>
      <trkpt lat="41.2962933" lon="-3.4082084"><ele>2916</ele><speed>40</speed><time>2016-10-08T14:47:32Z</time><course>352</course><type>18</type></trkpt>
      <trkpt lat="41.2963866" lon="-3.40823"><ele>2915</ele><speed>39</speed><time>2016-10-08T14:47:33Z</time><course>352</course><type>18</type></trkpt>
      <trkpt lat="41.2964983" lon="-3.4082367"><ele>2914</ele><speed>44</speed><time>2016-10-08T14:47:34Z</time><course>358</course><type>18</type></trkpt>
      <trkpt lat="41.2966116" lon="-3.4082217"><ele>2913</ele><speed>45</speed><time>2016-10-08T14:47:35Z</time><course>2</course><type>18</type></trkpt>
      <trkpt lat="41.2967316" lon="-3.4081967"><ele>2913</ele><speed>47</speed><time>2016-10-08T14:47:36Z</time><course>5</course><type>18</type></trkpt>
      <trkpt lat="41.29686" lon="-3.4081634"><ele>2912</ele><speed>49</speed><time>2016-10-08T14:47:37Z</time><course>7</course><type>18</type></trkpt>
      <trkpt lat="41.2970116" lon="-3.4081034"><ele>2911</ele><speed>58</speed><time>2016-10-08T14:47:38Z</time><course>12</course><type>18</type></trkpt>
      <trkpt lat="41.2971616" lon="-3.4080517"><ele>2910</ele><speed>60</speed><time>2016-10-08T14:47:39Z</time><course>13</course><type>18</type></trkpt>
      <trkpt lat="41.29731" lon="-3.408"><ele>2909</ele><speed>62</speed><time>2016-10-08T14:47:40Z</time><course>13</course><type>18</type></trkpt>
      <trkpt lat="41.297455" lon="-3.4079451"><ele>2908</ele><speed>62</speed><time>2016-10-08T14:47:41Z</time><course>13</course><type>18</type></trkpt>
      <trkpt lat="41.2975816" lon="-3.4078784"><ele>2907</ele><speed>59</speed><time>2016-10-08T14:47:42Z</time><course>13</course><type>18</type></trkpt>
      <trkpt lat="41.2977083" lon="-3.407825"><ele>2906</ele><speed>55</speed><time>2016-10-08T14:47:43Z</time><course>12</course><type>18</type></trkpt>
      <trkpt lat="41.2978216" lon="-3.4077767"><ele>2906</ele><speed>54</speed><time>2016-10-08T14:47:44Z</time><course>12</course><type>18</type></trkpt>
      <trkpt lat="41.297945" lon="-3.4077284"><ele>2905</ele><speed>55</speed><time>2016-10-08T14:47:45Z</time><course>13</course><type>18</type></trkpt>
      <trkpt lat="41.2980733" lon="-3.4076767"><ele>2904</ele><speed>55</speed><time>2016-10-08T14:47:46Z</time><course>13</course><type>18</type></trkpt>
      <trkpt lat="41.2982083" lon="-3.4076267"><ele>2903</ele><speed>56</speed><time>2016-10-08T14:47:47Z</time><course>13</course><type>18</type></trkpt>
      <trkpt lat="41.2983266" lon="-3.40758"><ele>2902</ele><speed>54</speed><time>2016-10-08T14:47:48Z</time><course>14</course><type>18</type></trkpt>
      <trkpt lat="41.298465" lon="-3.4075317"><ele>2901</ele><speed>55</speed><time>2016-10-08T14:47:49Z</time><course>14</course><type>18</type></trkpt>
      <trkpt lat="41.298545" lon="-3.407385"><ele>2900</ele><speed>53</speed><time>2016-10-08T14:47:50Z</time><course>26</course><type>18</type></trkpt>
      <trkpt lat="41.2986483" lon="-3.40727"><ele>2899</ele><speed>53</speed><time>2016-10-08T14:47:51Z</time><course>27</course><type>18</type></trkpt>
      <trkpt lat="41.298755" lon="-3.40725"><ele>2898</ele><speed>43</speed><time>2016-10-08T14:47:52Z</time><course>18</course><type>18</type></trkpt>
      <trkpt lat="41.2988716" lon="-3.4072067"><ele>2898</ele><speed>46</speed><time>2016-10-08T14:47:53Z</time><course>17</course><type>18</type></trkpt>
      <trkpt lat="41.2989866" lon="-3.4071634"><ele>2897</ele><speed>47</speed><time>2016-10-08T14:47:54Z</time><course>14</course><type>18</type></trkpt>
      <trkpt lat="41.2990983" lon="-3.4071217"><ele>2896</ele><speed>47</speed><time>2016-10-08T14:47:55Z</time><course>13</course><type>18</type></trkpt>
      <trkpt lat="41.2992166" lon="-3.4070917"><ele>2895</ele><speed>48</speed><time>2016-10-08T14:47:56Z</time><course>11</course><type>18</type></trkpt>
      <trkpt lat="41.2993366" lon="-3.40706"><ele>2894</ele><speed>48</speed><time>2016-10-08T14:47:57Z</time><course>11</course><type>18</type></trkpt>
      <trkpt lat="41.2994666" lon="-3.4070184"><ele>2893</ele><speed>51</speed><time>2016-10-08T14:47:58Z</time><course>12</course><type>18</type></trkpt>
      <trkpt lat="41.2995983" lon="-3.4070284"><ele>2892</ele><speed>51</speed><time>2016-10-08T14:47:59Z</time><course>5</course><type>18</type></trkpt>
      <trkpt lat="41.2997133" lon="-3.4070184"><ele>2891</ele><speed>49</speed><time>2016-10-08T14:48:00Z</time><course>5</course><type>18</type></trkpt>
      <trkpt lat="41.2998366" lon="-3.4070184"><ele>2890</ele><speed>48</speed><time>2016-10-08T14:48:01Z</time><course>3</course><type>18</type></trkpt>
      <trkpt lat="41.2999566" lon="-3.4070267"><ele>2889</ele><speed>47</speed><time>2016-10-08T14:48:02Z</time><course>0</course><type>18</type></trkpt>
      <trkpt lat="41.300085" lon="-3.4070367"><ele>2888</ele><speed>49</speed><time>2016-10-08T14:48:03Z</time><course>358</course><type>18</type></trkpt>
      <trkpt lat="41.30022" lon="-3.4070534"><ele>2887</ele><speed>52</speed><time>2016-10-08T14:48:04Z</time><course>356</course><type>18</type></trkpt>
      <trkpt lat="41.3003499" lon="-3.40708"><ele>2886</ele><speed>52</speed><time>2016-10-08T14:48:05Z</time><course>354</course><type>18</type></trkpt>
      <trkpt lat="41.3004849" lon="-3.4071067"><ele>2885</ele><speed>53</speed><time>2016-10-08T14:48:06Z</time><course>353</course><type>18</type></trkpt>
      <trkpt lat="41.3006266" lon="-3.407125"><ele>2884</ele><speed>53</speed><time>2016-10-08T14:48:07Z</time><course>354</course><type>18</type></trkpt>
      <trkpt lat="41.3007549" lon="-3.4071667"><ele>2884</ele><speed>52</speed><time>2016-10-08T14:48:08Z</time><course>351</course><type>18</type></trkpt>
      <trkpt lat="41.3008916" lon="-3.4071901"><ele>2883</ele><speed>52</speed><time>2016-10-08T14:48:09Z</time><course>352</course><type>18</type></trkpt>
      <trkpt lat="41.3010366" lon="-3.4071884"><ele>2882</ele><speed>53</speed><time>2016-10-08T14:48:10Z</time><course>356</course><type>18</type></trkpt>
      <trkpt lat="41.301195" lon="-3.4071451"><ele>2878</ele><speed>47</speed><time>2016-10-08T14:48:12Z</time><course>356</course><type>18</type></trkpt>
      <trkpt lat="41.301305" lon="-3.4070101"><ele>2874</ele><speed>43</speed><time>2016-10-08T14:48:14Z</time><course>358</course><type>18</type></trkpt>
      <trkpt lat="41.3014316" lon="-3.4069834"><ele>2873</ele><speed>43</speed><time>2016-10-08T14:48:15Z</time><course>2</course><type>18</type></trkpt>
      <trkpt lat="41.3015316" lon="-3.4069017"><ele>2871</ele><speed>46</speed><time>2016-10-08T14:48:16Z</time><course>5</course><type>18</type></trkpt>
      <trkpt lat="41.3016783" lon="-3.4068717"><ele>2870</ele><speed>49</speed><time>2016-10-08T14:48:17Z</time><course>6</course><type>18</type></trkpt>
      <trkpt lat="41.3017883" lon="-3.4068084"><ele>2868</ele><speed>50</speed><time>2016-10-08T14:48:18Z</time><course>5</course><type>18</type></trkpt>
      <trkpt lat="41.3019566" lon="-3.4067617"><ele>2867</ele><speed>57</speed><time>2016-10-08T14:48:19Z</time><course>9</course><type>18</type></trkpt>
      <trkpt lat="41.3021216" lon="-3.4067134"><ele>2866</ele><speed>64</speed><time>2016-10-08T14:48:20Z</time><course>13</course><type>18</type></trkpt>
      <trkpt lat="41.30228" lon="-3.4066817"><ele>2865</ele><speed>63</speed><time>2016-10-08T14:48:21Z</time><course>10</course><type>18</type></trkpt>
      <trkpt lat="41.3024283" lon="-3.40666"><ele>2865</ele><speed>62</speed><time>2016-10-08T14:48:22Z</time><course>9</course><type>18</type></trkpt>
      <trkpt lat="41.3025633" lon="-3.4066467"><ele>2864</ele><speed>60</speed><time>2016-10-08T14:48:23Z</time><course>9</course><type>18</type></trkpt>
      <trkpt lat="41.3026966" lon="-3.4066284"><ele>2863</ele><speed>59</speed><time>2016-10-08T14:48:24Z</time><course>9</course><type>18</type></trkpt>
      <trkpt lat="41.3028183" lon="-3.4066217"><ele>2862</ele><speed>57</speed><time>2016-10-08T14:48:25Z</time><course>7</course><type>18</type></trkpt>
      <trkpt lat="41.3029666" lon="-3.4066051"><ele>2861</ele><speed>57</speed><time>2016-10-08T14:48:26Z</time><course>7</course><type>18</type></trkpt>
      <trkpt lat="41.3031283" lon="-3.4066034"><ele>2861</ele><speed>58</speed><time>2016-10-08T14:48:27Z</time><course>5</course><type>18</type></trkpt>
      <trkpt lat="41.3032866" lon="-3.4065717"><ele>2860</ele><speed>59</speed><time>2016-10-08T14:48:28Z</time><course>5</course><type>18</type></trkpt>
      <trkpt lat="41.3034333" lon="-3.4064767"><ele>2859</ele><speed>59</speed><time>2016-10-08T14:48:29Z</time><course>10</course><type>18</type></trkpt>
      <trkpt lat="41.3035449" lon="-3.4063617"><ele>2858</ele><speed>55</speed><time>2016-10-08T14:48:30Z</time><course>15</course><type>18</type></trkpt>
      <trkpt lat="41.3035983" lon="-3.4062484"><ele>2857</ele><speed>51</speed><time>2016-10-08T14:48:31Z</time><course>21</course><type>18</type></trkpt>
      <trkpt lat="41.3037066" lon="-3.40614"><ele>2856</ele><speed>49</speed><time>2016-10-08T14:48:32Z</time><course>23</course><type>18</type></trkpt>
      <trkpt lat="41.3038233" lon="-3.40605"><ele>2856</ele><speed>49</speed><time>2016-10-08T14:48:33Z</time><course>24</course><type>18</type></trkpt>
      <trkpt lat="41.3039216" lon="-3.4059784"><ele>2855</ele><speed>48</speed><time>2016-10-08T14:48:34Z</time><course>25</course><type>18</type></trkpt>
      <trkpt lat="41.3039933" lon="-3.405875"><ele>2854</ele><speed>46</speed><time>2016-10-08T14:48:35Z</time><course>28</course><type>18</type></trkpt>
      <trkpt lat="41.3040766" lon="-3.4057734"><ele>2853</ele><speed>46</speed><time>2016-10-08T14:48:36Z</time><course>30</course><type>18</type></trkpt>
      <trkpt lat="41.304165" lon="-3.405665"><ele>2852</ele><speed>46</speed><time>2016-10-08T14:48:37Z</time><course>34</course><type>18</type></trkpt>
      <trkpt lat="41.3042333" lon="-3.4055634"><ele>2851</ele><speed>44</speed><time>2016-10-08T14:48:38Z</time><course>39</course><type>18</type></trkpt>
      <trkpt lat="41.3043283" lon="-3.4054184"><ele>2850</ele><speed>52</speed><time>2016-10-08T14:48:39Z</time><course>42</course><type>18</type></trkpt>
      <trkpt lat="41.3043883" lon="-3.4052084"><ele>2850</ele><speed>56</speed><time>2016-10-08T14:48:40Z</time><course>51</course><type>18</type></trkpt>
      <trkpt lat="41.3041466" lon="-3.4046584"><ele>2845</ele><speed>55</speed><time>2016-10-08T14:48:41Z</time><course>59</course><type>18</type></trkpt>
      <trkpt lat="41.3040583" lon="-3.4043867"><ele>2842</ele><speed>53</speed><time>2016-10-08T14:48:42Z</time><course>59</course><type>18</type></trkpt>
      <trkpt lat="41.3039866" lon="-3.4041984"><ele>2840</ele><speed>51</speed><time>2016-10-08T14:48:43Z</time><course>68</course><type>18</type></trkpt>
      <trkpt lat="41.3039183" lon="-3.4040967"><ele>2838</ele><speed>47</speed><time>2016-10-08T14:48:44Z</time><course>67</course><type>18</type></trkpt>
      <trkpt lat="41.3038683" lon="-3.4039684"><ele>2836</ele><speed>44</speed><time>2016-10-08T14:48:45Z</time><course>64</course><type>18</type></trkpt>
      <trkpt lat="41.3038283" lon="-3.4038534"><ele>2833</ele><speed>35</speed><time>2016-10-08T14:48:47Z</time><course>65</course><type>18</type></trkpt>
      <trkpt lat="41.303765" lon="-3.4040967"><ele>2827</ele><speed>8</speed><time>2016-10-08T14:48:51Z</time><course>19</course><type>18</type></trkpt>
      <trkpt lat="41.303805" lon="-3.40426"><ele>2824</ele><speed>14</speed><time>2016-10-08T14:48:53Z</time><course>329</course><type>18</type></trkpt>
      <trkpt lat="41.303825" lon="-3.4044284"><ele>2822</ele><speed>15</speed><time>2016-10-08T14:48:55Z</time><course>319</course><type>18</type></trkpt>
      <trkpt lat="41.303925" lon="-3.404445"><ele>2817</ele><speed>16</speed><time>2016-10-08T14:49:01Z</time><course>340</course><type>18</type></trkpt>
      <trkpt lat="41.3040583" lon="-3.40447"><ele>2816</ele><speed>21</speed><time>2016-10-08T14:49:03Z</time><course>340</course><type>18</type></trkpt>
      <trkpt lat="41.3042316" lon="-3.40445"><ele>2814</ele><speed>24</speed><time>2016-10-08T14:49:05Z</time><course>349</course><type>18</type></trkpt>
      <trkpt lat="41.3043416" lon="-3.4044317"><ele>2814</ele><speed>26</speed><time>2016-10-08T14:49:06Z</time><course>354</course><type>18</type></trkpt>
      <trkpt lat="41.3045716" lon="-3.4043984"><ele>2813</ele><speed>32</speed><time>2016-10-08T14:49:08Z</time><course>358</course><type>18</type></trkpt>
      <trkpt lat="41.3046933" lon="-3.4043734"><ele>2812</ele><speed>35</speed><time>2016-10-08T14:49:09Z</time><course>0</course><type>18</type></trkpt>
      <trkpt lat="41.30482" lon="-3.40438"><ele>2811</ele><speed>38</speed><time>2016-10-08T14:49:10Z</time><course>359</course><type>18</type></trkpt>
      <trkpt lat="41.304935" lon="-3.4043884"><ele>2811</ele><speed>40</speed><time>2016-10-08T14:49:11Z</time><course>358</course><type>18</type></trkpt>
      <trkpt lat="41.30505" lon="-3.4043867"><ele>2810</ele><speed>41</speed><time>2016-10-08T14:49:12Z</time><course>0</course><type>18</type></trkpt>
      <trkpt lat="41.305125" lon="-3.4045467"><ele>2809</ele><speed>40</speed><time>2016-10-08T14:49:13Z</time><course>356</course><type>18</type></trkpt>
      <trkpt lat="41.3052033" lon="-3.4046784"><ele>2808</ele><speed>40</speed><time>2016-10-08T14:49:14Z</time><course>353</course><type>18</type></trkpt>
      <trkpt lat="41.3053233" lon="-3.4046884"><ele>2807</ele><speed>40</speed><time>2016-10-08T14:49:15Z</time><course>353</course><type>18</type></trkpt>
      <trkpt lat="41.3054333" lon="-3.4047067"><ele>2807</ele><speed>39</speed><time>2016-10-08T14:49:16Z</time><course>352</course><type>18</type></trkpt>
      <trkpt lat="41.3056849" lon="-3.4046667"><ele>2806</ele><speed>40</speed><time>2016-10-08T14:49:18Z</time><course>357</course><type>18</type></trkpt>
      <trkpt lat="41.3058366" lon="-3.4046384"><ele>2806</ele><speed>42</speed><time>2016-10-08T14:49:19Z</time><course>0</course><type>18</type></trkpt>
      <trkpt lat="41.3059549" lon="-3.40457"><ele>2805</ele><speed>42</speed><time>2016-10-08T14:49:20Z</time><course>5</course><type>18</type></trkpt>
      <trkpt lat="41.3061416" lon="-3.4044517"><ele>2804</ele><speed>41</speed><time>2016-10-08T14:49:22Z</time><course>12</course><type>18</type></trkpt>
      <trkpt lat="41.3062383" lon="-3.4043834"><ele>2803</ele><speed>42</speed><time>2016-10-08T14:49:23Z</time><course>15</course><type>18</type></trkpt>
      <trkpt lat="41.3063433" lon="-3.4043217"><ele>2802</ele><speed>44</speed><time>2016-10-08T14:49:24Z</time><course>16</course><type>18</type></trkpt>
      <trkpt lat="41.30644" lon="-3.404255"><ele>2802</ele><speed>43</speed><time>2016-10-08T14:49:25Z</time><course>17</course><type>18</type></trkpt>
      <trkpt lat="41.3066183" lon="-3.4043017"><ele>2800</ele><speed>43</speed><time>2016-10-08T14:49:27Z</time><course>18</course><type>18</type></trkpt>
      <trkpt lat="41.3067783" lon="-3.4041867"><ele>2799</ele><speed>41</speed><time>2016-10-08T14:49:29Z</time><course>18</course><type>18</type></trkpt>
      <trkpt lat="41.3069466" lon="-3.4040817"><ele>2798</ele><speed>41</speed><time>2016-10-08T14:49:31Z</time><course>19</course><type>18</type></trkpt>
      <trkpt lat="41.3071233" lon="-3.4039684"><ele>2796</ele><speed>41</speed><time>2016-10-08T14:49:33Z</time><course>20</course><type>18</type></trkpt>
      <trkpt lat="41.3072683" lon="-3.4040567"><ele>2795</ele><speed>38</speed><time>2016-10-08T14:49:35Z</time><course>20</course><type>18</type></trkpt>
      <trkpt lat="41.3073566" lon="-3.40419"><ele>2794</ele><speed>39</speed><time>2016-10-08T14:49:36Z</time><course>18</course><type>18</type></trkpt>
      <trkpt lat="41.307445" lon="-3.4041034"><ele>2793</ele><speed>41</speed><time>2016-10-08T14:49:37Z</time><course>21</course><type>18</type></trkpt>
      <trkpt lat="41.3076383" lon="-3.4039567"><ele>2792</ele><speed>43</speed><time>2016-10-08T14:49:39Z</time><course>19</course><type>18</type></trkpt>
      <trkpt lat="41.3079116" lon="-3.4039234"><ele>2790</ele><speed>46</speed><time>2016-10-08T14:49:41Z</time><course>19</course><type>18</type></trkpt>
      <trkpt lat="41.3081133" lon="-3.403925"><ele>2789</ele><speed>54</speed><time>2016-10-08T14:49:42Z</time><course>20</course><type>18</type></trkpt>
      <trkpt lat="41.3082916" lon="-3.40389"><ele>2788</ele><speed>57</speed><time>2016-10-08T14:49:43Z</time><course>19</course><type>18</type></trkpt>
      <trkpt lat="41.3084466" lon="-3.4038267"><ele>2787</ele><speed>60</speed><time>2016-10-08T14:49:44Z</time><course>15</course><type>18</type></trkpt>
      <trkpt lat="41.308685" lon="-3.4037934"><ele>2786</ele><speed>68</speed><time>2016-10-08T14:49:45Z</time><course>17</course><type>18</type></trkpt>
      <trkpt lat="41.3088933" lon="-3.4037467"><ele>2786</ele><speed>67</speed><time>2016-10-08T14:49:46Z</time><course>17</course><type>18</type></trkpt>
      <trkpt lat="41.3090416" lon="-3.4036717"><ele>2785</ele><speed>66</speed><time>2016-10-08T14:49:47Z</time><course>17</course><type>18</type></trkpt>
      <trkpt lat="41.3091733" lon="-3.4036284"><ele>2784</ele><speed>64</speed><time>2016-10-08T14:49:48Z</time><course>16</course><type>18</type></trkpt>
      <trkpt lat="41.309295" lon="-3.4035967"><ele>2784</ele><speed>60</speed><time>2016-10-08T14:49:49Z</time><course>14</course><type>18</type></trkpt>
      <trkpt lat="41.3095433" lon="-3.4037734"><ele>2782</ele><speed>52</speed><time>2016-10-08T14:49:50Z</time><course>3</course><type>18</type></trkpt>
      <trkpt lat="41.3097616" lon="-3.4039717"><ele>2781</ele><speed>55</speed><time>2016-10-08T14:49:51Z</time><course>1</course><type>18</type></trkpt>
      <trkpt lat="41.3100399" lon="-3.4041401"><ele>2780</ele><speed>58</speed><time>2016-10-08T14:49:52Z</time><course>358</course><type>18</type></trkpt>
      <trkpt lat="41.3102466" lon="-3.40416"><ele>2779</ele><speed>57</speed><time>2016-10-08T14:49:53Z</time><course>0</course><type>18</type></trkpt>
      <trkpt lat="41.3104816" lon="-3.4042534"><ele>2779</ele><speed>59</speed><time>2016-10-08T14:49:54Z</time><course>0</course><type>18</type></trkpt>
      <trkpt lat="41.3106516" lon="-3.404265"><ele>2778</ele><speed>61</speed><time>2016-10-08T14:49:55Z</time><course>3</course><type>18</type></trkpt>
      <trkpt lat="41.3106866" lon="-3.4040567"><ele>2776</ele><speed>57</speed><time>2016-10-08T14:49:56Z</time><course>24</course><type>18</type></trkpt>
      <trkpt lat="41.3107783" lon="-3.40399"><ele>2774</ele><speed>57</speed><time>2016-10-08T14:49:57Z</time><course>26</course><type>18</type></trkpt>
      <trkpt lat="41.3108583" lon="-3.4038634"><ele>2772</ele><speed>57</speed><time>2016-10-08T14:49:58Z</time><course>36</course><type>18</type></trkpt>
      <trkpt lat="41.3109133" lon="-3.4037517"><ele>2770</ele><speed>55</speed><time>2016-10-08T14:49:59Z</time><course>40</course><type>18</type></trkpt>
      <trkpt lat="41.3109749" lon="-3.4036517"><ele>2768</ele><speed>54</speed><time>2016-10-08T14:50:00Z</time><course>41</course><type>18</type></trkpt>
      <trkpt lat="41.31106" lon="-3.403525"><ele>2766</ele><speed>64</speed><time>2016-10-08T14:50:01Z</time><course>44</course><type>18</type></trkpt>
      <trkpt lat="41.31105" lon="-3.403345"><ele>2761</ele><speed>67</speed><time>2016-10-08T14:50:02Z</time><course>45</course><type>18</type></trkpt>
      <trkpt lat="41.31106" lon="-3.4030917"><ele>2758</ele><speed>65</speed><time>2016-10-08T14:50:03Z</time><course>47</course><type>18</type></trkpt>
      <trkpt lat="41.31106" lon="-3.402835"><ele>2756</ele><speed>63</speed><time>2016-10-08T14:50:04Z</time><course>48</course><type>18</type></trkpt>
      <trkpt lat="41.3111683" lon="-3.4027967"><ele>2755</ele><speed>61</speed><time>2016-10-08T14:50:05Z</time><course>47</course><type>18</type></trkpt>
      <trkpt lat="41.311285" lon="-3.4027934"><ele>2754</ele><speed>58</speed><time>2016-10-08T14:50:06Z</time><course>46</course><type>18</type></trkpt>
      <trkpt lat="41.3114016" lon="-3.4027784"><ele>2753</ele><speed>53</speed><time>2016-10-08T14:50:07Z</time><course>44</course><type>18</type></trkpt>
      <trkpt lat="41.3114966" lon="-3.4027634"><ele>2752</ele><speed>41</speed><time>2016-10-08T14:50:08Z</time><course>41</course><type>18</type></trkpt>
      <trkpt lat="41.311625" lon="-3.402725"><ele>2751</ele><speed>41</speed><time>2016-10-08T14:50:09Z</time><course>35</course><type>18</type></trkpt>
      <trkpt lat="41.3117766" lon="-3.4026967"><ele>2750</ele><speed>44</speed><time>2016-10-08T14:50:10Z</time><course>29</course><type>18</type></trkpt>
      <trkpt lat="41.3119116" lon="-3.4026717"><ele>2749</ele><speed>47</speed><time>2016-10-08T14:50:11Z</time><course>27</course><type>18</type></trkpt>
      <trkpt lat="41.3120616" lon="-3.40263"><ele>2748</ele><speed>47</speed><time>2016-10-08T14:50:12Z</time><course>27</course><type>18</type></trkpt>
      <trkpt lat="41.3121983" lon="-3.4025684"><ele>2747</ele><speed>48</speed><time>2016-10-08T14:50:13Z</time><course>27</course><type>18</type></trkpt>
      <trkpt lat="41.31233" lon="-3.402505"><ele>2746</ele><speed>48</speed><time>2016-10-08T14:50:14Z</time><course>26</course><type>18</type></trkpt>
      <trkpt lat="41.312475" lon="-3.4024717"><ele>2745</ele><speed>49</speed><time>2016-10-08T14:50:15Z</time><course>25</course><type>18</type></trkpt>
      <trkpt lat="41.3126433" lon="-3.4024834"><ele>2744</ele><speed>51</speed><time>2016-10-08T14:50:16Z</time><course>27</course><type>18</type></trkpt>
      <trkpt lat="41.3127299" lon="-3.4023967"><ele>2742</ele><speed>53</speed><time>2016-10-08T14:50:17Z</time><course>28</course><type>18</type></trkpt>
      <trkpt lat="41.312815" lon="-3.4022767"><ele>2739</ele><speed>62</speed><time>2016-10-08T14:50:18Z</time><course>38</course><type>18</type></trkpt>
      <trkpt lat="41.3129099" lon="-3.402135"><ele>2737</ele><speed>63</speed><time>2016-10-08T14:50:19Z</time><course>40</course><type>18</type></trkpt>
      <trkpt lat="41.3130383" lon="-3.402"><ele>2736</ele><speed>62</speed><time>2016-10-08T14:50:20Z</time><course>40</course><type>18</type></trkpt>
      <trkpt lat="41.31312" lon="-3.4018567"><ele>2734</ele><speed>60</speed><time>2016-10-08T14:50:21Z</time><course>40</course><type>18</type></trkpt>
      <trkpt lat="41.31324" lon="-3.401825"><ele>2733</ele><speed>53</speed><time>2016-10-08T14:50:22Z</time><course>38</course><type>18</type></trkpt>
      <trkpt lat="41.313345" lon="-3.4018267"><ele>2732</ele><speed>45</speed><time>2016-10-08T14:50:23Z</time><course>34</course><type>18</type></trkpt>
      <trkpt lat="41.3134483" lon="-3.40184"><ele>2731</ele><speed>41</speed><time>2016-10-08T14:50:24Z</time><course>27</course><type>18</type></trkpt>
      <trkpt lat="41.3135833" lon="-3.4018417"><ele>2730</ele><speed>49</speed><time>2016-10-08T14:50:25Z</time><course>24</course><type>18</type></trkpt>
      <trkpt lat="41.31368" lon="-3.4017484"><ele>2729</ele><speed>52</speed><time>2016-10-08T14:50:26Z</time><course>29</course><type>18</type></trkpt>
      <trkpt lat="41.3137483" lon="-3.4016484"><ele>2727</ele><speed>52</speed><time>2016-10-08T14:50:27Z</time><course>35</course><type>18</type></trkpt>
      <trkpt lat="41.3138316" lon="-3.401575"><ele>2725</ele><speed>52</speed><time>2016-10-08T14:50:28Z</time><course>36</course><type>18</type></trkpt>
      <trkpt lat="41.3138733" lon="-3.4014467"><ele>2723</ele><speed>51</speed><time>2016-10-08T14:50:29Z</time><course>40</course><type>18</type></trkpt>
      <trkpt lat="41.3139866" lon="-3.4013834"><ele>2722</ele><speed>50</speed><time>2016-10-08T14:50:30Z</time><course>42</course><type>18</type></trkpt>
      <trkpt lat="41.3140866" lon="-3.4012967"><ele>2721</ele><speed>49</speed><time>2016-10-08T14:50:31Z</time><course>44</course><type>18</type></trkpt>
      <trkpt lat="41.3141866" lon="-3.4012067"><ele>2720</ele><speed>49</speed><time>2016-10-08T14:50:32Z</time><course>43</course><type>18</type></trkpt>
      <trkpt lat="41.3142933" lon="-3.4011167"><ele>2719</ele><speed>49</speed><time>2016-10-08T14:50:33Z</time><course>42</course><type>18</type></trkpt>
      <trkpt lat="41.314395" lon="-3.4010317"><ele>2718</ele><speed>49</speed><time>2016-10-08T14:50:34Z</time><course>43</course><type>18</type></trkpt>
      <trkpt lat="41.3145016" lon="-3.4009184"><ele>2717</ele><speed>63</speed><time>2016-10-08T14:50:35Z</time><course>47</course><type>18</type></trkpt>
      <trkpt lat="41.31462" lon="-3.4007817"><ele>2716</ele><speed>67</speed><time>2016-10-08T14:50:36Z</time><course>46</course><type>18</type></trkpt>
      <trkpt lat="41.3147416" lon="-3.4006417"><ele>2716</ele><speed>66</speed><time>2016-10-08T14:50:37Z</time><course>46</course><type>18</type></trkpt>
      <trkpt lat="41.3148566" lon="-3.4005267"><ele>2715</ele><speed>62</speed><time>2016-10-08T14:50:38Z</time><course>45</course><type>18</type></trkpt>
      <trkpt lat="41.31495" lon="-3.4004367"><ele>2714</ele><speed>55</speed><time>2016-10-08T14:50:39Z</time><course>44</course><type>18</type></trkpt>
      <trkpt lat="41.3150616" lon="-3.4003384"><ele>2714</ele><speed>53</speed><time>2016-10-08T14:50:40Z</time><course>42</course><type>18</type></trkpt>
      <trkpt lat="41.3151683" lon="-3.4002584"><ele>2714</ele><speed>50</speed><time>2016-10-08T14:50:41Z</time><course>41</course><type>18</type></trkpt>
      <trkpt lat="41.3152616" lon="-3.400185"><ele>2714</ele><speed>48</speed><time>2016-10-08T14:50:42Z</time><course>40</course><type>18</type></trkpt>
      <trkpt lat="41.3153216" lon="-3.400005"><ele>2712</ele><speed>45</speed><time>2016-10-08T14:50:44Z</time><course>43</course><type>18</type></trkpt>
      <trkpt lat="41.3153933" lon="-3.3999134"><ele>2712</ele><speed>46</speed><time>2016-10-08T14:50:45Z</time><course>42</course><type>18</type></trkpt>
      <trkpt lat="41.3154733" lon="-3.3998117"><ele>2711</ele><speed>48</speed><time>2016-10-08T14:50:46Z</time><course>41</course><type>18</type></trkpt>
      <trkpt lat="41.3155616" lon="-3.3997117"><ele>2710</ele><speed>49</speed><time>2016-10-08T14:50:47Z</time><course>40</course><type>18</type></trkpt>
      <trkpt lat="41.31565" lon="-3.39961"><ele>2709</ele><speed>49</speed><time>2016-10-08T14:50:48Z</time><course>40</course><type>18</type></trkpt>
      <trkpt lat="41.31573" lon="-3.3995117"><ele>2709</ele><speed>47</speed><time>2016-10-08T14:50:49Z</time><course>40</course><type>18</type></trkpt>
      <trkpt lat="41.3158133" lon="-3.3994234"><ele>2708</ele><speed>46</speed><time>2016-10-08T14:50:50Z</time><course>39</course><type>18</type></trkpt>
      <trkpt lat="41.3158733" lon="-3.3993267"><ele>2708</ele><speed>43</speed><time>2016-10-08T14:50:51Z</time><course>41</course><type>18</type></trkpt>
      <trkpt lat="41.3159583" lon="-3.3992167"><ele>2707</ele><speed>54</speed><time>2016-10-08T14:50:52Z</time><course>40</course><type>18</type></trkpt>
      <trkpt lat="41.31603" lon="-3.3990984"><ele>2706</ele><speed>53</speed><time>2016-10-08T14:50:53Z</time><course>41</course><type>18</type></trkpt>
      <trkpt lat="41.31613" lon="-3.3989984"><ele>2705</ele><speed>52</speed><time>2016-10-08T14:50:54Z</time><course>39</course><type>18</type></trkpt>
      <trkpt lat="41.3162333" lon="-3.3989"><ele>2704</ele><speed>52</speed><time>2016-10-08T14:50:55Z</time><course>37</course><type>18</type></trkpt>
      <trkpt lat="41.316365" lon="-3.3988184"><ele>2704</ele><speed>57</speed><time>2016-10-08T14:50:56Z</time><course>34</course><type>18</type></trkpt>
      <trkpt lat="41.31649" lon="-3.398775"><ele>2704</ele><speed>54</speed><time>2016-10-08T14:50:57Z</time><course>32</course><type>18</type></trkpt>
      <trkpt lat="41.3166166" lon="-3.398755"><ele>2703</ele><speed>51</speed><time>2016-10-08T14:50:58Z</time><course>29</course><type>18</type></trkpt>
      <trkpt lat="41.3165233" lon="-3.3983834"><ele>2701</ele><speed>45</speed><time>2016-10-08T14:50:59Z</time><course>41</course><type>18</type></trkpt>
      <trkpt lat="41.3166766" lon="-3.39849"><ele>2699</ele><speed>36</speed><time>2016-10-08T14:51:01Z</time><course>35</course><type>18</type></trkpt>
      <trkpt lat="41.3168066" lon="-3.3984484"><ele>2699</ele><speed>33</speed><time>2016-10-08T14:51:03Z</time><course>31</course><type>18</type></trkpt>
      <trkpt lat="41.3169366" lon="-3.3982967"><ele>2697</ele><speed>36</speed><time>2016-10-08T14:51:06Z</time><course>35</course><type>18</type></trkpt>
      <trkpt lat="41.3170466" lon="-3.3981534"><ele>2696</ele><speed>36</speed><time>2016-10-08T14:51:08Z</time><course>39</course><type>18</type></trkpt>
      <trkpt lat="41.3171433" lon="-3.3979734"><ele>2694</ele><speed>33</speed><time>2016-10-08T14:51:10Z</time><course>44</course><type>18</type></trkpt>
      <trkpt lat="41.3172816" lon="-3.3977917"><ele>2693</ele><speed>37</speed><time>2016-10-08T14:51:12Z</time><course>42</course><type>18</type></trkpt>
      <trkpt lat="41.3174533" lon="-3.397605"><ele>2693</ele><speed>39</speed><time>2016-10-08T14:51:14Z</time><course>38</course><type>18</type></trkpt>
      <trkpt lat="41.3175916" lon="-3.3975"><ele>2693</ele><speed>47</speed><time>2016-10-08T14:51:15Z</time><course>35</course><type>18</type></trkpt>
      <trkpt lat="41.3177066" lon="-3.397435"><ele>2693</ele><speed>47</speed><time>2016-10-08T14:51:16Z</time><course>34</course><type>18</type></trkpt>
      <trkpt lat="41.3178766" lon="-3.3972834"><ele>2694</ele><speed>42</speed><time>2016-10-08T14:51:18Z</time><course>36</course><type>18</type></trkpt>
      <trkpt lat="41.3180316" lon="-3.397145"><ele>2693</ele><speed>43</speed><time>2016-10-08T14:51:20Z</time><course>47</course><type>18</type></trkpt>
      <trkpt lat="41.3171433" lon="-3.3957384"><ele>2687</ele><speed>48</speed><time>2016-10-08T14:51:22Z</time><course>101</course><type>18</type></trkpt>
      <trkpt lat="41.3170166" lon="-3.395615"><ele>2683</ele><speed>45</speed><time>2016-10-08T14:51:23Z</time><course>106</course><type>18</type></trkpt>
      <trkpt lat="41.3168833" lon="-3.395445"><ele>2679</ele><speed>44</speed><time>2016-10-08T14:51:24Z</time><course>113</course><type>18</type></trkpt>
      <trkpt lat="41.3167316" lon="-3.3953084"><ele>2677</ele><speed>45</speed><time>2016-10-08T14:51:25Z</time><course>130</course><type>18</type></trkpt>
      <trkpt lat="41.3165533" lon="-3.3951384"><ele>2674</ele><speed>46</speed><time>2016-10-08T14:51:26Z</time><course>135</course><type>18</type></trkpt>
      <trkpt lat="41.316395" lon="-3.3950101"><ele>2671</ele><speed>46</speed><time>2016-10-08T14:51:27Z</time><course>140</course><type>18</type></trkpt>
      <trkpt lat="41.3162633" lon="-3.394935"><ele>2670</ele><speed>44</speed><time>2016-10-08T14:51:28Z</time><course>146</course><type>18</type></trkpt>
      <trkpt lat="41.31616" lon="-3.39488"><ele>2669</ele><speed>42</speed><time>2016-10-08T14:51:29Z</time><course>146</course><type>18</type></trkpt>
      <trkpt lat="41.3159583" lon="-3.394725"><ele>2665</ele><speed>41</speed><time>2016-10-08T14:51:30Z</time><course>145</course><type>18</type></trkpt>
      <trkpt lat="41.3157733" lon="-3.3945967"><ele>2663</ele><speed>36</speed><time>2016-10-08T14:51:31Z</time><course>149</course><type>18</type></trkpt>
      <trkpt lat="41.3156416" lon="-3.3945167"><ele>2661</ele><speed>31</speed><time>2016-10-08T14:51:32Z</time><course>156</course><type>18</type></trkpt>
      <trkpt lat="41.3155416" lon="-3.3944334"><ele>2660</ele><speed>23</speed><time>2016-10-08T14:51:33Z</time><course>155</course><type>18</type></trkpt>
      <trkpt lat="41.3154566" lon="-3.3943734"><ele>2659</ele><speed>17</speed><time>2016-10-08T14:51:34Z</time><course>152</course><type>18</type></trkpt>
      <trkpt lat="41.3153816" lon="-3.394305"><ele>2656</ele><speed>7</speed><time>2016-10-08T14:51:37Z</time><course>127</course><type>18</type></trkpt>
      <trkpt lat="41.315455" lon="-3.3943817"><ele>2651</ele><speed>11</speed><time>2016-10-08T14:51:43Z</time><course>325</course><type>18</type></trkpt>
      <trkpt lat="41.3155266" lon="-3.394455"><ele>2650</ele><speed>14</speed><time>2016-10-08T14:51:45Z</time><course>328</course><type>18</type></trkpt>
      <trkpt lat="41.3156133" lon="-3.3945417"><ele>2648</ele><speed>14</speed><time>2016-10-08T14:51:48Z</time><course>322</course><type>18</type></trkpt>
      <trkpt lat="41.31572" lon="-3.394625"><ele>2645</ele><speed>15</speed><time>2016-10-08T14:51:51Z</time><course>329</course><type>18</type></trkpt>
      <trkpt lat="41.3159783" lon="-3.39459"><ele>2643</ele><speed>19</speed><time>2016-10-08T14:51:54Z</time><course>1</course><type>18</type></trkpt>
      <trkpt lat="41.3161066" lon="-3.3945184"><ele>2641</ele><speed>22</speed><time>2016-10-08T14:51:56Z</time><course>12</course><type>18</type></trkpt>
      <trkpt lat="41.3162466" lon="-3.3944317"><ele>2640</ele><speed>25</speed><time>2016-10-08T14:51:58Z</time><course>21</course><type>18</type></trkpt>
      <trkpt lat="41.31635" lon="-3.3943684"><ele>2639</ele><speed>26</speed><time>2016-10-08T14:52:00Z</time><course>23</course><type>18</type></trkpt>
      <trkpt lat="41.316495" lon="-3.394255"><ele>2636</ele><speed>24</speed><time>2016-10-08T14:52:03Z</time><course>29</course><type>18</type></trkpt>
      <trkpt lat="41.31659" lon="-3.3941234"><ele>2635</ele><speed>24</speed><time>2016-10-08T14:52:05Z</time><course>35</course><type>18</type></trkpt>
      <trkpt lat="41.316725" lon="-3.3940017"><ele>2634</ele><speed>27</speed><time>2016-10-08T14:52:07Z</time><course>31</course><type>18</type></trkpt>
      <trkpt lat="41.3168816" lon="-3.3939084"><ele>2633</ele><speed>28</speed><time>2016-10-08T14:52:09Z</time><course>24</course><type>18</type></trkpt>
      <trkpt lat="41.3170516" lon="-3.3938467"><ele>2632</ele><speed>30</speed><time>2016-10-08T14:52:11Z</time><course>18</course><type>18</type></trkpt>
      <trkpt lat="41.31727" lon="-3.393825"><ele>2630</ele><speed>32</speed><time>2016-10-08T14:52:13Z</time><course>12</course><type>18</type></trkpt>
      <trkpt lat="41.317485" lon="-3.393735"><ele>2629</ele><speed>31</speed><time>2016-10-08T14:52:15Z</time><course>12</course><type>18</type></trkpt>
      <trkpt lat="41.3176016" lon="-3.3936834"><ele>2628</ele><speed>32</speed><time>2016-10-08T14:52:16Z</time><course>11</course><type>18</type></trkpt>
      <trkpt lat="41.3177116" lon="-3.39364"><ele>2628</ele><speed>31</speed><time>2016-10-08T14:52:17Z</time><course>10</course><type>18</type></trkpt>
      <trkpt lat="41.3178233" lon="-3.39361"><ele>2627</ele><speed>32</speed><time>2016-10-08T14:52:18Z</time><course>8</course><type>18</type></trkpt>
      <trkpt lat="41.3179983" lon="-3.393585"><ele>2625</ele><speed>30</speed><time>2016-10-08T14:52:20Z</time><course>5</course><type>18</type></trkpt>
      <trkpt lat="41.3181266" lon="-3.3935267"><ele>2624</ele><speed>28</speed><time>2016-10-08T14:52:22Z</time><course>10</course><type>18</type></trkpt>
      <trkpt lat="41.31828" lon="-3.3934484"><ele>2623</ele><speed>28</speed><time>2016-10-08T14:52:24Z</time><course>15</course><type>18</type></trkpt>
      <trkpt lat="41.3184616" lon="-3.3933617"><ele>2623</ele><speed>31</speed><time>2016-10-08T14:52:26Z</time><course>18</course><type>18</type></trkpt>
      <trkpt lat="41.3186583" lon="-3.39323"><ele>2622</ele><speed>36</speed><time>2016-10-08T14:52:28Z</time><course>22</course><type>18</type></trkpt>
      <trkpt lat="41.3187649" lon="-3.393155"><ele>2621</ele><speed>38</speed><time>2016-10-08T14:52:29Z</time><course>23</course><type>18</type></trkpt>
      <trkpt lat="41.3188666" lon="-3.3930834"><ele>2621</ele><speed>39</speed><time>2016-10-08T14:52:30Z</time><course>24</course><type>18</type></trkpt>
      <trkpt lat="41.31898" lon="-3.3929884"><ele>2620</ele><speed>40</speed><time>2016-10-08T14:52:31Z</time><course>27</course><type>18</type></trkpt>
      <trkpt lat="41.319085" lon="-3.3929017"><ele>2620</ele><speed>42</speed><time>2016-10-08T14:52:32Z</time><course>29</course><type>18</type></trkpt>
      <trkpt lat="41.3191833" lon="-3.3928067"><ele>2619</ele><speed>43</speed><time>2016-10-08T14:52:33Z</time><course>32</course><type>18</type></trkpt>
      <trkpt lat="41.3192966" lon="-3.3927234"><ele>2618</ele><speed>42</speed><time>2016-10-08T14:52:34Z</time><course>28</course><type>18</type></trkpt>
      <trkpt lat="41.3193916" lon="-3.3926434"><ele>2618</ele><speed>39</speed><time>2016-10-08T14:52:35Z</time><course>30</course><type>18</type></trkpt>
      <trkpt lat="41.3195749" lon="-3.3924884"><ele>2616</ele><speed>39</speed><time>2016-10-08T14:52:37Z</time><course>32</course><type>18</type></trkpt>
      <trkpt lat="41.3197416" lon="-3.3923667"><ele>2615</ele><speed>37</speed><time>2016-10-08T14:52:39Z</time><course>30</course><type>18</type></trkpt>
      <trkpt lat="41.319865" lon="-3.3922"><ele>2614</ele><speed>35</speed><time>2016-10-08T14:52:41Z</time><course>38</course><type>18</type></trkpt>
      <trkpt lat="41.3199783" lon="-3.3920017"><ele>2613</ele><speed>37</speed><time>2016-10-08T14:52:43Z</time><course>46</course><type>18</type></trkpt>
      <trkpt lat="41.3200766" lon="-3.391785"><ele>2612</ele><speed>38</speed><time>2016-10-08T14:52:45Z</time><course>52</course><type>18</type></trkpt>
      <trkpt lat="41.3201733" lon="-3.3915467"><ele>2611</ele><speed>39</speed><time>2016-10-08T14:52:47Z</time><course>57</course><type>18</type></trkpt>
      <trkpt lat="41.3202633" lon="-3.3913217"><ele>2609</ele><speed>38</speed><time>2016-10-08T14:52:49Z</time><course>59</course><type>18</type></trkpt>
      <trkpt lat="41.3203616" lon="-3.391095"><ele>2609</ele><speed>36</speed><time>2016-10-08T14:52:51Z</time><course>61</course><type>18</type></trkpt>
      <trkpt lat="41.3204166" lon="-3.3908367"><ele>2608</ele><speed>35</speed><time>2016-10-08T14:52:53Z</time><course>65</course><type>18</type></trkpt>
      <trkpt lat="41.3203966" lon="-3.3905434"><ele>2607</ele><speed>35</speed><time>2016-10-08T14:52:55Z</time><course>72</course><type>18</type></trkpt>
      <trkpt lat="41.3203883" lon="-3.390315"><ele>2606</ele><speed>33</speed><time>2016-10-08T14:52:57Z</time><course>76</course><type>18</type></trkpt>
      <trkpt lat="41.32029" lon="-3.39008"><ele>2605</ele><speed>30</speed><time>2016-10-08T14:52:59Z</time><course>80</course><type>18</type></trkpt>
      <trkpt lat="41.32019" lon="-3.390245"><ele>2601</ele><speed>5</speed><time>2016-10-08T14:53:05Z</time><course>79</course><type>18</type></trkpt>
      <trkpt lat="41.3200433" lon="-3.3903934"><ele>2600</ele><speed>0</speed><time>2016-10-08T14:53:06Z</time><course>79</course><type>18</type></trkpt>
      <trkpt lat="41.3200333" lon="-3.3906334"><ele>2600</ele><speed>26</speed><time>2016-10-08T14:53:07Z</time><course>310</course><type>18</type></trkpt>
      <trkpt lat="41.320045" lon="-3.3908317"><ele>2600</ele><speed>27</speed><time>2016-10-08T14:53:09Z</time><course>309</course><type>18</type></trkpt>
      <trkpt lat="41.3200833" lon="-3.39101"><ele>2599</ele><speed>26</speed><time>2016-10-08T14:53:11Z</time><course>306</course><type>18</type></trkpt>
      <trkpt lat="41.3201316" lon="-3.391155"><ele>2599</ele><speed>25</speed><time>2016-10-08T14:53:13Z</time><course>306</course><type>18</type></trkpt>
      <trkpt lat="41.3202" lon="-3.3912884"><ele>2598</ele><speed>17</speed><time>2016-10-08T14:53:17Z</time><course>318</course><type>18</type></trkpt>
      <trkpt lat="41.3200783" lon="-3.3917767"><ele>2596</ele><speed>15</speed><time>2016-10-08T14:53:20Z</time><course>322</course><type>18</type></trkpt>
      <trkpt lat="41.31987" lon="-3.391865"><ele>2596</ele><speed>14</speed><time>2016-10-08T14:53:22Z</time><course>328</course><type>18</type></trkpt>
      <trkpt lat="41.3199516" lon="-3.39168"><ele>2595</ele><speed>24</speed><time>2016-10-08T14:53:25Z</time><course>345</course><type>18</type></trkpt>
      <trkpt lat="41.3201149" lon="-3.391645"><ele>2595</ele><speed>27</speed><time>2016-10-08T14:53:27Z</time><course>356</course><type>18</type></trkpt>
      <trkpt lat="41.320275" lon="-3.3916317"><ele>2595</ele><speed>28</speed><time>2016-10-08T14:53:29Z</time><course>359</course><type>18</type></trkpt>
      <trkpt lat="41.3203933" lon="-3.3916517"><ele>2594</ele><speed>25</speed><time>2016-10-08T14:53:31Z</time><course>355</course><type>18</type></trkpt>
      <trkpt lat="41.3208566" lon="-3.391685"><ele>2593</ele><speed>30</speed><time>2016-10-08T14:53:33Z</time><course>1</course><type>18</type></trkpt>
      <trkpt lat="41.3215383" lon="-3.391705"><ele>2593</ele><speed>34</speed><time>2016-10-08T14:53:34Z</time><course>5</course><type>18</type></trkpt>
      <trkpt lat="41.321995" lon="-3.3917334"><ele>2592</ele><speed>35</speed><time>2016-10-08T14:53:35Z</time><course>6</course><type>18</type></trkpt>
      <trkpt lat="41.322325" lon="-3.3917884"><ele>2592</ele><speed>35</speed><time>2016-10-08T14:53:36Z</time><course>5</course><type>18</type></trkpt>
      <trkpt lat="41.322565" lon="-3.3918884"><ele>2592</ele><speed>35</speed><time>2016-10-08T14:53:37Z</time><course>5</course><type>18</type></trkpt>
      <trkpt lat="41.3227483" lon="-3.391935"><ele>2591</ele><speed>33</speed><time>2016-10-08T14:53:39Z</time><course>1</course><type>18</type></trkpt>
      <trkpt lat="41.322945" lon="-3.39198"><ele>2591</ele><speed>33</speed><time>2016-10-08T14:53:41Z</time><course>357</course><type>18</type></trkpt>
      <trkpt lat="41.3231233" lon="-3.39209"><ele>2590</ele><speed>33</speed><time>2016-10-08T14:53:43Z</time><course>353</course><type>18</type></trkpt>
      <trkpt lat="41.32336" lon="-3.3921684"><ele>2589</ele><speed>37</speed><time>2016-10-08T14:53:45Z</time><course>352</course><type>18</type></trkpt>
      <trkpt lat="41.3234933" lon="-3.3922"><ele>2589</ele><speed>39</speed><time>2016-10-08T14:53:46Z</time><course>353</course><type>18</type></trkpt>
      <trkpt lat="41.3237266" lon="-3.3921934"><ele>2589</ele><speed>39</speed><time>2016-10-08T14:53:48Z</time><course>358</course><type>18</type></trkpt>
      <trkpt lat="41.3239033" lon="-3.3922317"><ele>2589</ele><speed>35</speed><time>2016-10-08T14:53:50Z</time><course>357</course><type>18</type></trkpt>
      <trkpt lat="41.3240583" lon="-3.3921817"><ele>2588</ele><speed>33</speed><time>2016-10-08T14:53:52Z</time><course>353</course><type>18</type></trkpt>
      <trkpt lat="41.3240016" lon="-3.3920167"><ele>2587</ele><speed>31</speed><time>2016-10-08T14:53:53Z</time><course>354</course><type>18</type></trkpt>
      <trkpt lat="41.3239383" lon="-3.3918367"><ele>2585</ele><speed>23</speed><time>2016-10-08T14:53:56Z</time><course>351</course><type>18</type></trkpt>
      <trkpt lat="41.3237" lon="-3.39171"><ele>2584</ele><speed>14</speed><time>2016-10-08T14:53:57Z</time><course>341</course><type>18</type></trkpt>
      <trkpt lat="41.323585" lon="-3.3917967"><ele>2583</ele><speed>11</speed><time>2016-10-08T14:53:58Z</time><course>315</course><type>18</type></trkpt>
      <trkpt lat="41.32349" lon="-3.3918617"><ele>2583</ele><speed>10</speed><time>2016-10-08T14:53:59Z</time><course>297</course><type>18</type></trkpt>
      <trkpt lat="41.3234233" lon="-3.3919684"><ele>2582</ele><speed>12</speed><time>2016-10-08T14:54:00Z</time><course>276</course><type>18</type></trkpt>
      <trkpt lat="41.3229833" lon="-3.3919484"><ele>2580</ele><speed>19</speed><time>2016-10-08T14:54:01Z</time><course>229</course><type>18</type></trkpt>
      <trkpt lat="41.3226333" lon="-3.3919767"><ele>2578</ele><speed>27</speed><time>2016-10-08T14:54:02Z</time><course>220</course><type>18</type></trkpt>
      <trkpt lat="41.3224416" lon="-3.3919967"><ele>2577</ele><speed>30</speed><time>2016-10-08T14:54:03Z</time><course>214</course><type>18</type></trkpt>
      <trkpt lat="41.3217533" lon="-3.392025"><ele>2574</ele><speed>47</speed><time>2016-10-08T14:54:04Z</time><course>208</course><type>18</type></trkpt>
      <trkpt lat="41.3214866" lon="-3.3920784"><ele>2573</ele><speed>41</speed><time>2016-10-08T14:54:05Z</time><course>195</course><type>18</type></trkpt>
      <trkpt lat="41.3213216" lon="-3.3921184"><ele>2572</ele><speed>39</speed><time>2016-10-08T14:54:06Z</time><course>194</course><type>18</type></trkpt>
      <trkpt lat="41.321245" lon="-3.3920517"><ele>2570</ele><speed>36</speed><time>2016-10-08T14:54:07Z</time><course>175</course><type>18</type></trkpt>
      <trkpt lat="41.3211466" lon="-3.3919767"><ele>2570</ele><speed>35</speed><time>2016-10-08T14:54:08Z</time><course>166</course><type>18</type></trkpt>
      <trkpt lat="41.3210849" lon="-3.39184"><ele>2569</ele><speed>32</speed><time>2016-10-08T14:54:09Z</time><course>159</course><type>18</type></trkpt>
      <trkpt lat="41.3210233" lon="-3.3917134"><ele>2568</ele><speed>32</speed><time>2016-10-08T14:54:10Z</time><course>152</course><type>18</type></trkpt>
      <trkpt lat="41.3210266" lon="-3.3914884"><ele>2567</ele><speed>31</speed><time>2016-10-08T14:54:11Z</time><course>138</course><type>18</type></trkpt>
      <trkpt lat="41.320985" lon="-3.3911684"><ele>2566</ele><speed>36</speed><time>2016-10-08T14:54:12Z</time><course>125</course><type>18</type></trkpt>
      <trkpt lat="41.3209483" lon="-3.39081"><ele>2565</ele><speed>41</speed><time>2016-10-08T14:54:13Z</time><course>114</course><type>18</type></trkpt>
      <trkpt lat="41.3209483" lon="-3.390375"><ele>2564</ele><speed>55</speed><time>2016-10-08T14:54:14Z</time><course>96</course><type>18</type></trkpt>
      <trkpt lat="41.3210333" lon="-3.39011"><ele>2562</ele><speed>65</speed><time>2016-10-08T14:54:15Z</time><course>86</course><type>18</type></trkpt>
      <trkpt lat="41.32164" lon="-3.3898134"><ele>2558</ele><speed>56</speed><time>2016-10-08T14:54:16Z</time><course>80</course><type>18</type></trkpt>
      <trkpt lat="41.32189" lon="-3.3898384"><ele>2556</ele><speed>51</speed><time>2016-10-08T14:54:17Z</time><course>87</course><type>18</type></trkpt>
      <trkpt lat="41.3218866" lon="-3.3895767"><ele>2554</ele><speed>45</speed><time>2016-10-08T14:54:19Z</time><course>90</course><type>18</type></trkpt>
      <trkpt lat="41.3219383" lon="-3.389415"><ele>2552</ele><speed>42</speed><time>2016-10-08T14:54:21Z</time><course>89</course><type>18</type></trkpt>
      <trkpt lat="41.3220183" lon="-3.3892934"><ele>2552</ele><speed>42</speed><time>2016-10-08T14:54:22Z</time><course>86</course><type>18</type></trkpt>
      <trkpt lat="41.322015" lon="-3.3890551"><ele>2550</ele><speed>38</speed><time>2016-10-08T14:54:24Z</time><course>94</course><type>18</type></trkpt>
      <trkpt lat="41.3219766" lon="-3.388945"><ele>2549</ele><speed>38</speed><time>2016-10-08T14:54:25Z</time><course>100</course><type>18</type></trkpt>
      <trkpt lat="41.3219266" lon="-3.3888017"><ele>2547</ele><speed>40</speed><time>2016-10-08T14:54:26Z</time><course>106</course><type>18</type></trkpt>
      <trkpt lat="41.321835" lon="-3.38853"><ele>2545</ele><speed>43</speed><time>2016-10-08T14:54:27Z</time><course>113</course><type>18</type></trkpt>
      <trkpt lat="41.3217166" lon="-3.388405"><ele>2542</ele><speed>46</speed><time>2016-10-08T14:54:28Z</time><course>125</course><type>18</type></trkpt>
      <trkpt lat="41.3215816" lon="-3.3882934"><ele>2540</ele><speed>46</speed><time>2016-10-08T14:54:29Z</time><course>130</course><type>18</type></trkpt>
      <trkpt lat="41.321465" lon="-3.3882067"><ele>2538</ele><speed>45</speed><time>2016-10-08T14:54:30Z</time><course>132</course><type>18</type></trkpt>
      <trkpt lat="41.3213666" lon="-3.3881217"><ele>2537</ele><speed>41</speed><time>2016-10-08T14:54:31Z</time><course>133</course><type>18</type></trkpt>
      <trkpt lat="41.32124" lon="-3.388055"><ele>2535</ele><speed>41</speed><time>2016-10-08T14:54:32Z</time><course>137</course><type>18</type></trkpt>
      <trkpt lat="41.3211283" lon="-3.3880217"><ele>2534</ele><speed>40</speed><time>2016-10-08T14:54:33Z</time><course>143</course><type>18</type></trkpt>
      <trkpt lat="41.3210483" lon="-3.38801"><ele>2534</ele><speed>38</speed><time>2016-10-08T14:54:34Z</time><course>148</course><type>18</type></trkpt>
      <trkpt lat="41.3209733" lon="-3.38815"><ele>2531</ele><speed>28</speed><time>2016-10-08T14:54:36Z</time><course>166</course><type>18</type></trkpt>
      <trkpt lat="41.320985" lon="-3.3883084"><ele>2530</ele><speed>22</speed><time>2016-10-08T14:54:37Z</time><course>190</course><type>18</type></trkpt>
      <trkpt lat="41.32096" lon="-3.3884251"><ele>2529</ele><speed>22</speed><time>2016-10-08T14:54:38Z</time><course>201</course><type>18</type></trkpt>
      <trkpt lat="41.3209483" lon="-3.388595"><ele>2527</ele><speed>17</speed><time>2016-10-08T14:54:40Z</time><course>226</course><type>18</type></trkpt>
      <trkpt lat="41.3210466" lon="-3.3887584"><ele>2525</ele><speed>14</speed><time>2016-10-08T14:54:42Z</time><course>270</course><type>18</type></trkpt>
      <trkpt lat="41.32116" lon="-3.38888"><ele>2523</ele><speed>16</speed><time>2016-10-08T14:54:44Z</time><course>292</course><type>18</type></trkpt>
      <trkpt lat="41.3212866" lon="-3.3889167"><ele>2522</ele><speed>10</speed><time>2016-10-08T14:54:46Z</time><course>313</course><type>18</type></trkpt>
      <trkpt lat="41.32143" lon="-3.3888484"><ele>2521</ele><speed>13</speed><time>2016-10-08T14:54:47Z</time><course>352</course><type>18</type></trkpt>
      <trkpt lat="41.3215733" lon="-3.3887867"><ele>2520</ele><speed>19</speed><time>2016-10-08T14:54:48Z</time><course>9</course><type>18</type></trkpt>
      <trkpt lat="41.3217666" lon="-3.3886884"><ele>2519</ele><speed>28</speed><time>2016-10-08T14:54:49Z</time><course>19</course><type>18</type></trkpt>
      <trkpt lat="41.321975" lon="-3.388625"><ele>2518</ele><speed>36</speed><time>2016-10-08T14:54:50Z</time><course>21</course><type>18</type></trkpt>
      <trkpt lat="41.3221783" lon="-3.3885817"><ele>2517</ele><speed>42</speed><time>2016-10-08T14:54:51Z</time><course>16</course><type>18</type></trkpt>
      <trkpt lat="41.32238" lon="-3.3885234"><ele>2516</ele><speed>54</speed><time>2016-10-08T14:54:52Z</time><course>18</course><type>18</type></trkpt>
      <trkpt lat="41.3225216" lon="-3.3884817"><ele>2515</ele><speed>53</speed><time>2016-10-08T14:54:53Z</time><course>17</course><type>18</type></trkpt>
      <trkpt lat="41.3226716" lon="-3.3884217"><ele>2515</ele><speed>54</speed><time>2016-10-08T14:54:54Z</time><course>17</course><type>18</type></trkpt>
      <trkpt lat="41.3227916" lon="-3.3883817"><ele>2514</ele><speed>53</speed><time>2016-10-08T14:54:55Z</time><course>16</course><type>18</type></trkpt>
      <trkpt lat="41.322925" lon="-3.3883834"><ele>2514</ele><speed>51</speed><time>2016-10-08T14:54:56Z</time><course>13</course><type>18</type></trkpt>
      <trkpt lat="41.3230316" lon="-3.3884317"><ele>2513</ele><speed>42</speed><time>2016-10-08T14:54:57Z</time><course>4</course><type>18</type></trkpt>
      <trkpt lat="41.3231666" lon="-3.3884184"><ele>2512</ele><speed>45</speed><time>2016-10-08T14:54:58Z</time><course>7</course><type>18</type></trkpt>
      <trkpt lat="41.3233483" lon="-3.388435"><ele>2512</ele><speed>49</speed><time>2016-10-08T14:54:59Z</time><course>7</course><type>18</type></trkpt>
      <trkpt lat="41.3234816" lon="-3.3884134"><ele>2511</ele><speed>48</speed><time>2016-10-08T14:55:00Z</time><course>8</course><type>18</type></trkpt>
      <trkpt lat="41.3236399" lon="-3.38836"><ele>2510</ele><speed>46</speed><time>2016-10-08T14:55:01Z</time><course>12</course><type>18</type></trkpt>
      <trkpt lat="41.323815" lon="-3.3883434"><ele>2509</ele><speed>43</speed><time>2016-10-08T14:55:02Z</time><course>18</course><type>18</type></trkpt>
      <trkpt lat="41.323915" lon="-3.38827"><ele>2509</ele><speed>42</speed><time>2016-10-08T14:55:03Z</time><course>20</course><type>18</type></trkpt>
      <trkpt lat="41.32403" lon="-3.388195"><ele>2508</ele><speed>46</speed><time>2016-10-08T14:55:04Z</time><course>21</course><type>18</type></trkpt>
      <trkpt lat="41.3241516" lon="-3.3881067"><ele>2508</ele><speed>49</speed><time>2016-10-08T14:55:05Z</time><course>22</course><type>18</type></trkpt>
      <trkpt lat="41.3242666" lon="-3.3880184"><ele>2507</ele><speed>50</speed><time>2016-10-08T14:55:06Z</time><course>24</course><type>18</type></trkpt>
      <trkpt lat="41.3243883" lon="-3.3879367"><ele>2507</ele><speed>53</speed><time>2016-10-08T14:55:07Z</time><course>25</course><type>18</type></trkpt>
      <trkpt lat="41.324525" lon="-3.3878434"><ele>2506</ele><speed>62</speed><time>2016-10-08T14:55:08Z</time><course>27</course><type>18</type></trkpt>
      <trkpt lat="41.3246383" lon="-3.3877467"><ele>2505</ele><speed>51</speed><time>2016-10-08T14:55:09Z</time><course>27</course><type>18</type></trkpt>
      <trkpt lat="41.3247483" lon="-3.3876617"><ele>2505</ele><speed>51</speed><time>2016-10-08T14:55:10Z</time><course>27</course><type>18</type></trkpt>
      <trkpt lat="41.324845" lon="-3.3875801"><ele>2505</ele><speed>50</speed><time>2016-10-08T14:55:11Z</time><course>28</course><type>18</type></trkpt>
      <trkpt lat="41.3249233" lon="-3.3875134"><ele>2504</ele><speed>46</speed><time>2016-10-08T14:55:12Z</time><course>28</course><type>18</type></trkpt>
      <trkpt lat="41.3250616" lon="-3.38744"><ele>2504</ele><speed>39</speed><time>2016-10-08T14:55:14Z</time><course>24</course><type>18</type></trkpt>
      <trkpt lat="41.3252283" lon="-3.3873334"><ele>2503</ele><speed>38</speed><time>2016-10-08T14:55:16Z</time><course>23</course><type>18</type></trkpt>
      <trkpt lat="41.325415" lon="-3.38723"><ele>2502</ele><speed>43</speed><time>2016-10-08T14:55:18Z</time><course>23</course><type>18</type></trkpt>
      <trkpt lat="41.3255283" lon="-3.38717"><ele>2502</ele><speed>48</speed><time>2016-10-08T14:55:19Z</time><course>24</course><type>18</type></trkpt>
      <trkpt lat="41.3256433" lon="-3.3870967"><ele>2502</ele><speed>51</speed><time>2016-10-08T14:55:20Z</time><course>25</course><type>18</type></trkpt>
      <trkpt lat="41.3257549" lon="-3.387015"><ele>2502</ele><speed>52</speed><time>2016-10-08T14:55:21Z</time><course>26</course><type>18</type></trkpt>
      <trkpt lat="41.3258633" lon="-3.386935"><ele>2501</ele><speed>52</speed><time>2016-10-08T14:55:22Z</time><course>27</course><type>18</type></trkpt>
      <trkpt lat="41.32596" lon="-3.3868467"><ele>2501</ele><speed>50</speed><time>2016-10-08T14:55:23Z</time><course>28</course><type>18</type></trkpt>
      <trkpt lat="41.3260699" lon="-3.3867767"><ele>2500</ele><speed>51</speed><time>2016-10-08T14:55:24Z</time><course>27</course><type>18</type></trkpt>
      <trkpt lat="41.326175" lon="-3.3866334"><ele>2500</ele><speed>64</speed><time>2016-10-08T14:55:25Z</time><course>37</course><type>18</type></trkpt>
      <trkpt lat="41.3263" lon="-3.38654"><ele>2499</ele><speed>44</speed><time>2016-10-08T14:55:26Z</time><course>32</course><type>18</type></trkpt>
      <trkpt lat="41.3264133" lon="-3.3864734"><ele>2498</ele><speed>40</speed><time>2016-10-08T14:55:27Z</time><course>29</course><type>18</type></trkpt>
      <trkpt lat="41.3265183" lon="-3.3863884"><ele>2498</ele><speed>46</speed><time>2016-10-08T14:55:28Z</time><course>35</course><type>18</type></trkpt>
      <trkpt lat="41.326635" lon="-3.3863284"><ele>2497</ele><speed>50</speed><time>2016-10-08T14:55:29Z</time><course>34</course><type>18</type></trkpt>
      <trkpt lat="41.32676" lon="-3.386265"><ele>2496</ele><speed>54</speed><time>2016-10-08T14:55:30Z</time><course>32</course><type>18</type></trkpt>
      <trkpt lat="41.3268866" lon="-3.38617"><ele>2495</ele><speed>58</speed><time>2016-10-08T14:55:31Z</time><course>31</course><type>18</type></trkpt>
      <trkpt lat="41.3270183" lon="-3.3860617"><ele>2495</ele><speed>62</speed><time>2016-10-08T14:55:32Z</time><course>31</course><type>18</type></trkpt>
      <trkpt lat="41.327155" lon="-3.3859517"><ele>2494</ele><speed>64</speed><time>2016-10-08T14:55:33Z</time><course>32</course><type>18</type></trkpt>
      <trkpt lat="41.3272066" lon="-3.3857584"><ele>2493</ele><speed>61</speed><time>2016-10-08T14:55:34Z</time><course>34</course><type>18</type></trkpt>
      <trkpt lat="41.3272749" lon="-3.3856"><ele>2492</ele><speed>55</speed><time>2016-10-08T14:55:35Z</time><course>41</course><type>18</type></trkpt>
      <trkpt lat="41.3273516" lon="-3.3854917"><ele>2491</ele><speed>49</speed><time>2016-10-08T14:55:36Z</time><course>43</course><type>18</type></trkpt>
      <trkpt lat="41.3274099" lon="-3.385395"><ele>2490</ele><speed>46</speed><time>2016-10-08T14:55:37Z</time><course>44</course><type>18</type></trkpt>
      <trkpt lat="41.3275383" lon="-3.3852384"><ele>2488</ele><speed>46</speed><time>2016-10-08T14:55:39Z</time><course>39</course><type>18</type></trkpt>
      <trkpt lat="41.3276116" lon="-3.3851684"><ele>2488</ele><speed>49</speed><time>2016-10-08T14:55:40Z</time><course>36</course><type>18</type></trkpt>
      <trkpt lat="41.3277183" lon="-3.3850867"><ele>2487</ele><speed>57</speed><time>2016-10-08T14:55:41Z</time><course>34</course><type>18</type></trkpt>
      <trkpt lat="41.327795" lon="-3.384965"><ele>2486</ele><speed>62</speed><time>2016-10-08T14:55:42Z</time><course>33</course><type>18</type></trkpt>
      <trkpt lat="41.3279033" lon="-3.3848784"><ele>2485</ele><speed>60</speed><time>2016-10-08T14:55:43Z</time><course>32</course><type>18</type></trkpt>
      <trkpt lat="41.3280116" lon="-3.3847934"><ele>2484</ele><speed>58</speed><time>2016-10-08T14:55:44Z</time><course>30</course><type>18</type></trkpt>
      <trkpt lat="41.328095" lon="-3.3847467"><ele>2484</ele><speed>52</speed><time>2016-10-08T14:55:45Z</time><course>28</course><type>18</type></trkpt>
      <trkpt lat="41.3280666" lon="-3.3846067"><ele>2482</ele><speed>44</speed><time>2016-10-08T14:55:46Z</time><course>30</course><type>18</type></trkpt>
      <trkpt lat="41.32809" lon="-3.3843817"><ele>2479</ele><speed>43</speed><time>2016-10-08T14:55:48Z</time><course>30</course><type>18</type></trkpt>
      <trkpt lat="41.3281816" lon="-3.3843017"><ele>2478</ele><speed>45</speed><time>2016-10-08T14:55:49Z</time><course>33</course><type>18</type></trkpt>
      <trkpt lat="41.3282666" lon="-3.384245"><ele>2477</ele><speed>44</speed><time>2016-10-08T14:55:50Z</time><course>35</course><type>18</type></trkpt>
      <trkpt lat="41.3283383" lon="-3.3841534"><ele>2476</ele><speed>43</speed><time>2016-10-08T14:55:51Z</time><course>42</course><type>18</type></trkpt>
      <trkpt lat="41.32842" lon="-3.3840734"><ele>2475</ele><speed>43</speed><time>2016-10-08T14:55:52Z</time><course>42</course><type>18</type></trkpt>
      <trkpt lat="41.328505" lon="-3.383995"><ele>2474</ele><speed>45</speed><time>2016-10-08T14:55:53Z</time><course>42</course><type>18</type></trkpt>
      <trkpt lat="41.328565" lon="-3.3838767"><ele>2473</ele><speed>44</speed><time>2016-10-08T14:55:54Z</time><course>42</course><type>18</type></trkpt>
      <trkpt lat="41.3285966" lon="-3.3837584"><ele>2471</ele><speed>44</speed><time>2016-10-08T14:55:55Z</time><course>40</course><type>18</type></trkpt>
      <trkpt lat="41.32865" lon="-3.3836534"><ele>2469</ele><speed>44</speed><time>2016-10-08T14:55:56Z</time><course>36</course><type>18</type></trkpt>
      <trkpt lat="41.328735" lon="-3.3835634"><ele>2468</ele><speed>45</speed><time>2016-10-08T14:55:57Z</time><course>36</course><type>18</type></trkpt>
      <trkpt lat="41.32884" lon="-3.3834767"><ele>2467</ele><speed>53</speed><time>2016-10-08T14:55:58Z</time><course>34</course><type>18</type></trkpt>
      <trkpt lat="41.3289566" lon="-3.3833817"><ele>2466</ele><speed>60</speed><time>2016-10-08T14:55:59Z</time><course>34</course><type>18</type></trkpt>
      <trkpt lat="41.3290766" lon="-3.3832734"><ele>2465</ele><speed>59</speed><time>2016-10-08T14:56:00Z</time><course>35</course><type>18</type></trkpt>
      <trkpt lat="41.3291783" lon="-3.3831767"><ele>2464</ele><speed>56</speed><time>2016-10-08T14:56:01Z</time><course>35</course><type>18</type></trkpt>
      <trkpt lat="41.3292983" lon="-3.3830834"><ele>2463</ele><speed>55</speed><time>2016-10-08T14:56:02Z</time><course>34</course><type>18</type></trkpt>
      <trkpt lat="41.329415" lon="-3.383"><ele>2462</ele><speed>54</speed><time>2016-10-08T14:56:03Z</time><course>33</course><type>18</type></trkpt>
      <trkpt lat="41.3295266" lon="-3.3829334"><ele>2461</ele><speed>52</speed><time>2016-10-08T14:56:04Z</time><course>32</course><type>18</type></trkpt>
      <trkpt lat="41.3296283" lon="-3.3829"><ele>2460</ele><speed>49</speed><time>2016-10-08T14:56:05Z</time><course>29</course><type>18</type></trkpt>
      <trkpt lat="41.329735" lon="-3.3827717"><ele>2459</ele><speed>40</speed><time>2016-10-08T14:56:07Z</time><course>31</course><type>18</type></trkpt>
      <trkpt lat="41.32984" lon="-3.38259"><ele>2457</ele><speed>40</speed><time>2016-10-08T14:56:09Z</time><course>36</course><type>18</type></trkpt>
      <trkpt lat="41.3298866" lon="-3.38246"><ele>2456</ele><speed>42</speed><time>2016-10-08T14:56:10Z</time><course>40</course><type>18</type></trkpt>
      <trkpt lat="41.3299383" lon="-3.3823434"><ele>2455</ele><speed>44</speed><time>2016-10-08T14:56:11Z</time><course>42</course><type>18</type></trkpt>
      <trkpt lat="41.3299466" lon="-3.3821367"><ele>2453</ele><speed>50</speed><time>2016-10-08T14:56:13Z</time><course>44</course><type>18</type></trkpt>
      <trkpt lat="41.32999" lon="-3.3820117"><ele>2452</ele><speed>49</speed><time>2016-10-08T14:56:14Z</time><course>47</course><type>18</type></trkpt>
      <trkpt lat="41.3300716" lon="-3.3818867"><ele>2451</ele><speed>57</speed><time>2016-10-08T14:56:15Z</time><course>45</course><type>18</type></trkpt>
      <trkpt lat="41.3301833" lon="-3.3817517"><ele>2450</ele><speed>64</speed><time>2016-10-08T14:56:16Z</time><course>44</course><type>18</type></trkpt>
      <trkpt lat="41.3302866" lon="-3.3816034"><ele>2449</ele><speed>63</speed><time>2016-10-08T14:56:17Z</time><course>43</course><type>18</type></trkpt>
      <trkpt lat="41.3303783" lon="-3.3814734"><ele>2448</ele><speed>61</speed><time>2016-10-08T14:56:18Z</time><course>43</course><type>18</type></trkpt>
      <trkpt lat="41.3304966" lon="-3.3813484"><ele>2447</ele><speed>60</speed><time>2016-10-08T14:56:19Z</time><course>43</course><type>18</type></trkpt>
      <trkpt lat="41.3306083" lon="-3.3812334"><ele>2447</ele><speed>59</speed><time>2016-10-08T14:56:20Z</time><course>42</course><type>18</type></trkpt>
      <trkpt lat="41.33073" lon="-3.3810184"><ele>2445</ele><speed>50</speed><time>2016-10-08T14:56:22Z</time><course>45</course><type>18</type></trkpt>
      <trkpt lat="41.330805" lon="-3.3809167"><ele>2444</ele><speed>47</speed><time>2016-10-08T14:56:23Z</time><course>47</course><type>18</type></trkpt>
      <trkpt lat="41.3309" lon="-3.3808"><ele>2443</ele><speed>48</speed><time>2016-10-08T14:56:24Z</time><course>46</course><type>18</type></trkpt>
      <trkpt lat="41.3309683" lon="-3.3806667"><ele>2443</ele><speed>49</speed><time>2016-10-08T14:56:25Z</time><course>49</course><type>18</type></trkpt>
      <trkpt lat="41.3310333" lon="-3.38055"><ele>2442</ele><speed>50</speed><time>2016-10-08T14:56:26Z</time><course>51</course><type>18</type></trkpt>
      <trkpt lat="41.331095" lon="-3.3804334"><ele>2441</ele><speed>50</speed><time>2016-10-08T14:56:27Z</time><course>51</course><type>18</type></trkpt>
      <trkpt lat="41.3311616" lon="-3.38021"><ele>2439</ele><speed>48</speed><time>2016-10-08T14:56:29Z</time><course>50</course><type>18</type></trkpt>
      <trkpt lat="41.3312233" lon="-3.3801017"><ele>2439</ele><speed>48</speed><time>2016-10-08T14:56:30Z</time><course>48</course><type>18</type></trkpt>
      <trkpt lat="41.3312833" lon="-3.3799817"><ele>2438</ele><speed>50</speed><time>2016-10-08T14:56:31Z</time><course>49</course><type>18</type></trkpt>
      <trkpt lat="41.3313583" lon="-3.3798667"><ele>2437</ele><speed>50</speed><time>2016-10-08T14:56:32Z</time><course>48</course><type>18</type></trkpt>
      <trkpt lat="41.3314416" lon="-3.3797367"><ele>2436</ele><speed>50</speed><time>2016-10-08T14:56:33Z</time><course>48</course><type>18</type></trkpt>
      <trkpt lat="41.3315099" lon="-3.3796167"><ele>2435</ele><speed>47</speed><time>2016-10-08T14:56:34Z</time><course>50</course><type>18</type></trkpt>
      <trkpt lat="41.3315616" lon="-3.37951"><ele>2434</ele><speed>44</speed><time>2016-10-08T14:56:35Z</time><course>50</course><type>18</type></trkpt>
      <trkpt lat="41.3316083" lon="-3.3793851"><ele>2433</ele><speed>27</speed><time>2016-10-08T14:56:37Z</time><course>59</course><type>18</type></trkpt>
      <trkpt lat="41.3317583" lon="-3.379255"><ele>2432</ele><speed>38</speed><time>2016-10-08T14:56:39Z</time><course>43</course><type>18</type></trkpt>
      <trkpt lat="41.331845" lon="-3.379145"><ele>2431</ele><speed>42</speed><time>2016-10-08T14:56:40Z</time><course>44</course><type>18</type></trkpt>
      <trkpt lat="41.3318699" lon="-3.3789484"><ele>2430</ele><speed>44</speed><time>2016-10-08T14:56:41Z</time><course>52</course><type>18</type></trkpt>
      <trkpt lat="41.331905" lon="-3.3787767"><ele>2429</ele><speed>46</speed><time>2016-10-08T14:56:42Z</time><course>56</course><type>18</type></trkpt>
      <trkpt lat="41.3319266" lon="-3.3786184"><ele>2428</ele><speed>47</speed><time>2016-10-08T14:56:43Z</time><course>60</course><type>18</type></trkpt>
      <trkpt lat="41.33198" lon="-3.3784851"><ele>2428</ele><speed>46</speed><time>2016-10-08T14:56:44Z</time><course>63</course><type>18</type></trkpt>
      <trkpt lat="41.332035" lon="-3.3783567"><ele>2427</ele><speed>44</speed><time>2016-10-08T14:56:45Z</time><course>63</course><type>18</type></trkpt>
      <trkpt lat="41.3321016" lon="-3.3782317"><ele>2427</ele><speed>44</speed><time>2016-10-08T14:56:46Z</time><course>57</course><type>18</type></trkpt>
      <trkpt lat="41.3321733" lon="-3.37811"><ele>2426</ele><speed>46</speed><time>2016-10-08T14:56:47Z</time><course>54</course><type>18</type></trkpt>
      <trkpt lat="41.33226" lon="-3.3779984"><ele>2426</ele><speed>49</speed><time>2016-10-08T14:56:48Z</time><course>49</course><type>18</type></trkpt>
      <trkpt lat="41.33235" lon="-3.37787"><ele>2426</ele><speed>49</speed><time>2016-10-08T14:56:49Z</time><course>49</course><type>18</type></trkpt>
      <trkpt lat="41.332465" lon="-3.3777134"><ele>2425</ele><speed>57</speed><time>2016-10-08T14:56:50Z</time><course>46</course><type>18</type></trkpt>
      <trkpt lat="41.3325733" lon="-3.3775817"><ele>2424</ele><speed>56</speed><time>2016-10-08T14:56:51Z</time><course>45</course><type>18</type></trkpt>
      <trkpt lat="41.3326466" lon="-3.37743"><ele>2423</ele><speed>55</speed><time>2016-10-08T14:56:52Z</time><course>47</course><type>18</type></trkpt>
      <trkpt lat="41.3327066" lon="-3.3772884"><ele>2422</ele><speed>53</speed><time>2016-10-08T14:56:53Z</time><course>49</course><type>18</type></trkpt>
      <trkpt lat="41.3327933" lon="-3.37716"><ele>2421</ele><speed>52</speed><time>2016-10-08T14:56:54Z</time><course>49</course><type>18</type></trkpt>
      <trkpt lat="41.3328833" lon="-3.3770534"><ele>2420</ele><speed>51</speed><time>2016-10-08T14:56:55Z</time><course>48</course><type>18</type></trkpt>
      <trkpt lat="41.3329666" lon="-3.3769034"><ele>2420</ele><speed>51</speed><time>2016-10-08T14:56:56Z</time><course>48</course><type>18</type></trkpt>
      <trkpt lat="41.333065" lon="-3.3767667"><ele>2419</ele><speed>51</speed><time>2016-10-08T14:56:57Z</time><course>47</course><type>18</type></trkpt>
      <trkpt lat="41.3331733" lon="-3.3765434"><ele>2417</ele><speed>43</speed><time>2016-10-08T14:56:59Z</time><course>49</course><type>18</type></trkpt>
      <trkpt lat="41.3332466" lon="-3.3763384"><ele>2417</ele><speed>43</speed><time>2016-10-08T14:57:00Z</time><course>50</course><type>18</type></trkpt>
      <trkpt lat="41.3332716" lon="-3.3761417"><ele>2416</ele><speed>45</speed><time>2016-10-08T14:57:01Z</time><course>51</course><type>18</type></trkpt>
      <trkpt lat="41.33334" lon="-3.3759817"><ele>2415</ele><speed>45</speed><time>2016-10-08T14:57:02Z</time><course>51</course><type>18</type></trkpt>
      <trkpt lat="41.3334083" lon="-3.37582"><ele>2415</ele><speed>44</speed><time>2016-10-08T14:57:03Z</time><course>50</course><type>18</type></trkpt>
      <trkpt lat="41.3334716" lon="-3.3757017"><ele>2414</ele><speed>43</speed><time>2016-10-08T14:57:04Z</time><course>50</course><type>18</type></trkpt>
      <trkpt lat="41.3335383" lon="-3.37559"><ele>2413</ele><speed>43</speed><time>2016-10-08T14:57:05Z</time><course>49</course><type>18</type></trkpt>
      <trkpt lat="41.3335283" lon="-3.37536"><ele>2412</ele><speed>42</speed><time>2016-10-08T14:57:07Z</time><course>63</course><type>18</type></trkpt>
      <trkpt lat="41.3335433" lon="-3.3752284"><ele>2411</ele><speed>37</speed><time>2016-10-08T14:57:08Z</time><course>71</course><type>18</type></trkpt>
      <trkpt lat="41.3335216" lon="-3.3750917"><ele>2411</ele><speed>32</speed><time>2016-10-08T14:57:09Z</time><course>83</course><type>18</type></trkpt>
      <trkpt lat="41.3335799" lon="-3.3748867"><ele>2409</ele><speed>34</speed><time>2016-10-08T14:57:11Z</time><course>64</course><type>18</type></trkpt>
      <trkpt lat="41.3336249" lon="-3.37475"><ele>2409</ele><speed>38</speed><time>2016-10-08T14:57:12Z</time><course>60</course><type>18</type></trkpt>
      <trkpt lat="41.33366" lon="-3.3746084"><ele>2408</ele><speed>40</speed><time>2016-10-08T14:57:13Z</time><course>60</course><type>18</type></trkpt>
      <trkpt lat="41.3337566" lon="-3.37451"><ele>2407</ele><speed>44</speed><time>2016-10-08T14:57:14Z</time><course>48</course><type>18</type></trkpt>
      <trkpt lat="41.33383" lon="-3.3743734"><ele>2407</ele><speed>46</speed><time>2016-10-08T14:57:15Z</time><course>44</course><type>18</type></trkpt>
      <trkpt lat="41.3338916" lon="-3.3742367"><ele>2406</ele><speed>44</speed><time>2016-10-08T14:57:16Z</time><course>45</course><type>18</type></trkpt>
      <trkpt lat="41.3339533" lon="-3.3741117"><ele>2405</ele><speed>42</speed><time>2016-10-08T14:57:17Z</time><course>44</course><type>18</type></trkpt>
      <trkpt lat="41.3340233" lon="-3.3739917"><ele>2405</ele><speed>43</speed><time>2016-10-08T14:57:18Z</time><course>43</course><type>18</type></trkpt>
      <trkpt lat="41.3341033" lon="-3.3738734"><ele>2404</ele><speed>46</speed><time>2016-10-08T14:57:19Z</time><course>41</course><type>18</type></trkpt>
      <trkpt lat="41.3341883" lon="-3.3737517"><ele>2403</ele><speed>49</speed><time>2016-10-08T14:57:20Z</time><course>40</course><type>18</type></trkpt>
      <trkpt lat="41.3342783" lon="-3.37364"><ele>2402</ele><speed>48</speed><time>2016-10-08T14:57:21Z</time><course>39</course><type>18</type></trkpt>
      <trkpt lat="41.3343633" lon="-3.3735334"><ele>2402</ele><speed>46</speed><time>2016-10-08T14:57:22Z</time><course>38</course><type>18</type></trkpt>
      <trkpt lat="41.3344516" lon="-3.373435"><ele>2401</ele><speed>46</speed><time>2016-10-08T14:57:23Z</time><course>37</course><type>18</type></trkpt>
      <trkpt lat="41.3345633" lon="-3.373345"><ele>2400</ele><speed>49</speed><time>2016-10-08T14:57:24Z</time><course>33</course><type>18</type></trkpt>
      <trkpt lat="41.334665" lon="-3.3732534"><ele>2400</ele><speed>38</speed><time>2016-10-08T14:57:25Z</time><course>34</course><type>18</type></trkpt>
      <trkpt lat="41.33478" lon="-3.373175"><ele>2398</ele><speed>46</speed><time>2016-10-08T14:57:26Z</time><course>32</course><type>18</type></trkpt>
      <trkpt lat="41.33487" lon="-3.3730701"><ele>2396</ele><speed>48</speed><time>2016-10-08T14:57:27Z</time><course>36</course><type>18</type></trkpt>
      <trkpt lat="41.3349566" lon="-3.37295"><ele>2394</ele><speed>50</speed><time>2016-10-08T14:57:28Z</time><course>39</course><type>18</type></trkpt>
      <trkpt lat="41.3350483" lon="-3.3728367"><ele>2392</ele><speed>50</speed><time>2016-10-08T14:57:29Z</time><course>38</course><type>18</type></trkpt>
      <trkpt lat="41.3351533" lon="-3.3727101"><ele>2393</ele><speed>53</speed><time>2016-10-08T14:57:30Z</time><course>36</course><type>18</type></trkpt>
      <trkpt lat="41.33524" lon="-3.372585"><ele>2392</ele><speed>50</speed><time>2016-10-08T14:57:31Z</time><course>37</course><type>18</type></trkpt>
      <trkpt lat="41.33533" lon="-3.3724667"><ele>2390</ele><speed>50</speed><time>2016-10-08T14:57:32Z</time><course>38</course><type>18</type></trkpt>
      <trkpt lat="41.33541" lon="-3.372345"><ele>2389</ele><speed>49</speed><time>2016-10-08T14:57:33Z</time><course>40</course><type>18</type></trkpt>
      <trkpt lat="41.3354816" lon="-3.3722184"><ele>2388</ele><speed>47</speed><time>2016-10-08T14:57:34Z</time><course>43</course><type>18</type></trkpt>
      <trkpt lat="41.3355583" lon="-3.37211"><ele>2386</ele><speed>45</speed><time>2016-10-08T14:57:35Z</time><course>42</course><type>18</type></trkpt>
      <trkpt lat="41.335635" lon="-3.3720017"><ele>2385</ele><speed>46</speed><time>2016-10-08T14:57:36Z</time><course>41</course><type>18</type></trkpt>
      <trkpt lat="41.3357116" lon="-3.371895"><ele>2384</ele><speed>44</speed><time>2016-10-08T14:57:37Z</time><course>42</course><type>18</type></trkpt>
      <trkpt lat="41.3357916" lon="-3.37179"><ele>2382</ele><speed>44</speed><time>2016-10-08T14:57:38Z</time><course>41</course><type>18</type></trkpt>
      <trkpt lat="41.33587" lon="-3.3716867"><ele>2381</ele><speed>44</speed><time>2016-10-08T14:57:39Z</time><course>42</course><type>18</type></trkpt>
      <trkpt lat="41.3359516" lon="-3.3715834"><ele>2380</ele><speed>44</speed><time>2016-10-08T14:57:40Z</time><course>42</course><type>18</type></trkpt>
      <trkpt lat="41.33605" lon="-3.3714717"><ele>2378</ele><speed>51</speed><time>2016-10-08T14:57:41Z</time><course>41</course><type>18</type></trkpt>
      <trkpt lat="41.3361449" lon="-3.3713617"><ele>2377</ele><speed>50</speed><time>2016-10-08T14:57:42Z</time><course>41</course><type>18</type></trkpt>
      <trkpt lat="41.33624" lon="-3.3712567"><ele>2376</ele><speed>50</speed><time>2016-10-08T14:57:43Z</time><course>40</course><type>18</type></trkpt>
      <trkpt lat="41.3363166" lon="-3.3711534"><ele>2375</ele><speed>48</speed><time>2016-10-08T14:57:44Z</time><course>41</course><type>18</type></trkpt>
      <trkpt lat="41.3364416" lon="-3.3710017"><ele>2374</ele><speed>40</speed><time>2016-10-08T14:57:46Z</time><course>41</course><type>18</type></trkpt>
      <trkpt lat="41.3365166" lon="-3.3708751"><ele>2374</ele><speed>43</speed><time>2016-10-08T14:57:47Z</time><course>44</course><type>18</type></trkpt>
      <trkpt lat="41.3365816" lon="-3.3707434"><ele>2373</ele><speed>44</speed><time>2016-10-08T14:57:48Z</time><course>48</course><type>18</type></trkpt>
      <trkpt lat="41.33665" lon="-3.3706267"><ele>2372</ele><speed>43</speed><time>2016-10-08T14:57:49Z</time><course>48</course><type>18</type></trkpt>
      <trkpt lat="41.336705" lon="-3.370495"><ele>2371</ele><speed>42</speed><time>2016-10-08T14:57:50Z</time><course>48</course><type>18</type></trkpt>
      <trkpt lat="41.336795" lon="-3.3704034"><ele>2370</ele><speed>43</speed><time>2016-10-08T14:57:51Z</time><course>47</course><type>18</type></trkpt>
      <trkpt lat="41.336895" lon="-3.3703067"><ele>2369</ele><speed>46</speed><time>2016-10-08T14:57:52Z</time><course>46</course><type>18</type></trkpt>
      <trkpt lat="41.336985" lon="-3.3702017"><ele>2368</ele><speed>47</speed><time>2016-10-08T14:57:53Z</time><course>45</course><type>18</type></trkpt>
      <trkpt lat="41.3370733" lon="-3.3700934"><ele>2368</ele><speed>48</speed><time>2016-10-08T14:57:54Z</time><course>47</course><type>18</type></trkpt>
      <trkpt lat="41.3371533" lon="-3.3699884"><ele>2367</ele><speed>44</speed><time>2016-10-08T14:57:55Z</time><course>47</course><type>18</type></trkpt>
      <trkpt lat="41.3372166" lon="-3.3698784"><ele>2366</ele><speed>42</speed><time>2016-10-08T14:57:56Z</time><course>47</course><type>18</type></trkpt>
      <trkpt lat="41.337305" lon="-3.36977"><ele>2365</ele><speed>52</speed><time>2016-10-08T14:57:57Z</time><course>42</course><type>18</type></trkpt>
      <trkpt lat="41.337445" lon="-3.3697151"><ele>2359</ele><speed>46</speed><time>2016-10-08T14:57:58Z</time><course>43</course><type>18</type></trkpt>
      <trkpt lat="41.33754" lon="-3.3696467"><ele>2357</ele><speed>45</speed><time>2016-10-08T14:57:59Z</time><course>42</course><type>18</type></trkpt>
      <trkpt lat="41.3376566" lon="-3.369635"><ele>2352</ele><speed>45</speed><time>2016-10-08T14:58:00Z</time><course>42</course><type>18</type></trkpt>
      <trkpt lat="41.3376833" lon="-3.36942"><ele>2350</ele><speed>38</speed><time>2016-10-08T14:58:03Z</time><course>46</course><type>18</type></trkpt>
      <trkpt lat="41.33772" lon="-3.3692034"><ele>2348</ele><speed>30</speed><time>2016-10-08T14:58:05Z</time><course>54</course><type>18</type></trkpt>
      <trkpt lat="41.3382066" lon="-3.369285"><ele>2340</ele><speed>41</speed><time>2016-10-08T14:58:07Z</time><course>35</course><type>18</type></trkpt>
      <trkpt lat="41.3381583" lon="-3.3690117"><ele>2339</ele><speed>40</speed><time>2016-10-08T14:58:08Z</time><course>41</course><type>18</type></trkpt>
      <trkpt lat="41.3382983" lon="-3.3690034"><ele>2335</ele><speed>40</speed><time>2016-10-08T14:58:09Z</time><course>41</course><type>18</type></trkpt>
      <trkpt lat="41.338325" lon="-3.3688384"><ele>2334</ele><speed>37</speed><time>2016-10-08T14:58:10Z</time><course>42</course><type>18</type></trkpt>
      <trkpt lat="41.3383783" lon="-3.3687217"><ele>2333</ele><speed>38</speed><time>2016-10-08T14:58:11Z</time><course>40</course><type>18</type></trkpt>
      <trkpt lat="41.3384366" lon="-3.36861"><ele>2332</ele><speed>38</speed><time>2016-10-08T14:58:12Z</time><course>39</course><type>18</type></trkpt>
      <trkpt lat="41.3385033" lon="-3.3685067"><ele>2331</ele><speed>40</speed><time>2016-10-08T14:58:13Z</time><course>38</course><type>18</type></trkpt>
      <trkpt lat="41.338585" lon="-3.368405"><ele>2330</ele><speed>48</speed><time>2016-10-08T14:58:14Z</time><course>36</course><type>18</type></trkpt>
      <trkpt lat="41.3387683" lon="-3.3684084"><ele>2323</ele><speed>46</speed><time>2016-10-08T14:58:15Z</time><course>33</course><type>18</type></trkpt>
      <trkpt lat="41.3388933" lon="-3.3684217"><ele>2320</ele><speed>44</speed><time>2016-10-08T14:58:16Z</time><course>31</course><type>18</type></trkpt>
      <trkpt lat="41.3389516" lon="-3.3682917"><ele>2317</ele><speed>39</speed><time>2016-10-08T14:58:18Z</time><course>32</course><type>18</type></trkpt>
      <trkpt lat="41.33908" lon="-3.3683084"><ele>2314</ele><speed>38</speed><time>2016-10-08T14:58:19Z</time><course>31</course><type>18</type></trkpt>
      <trkpt lat="41.3393716" lon="-3.3683317"><ele>2304</ele><speed>38</speed><time>2016-10-08T14:58:22Z</time><course>38</course><type>18</type></trkpt>
      <trkpt lat="41.33964" lon="-3.3685267"><ele>2300</ele><speed>42</speed><time>2016-10-08T14:58:23Z</time><course>41</course><type>18</type></trkpt>
      <trkpt lat="41.3397916" lon="-3.368255"><ele>2298</ele><speed>44</speed><time>2016-10-08T14:58:25Z</time><course>42</course><type>18</type></trkpt>
      <trkpt lat="41.3398666" lon="-3.3680934"><ele>2297</ele><speed>46</speed><time>2016-10-08T14:58:26Z</time><course>42</course><type>18</type></trkpt>
      <trkpt lat="41.3399366" lon="-3.36795"><ele>2296</ele><speed>45</speed><time>2016-10-08T14:58:27Z</time><course>43</course><type>18</type></trkpt>
      <trkpt lat="41.3401016" lon="-3.36776"><ele>2293</ele><speed>44</speed><time>2016-10-08T14:58:29Z</time><course>43</course><type>18</type></trkpt>
      <trkpt lat="41.3401416" lon="-3.3674717"><ele>2291</ele><speed>48</speed><time>2016-10-08T14:58:31Z</time><course>51</course><type>18</type></trkpt>
      <trkpt lat="41.3402766" lon="-3.3673934"><ele>2292</ele><speed>41</speed><time>2016-10-08T14:58:32Z</time><course>46</course><type>18</type></trkpt>
      <trkpt lat="41.340355" lon="-3.367285"><ele>2291</ele><speed>39</speed><time>2016-10-08T14:58:33Z</time><course>53</course><type>18</type></trkpt>
      <trkpt lat="41.3404766" lon="-3.3670684"><ele>2290</ele><speed>42</speed><time>2016-10-08T14:58:35Z</time><course>57</course><type>18</type></trkpt>
      <trkpt lat="41.340585" lon="-3.3668284"><ele>2289</ele><speed>45</speed><time>2016-10-08T14:58:37Z</time><course>65</course><type>18</type></trkpt>
      <trkpt lat="41.3407066" lon="-3.366615"><ele>2287</ele><speed>44</speed><time>2016-10-08T14:58:39Z</time><course>67</course><type>18</type></trkpt>
      <trkpt lat="41.3408383" lon="-3.3664117"><ele>2285</ele><speed>40</speed><time>2016-10-08T14:58:41Z</time><course>60</course><type>18</type></trkpt>
      <trkpt lat="41.34099" lon="-3.3662517"><ele>2285</ele><speed>37</speed><time>2016-10-08T14:58:43Z</time><course>48</course><type>18</type></trkpt>
      <trkpt lat="41.3411566" lon="-3.3661034"><ele>2284</ele><speed>40</speed><time>2016-10-08T14:58:45Z</time><course>47</course><type>18</type></trkpt>
      <trkpt lat="41.34134" lon="-3.365955"><ele>2283</ele><speed>45</speed><time>2016-10-08T14:58:47Z</time><course>45</course><type>18</type></trkpt>
      <trkpt lat="41.3414616" lon="-3.3658667"><ele>2283</ele><speed>54</speed><time>2016-10-08T14:58:48Z</time><course>43</course><type>18</type></trkpt>
      <trkpt lat="41.34157" lon="-3.3657917"><ele>2282</ele><speed>43</speed><time>2016-10-08T14:58:49Z</time><course>45</course><type>18</type></trkpt>
      <trkpt lat="41.3417333" lon="-3.3656367"><ele>2282</ele><speed>41</speed><time>2016-10-08T14:58:51Z</time><course>43</course><type>18</type></trkpt>
      <trkpt lat="41.3418583" lon="-3.3656"><ele>2282</ele><speed>34</speed><time>2016-10-08T14:58:52Z</time><course>41</course><type>18</type></trkpt>
      <trkpt lat="41.3419083" lon="-3.3653717"><ele>2279</ele><speed>36</speed><time>2016-10-08T14:58:54Z</time><course>43</course><type>18</type></trkpt>
      <trkpt lat="41.3419233" lon="-3.365215"><ele>2277</ele><speed>39</speed><time>2016-10-08T14:58:55Z</time><course>41</course><type>18</type></trkpt>
      <trkpt lat="41.3420433" lon="-3.3652084"><ele>2277</ele><speed>39</speed><time>2016-10-08T14:58:56Z</time><course>39</course><type>18</type></trkpt>
      <trkpt lat="41.3420333" lon="-3.3650117"><ele>2270</ele><speed>39</speed><time>2016-10-08T14:58:57Z</time><course>45</course><type>18</type></trkpt>
      <trkpt lat="41.3420099" lon="-3.3647867"><ele>2267</ele><speed>39</speed><time>2016-10-08T14:58:58Z</time><course>46</course><type>18</type></trkpt>
      <trkpt lat="41.3420733" lon="-3.36461"><ele>2253</ele><speed>37</speed><time>2016-10-08T14:59:00Z</time><course>50</course><type>18</type></trkpt>
      <trkpt lat="41.3421116" lon="-3.36452"><ele>2247</ele><speed>38</speed><time>2016-10-08T14:59:01Z</time><course>51</course><type>18</type></trkpt>
      <trkpt lat="41.34216" lon="-3.3644267"><ele>2241</ele><speed>40</speed><time>2016-10-08T14:59:02Z</time><course>51</course><type>18</type></trkpt>
      <trkpt lat="41.3422616" lon="-3.3644167"><ele>2227</ele><speed>43</speed><time>2016-10-08T14:59:03Z</time><course>48</course><type>18</type></trkpt>
      <trkpt lat="41.342345" lon="-3.364325"><ele>2222</ele><speed>51</speed><time>2016-10-08T14:59:04Z</time><course>46</course><type>18</type></trkpt>
      <trkpt lat="41.3424416" lon="-3.3642134"><ele>2217</ele><speed>59</speed><time>2016-10-08T14:59:05Z</time><course>47</course><type>18</type></trkpt>
      <trkpt lat="41.3425366" lon="-3.3641684"><ele>2211</ele><speed>39</speed><time>2016-10-08T14:59:06Z</time><course>40</course><type>18</type></trkpt>
      <trkpt lat="41.3426183" lon="-3.3640967"><ele>2204</ele><speed>36</speed><time>2016-10-08T14:59:07Z</time><course>45</course><type>18</type></trkpt>
      <trkpt lat="41.3427" lon="-3.36407"><ele>2193</ele><speed>42</speed><time>2016-10-08T14:59:08Z</time><course>46</course><type>18</type></trkpt>
      <trkpt lat="41.3427683" lon="-3.3640134"><ele>2184</ele><speed>43</speed><time>2016-10-08T14:59:09Z</time><course>49</course><type>18</type></trkpt>
      <trkpt lat="41.342815" lon="-3.36393"><ele>2175</ele><speed>44</speed><time>2016-10-08T14:59:10Z</time><course>54</course><type>18</type></trkpt>
      <trkpt lat="41.3428733" lon="-3.3637434"><ele>2161</ele><speed>43</speed><time>2016-10-08T14:59:12Z</time><course>58</course><type>18</type></trkpt>
      <trkpt lat="41.3429266" lon="-3.363655"><ele>2155</ele><speed>40</speed><time>2016-10-08T14:59:13Z</time><course>59</course><type>18</type></trkpt>
      <trkpt lat="41.34295" lon="-3.363545"><ele>2148</ele><speed>41</speed><time>2016-10-08T14:59:14Z</time><course>60</course><type>18</type></trkpt>
      <trkpt lat="41.3429816" lon="-3.3634417"><ele>2142</ele><speed>41</speed><time>2016-10-08T14:59:15Z</time><course>59</course><type>18</type></trkpt>
      <trkpt lat="41.3430116" lon="-3.3633434"><ele>2138</ele><speed>38</speed><time>2016-10-08T14:59:16Z</time><course>61</course><type>18</type></trkpt>
      <trkpt lat="41.3430483" lon="-3.3632367"><ele>2133</ele><speed>38</speed><time>2016-10-08T14:59:17Z</time><course>61</course><type>18</type></trkpt>
      <trkpt lat="41.3430799" lon="-3.36314"><ele>2128</ele><speed>37</speed><time>2016-10-08T14:59:18Z</time><course>61</course><type>18</type></trkpt>
      <trkpt lat="41.3431333" lon="-3.3629717"><ele>2118</ele><speed>32</speed><time>2016-10-08T14:59:20Z</time><course>56</course><type>18</type></trkpt>
      <trkpt lat="41.3431699" lon="-3.36288"><ele>2115</ele><speed>34</speed><time>2016-10-08T14:59:21Z</time><course>54</course><type>18</type></trkpt>
      <trkpt lat="41.3432149" lon="-3.362785"><ele>2111</ele><speed>34</speed><time>2016-10-08T14:59:22Z</time><course>52</course><type>18</type></trkpt>
      <trkpt lat="41.3432633" lon="-3.3626967"><ele>2109</ele><speed>32</speed><time>2016-10-08T14:59:23Z</time><course>49</course><type>18</type></trkpt>
      <trkpt lat="41.343315" lon="-3.3626117"><ele>2107</ele><speed>33</speed><time>2016-10-08T14:59:24Z</time><course>48</course><type>18</type></trkpt>
      <trkpt lat="41.3433833" lon="-3.3625484"><ele>2107</ele><speed>32</speed><time>2016-10-08T14:59:25Z</time><course>46</course><type>18</type></trkpt>
      <trkpt lat="41.343465" lon="-3.362465"><ele>2103</ele><speed>26</speed><time>2016-10-08T14:59:27Z</time><course>43</course><type>18</type></trkpt>
      <trkpt lat="41.3434233" lon="-3.362315"><ele>2096</ele><speed>17</speed><time>2016-10-08T14:59:29Z</time><course>65</course><type>18</type></trkpt>
      <trkpt lat="41.3436133" lon="-3.36234"><ele>2091</ele><speed>29</speed><time>2016-10-08T14:59:30Z</time><course>25</course><type>18</type></trkpt>
      <trkpt lat="41.343635" lon="-3.362185"><ele>2087</ele><speed>34</speed><time>2016-10-08T14:59:31Z</time><course>39</course><type>18</type></trkpt>
      <trkpt lat="41.3436533" lon="-3.36208"><ele>2084</ele><speed>32</speed><time>2016-10-08T14:59:32Z</time><course>44</course><type>18</type></trkpt>
      <trkpt lat="41.3436733" lon="-3.361965"><ele>2080</ele><speed>31</speed><time>2016-10-08T14:59:33Z</time><course>45</course><type>18</type></trkpt>
      <trkpt lat="41.3437133" lon="-3.3618801"><ele>2075</ele><speed>30</speed><time>2016-10-08T14:59:34Z</time><course>44</course><type>18</type></trkpt>
      <trkpt lat="41.3437733" lon="-3.3618267"><ele>2070</ele><speed>31</speed><time>2016-10-08T14:59:35Z</time><course>38</course><type>18</type></trkpt>
      <trkpt lat="41.3438466" lon="-3.36178"><ele>2065</ele><speed>34</speed><time>2016-10-08T14:59:36Z</time><course>34</course><type>18</type></trkpt>
      <trkpt lat="41.343915" lon="-3.3617167"><ele>2060</ele><speed>37</speed><time>2016-10-08T14:59:37Z</time><course>36</course><type>18</type></trkpt>
      <trkpt lat="41.3439566" lon="-3.3616067"><ele>2057</ele><speed>41</speed><time>2016-10-08T14:59:38Z</time><course>42</course><type>18</type></trkpt>
      <trkpt lat="41.34405" lon="-3.3614117"><ele>2048</ele><speed>43</speed><time>2016-10-08T14:59:40Z</time><course>52</course><type>18</type></trkpt>
      <trkpt lat="41.3441116" lon="-3.361285"><ele>2046</ele><speed>46</speed><time>2016-10-08T14:59:41Z</time><course>54</course><type>18</type></trkpt>
      <trkpt lat="41.3441866" lon="-3.3612184"><ele>2042</ele><speed>43</speed><time>2016-10-08T14:59:42Z</time><course>52</course><type>18</type></trkpt>
      <trkpt lat="41.3442583" lon="-3.3611834"><ele>2038</ele><speed>38</speed><time>2016-10-08T14:59:43Z</time><course>48</course><type>18</type></trkpt>
      <trkpt lat="41.3444066" lon="-3.3611534"><ele>2033</ele><speed>37</speed><time>2016-10-08T14:59:45Z</time><course>39</course><type>18</type></trkpt>
      <trkpt lat="41.34452" lon="-3.3610167"><ele>2028</ele><speed>39</speed><time>2016-10-08T14:59:47Z</time><course>45</course><type>18</type></trkpt>
      <trkpt lat="41.3445833" lon="-3.3609217"><ele>2025</ele><speed>42</speed><time>2016-10-08T14:59:48Z</time><course>43</course><type>18</type></trkpt>
      <trkpt lat="41.34463" lon="-3.3607817"><ele>2022</ele><speed>44</speed><time>2016-10-08T14:59:49Z</time><course>45</course><type>18</type></trkpt>
      <trkpt lat="41.34469" lon="-3.3606434"><ele>2019</ele><speed>48</speed><time>2016-10-08T14:59:50Z</time><course>44</course><type>18</type></trkpt>
      <trkpt lat="41.3447466" lon="-3.36051"><ele>2016</ele><speed>49</speed><time>2016-10-08T14:59:51Z</time><course>47</course><type>18</type></trkpt>
      <trkpt lat="41.3448116" lon="-3.3604"><ele>2012</ele><speed>47</speed><time>2016-10-08T14:59:52Z</time><course>49</course><type>18</type></trkpt>
      <trkpt lat="41.3448733" lon="-3.36028"><ele>2010</ele><speed>46</speed><time>2016-10-08T14:59:53Z</time><course>50</course><type>18</type></trkpt>
      <trkpt lat="41.3449316" lon="-3.36016"><ele>2007</ele><speed>45</speed><time>2016-10-08T14:59:54Z</time><course>50</course><type>18</type></trkpt>
      <trkpt lat="41.3450033" lon="-3.3600184"><ele>2005</ele><speed>58</speed><time>2016-10-08T14:59:55Z</time><course>51</course><type>18</type></trkpt>
      <trkpt lat="41.34507" lon="-3.3598334"><ele>2002</ele><speed>63</speed><time>2016-10-08T14:59:56Z</time><course>54</course><type>18</type></trkpt>
      <trkpt lat="41.3451516" lon="-3.3596634"><ele>1999</ele><speed>62</speed><time>2016-10-08T14:59:57Z</time><course>54</course><type>18</type></trkpt>
      <trkpt lat="41.34523" lon="-3.3595034"><ele>1998</ele><speed>61</speed><time>2016-10-08T14:59:58Z</time><course>54</course><type>18</type></trkpt>
      <trkpt lat="41.3452916" lon="-3.3593717"><ele>1997</ele><speed>56</speed><time>2016-10-08T14:59:59Z</time><course>55</course><type>18</type></trkpt>
      <trkpt lat="41.3453383" lon="-3.35927"><ele>1997</ele><speed>49</speed><time>2016-10-08T15:00:00Z</time><course>55</course><type>18</type></trkpt>
      <trkpt lat="41.34543" lon="-3.35909"><ele>1994</ele><speed>31</speed><time>2016-10-08T15:00:03Z</time><course>54</course><type>18</type></trkpt>
      <trkpt lat="41.345485" lon="-3.3589651"><ele>1993</ele><speed>37</speed><time>2016-10-08T15:00:04Z</time><course>59</course><type>18</type></trkpt>
      <trkpt lat="41.3455433" lon="-3.3588384"><ele>1992</ele><speed>41</speed><time>2016-10-08T15:00:05Z</time><course>60</course><type>18</type></trkpt>
      <trkpt lat="41.3456316" lon="-3.3586484"><ele>1990</ele><speed>39</speed><time>2016-10-08T15:00:07Z</time><course>60</course><type>18</type></trkpt>
      <trkpt lat="41.3456766" lon="-3.35854"><ele>1988</ele><speed>39</speed><time>2016-10-08T15:00:08Z</time><course>60</course><type>18</type></trkpt>
      <trkpt lat="41.34572" lon="-3.358425"><ele>1987</ele><speed>40</speed><time>2016-10-08T15:00:09Z</time><course>60</course><type>18</type></trkpt>
      <trkpt lat="41.3457433" lon="-3.3582934"><ele>1986</ele><speed>40</speed><time>2016-10-08T15:00:10Z</time><course>65</course><type>18</type></trkpt>
      <trkpt lat="41.3457616" lon="-3.35816"><ele>1985</ele><speed>40</speed><time>2016-10-08T15:00:11Z</time><course>70</course><type>18</type></trkpt>
      <trkpt lat="41.3457683" lon="-3.3580301"><ele>1983</ele><speed>45</speed><time>2016-10-08T15:00:12Z</time><course>71</course><type>18</type></trkpt>
      <trkpt lat="41.3457699" lon="-3.3578834"><ele>1981</ele><speed>43</speed><time>2016-10-08T15:00:13Z</time><course>72</course><type>18</type></trkpt>
      <trkpt lat="41.3457883" lon="-3.357735"><ele>1979</ele><speed>47</speed><time>2016-10-08T15:00:14Z</time><course>71</course><type>18</type></trkpt>
      <trkpt lat="41.3458233" lon="-3.3576167"><ele>1978</ele><speed>45</speed><time>2016-10-08T15:00:15Z</time><course>71</course><type>18</type></trkpt>
      <trkpt lat="41.3458466" lon="-3.3574817"><ele>1976</ele><speed>43</speed><time>2016-10-08T15:00:16Z</time><course>71</course><type>18</type></trkpt>
      <trkpt lat="41.3458749" lon="-3.35735"><ele>1975</ele><speed>42</speed><time>2016-10-08T15:00:17Z</time><course>72</course><type>18</type></trkpt>
      <trkpt lat="41.3458933" lon="-3.3572267"><ele>1974</ele><speed>41</speed><time>2016-10-08T15:00:18Z</time><course>73</course><type>18</type></trkpt>
      <trkpt lat="41.34584" lon="-3.3570834"><ele>1972</ele><speed>40</speed><time>2016-10-08T15:00:19Z</time><course>79</course><type>18</type></trkpt>
      <trkpt lat="41.3457633" lon="-3.3568867"><ele>1969</ele><speed>35</speed><time>2016-10-08T15:00:21Z</time><course>89</course><type>18</type></trkpt>
      <trkpt lat="41.3456499" lon="-3.3567634"><ele>1967</ele><speed>30</speed><time>2016-10-08T15:00:23Z</time><course>101</course><type>18</type></trkpt>
      <trkpt lat="41.3456933" lon="-3.3565884"><ele>1963</ele><speed>24</speed><time>2016-10-08T15:00:26Z</time><course>78</course><type>18</type></trkpt>
      <trkpt lat="41.3457016" lon="-3.3564267"><ele>1960</ele><speed>28</speed><time>2016-10-08T15:00:28Z</time><course>73</course><type>18</type></trkpt>
      <trkpt lat="41.34566" lon="-3.3562484"><ele>1958</ele><speed>39</speed><time>2016-10-08T15:00:30Z</time><course>68</course><type>18</type></trkpt>
      <trkpt lat="41.34573" lon="-3.3559884"><ele>1956</ele><speed>39</speed><time>2016-10-08T15:00:32Z</time><course>68</course><type>18</type></trkpt>
      <trkpt lat="41.3458166" lon="-3.3555"><ele>1948</ele><speed>32</speed><time>2016-10-08T15:00:36Z</time><course>70</course><type>18</type></trkpt>
      <trkpt lat="41.3457849" lon="-3.35573"><ele>1946</ele><speed>29</speed><time>2016-10-08T15:00:37Z</time><course>70</course><type>18</type></trkpt>
      <trkpt lat="41.3459683" lon="-3.3553734"><ele>1943</ele><speed>27</speed><time>2016-10-08T15:00:39Z</time><course>70</course><type>18</type></trkpt>
      <trkpt lat="41.346045" lon="-3.3548834"><ele>1942</ele><speed>30</speed><time>2016-10-08T15:00:40Z</time><course>68</course><type>18</type></trkpt>
      <trkpt lat="41.346165" lon="-3.354525"><ele>1940</ele><speed>31</speed><time>2016-10-08T15:00:41Z</time><course>65</course><type>18</type></trkpt>
      <trkpt lat="41.3462516" lon="-3.3543917"><ele>1938</ele><speed>28</speed><time>2016-10-08T15:00:43Z</time><course>58</course><type>18</type></trkpt>
      <trkpt lat="41.3463483" lon="-3.3541517"><ele>1935</ele><speed>31</speed><time>2016-10-08T15:00:45Z</time><course>59</course><type>18</type></trkpt>
      <trkpt lat="41.3464483" lon="-3.3540901"><ele>1934</ele><speed>37</speed><time>2016-10-08T15:00:46Z</time><course>48</course><type>18</type></trkpt>
      <trkpt lat="41.3465216" lon="-3.3539667"><ele>1933</ele><speed>37</speed><time>2016-10-08T15:00:47Z</time><course>45</course><type>18</type></trkpt>
      <trkpt lat="41.3465883" lon="-3.35386"><ele>1932</ele><speed>37</speed><time>2016-10-08T15:00:48Z</time><course>47</course><type>18</type></trkpt>
      <trkpt lat="41.3466883" lon="-3.3537317"><ele>1928</ele><speed>33</speed><time>2016-10-08T15:00:50Z</time><course>52</course><type>18</type></trkpt>
      <trkpt lat="41.3467933" lon="-3.3538234"><ele>1924</ele><speed>21</speed><time>2016-10-08T15:00:51Z</time><course>55</course><type>18</type></trkpt>
      <trkpt lat="41.3468316" lon="-3.3536634"><ele>1921</ele><speed>30</speed><time>2016-10-08T15:00:53Z</time><course>47</course><type>18</type></trkpt>
      <trkpt lat="41.3469283" lon="-3.353445"><ele>1919</ele><speed>39</speed><time>2016-10-08T15:00:55Z</time><course>45</course><type>18</type></trkpt>
      <trkpt lat="41.3470066" lon="-3.3533417"><ele>1918</ele><speed>43</speed><time>2016-10-08T15:00:56Z</time><course>43</course><type>18</type></trkpt>
      <trkpt lat="41.347085" lon="-3.3531734"><ele>1917</ele><speed>45</speed><time>2016-10-08T15:00:57Z</time><course>49</course><type>18</type></trkpt>
      <trkpt lat="41.34716" lon="-3.3530317"><ele>1916</ele><speed>46</speed><time>2016-10-08T15:00:58Z</time><course>50</course><type>18</type></trkpt>
      <trkpt lat="41.3472266" lon="-3.35292"><ele>1915</ele><speed>41</speed><time>2016-10-08T15:00:59Z</time><course>53</course><type>18</type></trkpt>
      <trkpt lat="41.347295" lon="-3.352815"><ele>1914</ele><speed>39</speed><time>2016-10-08T15:01:00Z</time><course>50</course><type>18</type></trkpt>
      <trkpt lat="41.3473716" lon="-3.3527167"><ele>1913</ele><speed>41</speed><time>2016-10-08T15:01:01Z</time><course>46</course><type>18</type></trkpt>
      <trkpt lat="41.3474566" lon="-3.3526217"><ele>1911</ele><speed>43</speed><time>2016-10-08T15:01:02Z</time><course>44</course><type>18</type></trkpt>
      <trkpt lat="41.3475333" lon="-3.3525017"><ele>1910</ele><speed>43</speed><time>2016-10-08T15:01:03Z</time><course>44</course><type>18</type></trkpt>
      <trkpt lat="41.34761" lon="-3.35238"><ele>1909</ele><speed>44</speed><time>2016-10-08T15:01:04Z</time><course>44</course><type>18</type></trkpt>
      <trkpt lat="41.347635" lon="-3.3522551"><ele>1908</ele><speed>39</speed><time>2016-10-08T15:01:05Z</time><course>57</course><type>18</type></trkpt>
      <trkpt lat="41.3476533" lon="-3.352125"><ele>1906</ele><speed>36</speed><time>2016-10-08T15:01:06Z</time><course>67</course><type>18</type></trkpt>
      <trkpt lat="41.347745" lon="-3.351955"><ele>1904</ele><speed>30</speed><time>2016-10-08T15:01:08Z</time><course>59</course><type>18</type></trkpt>
      <trkpt lat="41.3478516" lon="-3.351795"><ele>1901</ele><speed>37</speed><time>2016-10-08T15:01:10Z</time><course>47</course><type>18</type></trkpt>
      <trkpt lat="41.3479166" lon="-3.3517084"><ele>1900</ele><speed>39</speed><time>2016-10-08T15:01:11Z</time><course>44</course><type>18</type></trkpt>
      <trkpt lat="41.348" lon="-3.3516434"><ele>1898</ele><speed>40</speed><time>2016-10-08T15:01:12Z</time><course>38</course><type>18</type></trkpt>
      <trkpt lat="41.348075" lon="-3.3515684"><ele>1897</ele><speed>40</speed><time>2016-10-08T15:01:13Z</time><course>35</course><type>18</type></trkpt>
      <trkpt lat="41.3481533" lon="-3.3514867"><ele>1895</ele><speed>42</speed><time>2016-10-08T15:01:14Z</time><course>33</course><type>18</type></trkpt>
      <trkpt lat="41.34822" lon="-3.3514017"><ele>1894</ele><speed>40</speed><time>2016-10-08T15:01:15Z</time><course>33</course><type>18</type></trkpt>
      <trkpt lat="41.34829" lon="-3.3513167"><ele>1893</ele><speed>40</speed><time>2016-10-08T15:01:16Z</time><course>32</course><type>18</type></trkpt>
      <trkpt lat="41.3483466" lon="-3.351225"><ele>1891</ele><speed>41</speed><time>2016-10-08T15:01:17Z</time><course>33</course><type>18</type></trkpt>
      <trkpt lat="41.3484033" lon="-3.3511334"><ele>1890</ele><speed>41</speed><time>2016-10-08T15:01:18Z</time><course>33</course><type>18</type></trkpt>
      <trkpt lat="41.34838" lon="-3.3509967"><ele>1889</ele><speed>36</speed><time>2016-10-08T15:01:19Z</time><course>48</course><type>18</type></trkpt>
      <trkpt lat="41.3484366" lon="-3.3509034"><ele>1887</ele><speed>36</speed><time>2016-10-08T15:01:20Z</time><course>48</course><type>18</type></trkpt>
      <trkpt lat="41.3484916" lon="-3.3507884"><ele>1886</ele><speed>44</speed><time>2016-10-08T15:01:21Z</time><course>51</course><type>18</type></trkpt>
      <trkpt lat="41.348555" lon="-3.350685"><ele>1885</ele><speed>42</speed><time>2016-10-08T15:01:22Z</time><course>49</course><type>18</type></trkpt>
      <trkpt lat="41.3486166" lon="-3.35059"><ele>1884</ele><speed>40</speed><time>2016-10-08T15:01:23Z</time><course>47</course><type>18</type></trkpt>
      <trkpt lat="41.3486916" lon="-3.35052"><ele>1883</ele><speed>38</speed><time>2016-10-08T15:01:24Z</time><course>46</course><type>18</type></trkpt>
      <trkpt lat="41.34875" lon="-3.3504384"><ele>1882</ele><speed>36</speed><time>2016-10-08T15:01:25Z</time><course>46</course><type>18</type></trkpt>
      <trkpt lat="41.3487733" lon="-3.3502684"><ele>1880</ele><speed>28</speed><time>2016-10-08T15:01:27Z</time><course>62</course><type>18</type></trkpt>
      <trkpt lat="41.34881" lon="-3.3501051"><ele>1878</ele><speed>27</speed><time>2016-10-08T15:01:29Z</time><course>63</course><type>18</type></trkpt>
      <trkpt lat="41.348875" lon="-3.3499384"><ele>1875</ele><speed>30</speed><time>2016-10-08T15:01:31Z</time><course>59</course><type>18</type></trkpt>
      <trkpt lat="41.34892" lon="-3.34986"><ele>1874</ele><speed>31</speed><time>2016-10-08T15:01:32Z</time><course>60</course><type>18</type></trkpt>
      <trkpt lat="41.348965" lon="-3.3497584"><ele>1873</ele><speed>33</speed><time>2016-10-08T15:01:33Z</time><course>60</course><type>18</type></trkpt>
      <trkpt lat="41.3490233" lon="-3.3496634"><ele>1872</ele><speed>35</speed><time>2016-10-08T15:01:34Z</time><course>59</course><type>18</type></trkpt>
      <trkpt lat="41.3490866" lon="-3.3495651"><ele>1871</ele><speed>36</speed><time>2016-10-08T15:01:35Z</time><course>55</course><type>18</type></trkpt>
      <trkpt lat="41.3491433" lon="-3.3494717"><ele>1870</ele><speed>35</speed><time>2016-10-08T15:01:36Z</time><course>54</course><type>18</type></trkpt>
      <trkpt lat="41.3492233" lon="-3.3493734"><ele>1869</ele><speed>45</speed><time>2016-10-08T15:01:37Z</time><course>47</course><type>18</type></trkpt>
      <trkpt lat="41.3492883" lon="-3.3492684"><ele>1868</ele><speed>41</speed><time>2016-10-08T15:01:38Z</time><course>51</course><type>18</type></trkpt>
      <trkpt lat="41.3493466" lon="-3.3491567"><ele>1867</ele><speed>40</speed><time>2016-10-08T15:01:39Z</time><course>51</course><type>18</type></trkpt>
      <trkpt lat="41.349405" lon="-3.3490534"><ele>1866</ele><speed>39</speed><time>2016-10-08T15:01:40Z</time><course>50</course><type>18</type></trkpt>
      <trkpt lat="41.3494533" lon="-3.3489517"><ele>1865</ele><speed>38</speed><time>2016-10-08T15:01:41Z</time><course>51</course><type>18</type></trkpt>
      <trkpt lat="41.3495333" lon="-3.34876"><ele>1864</ele><speed>35</speed><time>2016-10-08T15:01:43Z</time><course>54</course><type>18</type></trkpt>
      <trkpt lat="41.3496099" lon="-3.3485784"><ele>1862</ele><speed>33</speed><time>2016-10-08T15:01:45Z</time><course>56</course><type>18</type></trkpt>
      <trkpt lat="41.3496633" lon="-3.3483867"><ele>1861</ele><speed>32</speed><time>2016-10-08T15:01:47Z</time><course>60</course><type>18</type></trkpt>
      <trkpt lat="41.3496666" lon="-3.3481517"><ele>1859</ele><speed>31</speed><time>2016-10-08T15:01:49Z</time><course>66</course><type>18</type></trkpt>
      <trkpt lat="41.3497083" lon="-3.3479467"><ele>1857</ele><speed>32</speed><time>2016-10-08T15:01:51Z</time><course>66</course><type>18</type></trkpt>
      <trkpt lat="41.3498066" lon="-3.3477667"><ele>1856</ele><speed>33</speed><time>2016-10-08T15:01:53Z</time><course>60</course><type>18</type></trkpt>
      <trkpt lat="41.3498733" lon="-3.34759"><ele>1854</ele><speed>33</speed><time>2016-10-08T15:01:55Z</time><course>64</course><type>18</type></trkpt>
      <trkpt lat="41.3500033" lon="-3.34744"><ele>1853</ele><speed>31</speed><time>2016-10-08T15:01:57Z</time><course>55</course><type>18</type></trkpt>
      <trkpt lat="41.3499133" lon="-3.3471984"><ele>1851</ele><speed>28</speed><time>2016-10-08T15:01:59Z</time><course>65</course><type>18</type></trkpt>
      <trkpt lat="41.3497166" lon="-3.34698"><ele>1851</ele><speed>26</speed><time>2016-10-08T15:02:00Z</time><course>84</course><type>18</type></trkpt>
      <trkpt lat="41.3496683" lon="-3.3467834"><ele>1850</ele><speed>27</speed><time>2016-10-08T15:02:01Z</time><course>91</course><type>18</type></trkpt>
      <trkpt lat="41.3496916" lon="-3.3465684"><ele>1848</ele><speed>30</speed><time>2016-10-08T15:02:03Z</time><course>85</course><type>18</type></trkpt>
      <trkpt lat="41.3497866" lon="-3.3463667"><ele>1847</ele><speed>30</speed><time>2016-10-08T15:02:05Z</time><course>74</course><type>18</type></trkpt>
      <trkpt lat="41.3498766" lon="-3.3462317"><ele>1845</ele><speed>35</speed><time>2016-10-08T15:02:08Z</time><course>48</course><type>18</type></trkpt>
      <trkpt lat="41.3499699" lon="-3.34605"><ele>1844</ele><speed>36</speed><time>2016-10-08T15:02:10Z</time><course>46</course><type>18</type></trkpt>
      <trkpt lat="41.3500466" lon="-3.3459334"><ele>1843</ele><speed>47</speed><time>2016-10-08T15:02:11Z</time><course>42</course><type>18</type></trkpt>
      <trkpt lat="41.35012" lon="-3.34582"><ele>1842</ele><speed>40</speed><time>2016-10-08T15:02:12Z</time><course>42</course><type>18</type></trkpt>
      <trkpt lat="41.3501866" lon="-3.34572"><ele>1841</ele><speed>38</speed><time>2016-10-08T15:02:13Z</time><course>41</course><type>18</type></trkpt>
      <trkpt lat="41.3502866" lon="-3.3455801"><ele>1840</ele><speed>34</speed><time>2016-10-08T15:02:15Z</time><course>42</course><type>18</type></trkpt>
      <trkpt lat="41.3503516" lon="-3.3454217"><ele>1838</ele><speed>24</speed><time>2016-10-08T15:02:18Z</time><course>45</course><type>18</type></trkpt>
      <trkpt lat="41.3504316" lon="-3.3452734"><ele>1836</ele><speed>26</speed><time>2016-10-08T15:02:20Z</time><course>50</course><type>18</type></trkpt>
      <trkpt lat="41.35052" lon="-3.3451034"><ele>1835</ele><speed>28</speed><time>2016-10-08T15:02:22Z</time><course>52</course><type>18</type></trkpt>
      <trkpt lat="41.3506383" lon="-3.344955"><ele>1833</ele><speed>31</speed><time>2016-10-08T15:02:24Z</time><course>46</course><type>18</type></trkpt>
      <trkpt lat="41.3507349" lon="-3.344795"><ele>1832</ele><speed>29</speed><time>2016-10-08T15:02:26Z</time><course>51</course><type>18</type></trkpt>
      <trkpt lat="41.3507983" lon="-3.3446484"><ele>1830</ele><speed>26</speed><time>2016-10-08T15:02:28Z</time><course>55</course><type>18</type></trkpt>
      <trkpt lat="41.3508516" lon="-3.344475"><ele>1829</ele><speed>26</speed><time>2016-10-08T15:02:30Z</time><course>56</course><type>18</type></trkpt>
      <trkpt lat="41.3509216" lon="-3.3443184"><ele>1827</ele><speed>25</speed><time>2016-10-08T15:02:32Z</time><course>53</course><type>18</type></trkpt>
      <trkpt lat="41.3509599" lon="-3.3441184"><ele>1824</ele><speed>18</speed><time>2016-10-08T15:02:36Z</time><course>64</course><type>18</type></trkpt>
      <trkpt lat="41.351045" lon="-3.3439717"><ele>1823</ele><speed>23</speed><time>2016-10-08T15:02:38Z</time><course>52</course><type>18</type></trkpt>
      <trkpt lat="41.3511266" lon="-3.3438017"><ele>1821</ele><speed>27</speed><time>2016-10-08T15:02:40Z</time><course>45</course><type>18</type></trkpt>
      <trkpt lat="41.35127" lon="-3.3436867"><ele>1820</ele><speed>34</speed><time>2016-10-08T15:02:42Z</time><course>38</course><type>18</type></trkpt>
      <trkpt lat="41.3513666" lon="-3.3435667"><ele>1819</ele><speed>31</speed><time>2016-10-08T15:02:44Z</time><course>39</course><type>18</type></trkpt>
      <trkpt lat="41.35151" lon="-3.34344"><ele>1818</ele><speed>37</speed><time>2016-10-08T15:02:46Z</time><course>35</course><type>18</type></trkpt>
      <trkpt lat="41.351645" lon="-3.3433167"><ele>1817</ele><speed>34</speed><time>2016-10-08T15:02:48Z</time><course>35</course><type>18</type></trkpt>
      <trkpt lat="41.35178" lon="-3.3431884"><ele>1815</ele><speed>27</speed><time>2016-10-08T15:02:51Z</time><course>33</course><type>18</type></trkpt>
      <trkpt lat="41.3519166" lon="-3.3431184"><ele>1814</ele><speed>22</speed><time>2016-10-08T15:02:54Z</time><course>28</course><type>18</type></trkpt>
      <trkpt lat="41.3520716" lon="-3.34314"><ele>1813</ele><speed>21</speed><time>2016-10-08T15:02:57Z</time><course>14</course><type>18</type></trkpt>
      <trkpt lat="41.352275" lon="-3.343135"><ele>1811</ele><speed>22</speed><time>2016-10-08T15:03:00Z</time><course>8</course><type>18</type></trkpt>
      <trkpt lat="41.35227" lon="-3.3428267"><ele>1811</ele><speed>24</speed><time>2016-10-08T15:03:01Z</time><course>16</course><type>18</type></trkpt>
      <trkpt lat="41.3522816" lon="-3.3424917"><ele>1810</ele><speed>38</speed><time>2016-10-08T15:03:03Z</time><course>27</course><type>18</type></trkpt>
      <trkpt lat="41.35458" lon="-3.3399067"><ele>1822</ele><speed>66</speed><time>2016-10-08T15:03:19Z</time><course>66</course><type>18</type></trkpt>
      <trkpt lat="41.3547733" lon="-3.3397067"><ele>1819</ele><speed>37</speed><time>2016-10-08T15:03:21Z</time><course>56</course><type>18</type></trkpt>
      <trkpt lat="41.3548899" lon="-3.3394384"><ele>1815</ele><speed>49</speed><time>2016-10-08T15:03:23Z</time><course>54</course><type>18</type></trkpt>
      <trkpt lat="41.3550016" lon="-3.3393367"><ele>1813</ele><speed>56</speed><time>2016-10-08T15:03:24Z</time><course>51</course><type>18</type></trkpt>
      <trkpt lat="41.3553616" lon="-3.33978"><ele>1768</ele><speed>59</speed><time>2016-10-08T15:03:25Z</time><course>47</course><type>18</type></trkpt>
      <trkpt lat="41.3555033" lon="-3.33975"><ele>1757</ele><speed>60</speed><time>2016-10-08T15:03:26Z</time><course>45</course><type>18</type></trkpt>
      <trkpt lat="41.3555933" lon="-3.3396584"><ele>1751</ele><speed>61</speed><time>2016-10-08T15:03:27Z</time><course>44</course><type>18</type></trkpt>
      <trkpt lat="41.35568" lon="-3.3395317"><ele>1746</ele><speed>63</speed><time>2016-10-08T15:03:28Z</time><course>43</course><type>18</type></trkpt>
      <trkpt lat="41.3556716" lon="-3.3393734"><ele>1733</ele><speed>63</speed><time>2016-10-08T15:03:29Z</time><course>47</course><type>18</type></trkpt>
      <trkpt lat="41.3554883" lon="-3.3392234"><ele>1715</ele><speed>57</speed><time>2016-10-08T15:03:30Z</time><course>71</course><type>18</type></trkpt>
      <trkpt lat="41.3553966" lon="-3.3390284"><ele>1699</ele><speed>57</speed><time>2016-10-08T15:03:31Z</time><course>78</course><type>18</type></trkpt>
      <trkpt lat="41.3553666" lon="-3.3388517"><ele>1690</ele><speed>56</speed><time>2016-10-08T15:03:32Z</time><course>81</course><type>18</type></trkpt>
      <trkpt lat="41.3553133" lon="-3.33866"><ele>1680</ele><speed>56</speed><time>2016-10-08T15:03:33Z</time><course>84</course><type>18</type></trkpt>
      <trkpt lat="41.3552233" lon="-3.3384667"><ele>1668</ele><speed>55</speed><time>2016-10-08T15:03:34Z</time><course>89</course><type>18</type></trkpt>
      <trkpt lat="41.3551833" lon="-3.3382834"><ele>1663</ele><speed>55</speed><time>2016-10-08T15:03:35Z</time><course>93</course><type>18</type></trkpt>
      <trkpt lat="41.3551083" lon="-3.33807"><ele>1655</ele><speed>66</speed><time>2016-10-08T15:03:36Z</time><course>93</course><type>18</type></trkpt>
      <trkpt lat="41.3549983" lon="-3.337845"><ele>1650</ele><speed>70</speed><time>2016-10-08T15:03:37Z</time><course>103</course><type>18</type></trkpt>
      <trkpt lat="41.3549433" lon="-3.33762"><ele>1647</ele><speed>70</speed><time>2016-10-08T15:03:38Z</time><course>102</course><type>18</type></trkpt>
      <trkpt lat="41.3549033" lon="-3.3374134"><ele>1643</ele><speed>67</speed><time>2016-10-08T15:03:39Z</time><course>102</course><type>18</type></trkpt>
      <trkpt lat="41.3548733" lon="-3.3372"><ele>1638</ele><speed>67</speed><time>2016-10-08T15:03:40Z</time><course>100</course><type>18</type></trkpt>
      <trkpt lat="41.3548683" lon="-3.3370117"><ele>1632</ele><speed>62</speed><time>2016-10-08T15:03:41Z</time><course>94</course><type>18</type></trkpt>
      <trkpt lat="41.3548116" lon="-3.33687"><ele>1625</ele><speed>64</speed><time>2016-10-08T15:03:42Z</time><course>99</course><type>18</type></trkpt>
      <trkpt lat="41.354735" lon="-3.3367084"><ele>1619</ele><speed>62</speed><time>2016-10-08T15:03:43Z</time><course>107</course><type>18</type></trkpt>
      <trkpt lat="41.3546466" lon="-3.336555"><ele>1615</ele><speed>61</speed><time>2016-10-08T15:03:44Z</time><course>113</course><type>18</type></trkpt>
      <trkpt lat="41.3545366" lon="-3.3364167"><ele>1607</ele><speed>62</speed><time>2016-10-08T15:03:45Z</time><course>118</course><type>18</type></trkpt>
      <trkpt lat="41.3544233" lon="-3.3362817"><ele>1603</ele><speed>63</speed><time>2016-10-08T15:03:46Z</time><course>122</course><type>18</type></trkpt>
      <trkpt lat="41.3543116" lon="-3.336145"><ele>1598</ele><speed>62</speed><time>2016-10-08T15:03:47Z</time><course>125</course><type>18</type></trkpt>
      <trkpt lat="41.3542" lon="-3.3360184"><ele>1594</ele><speed>61</speed><time>2016-10-08T15:03:48Z</time><course>127</course><type>18</type></trkpt>
      <trkpt lat="41.3540833" lon="-3.335905"><ele>1590</ele><speed>60</speed><time>2016-10-08T15:03:49Z</time><course>129</course><type>18</type></trkpt>
      <trkpt lat="41.3539666" lon="-3.3357884"><ele>1586</ele><speed>60</speed><time>2016-10-08T15:03:50Z</time><course>132</course><type>18</type></trkpt>
      <trkpt lat="41.35385" lon="-3.3356767"><ele>1582</ele><speed>60</speed><time>2016-10-08T15:03:51Z</time><course>133</course><type>18</type></trkpt>
      <trkpt lat="41.353735" lon="-3.3355617"><ele>1579</ele><speed>61</speed><time>2016-10-08T15:03:52Z</time><course>134</course><type>18</type></trkpt>
      <trkpt lat="41.3535933" lon="-3.3354184"><ele>1576</ele><speed>73</speed><time>2016-10-08T15:03:53Z</time><course>135</course><type>18</type></trkpt>
      <trkpt lat="41.3534616" lon="-3.3352767"><ele>1573</ele><speed>68</speed><time>2016-10-08T15:03:54Z</time><course>134</course><type>18</type></trkpt>
      <trkpt lat="41.353345" lon="-3.3351334"><ele>1572</ele><speed>67</speed><time>2016-10-08T15:03:55Z</time><course>134</course><type>18</type></trkpt>
      <trkpt lat="41.3532166" lon="-3.3350084"><ele>1570</ele><speed>66</speed><time>2016-10-08T15:03:56Z</time><course>136</course><type>18</type></trkpt>
      <trkpt lat="41.3530999" lon="-3.334895"><ele>1569</ele><speed>63</speed><time>2016-10-08T15:03:57Z</time><course>137</course><type>18</type></trkpt>
      <trkpt lat="41.3529683" lon="-3.3347734"><ele>1568</ele><speed>64</speed><time>2016-10-08T15:03:58Z</time><course>139</course><type>18</type></trkpt>
      <trkpt lat="41.3528816" lon="-3.334635"><ele>1567</ele><speed>61</speed><time>2016-10-08T15:03:59Z</time><course>136</course><type>18</type></trkpt>
      <trkpt lat="41.3528383" lon="-3.334485"><ele>1566</ele><speed>58</speed><time>2016-10-08T15:04:00Z</time><course>130</course><type>18</type></trkpt>
      <trkpt lat="41.3527933" lon="-3.3343334"><ele>1565</ele><speed>55</speed><time>2016-10-08T15:04:01Z</time><course>124</course><type>18</type></trkpt>
      <trkpt lat="41.3527533" lon="-3.3341834"><ele>1563</ele><speed>53</speed><time>2016-10-08T15:04:02Z</time><course>120</course><type>18</type></trkpt>
      <trkpt lat="41.3526983" lon="-3.3340301"><ele>1560</ele><speed>53</speed><time>2016-10-08T15:04:03Z</time><course>120</course><type>18</type></trkpt>
      <trkpt lat="41.352665" lon="-3.3338984"><ele>1556</ele><speed>54</speed><time>2016-10-08T15:04:04Z</time><course>123</course><type>18</type></trkpt>
      <trkpt lat="41.35262" lon="-3.3337834"><ele>1552</ele><speed>55</speed><time>2016-10-08T15:04:05Z</time><course>126</course><type>18</type></trkpt>
      <trkpt lat="41.3525583" lon="-3.3336534"><ele>1549</ele><speed>56</speed><time>2016-10-08T15:04:06Z</time><course>127</course><type>18</type></trkpt>
      <trkpt lat="41.3524916" lon="-3.3335184"><ele>1546</ele><speed>56</speed><time>2016-10-08T15:04:07Z</time><course>126</course><type>18</type></trkpt>
      <trkpt lat="41.3524249" lon="-3.3333834"><ele>1542</ele><speed>55</speed><time>2016-10-08T15:04:08Z</time><course>126</course><type>18</type></trkpt>
      <trkpt lat="41.35236" lon="-3.3332434"><ele>1538</ele><speed>57</speed><time>2016-10-08T15:04:09Z</time><course>126</course><type>18</type></trkpt>
      <trkpt lat="41.3522766" lon="-3.3330934"><ele>1535</ele><speed>68</speed><time>2016-10-08T15:04:10Z</time><course>127</course><type>18</type></trkpt>
      <trkpt lat="41.3522016" lon="-3.332925"><ele>1531</ele><speed>64</speed><time>2016-10-08T15:04:11Z</time><course>125</course><type>18</type></trkpt>
      <trkpt lat="41.3521116" lon="-3.3327667"><ele>1529</ele><speed>62</speed><time>2016-10-08T15:04:12Z</time><course>127</course><type>18</type></trkpt>
      <trkpt lat="41.3520316" lon="-3.332635"><ele>1527</ele><speed>58</speed><time>2016-10-08T15:04:13Z</time><course>128</course><type>18</type></trkpt>
      <trkpt lat="41.3519533" lon="-3.3325167"><ele>1523</ele><speed>52</speed><time>2016-10-08T15:04:14Z</time><course>132</course><type>18</type></trkpt>
      <trkpt lat="41.3519266" lon="-3.3324117"><ele>1522</ele><speed>42</speed><time>2016-10-08T15:04:15Z</time><course>128</course><type>18</type></trkpt>
      <trkpt lat="41.35187" lon="-3.3322767"><ele>1520</ele><speed>47</speed><time>2016-10-08T15:04:16Z</time><course>127</course><type>18</type></trkpt>
      <trkpt lat="41.3517949" lon="-3.332135"><ele>1518</ele><speed>51</speed><time>2016-10-08T15:04:17Z</time><course>128</course><type>18</type></trkpt>
      <trkpt lat="41.35172" lon="-3.33199"><ele>1516</ele><speed>55</speed><time>2016-10-08T15:04:18Z</time><course>127</course><type>18</type></trkpt>
      <trkpt lat="41.3516416" lon="-3.3318084"><ele>1515</ele><speed>59</speed><time>2016-10-08T15:04:19Z</time><course>125</course><type>18</type></trkpt>
      <trkpt lat="41.35156" lon="-3.3316267"><ele>1513</ele><speed>62</speed><time>2016-10-08T15:04:20Z</time><course>124</course><type>18</type></trkpt>
      <trkpt lat="41.35148" lon="-3.331455"><ele>1511</ele><speed>62</speed><time>2016-10-08T15:04:21Z</time><course>123</course><type>18</type></trkpt>
      <trkpt lat="41.3514016" lon="-3.3312817"><ele>1509</ele><speed>62</speed><time>2016-10-08T15:04:22Z</time><course>123</course><type>18</type></trkpt>
      <trkpt lat="41.3513183" lon="-3.3311134"><ele>1507</ele><speed>59</speed><time>2016-10-08T15:04:23Z</time><course>126</course><type>18</type></trkpt>
      <trkpt lat="41.3512316" lon="-3.3309467"><ele>1505</ele><speed>58</speed><time>2016-10-08T15:04:24Z</time><course>126</course><type>18</type></trkpt>
      <trkpt lat="41.3511466" lon="-3.33078"><ele>1503</ele><speed>59</speed><time>2016-10-08T15:04:25Z</time><course>126</course><type>18</type></trkpt>
      <trkpt lat="41.3510633" lon="-3.3305984"><ele>1501</ele><speed>62</speed><time>2016-10-08T15:04:26Z</time><course>125</course><type>18</type></trkpt>
      <trkpt lat="41.350965" lon="-3.330395"><ele>1498</ele><speed>77</speed><time>2016-10-08T15:04:27Z</time><course>125</course><type>18</type></trkpt>
      <trkpt lat="41.3508616" lon="-3.33022"><ele>1496</ele><speed>60</speed><time>2016-10-08T15:04:28Z</time><course>129</course><type>18</type></trkpt>
      <trkpt lat="41.3507483" lon="-3.3300734"><ele>1493</ele><speed>53</speed><time>2016-10-08T15:04:29Z</time><course>140</course><type>18</type></trkpt>
      <trkpt lat="41.3506383" lon="-3.329935"><ele>1490</ele><speed>61</speed><time>2016-10-08T15:04:30Z</time><course>140</course><type>18</type></trkpt>
      <trkpt lat="41.350525" lon="-3.3298"><ele>1487</ele><speed>62</speed><time>2016-10-08T15:04:31Z</time><course>140</course><type>18</type></trkpt>
      <trkpt lat="41.3504033" lon="-3.3296617"><ele>1484</ele><speed>66</speed><time>2016-10-08T15:04:32Z</time><course>140</course><type>18</type></trkpt>
      <trkpt lat="41.3502716" lon="-3.32952"><ele>1482</ele><speed>70</speed><time>2016-10-08T15:04:33Z</time><course>141</course><type>18</type></trkpt>
      <trkpt lat="41.35014" lon="-3.329375"><ele>1480</ele><speed>71</speed><time>2016-10-08T15:04:34Z</time><course>141</course><type>18</type></trkpt>
      <trkpt lat="41.3500066" lon="-3.3292334"><ele>1478</ele><speed>71</speed><time>2016-10-08T15:04:35Z</time><course>141</course><type>18</type></trkpt>
      <trkpt lat="41.349875" lon="-3.3290984"><ele>1476</ele><speed>71</speed><time>2016-10-08T15:04:36Z</time><course>142</course><type>18</type></trkpt>
      <trkpt lat="41.3497666" lon="-3.3289634"><ele>1474</ele><speed>68</speed><time>2016-10-08T15:04:37Z</time><course>140</course><type>18</type></trkpt>
      <trkpt lat="41.3496533" lon="-3.32886"><ele>1472</ele><speed>64</speed><time>2016-10-08T15:04:38Z</time><course>141</course><type>18</type></trkpt>
      <trkpt lat="41.3495466" lon="-3.3287317"><ele>1470</ele><speed>61</speed><time>2016-10-08T15:04:39Z</time><course>140</course><type>18</type></trkpt>
      <trkpt lat="41.3494416" lon="-3.3286084"><ele>1468</ele><speed>60</speed><time>2016-10-08T15:04:40Z</time><course>139</course><type>18</type></trkpt>
      <trkpt lat="41.3493416" lon="-3.3284684"><ele>1466</ele><speed>59</speed><time>2016-10-08T15:04:41Z</time><course>138</course><type>18</type></trkpt>
      <trkpt lat="41.3492333" lon="-3.3283267"><ele>1464</ele><speed>62</speed><time>2016-10-08T15:04:42Z</time><course>137</course><type>18</type></trkpt>
      <trkpt lat="41.3491316" lon="-3.3281784"><ele>1462</ele><speed>67</speed><time>2016-10-08T15:04:43Z</time><course>136</course><type>18</type></trkpt>
      <trkpt lat="41.34901" lon="-3.328005"><ele>1460</ele><speed>76</speed><time>2016-10-08T15:04:44Z</time><course>135</course><type>18</type></trkpt>
      <trkpt lat="41.3488866" lon="-3.3278484"><ele>1458</ele><speed>73</speed><time>2016-10-08T15:04:45Z</time><course>136</course><type>18</type></trkpt>
      <trkpt lat="41.34876" lon="-3.3276917"><ele>1456</ele><speed>71</speed><time>2016-10-08T15:04:46Z</time><course>136</course><type>18</type></trkpt>
      <trkpt lat="41.3486483" lon="-3.327565"><ele>1455</ele><speed>67</speed><time>2016-10-08T15:04:47Z</time><course>136</course><type>18</type></trkpt>
      <trkpt lat="41.348525" lon="-3.3274167"><ele>1453</ele><speed>67</speed><time>2016-10-08T15:04:48Z</time><course>137</course><type>18</type></trkpt>
      <trkpt lat="41.3484066" lon="-3.3272867"><ele>1452</ele><speed>66</speed><time>2016-10-08T15:04:49Z</time><course>136</course><type>18</type></trkpt>
      <trkpt lat="41.3482966" lon="-3.32717"><ele>1452</ele><speed>64</speed><time>2016-10-08T15:04:50Z</time><course>137</course><type>18</type></trkpt>
      <trkpt lat="41.348195" lon="-3.3270817"><ele>1450</ele><speed>60</speed><time>2016-10-08T15:04:51Z</time><course>138</course><type>18</type></trkpt>
      <trkpt lat="41.348095" lon="-3.3270184"><ele>1449</ele><speed>56</speed><time>2016-10-08T15:04:52Z</time><course>140</course><type>18</type></trkpt>
      <trkpt lat="41.3480283" lon="-3.3268867"><ele>1448</ele><speed>54</speed><time>2016-10-08T15:04:53Z</time><course>137</course><type>18</type></trkpt>
      <trkpt lat="41.3479433" lon="-3.3266667"><ele>1444</ele><speed>50</speed><time>2016-10-08T15:04:55Z</time><course>130</course><type>18</type></trkpt>
      <trkpt lat="41.347875" lon="-3.326545"><ele>1443</ele><speed>51</speed><time>2016-10-08T15:04:56Z</time><course>127</course><type>18</type></trkpt>
      <trkpt lat="41.3478433" lon="-3.32638"><ele>1440</ele><speed>52</speed><time>2016-10-08T15:04:57Z</time><course>122</course><type>18</type></trkpt>
      <trkpt lat="41.3478433" lon="-3.326245"><ele>1437</ele><speed>55</speed><time>2016-10-08T15:04:58Z</time><course>113</course><type>18</type></trkpt>
      <trkpt lat="41.3478466" lon="-3.3260917"><ele>1435</ele><speed>54</speed><time>2016-10-08T15:04:59Z</time><course>108</course><type>18</type></trkpt>
      <trkpt lat="41.3478483" lon="-3.3259434"><ele>1433</ele><speed>56</speed><time>2016-10-08T15:05:00Z</time><course>100</course><type>18</type></trkpt>
      <trkpt lat="41.3478783" lon="-3.3257817"><ele>1431</ele><speed>55</speed><time>2016-10-08T15:05:01Z</time><course>96</course><type>18</type></trkpt>
      <trkpt lat="41.347935" lon="-3.3256234"><ele>1429</ele><speed>53</speed><time>2016-10-08T15:05:02Z</time><course>91</course><type>18</type></trkpt>
      <trkpt lat="41.3479566" lon="-3.3254434"><ele>1428</ele><speed>52</speed><time>2016-10-08T15:05:03Z</time><course>90</course><type>18</type></trkpt>
      <trkpt lat="41.347965" lon="-3.3252934"><ele>1427</ele><speed>48</speed><time>2016-10-08T15:05:04Z</time><course>97</course><type>18</type></trkpt>
      <trkpt lat="41.3479866" lon="-3.3251184"><ele>1425</ele><speed>48</speed><time>2016-10-08T15:05:05Z</time><course>95</course><type>18</type></trkpt>
      <trkpt lat="41.3480116" lon="-3.324965"><ele>1424</ele><speed>47</speed><time>2016-10-08T15:05:06Z</time><course>93</course><type>18</type></trkpt>
      <trkpt lat="41.348145" lon="-3.3247634"><ele>1422</ele><speed>41</speed><time>2016-10-08T15:05:08Z</time><course>84</course><type>18</type></trkpt>
      <trkpt lat="41.3482866" lon="-3.3247134"><ele>1420</ele><speed>38</speed><time>2016-10-08T15:05:09Z</time><course>73</course><type>18</type></trkpt>
      <trkpt lat="41.3484399" lon="-3.3246934"><ele>1419</ele><speed>37</speed><time>2016-10-08T15:05:10Z</time><course>58</course><type>18</type></trkpt>
      <trkpt lat="41.34855" lon="-3.3246434"><ele>1418</ele><speed>36</speed><time>2016-10-08T15:05:11Z</time><course>52</course><type>18</type></trkpt>
      <trkpt lat="41.34866" lon="-3.3245984"><ele>1416</ele><speed>36</speed><time>2016-10-08T15:05:12Z</time><course>47</course><type>18</type></trkpt>
      <trkpt lat="41.3487733" lon="-3.32456"><ele>1415</ele><speed>36</speed><time>2016-10-08T15:05:13Z</time><course>43</course><type>18</type></trkpt>
      <trkpt lat="41.3488916" lon="-3.32452"><ele>1414</ele><speed>36</speed><time>2016-10-08T15:05:14Z</time><course>42</course><type>18</type></trkpt>
      <trkpt lat="41.3490283" lon="-3.3244934"><ele>1412</ele><speed>36</speed><time>2016-10-08T15:05:15Z</time><course>39</course><type>18</type></trkpt>
      <trkpt lat="41.3491666" lon="-3.3244684"><ele>1411</ele><speed>36</speed><time>2016-10-08T15:05:16Z</time><course>37</course><type>18</type></trkpt>
      <trkpt lat="41.3492783" lon="-3.32444"><ele>1410</ele><speed>35</speed><time>2016-10-08T15:05:17Z</time><course>34</course><type>18</type></trkpt>
      <trkpt lat="41.3493966" lon="-3.3244234"><ele>1408</ele><speed>35</speed><time>2016-10-08T15:05:18Z</time><course>30</course><type>18</type></trkpt>
      <trkpt lat="41.3495" lon="-3.3243834"><ele>1407</ele><speed>37</speed><time>2016-10-08T15:05:19Z</time><course>30</course><type>18</type></trkpt>
      <trkpt lat="41.3496033" lon="-3.32434"><ele>1406</ele><speed>39</speed><time>2016-10-08T15:05:20Z</time><course>28</course><type>18</type></trkpt>
      <trkpt lat="41.3496916" lon="-3.3242767"><ele>1405</ele><speed>39</speed><time>2016-10-08T15:05:21Z</time><course>29</course><type>18</type></trkpt>
      <trkpt lat="41.3497833" lon="-3.3242034"><ele>1404</ele><speed>40</speed><time>2016-10-08T15:05:22Z</time><course>30</course><type>18</type></trkpt>
      <trkpt lat="41.3498916" lon="-3.32414"><ele>1403</ele><speed>42</speed><time>2016-10-08T15:05:23Z</time><course>29</course><type>18</type></trkpt>
      <trkpt lat="41.350005" lon="-3.3240967"><ele>1402</ele><speed>41</speed><time>2016-10-08T15:05:24Z</time><course>25</course><type>18</type></trkpt>
      <trkpt lat="41.3501516" lon="-3.3241234"><ele>1401</ele><speed>41</speed><time>2016-10-08T15:05:25Z</time><course>14</course><type>18</type></trkpt>
      <trkpt lat="41.3502716" lon="-3.3241834"><ele>1399</ele><speed>31</speed><time>2016-10-08T15:05:27Z</time><course>357</course><type>18</type></trkpt>
      <trkpt lat="41.350385" lon="-3.3242984"><ele>1393</ele><speed>19</speed><time>2016-10-08T15:05:32Z</time><course>339</course><type>18</type></trkpt>
      <trkpt lat="41.3505099" lon="-3.3244584"><ele>1389</ele><speed>25</speed><time>2016-10-08T15:05:35Z</time><course>333</course><type>18</type></trkpt>
      <trkpt lat="41.35062" lon="-3.3245467"><ele>1387</ele><speed>24</speed><time>2016-10-08T15:05:37Z</time><course>336</course><type>18</type></trkpt>
      <trkpt lat="41.3507116" lon="-3.3245934"><ele>1385</ele><speed>22</speed><time>2016-10-08T15:05:39Z</time><course>338</course><type>18</type></trkpt>
      <trkpt lat="41.3508216" lon="-3.3246967"><ele>1382</ele><speed>20</speed><time>2016-10-08T15:05:42Z</time><course>332</course><type>18</type></trkpt>
      <trkpt lat="41.3509233" lon="-3.32473"><ele>1379</ele><speed>17</speed><time>2016-10-08T15:05:45Z</time><course>334</course><type>18</type></trkpt>
      <trkpt lat="41.35101" lon="-3.3247834"><ele>1377</ele><speed>19</speed><time>2016-10-08T15:05:47Z</time><course>328</course><type>18</type></trkpt>
      <trkpt lat="41.3510683" lon="-3.324885"><ele>1374</ele><speed>19</speed><time>2016-10-08T15:05:50Z</time><course>315</course><type>18</type></trkpt>
      <trkpt lat="41.3510983" lon="-3.3250234"><ele>1372</ele><speed>26</speed><time>2016-10-08T15:05:52Z</time><course>299</course><type>18</type></trkpt>
      <trkpt lat="41.3511383" lon="-3.3251684"><ele>1371</ele><speed>26</speed><time>2016-10-08T15:05:54Z</time><course>297</course><type>18</type></trkpt>
      <trkpt lat="41.3512" lon="-3.3252967"><ele>1369</ele><speed>25</speed><time>2016-10-08T15:05:56Z</time><course>299</course><type>18</type></trkpt>
      <trkpt lat="41.3513033" lon="-3.3253717"><ele>1367</ele><speed>18</speed><time>2016-10-08T15:05:59Z</time><course>306</course><type>18</type></trkpt>
      <trkpt lat="41.3513316" lon="-3.325545"><ele>1363</ele><speed>19</speed><time>2016-10-08T15:06:03Z</time><course>277</course><type>18</type></trkpt>
      <trkpt lat="41.3513366" lon="-3.3257067"><ele>1362</ele><speed>23</speed><time>2016-10-08T15:06:05Z</time><course>277</course><type>18</type></trkpt>
      <trkpt lat="41.3513199" lon="-3.325895"><ele>1360</ele><speed>25</speed><time>2016-10-08T15:06:07Z</time><course>271</course><type>18</type></trkpt>
      <trkpt lat="41.3512116" lon="-3.3259717"><ele>1359</ele><speed>32</speed><time>2016-10-08T15:06:08Z</time><course>282</course><type>18</type></trkpt>
      <trkpt lat="41.3512116" lon="-3.3260967"><ele>1358</ele><speed>33</speed><time>2016-10-08T15:06:09Z</time><course>282</course><type>18</type></trkpt>
      <trkpt lat="41.3511633" lon="-3.3263"><ele>1356</ele><speed>31</speed><time>2016-10-08T15:06:11Z</time><course>279</course><type>18</type></trkpt>
      <trkpt lat="41.3511783" lon="-3.3264834"><ele>1355</ele><speed>30</speed><time>2016-10-08T15:06:13Z</time><course>277</course><type>18</type></trkpt>
      <trkpt lat="41.35118" lon="-3.3266284"><ele>1354</ele><speed>26</speed><time>2016-10-08T15:06:15Z</time><course>275</course><type>18</type></trkpt>
      <trkpt lat="41.3510366" lon="-3.3266717"><ele>1353</ele><speed>19</speed><time>2016-10-08T15:06:17Z</time><course>250</course><type>18</type></trkpt>
      <trkpt lat="41.351105" lon="-3.3268817"><ele>1350</ele><speed>27</speed><time>2016-10-08T15:06:20Z</time><course>295</course><type>18</type></trkpt>
      <trkpt lat="41.3511416" lon="-3.327035"><ele>1349</ele><speed>25</speed><time>2016-10-08T15:06:22Z</time><course>301</course><type>18</type></trkpt>
      <trkpt lat="41.3512333" lon="-3.3271284"><ele>1346</ele><speed>26</speed><time>2016-10-08T15:06:25Z</time><course>310</course><type>18</type></trkpt>
      <trkpt lat="41.3513183" lon="-3.3273267"><ele>1345</ele><speed>12</speed><time>2016-10-08T15:06:27Z</time><course>247</course><type>18</type></trkpt>
      <trkpt lat="41.3513333" lon="-3.3274517"><ele>1344</ele><speed>24</speed><time>2016-10-08T15:06:28Z</time><course>240</course><type>18</type></trkpt>
      <trkpt lat="41.3514116" lon="-3.3275334"><ele>1342</ele><speed>18</speed><time>2016-10-08T15:06:30Z</time><course>282</course><type>18</type></trkpt>
      <trkpt lat="41.3515233" lon="-3.3277017"><ele>1339</ele><speed>22</speed><time>2016-10-08T15:06:32Z</time><course>295</course><type>18</type></trkpt>
      <trkpt lat="41.35158" lon="-3.3278417"><ele>1338</ele><speed>22</speed><time>2016-10-08T15:06:33Z</time><course>296</course><type>18</type></trkpt>
      <trkpt lat="41.35162" lon="-3.3279517"><ele>1337</ele><speed>21</speed><time>2016-10-08T15:06:34Z</time><course>296</course><type>18</type></trkpt>
      <trkpt lat="41.3516533" lon="-3.3280367"><ele>1336</ele><speed>20</speed><time>2016-10-08T15:06:35Z</time><course>294</course><type>18</type></trkpt>
      <trkpt lat="41.3517066" lon="-3.3281817"><ele>1334</ele><speed>19</speed><time>2016-10-08T15:06:37Z</time><course>293</course><type>18</type></trkpt>
      <trkpt lat="41.3517683" lon="-3.32831"><ele>1333</ele><speed>22</speed><time>2016-10-08T15:06:39Z</time><course>298</course><type>18</type></trkpt>
      <trkpt lat="41.3518216" lon="-3.3284384"><ele>1330</ele><speed>25</speed><time>2016-10-08T15:06:41Z</time><course>288</course><type>18</type></trkpt>
      <trkpt lat="41.3518533" lon="-3.3285317"><ele>1329</ele><speed>38</speed><time>2016-10-08T15:06:42Z</time><course>286</course><type>18</type></trkpt>
      <trkpt lat="41.3518933" lon="-3.3286151"><ele>1326</ele><speed>11</speed><time>2016-10-08T15:06:44Z</time><course>274</course><type>18</type></trkpt>
      <trkpt lat="41.3519216" lon="-3.3287184"><ele>1323</ele><speed>16</speed><time>2016-10-08T15:06:46Z</time><course>280</course><type>18</type></trkpt>
      <trkpt lat="41.351915" lon="-3.3288184"><ele>1320</ele><speed>19</speed><time>2016-10-08T15:06:48Z</time><course>283</course><type>18</type></trkpt>
      <trkpt lat="41.3519333" lon="-3.3289284"><ele>1315</ele><speed>15</speed><time>2016-10-08T15:06:51Z</time><course>298</course><type>18</type></trkpt>
      <trkpt lat="41.3519266" lon="-3.3290417"><ele>1312</ele><speed>13</speed><time>2016-10-08T15:06:54Z</time><course>276</course><type>18</type></trkpt>
      <trkpt lat="41.351945" lon="-3.329165"><ele>1307</ele><speed>16</speed><time>2016-10-08T15:06:57Z</time><course>292</course><type>18</type></trkpt>
      <trkpt lat="41.3520416" lon="-3.3292451"><ele>1304</ele><speed>19</speed><time>2016-10-08T15:07:00Z</time><course>323</course><type>18</type></trkpt>
      <trkpt lat="41.3521766" lon="-3.32933"><ele>1299</ele><speed>22</speed><time>2016-10-08T15:07:02Z</time><course>325</course><type>18</type></trkpt>
      <trkpt lat="41.3522483" lon="-3.3294"><ele>1297</ele><speed>24</speed><time>2016-10-08T15:07:03Z</time><course>322</course><type>18</type></trkpt>
      <trkpt lat="41.3523233" lon="-3.32955"><ele>1294</ele><speed>23</speed><time>2016-10-08T15:07:05Z</time><course>313</course><type>18</type></trkpt>
      <trkpt lat="41.3523833" lon="-3.3297067"><ele>1288</ele><speed>16</speed><time>2016-10-08T15:07:08Z</time><course>301</course><type>18</type></trkpt>
      <trkpt lat="41.3524716" lon="-3.3297467"><ele>1287</ele><speed>21</speed><time>2016-10-08T15:07:09Z</time><course>312</course><type>18</type></trkpt>
      <trkpt lat="41.3525966" lon="-3.329825"><ele>1283</ele><speed>22</speed><time>2016-10-08T15:07:11Z</time><course>317</course><type>18</type></trkpt>
      <trkpt lat="41.3527133" lon="-3.3299234"><ele>1279</ele><speed>22</speed><time>2016-10-08T15:07:13Z</time><course>318</course><type>18</type></trkpt>
      <trkpt lat="41.3528266" lon="-3.3300117"><ele>1276</ele><speed>24</speed><time>2016-10-08T15:07:15Z</time><course>320</course><type>18</type></trkpt>
      <trkpt lat="41.3529316" lon="-3.3301117"><ele>1272</ele><speed>28</speed><time>2016-10-08T15:07:17Z</time><course>324</course><type>18</type></trkpt>
      <trkpt lat="41.3530366" lon="-3.3302234"><ele>1271</ele><speed>27</speed><time>2016-10-08T15:07:19Z</time><course>324</course><type>18</type></trkpt>
      <trkpt lat="41.3531433" lon="-3.3303017"><ele>1270</ele><speed>24</speed><time>2016-10-08T15:07:21Z</time><course>326</course><type>18</type></trkpt>
      <trkpt lat="41.353175" lon="-3.3304501"><ele>1267</ele><speed>15</speed><time>2016-10-08T15:07:24Z</time><course>304</course><type>18</type></trkpt>
      <trkpt lat="41.3532083" lon="-3.3305967"><ele>1266</ele><speed>21</speed><time>2016-10-08T15:07:26Z</time><course>292</course><type>18</type></trkpt>
      <trkpt lat="41.3532733" lon="-3.3307667"><ele>1264</ele><speed>29</speed><time>2016-10-08T15:07:28Z</time><course>298</course><type>18</type></trkpt>
      <trkpt lat="41.3533266" lon="-3.330925"><ele>1263</ele><speed>27</speed><time>2016-10-08T15:07:30Z</time><course>288</course><type>18</type></trkpt>
      <trkpt lat="41.3533516" lon="-3.3310717"><ele>1261</ele><speed>22</speed><time>2016-10-08T15:07:32Z</time><course>281</course><type>18</type></trkpt>
      <trkpt lat="41.35335" lon="-3.331255"><ele>1253</ele><speed>30</speed><time>2016-10-08T15:07:35Z</time><course>284</course><type>18</type></trkpt>
      <trkpt lat="41.35339" lon="-3.3314267"><ele>1252</ele><speed>27</speed><time>2016-10-08T15:07:37Z</time><course>286</course><type>18</type></trkpt>
      <trkpt lat="41.3534966" lon="-3.331545"><ele>1246</ele><speed>26</speed><time>2016-10-08T15:07:40Z</time><course>310</course><type>18</type></trkpt>
      <trkpt lat="41.35358" lon="-3.3314784"><ele>1242</ele><speed>20</speed><time>2016-10-08T15:07:42Z</time><course>319</course><type>18</type></trkpt>
      <trkpt lat="41.3536433" lon="-3.3313517"><ele>1236</ele><speed>18</speed><time>2016-10-08T15:07:46Z</time><course>310</course><type>18</type></trkpt>
      <trkpt lat="41.3537116" lon="-3.33151"><ele>1231</ele><speed>24</speed><time>2016-10-08T15:07:49Z</time><course>301</course><type>18</type></trkpt>
      <trkpt lat="41.3537716" lon="-3.3316784"><ele>1229</ele><speed>27</speed><time>2016-10-08T15:07:51Z</time><course>296</course><type>18</type></trkpt>
      <trkpt lat="41.3537833" lon="-3.3318834"><ele>1226</ele><speed>26</speed><time>2016-10-08T15:07:53Z</time><course>290</course><type>18</type></trkpt>
      <trkpt lat="41.353765" lon="-3.3320934"><ele>1224</ele><speed>24</speed><time>2016-10-08T15:07:55Z</time><course>282</course><type>18</type></trkpt>
      <trkpt lat="41.3536849" lon="-3.33221"><ele>1222</ele><speed>16</speed><time>2016-10-08T15:07:57Z</time><course>256</course><type>18</type></trkpt>
      <trkpt lat="41.3536766" lon="-3.3323967"><ele>1220</ele><speed>20</speed><time>2016-10-08T15:07:59Z</time><course>275</course><type>18</type></trkpt>
      <trkpt lat="41.3537066" lon="-3.33254"><ele>1218</ele><speed>21</speed><time>2016-10-08T15:08:01Z</time><course>284</course><type>18</type></trkpt>
      <trkpt lat="41.35375" lon="-3.332705"><ele>1216</ele><speed>19</speed><time>2016-10-08T15:08:04Z</time><course>288</course><type>18</type></trkpt>
      <trkpt lat="41.3538416" lon="-3.3328317"><ele>1213</ele><speed>31</speed><time>2016-10-08T15:08:07Z</time><course>307</course><type>18</type></trkpt>
      <trkpt lat="41.353905" lon="-3.3330067"><ele>1211</ele><speed>24</speed><time>2016-10-08T15:08:09Z</time><course>297</course><type>18</type></trkpt>
      <trkpt lat="41.3539533" lon="-3.3332301"><ele>1209</ele><speed>27</speed><time>2016-10-08T15:08:11Z</time><course>289</course><type>18</type></trkpt>
      <trkpt lat="41.354075" lon="-3.3333584"><ele>1207</ele><speed>25</speed><time>2016-10-08T15:08:13Z</time><course>307</course><type>18</type></trkpt>
      <trkpt lat="41.3542083" lon="-3.3334334"><ele>1205</ele><speed>23</speed><time>2016-10-08T15:08:15Z</time><course>323</course><type>18</type></trkpt>
      <trkpt lat="41.354325" lon="-3.3334884"><ele>1203</ele><speed>17</speed><time>2016-10-08T15:08:18Z</time><course>323</course><type>18</type></trkpt>
      <trkpt lat="41.3544333" lon="-3.3335384"><ele>1201</ele><speed>20</speed><time>2016-10-08T15:08:20Z</time><course>323</course><type>18</type></trkpt>
      <trkpt lat="41.3545666" lon="-3.3335967"><ele>1198</ele><speed>22</speed><time>2016-10-08T15:08:22Z</time><course>319</course><type>18</type></trkpt>
      <trkpt lat="41.3546783" lon="-3.3336367"><ele>1195</ele><speed>17</speed><time>2016-10-08T15:08:25Z</time><course>317</course><type>18</type></trkpt>
      <trkpt lat="41.3547666" lon="-3.3337217"><ele>1192</ele><speed>16</speed><time>2016-10-08T15:08:28Z</time><course>312</course><type>18</type></trkpt>
      <trkpt lat="41.3548733" lon="-3.3337534"><ele>1190</ele><speed>12</speed><time>2016-10-08T15:08:31Z</time><course>326</course><type>18</type></trkpt>
      <trkpt lat="41.3549916" lon="-3.3337367"><ele>1188</ele><speed>15</speed><time>2016-10-08T15:08:33Z</time><course>343</course><type>18</type></trkpt>
      <trkpt lat="41.3551133" lon="-3.333725"><ele>1187</ele><speed>18</speed><time>2016-10-08T15:08:35Z</time><course>347</course><type>18</type></trkpt>
      <trkpt lat="41.355235" lon="-3.3337634"><ele>1184</ele><speed>19</speed><time>2016-10-08T15:08:38Z</time><course>341</course><type>18</type></trkpt>
      <trkpt lat="41.355345" lon="-3.3338117"><ele>1181</ele><speed>20</speed><time>2016-10-08T15:08:42Z</time><course>327</course><type>18</type></trkpt>
      <trkpt lat="41.3554299" lon="-3.3338667"><ele>1180</ele><speed>19</speed><time>2016-10-08T15:08:44Z</time><course>328</course><type>18</type></trkpt>
      <trkpt lat="41.3555066" lon="-3.3339817"><ele>1174</ele><speed>13</speed><time>2016-10-08T15:08:51Z</time><course>309</course><type>18</type></trkpt>
      <trkpt lat="41.3555316" lon="-3.3341"><ele>1172</ele><speed>16</speed><time>2016-10-08T15:08:53Z</time><course>304</course><type>18</type></trkpt>
      <trkpt lat="41.3555866" lon="-3.334195"><ele>1171</ele><speed>13</speed><time>2016-10-08T15:08:55Z</time><course>292</course><type>18</type></trkpt>
      <trkpt lat="41.3555833" lon="-3.3343001"><ele>1168</ele><speed>18</speed><time>2016-10-08T15:08:57Z</time><course>286</course><type>18</type></trkpt>
      <trkpt lat="41.3555733" lon="-3.334405"><ele>1165</ele><speed>25</speed><time>2016-10-08T15:08:59Z</time><course>290</course><type>18</type></trkpt>
      <trkpt lat="41.3556133" lon="-3.3345717"><ele>1164</ele><speed>25</speed><time>2016-10-08T15:09:01Z</time><course>286</course><type>18</type></trkpt>
      <trkpt lat="41.3556183" lon="-3.334735"><ele>1162</ele><speed>23</speed><time>2016-10-08T15:09:03Z</time><course>277</course><type>18</type></trkpt>
      <trkpt lat="41.3555816" lon="-3.3348317"><ele>1159</ele><speed>11</speed><time>2016-10-08T15:09:07Z</time><course>280</course><type>18</type></trkpt>
      <trkpt lat="41.3556616" lon="-3.33489"><ele>1156</ele><speed>16</speed><time>2016-10-08T15:09:10Z</time><course>307</course><type>18</type></trkpt>
      <trkpt lat="41.3557516" lon="-3.3349684"><ele>1154</ele><speed>20</speed><time>2016-10-08T15:09:12Z</time><course>313</course><type>18</type></trkpt>
      <trkpt lat="41.355865" lon="-3.33503"><ele>1153</ele><speed>20</speed><time>2016-10-08T15:09:14Z</time><course>324</course><type>18</type></trkpt>
      <trkpt lat="41.3559383" lon="-3.3350784"><ele>1152</ele><speed>31</speed><time>2016-10-08T15:09:15Z</time><course>322</course><type>18</type></trkpt>
      <trkpt lat="41.3560066" lon="-3.33513"><ele>1151</ele><speed>28</speed><time>2016-10-08T15:09:16Z</time><course>321</course><type>18</type></trkpt>
      <trkpt lat="41.35611" lon="-3.3352234"><ele>1149</ele><speed>26</speed><time>2016-10-08T15:09:18Z</time><course>321</course><type>18</type></trkpt>
      <trkpt lat="41.3561516" lon="-3.3353184"><ele>1145</ele><speed>15</speed><time>2016-10-08T15:09:23Z</time><course>314</course><type>18</type></trkpt>
      <trkpt lat="41.3562633" lon="-3.3353517"><ele>1144</ele><speed>20</speed><time>2016-10-08T15:09:25Z</time><course>327</course><type>18</type></trkpt>
      <trkpt lat="41.356395" lon="-3.3354284"><ele>1142</ele><speed>24</speed><time>2016-10-08T15:09:27Z</time><course>321</course><type>18</type></trkpt>
      <trkpt lat="41.3565233" lon="-3.3355267"><ele>1140</ele><speed>26</speed><time>2016-10-08T15:09:29Z</time><course>322</course><type>18</type></trkpt>
      <trkpt lat="41.35664" lon="-3.33561"><ele>1139</ele><speed>26</speed><time>2016-10-08T15:09:31Z</time><course>327</course><type>18</type></trkpt>
      <trkpt lat="41.3567333" lon="-3.3356717"><ele>1138</ele><speed>37</speed><time>2016-10-08T15:09:32Z</time><course>324</course><type>18</type></trkpt>
      <trkpt lat="41.3568116" lon="-3.3357334"><ele>1137</ele><speed>32</speed><time>2016-10-08T15:09:33Z</time><course>324</course><type>18</type></trkpt>
      <trkpt lat="41.3568816" lon="-3.3357717"><ele>1136</ele><speed>26</speed><time>2016-10-08T15:09:34Z</time><course>329</course><type>18</type></trkpt>
      <trkpt lat="41.35697" lon="-3.335835"><ele>1135</ele><speed>23</speed><time>2016-10-08T15:09:36Z</time><course>332</course><type>18</type></trkpt>
      <trkpt lat="41.3570616" lon="-3.3358034"><ele>1131</ele><speed>12</speed><time>2016-10-08T15:09:40Z</time><course>338</course><type>18</type></trkpt>
      <trkpt lat="41.3571183" lon="-3.3359184"><ele>1130</ele><speed>14</speed><time>2016-10-08T15:09:42Z</time><course>317</course><type>18</type></trkpt>
      <trkpt lat="41.3571916" lon="-3.3359917"><ele>1128</ele><speed>14</speed><time>2016-10-08T15:09:44Z</time><course>324</course><type>18</type></trkpt>
      <trkpt lat="41.3573966" lon="-3.33597"><ele>1127</ele><speed>14</speed><time>2016-10-08T15:09:46Z</time><course>332</course><type>18</type></trkpt>
      <trkpt lat="41.35729" lon="-3.3359101"><ele>1121</ele><speed>0</speed><time>2016-10-08T15:09:49Z</time><course>326</course><type>18</type></trkpt>
      <trkpt lat="41.3573916" lon="-3.33586"><ele>1119</ele><speed>20</speed><time>2016-10-08T15:09:53Z</time><course>30</course><type>18</type></trkpt>
      <trkpt lat="41.3571466" lon="-3.3359551"><ele>1114</ele><speed>4</speed><time>2016-10-08T15:09:56Z</time><course>13</course><type>18</type></trkpt>
      <trkpt lat="41.3569933" lon="-3.3359551"><ele>1113</ele><speed>0</speed><time>2016-10-08T15:09:57Z</time><course>22</course><type>18</type></trkpt>
      <trkpt lat="41.3565966" lon="-3.336105"><ele>1110</ele><speed>0</speed><time>2016-10-08T15:09:58Z</time><course>134</course><type>18</type></trkpt>
      <trkpt lat="41.3564366" lon="-3.3361067"><ele>1106</ele><speed>4</speed><time>2016-10-08T15:10:01Z</time><course>158</course><type>18</type></trkpt>
      <trkpt lat="41.3564033" lon="-3.336185"><ele>1102</ele><speed>0</speed><time>2016-10-08T15:10:07Z</time><course>110</course><type>18</type></trkpt>
      <trkpt lat="41.3563299" lon="-3.336125"><ele>1100</ele><speed>10</speed><time>2016-10-08T15:10:11Z</time><course>135</course><type>18</type></trkpt>
      <trkpt lat="41.3563066" lon="-3.3362167"><ele>1098</ele><speed>0</speed><time>2016-10-08T15:10:13Z</time><course>153</course><type>18</type></trkpt>
      <trkpt lat="41.356395" lon="-3.3362284"><ele>1083</ele><speed>0</speed><time>2016-10-08T15:10:14Z</time><course>153</course><type>18</type></trkpt>
      <trkpt lat="41.3564416" lon="-3.3360884"><ele>1028</ele><speed>1</speed><time>2016-10-08T15:10:19Z</time><course>139</course><type>18</type></trkpt>
      <trkpt lat="41.3565083" lon="-3.3361134"><ele>1010</ele><speed>4</speed><time>2016-10-08T15:11:00Z</time><course>300</course><type>18</type></trkpt>
      <trkpt lat="41.3565266" lon="-3.3361267"><ele>1010</ele><speed>0</speed><time>2016-10-08T15:11:10Z</time><course>340</course><type>18</type></trkpt>
      <trkpt lat="41.3565016" lon="-3.3361"><ele>1009</ele><speed>4</speed><time>2016-10-08T15:11:23Z</time><course>292</course><type>18</type></trkpt>
      <trkpt lat="41.3565283" lon="-3.3361234"><ele>1008</ele><speed>0</speed><time>2016-10-08T15:11:27Z</time><course>327</course><type>18</type></trkpt>
      <trkpt lat="41.356525" lon="-3.336125"><ele>1007</ele><speed>0</speed><time>2016-10-08T15:12:27Z</time><course>29</course><type>18</type></trkpt>
      <trkpt lat="41.35649" lon="-3.3360234"><ele>1014</ele><speed>0</speed><time>2016-10-08T15:13:16Z</time><course>90</course><type>18</type></trkpt>
      <trkpt lat="41.3564616" lon="-3.3360134"><ele>1014</ele><speed>0</speed><time>2016-10-08T15:13:19Z</time><course>170</course><type>18</type></trkpt>
      <trkpt lat="41.3564166" lon="-3.336025"><ele>1014</ele><speed>3</speed><time>2016-10-08T15:13:37Z</time><course>194</course><type>18</type></trkpt>
      <trkpt lat="41.3564133" lon="-3.3360234"><ele>1015</ele><speed>0</speed><time>2016-10-08T15:14:37Z</time><course>162</course><type>18</type></trkpt>
      <trkpt lat="41.3564133" lon="-3.3360234"><ele>1015</ele><speed>0</speed><time>2016-10-08T15:15:37Z</time><course>162</course><type>18</type></trkpt>
      <trkpt lat="41.3564133" lon="-3.3360234"><ele>1015</ele><speed>0</speed><time>2016-10-08T15:16:37Z</time><course>162</course><type>18</type></trkpt>
      <trkpt lat="41.3564133" lon="-3.3360234"><ele>1015</ele><speed>0</speed><time>2016-10-08T15:17:37Z</time><course>162</course><type>18</type></trkpt>
      <trkpt lat="41.3563833" lon="-3.3359084"><ele>1036</ele><speed>0</speed><time>2016-10-08T15:18:01Z</time><course>145</course><type>18</type></trkpt>
      <trkpt lat="41.3563816" lon="-3.3359084"><ele>1035</ele><speed>0</speed><time>2016-10-08T15:19:01Z</time><course>145</course><type>18</type></trkpt>
      <trkpt lat="41.3563816" lon="-3.3359084"><ele>1035</ele><speed>0</speed><time>2016-10-08T15:20:01Z</time><course>145</course><type>18</type></trkpt>
      <trkpt lat="41.3563816" lon="-3.3359084"><ele>1035</ele><speed>0</speed><time>2016-10-08T15:21:01Z</time><course>145</course><type>18</type></trkpt>
      <trkpt lat="41.3563116" lon="-3.335915"><ele>1045</ele><speed>0</speed><time>2016-10-08T15:21:53Z</time><course>0</course><type>18</type></trkpt>
      <trkpt lat="41.3563566" lon="-3.33585"><ele>1043</ele><speed>0</speed><time>2016-10-08T15:22:10Z</time><course>0</course><type>18</type></trkpt>
      <trkpt lat="41.3564416" lon="-3.3358034"><ele>1044</ele><speed>9</speed><time>2016-10-08T15:22:12Z</time><course>101</course><type>18</type></trkpt>
      <trkpt lat="41.3565216" lon="-3.33575"><ele>1044</ele><speed>9</speed><time>2016-10-08T15:22:14Z</time><course>77</course><type>18</type></trkpt>
      <trkpt lat="41.3565916" lon="-3.3356934"><ele>1043</ele><speed>7</speed><time>2016-10-08T15:22:18Z</time><course>60</course><type>18</type></trkpt>
      <trkpt lat="41.35667" lon="-3.3357334"><ele>1043</ele><speed>3</speed><time>2016-10-08T15:22:24Z</time><course>13</course><type>18</type></trkpt>
      <trkpt lat="41.3567533" lon="-3.3357434"><ele>1043</ele><speed>4</speed><time>2016-10-08T15:22:29Z</time><course>10</course><type>18</type></trkpt>
      <trkpt lat="41.3567683" lon="-3.3358467"><ele>1044</ele><speed>0</speed><time>2016-10-08T15:22:33Z</time><course>355</course><type>18</type></trkpt>
      <trkpt lat="41.356785" lon="-3.3359534"><ele>1043</ele><speed>4</speed><time>2016-10-08T15:22:37Z</time><course>327</course><type>18</type></trkpt>
      <trkpt lat="41.3568066" lon="-3.3360884"><ele>1043</ele><speed>15</speed><time>2016-10-08T15:22:40Z</time><course>310</course><type>18</type></trkpt>
      <trkpt lat="41.3568533" lon="-3.3361967"><ele>1043</ele><speed>10</speed><time>2016-10-08T15:22:43Z</time><course>304</course><type>18</type></trkpt>
      <trkpt lat="41.3568516" lon="-3.3360834"><ele>1042</ele><speed>12</speed><time>2016-10-08T15:22:45Z</time><course>81</course><type>18</type></trkpt>
      <trkpt lat="41.3569266" lon="-3.3360717"><ele>1041</ele><speed>5</speed><time>2016-10-08T15:22:51Z</time><course>51</course><type>18</type></trkpt>
      <trkpt lat="41.3569383" lon="-3.336175"><ele>1041</ele><speed>6</speed><time>2016-10-08T15:22:53Z</time><course>320</course><type>18</type></trkpt>
      <trkpt lat="41.35694" lon="-3.3362667"><ele>1040</ele><speed>5</speed><time>2016-10-08T15:22:55Z</time><course>334</course><type>18</type></trkpt>
      <trkpt lat="41.3569616" lon="-3.33635"><ele>1040</ele><speed>6</speed><time>2016-10-08T15:22:56Z</time><course>342</course><type>18</type></trkpt>
      <trkpt lat="41.3569733" lon="-3.3364517"><ele>1039</ele><speed>9</speed><time>2016-10-08T15:22:57Z</time><course>321</course><type>18</type></trkpt>
      <trkpt lat="41.357" lon="-3.3365167"><ele>1037</ele><speed>7</speed><time>2016-10-08T15:22:59Z</time><course>28</course><type>18</type></trkpt>
      <trkpt lat="41.3570499" lon="-3.3365667"><ele>1034</ele><speed>19</speed><time>2016-10-08T15:23:01Z</time><course>317</course><type>18</type></trkpt>
   </trkseg>
  </trk>
</gpx>
